<?xml version='1.0' encoding='UTF-8'?><gpx version="1.1" creator="JPX - https://github.com/jenetics/jpx" xmlns="http://www.topografix.com/GPX/1/1"><trk><trkseg><trkpt lat="44.6342125" lon="10.2325016"><ele>450.0</ele><time>2026-04-24T12:57:02.257Z</time></trkpt><trkpt lat="44.6341464" lon="10.2323485"><ele>450.0</ele><time>2026-04-24T12:57:03.257Z</time></trkpt><trkpt lat="44.6340856" lon="10.2321959"><ele>450.0</ele><time>2026-04-24T12:57:04.256Z</time></trkpt><trkpt lat="44.6340405" lon="10.2320506"><ele>450.0</ele><time>2026-04-24T12:57:05.256Z</time></trkpt><trkpt lat="44.6340278" lon="10.2319056"><ele>449.75</ele><time>2026-04-24T12:57:06.257Z</time></trkpt><trkpt lat="44.6340406" lon="10.2317472"><ele>449.5</ele><time>2026-04-24T12:57:07.256Z</time></trkpt><trkpt lat="44.634067" lon="10.2315784"><ele>449.25</ele><time>2026-04-24T12:57:08.256Z</time></trkpt><trkpt lat="44.6340927" lon="10.2314023"><ele>449.0</ele><time>2026-04-24T12:57:09.257Z</time></trkpt><trkpt lat="44.634115" lon="10.2312143"><ele>449.0</ele><time>2026-04-24T12:57:10.256Z</time></trkpt><trkpt lat="44.6341415" lon="10.2310131"><ele>449.0</ele><time>2026-04-24T12:57:11.255Z</time></trkpt><trkpt lat="44.6341639" lon="10.2308135"><ele>449.0</ele><time>2026-04-24T12:57:12.256Z</time></trkpt><trkpt lat="44.6341814" lon="10.2306171"><ele>449.0</ele><time>2026-04-24T12:57:13.257Z</time></trkpt><trkpt lat="44.6341938" lon="10.230407"><ele>448.3333333333333</ele><time>2026-04-24T12:57:14.256Z</time></trkpt><trkpt lat="44.6342199" lon="10.2301952"><ele>447.66666666666663</ele><time>2026-04-24T12:57:15.255Z</time></trkpt><trkpt lat="44.6342784" lon="10.2299902"><ele>447.0</ele><time>2026-04-24T12:57:16.256Z</time></trkpt><trkpt lat="44.6343493" lon="10.2297938"><ele>448.33333333333337</ele><time>2026-04-24T12:57:17.256Z</time></trkpt><trkpt lat="44.6344303" lon="10.2295905"><ele>449.6666666666667</ele><time>2026-04-24T12:57:18.256Z</time></trkpt><trkpt lat="44.6345357" lon="10.2294137"><ele>451.0</ele><time>2026-04-24T12:57:19.256Z</time></trkpt><trkpt lat="44.6346547" lon="10.2292672"><ele>449.75</ele><time>2026-04-24T12:57:20.257Z</time></trkpt><trkpt lat="44.6347568" lon="10.2291436"><ele>448.5</ele><time>2026-04-24T12:57:21.256Z</time></trkpt><trkpt lat="44.6348407" lon="10.2290204"><ele>447.25</ele><time>2026-04-24T12:57:22.256Z</time></trkpt><trkpt lat="44.6349203" lon="10.2288817"><ele>446.0</ele><time>2026-04-24T12:57:23.256Z</time></trkpt><trkpt lat="44.6349982" lon="10.2287082"><ele>446.0</ele><time>2026-04-24T12:57:24.256Z</time></trkpt><trkpt lat="44.6350566" lon="10.2285266"><ele>446.0</ele><time>2026-04-24T12:57:25.256Z</time></trkpt><trkpt lat="44.6351015" lon="10.2283431"><ele>446.0</ele><time>2026-04-24T12:57:26.257Z</time></trkpt><trkpt lat="44.6351188" lon="10.2281924"><ele>446.0</ele><time>2026-04-24T12:57:27.256Z</time></trkpt><trkpt lat="44.6351082" lon="10.2280368"><ele>448.0</ele><time>2026-04-24T12:57:28.257Z</time></trkpt><trkpt lat="44.6350563" lon="10.2278836"><ele>450.0</ele><time>2026-04-24T12:57:29.257Z</time></trkpt><trkpt lat="44.6349824" lon="10.2277361"><ele>452.0</ele><time>2026-04-24T12:57:30.257Z</time></trkpt><trkpt lat="44.6349019" lon="10.2275809"><ele>454.0</ele><time>2026-04-24T12:57:31.256Z</time></trkpt><trkpt lat="44.6348227" lon="10.2274205"><ele>455.0</ele><time>2026-04-24T12:57:32.256Z</time></trkpt><trkpt lat="44.6347503" lon="10.2272819"><ele>456.0</ele><time>2026-04-24T12:57:33.256Z</time></trkpt><trkpt lat="44.634691" lon="10.2271652"><ele>457.0</ele><time>2026-04-24T12:57:34.256Z</time></trkpt><trkpt lat="44.6346297" lon="10.2270829"><ele>458.0</ele><time>2026-04-24T12:57:35.257Z</time></trkpt><trkpt lat="44.63455" lon="10.2270318"><ele>459.0</ele><time>2026-04-24T12:57:36.257Z</time></trkpt><trkpt lat="44.6344531" lon="10.2270369"><ele>459.0</ele><time>2026-04-24T12:57:37.256Z</time></trkpt><trkpt lat="44.6343397" lon="10.2270871"><ele>459.0</ele><time>2026-04-24T12:57:38.256Z</time></trkpt><trkpt lat="44.6342092" lon="10.2271374"><ele>459.0</ele><time>2026-04-24T12:57:39.256Z</time></trkpt><trkpt lat="44.6340768" lon="10.227188"><ele>459.0</ele><time>2026-04-24T12:57:40.256Z</time></trkpt><trkpt lat="44.6339566" lon="10.227237"><ele>459.0</ele><time>2026-04-24T12:57:41.255Z</time></trkpt><trkpt lat="44.633832" lon="10.2272687"><ele>459.0</ele><time>2026-04-24T12:57:42.256Z</time></trkpt><trkpt lat="44.6337058" lon="10.2272575"><ele>459.0</ele><time>2026-04-24T12:57:43.256Z</time></trkpt><trkpt lat="44.6335767" lon="10.2272255"><ele>459.0</ele><time>2026-04-24T12:57:44.256Z</time></trkpt><trkpt lat="44.633452" lon="10.2271734"><ele>459.5</ele><time>2026-04-24T12:57:45.257Z</time></trkpt><trkpt lat="44.6333261" lon="10.22711"><ele>460.0</ele><time>2026-04-24T12:57:46.257Z</time></trkpt><trkpt lat="44.6331966" lon="10.2270649"><ele>460.5</ele><time>2026-04-24T12:57:47.255Z</time></trkpt><trkpt lat="44.6330644" lon="10.2270305"><ele>461.0</ele><time>2026-04-24T12:57:48.256Z</time></trkpt><trkpt lat="44.6329322" lon="10.2269741"><ele>464.0</ele><time>2026-04-24T12:57:49.255Z</time></trkpt><trkpt lat="44.6327963" lon="10.2269224"><ele>467.0</ele><time>2026-04-24T12:57:50.256Z</time></trkpt><trkpt lat="44.6326591" lon="10.2268768"><ele>470.0</ele><time>2026-04-24T12:57:51.257Z</time></trkpt><trkpt lat="44.6325192" lon="10.226824"><ele>473.0</ele><time>2026-04-24T12:57:52.256Z</time></trkpt><trkpt lat="44.6323777" lon="10.2267688"><ele>473.0</ele><time>2026-04-24T12:57:53.256Z</time></trkpt><trkpt lat="44.6322388" lon="10.2267115"><ele>473.0</ele><time>2026-04-24T12:57:54.256Z</time></trkpt><trkpt lat="44.632093" lon="10.2266546"><ele>473.0</ele><time>2026-04-24T12:57:55.255Z</time></trkpt><trkpt lat="44.6319455" lon="10.2265978"><ele>473.0</ele><time>2026-04-24T12:57:56.257Z</time></trkpt><trkpt lat="44.6318084" lon="10.2265478"><ele>475.4</ele><time>2026-04-24T12:57:57.256Z</time></trkpt><trkpt lat="44.6316815" lon="10.2265184"><ele>477.79999999999995</ele><time>2026-04-24T12:57:58.257Z</time></trkpt><trkpt lat="44.631584" lon="10.2265159"><ele>480.2</ele><time>2026-04-24T12:57:59.257Z</time></trkpt><trkpt lat="44.6314846" lon="10.226506"><ele>482.6</ele><time>2026-04-24T12:58:00.256Z</time></trkpt><trkpt lat="44.6313959" lon="10.226524"><ele>485.0</ele><time>2026-04-24T12:58:01.256Z</time></trkpt><trkpt lat="44.6313159" lon="10.2266007"><ele>485.0</ele><time>2026-04-24T12:58:02.256Z</time></trkpt><trkpt lat="44.6312107" lon="10.2266136"><ele>485.0</ele><time>2026-04-24T12:58:03.256Z</time></trkpt><trkpt lat="44.6311181" lon="10.226638"><ele>485.0</ele><time>2026-04-24T12:58:04.255Z</time></trkpt><trkpt lat="44.6310275" lon="10.2266665"><ele>485.0</ele><time>2026-04-24T12:58:05.256Z</time></trkpt><trkpt lat="44.6309365" lon="10.2267016"><ele>485.0</ele><time>2026-04-24T12:58:06.256Z</time></trkpt><trkpt lat="44.6308618" lon="10.2267508"><ele>485.6</ele><time>2026-04-24T12:58:07.257Z</time></trkpt><trkpt lat="44.6307727" lon="10.2267937"><ele>486.2</ele><time>2026-04-24T12:58:08.257Z</time></trkpt><trkpt lat="44.6306905" lon="10.2268416"><ele>486.79999999999995</ele><time>2026-04-24T12:58:09.256Z</time></trkpt><trkpt lat="44.6306027" lon="10.2269058"><ele>487.4</ele><time>2026-04-24T12:58:10.256Z</time></trkpt><trkpt lat="44.630508" lon="10.2269582"><ele>488.0</ele><time>2026-04-24T12:58:11.256Z</time></trkpt><trkpt lat="44.6304051" lon="10.2270174"><ele>488.2</ele><time>2026-04-24T12:58:12.255Z</time></trkpt><trkpt lat="44.6302965" lon="10.2270738"><ele>488.4</ele><time>2026-04-24T12:58:13.256Z</time></trkpt><trkpt lat="44.6301936" lon="10.2271281"><ele>488.59999999999997</ele><time>2026-04-24T12:58:14.257Z</time></trkpt><trkpt lat="44.6301027" lon="10.2271961"><ele>488.79999999999995</ele><time>2026-04-24T12:58:15.255Z</time></trkpt><trkpt lat="44.630002" lon="10.2272499"><ele>489.0</ele><time>2026-04-24T12:58:16.256Z</time></trkpt><trkpt lat="44.6298893" lon="10.2273036"><ele>491.0</ele><time>2026-04-24T12:58:17.257Z</time></trkpt><trkpt lat="44.6297721" lon="10.2273541"><ele>493.0</ele><time>2026-04-24T12:58:18.256Z</time></trkpt><trkpt lat="44.6296645" lon="10.2274141"><ele>495.0</ele><time>2026-04-24T12:58:19.256Z</time></trkpt><trkpt lat="44.629556" lon="10.2274682"><ele>497.0</ele><time>2026-04-24T12:58:20.256Z</time></trkpt><trkpt lat="44.629446" lon="10.2275244"><ele>498.20000000000005</ele><time>2026-04-24T12:58:21.256Z</time></trkpt><trkpt lat="44.6293403" lon="10.2275849"><ele>499.40000000000003</ele><time>2026-04-24T12:58:22.257Z</time></trkpt><trkpt lat="44.6292359" lon="10.2276473"><ele>500.59999999999997</ele><time>2026-04-24T12:58:23.256Z</time></trkpt><trkpt lat="44.6291515" lon="10.2277099"><ele>501.79999999999995</ele><time>2026-04-24T12:58:24.255Z</time></trkpt><trkpt lat="44.6290823" lon="10.2277741"><ele>503.0</ele><time>2026-04-24T12:58:25.256Z</time></trkpt><trkpt lat="44.6290228" lon="10.2278221"><ele>502.99999999999994</ele><time>2026-04-24T12:58:26.256Z</time></trkpt><trkpt lat="44.6289614" lon="10.2279018"><ele>503.0</ele><time>2026-04-24T12:58:27.255Z</time></trkpt><trkpt lat="44.6288959" lon="10.2279951"><ele>503.0</ele><time>2026-04-24T12:58:28.256Z</time></trkpt><trkpt lat="44.6288304" lon="10.228051"><ele>503.0</ele><time>2026-04-24T12:58:29.255Z</time></trkpt><trkpt lat="44.6287603" lon="10.2280893"><ele>502.99999999999994</ele><time>2026-04-24T12:58:30.255Z</time></trkpt><trkpt lat="44.6286822" lon="10.2281093"><ele>503.0</ele><time>2026-04-24T12:58:31.255Z</time></trkpt><trkpt lat="44.6286018" lon="10.2281168"><ele>505.3333333333333</ele><time>2026-04-24T12:58:32.257Z</time></trkpt><trkpt lat="44.628521" lon="10.2281338"><ele>507.66666666666663</ele><time>2026-04-24T12:58:33.256Z</time></trkpt><trkpt lat="44.6284528" lon="10.2281535"><ele>510.0</ele><time>2026-04-24T12:58:34.256Z</time></trkpt><trkpt lat="44.6283732" lon="10.2282215"><ele>512.3333333333334</ele><time>2026-04-24T12:58:36.255Z</time></trkpt><trkpt lat="44.6283248" lon="10.228297"><ele>514.6666666666667</ele><time>2026-04-24T12:58:39.257Z</time></trkpt><trkpt lat="44.6282246" lon="10.2282881"><ele>517.0</ele><time>2026-04-24T13:02:05.255Z</time></trkpt><trkpt lat="44.6281668" lon="10.2282359"><ele>517.0</ele><time>2026-04-24T13:02:06.254Z</time></trkpt><trkpt lat="44.628122" lon="10.2281707"><ele>517.0</ele><time>2026-04-24T13:02:07.254Z</time></trkpt><trkpt lat="44.628066" lon="10.228117"><ele>517.0</ele><time>2026-04-24T13:02:08.254Z</time></trkpt><trkpt lat="44.6279892" lon="10.2280675"><ele>517.0</ele><time>2026-04-24T13:02:09.256Z</time></trkpt><trkpt lat="44.6279127" lon="10.2280169"><ele>517.0</ele><time>2026-04-24T13:02:10.255Z</time></trkpt><trkpt lat="44.6278289" lon="10.2279787"><ele>517.0</ele><time>2026-04-24T13:02:11.256Z</time></trkpt><trkpt lat="44.6277544" lon="10.2279446"><ele>519.8333333333334</ele><time>2026-04-24T13:02:12.255Z</time></trkpt><trkpt lat="44.6276823" lon="10.2278915"><ele>522.6666666666667</ele><time>2026-04-24T13:02:13.255Z</time></trkpt><trkpt lat="44.6276096" lon="10.2278397"><ele>525.5</ele><time>2026-04-24T13:02:14.255Z</time></trkpt><trkpt lat="44.6275345" lon="10.2277975"><ele>528.3333333333334</ele><time>2026-04-24T13:02:15.256Z</time></trkpt><trkpt lat="44.6274282" lon="10.2277261"><ele>531.1666666666666</ele><time>2026-04-24T13:02:17.256Z</time></trkpt><trkpt lat="44.6273651" lon="10.2276963"><ele>534.0</ele><time>2026-04-24T13:02:18.256Z</time></trkpt><trkpt lat="44.6273014" lon="10.2276615"><ele>534.0</ele><time>2026-04-24T13:02:19.256Z</time></trkpt><trkpt lat="44.6272333" lon="10.2276274"><ele>534.0</ele><time>2026-04-24T13:02:20.254Z</time></trkpt><trkpt lat="44.627172" lon="10.2276033"><ele>534.0</ele><time>2026-04-24T13:02:21.254Z</time></trkpt><trkpt lat="44.6271058" lon="10.2275932"><ele>534.0</ele><time>2026-04-24T13:02:22.255Z</time></trkpt><trkpt lat="44.6269827" lon="10.227606"><ele>534.0</ele><time>2026-04-24T13:02:24.255Z</time></trkpt><trkpt lat="44.6269119" lon="10.22762"><ele>534.0</ele><time>2026-04-24T13:02:25.256Z</time></trkpt><trkpt lat="44.626844" lon="10.2276287"><ele>537.0</ele><time>2026-04-24T13:02:26.255Z</time></trkpt><trkpt lat="44.6267752" lon="10.2276295"><ele>540.0</ele><time>2026-04-24T13:02:27.254Z</time></trkpt><trkpt lat="44.6267062" lon="10.2276365"><ele>543.0</ele><time>2026-04-24T13:02:28.255Z</time></trkpt><trkpt lat="44.6266392" lon="10.2276446"><ele>546.0</ele><time>2026-04-24T13:02:29.256Z</time></trkpt><trkpt lat="44.6265725" lon="10.2276456"><ele>549.0</ele><time>2026-04-24T13:02:30.256Z</time></trkpt><trkpt lat="44.6265033" lon="10.227644"><ele>552.0</ele><time>2026-04-24T13:02:31.255Z</time></trkpt><trkpt lat="44.6263888" lon="10.2276055"><ele>552.0</ele><time>2026-04-24T13:02:33.254Z</time></trkpt><trkpt lat="44.6262764" lon="10.2275137"><ele>552.0</ele><time>2026-04-24T13:02:35.254Z</time></trkpt><trkpt lat="44.6262321" lon="10.2274396"><ele>552.0</ele><time>2026-04-24T13:02:36.255Z</time></trkpt><trkpt lat="44.6261933" lon="10.2273682"><ele>552.0</ele><time>2026-04-24T13:02:37.255Z</time></trkpt><trkpt lat="44.6261094" lon="10.2272486"><ele>552.0</ele><time>2026-04-24T13:02:39.254Z</time></trkpt><trkpt lat="44.6260531" lon="10.2271699"><ele>553.6666666666666</ele><time>2026-04-24T13:02:40.255Z</time></trkpt><trkpt lat="44.6259917" lon="10.2271059"><ele>555.3333333333334</ele><time>2026-04-24T13:02:41.254Z</time></trkpt><trkpt lat="44.6258728" lon="10.2270652"><ele>557.0</ele><time>2026-04-24T13:02:43.254Z</time></trkpt><trkpt lat="44.6258009" lon="10.2270459"><ele>558.6666666666667</ele><time>2026-04-24T13:02:44.254Z</time></trkpt><trkpt lat="44.6257221" lon="10.2270065"><ele>560.3333333333334</ele><time>2026-04-24T13:02:45.254Z</time></trkpt><trkpt lat="44.6256401" lon="10.2269494"><ele>562.0</ele><time>2026-04-24T13:02:46.255Z</time></trkpt><trkpt lat="44.6255599" lon="10.2269022"><ele>562.0</ele><time>2026-04-24T13:02:47.254Z</time></trkpt><trkpt lat="44.6254888" lon="10.2268611"><ele>562.0</ele><time>2026-04-24T13:02:48.254Z</time></trkpt><trkpt lat="44.6254309" lon="10.2268195"><ele>562.0</ele><time>2026-04-24T13:02:49.254Z</time></trkpt><trkpt lat="44.6253289" lon="10.2267186"><ele>562.0</ele><time>2026-04-24T13:02:51.253Z</time></trkpt><trkpt lat="44.6252802" lon="10.2266459"><ele>562.0</ele><time>2026-04-24T13:02:52.255Z</time></trkpt><trkpt lat="44.6252361" lon="10.226576"><ele>562.0</ele><time>2026-04-24T13:02:53.254Z</time></trkpt><trkpt lat="44.6251711" lon="10.2264211"><ele>568.0</ele><time>2026-04-24T13:02:55.254Z</time></trkpt><trkpt lat="44.6251555" lon="10.22626"><ele>574.0</ele><time>2026-04-24T13:02:57.253Z</time></trkpt><trkpt lat="44.6251434" lon="10.2261231"><ele>580.0</ele><time>2026-04-24T13:02:59.253Z</time></trkpt><trkpt lat="44.6251327" lon="10.225994"><ele>586.0</ele><time>2026-04-24T13:03:01.254Z</time></trkpt><trkpt lat="44.6251208" lon="10.2258664"><ele>592.0</ele><time>2026-04-24T13:03:03.254Z</time></trkpt><trkpt lat="44.62508" lon="10.2257784"><ele>592.0</ele><time>2026-04-24T13:03:05.253Z</time></trkpt><trkpt lat="44.6250174" lon="10.2256766"><ele>592.0</ele><time>2026-04-24T13:03:08.255Z</time></trkpt><trkpt lat="44.6249458" lon="10.2256177"><ele>592.0</ele><time>2026-04-24T13:03:10.254Z</time></trkpt><trkpt lat="44.6248949" lon="10.2255617"><ele>592.0</ele><time>2026-04-24T13:03:17.254Z</time></trkpt><trkpt lat="44.6248275" lon="10.225419"><ele>592.0</ele><time>2026-04-24T13:03:19.254Z</time></trkpt><trkpt lat="44.624798" lon="10.2252933"><ele>591.1666666666667</ele><time>2026-04-24T13:03:21.254Z</time></trkpt><trkpt lat="44.6247632" lon="10.2252123"><ele>590.3333333333334</ele><time>2026-04-24T13:03:23.255Z</time></trkpt><trkpt lat="44.624682" lon="10.2251274"><ele>589.5</ele><time>2026-04-24T13:03:25.253Z</time></trkpt><trkpt lat="44.6245984" lon="10.2250584"><ele>588.6666666666666</ele><time>2026-04-24T13:03:27.253Z</time></trkpt><trkpt lat="44.6245004" lon="10.2250587"><ele>587.8333333333333</ele><time>2026-04-24T13:03:29.254Z</time></trkpt><trkpt lat="44.6244444" lon="10.2249749"><ele>587.0</ele><time>2026-04-24T13:03:32.254Z</time></trkpt><trkpt lat="44.6244289" lon="10.2248649"><ele>588.5</ele><time>2026-04-24T13:03:34.254Z</time></trkpt><trkpt lat="44.6243822" lon="10.2247974"><ele>590.0</ele><time>2026-04-24T13:03:36.254Z</time></trkpt><trkpt lat="44.6243627" lon="10.2246844"><ele>591.5</ele><time>2026-04-24T13:03:45.254Z</time></trkpt><trkpt lat="44.6243433" lon="10.2245437"><ele>593.0</ele><time>2026-04-24T13:03:47.254Z</time></trkpt><trkpt lat="44.6243203" lon="10.2243893"><ele>594.5</ele><time>2026-04-24T13:03:49.254Z</time></trkpt><trkpt lat="44.6243027" lon="10.2242935"><ele>596.0</ele><time>2026-04-24T13:03:50.254Z</time></trkpt><trkpt lat="44.6242594" lon="10.2241468"><ele>596.0</ele><time>2026-04-24T13:03:52.254Z</time></trkpt><trkpt lat="44.6242061" lon="10.2240042"><ele>596.0</ele><time>2026-04-24T13:03:54.254Z</time></trkpt><trkpt lat="44.624126" lon="10.2238523"><ele>596.0</ele><time>2026-04-24T13:03:56.255Z</time></trkpt><trkpt lat="44.6240832" lon="10.2237777"><ele>596.0</ele><time>2026-04-24T13:03:57.254Z</time></trkpt><trkpt lat="44.62404" lon="10.2236961"><ele>596.0</ele><time>2026-04-24T13:03:58.255Z</time></trkpt><trkpt lat="44.6239951" lon="10.2236271"><ele>596.1666666666666</ele><time>2026-04-24T13:03:59.254Z</time></trkpt><trkpt lat="44.623919" lon="10.2235439"><ele>596.3333333333333</ele><time>2026-04-24T13:04:01.254Z</time></trkpt><trkpt lat="44.6238603" lon="10.2234981"><ele>596.5</ele><time>2026-04-24T13:04:03.254Z</time></trkpt><trkpt lat="44.6237835" lon="10.2234854"><ele>596.6666666666666</ele><time>2026-04-24T13:04:05.253Z</time></trkpt><trkpt lat="44.6237107" lon="10.2234906"><ele>596.8333333333334</ele><time>2026-04-24T13:04:07.253Z</time></trkpt><trkpt lat="44.6236434" lon="10.2234989"><ele>597.0</ele><time>2026-04-24T13:04:10.253Z</time></trkpt><trkpt lat="44.6235741" lon="10.223529"><ele>597.0</ele><time>2026-04-24T13:04:12.254Z</time></trkpt><trkpt lat="44.6234811" lon="10.2235796"><ele>597.0</ele><time>2026-04-24T13:04:14.253Z</time></trkpt><trkpt lat="44.6233795" lon="10.223633"><ele>597.0</ele><time>2026-04-24T13:04:16.253Z</time></trkpt><trkpt lat="44.6232721" lon="10.2236824"><ele>597.0</ele><time>2026-04-24T13:04:18.253Z</time></trkpt><trkpt lat="44.6231692" lon="10.223706"><ele>597.0</ele><time>2026-04-24T13:04:20.254Z</time></trkpt><trkpt lat="44.6231023" lon="10.2237182"><ele>597.0</ele><time>2026-04-24T13:04:22.254Z</time></trkpt><trkpt lat="44.6230445" lon="10.2237637"><ele>597.0</ele><time>2026-04-24T13:04:36.253Z</time></trkpt><trkpt lat="44.6229906" lon="10.2238599"><ele>597.0</ele><time>2026-04-24T13:04:38.254Z</time></trkpt><trkpt lat="44.6229365" lon="10.2239318"><ele>597.0</ele><time>2026-04-24T13:04:40.254Z</time></trkpt><trkpt lat="44.6228977" lon="10.2240556"><ele>597.0</ele><time>2026-04-24T13:04:43.253Z</time></trkpt><trkpt lat="44.6228746" lon="10.2241568"><ele>597.0</ele><time>2026-04-24T13:04:45.253Z</time></trkpt><trkpt lat="44.6227909" lon="10.2242179"><ele>599.8333333333334</ele><time>2026-04-24T13:04:49.254Z</time></trkpt><trkpt lat="44.6227102" lon="10.2242181"><ele>602.6666666666666</ele><time>2026-04-24T13:04:51.254Z</time></trkpt><trkpt lat="44.6226375" lon="10.2242384"><ele>605.5</ele><time>2026-04-24T13:04:53.254Z</time></trkpt><trkpt lat="44.6225535" lon="10.2242776"><ele>608.3333333333333</ele><time>2026-04-24T13:04:55.253Z</time></trkpt><trkpt lat="44.6224593" lon="10.2243232"><ele>611.1666666666666</ele><time>2026-04-24T13:04:57.255Z</time></trkpt><trkpt lat="44.6223847" lon="10.2242897"><ele>614.0</ele><time>2026-04-24T13:04:59.253Z</time></trkpt><trkpt lat="44.6223338" lon="10.2242245"><ele>614.0</ele><time>2026-04-24T13:05:01.254Z</time></trkpt><trkpt lat="44.6222802" lon="10.2241503"><ele>614.0</ele><time>2026-04-24T13:05:17.255Z</time></trkpt><trkpt lat="44.6222045" lon="10.2240331"><ele>614.0</ele><time>2026-04-24T13:05:19.253Z</time></trkpt><trkpt lat="44.622121" lon="10.2238997"><ele>614.0</ele><time>2026-04-24T13:05:21.254Z</time></trkpt><trkpt lat="44.6220747" lon="10.2238328"><ele>614.0</ele><time>2026-04-24T13:05:22.253Z</time></trkpt><trkpt lat="44.6220239" lon="10.2237643"><ele>615.1428571428571</ele><time>2026-04-24T13:05:23.254Z</time></trkpt><trkpt lat="44.6219759" lon="10.2236991"><ele>616.2857142857142</ele><time>2026-04-24T13:05:24.253Z</time></trkpt><trkpt lat="44.6219284" lon="10.2236303"><ele>617.4285714285713</ele><time>2026-04-24T13:05:25.254Z</time></trkpt><trkpt lat="44.6218753" lon="10.2235616"><ele>618.5714285714286</ele><time>2026-04-24T13:05:26.253Z</time></trkpt><trkpt lat="44.6218204" lon="10.2234839"><ele>619.7142857142858</ele><time>2026-04-24T13:05:27.255Z</time></trkpt><trkpt lat="44.6217613" lon="10.2234069"><ele>620.8571428571428</ele><time>2026-04-24T13:05:28.254Z</time></trkpt><trkpt lat="44.6217113" lon="10.2233424"><ele>622.0</ele><time>2026-04-24T13:05:29.253Z</time></trkpt><trkpt lat="44.6216573" lon="10.22327"><ele>622.0</ele><time>2026-04-24T13:05:30.253Z</time></trkpt><trkpt lat="44.6216024" lon="10.223196"><ele>622.0</ele><time>2026-04-24T13:05:31.254Z</time></trkpt><trkpt lat="44.6215479" lon="10.2231292"><ele>622.0</ele><time>2026-04-24T13:05:32.253Z</time></trkpt><trkpt lat="44.6214934" lon="10.2230676"><ele>622.0</ele><time>2026-04-24T13:05:33.254Z</time></trkpt><trkpt lat="44.6214468" lon="10.2230032"><ele>622.0</ele><time>2026-04-24T13:05:34.253Z</time></trkpt><trkpt lat="44.6213968" lon="10.2229368"><ele>622.0</ele><time>2026-04-24T13:05:35.255Z</time></trkpt><trkpt lat="44.6213136" lon="10.222832"><ele>622.2</ele><time>2026-04-24T13:05:37.253Z</time></trkpt><trkpt lat="44.6212191" lon="10.2227423"><ele>622.4000000000001</ele><time>2026-04-24T13:05:39.255Z</time></trkpt><trkpt lat="44.6211299" lon="10.2226325"><ele>622.5999999999999</ele><time>2026-04-24T13:05:41.255Z</time></trkpt><trkpt lat="44.6210688" lon="10.2225037"><ele>622.8</ele><time>2026-04-24T13:05:43.254Z</time></trkpt><trkpt lat="44.6210419" lon="10.222418"><ele>623.0</ele><time>2026-04-24T13:05:44.255Z</time></trkpt><trkpt lat="44.6210127" lon="10.2222894"><ele>624.1666666666666</ele><time>2026-04-24T13:05:46.254Z</time></trkpt><trkpt lat="44.6209563" lon="10.2222238"><ele>625.3333333333333</ele><time>2026-04-24T13:05:48.254Z</time></trkpt><trkpt lat="44.6208663" lon="10.2221703"><ele>626.5</ele><time>2026-04-24T13:05:50.254Z</time></trkpt><trkpt lat="44.6207995" lon="10.2220453"><ele>627.6666666666666</ele><time>2026-04-24T13:05:52.253Z</time></trkpt><trkpt lat="44.6207689" lon="10.2219651"><ele>628.8333333333334</ele><time>2026-04-24T13:05:53.254Z</time></trkpt><trkpt lat="44.6207298" lon="10.2218802"><ele>630.0</ele><time>2026-04-24T13:05:54.253Z</time></trkpt><trkpt lat="44.6206906" lon="10.2218053"><ele>630.0</ele><time>2026-04-24T13:05:55.254Z</time></trkpt><trkpt lat="44.6206512" lon="10.2217212"><ele>630.0</ele><time>2026-04-24T13:05:56.253Z</time></trkpt><trkpt lat="44.6206071" lon="10.2216426"><ele>630.0</ele><time>2026-04-24T13:05:57.253Z</time></trkpt><trkpt lat="44.620551" lon="10.2215727"><ele>630.0</ele><time>2026-04-24T13:05:58.254Z</time></trkpt><trkpt lat="44.6204934" lon="10.2214972"><ele>630.0</ele><time>2026-04-24T13:05:59.255Z</time></trkpt><trkpt lat="44.6204421" lon="10.2214313"><ele>630.0</ele><time>2026-04-24T13:06:00.255Z</time></trkpt><trkpt lat="44.6203848" lon="10.2213644"><ele>630.0</ele><time>2026-04-24T13:06:01.254Z</time></trkpt><trkpt lat="44.6203372" lon="10.2213024"><ele>632.3333333333334</ele><time>2026-04-24T13:06:02.254Z</time></trkpt><trkpt lat="44.6202702" lon="10.221172"><ele>634.6666666666666</ele><time>2026-04-24T13:06:04.254Z</time></trkpt><trkpt lat="44.6202352" lon="10.2210739"><ele>637.0</ele><time>2026-04-24T13:06:05.254Z</time></trkpt><trkpt lat="44.6201899" lon="10.2209701"><ele>639.3333333333333</ele><time>2026-04-24T13:06:06.255Z</time></trkpt><trkpt lat="44.6201477" lon="10.2208732"><ele>641.6666666666666</ele><time>2026-04-24T13:06:07.255Z</time></trkpt><trkpt lat="44.6201004" lon="10.2207965"><ele>644.0</ele><time>2026-04-24T13:06:08.254Z</time></trkpt><trkpt lat="44.620051" lon="10.2206916"><ele>644.3333333333333</ele><time>2026-04-24T13:06:09.254Z</time></trkpt><trkpt lat="44.6200131" lon="10.2205948"><ele>644.6666666666666</ele><time>2026-04-24T13:06:10.254Z</time></trkpt><trkpt lat="44.6199421" lon="10.2204347"><ele>645.0</ele><time>2026-04-24T13:06:12.253Z</time></trkpt><trkpt lat="44.6198831" lon="10.2203892"><ele>645.3333333333334</ele><time>2026-04-24T13:06:13.253Z</time></trkpt><trkpt lat="44.6198206" lon="10.220335"><ele>645.6666666666667</ele><time>2026-04-24T13:06:14.253Z</time></trkpt><trkpt lat="44.6197604" lon="10.2202779"><ele>646.0</ele><time>2026-04-24T13:06:15.253Z</time></trkpt><trkpt lat="44.6197061" lon="10.2202158"><ele>646.0</ele><time>2026-04-24T13:06:16.253Z</time></trkpt><trkpt lat="44.6196502" lon="10.2201581"><ele>646.0</ele><time>2026-04-24T13:06:17.252Z</time></trkpt><trkpt lat="44.6195986" lon="10.2200858"><ele>646.0</ele><time>2026-04-24T13:06:18.252Z</time></trkpt><trkpt lat="44.6195553" lon="10.2199978"><ele>646.0</ele><time>2026-04-24T13:06:20.253Z</time></trkpt><trkpt lat="44.6194699" lon="10.2199952"><ele>646.0</ele><time>2026-04-24T13:06:24.253Z</time></trkpt><trkpt lat="44.6193798" lon="10.2200149"><ele>646.0</ele><time>2026-04-24T13:06:27.252Z</time></trkpt><trkpt lat="44.6193101" lon="10.2199823"><ele>648.5999999999999</ele><time>2026-04-24T13:06:29.252Z</time></trkpt><trkpt lat="44.6192382" lon="10.2198881"><ele>651.2</ele><time>2026-04-24T13:06:33.252Z</time></trkpt><trkpt lat="44.6191704" lon="10.2198002"><ele>653.8</ele><time>2026-04-24T13:06:35.253Z</time></trkpt><trkpt lat="44.6190883" lon="10.219708"><ele>656.4000000000001</ele><time>2026-04-24T13:06:37.252Z</time></trkpt><trkpt lat="44.6189991" lon="10.2196225"><ele>659.0</ele><time>2026-04-24T13:06:39.252Z</time></trkpt><trkpt lat="44.6189389" lon="10.2195883"><ele>659.0</ele><time>2026-04-24T13:06:41.253Z</time></trkpt><trkpt lat="44.6188515" lon="10.2195275"><ele>659.0</ele><time>2026-04-24T13:06:43.254Z</time></trkpt><trkpt lat="44.6187937" lon="10.2194884"><ele>659.0</ele><time>2026-04-24T13:06:44.253Z</time></trkpt><trkpt lat="44.6187328" lon="10.2193859"><ele>659.0</ele><time>2026-04-24T13:06:46.252Z</time></trkpt><trkpt lat="44.6186793" lon="10.2192648"><ele>659.0</ele><time>2026-04-24T13:06:48.253Z</time></trkpt><trkpt lat="44.6186096" lon="10.2192341"><ele>659.0</ele><time>2026-04-24T13:06:50.253Z</time></trkpt><trkpt lat="44.6185227" lon="10.2191544"><ele>661.8333333333333</ele><time>2026-04-24T13:06:52.252Z</time></trkpt><trkpt lat="44.6184411" lon="10.2190824"><ele>664.6666666666666</ele><time>2026-04-24T13:06:54.254Z</time></trkpt><trkpt lat="44.6183645" lon="10.2190343"><ele>667.5</ele><time>2026-04-24T13:07:00.252Z</time></trkpt><trkpt lat="44.618309" lon="10.2189887"><ele>670.3333333333334</ele><time>2026-04-24T13:07:01.253Z</time></trkpt><trkpt lat="44.618262" lon="10.2188946"><ele>673.1666666666667</ele><time>2026-04-24T13:07:02.252Z</time></trkpt><trkpt lat="44.6181892" lon="10.2188249"><ele>676.0</ele><time>2026-04-24T13:07:03.252Z</time></trkpt><trkpt lat="44.6181502" lon="10.21874"><ele>676.5999999999999</ele><time>2026-04-24T13:07:04.253Z</time></trkpt><trkpt lat="44.618127" lon="10.2186526"><ele>677.2</ele><time>2026-04-24T13:07:05.253Z</time></trkpt><trkpt lat="44.6181087" lon="10.2184628"><ele>677.8</ele><time>2026-04-24T13:07:07.252Z</time></trkpt><trkpt lat="44.6180908" lon="10.2183465"><ele>678.4000000000001</ele><time>2026-04-24T13:07:08.253Z</time></trkpt><trkpt lat="44.618073" lon="10.2182231"><ele>679.0</ele><time>2026-04-24T13:07:09.253Z</time></trkpt><trkpt lat="44.6180649" lon="10.2180978"><ele>680.1666666666667</ele><time>2026-04-24T13:07:10.252Z</time></trkpt><trkpt lat="44.6180544" lon="10.2179879"><ele>681.3333333333334</ele><time>2026-04-24T13:07:11.252Z</time></trkpt><trkpt lat="44.6180312" lon="10.2178942"><ele>682.5</ele><time>2026-04-24T13:07:12.253Z</time></trkpt><trkpt lat="44.6180112" lon="10.2178066"><ele>683.6666666666666</ele><time>2026-04-24T13:07:13.254Z</time></trkpt><trkpt lat="44.6179954" lon="10.2177066"><ele>684.8333333333333</ele><time>2026-04-24T13:07:14.252Z</time></trkpt><trkpt lat="44.6179779" lon="10.2176006"><ele>686.0</ele><time>2026-04-24T13:07:15.252Z</time></trkpt><trkpt lat="44.6179318" lon="10.2174442"><ele>686.0</ele><time>2026-04-24T13:07:17.253Z</time></trkpt><trkpt lat="44.6179218" lon="10.2173437"><ele>686.0</ele><time>2026-04-24T13:07:18.253Z</time></trkpt><trkpt lat="44.6179123" lon="10.2172332"><ele>686.0</ele><time>2026-04-24T13:07:19.252Z</time></trkpt><trkpt lat="44.6179163" lon="10.2171251"><ele>686.0</ele><time>2026-04-24T13:07:20.253Z</time></trkpt><trkpt lat="44.6179218" lon="10.2170003"><ele>686.0</ele><time>2026-04-24T13:07:21.254Z</time></trkpt><trkpt lat="44.6179392" lon="10.2168885"><ele>686.0</ele><time>2026-04-24T13:07:22.253Z</time></trkpt><trkpt lat="44.6179594" lon="10.2167792"><ele>687.3333333333333</ele><time>2026-04-24T13:07:23.253Z</time></trkpt><trkpt lat="44.617979" lon="10.2166865"><ele>688.6666666666666</ele><time>2026-04-24T13:07:24.253Z</time></trkpt><trkpt lat="44.6180047" lon="10.2165905"><ele>690.0</ele><time>2026-04-24T13:07:25.253Z</time></trkpt><trkpt lat="44.6180263" lon="10.2164831"><ele>691.3333333333334</ele><time>2026-04-24T13:07:26.253Z</time></trkpt><trkpt lat="44.6180518" lon="10.2163526"><ele>692.6666666666667</ele><time>2026-04-24T13:07:27.254Z</time></trkpt><trkpt lat="44.6180744" lon="10.2162138"><ele>694.0</ele><time>2026-04-24T13:07:28.253Z</time></trkpt><trkpt lat="44.6180989" lon="10.2160801"><ele>694.6</ele><time>2026-04-24T13:07:29.252Z</time></trkpt><trkpt lat="44.6181333" lon="10.2159446"><ele>695.2</ele><time>2026-04-24T13:07:30.253Z</time></trkpt><trkpt lat="44.6181768" lon="10.2158288"><ele>695.8000000000001</ele><time>2026-04-24T13:07:31.254Z</time></trkpt><trkpt lat="44.6182292" lon="10.2157241"><ele>696.4000000000001</ele><time>2026-04-24T13:07:32.253Z</time></trkpt><trkpt lat="44.6182788" lon="10.2156208"><ele>697.0</ele><time>2026-04-24T13:07:33.253Z</time></trkpt><trkpt lat="44.6183152" lon="10.2155278"><ele>697.6</ele><time>2026-04-24T13:07:34.253Z</time></trkpt><trkpt lat="44.6183421" lon="10.2154248"><ele>698.2</ele><time>2026-04-24T13:07:35.254Z</time></trkpt><trkpt lat="44.6183637" lon="10.2152964"><ele>698.8</ele><time>2026-04-24T13:07:36.254Z</time></trkpt><trkpt lat="44.6183816" lon="10.2151665"><ele>699.4</ele><time>2026-04-24T13:07:37.252Z</time></trkpt><trkpt lat="44.6183985" lon="10.2150343"><ele>700.0</ele><time>2026-04-24T13:07:38.252Z</time></trkpt><trkpt lat="44.6184278" lon="10.2149025"><ele>700.2</ele><time>2026-04-24T13:07:39.253Z</time></trkpt><trkpt lat="44.6184527" lon="10.2147659"><ele>700.4</ele><time>2026-04-24T13:07:40.254Z</time></trkpt><trkpt lat="44.6184947" lon="10.2146278"><ele>700.5999999999999</ele><time>2026-04-24T13:07:41.253Z</time></trkpt><trkpt lat="44.6185302" lon="10.2145008"><ele>700.8</ele><time>2026-04-24T13:07:42.252Z</time></trkpt><trkpt lat="44.618569" lon="10.2143677"><ele>701.0</ele><time>2026-04-24T13:07:43.252Z</time></trkpt><trkpt lat="44.6186116" lon="10.2142327"><ele>701.0</ele><time>2026-04-24T13:07:44.253Z</time></trkpt><trkpt lat="44.6186439" lon="10.2141259"><ele>701.0</ele><time>2026-04-24T13:07:45.253Z</time></trkpt><trkpt lat="44.6186755" lon="10.2140317"><ele>701.0</ele><time>2026-04-24T13:07:46.252Z</time></trkpt><trkpt lat="44.6187054" lon="10.2138869"><ele>701.0</ele><time>2026-04-24T13:07:48.254Z</time></trkpt><trkpt lat="44.61869" lon="10.2137661"><ele>701.0</ele><time>2026-04-24T13:07:50.252Z</time></trkpt><trkpt lat="44.6186453" lon="10.2136645"><ele>701.0</ele><time>2026-04-24T13:07:52.252Z</time></trkpt><trkpt lat="44.6186026" lon="10.2135153"><ele>700.0</ele><time>2026-04-24T13:07:54.254Z</time></trkpt><trkpt lat="44.61859" lon="10.2134101"><ele>699.0</ele><time>2026-04-24T13:07:55.254Z</time></trkpt><trkpt lat="44.6185772" lon="10.2133086"><ele>698.0</ele><time>2026-04-24T13:07:56.252Z</time></trkpt><trkpt lat="44.6185621" lon="10.2131954"><ele>697.0</ele><time>2026-04-24T13:07:57.253Z</time></trkpt><trkpt lat="44.6185454" lon="10.2130926"><ele>696.0</ele><time>2026-04-24T13:07:58.253Z</time></trkpt><trkpt lat="44.618532" lon="10.2129963"><ele>695.0</ele><time>2026-04-24T13:07:59.252Z</time></trkpt><trkpt lat="44.6185082" lon="10.2128985"><ele>693.5</ele><time>2026-04-24T13:08:00.254Z</time></trkpt><trkpt lat="44.6184942" lon="10.2128064"><ele>692.0</ele><time>2026-04-24T13:08:01.253Z</time></trkpt><trkpt lat="44.6184988" lon="10.2127115"><ele>690.5</ele><time>2026-04-24T13:08:02.254Z</time></trkpt><trkpt lat="44.6184959" lon="10.2126215"><ele>689.0</ele><time>2026-04-24T13:08:03.254Z</time></trkpt><trkpt lat="44.6184791" lon="10.2124727"><ele>687.5</ele><time>2026-04-24T13:08:05.252Z</time></trkpt><trkpt lat="44.6184381" lon="10.2123736"><ele>686.0</ele><time>2026-04-24T13:08:07.253Z</time></trkpt><trkpt lat="44.6183485" lon="10.2123228"><ele>684.1666666666666</ele><time>2026-04-24T13:08:09.253Z</time></trkpt><trkpt lat="44.6182394" lon="10.2122559"><ele>682.3333333333333</ele><time>2026-04-24T13:08:11.253Z</time></trkpt><trkpt lat="44.6181524" lon="10.2121726"><ele>680.5</ele><time>2026-04-24T13:08:13.252Z</time></trkpt><trkpt lat="44.6181023" lon="10.2121168"><ele>678.6666666666666</ele><time>2026-04-24T13:08:16.252Z</time></trkpt><trkpt lat="44.6180893" lon="10.2120209"><ele>676.8333333333334</ele><time>2026-04-24T13:13:56.251Z</time></trkpt><trkpt lat="44.6181678" lon="10.2120173"><ele>675.0</ele><time>2026-04-24T13:14:00.251Z</time></trkpt><trkpt lat="44.6182251" lon="10.2120804"><ele>675.0</ele><time>2026-04-24T13:14:02.251Z</time></trkpt><trkpt lat="44.6183111" lon="10.2121515"><ele>675.0</ele><time>2026-04-24T13:14:04.251Z</time></trkpt><trkpt lat="44.6184225" lon="10.2122369"><ele>675.0</ele><time>2026-04-24T13:14:06.251Z</time></trkpt><trkpt lat="44.6184863" lon="10.2123128"><ele>675.0</ele><time>2026-04-24T13:14:08.251Z</time></trkpt><trkpt lat="44.6185282" lon="10.2124077"><ele>675.0</ele><time>2026-04-24T13:14:21.252Z</time></trkpt><trkpt lat="44.6185291" lon="10.2125495"><ele>676.8333333333334</ele><time>2026-04-24T13:14:23.25Z</time></trkpt><trkpt lat="44.6185073" lon="10.2126443"><ele>678.6666666666666</ele><time>2026-04-24T13:14:25.25Z</time></trkpt><trkpt lat="44.618501" lon="10.2127834"><ele>680.5</ele><time>2026-04-24T13:14:27.25Z</time></trkpt><trkpt lat="44.6185269" lon="10.2129584"><ele>682.3333333333333</ele><time>2026-04-24T13:14:29.252Z</time></trkpt><trkpt lat="44.6185448" lon="10.2130533"><ele>684.1666666666666</ele><time>2026-04-24T13:14:30.251Z</time></trkpt><trkpt lat="44.6185626" lon="10.2131392"><ele>686.0</ele><time>2026-04-24T13:14:31.251Z</time></trkpt><trkpt lat="44.618582" lon="10.2132925"><ele>687.5999999999999</ele><time>2026-04-24T13:14:33.251Z</time></trkpt><trkpt lat="44.6186078" lon="10.2134587"><ele>689.2</ele><time>2026-04-24T13:14:35.251Z</time></trkpt><trkpt lat="44.6186291" lon="10.2135601"><ele>690.8</ele><time>2026-04-24T13:14:36.251Z</time></trkpt><trkpt lat="44.6186518" lon="10.2136631"><ele>692.4000000000001</ele><time>2026-04-24T13:14:37.251Z</time></trkpt><trkpt lat="44.618695" lon="10.2138022"><ele>694.0</ele><time>2026-04-24T13:14:39.25Z</time></trkpt><trkpt lat="44.6187286" lon="10.2138886"><ele>694.0</ele><time>2026-04-24T13:14:42.251Z</time></trkpt><trkpt lat="44.6188042" lon="10.2138685"><ele>694.0</ele><time>2026-04-24T13:14:48.252Z</time></trkpt><trkpt lat="44.6188723" lon="10.2138037"><ele>694.0</ele><time>2026-04-24T13:15:03.252Z</time></trkpt><trkpt lat="44.6189388" lon="10.2137656"><ele>694.0</ele><time>2026-04-24T13:15:48.249Z</time></trkpt><trkpt lat="44.619005" lon="10.213752"><ele>694.0</ele><time>2026-04-24T13:15:50.249Z</time></trkpt><trkpt lat="44.6190798" lon="10.2137427"><ele>694.0</ele><time>2026-04-24T13:15:52.25Z</time></trkpt><trkpt lat="44.619151" lon="10.2137504"><ele>694.0</ele><time>2026-04-24T13:15:54.249Z</time></trkpt><trkpt lat="44.6192357" lon="10.2137238"><ele>694.0</ele><time>2026-04-24T13:16:10.249Z</time></trkpt><trkpt lat="44.6192774" lon="10.2136445"><ele>694.0</ele><time>2026-04-24T13:16:13.25Z</time></trkpt><trkpt lat="44.6192796" lon="10.2135228"><ele>694.0</ele><time>2026-04-24T13:16:17.251Z</time></trkpt><trkpt lat="44.6192589" lon="10.2133363"><ele>694.0</ele><time>2026-04-24T13:16:19.25Z</time></trkpt><trkpt lat="44.6192548" lon="10.2132309"><ele>694.0</ele><time>2026-04-24T13:16:20.251Z</time></trkpt><trkpt lat="44.6192492" lon="10.2130957"><ele>692.7142857142858</ele><time>2026-04-24T13:16:21.25Z</time></trkpt><trkpt lat="44.6192594" lon="10.212987"><ele>691.4285714285713</ele><time>2026-04-24T13:16:22.25Z</time></trkpt><trkpt lat="44.6192588" lon="10.2128842"><ele>690.1428571428571</ele><time>2026-04-24T13:16:23.249Z</time></trkpt><trkpt lat="44.6192592" lon="10.2127768"><ele>688.8571428571429</ele><time>2026-04-24T13:16:24.251Z</time></trkpt><trkpt lat="44.6192594" lon="10.21267"><ele>687.5714285714287</ele><time>2026-04-24T13:16:25.251Z</time></trkpt><trkpt lat="44.619257" lon="10.2125787"><ele>686.2857142857142</ele><time>2026-04-24T13:16:26.25Z</time></trkpt><trkpt lat="44.619239" lon="10.2124827"><ele>685.0</ele><time>2026-04-24T13:16:27.249Z</time></trkpt><trkpt lat="44.619216" lon="10.2123846"><ele>683.3333333333334</ele><time>2026-04-24T13:16:28.25Z</time></trkpt><trkpt lat="44.6191866" lon="10.2122887"><ele>681.6666666666667</ele><time>2026-04-24T13:16:29.25Z</time></trkpt><trkpt lat="44.6191583" lon="10.2121905"><ele>680.0</ele><time>2026-04-24T13:16:30.249Z</time></trkpt><trkpt lat="44.6191275" lon="10.2120884"><ele>678.3333333333334</ele><time>2026-04-24T13:16:31.251Z</time></trkpt><trkpt lat="44.6190987" lon="10.2119807"><ele>676.6666666666666</ele><time>2026-04-24T13:16:32.25Z</time></trkpt><trkpt lat="44.6190669" lon="10.2118757"><ele>675.0</ele><time>2026-04-24T13:16:33.249Z</time></trkpt><trkpt lat="44.6190365" lon="10.2117633"><ele>675.0</ele><time>2026-04-24T13:16:34.25Z</time></trkpt><trkpt lat="44.619011" lon="10.2116474"><ele>675.0</ele><time>2026-04-24T13:16:35.251Z</time></trkpt><trkpt lat="44.6189864" lon="10.2115301"><ele>675.0</ele><time>2026-04-24T13:16:36.25Z</time></trkpt><trkpt lat="44.6189626" lon="10.211421"><ele>675.0</ele><time>2026-04-24T13:16:37.25Z</time></trkpt><trkpt lat="44.6189429" lon="10.2113207"><ele>675.0</ele><time>2026-04-24T13:16:38.25Z</time></trkpt><trkpt lat="44.6189266" lon="10.211216"><ele>675.0</ele><time>2026-04-24T13:16:39.249Z</time></trkpt><trkpt lat="44.6189096" lon="10.2111154"><ele>672.6666666666666</ele><time>2026-04-24T13:16:40.25Z</time></trkpt><trkpt lat="44.6188926" lon="10.2110097"><ele>670.3333333333334</ele><time>2026-04-24T13:16:41.249Z</time></trkpt><trkpt lat="44.6188807" lon="10.210905"><ele>668.0</ele><time>2026-04-24T13:16:42.249Z</time></trkpt><trkpt lat="44.6188738" lon="10.2108074"><ele>665.6666666666667</ele><time>2026-04-24T13:16:43.249Z</time></trkpt><trkpt lat="44.6188656" lon="10.2107145"><ele>663.3333333333334</ele><time>2026-04-24T13:16:44.249Z</time></trkpt><trkpt lat="44.6188521" lon="10.2106219"><ele>661.0</ele><time>2026-04-24T13:16:45.249Z</time></trkpt><trkpt lat="44.6188299" lon="10.2104668"><ele>658.8</ele><time>2026-04-24T13:16:47.251Z</time></trkpt><trkpt lat="44.6187802" lon="10.210301"><ele>656.5999999999999</ele><time>2026-04-24T13:16:49.25Z</time></trkpt><trkpt lat="44.6187492" lon="10.21014"><ele>654.4</ele><time>2026-04-24T13:16:51.25Z</time></trkpt><trkpt lat="44.6187208" lon="10.2099731"><ele>652.2</ele><time>2026-04-24T13:16:53.251Z</time></trkpt><trkpt lat="44.6187104" lon="10.2098817"><ele>650.0</ele><time>2026-04-24T13:16:54.251Z</time></trkpt><trkpt lat="44.6187048" lon="10.2097865"><ele>650.5</ele><time>2026-04-24T13:16:55.25Z</time></trkpt><trkpt lat="44.6187002" lon="10.2096912"><ele>651.0</ele><time>2026-04-24T13:16:56.249Z</time></trkpt><trkpt lat="44.6186735" lon="10.2095159"><ele>651.5</ele><time>2026-04-24T13:16:58.249Z</time></trkpt><trkpt lat="44.6186385" lon="10.209417"><ele>652.0</ele><time>2026-04-24T13:16:59.25Z</time></trkpt><trkpt lat="44.6185966" lon="10.2093401"><ele>652.5</ele><time>2026-04-24T13:17:00.25Z</time></trkpt><trkpt lat="44.6185692" lon="10.2092182"><ele>653.0</ele><time>2026-04-24T13:17:01.251Z</time></trkpt><trkpt lat="44.6185483" lon="10.2091326"><ele>653.0</ele><time>2026-04-24T13:17:02.25Z</time></trkpt><trkpt lat="44.6185347" lon="10.20903"><ele>653.0</ele><time>2026-04-24T13:17:03.249Z</time></trkpt><trkpt lat="44.6185544" lon="10.2089263"><ele>653.0</ele><time>2026-04-24T13:17:04.249Z</time></trkpt><trkpt lat="44.6185616" lon="10.2087469"><ele>653.0</ele><time>2026-04-24T13:17:06.249Z</time></trkpt><trkpt lat="44.6185136" lon="10.2086458"><ele>653.0</ele><time>2026-04-24T13:17:07.25Z</time></trkpt><trkpt lat="44.6184836" lon="10.2085369"><ele>653.0</ele><time>2026-04-24T13:17:08.249Z</time></trkpt><trkpt lat="44.6184437" lon="10.208412"><ele>651.4</ele><time>2026-04-24T13:17:09.249Z</time></trkpt><trkpt lat="44.6184156" lon="10.2082914"><ele>649.8</ele><time>2026-04-24T13:17:10.249Z</time></trkpt><trkpt lat="44.6183959" lon="10.2081275"><ele>648.2</ele><time>2026-04-24T13:17:12.25Z</time></trkpt><trkpt lat="44.6183791" lon="10.2079584"><ele>646.6</ele><time>2026-04-24T13:17:14.25Z</time></trkpt><trkpt lat="44.6183609" lon="10.2078486"><ele>645.0</ele><time>2026-04-24T13:17:16.251Z</time></trkpt><trkpt lat="44.61833" lon="10.2077691"><ele>643.6</ele><time>2026-04-24T13:17:18.249Z</time></trkpt><trkpt lat="44.6183057" lon="10.2075852"><ele>642.2</ele><time>2026-04-24T13:17:26.25Z</time></trkpt><trkpt lat="44.6182847" lon="10.2074946"><ele>640.8</ele><time>2026-04-24T13:17:27.251Z</time></trkpt><trkpt lat="44.6183208" lon="10.2073814"><ele>639.4</ele><time>2026-04-24T13:17:28.25Z</time></trkpt><trkpt lat="44.6183481" lon="10.2072368"><ele>638.0</ele><time>2026-04-24T13:17:30.25Z</time></trkpt><trkpt lat="44.6183472" lon="10.2071071"><ele>637.3333333333333</ele><time>2026-04-24T13:17:32.249Z</time></trkpt><trkpt lat="44.6183238" lon="10.2069483"><ele>636.6666666666666</ele><time>2026-04-24T13:17:34.251Z</time></trkpt><trkpt lat="44.6183124" lon="10.2068613"><ele>636.0</ele><time>2026-04-24T13:17:35.25Z</time></trkpt><trkpt lat="44.6182914" lon="10.2066951"><ele>635.3333333333334</ele><time>2026-04-24T13:17:37.25Z</time></trkpt><trkpt lat="44.6182851" lon="10.2066007"><ele>634.6666666666667</ele><time>2026-04-24T13:17:38.25Z</time></trkpt><trkpt lat="44.6182781" lon="10.2064931"><ele>634.0</ele><time>2026-04-24T13:17:39.25Z</time></trkpt><trkpt lat="44.6182836" lon="10.2063859"><ele>633.3333333333334</ele><time>2026-04-24T13:17:40.251Z</time></trkpt><trkpt lat="44.6183023" lon="10.2062688"><ele>632.6666666666667</ele><time>2026-04-24T13:17:41.251Z</time></trkpt><trkpt lat="44.6183264" lon="10.2061583"><ele>632.0</ele><time>2026-04-24T13:17:42.251Z</time></trkpt><trkpt lat="44.6183538" lon="10.2060588"><ele>631.3333333333334</ele><time>2026-04-24T13:17:43.25Z</time></trkpt><trkpt lat="44.6183818" lon="10.2059666"><ele>630.6666666666666</ele><time>2026-04-24T13:17:44.251Z</time></trkpt><trkpt lat="44.6183952" lon="10.2058011"><ele>630.0</ele><time>2026-04-24T13:17:46.249Z</time></trkpt><trkpt lat="44.6183466" lon="10.2056818"><ele>628.8333333333334</ele><time>2026-04-24T13:17:48.251Z</time></trkpt><trkpt lat="44.6182675" lon="10.2055676"><ele>627.6666666666666</ele><time>2026-04-24T13:17:50.25Z</time></trkpt><trkpt lat="44.6182253" lon="10.2054943"><ele>626.5</ele><time>2026-04-24T13:17:51.249Z</time></trkpt><trkpt lat="44.618185" lon="10.2054109"><ele>625.3333333333333</ele><time>2026-04-24T13:17:52.25Z</time></trkpt><trkpt lat="44.6181556" lon="10.2053194"><ele>624.1666666666666</ele><time>2026-04-24T13:17:53.249Z</time></trkpt><trkpt lat="44.6181251" lon="10.2052189"><ele>623.0</ele><time>2026-04-24T13:17:54.25Z</time></trkpt><trkpt lat="44.6181182" lon="10.205105"><ele>623.0</ele><time>2026-04-24T13:17:55.25Z</time></trkpt><trkpt lat="44.6180995" lon="10.204992"><ele>623.0</ele><time>2026-04-24T13:17:56.25Z</time></trkpt><trkpt lat="44.6180843" lon="10.2048744"><ele>623.0</ele><time>2026-04-24T13:17:57.25Z</time></trkpt><trkpt lat="44.6180631" lon="10.2047693"><ele>623.0</ele><time>2026-04-24T13:17:58.249Z</time></trkpt><trkpt lat="44.6180423" lon="10.2046715"><ele>623.0</ele><time>2026-04-24T13:17:59.25Z</time></trkpt><trkpt lat="44.6180308" lon="10.204577"><ele>623.0</ele><time>2026-04-24T13:18:00.249Z</time></trkpt><trkpt lat="44.618035" lon="10.2044789"><ele>621.2857142857143</ele><time>2026-04-24T13:18:01.25Z</time></trkpt><trkpt lat="44.6180433" lon="10.2043865"><ele>619.5714285714286</ele><time>2026-04-24T13:18:02.249Z</time></trkpt><trkpt lat="44.6180486" lon="10.2042889"><ele>617.8571428571429</ele><time>2026-04-24T13:18:03.25Z</time></trkpt><trkpt lat="44.6180631" lon="10.2041946"><ele>616.1428571428571</ele><time>2026-04-24T13:18:04.25Z</time></trkpt><trkpt lat="44.618073" lon="10.2040931"><ele>614.4285714285714</ele><time>2026-04-24T13:18:05.25Z</time></trkpt><trkpt lat="44.6180763" lon="10.2039889"><ele>612.7142857142858</ele><time>2026-04-24T13:18:06.249Z</time></trkpt><trkpt lat="44.6180781" lon="10.2038897"><ele>611.0</ele><time>2026-04-24T13:18:07.249Z</time></trkpt><trkpt lat="44.6180773" lon="10.2037927"><ele>608.8571428571429</ele><time>2026-04-24T13:18:08.249Z</time></trkpt><trkpt lat="44.6180786" lon="10.2036913"><ele>606.7142857142858</ele><time>2026-04-24T13:18:09.249Z</time></trkpt><trkpt lat="44.6180743" lon="10.20359"><ele>604.5714285714286</ele><time>2026-04-24T13:18:10.249Z</time></trkpt><trkpt lat="44.6180754" lon="10.2034912"><ele>602.4285714285714</ele><time>2026-04-24T13:18:11.248Z</time></trkpt><trkpt lat="44.6180668" lon="10.2033874"><ele>600.2857142857142</ele><time>2026-04-24T13:18:12.249Z</time></trkpt><trkpt lat="44.6180584" lon="10.2032805"><ele>598.1428571428571</ele><time>2026-04-24T13:18:13.248Z</time></trkpt><trkpt lat="44.6180678" lon="10.2031741"><ele>596.0</ele><time>2026-04-24T13:18:14.248Z</time></trkpt><trkpt lat="44.6180756" lon="10.2030581"><ele>593.6666666666666</ele><time>2026-04-24T13:18:15.25Z</time></trkpt><trkpt lat="44.6180971" lon="10.2029391"><ele>591.3333333333333</ele><time>2026-04-24T13:18:16.25Z</time></trkpt><trkpt lat="44.6181144" lon="10.2028227"><ele>589.0</ele><time>2026-04-24T13:18:17.25Z</time></trkpt><trkpt lat="44.6181266" lon="10.2027023"><ele>586.6666666666666</ele><time>2026-04-24T13:18:18.25Z</time></trkpt><trkpt lat="44.6181421" lon="10.2025781"><ele>584.3333333333334</ele><time>2026-04-24T13:18:19.249Z</time></trkpt><trkpt lat="44.6181579" lon="10.2024573"><ele>582.0</ele><time>2026-04-24T13:18:20.249Z</time></trkpt><trkpt lat="44.6181842" lon="10.2023415"><ele>580.2857142857142</ele><time>2026-04-24T13:18:21.25Z</time></trkpt><trkpt lat="44.6182196" lon="10.202236"><ele>578.5714285714286</ele><time>2026-04-24T13:18:22.249Z</time></trkpt><trkpt lat="44.6182463" lon="10.2021337"><ele>576.8571428571429</ele><time>2026-04-24T13:18:23.249Z</time></trkpt><trkpt lat="44.6182614" lon="10.2020436"><ele>575.1428571428571</ele><time>2026-04-24T13:18:24.249Z</time></trkpt><trkpt lat="44.6182605" lon="10.2019534"><ele>573.4285714285714</ele><time>2026-04-24T13:18:25.249Z</time></trkpt><trkpt lat="44.6182551" lon="10.2018539"><ele>571.7142857142857</ele><time>2026-04-24T13:18:26.249Z</time></trkpt><trkpt lat="44.6182457" lon="10.201751"><ele>570.0</ele><time>2026-04-24T13:18:27.249Z</time></trkpt><trkpt lat="44.6182354" lon="10.2016508"><ele>570.0</ele><time>2026-04-24T13:18:28.249Z</time></trkpt><trkpt lat="44.6182171" lon="10.2015525"><ele>570.0</ele><time>2026-04-24T13:18:29.249Z</time></trkpt><trkpt lat="44.6181966" lon="10.2014482"><ele>570.0</ele><time>2026-04-24T13:18:30.25Z</time></trkpt><trkpt lat="44.618167" lon="10.2013471"><ele>570.0</ele><time>2026-04-24T13:18:31.248Z</time></trkpt><trkpt lat="44.6181348" lon="10.2012511"><ele>570.0</ele><time>2026-04-24T13:18:32.249Z</time></trkpt><trkpt lat="44.6181069" lon="10.2011521"><ele>570.0</ele><time>2026-04-24T13:18:33.25Z</time></trkpt><trkpt lat="44.6180881" lon="10.2010449"><ele>568.1666666666666</ele><time>2026-04-24T13:18:34.249Z</time></trkpt><trkpt lat="44.6180743" lon="10.2009275"><ele>566.3333333333334</ele><time>2026-04-24T13:18:35.249Z</time></trkpt><trkpt lat="44.618065" lon="10.2008241"><ele>564.5</ele><time>2026-04-24T13:18:36.25Z</time></trkpt><trkpt lat="44.6180687" lon="10.2007219"><ele>562.6666666666667</ele><time>2026-04-24T13:18:37.25Z</time></trkpt><trkpt lat="44.6180775" lon="10.2006047"><ele>560.8333333333334</ele><time>2026-04-24T13:18:38.25Z</time></trkpt><trkpt lat="44.6180924" lon="10.2004849"><ele>559.0</ele><time>2026-04-24T13:18:39.249Z</time></trkpt><trkpt lat="44.6181139" lon="10.2003895"><ele>558.3333333333334</ele><time>2026-04-24T13:18:40.248Z</time></trkpt><trkpt lat="44.6181404" lon="10.2002901"><ele>557.6666666666667</ele><time>2026-04-24T13:18:41.248Z</time></trkpt><trkpt lat="44.6181697" lon="10.2002054"><ele>557.0</ele><time>2026-04-24T13:18:42.25Z</time></trkpt><trkpt lat="44.6182372" lon="10.2000599"><ele>556.3333333333334</ele><time>2026-04-24T13:18:44.248Z</time></trkpt><trkpt lat="44.6182777" lon="10.1999898"><ele>555.6666666666666</ele><time>2026-04-24T13:18:45.248Z</time></trkpt><trkpt lat="44.6183169" lon="10.1999194"><ele>555.0</ele><time>2026-04-24T13:18:46.249Z</time></trkpt><trkpt lat="44.6183386" lon="10.1997657"><ele>554.4</ele><time>2026-04-24T13:18:48.249Z</time></trkpt><trkpt lat="44.6182881" lon="10.1996102"><ele>553.8</ele><time>2026-04-24T13:18:50.249Z</time></trkpt><trkpt lat="44.6182458" lon="10.1995251"><ele>553.2</ele><time>2026-04-24T13:18:51.249Z</time></trkpt><trkpt lat="44.6182025" lon="10.1994244"><ele>552.6</ele><time>2026-04-24T13:18:52.249Z</time></trkpt><trkpt lat="44.6181605" lon="10.1993055"><ele>552.0</ele><time>2026-04-24T13:18:53.248Z</time></trkpt><trkpt lat="44.6181309" lon="10.1991767"><ele>552.0</ele><time>2026-04-24T13:18:54.249Z</time></trkpt><trkpt lat="44.6181324" lon="10.1990389"><ele>552.0</ele><time>2026-04-24T13:18:55.249Z</time></trkpt><trkpt lat="44.6181587" lon="10.198896"><ele>552.0</ele><time>2026-04-24T13:18:56.248Z</time></trkpt><trkpt lat="44.6181924" lon="10.1987408"><ele>552.0</ele><time>2026-04-24T13:18:57.248Z</time></trkpt><trkpt lat="44.6182312" lon="10.1985794"><ele>552.0</ele><time>2026-04-24T13:18:58.249Z</time></trkpt><trkpt lat="44.618259" lon="10.1984072"><ele>549.75</ele><time>2026-04-24T13:18:59.249Z</time></trkpt><trkpt lat="44.6182686" lon="10.1982243"><ele>547.5</ele><time>2026-04-24T13:19:00.249Z</time></trkpt><trkpt lat="44.618265" lon="10.1980331"><ele>545.25</ele><time>2026-04-24T13:19:01.249Z</time></trkpt><trkpt lat="44.6182575" lon="10.1978351"><ele>543.0</ele><time>2026-04-24T13:19:02.249Z</time></trkpt><trkpt lat="44.6182457" lon="10.1976419"><ele>541.75</ele><time>2026-04-24T13:19:03.25Z</time></trkpt><trkpt lat="44.6182253" lon="10.1974567"><ele>540.5</ele><time>2026-04-24T13:19:04.25Z</time></trkpt><trkpt lat="44.6181815" lon="10.197284"><ele>539.25</ele><time>2026-04-24T13:19:05.25Z</time></trkpt><trkpt lat="44.6181183" lon="10.1971221"><ele>538.0</ele><time>2026-04-24T13:19:06.25Z</time></trkpt><trkpt lat="44.618049" lon="10.1969537"><ele>537.5</ele><time>2026-04-24T13:19:07.25Z</time></trkpt><trkpt lat="44.6179861" lon="10.1967925"><ele>537.0</ele><time>2026-04-24T13:19:08.249Z</time></trkpt><trkpt lat="44.6179255" lon="10.1966288"><ele>536.5</ele><time>2026-04-24T13:19:09.249Z</time></trkpt><trkpt lat="44.6178712" lon="10.1964634"><ele>536.0</ele><time>2026-04-24T13:19:10.249Z</time></trkpt><trkpt lat="44.6178216" lon="10.1962972"><ele>530.75</ele><time>2026-04-24T13:19:11.249Z</time></trkpt><trkpt lat="44.6177661" lon="10.1961185"><ele>525.5</ele><time>2026-04-24T13:19:12.249Z</time></trkpt><trkpt lat="44.6177098" lon="10.1959537"><ele>520.25</ele><time>2026-04-24T13:19:13.249Z</time></trkpt><trkpt lat="44.6176528" lon="10.1958132"><ele>515.0</ele><time>2026-04-24T13:19:14.25Z</time></trkpt><trkpt lat="44.6175853" lon="10.1956978"><ele>513.6</ele><time>2026-04-24T13:19:15.248Z</time></trkpt><trkpt lat="44.6175049" lon="10.1956"><ele>512.2</ele><time>2026-04-24T13:19:16.25Z</time></trkpt><trkpt lat="44.6174161" lon="10.1955025"><ele>510.79999999999995</ele><time>2026-04-24T13:19:17.25Z</time></trkpt><trkpt lat="44.6173306" lon="10.1954022"><ele>509.4</ele><time>2026-04-24T13:19:18.248Z</time></trkpt><trkpt lat="44.6172575" lon="10.1953028"><ele>508.0</ele><time>2026-04-24T13:19:19.249Z</time></trkpt><trkpt lat="44.6171983" lon="10.1951995"><ele>508.0</ele><time>2026-04-24T13:19:20.248Z</time></trkpt><trkpt lat="44.6171532" lon="10.1950942"><ele>507.99999999999994</ele><time>2026-04-24T13:19:21.248Z</time></trkpt><trkpt lat="44.6171036" lon="10.1949796"><ele>507.99999999999994</ele><time>2026-04-24T13:19:22.249Z</time></trkpt><trkpt lat="44.6170526" lon="10.1948548"><ele>508.0</ele><time>2026-04-24T13:19:23.249Z</time></trkpt><trkpt lat="44.6169883" lon="10.1947353"><ele>508.0</ele><time>2026-04-24T13:19:24.249Z</time></trkpt><trkpt lat="44.6169088" lon="10.1946234"><ele>509.79999999999995</ele><time>2026-04-24T13:19:25.249Z</time></trkpt><trkpt lat="44.6168318" lon="10.1945232"><ele>511.59999999999997</ele><time>2026-04-24T13:19:26.248Z</time></trkpt><trkpt lat="44.6167611" lon="10.1944258"><ele>513.4000000000001</ele><time>2026-04-24T13:19:27.249Z</time></trkpt><trkpt lat="44.6166864" lon="10.194349"><ele>515.2</ele><time>2026-04-24T13:19:28.248Z</time></trkpt><trkpt lat="44.6166051" lon="10.1942646"><ele>517.0</ele><time>2026-04-24T13:19:29.249Z</time></trkpt><trkpt lat="44.6165253" lon="10.1941634"><ele>517.0</ele><time>2026-04-24T13:19:30.249Z</time></trkpt><trkpt lat="44.6164334" lon="10.1940537"><ele>517.0</ele><time>2026-04-24T13:19:31.248Z</time></trkpt><trkpt lat="44.6163596" lon="10.1939449"><ele>517.0</ele><time>2026-04-24T13:19:32.25Z</time></trkpt><trkpt lat="44.6163043" lon="10.1938416"><ele>517.0</ele><time>2026-04-24T13:19:33.25Z</time></trkpt><trkpt lat="44.6162611" lon="10.1937524"><ele>517.0</ele><time>2026-04-24T13:19:34.249Z</time></trkpt><trkpt lat="44.6162021" lon="10.1936749"><ele>517.3333333333334</ele><time>2026-04-24T13:19:36.249Z</time></trkpt><trkpt lat="44.6161745" lon="10.1937692"><ele>517.6666666666667</ele><time>2026-04-24T13:19:39.25Z</time></trkpt><trkpt lat="44.6161593" lon="10.1939623"><ele>518.0</ele><time>2026-04-24T13:19:41.249Z</time></trkpt><trkpt lat="44.6161371" lon="10.1940654"><ele>518.3333333333334</ele><time>2026-04-24T13:19:42.249Z</time></trkpt><trkpt lat="44.6161159" lon="10.1941517"><ele>518.6666666666666</ele><time>2026-04-24T13:19:43.249Z</time></trkpt><trkpt lat="44.6160862" lon="10.1942389"><ele>519.0</ele><time>2026-04-24T13:19:44.249Z</time></trkpt><trkpt lat="44.6160534" lon="10.1943281"><ele>524.0</ele><time>2026-04-24T13:19:45.249Z</time></trkpt><trkpt lat="44.6160283" lon="10.1944198"><ele>529.0</ele><time>2026-04-24T13:19:46.25Z</time></trkpt><trkpt lat="44.6159926" lon="10.1945137"><ele>534.0</ele><time>2026-04-24T13:19:47.249Z</time></trkpt><trkpt lat="44.6159555" lon="10.1946142"><ele>539.0</ele><time>2026-04-24T13:19:48.249Z</time></trkpt><trkpt lat="44.6159068" lon="10.1947208"><ele>544.0</ele><time>2026-04-24T13:19:49.249Z</time></trkpt><trkpt lat="44.6158552" lon="10.1948272"><ele>549.0</ele><time>2026-04-24T13:19:50.248Z</time></trkpt><trkpt lat="44.615794" lon="10.1949389"><ele>549.0</ele><time>2026-04-24T13:19:51.249Z</time></trkpt><trkpt lat="44.6157174" lon="10.1950694"><ele>549.0</ele><time>2026-04-24T13:19:52.25Z</time></trkpt><trkpt lat="44.6156354" lon="10.1952095"><ele>549.0</ele><time>2026-04-24T13:19:53.249Z</time></trkpt><trkpt lat="44.6155595" lon="10.1953491"><ele>549.0</ele><time>2026-04-24T13:19:54.248Z</time></trkpt><trkpt lat="44.6154883" lon="10.1954838"><ele>549.0</ele><time>2026-04-24T13:19:55.249Z</time></trkpt><trkpt lat="44.6154206" lon="10.1956368"><ele>549.0</ele><time>2026-04-24T13:19:56.249Z</time></trkpt><trkpt lat="44.6153595" lon="10.1957971"><ele>549.0</ele><time>2026-04-24T13:19:57.25Z</time></trkpt><trkpt lat="44.6153083" lon="10.1959376"><ele>549.0</ele><time>2026-04-24T13:19:58.248Z</time></trkpt><trkpt lat="44.61526" lon="10.19608"><ele>552.4</ele><time>2026-04-24T13:19:59.248Z</time></trkpt><trkpt lat="44.615216" lon="10.1961936"><ele>555.8</ele><time>2026-04-24T13:20:00.249Z</time></trkpt><trkpt lat="44.6151546" lon="10.196289"><ele>559.2</ele><time>2026-04-24T13:20:01.25Z</time></trkpt><trkpt lat="44.6150785" lon="10.1963764"><ele>562.6</ele><time>2026-04-24T13:20:02.249Z</time></trkpt><trkpt lat="44.6150034" lon="10.1964609"><ele>566.0</ele><time>2026-04-24T13:20:03.249Z</time></trkpt><trkpt lat="44.6149271" lon="10.1965343"><ele>566.0</ele><time>2026-04-24T13:20:04.249Z</time></trkpt><trkpt lat="44.6148427" lon="10.1965728"><ele>566.0</ele><time>2026-04-24T13:20:05.249Z</time></trkpt><trkpt lat="44.6147576" lon="10.1965956"><ele>566.0</ele><time>2026-04-24T13:20:06.25Z</time></trkpt><trkpt lat="44.6146722" lon="10.1966343"><ele>566.0</ele><time>2026-04-24T13:20:07.248Z</time></trkpt><trkpt lat="44.6145896" lon="10.1967001"><ele>566.0</ele><time>2026-04-24T13:20:08.248Z</time></trkpt><trkpt lat="44.6145213" lon="10.1967735"><ele>566.0</ele><time>2026-04-24T13:20:09.249Z</time></trkpt><trkpt lat="44.6144665" lon="10.1968493"><ele>572.1666666666666</ele><time>2026-04-24T13:20:10.249Z</time></trkpt><trkpt lat="44.6143999" lon="10.196912"><ele>578.3333333333333</ele><time>2026-04-24T13:20:11.249Z</time></trkpt><trkpt lat="44.6143227" lon="10.196977"><ele>584.5</ele><time>2026-04-24T13:20:12.248Z</time></trkpt><trkpt lat="44.6142539" lon="10.1970313"><ele>590.6666666666666</ele><time>2026-04-24T13:20:13.249Z</time></trkpt><trkpt lat="44.6141746" lon="10.1970748"><ele>596.8333333333334</ele><time>2026-04-24T13:20:14.25Z</time></trkpt><trkpt lat="44.614071" lon="10.1970406"><ele>603.0</ele><time>2026-04-24T13:20:15.25Z</time></trkpt><trkpt lat="44.6139792" lon="10.1970656"><ele>603.0</ele><time>2026-04-24T13:20:16.25Z</time></trkpt><trkpt lat="44.6138845" lon="10.1970606"><ele>603.0</ele><time>2026-04-24T13:20:17.25Z</time></trkpt><trkpt lat="44.6137858" lon="10.1970766"><ele>603.0</ele><time>2026-04-24T13:20:18.249Z</time></trkpt><trkpt lat="44.6136858" lon="10.1970831"><ele>603.0</ele><time>2026-04-24T13:20:19.248Z</time></trkpt><trkpt lat="44.613579" lon="10.1971056"><ele>603.0</ele><time>2026-04-24T13:20:20.25Z</time></trkpt><trkpt lat="44.6135025" lon="10.1970849"><ele>600.8333333333334</ele><time>2026-04-24T13:20:21.249Z</time></trkpt><trkpt lat="44.6134297" lon="10.1970919"><ele>598.6666666666666</ele><time>2026-04-24T13:20:43.262Z</time></trkpt><trkpt lat="44.61333" lon="10.1971588"><ele>596.5</ele><time>2026-04-24T13:20:44.248Z</time></trkpt><trkpt lat="44.613256" lon="10.1972192"><ele>594.3333333333333</ele><time>2026-04-24T13:20:45.25Z</time></trkpt><trkpt lat="44.6131942" lon="10.1972624"><ele>592.1666666666666</ele><time>2026-04-24T13:20:46.249Z</time></trkpt><trkpt lat="44.6131073" lon="10.1973244"><ele>590.0</ele><time>2026-04-24T13:20:56.248Z</time></trkpt><trkpt lat="44.6130047" lon="10.1973639"><ele>590.0</ele><time>2026-04-24T13:20:58.249Z</time></trkpt><trkpt lat="44.6129267" lon="10.1973712"><ele>590.0</ele><time>2026-04-24T13:20:59.249Z</time></trkpt><trkpt lat="44.612858" lon="10.1973545"><ele>590.0</ele><time>2026-04-24T13:21:00.248Z</time></trkpt><trkpt lat="44.6127867" lon="10.197336"><ele>590.0</ele><time>2026-04-24T13:21:01.249Z</time></trkpt><trkpt lat="44.6126953" lon="10.1972659"><ele>590.0</ele><time>2026-04-24T13:21:02.249Z</time></trkpt><trkpt lat="44.6126223" lon="10.1971932"><ele>590.0</ele><time>2026-04-24T13:21:03.249Z</time></trkpt><trkpt lat="44.6125513" lon="10.1971432"><ele>598.8</ele><time>2026-04-24T13:21:04.249Z</time></trkpt><trkpt lat="44.6124612" lon="10.1970917"><ele>607.6</ele><time>2026-04-24T13:21:05.248Z</time></trkpt><trkpt lat="44.6124062" lon="10.1970121"><ele>616.4</ele><time>2026-04-24T13:21:06.248Z</time></trkpt><trkpt lat="44.6123573" lon="10.1969564"><ele>625.2</ele><time>2026-04-24T13:21:07.248Z</time></trkpt><trkpt lat="44.6123016" lon="10.1968771"><ele>634.0</ele><time>2026-04-24T13:21:08.249Z</time></trkpt><trkpt lat="44.6122035" lon="10.1967522"><ele>634.0</ele><time>2026-04-24T13:21:10.249Z</time></trkpt><trkpt lat="44.6121374" lon="10.1966988"><ele>634.0</ele><time>2026-04-24T13:21:12.25Z</time></trkpt><trkpt lat="44.6120637" lon="10.1966891"><ele>634.0</ele><time>2026-04-24T13:21:20.249Z</time></trkpt><trkpt lat="44.611973" lon="10.1967067"><ele>634.0</ele><time>2026-04-24T13:21:23.248Z</time></trkpt><trkpt lat="44.6118977" lon="10.1966894"><ele>634.0</ele><time>2026-04-24T13:21:24.247Z</time></trkpt><trkpt lat="44.6118302" lon="10.1967057"><ele>634.0</ele><time>2026-04-24T13:21:26.249Z</time></trkpt><trkpt lat="44.6117881" lon="10.1967744"><ele>632.8333333333334</ele><time>2026-04-24T13:21:28.249Z</time></trkpt><trkpt lat="44.6117094" lon="10.1968477"><ele>631.6666666666667</ele><time>2026-04-24T13:21:31.247Z</time></trkpt><trkpt lat="44.6116198" lon="10.1969392"><ele>630.5</ele><time>2026-04-24T13:21:36.249Z</time></trkpt><trkpt lat="44.6115647" lon="10.1969903"><ele>629.3333333333334</ele><time>2026-04-24T13:21:38.248Z</time></trkpt><trkpt lat="44.6114982" lon="10.1970004"><ele>628.1666666666666</ele><time>2026-04-24T13:21:40.248Z</time></trkpt><trkpt lat="44.6114244" lon="10.1969718"><ele>627.0</ele><time>2026-04-24T13:21:42.248Z</time></trkpt><trkpt lat="44.6113257" lon="10.1969364"><ele>627.0</ele><time>2026-04-24T13:21:44.249Z</time></trkpt><trkpt lat="44.611219" lon="10.1968892"><ele>627.0</ele><time>2026-04-24T13:21:46.247Z</time></trkpt><trkpt lat="44.6111207" lon="10.1968458"><ele>627.0</ele><time>2026-04-24T13:21:48.248Z</time></trkpt><trkpt lat="44.6110598" lon="10.1968225"><ele>627.0</ele><time>2026-04-24T13:22:08.249Z</time></trkpt><trkpt lat="44.6111354" lon="10.1968339"><ele>627.0</ele><time>2026-04-24T13:22:17.248Z</time></trkpt><trkpt lat="44.6111265" lon="10.1969272"><ele>627.0</ele><time>2026-04-24T13:22:20.249Z</time></trkpt><trkpt lat="44.6110822" lon="10.1968413"><ele>629.6</ele><time>2026-04-24T13:24:18.248Z</time></trkpt><trkpt lat="44.6109812" lon="10.1968131"><ele>632.2</ele><time>2026-04-24T13:24:21.247Z</time></trkpt><trkpt lat="44.6109125" lon="10.1967656"><ele>634.8</ele><time>2026-04-24T13:24:24.249Z</time></trkpt><trkpt lat="44.6108401" lon="10.1967231"><ele>637.4</ele><time>2026-04-24T13:24:27.248Z</time></trkpt><trkpt lat="44.6107526" lon="10.1966925"><ele>640.0</ele><time>2026-04-24T13:24:29.249Z</time></trkpt><trkpt lat="44.6106475" lon="10.1966563"><ele>640.0</ele><time>2026-04-24T13:24:31.247Z</time></trkpt><trkpt lat="44.6105422" lon="10.1966305"><ele>640.0</ele><time>2026-04-24T13:24:33.248Z</time></trkpt><trkpt lat="44.6104405" lon="10.1966179"><ele>640.0</ele><time>2026-04-24T13:24:35.247Z</time></trkpt><trkpt lat="44.6103431" lon="10.1965931"><ele>640.0</ele><time>2026-04-24T13:24:37.248Z</time></trkpt><trkpt lat="44.6102437" lon="10.1965759"><ele>640.0</ele><time>2026-04-24T13:24:39.249Z</time></trkpt><trkpt lat="44.610174" lon="10.1966091"><ele>643.6666666666667</ele><time>2026-04-24T13:24:41.249Z</time></trkpt><trkpt lat="44.6100992" lon="10.1967145"><ele>647.3333333333334</ele><time>2026-04-24T13:24:43.247Z</time></trkpt><trkpt lat="44.6100379" lon="10.1967842"><ele>651.0</ele><time>2026-04-24T13:24:45.247Z</time></trkpt><trkpt lat="44.6099686" lon="10.1968518"><ele>654.6666666666666</ele><time>2026-04-24T13:24:48.247Z</time></trkpt><trkpt lat="44.6099421" lon="10.1969449"><ele>658.3333333333333</ele><time>2026-04-24T13:24:51.246Z</time></trkpt><trkpt lat="44.6099632" lon="10.1968539"><ele>662.0</ele><time>2026-04-24T13:28:06.248Z</time></trkpt><trkpt lat="44.6100041" lon="10.1967821"><ele>662.0</ele><time>2026-04-24T13:28:12.246Z</time></trkpt><trkpt lat="44.610062" lon="10.1967144"><ele>662.0</ele><time>2026-04-24T13:28:24.246Z</time></trkpt><trkpt lat="44.6101274" lon="10.1966192"><ele>662.0</ele><time>2026-04-24T13:28:27.246Z</time></trkpt><trkpt lat="44.6101793" lon="10.1965499"><ele>662.0</ele><time>2026-04-24T13:28:29.246Z</time></trkpt><trkpt lat="44.6102489" lon="10.1964749"><ele>662.0</ele><time>2026-04-24T13:28:32.246Z</time></trkpt><trkpt lat="44.6103197" lon="10.1964822"><ele>662.0</ele><time>2026-04-24T13:28:35.246Z</time></trkpt><trkpt lat="44.610407" lon="10.1965089"><ele>658.3333333333333</ele><time>2026-04-24T13:28:38.246Z</time></trkpt><trkpt lat="44.6104839" lon="10.1965347"><ele>654.6666666666666</ele><time>2026-04-24T13:28:41.245Z</time></trkpt><trkpt lat="44.6105493" lon="10.1965542"><ele>651.0</ele><time>2026-04-24T13:28:45.247Z</time></trkpt><trkpt lat="44.6106145" lon="10.1966054"><ele>647.3333333333334</ele><time>2026-04-24T13:28:50.247Z</time></trkpt><trkpt lat="44.6106921" lon="10.196617"><ele>643.6666666666667</ele><time>2026-04-24T13:29:13.246Z</time></trkpt><trkpt lat="44.6107861" lon="10.1966445"><ele>640.0</ele><time>2026-04-24T13:29:16.245Z</time></trkpt><trkpt lat="44.6108716" lon="10.1966823"><ele>640.0</ele><time>2026-04-24T13:29:18.247Z</time></trkpt><trkpt lat="44.6109362" lon="10.1967184"><ele>640.0</ele><time>2026-04-24T13:29:20.245Z</time></trkpt><trkpt lat="44.6110015" lon="10.1967333"><ele>640.0</ele><time>2026-04-24T13:29:23.245Z</time></trkpt><trkpt lat="44.6110763" lon="10.1967892"><ele>640.0</ele><time>2026-04-24T13:29:26.246Z</time></trkpt><trkpt lat="44.6111367" lon="10.1968251"><ele>640.0</ele><time>2026-04-24T13:32:08.244Z</time></trkpt><trkpt lat="44.6112046" lon="10.1968484"><ele>640.0</ele><time>2026-04-24T13:32:11.244Z</time></trkpt><trkpt lat="44.611279" lon="10.1968957"><ele>640.0</ele><time>2026-04-24T13:32:14.245Z</time></trkpt><trkpt lat="44.6113569" lon="10.1969376"><ele>637.8333333333334</ele><time>2026-04-24T13:32:17.245Z</time></trkpt><trkpt lat="44.6114167" lon="10.1969676"><ele>635.6666666666667</ele><time>2026-04-24T13:32:19.245Z</time></trkpt><trkpt lat="44.6114797" lon="10.1969865"><ele>633.5</ele><time>2026-04-24T13:32:21.245Z</time></trkpt><trkpt lat="44.6115539" lon="10.1969651"><ele>631.3333333333334</ele><time>2026-04-24T13:32:24.245Z</time></trkpt><trkpt lat="44.6116072" lon="10.1968909"><ele>629.1666666666666</ele><time>2026-04-24T13:32:27.246Z</time></trkpt><trkpt lat="44.6116827" lon="10.1968109"><ele>627.0</ele><time>2026-04-24T13:32:30.245Z</time></trkpt><trkpt lat="44.6117473" lon="10.1967463"><ele>627.0</ele><time>2026-04-24T13:32:33.246Z</time></trkpt><trkpt lat="44.6117938" lon="10.1966748"><ele>627.0</ele><time>2026-04-24T13:32:37.245Z</time></trkpt><trkpt lat="44.6118773" lon="10.1966874"><ele>627.0</ele><time>2026-04-24T13:32:40.245Z</time></trkpt><trkpt lat="44.6119499" lon="10.1966975"><ele>627.0</ele><time>2026-04-24T13:32:42.245Z</time></trkpt><trkpt lat="44.6120386" lon="10.196686"><ele>627.0</ele><time>2026-04-24T13:32:44.245Z</time></trkpt><trkpt lat="44.6121003" lon="10.1967225"><ele>627.0</ele><time>2026-04-24T13:33:00.246Z</time></trkpt><trkpt lat="44.6121709" lon="10.1967693"><ele>628.1666666666666</ele><time>2026-04-24T13:33:02.245Z</time></trkpt><trkpt lat="44.6122487" lon="10.1968282"><ele>629.3333333333334</ele><time>2026-04-24T13:33:04.244Z</time></trkpt><trkpt lat="44.6123125" lon="10.1968909"><ele>630.5</ele><time>2026-04-24T13:33:06.245Z</time></trkpt><trkpt lat="44.6123671" lon="10.1969617"><ele>631.6666666666667</ele><time>2026-04-24T13:33:07.246Z</time></trkpt><trkpt lat="44.6124281" lon="10.1970399"><ele>632.8333333333334</ele><time>2026-04-24T13:33:09.244Z</time></trkpt><trkpt lat="44.6124778" lon="10.1971145"><ele>634.0</ele><time>2026-04-24T13:33:10.246Z</time></trkpt><trkpt lat="44.6125535" lon="10.1971833"><ele>634.0</ele><time>2026-04-24T13:33:12.244Z</time></trkpt><trkpt lat="44.6126101" lon="10.1972335"><ele>634.0</ele><time>2026-04-24T13:33:14.246Z</time></trkpt><trkpt lat="44.6126749" lon="10.1972882"><ele>634.0</ele><time>2026-04-24T13:33:16.246Z</time></trkpt><trkpt lat="44.6127422" lon="10.1973778"><ele>634.0</ele><time>2026-04-24T13:33:18.244Z</time></trkpt><trkpt lat="44.6128516" lon="10.1973726"><ele>634.0</ele><time>2026-04-24T13:33:20.245Z</time></trkpt><trkpt lat="44.6129288" lon="10.1973399"><ele>634.0</ele><time>2026-04-24T13:33:22.245Z</time></trkpt><trkpt lat="44.6129932" lon="10.1973274"><ele>633.2</ele><time>2026-04-24T13:33:24.244Z</time></trkpt><trkpt lat="44.6130877" lon="10.1972774"><ele>632.4</ele><time>2026-04-24T13:33:26.245Z</time></trkpt><trkpt lat="44.6132066" lon="10.1972289"><ele>631.6</ele><time>2026-04-24T13:33:28.245Z</time></trkpt><trkpt lat="44.613307" lon="10.1971929"><ele>630.8</ele><time>2026-04-24T13:33:30.245Z</time></trkpt><trkpt lat="44.6133816" lon="10.1971662"><ele>630.0</ele><time>2026-04-24T13:33:32.245Z</time></trkpt><trkpt lat="44.6135032" lon="10.1971323"><ele>630.0</ele><time>2026-04-24T13:33:34.246Z</time></trkpt><trkpt lat="44.6136059" lon="10.1971359"><ele>630.0</ele><time>2026-04-24T13:33:35.246Z</time></trkpt><trkpt lat="44.6137052" lon="10.1971563"><ele>630.0</ele><time>2026-04-24T13:33:36.245Z</time></trkpt><trkpt lat="44.6138151" lon="10.197163"><ele>630.0</ele><time>2026-04-24T13:33:38.245Z</time></trkpt><trkpt lat="44.6139299" lon="10.1971458"><ele>630.0</ele><time>2026-04-24T13:33:39.244Z</time></trkpt><trkpt lat="44.6140184" lon="10.1971312"><ele>625.5</ele><time>2026-04-24T13:33:40.245Z</time></trkpt><trkpt lat="44.614114" lon="10.1971087"><ele>621.0</ele><time>2026-04-24T13:33:41.246Z</time></trkpt><trkpt lat="44.6141803" lon="10.1970849"><ele>616.5</ele><time>2026-04-24T13:33:42.245Z</time></trkpt><trkpt lat="44.6142451" lon="10.1970388"><ele>612.0</ele><time>2026-04-24T13:33:43.245Z</time></trkpt><trkpt lat="44.6143168" lon="10.1970312"><ele>607.5</ele><time>2026-04-24T13:33:44.244Z</time></trkpt><trkpt lat="44.6143746" lon="10.1969653"><ele>603.0</ele><time>2026-04-24T13:33:45.245Z</time></trkpt><trkpt lat="44.6144502" lon="10.1969116"><ele>596.8333333333334</ele><time>2026-04-24T13:33:46.245Z</time></trkpt><trkpt lat="44.614537" lon="10.1967994"><ele>590.6666666666666</ele><time>2026-04-24T13:33:48.245Z</time></trkpt><trkpt lat="44.6145951" lon="10.1967342"><ele>584.5</ele><time>2026-04-24T13:33:49.244Z</time></trkpt><trkpt lat="44.6146744" lon="10.1966662"><ele>578.3333333333333</ele><time>2026-04-24T13:33:50.246Z</time></trkpt><trkpt lat="44.614732" lon="10.1966252"><ele>572.1666666666666</ele><time>2026-04-24T13:33:51.245Z</time></trkpt><trkpt lat="44.6147977" lon="10.1966131"><ele>566.0</ele><time>2026-04-24T13:33:52.244Z</time></trkpt><trkpt lat="44.614863" lon="10.1965943"><ele>566.0</ele><time>2026-04-24T13:33:53.244Z</time></trkpt><trkpt lat="44.6149294" lon="10.196579"><ele>566.0</ele><time>2026-04-24T13:33:54.244Z</time></trkpt><trkpt lat="44.6149842" lon="10.1965152"><ele>566.0</ele><time>2026-04-24T13:33:55.245Z</time></trkpt><trkpt lat="44.6150439" lon="10.1964773"><ele>566.0</ele><time>2026-04-24T13:33:56.244Z</time></trkpt><trkpt lat="44.6151081" lon="10.1964196"><ele>566.0</ele><time>2026-04-24T13:33:57.244Z</time></trkpt><trkpt lat="44.6151535" lon="10.1963548"><ele>566.0</ele><time>2026-04-24T13:33:58.244Z</time></trkpt><trkpt lat="44.6152133" lon="10.1962856"><ele>566.0</ele><time>2026-04-24T13:33:59.244Z</time></trkpt><trkpt lat="44.6152571" lon="10.1962079"><ele>563.1666666666666</ele><time>2026-04-24T13:34:00.246Z</time></trkpt><trkpt lat="44.6152978" lon="10.1961304"><ele>560.3333333333333</ele><time>2026-04-24T13:34:01.244Z</time></trkpt><trkpt lat="44.6153121" lon="10.1960232"><ele>557.5</ele><time>2026-04-24T13:34:02.245Z</time></trkpt><trkpt lat="44.6153477" lon="10.195927"><ele>554.6666666666666</ele><time>2026-04-24T13:34:03.246Z</time></trkpt><trkpt lat="44.6153802" lon="10.1958293"><ele>551.8333333333334</ele><time>2026-04-24T13:34:04.245Z</time></trkpt><trkpt lat="44.6154002" lon="10.1957314"><ele>549.0</ele><time>2026-04-24T13:34:05.245Z</time></trkpt><trkpt lat="44.6154401" lon="10.1956241"><ele>549.0</ele><time>2026-04-24T13:34:06.246Z</time></trkpt><trkpt lat="44.615484" lon="10.1955202"><ele>549.0</ele><time>2026-04-24T13:34:07.246Z</time></trkpt><trkpt lat="44.6155361" lon="10.195413"><ele>549.0</ele><time>2026-04-24T13:34:08.245Z</time></trkpt><trkpt lat="44.6155833" lon="10.1953043"><ele>549.0</ele><time>2026-04-24T13:34:09.246Z</time></trkpt><trkpt lat="44.6156494" lon="10.1952088"><ele>549.0</ele><time>2026-04-24T13:34:10.246Z</time></trkpt><trkpt lat="44.6157057" lon="10.195097"><ele>549.0</ele><time>2026-04-24T13:34:11.245Z</time></trkpt><trkpt lat="44.6157573" lon="10.1950105"><ele>549.0</ele><time>2026-04-24T13:34:12.245Z</time></trkpt><trkpt lat="44.6158004" lon="10.1949344"><ele>549.0</ele><time>2026-04-24T13:34:13.245Z</time></trkpt><trkpt lat="44.6158474" lon="10.1948509"><ele>549.0</ele><time>2026-04-24T13:34:14.245Z</time></trkpt><trkpt lat="44.615879" lon="10.1947565"><ele>549.0</ele><time>2026-04-24T13:34:15.244Z</time></trkpt><trkpt lat="44.6159262" lon="10.1946619"><ele>549.0</ele><time>2026-04-24T13:34:16.245Z</time></trkpt><trkpt lat="44.6159689" lon="10.1945701"><ele>549.8571428571429</ele><time>2026-04-24T13:34:17.246Z</time></trkpt><trkpt lat="44.6160033" lon="10.1944774"><ele>550.7142857142858</ele><time>2026-04-24T13:34:18.246Z</time></trkpt><trkpt lat="44.6160365" lon="10.1943854"><ele>551.5714285714287</ele><time>2026-04-24T13:34:19.244Z</time></trkpt><trkpt lat="44.6160646" lon="10.1942922"><ele>552.4285714285714</ele><time>2026-04-24T13:34:20.245Z</time></trkpt><trkpt lat="44.6160878" lon="10.194198"><ele>553.2857142857143</ele><time>2026-04-24T13:34:21.244Z</time></trkpt><trkpt lat="44.6161185" lon="10.1941093"><ele>554.1428571428572</ele><time>2026-04-24T13:34:22.246Z</time></trkpt><trkpt lat="44.6161464" lon="10.1940284"><ele>555.0</ele><time>2026-04-24T13:34:23.246Z</time></trkpt><trkpt lat="44.6161775" lon="10.19386"><ele>553.5714285714287</ele><time>2026-04-24T13:34:25.246Z</time></trkpt><trkpt lat="44.6161815" lon="10.1937661"><ele>552.1428571428571</ele><time>2026-04-24T13:34:26.245Z</time></trkpt><trkpt lat="44.6161828" lon="10.193666"><ele>550.7142857142858</ele><time>2026-04-24T13:34:27.244Z</time></trkpt><trkpt lat="44.6161781" lon="10.1935642"><ele>549.2857142857143</ele><time>2026-04-24T13:34:28.245Z</time></trkpt><trkpt lat="44.6161752" lon="10.1934631"><ele>547.8571428571429</ele><time>2026-04-24T13:34:29.245Z</time></trkpt><trkpt lat="44.6161761" lon="10.193365"><ele>546.4285714285714</ele><time>2026-04-24T13:34:30.246Z</time></trkpt><trkpt lat="44.6161616" lon="10.1932726"><ele>545.0</ele><time>2026-04-24T13:34:31.246Z</time></trkpt><trkpt lat="44.6161388" lon="10.19318"><ele>542.8</ele><time>2026-04-24T13:34:32.245Z</time></trkpt><trkpt lat="44.6161031" lon="10.1930903"><ele>540.6</ele><time>2026-04-24T13:34:33.245Z</time></trkpt><trkpt lat="44.6160729" lon="10.1929923"><ele>538.4</ele><time>2026-04-24T13:34:34.245Z</time></trkpt><trkpt lat="44.6160527" lon="10.1929035"><ele>536.2</ele><time>2026-04-24T13:34:35.244Z</time></trkpt><trkpt lat="44.6160444" lon="10.1927464"><ele>534.0</ele><time>2026-04-24T13:34:37.245Z</time></trkpt><trkpt lat="44.6160585" lon="10.1925711"><ele>534.0</ele><time>2026-04-24T13:34:39.245Z</time></trkpt><trkpt lat="44.6160684" lon="10.1924487"><ele>534.0</ele><time>2026-04-24T13:34:41.246Z</time></trkpt><trkpt lat="44.6161273" lon="10.1923733"><ele>534.0</ele><time>2026-04-24T13:34:43.244Z</time></trkpt><trkpt lat="44.6162014" lon="10.1922865"><ele>534.0</ele><time>2026-04-24T13:34:45.243Z</time></trkpt><trkpt lat="44.6162641" lon="10.1921638"><ele>534.0</ele><time>2026-04-24T13:34:47.243Z</time></trkpt><trkpt lat="44.6162828" lon="10.192073"><ele>534.0</ele><time>2026-04-24T13:34:48.243Z</time></trkpt><trkpt lat="44.6162964" lon="10.1919802"><ele>530.4</ele><time>2026-04-24T13:34:49.244Z</time></trkpt><trkpt lat="44.6163182" lon="10.1918889"><ele>526.8</ele><time>2026-04-24T13:34:50.244Z</time></trkpt><trkpt lat="44.6163528" lon="10.1918144"><ele>523.2</ele><time>2026-04-24T13:34:51.244Z</time></trkpt><trkpt lat="44.6164384" lon="10.1917179"><ele>519.6</ele><time>2026-04-24T13:34:53.244Z</time></trkpt><trkpt lat="44.6165412" lon="10.1916734"><ele>516.0</ele><time>2026-04-24T13:34:55.244Z</time></trkpt><trkpt lat="44.6166369" lon="10.1916126"><ele>516.0</ele><time>2026-04-24T13:34:57.244Z</time></trkpt><trkpt lat="44.616711" lon="10.1915378"><ele>516.0</ele><time>2026-04-24T13:34:59.244Z</time></trkpt><trkpt lat="44.6168233" lon="10.191446"><ele>516.0</ele><time>2026-04-24T13:35:01.244Z</time></trkpt><trkpt lat="44.6168927" lon="10.1913903"><ele>516.0</ele><time>2026-04-24T13:35:02.245Z</time></trkpt><trkpt lat="44.6169544" lon="10.1913214"><ele>516.0</ele><time>2026-04-24T13:35:03.244Z</time></trkpt><trkpt lat="44.6170192" lon="10.191249"><ele>514.8</ele><time>2026-04-24T13:35:04.245Z</time></trkpt><trkpt lat="44.6170856" lon="10.1911675"><ele>513.6</ele><time>2026-04-24T13:35:05.244Z</time></trkpt><trkpt lat="44.6171444" lon="10.1911041"><ele>512.4</ele><time>2026-04-24T13:35:06.244Z</time></trkpt><trkpt lat="44.6171966" lon="10.1910505"><ele>511.2</ele><time>2026-04-24T13:35:07.243Z</time></trkpt><trkpt lat="44.6172746" lon="10.190943"><ele>510.0</ele><time>2026-04-24T13:35:09.243Z</time></trkpt><trkpt lat="44.6173522" lon="10.1907892"><ele>510.0</ele><time>2026-04-24T13:35:11.243Z</time></trkpt><trkpt lat="44.6173835" lon="10.1906908"><ele>510.0</ele><time>2026-04-24T13:35:12.243Z</time></trkpt><trkpt lat="44.6174174" lon="10.1905231"><ele>510.0</ele><time>2026-04-24T13:35:14.243Z</time></trkpt><trkpt lat="44.6174426" lon="10.1904"><ele>510.0</ele><time>2026-04-24T13:35:16.244Z</time></trkpt><trkpt lat="44.6174761" lon="10.1902584"><ele>510.0</ele><time>2026-04-24T13:35:19.243Z</time></trkpt><trkpt lat="44.6175292" lon="10.1901186"><ele>511.6</ele><time>2026-04-24T13:35:21.243Z</time></trkpt><trkpt lat="44.6176016" lon="10.1899936"><ele>513.2</ele><time>2026-04-24T13:35:23.244Z</time></trkpt><trkpt lat="44.6176494" lon="10.189935"><ele>514.8</ele><time>2026-04-24T13:35:24.244Z</time></trkpt><trkpt lat="44.6177424" lon="10.1898293"><ele>516.4</ele><time>2026-04-24T13:35:26.243Z</time></trkpt><trkpt lat="44.6178434" lon="10.1897482"><ele>518.0</ele><time>2026-04-24T13:35:28.244Z</time></trkpt><trkpt lat="44.6179361" lon="10.189655"><ele>518.0</ele><time>2026-04-24T13:35:30.244Z</time></trkpt><trkpt lat="44.6180068" lon="10.1895943"><ele>518.0</ele><time>2026-04-24T13:35:32.244Z</time></trkpt><trkpt lat="44.6180492" lon="10.1895287"><ele>518.0</ele><time>2026-04-24T13:36:42.244Z</time></trkpt><trkpt lat="44.6180757" lon="10.189438"><ele>518.0</ele><time>2026-04-24T13:36:44.243Z</time></trkpt><trkpt lat="44.6181134" lon="10.1893214"><ele>518.0</ele><time>2026-04-24T13:40:00.243Z</time></trkpt><trkpt lat="44.6181447" lon="10.1892373"><ele>518.0</ele><time>2026-04-24T13:40:01.243Z</time></trkpt><trkpt lat="44.6182051" lon="10.1890823"><ele>518.8333333333333</ele><time>2026-04-24T13:40:03.242Z</time></trkpt><trkpt lat="44.618246" lon="10.1889841"><ele>519.6666666666666</ele><time>2026-04-24T13:40:04.243Z</time></trkpt><trkpt lat="44.6182954" lon="10.1888829"><ele>520.5</ele><time>2026-04-24T13:40:05.242Z</time></trkpt><trkpt lat="44.6183334" lon="10.1887683"><ele>521.3333333333334</ele><time>2026-04-24T13:40:06.242Z</time></trkpt><trkpt lat="44.618357" lon="10.1886464"><ele>522.1666666666667</ele><time>2026-04-24T13:40:07.242Z</time></trkpt><trkpt lat="44.6183667" lon="10.1885076"><ele>523.0</ele><time>2026-04-24T13:40:08.242Z</time></trkpt><trkpt lat="44.6183797" lon="10.1883754"><ele>523.0</ele><time>2026-04-24T13:40:09.242Z</time></trkpt><trkpt lat="44.6183924" lon="10.1882395"><ele>523.0</ele><time>2026-04-24T13:40:10.243Z</time></trkpt><trkpt lat="44.6183901" lon="10.1881253"><ele>523.0</ele><time>2026-04-24T13:40:11.243Z</time></trkpt><trkpt lat="44.6184223" lon="10.1880122"><ele>523.0</ele><time>2026-04-24T13:40:12.242Z</time></trkpt><trkpt lat="44.6184556" lon="10.1878724"><ele>523.0</ele><time>2026-04-24T13:40:13.242Z</time></trkpt><trkpt lat="44.6184905" lon="10.1877426"><ele>524.1999999999999</ele><time>2026-04-24T13:40:14.242Z</time></trkpt><trkpt lat="44.6185303" lon="10.1875946"><ele>525.4</ele><time>2026-04-24T13:40:15.243Z</time></trkpt><trkpt lat="44.6185654" lon="10.187446"><ele>526.5999999999999</ele><time>2026-04-24T13:40:16.242Z</time></trkpt><trkpt lat="44.6185919" lon="10.187306"><ele>527.8</ele><time>2026-04-24T13:40:17.243Z</time></trkpt><trkpt lat="44.6185957" lon="10.187157"><ele>529.0</ele><time>2026-04-24T13:40:18.243Z</time></trkpt><trkpt lat="44.6185808" lon="10.1869932"><ele>530.75</ele><time>2026-04-24T13:40:19.242Z</time></trkpt><trkpt lat="44.6185598" lon="10.1868303"><ele>532.5</ele><time>2026-04-24T13:40:20.242Z</time></trkpt><trkpt lat="44.6185383" lon="10.1866628"><ele>534.25</ele><time>2026-04-24T13:40:21.242Z</time></trkpt><trkpt lat="44.6185299" lon="10.1865069"><ele>536.0</ele><time>2026-04-24T13:40:22.242Z</time></trkpt><trkpt lat="44.6185382" lon="10.1863548"><ele>537.25</ele><time>2026-04-24T13:40:23.242Z</time></trkpt><trkpt lat="44.6185619" lon="10.1861978"><ele>538.5</ele><time>2026-04-24T13:40:24.242Z</time></trkpt><trkpt lat="44.6186111" lon="10.1860462"><ele>539.75</ele><time>2026-04-24T13:40:25.243Z</time></trkpt><trkpt lat="44.6186801" lon="10.1859205"><ele>541.0</ele><time>2026-04-24T13:40:26.243Z</time></trkpt><trkpt lat="44.6187638" lon="10.1858119"><ele>539.5</ele><time>2026-04-24T13:40:27.242Z</time></trkpt><trkpt lat="44.6188628" lon="10.1857242"><ele>538.0</ele><time>2026-04-24T13:40:28.243Z</time></trkpt><trkpt lat="44.6189706" lon="10.1856555"><ele>536.5</ele><time>2026-04-24T13:40:29.241Z</time></trkpt><trkpt lat="44.6190808" lon="10.1855795"><ele>535.0</ele><time>2026-04-24T13:40:30.241Z</time></trkpt><trkpt lat="44.6191749" lon="10.1854808"><ele>535.0</ele><time>2026-04-24T13:40:31.241Z</time></trkpt><trkpt lat="44.6192584" lon="10.1853902"><ele>535.0</ele><time>2026-04-24T13:40:32.241Z</time></trkpt><trkpt lat="44.6193329" lon="10.1852811"><ele>535.0</ele><time>2026-04-24T13:40:33.243Z</time></trkpt><trkpt lat="44.6193804" lon="10.1851434"><ele>535.0</ele><time>2026-04-24T13:40:34.243Z</time></trkpt><trkpt lat="44.6194171" lon="10.1849993"><ele>535.0</ele><time>2026-04-24T13:40:35.242Z</time></trkpt><trkpt lat="44.6194441" lon="10.1848459"><ele>535.0</ele><time>2026-04-24T13:40:36.241Z</time></trkpt><trkpt lat="44.619475" lon="10.1846921"><ele>535.0</ele><time>2026-04-24T13:40:37.242Z</time></trkpt><trkpt lat="44.6195077" lon="10.1845505"><ele>535.0</ele><time>2026-04-24T13:40:38.241Z</time></trkpt><trkpt lat="44.6195548" lon="10.1844242"><ele>535.0</ele><time>2026-04-24T13:40:39.243Z</time></trkpt><trkpt lat="44.6196149" lon="10.1843028"><ele>535.0</ele><time>2026-04-24T13:40:40.242Z</time></trkpt><trkpt lat="44.6196805" lon="10.1841834"><ele>533.0</ele><time>2026-04-24T13:40:41.243Z</time></trkpt><trkpt lat="44.6197495" lon="10.1840666"><ele>531.0</ele><time>2026-04-24T13:40:42.242Z</time></trkpt><trkpt lat="44.6198241" lon="10.1839558"><ele>529.0</ele><time>2026-04-24T13:40:43.242Z</time></trkpt><trkpt lat="44.6199011" lon="10.1838632"><ele>527.0</ele><time>2026-04-24T13:40:44.241Z</time></trkpt><trkpt lat="44.6199774" lon="10.1837719"><ele>525.0</ele><time>2026-04-24T13:40:45.242Z</time></trkpt><trkpt lat="44.6200443" lon="10.1836704"><ele>525.0</ele><time>2026-04-24T13:40:46.242Z</time></trkpt><trkpt lat="44.6200979" lon="10.1835502"><ele>525.0</ele><time>2026-04-24T13:40:47.241Z</time></trkpt><trkpt lat="44.6201468" lon="10.1834203"><ele>525.0</ele><time>2026-04-24T13:40:48.242Z</time></trkpt><trkpt lat="44.6202023" lon="10.1832852"><ele>525.0</ele><time>2026-04-24T13:40:49.241Z</time></trkpt><trkpt lat="44.6202635" lon="10.1831422"><ele>525.0</ele><time>2026-04-24T13:40:50.242Z</time></trkpt><trkpt lat="44.6203303" lon="10.183006"><ele>523.4</ele><time>2026-04-24T13:40:51.242Z</time></trkpt><trkpt lat="44.6203905" lon="10.1828725"><ele>521.8</ele><time>2026-04-24T13:40:52.243Z</time></trkpt><trkpt lat="44.6204506" lon="10.18274"><ele>520.2</ele><time>2026-04-24T13:40:53.243Z</time></trkpt><trkpt lat="44.6204992" lon="10.1825972"><ele>518.6</ele><time>2026-04-24T13:40:54.243Z</time></trkpt><trkpt lat="44.6205337" lon="10.1824478"><ele>517.0</ele><time>2026-04-24T13:40:55.242Z</time></trkpt><trkpt lat="44.6205493" lon="10.1822887"><ele>517.0</ele><time>2026-04-24T13:40:56.242Z</time></trkpt><trkpt lat="44.6205589" lon="10.1821349"><ele>517.0</ele><time>2026-04-24T13:40:57.243Z</time></trkpt><trkpt lat="44.6205748" lon="10.1819825"><ele>517.0</ele><time>2026-04-24T13:40:58.242Z</time></trkpt><trkpt lat="44.6206102" lon="10.1818383"><ele>517.0</ele><time>2026-04-24T13:40:59.242Z</time></trkpt><trkpt lat="44.6206599" lon="10.1816906"><ele>517.0</ele><time>2026-04-24T13:41:00.243Z</time></trkpt><trkpt lat="44.6207217" lon="10.1815402"><ele>517.5</ele><time>2026-04-24T13:41:01.243Z</time></trkpt><trkpt lat="44.6207838" lon="10.1813743"><ele>518.0</ele><time>2026-04-24T13:41:02.241Z</time></trkpt><trkpt lat="44.6208335" lon="10.1812019"><ele>518.5</ele><time>2026-04-24T13:41:03.242Z</time></trkpt><trkpt lat="44.6208732" lon="10.1810361"><ele>519.0</ele><time>2026-04-24T13:41:04.242Z</time></trkpt><trkpt lat="44.6209024" lon="10.1808785"><ele>519.0</ele><time>2026-04-24T13:41:05.241Z</time></trkpt><trkpt lat="44.6209266" lon="10.1807403"><ele>519.0</ele><time>2026-04-24T13:41:06.242Z</time></trkpt><trkpt lat="44.6209591" lon="10.1806098"><ele>519.0</ele><time>2026-04-24T13:41:07.243Z</time></trkpt><trkpt lat="44.6210033" lon="10.1804979"><ele>519.0</ele><time>2026-04-24T13:41:08.243Z</time></trkpt><trkpt lat="44.6210622" lon="10.1804045"><ele>519.0</ele><time>2026-04-24T13:41:09.242Z</time></trkpt><trkpt lat="44.6211333" lon="10.1803396"><ele>517.1428571428571</ele><time>2026-04-24T13:41:10.242Z</time></trkpt><trkpt lat="44.621216" lon="10.1802907"><ele>515.2857142857142</ele><time>2026-04-24T13:41:11.242Z</time></trkpt><trkpt lat="44.6212993" lon="10.1802403"><ele>513.4285714285714</ele><time>2026-04-24T13:41:12.242Z</time></trkpt><trkpt lat="44.6213584" lon="10.1801983"><ele>511.57142857142856</ele><time>2026-04-24T13:41:13.242Z</time></trkpt><trkpt lat="44.6214151" lon="10.1801597"><ele>509.7142857142857</ele><time>2026-04-24T13:41:14.243Z</time></trkpt><trkpt lat="44.6214745" lon="10.1801201"><ele>507.8571428571429</ele><time>2026-04-24T13:41:15.242Z</time></trkpt><trkpt lat="44.6215313" lon="10.1800812"><ele>506.00000000000006</ele><time>2026-04-24T13:41:16.242Z</time></trkpt><trkpt lat="44.6216412" lon="10.179988"><ele>505.99999999999994</ele><time>2026-04-24T13:41:18.243Z</time></trkpt><trkpt lat="44.6216987" lon="10.179933"><ele>506.0</ele><time>2026-04-24T13:41:19.241Z</time></trkpt><trkpt lat="44.6217659" lon="10.1798711"><ele>506.0</ele><time>2026-04-24T13:41:20.242Z</time></trkpt><trkpt lat="44.6218364" lon="10.1797952"><ele>506.0</ele><time>2026-04-24T13:41:21.242Z</time></trkpt><trkpt lat="44.6219111" lon="10.1797101"><ele>505.99999999999994</ele><time>2026-04-24T13:41:22.242Z</time></trkpt><trkpt lat="44.6219703" lon="10.1795926"><ele>506.0</ele><time>2026-04-24T13:41:23.241Z</time></trkpt><trkpt lat="44.6220182" lon="10.1794542"><ele>504.6</ele><time>2026-04-24T13:41:24.243Z</time></trkpt><trkpt lat="44.622059" lon="10.1793068"><ele>503.20000000000005</ele><time>2026-04-24T13:41:25.241Z</time></trkpt><trkpt lat="44.6220917" lon="10.1791617"><ele>501.79999999999995</ele><time>2026-04-24T13:41:26.241Z</time></trkpt><trkpt lat="44.6221235" lon="10.1790164"><ele>500.4</ele><time>2026-04-24T13:41:27.242Z</time></trkpt><trkpt lat="44.622157" lon="10.1788704"><ele>499.0</ele><time>2026-04-24T13:41:28.243Z</time></trkpt><trkpt lat="44.6221925" lon="10.1787211"><ele>498.25</ele><time>2026-04-24T13:41:29.241Z</time></trkpt><trkpt lat="44.6222291" lon="10.1785669"><ele>497.5</ele><time>2026-04-24T13:41:30.242Z</time></trkpt><trkpt lat="44.6222699" lon="10.1784057"><ele>496.75</ele><time>2026-04-24T13:41:31.241Z</time></trkpt><trkpt lat="44.6223141" lon="10.1782407"><ele>496.0</ele><time>2026-04-24T13:41:32.241Z</time></trkpt><trkpt lat="44.6223623" lon="10.1780744"><ele>494.75</ele><time>2026-04-24T13:41:33.241Z</time></trkpt><trkpt lat="44.6224158" lon="10.1779151"><ele>493.5</ele><time>2026-04-24T13:41:34.242Z</time></trkpt><trkpt lat="44.6224828" lon="10.1777703"><ele>492.25</ele><time>2026-04-24T13:41:35.241Z</time></trkpt><trkpt lat="44.6225506" lon="10.1776283"><ele>491.0</ele><time>2026-04-24T13:41:36.241Z</time></trkpt><trkpt lat="44.6226057" lon="10.1774796"><ele>489.75</ele><time>2026-04-24T13:41:37.243Z</time></trkpt><trkpt lat="44.6226612" lon="10.1773257"><ele>488.5</ele><time>2026-04-24T13:41:38.242Z</time></trkpt><trkpt lat="44.6226957" lon="10.1771775"><ele>487.25</ele><time>2026-04-24T13:41:39.242Z</time></trkpt><trkpt lat="44.6227006" lon="10.1770214"><ele>486.0</ele><time>2026-04-24T13:41:40.243Z</time></trkpt><trkpt lat="44.6226877" lon="10.1768509"><ele>486.0</ele><time>2026-04-24T13:41:41.242Z</time></trkpt><trkpt lat="44.622675" lon="10.1766708"><ele>486.0</ele><time>2026-04-24T13:41:42.241Z</time></trkpt><trkpt lat="44.6226592" lon="10.176474"><ele>486.0</ele><time>2026-04-24T13:41:43.242Z</time></trkpt><trkpt lat="44.6226497" lon="10.1762842"><ele>486.0</ele><time>2026-04-24T13:41:44.241Z</time></trkpt><trkpt lat="44.6226537" lon="10.1761078"><ele>484.8</ele><time>2026-04-24T13:41:45.242Z</time></trkpt><trkpt lat="44.6226885" lon="10.1759566"><ele>483.6</ele><time>2026-04-24T13:41:46.242Z</time></trkpt><trkpt lat="44.6227518" lon="10.1758499"><ele>482.4</ele><time>2026-04-24T13:41:47.242Z</time></trkpt><trkpt lat="44.6228234" lon="10.1758052"><ele>481.2</ele><time>2026-04-24T13:41:48.241Z</time></trkpt><trkpt lat="44.6228913" lon="10.175767"><ele>480.0</ele><time>2026-04-24T13:41:49.241Z</time></trkpt><trkpt lat="44.6229819" lon="10.1758894"><ele>479.6</ele><time>2026-04-24T13:41:50.241Z</time></trkpt><trkpt lat="44.6230556" lon="10.1759844"><ele>479.2</ele><time>2026-04-24T13:41:51.241Z</time></trkpt><trkpt lat="44.623113" lon="10.1761249"><ele>478.79999999999995</ele><time>2026-04-24T13:41:52.242Z</time></trkpt><trkpt lat="44.6231582" lon="10.1762807"><ele>478.4</ele><time>2026-04-24T13:41:53.242Z</time></trkpt><trkpt lat="44.6231875" lon="10.1764294"><ele>478.0</ele><time>2026-04-24T13:41:54.241Z</time></trkpt><trkpt lat="44.6232166" lon="10.1765716"><ele>478.0</ele><time>2026-04-24T13:41:55.242Z</time></trkpt><trkpt lat="44.6232624" lon="10.1766836"><ele>477.99999999999994</ele><time>2026-04-24T13:41:56.243Z</time></trkpt><trkpt lat="44.6233247" lon="10.1767766"><ele>477.99999999999994</ele><time>2026-04-24T13:41:57.242Z</time></trkpt><trkpt lat="44.6233933" lon="10.1768465"><ele>478.0</ele><time>2026-04-24T13:41:58.241Z</time></trkpt><trkpt lat="44.6234931" lon="10.1768162"><ele>478.0</ele><time>2026-04-24T13:41:59.241Z</time></trkpt><trkpt lat="44.6235978" lon="10.1767697"><ele>475.0</ele><time>2026-04-24T13:42:00.242Z</time></trkpt><trkpt lat="44.6237067" lon="10.1767147"><ele>471.99999999999994</ele><time>2026-04-24T13:42:01.241Z</time></trkpt><trkpt lat="44.6237984" lon="10.176656"><ele>468.99999999999994</ele><time>2026-04-24T13:42:02.242Z</time></trkpt><trkpt lat="44.6238687" lon="10.1765782"><ele>466.0</ele><time>2026-04-24T13:42:03.242Z</time></trkpt><trkpt lat="44.6239165" lon="10.1764732"><ele>463.0</ele><time>2026-04-24T13:42:04.241Z</time></trkpt><trkpt lat="44.623926" lon="10.1763453"><ele>462.75</ele><time>2026-04-24T13:42:05.242Z</time></trkpt><trkpt lat="44.623901" lon="10.1762067"><ele>462.5</ele><time>2026-04-24T13:42:06.242Z</time></trkpt><trkpt lat="44.6238499" lon="10.1760573"><ele>462.25</ele><time>2026-04-24T13:42:07.242Z</time></trkpt><trkpt lat="44.6237933" lon="10.1759017"><ele>462.0</ele><time>2026-04-24T13:42:08.242Z</time></trkpt><trkpt lat="44.6237349" lon="10.1757533"><ele>462.0</ele><time>2026-04-24T13:42:09.242Z</time></trkpt><trkpt lat="44.6236562" lon="10.1756346"><ele>462.00000000000006</ele><time>2026-04-24T13:42:10.242Z</time></trkpt><trkpt lat="44.6235656" lon="10.1755439"><ele>462.00000000000006</ele><time>2026-04-24T13:42:11.242Z</time></trkpt><trkpt lat="44.6234716" lon="10.1754781"><ele>462.0</ele><time>2026-04-24T13:42:12.242Z</time></trkpt><trkpt lat="44.6233794" lon="10.1754216"><ele>462.0</ele><time>2026-04-24T13:42:13.241Z</time></trkpt><trkpt lat="44.6232999" lon="10.1753457"><ele>462.0</ele><time>2026-04-24T13:42:14.242Z</time></trkpt><trkpt lat="44.6232413" lon="10.1752408"><ele>462.00000000000006</ele><time>2026-04-24T13:42:15.242Z</time></trkpt><trkpt lat="44.6232092" lon="10.1751171"><ele>462.00000000000006</ele><time>2026-04-24T13:42:16.242Z</time></trkpt><trkpt lat="44.6231956" lon="10.1749908"><ele>462.0</ele><time>2026-04-24T13:42:17.242Z</time></trkpt><trkpt lat="44.623199" lon="10.1748444"><ele>462.0</ele><time>2026-04-24T13:42:18.241Z</time></trkpt><trkpt lat="44.6231956" lon="10.1746862"><ele>458.25</ele><time>2026-04-24T13:42:19.243Z</time></trkpt><trkpt lat="44.6231829" lon="10.1745277"><ele>454.5</ele><time>2026-04-24T13:42:20.242Z</time></trkpt><trkpt lat="44.6231558" lon="10.174373"><ele>450.75</ele><time>2026-04-24T13:42:21.242Z</time></trkpt><trkpt lat="44.6231106" lon="10.1742144"><ele>447.0</ele><time>2026-04-24T13:42:22.242Z</time></trkpt><trkpt lat="44.6230592" lon="10.1740531"><ele>444.25</ele><time>2026-04-24T13:42:23.242Z</time></trkpt><trkpt lat="44.6230146" lon="10.173879"><ele>441.5</ele><time>2026-04-24T13:42:24.241Z</time></trkpt><trkpt lat="44.6229807" lon="10.173694"><ele>438.75</ele><time>2026-04-24T13:42:25.242Z</time></trkpt><trkpt lat="44.6229635" lon="10.1735038"><ele>436.0</ele><time>2026-04-24T13:42:26.243Z</time></trkpt><trkpt lat="44.622959" lon="10.1733086"><ele>433.5</ele><time>2026-04-24T13:42:27.242Z</time></trkpt><trkpt lat="44.6229713" lon="10.1731075"><ele>431.0</ele><time>2026-04-24T13:42:28.243Z</time></trkpt><trkpt lat="44.6229814" lon="10.1729018"><ele>428.5</ele><time>2026-04-24T13:42:29.243Z</time></trkpt><trkpt lat="44.6229767" lon="10.1727034"><ele>426.0</ele><time>2026-04-24T13:42:30.242Z</time></trkpt><trkpt lat="44.6229518" lon="10.1725115"><ele>428.25</ele><time>2026-04-24T13:42:31.241Z</time></trkpt><trkpt lat="44.6229037" lon="10.1723175"><ele>430.5</ele><time>2026-04-24T13:42:32.242Z</time></trkpt><trkpt lat="44.6228525" lon="10.172114"><ele>432.75</ele><time>2026-04-24T13:42:33.242Z</time></trkpt><trkpt lat="44.6228215" lon="10.1719083"><ele>435.0</ele><time>2026-04-24T13:42:34.241Z</time></trkpt><trkpt lat="44.6227885" lon="10.1716994"><ele>431.8</ele><time>2026-04-24T13:42:35.242Z</time></trkpt><trkpt lat="44.6227628" lon="10.1715173"><ele>428.6</ele><time>2026-04-24T13:42:36.242Z</time></trkpt><trkpt lat="44.6227315" lon="10.1713651"><ele>425.4</ele><time>2026-04-24T13:42:37.241Z</time></trkpt><trkpt lat="44.6227095" lon="10.1712305"><ele>422.2</ele><time>2026-04-24T13:42:38.242Z</time></trkpt><trkpt lat="44.6226421" lon="10.1711282"><ele>419.0</ele><time>2026-04-24T13:42:39.241Z</time></trkpt><trkpt lat="44.6225766" lon="10.1710162"><ele>419.0</ele><time>2026-04-24T13:42:40.241Z</time></trkpt><trkpt lat="44.6224419" lon="10.1710594"><ele>419.0</ele><time>2026-04-24T13:42:41.242Z</time></trkpt><trkpt lat="44.6223438" lon="10.1710186"><ele>419.0</ele><time>2026-04-24T13:42:42.241Z</time></trkpt><trkpt lat="44.6222352" lon="10.1710181"><ele>419.0</ele><time>2026-04-24T13:42:43.243Z</time></trkpt><trkpt lat="44.6221335" lon="10.1711714"><ele>419.0</ele><time>2026-04-24T13:42:44.243Z</time></trkpt><trkpt lat="44.622038" lon="10.1712408"><ele>419.0</ele><time>2026-04-24T13:42:45.243Z</time></trkpt><trkpt lat="44.6219491" lon="10.1713229"><ele>419.0</ele><time>2026-04-24T13:42:46.241Z</time></trkpt><trkpt lat="44.6218611" lon="10.1714307"><ele>419.0</ele><time>2026-04-24T13:42:47.241Z</time></trkpt><trkpt lat="44.6217904" lon="10.171561"><ele>419.0</ele><time>2026-04-24T13:42:48.242Z</time></trkpt><trkpt lat="44.6217232" lon="10.1716706"><ele>419.4</ele><time>2026-04-24T13:42:49.242Z</time></trkpt><trkpt lat="44.6216561" lon="10.1717742"><ele>419.79999999999995</ele><time>2026-04-24T13:42:50.242Z</time></trkpt><trkpt lat="44.6215885" lon="10.171882"><ele>420.20000000000005</ele><time>2026-04-24T13:42:51.242Z</time></trkpt><trkpt lat="44.6215131" lon="10.1719022"><ele>420.6</ele><time>2026-04-24T13:42:52.242Z</time></trkpt><trkpt lat="44.6214597" lon="10.1717998"><ele>421.0</ele><time>2026-04-24T13:42:53.243Z</time></trkpt><trkpt lat="44.6214314" lon="10.1716771"><ele>421.00000000000006</ele><time>2026-04-24T13:42:55.241Z</time></trkpt><trkpt lat="44.6214226" lon="10.1715669"><ele>421.0</ele><time>2026-04-24T13:42:56.242Z</time></trkpt><trkpt lat="44.6214171" lon="10.1714435"><ele>421.0</ele><time>2026-04-24T13:42:57.242Z</time></trkpt><trkpt lat="44.621377" lon="10.1713406"><ele>421.0</ele><time>2026-04-24T13:42:58.241Z</time></trkpt><trkpt lat="44.6213521" lon="10.1712507"><ele>421.00000000000006</ele><time>2026-04-24T13:42:59.241Z</time></trkpt><trkpt lat="44.6212374" lon="10.1712581"><ele>421.0</ele><time>2026-04-24T13:43:00.243Z</time></trkpt><trkpt lat="44.6211396" lon="10.1712538"><ele>418.20000000000005</ele><time>2026-04-24T13:43:01.242Z</time></trkpt><trkpt lat="44.6210162" lon="10.1712474"><ele>415.40000000000003</ele><time>2026-04-24T13:43:02.242Z</time></trkpt><trkpt lat="44.6208958" lon="10.1712173"><ele>412.6</ele><time>2026-04-24T13:43:03.241Z</time></trkpt><trkpt lat="44.6207958" lon="10.1711671"><ele>409.8</ele><time>2026-04-24T13:43:04.242Z</time></trkpt><trkpt lat="44.6207046" lon="10.1711239"><ele>407.0</ele><time>2026-04-24T13:43:05.242Z</time></trkpt><trkpt lat="44.6206226" lon="10.1710865"><ele>407.0</ele><time>2026-04-24T13:43:06.242Z</time></trkpt><trkpt lat="44.6205606" lon="10.1710462"><ele>407.0</ele><time>2026-04-24T13:43:07.242Z</time></trkpt><trkpt lat="44.6204601" lon="10.1709506"><ele>407.0</ele><time>2026-04-24T13:43:09.241Z</time></trkpt><trkpt lat="44.6204288" lon="10.1707948"><ele>407.0</ele><time>2026-04-24T13:43:11.24Z</time></trkpt><trkpt lat="44.6205082" lon="10.1706771"><ele>407.0</ele><time>2026-04-24T13:43:13.241Z</time></trkpt><trkpt lat="44.6206229" lon="10.1706182"><ele>405.42857142857144</ele><time>2026-04-24T13:43:15.24Z</time></trkpt><trkpt lat="44.6206878" lon="10.1705962"><ele>403.8571428571429</ele><time>2026-04-24T13:43:16.241Z</time></trkpt><trkpt lat="44.6207573" lon="10.1705657"><ele>402.28571428571433</ele><time>2026-04-24T13:43:17.24Z</time></trkpt><trkpt lat="44.6208261" lon="10.1705286"><ele>400.7142857142857</ele><time>2026-04-24T13:43:18.242Z</time></trkpt><trkpt lat="44.6209005" lon="10.1704913"><ele>399.1428571428571</ele><time>2026-04-24T13:43:19.241Z</time></trkpt><trkpt lat="44.6209751" lon="10.1704586"><ele>397.5714285714286</ele><time>2026-04-24T13:43:20.241Z</time></trkpt><trkpt lat="44.6210415" lon="10.1704345"><ele>396.0</ele><time>2026-04-24T13:43:21.24Z</time></trkpt><trkpt lat="44.6211606" lon="10.1703983"><ele>395.3333333333333</ele><time>2026-04-24T13:43:23.24Z</time></trkpt><trkpt lat="44.621282" lon="10.1703911"><ele>394.66666666666663</ele><time>2026-04-24T13:43:25.241Z</time></trkpt><trkpt lat="44.6213472" lon="10.1703924"><ele>394.0</ele><time>2026-04-24T13:43:26.241Z</time></trkpt><trkpt lat="44.6214147" lon="10.1704031"><ele>393.3333333333333</ele><time>2026-04-24T13:43:27.241Z</time></trkpt><trkpt lat="44.6214804" lon="10.170399"><ele>392.66666666666663</ele><time>2026-04-24T13:43:28.24Z</time></trkpt><trkpt lat="44.621546" lon="10.1703873"><ele>392.0</ele><time>2026-04-24T13:43:29.242Z</time></trkpt><trkpt lat="44.6216243" lon="10.1702776"><ele>391.99999999999994</ele><time>2026-04-24T13:43:31.241Z</time></trkpt><trkpt lat="44.6216126" lon="10.1701008"><ele>392.0</ele><time>2026-04-24T13:43:33.242Z</time></trkpt><trkpt lat="44.6215675" lon="10.1700183"><ele>392.0</ele><time>2026-04-24T13:43:34.242Z</time></trkpt><trkpt lat="44.6215101" lon="10.1699524"><ele>392.0</ele><time>2026-04-24T13:43:35.241Z</time></trkpt><trkpt lat="44.6214449" lon="10.1698905"><ele>391.99999999999994</ele><time>2026-04-24T13:43:36.241Z</time></trkpt><trkpt lat="44.6213682" lon="10.1698169"><ele>392.0</ele><time>2026-04-24T13:43:37.241Z</time></trkpt><trkpt lat="44.6212971" lon="10.1697442"><ele>390.20000000000005</ele><time>2026-04-24T13:43:38.24Z</time></trkpt><trkpt lat="44.6212365" lon="10.1696834"><ele>388.4</ele><time>2026-04-24T13:43:39.241Z</time></trkpt><trkpt lat="44.6211863" lon="10.1696281"><ele>386.6</ele><time>2026-04-24T13:43:40.24Z</time></trkpt><trkpt lat="44.6210933" lon="10.1695224"><ele>384.79999999999995</ele><time>2026-04-24T13:43:42.241Z</time></trkpt><trkpt lat="44.6210073" lon="10.1694246"><ele>383.0</ele><time>2026-04-24T13:43:44.241Z</time></trkpt><trkpt lat="44.6209154" lon="10.1693263"><ele>383.0</ele><time>2026-04-24T13:43:46.24Z</time></trkpt><trkpt lat="44.6208225" lon="10.1692212"><ele>383.0</ele><time>2026-04-24T13:43:48.24Z</time></trkpt><trkpt lat="44.6207286" lon="10.1691048"><ele>383.0</ele><time>2026-04-24T13:43:50.24Z</time></trkpt><trkpt lat="44.6206763" lon="10.1690323"><ele>383.0</ele><time>2026-04-24T13:43:51.242Z</time></trkpt><trkpt lat="44.6206295" lon="10.1689568"><ele>383.0</ele><time>2026-04-24T13:43:52.242Z</time></trkpt><trkpt lat="44.6205861" lon="10.1688808"><ele>382.42857142857144</ele><time>2026-04-24T13:43:53.24Z</time></trkpt><trkpt lat="44.6205412" lon="10.1688016"><ele>381.85714285714283</ele><time>2026-04-24T13:43:54.24Z</time></trkpt><trkpt lat="44.6204998" lon="10.1687182"><ele>381.28571428571433</ele><time>2026-04-24T13:43:55.241Z</time></trkpt><trkpt lat="44.6204558" lon="10.1686268"><ele>380.7142857142857</ele><time>2026-04-24T13:43:56.24Z</time></trkpt><trkpt lat="44.6204162" lon="10.168537"><ele>380.14285714285717</ele><time>2026-04-24T13:43:57.241Z</time></trkpt><trkpt lat="44.6203727" lon="10.1684527"><ele>379.5714285714286</ele><time>2026-04-24T13:43:58.241Z</time></trkpt><trkpt lat="44.6203409" lon="10.1683739"><ele>379.0</ele><time>2026-04-24T13:43:59.242Z</time></trkpt><trkpt lat="44.6202801" lon="10.1682456"><ele>376.4</ele><time>2026-04-24T13:44:01.241Z</time></trkpt><trkpt lat="44.6201935" lon="10.1681453"><ele>373.79999999999995</ele><time>2026-04-24T13:44:03.241Z</time></trkpt><trkpt lat="44.620131" lon="10.1681176"><ele>371.20000000000005</ele><time>2026-04-24T13:44:04.24Z</time></trkpt><trkpt lat="44.6200627" lon="10.1681193"><ele>368.6</ele><time>2026-04-24T13:44:05.241Z</time></trkpt><trkpt lat="44.6199448" lon="10.1681553"><ele>366.0</ele><time>2026-04-24T13:44:07.241Z</time></trkpt><trkpt lat="44.6198297" lon="10.168171"><ele>366.0</ele><time>2026-04-24T13:44:09.242Z</time></trkpt><trkpt lat="44.6197663" lon="10.1681424"><ele>366.0</ele><time>2026-04-24T13:44:10.242Z</time></trkpt><trkpt lat="44.6197015" lon="10.168098"><ele>366.0</ele><time>2026-04-24T13:44:11.241Z</time></trkpt><trkpt lat="44.6196337" lon="10.1680073"><ele>366.0</ele><time>2026-04-24T13:44:13.24Z</time></trkpt><trkpt lat="44.6195783" lon="10.1678954"><ele>366.0</ele><time>2026-04-24T13:44:16.242Z</time></trkpt><trkpt lat="44.6195752" lon="10.1677773"><ele>366.0</ele><time>2026-04-24T13:44:18.242Z</time></trkpt><trkpt lat="44.6196192" lon="10.1676315"><ele>366.0</ele><time>2026-04-24T13:44:20.241Z</time></trkpt><trkpt lat="44.6196614" lon="10.1675654"><ele>366.0</ele><time>2026-04-24T13:44:21.242Z</time></trkpt><trkpt lat="44.6197" lon="10.1674908"><ele>366.0</ele><time>2026-04-24T13:44:22.241Z</time></trkpt><trkpt lat="44.6197442" lon="10.1674123"><ele>366.0</ele><time>2026-04-24T13:44:23.241Z</time></trkpt><trkpt lat="44.6197891" lon="10.1673299"><ele>366.0</ele><time>2026-04-24T13:44:24.241Z</time></trkpt><trkpt lat="44.6198322" lon="10.1672543"><ele>366.0</ele><time>2026-04-24T13:44:25.241Z</time></trkpt><trkpt lat="44.6198738" lon="10.1671859"><ele>366.0</ele><time>2026-04-24T13:44:26.24Z</time></trkpt><trkpt lat="44.6199443" lon="10.1670523"><ele>364.8</ele><time>2026-04-24T13:44:28.241Z</time></trkpt><trkpt lat="44.6200048" lon="10.1668992"><ele>363.6</ele><time>2026-04-24T13:44:30.241Z</time></trkpt><trkpt lat="44.6200316" lon="10.1667919"><ele>362.4</ele><time>2026-04-24T13:44:31.241Z</time></trkpt><trkpt lat="44.6200534" lon="10.166664"><ele>361.2</ele><time>2026-04-24T13:44:32.241Z</time></trkpt><trkpt lat="44.6200743" lon="10.1665406"><ele>360.0</ele><time>2026-04-24T13:44:33.24Z</time></trkpt><trkpt lat="44.6200918" lon="10.1664273"><ele>359.0</ele><time>2026-04-24T13:44:34.24Z</time></trkpt><trkpt lat="44.6201125" lon="10.1663324"><ele>358.0</ele><time>2026-04-24T13:44:35.241Z</time></trkpt><trkpt lat="44.6201351" lon="10.1661863"><ele>357.0</ele><time>2026-04-24T13:44:37.242Z</time></trkpt><trkpt lat="44.6201402" lon="10.1660952"><ele>356.0</ele><time>2026-04-24T13:44:40.24Z</time></trkpt><trkpt lat="44.6201109" lon="10.1659728"><ele>355.0</ele><time>2026-04-24T13:44:52.24Z</time></trkpt><trkpt lat="44.6199888" lon="10.1658672"><ele>355.0</ele><time>2026-04-24T13:44:54.242Z</time></trkpt><trkpt lat="44.6199065" lon="10.1658104"><ele>355.0</ele><time>2026-04-24T13:44:55.24Z</time></trkpt><trkpt lat="44.619822" lon="10.1657493"><ele>355.0</ele><time>2026-04-24T13:44:56.241Z</time></trkpt><trkpt lat="44.6197346" lon="10.1656804"><ele>355.0</ele><time>2026-04-24T13:44:57.241Z</time></trkpt><trkpt lat="44.6196613" lon="10.1656292"><ele>355.0</ele><time>2026-04-24T13:44:58.241Z</time></trkpt><trkpt lat="44.6195996" lon="10.165584"><ele>355.0</ele><time>2026-04-24T13:44:59.241Z</time></trkpt><trkpt lat="44.6195378" lon="10.1655407"><ele>355.6</ele><time>2026-04-24T13:45:00.242Z</time></trkpt><trkpt lat="44.6194818" lon="10.1654963"><ele>356.2</ele><time>2026-04-24T13:45:01.242Z</time></trkpt><trkpt lat="44.6193823" lon="10.1654069"><ele>356.79999999999995</ele><time>2026-04-24T13:45:03.241Z</time></trkpt><trkpt lat="44.6192784" lon="10.1653393"><ele>357.4</ele><time>2026-04-24T13:45:05.24Z</time></trkpt><trkpt lat="44.6191715" lon="10.165266"><ele>358.0</ele><time>2026-04-24T13:45:07.242Z</time></trkpt><trkpt lat="44.6191095" lon="10.1652189"><ele>358.0</ele><time>2026-04-24T13:45:08.24Z</time></trkpt><trkpt lat="44.6190422" lon="10.1651445"><ele>358.0</ele><time>2026-04-24T13:45:09.24Z</time></trkpt><trkpt lat="44.6189668" lon="10.1650322"><ele>358.0</ele><time>2026-04-24T13:45:10.242Z</time></trkpt><trkpt lat="44.6189048" lon="10.1648826"><ele>358.0</ele><time>2026-04-24T13:45:11.24Z</time></trkpt><trkpt lat="44.6188571" lon="10.1646938"><ele>356.0</ele><time>2026-04-24T13:45:12.24Z</time></trkpt><trkpt lat="44.6188388" lon="10.1644694"><ele>354.0</ele><time>2026-04-24T13:45:13.242Z</time></trkpt><trkpt lat="44.6188432" lon="10.1642242"><ele>352.0</ele><time>2026-04-24T13:45:14.241Z</time></trkpt><trkpt lat="44.6188529" lon="10.1639529"><ele>351.66666666666663</ele><time>2026-04-24T13:45:15.24Z</time></trkpt><trkpt lat="44.6188709" lon="10.1636824"><ele>351.3333333333333</ele><time>2026-04-24T13:45:16.241Z</time></trkpt><trkpt lat="44.6188947" lon="10.1634197"><ele>351.0</ele><time>2026-04-24T13:45:17.242Z</time></trkpt><trkpt lat="44.6189309" lon="10.163178"><ele>351.0</ele><time>2026-04-24T13:45:18.241Z</time></trkpt><trkpt lat="44.6189747" lon="10.1629651"><ele>351.0</ele><time>2026-04-24T13:45:19.241Z</time></trkpt><trkpt lat="44.6190077" lon="10.1627702"><ele>351.0</ele><time>2026-04-24T13:45:20.242Z</time></trkpt><trkpt lat="44.6190099" lon="10.1625782"><ele>351.0</ele><time>2026-04-24T13:45:21.24Z</time></trkpt><trkpt lat="44.6189817" lon="10.1623676"><ele>349.3333333333333</ele><time>2026-04-24T13:45:22.24Z</time></trkpt><trkpt lat="44.6189581" lon="10.1621586"><ele>347.66666666666663</ele><time>2026-04-24T13:45:23.241Z</time></trkpt><trkpt lat="44.6188729" lon="10.1618822"><ele>346.0</ele><time>2026-04-24T13:45:24.241Z</time></trkpt><trkpt lat="44.6188241" lon="10.1616155"><ele>343.66666666666663</ele><time>2026-04-24T13:45:25.241Z</time></trkpt><trkpt lat="44.6187785" lon="10.1613575"><ele>341.3333333333333</ele><time>2026-04-24T13:45:26.24Z</time></trkpt><trkpt lat="44.6187366" lon="10.1611205"><ele>339.0</ele><time>2026-04-24T13:45:27.241Z</time></trkpt><trkpt lat="44.6186884" lon="10.1609065"><ele>342.25</ele><time>2026-04-24T13:45:28.241Z</time></trkpt><trkpt lat="44.618631" lon="10.1607244"><ele>345.5</ele><time>2026-04-24T13:45:29.24Z</time></trkpt><trkpt lat="44.6185491" lon="10.1605723"><ele>348.75</ele><time>2026-04-24T13:45:30.24Z</time></trkpt><trkpt lat="44.6184637" lon="10.1604293"><ele>352.0</ele><time>2026-04-24T13:45:31.24Z</time></trkpt><trkpt lat="44.6183157" lon="10.1603346"><ele>352.0</ele><time>2026-04-24T13:45:32.242Z</time></trkpt><trkpt lat="44.6181702" lon="10.1602906"><ele>352.0</ele><time>2026-04-24T13:45:33.241Z</time></trkpt><trkpt lat="44.6180584" lon="10.1601916"><ele>352.0</ele><time>2026-04-24T13:45:34.24Z</time></trkpt><trkpt lat="44.6179711" lon="10.1600592"><ele>352.0</ele><time>2026-04-24T13:45:35.24Z</time></trkpt><trkpt lat="44.6179165" lon="10.159896"><ele>351.0</ele><time>2026-04-24T13:45:36.241Z</time></trkpt><trkpt lat="44.6179019" lon="10.1597088"><ele>350.0</ele><time>2026-04-24T13:45:37.241Z</time></trkpt><trkpt lat="44.617921" lon="10.1595077"><ele>349.0</ele><time>2026-04-24T13:45:38.241Z</time></trkpt><trkpt lat="44.6179536" lon="10.1592927"><ele>348.0</ele><time>2026-04-24T13:45:39.24Z</time></trkpt><trkpt lat="44.6180052" lon="10.1590673"><ele>349.3333333333333</ele><time>2026-04-24T13:45:40.241Z</time></trkpt><trkpt lat="44.6180474" lon="10.1588462"><ele>350.66666666666663</ele><time>2026-04-24T13:45:41.24Z</time></trkpt><trkpt lat="44.6180768" lon="10.1586366"><ele>352.0</ele><time>2026-04-24T13:45:42.24Z</time></trkpt><trkpt lat="44.6180845" lon="10.1584298"><ele>352.0</ele><time>2026-04-24T13:45:43.241Z</time></trkpt><trkpt lat="44.6180724" lon="10.1582146"><ele>352.0</ele><time>2026-04-24T13:45:44.241Z</time></trkpt><trkpt lat="44.6180339" lon="10.157998"><ele>352.0</ele><time>2026-04-24T13:45:45.24Z</time></trkpt><trkpt lat="44.6179816" lon="10.1577996"><ele>352.0</ele><time>2026-04-24T13:45:46.241Z</time></trkpt><trkpt lat="44.6179019" lon="10.1576153"><ele>352.0</ele><time>2026-04-24T13:45:47.242Z</time></trkpt><trkpt lat="44.6177982" lon="10.1574488"><ele>352.0</ele><time>2026-04-24T13:45:48.241Z</time></trkpt><trkpt lat="44.6176833" lon="10.1572857"><ele>352.0</ele><time>2026-04-24T13:45:49.241Z</time></trkpt><trkpt lat="44.6175587" lon="10.1571197"><ele>352.0</ele><time>2026-04-24T13:45:50.24Z</time></trkpt><trkpt lat="44.6174278" lon="10.1569388"><ele>352.0</ele><time>2026-04-24T13:45:51.24Z</time></trkpt><trkpt lat="44.6173044" lon="10.1567661"><ele>352.0</ele><time>2026-04-24T13:45:52.241Z</time></trkpt><trkpt lat="44.6171892" lon="10.1566139"><ele>352.0</ele><time>2026-04-24T13:45:53.24Z</time></trkpt><trkpt lat="44.6170673" lon="10.1564865"><ele>352.0</ele><time>2026-04-24T13:45:54.241Z</time></trkpt><trkpt lat="44.6169363" lon="10.1563712"><ele>354.0</ele><time>2026-04-24T13:45:55.24Z</time></trkpt><trkpt lat="44.6167945" lon="10.1562775"><ele>356.0</ele><time>2026-04-24T13:45:56.24Z</time></trkpt><trkpt lat="44.6166543" lon="10.1561744"><ele>358.0</ele><time>2026-04-24T13:45:57.241Z</time></trkpt><trkpt lat="44.6165106" lon="10.1560531"><ele>358.0</ele><time>2026-04-24T13:45:58.24Z</time></trkpt><trkpt lat="44.6163693" lon="10.1559067"><ele>358.0</ele><time>2026-04-24T13:45:59.241Z</time></trkpt><trkpt lat="44.6162264" lon="10.1557459"><ele>358.0</ele><time>2026-04-24T13:46:00.24Z</time></trkpt><trkpt lat="44.6160976" lon="10.1555942"><ele>358.3333333333333</ele><time>2026-04-24T13:46:01.241Z</time></trkpt><trkpt lat="44.6159857" lon="10.1554222"><ele>358.6666666666667</ele><time>2026-04-24T13:46:02.241Z</time></trkpt><trkpt lat="44.615896" lon="10.1552315"><ele>359.0</ele><time>2026-04-24T13:46:03.242Z</time></trkpt><trkpt lat="44.6158151" lon="10.1550283"><ele>361.33333333333337</ele><time>2026-04-24T13:46:04.242Z</time></trkpt><trkpt lat="44.6157612" lon="10.1548075"><ele>363.6666666666667</ele><time>2026-04-24T13:46:05.241Z</time></trkpt><trkpt lat="44.6157396" lon="10.1545699"><ele>366.0</ele><time>2026-04-24T13:46:06.242Z</time></trkpt><trkpt lat="44.6157259" lon="10.1543271"><ele>366.0</ele><time>2026-04-24T13:46:07.242Z</time></trkpt><trkpt lat="44.6157146" lon="10.1540756"><ele>366.0</ele><time>2026-04-24T13:46:08.242Z</time></trkpt><trkpt lat="44.6156963" lon="10.1538232"><ele>366.0</ele><time>2026-04-24T13:46:09.24Z</time></trkpt><trkpt lat="44.6156826" lon="10.1535527"><ele>365.3333333333333</ele><time>2026-04-24T13:46:10.24Z</time></trkpt><trkpt lat="44.6156707" lon="10.1532792"><ele>364.66666666666663</ele><time>2026-04-24T13:46:11.239Z</time></trkpt><trkpt lat="44.6156611" lon="10.1530058"><ele>364.0</ele><time>2026-04-24T13:46:12.239Z</time></trkpt><trkpt lat="44.6156608" lon="10.1527348"><ele>364.0</ele><time>2026-04-24T13:46:13.24Z</time></trkpt><trkpt lat="44.615688" lon="10.152493"><ele>364.0</ele><time>2026-04-24T13:46:14.24Z</time></trkpt><trkpt lat="44.615718" lon="10.1522709"><ele>364.0</ele><time>2026-04-24T13:46:15.241Z</time></trkpt><trkpt lat="44.6157391" lon="10.1520591"><ele>364.0</ele><time>2026-04-24T13:46:16.24Z</time></trkpt><trkpt lat="44.615751" lon="10.1518329"><ele>364.0</ele><time>2026-04-24T13:46:17.24Z</time></trkpt><trkpt lat="44.6157431" lon="10.1516052"><ele>364.0</ele><time>2026-04-24T13:46:18.24Z</time></trkpt><trkpt lat="44.6157071" lon="10.1513794"><ele>363.0</ele><time>2026-04-24T13:46:19.24Z</time></trkpt><trkpt lat="44.6156498" lon="10.1511567"><ele>362.0</ele><time>2026-04-24T13:46:20.24Z</time></trkpt><trkpt lat="44.6155817" lon="10.1509362"><ele>361.0</ele><time>2026-04-24T13:46:21.241Z</time></trkpt><trkpt lat="44.6155288" lon="10.15071"><ele>362.3333333333333</ele><time>2026-04-24T13:46:22.241Z</time></trkpt><trkpt lat="44.6155063" lon="10.1504761"><ele>363.6666666666667</ele><time>2026-04-24T13:46:23.24Z</time></trkpt><trkpt lat="44.6155047" lon="10.1502387"><ele>365.0</ele><time>2026-04-24T13:46:24.241Z</time></trkpt><trkpt lat="44.6155155" lon="10.1499939"><ele>367.33333333333337</ele><time>2026-04-24T13:46:25.24Z</time></trkpt><trkpt lat="44.6155317" lon="10.1497573"><ele>369.6666666666667</ele><time>2026-04-24T13:46:26.24Z</time></trkpt><trkpt lat="44.6155485" lon="10.1495384"><ele>372.0</ele><time>2026-04-24T13:46:27.241Z</time></trkpt><trkpt lat="44.6155777" lon="10.1493217"><ele>372.0</ele><time>2026-04-24T13:46:28.24Z</time></trkpt><trkpt lat="44.6156287" lon="10.149106"><ele>372.0</ele><time>2026-04-24T13:46:29.241Z</time></trkpt><trkpt lat="44.6157036" lon="10.148905"><ele>372.0</ele><time>2026-04-24T13:46:30.241Z</time></trkpt><trkpt lat="44.615793" lon="10.1487175"><ele>376.0</ele><time>2026-04-24T13:46:31.241Z</time></trkpt><trkpt lat="44.6158814" lon="10.1485304"><ele>380.0</ele><time>2026-04-24T13:46:32.24Z</time></trkpt><trkpt lat="44.6159629" lon="10.1483351"><ele>384.0</ele><time>2026-04-24T13:46:33.239Z</time></trkpt><trkpt lat="44.6160345" lon="10.148145"><ele>386.33333333333337</ele><time>2026-04-24T13:46:34.24Z</time></trkpt><trkpt lat="44.6160643" lon="10.1479429"><ele>388.6666666666667</ele><time>2026-04-24T13:46:35.24Z</time></trkpt><trkpt lat="44.616072" lon="10.1477239"><ele>391.0</ele><time>2026-04-24T13:46:36.24Z</time></trkpt><trkpt lat="44.6160562" lon="10.1475079"><ele>392.0</ele><time>2026-04-24T13:46:37.241Z</time></trkpt><trkpt lat="44.6160346" lon="10.1472748"><ele>393.0</ele><time>2026-04-24T13:46:38.241Z</time></trkpt><trkpt lat="44.6160226" lon="10.1470325"><ele>394.0</ele><time>2026-04-24T13:46:39.239Z</time></trkpt><trkpt lat="44.6160267" lon="10.1467885"><ele>396.0</ele><time>2026-04-24T13:46:40.239Z</time></trkpt><trkpt lat="44.6160377" lon="10.1465422"><ele>398.0</ele><time>2026-04-24T13:46:41.24Z</time></trkpt><trkpt lat="44.616048" lon="10.1462981"><ele>400.0</ele><time>2026-04-24T13:46:42.24Z</time></trkpt><trkpt lat="44.616064" lon="10.1460555"><ele>400.0</ele><time>2026-04-24T13:46:43.24Z</time></trkpt><trkpt lat="44.6160888" lon="10.1458022"><ele>400.0</ele><time>2026-04-24T13:46:44.241Z</time></trkpt><trkpt lat="44.6161232" lon="10.1455498"><ele>400.0</ele><time>2026-04-24T13:46:45.239Z</time></trkpt><trkpt lat="44.6161587" lon="10.1453048"><ele>387.6666666666667</ele><time>2026-04-24T13:46:46.24Z</time></trkpt><trkpt lat="44.6161873" lon="10.1450644"><ele>375.33333333333337</ele><time>2026-04-24T13:46:47.241Z</time></trkpt><trkpt lat="44.6162185" lon="10.1448353"><ele>363.0</ele><time>2026-04-24T13:46:48.24Z</time></trkpt><trkpt lat="44.6162322" lon="10.1446266"><ele>363.0</ele><time>2026-04-24T13:46:49.24Z</time></trkpt><trkpt lat="44.6162471" lon="10.1444222"><ele>363.0</ele><time>2026-04-24T13:46:50.239Z</time></trkpt><trkpt lat="44.6162547" lon="10.1442198"><ele>363.0</ele><time>2026-04-24T13:46:51.24Z</time></trkpt><trkpt lat="44.6162476" lon="10.1440157"><ele>363.0</ele><time>2026-04-24T13:46:52.239Z</time></trkpt><trkpt lat="44.6162181" lon="10.1438235"><ele>361.6666666666667</ele><time>2026-04-24T13:46:53.24Z</time></trkpt><trkpt lat="44.6161833" lon="10.1436416"><ele>360.33333333333337</ele><time>2026-04-24T13:46:54.241Z</time></trkpt><trkpt lat="44.6160666" lon="10.1434642"><ele>359.0</ele><time>2026-04-24T13:46:55.24Z</time></trkpt><trkpt lat="44.6159679" lon="10.1432982"><ele>364.5</ele><time>2026-04-24T13:46:56.24Z</time></trkpt><trkpt lat="44.6158692" lon="10.1431352"><ele>370.0</ele><time>2026-04-24T13:46:57.24Z</time></trkpt><trkpt lat="44.6157923" lon="10.1429652"><ele>375.5</ele><time>2026-04-24T13:46:58.241Z</time></trkpt><trkpt lat="44.6157472" lon="10.1427806"><ele>381.0</ele><time>2026-04-24T13:46:59.24Z</time></trkpt><trkpt lat="44.615726" lon="10.1425752"><ele>381.6666666666667</ele><time>2026-04-24T13:47:00.24Z</time></trkpt><trkpt lat="44.6157196" lon="10.1423657"><ele>382.33333333333337</ele><time>2026-04-24T13:47:01.24Z</time></trkpt><trkpt lat="44.6157218" lon="10.1421438"><ele>383.0</ele><time>2026-04-24T13:47:02.241Z</time></trkpt><trkpt lat="44.6157291" lon="10.1419143"><ele>383.0</ele><time>2026-04-24T13:47:03.241Z</time></trkpt><trkpt lat="44.615729" lon="10.1416952"><ele>383.0</ele><time>2026-04-24T13:47:04.241Z</time></trkpt><trkpt lat="44.6157077" lon="10.1414712"><ele>383.0</ele><time>2026-04-24T13:47:05.239Z</time></trkpt><trkpt lat="44.6156521" lon="10.1412489"><ele>379.33333333333337</ele><time>2026-04-24T13:47:06.24Z</time></trkpt><trkpt lat="44.6155839" lon="10.1410276"><ele>375.6666666666667</ele><time>2026-04-24T13:47:07.24Z</time></trkpt><trkpt lat="44.6155144" lon="10.1408073"><ele>372.0</ele><time>2026-04-24T13:47:08.24Z</time></trkpt><trkpt lat="44.6154446" lon="10.1405873"><ele>369.6666666666667</ele><time>2026-04-24T13:47:09.24Z</time></trkpt><trkpt lat="44.6153756" lon="10.1403591"><ele>367.33333333333337</ele><time>2026-04-24T13:47:10.24Z</time></trkpt><trkpt lat="44.6153007" lon="10.1401308"><ele>365.0</ele><time>2026-04-24T13:47:11.239Z</time></trkpt><trkpt lat="44.6152272" lon="10.139903"><ele>371.6666666666667</ele><time>2026-04-24T13:47:12.241Z</time></trkpt><trkpt lat="44.6151446" lon="10.1396802"><ele>378.33333333333337</ele><time>2026-04-24T13:47:13.24Z</time></trkpt><trkpt lat="44.615049" lon="10.1394662"><ele>385.0</ele><time>2026-04-24T13:47:14.24Z</time></trkpt><trkpt lat="44.614953" lon="10.139257"><ele>380.0</ele><time>2026-04-24T13:47:15.24Z</time></trkpt><trkpt lat="44.6148541" lon="10.1390442"><ele>375.0</ele><time>2026-04-24T13:47:16.24Z</time></trkpt><trkpt lat="44.6147577" lon="10.1388361"><ele>370.0</ele><time>2026-04-24T13:47:17.241Z</time></trkpt><trkpt lat="44.6146637" lon="10.1386337"><ele>370.0</ele><time>2026-04-24T13:47:18.24Z</time></trkpt><trkpt lat="44.6145735" lon="10.1384245"><ele>370.0</ele><time>2026-04-24T13:47:19.24Z</time></trkpt><trkpt lat="44.6144831" lon="10.1382129"><ele>370.0</ele><time>2026-04-24T13:47:20.24Z</time></trkpt><trkpt lat="44.6143977" lon="10.1380017"><ele>370.66666666666663</ele><time>2026-04-24T13:47:21.24Z</time></trkpt><trkpt lat="44.6143196" lon="10.1377862"><ele>371.3333333333333</ele><time>2026-04-24T13:47:22.24Z</time></trkpt><trkpt lat="44.6142402" lon="10.137576"><ele>372.0</ele><time>2026-04-24T13:47:23.241Z</time></trkpt><trkpt lat="44.6141495" lon="10.1373699"><ele>372.0</ele><time>2026-04-24T13:47:24.24Z</time></trkpt><trkpt lat="44.6140571" lon="10.1371784"><ele>372.0</ele><time>2026-04-24T13:47:25.24Z</time></trkpt><trkpt lat="44.6139531" lon="10.1369854"><ele>372.0</ele><time>2026-04-24T13:47:26.241Z</time></trkpt><trkpt lat="44.6138481" lon="10.136794"><ele>372.0</ele><time>2026-04-24T13:47:27.24Z</time></trkpt><trkpt lat="44.6137369" lon="10.1366004"><ele>372.0</ele><time>2026-04-24T13:47:28.241Z</time></trkpt><trkpt lat="44.6136256" lon="10.1364013"><ele>372.0</ele><time>2026-04-24T13:47:29.24Z</time></trkpt><trkpt lat="44.6135151" lon="10.1361979"><ele>372.6666666666667</ele><time>2026-04-24T13:47:30.241Z</time></trkpt><trkpt lat="44.613408" lon="10.1359863"><ele>373.33333333333337</ele><time>2026-04-24T13:47:31.24Z</time></trkpt><trkpt lat="44.6133178" lon="10.1357687"><ele>374.0</ele><time>2026-04-24T13:47:32.239Z</time></trkpt><trkpt lat="44.6132384" lon="10.1355618"><ele>374.0</ele><time>2026-04-24T13:47:33.24Z</time></trkpt><trkpt lat="44.6131536" lon="10.1353823"><ele>374.0</ele><time>2026-04-24T13:47:34.239Z</time></trkpt><trkpt lat="44.6130625" lon="10.1352159"><ele>374.0</ele><time>2026-04-24T13:47:35.239Z</time></trkpt><trkpt lat="44.6128983" lon="10.1351032"><ele>375.0</ele><time>2026-04-24T13:47:36.239Z</time></trkpt><trkpt lat="44.6127469" lon="10.134977"><ele>376.0</ele><time>2026-04-24T13:47:37.24Z</time></trkpt><trkpt lat="44.6125856" lon="10.1348586"><ele>377.0</ele><time>2026-04-24T13:47:38.241Z</time></trkpt><trkpt lat="44.6124238" lon="10.1347417"><ele>377.0</ele><time>2026-04-24T13:47:39.24Z</time></trkpt><trkpt lat="44.6122732" lon="10.1346314"><ele>377.0</ele><time>2026-04-24T13:47:40.24Z</time></trkpt><trkpt lat="44.6121363" lon="10.1345362"><ele>377.0</ele><time>2026-04-24T13:47:41.24Z</time></trkpt><trkpt lat="44.6120074" lon="10.1344413"><ele>378.5</ele><time>2026-04-24T13:47:42.239Z</time></trkpt><trkpt lat="44.6118925" lon="10.1343509"><ele>380.0</ele><time>2026-04-24T13:47:43.239Z</time></trkpt><trkpt lat="44.6117997" lon="10.1342536"><ele>381.5</ele><time>2026-04-24T13:47:44.24Z</time></trkpt><trkpt lat="44.6117135" lon="10.1341233"><ele>383.0</ele><time>2026-04-24T13:47:45.24Z</time></trkpt><trkpt lat="44.6116298" lon="10.1339815"><ele>383.0</ele><time>2026-04-24T13:47:46.24Z</time></trkpt><trkpt lat="44.6115419" lon="10.13383"><ele>383.0</ele><time>2026-04-24T13:47:47.239Z</time></trkpt><trkpt lat="44.6114572" lon="10.1336822"><ele>383.0</ele><time>2026-04-24T13:47:48.241Z</time></trkpt><trkpt lat="44.6113749" lon="10.1335111"><ele>383.0</ele><time>2026-04-24T13:47:49.24Z</time></trkpt><trkpt lat="44.6112878" lon="10.1333337"><ele>380.0</ele><time>2026-04-24T13:47:50.239Z</time></trkpt><trkpt lat="44.6111995" lon="10.1331549"><ele>377.0</ele><time>2026-04-24T13:47:51.241Z</time></trkpt><trkpt lat="44.611115" lon="10.1329734"><ele>374.0</ele><time>2026-04-24T13:47:52.241Z</time></trkpt><trkpt lat="44.611031" lon="10.1327971"><ele>379.5</ele><time>2026-04-24T13:47:53.241Z</time></trkpt><trkpt lat="44.6109542" lon="10.1326309"><ele>385.0</ele><time>2026-04-24T13:47:54.239Z</time></trkpt><trkpt lat="44.6108823" lon="10.1324775"><ele>390.5</ele><time>2026-04-24T13:47:55.241Z</time></trkpt><trkpt lat="44.6108223" lon="10.1323212"><ele>396.0</ele><time>2026-04-24T13:47:56.241Z</time></trkpt><trkpt lat="44.6107816" lon="10.1321452"><ele>396.0</ele><time>2026-04-24T13:47:57.239Z</time></trkpt><trkpt lat="44.6107685" lon="10.1319503"><ele>396.0</ele><time>2026-04-24T13:47:58.239Z</time></trkpt><trkpt lat="44.6107717" lon="10.13175"><ele>396.0</ele><time>2026-04-24T13:47:59.239Z</time></trkpt><trkpt lat="44.6107672" lon="10.1315512"><ele>396.0</ele><time>2026-04-24T13:48:00.24Z</time></trkpt><trkpt lat="44.6107275" lon="10.131359"><ele>392.5</ele><time>2026-04-24T13:48:01.241Z</time></trkpt><trkpt lat="44.6106819" lon="10.1311804"><ele>389.0</ele><time>2026-04-24T13:48:02.239Z</time></trkpt><trkpt lat="44.610583" lon="10.1309958"><ele>385.5</ele><time>2026-04-24T13:48:03.239Z</time></trkpt><trkpt lat="44.6105007" lon="10.130825"><ele>382.0</ele><time>2026-04-24T13:48:04.239Z</time></trkpt><trkpt lat="44.6104029" lon="10.1306583"><ele>388.66666666666663</ele><time>2026-04-24T13:48:05.24Z</time></trkpt><trkpt lat="44.6102962" lon="10.1304972"><ele>395.3333333333333</ele><time>2026-04-24T13:48:06.24Z</time></trkpt><trkpt lat="44.6101873" lon="10.1303304"><ele>402.0</ele><time>2026-04-24T13:48:07.239Z</time></trkpt><trkpt lat="44.6100816" lon="10.1301619"><ele>402.0</ele><time>2026-04-24T13:48:08.24Z</time></trkpt><trkpt lat="44.6099785" lon="10.1299986"><ele>402.0</ele><time>2026-04-24T13:48:09.24Z</time></trkpt><trkpt lat="44.6098796" lon="10.1298409"><ele>402.0</ele><time>2026-04-24T13:48:10.24Z</time></trkpt><trkpt lat="44.6097893" lon="10.1296937"><ele>402.0</ele><time>2026-04-24T13:48:11.239Z</time></trkpt><trkpt lat="44.6096989" lon="10.129558"><ele>400.0</ele><time>2026-04-24T13:48:12.239Z</time></trkpt><trkpt lat="44.6096053" lon="10.1294219"><ele>398.0</ele><time>2026-04-24T13:48:13.24Z</time></trkpt><trkpt lat="44.6094963" lon="10.1293053"><ele>396.0</ele><time>2026-04-24T13:48:14.239Z</time></trkpt><trkpt lat="44.6093735" lon="10.129228"><ele>394.0</ele><time>2026-04-24T13:48:15.241Z</time></trkpt><trkpt lat="44.6092272" lon="10.1291963"><ele>394.0</ele><time>2026-04-24T13:48:16.24Z</time></trkpt><trkpt lat="44.6090696" lon="10.1292177"><ele>394.0</ele><time>2026-04-24T13:48:17.239Z</time></trkpt><trkpt lat="44.6089128" lon="10.1292546"><ele>394.0</ele><time>2026-04-24T13:48:18.239Z</time></trkpt><trkpt lat="44.6087569" lon="10.1292851"><ele>393.33333333333337</ele><time>2026-04-24T13:48:19.24Z</time></trkpt><trkpt lat="44.6085956" lon="10.1292954"><ele>392.66666666666663</ele><time>2026-04-24T13:48:20.239Z</time></trkpt><trkpt lat="44.608433" lon="10.1292831"><ele>392.0</ele><time>2026-04-24T13:48:21.239Z</time></trkpt><trkpt lat="44.608277" lon="10.1292605"><ele>392.0</ele><time>2026-04-24T13:48:22.239Z</time></trkpt><trkpt lat="44.6081314" lon="10.1292117"><ele>392.0</ele><time>2026-04-24T13:48:23.239Z</time></trkpt><trkpt lat="44.6080027" lon="10.1291292"><ele>392.0</ele><time>2026-04-24T13:48:24.24Z</time></trkpt><trkpt lat="44.6078979" lon="10.1290081"><ele>392.0</ele><time>2026-04-24T13:48:25.24Z</time></trkpt><trkpt lat="44.6078061" lon="10.1288627"><ele>390.75</ele><time>2026-04-24T13:48:26.24Z</time></trkpt><trkpt lat="44.607713" lon="10.1287064"><ele>389.5</ele><time>2026-04-24T13:48:27.241Z</time></trkpt><trkpt lat="44.6076084" lon="10.1285607"><ele>388.25</ele><time>2026-04-24T13:48:28.241Z</time></trkpt><trkpt lat="44.6074807" lon="10.1284418"><ele>387.0</ele><time>2026-04-24T13:48:29.24Z</time></trkpt><trkpt lat="44.6073445" lon="10.1283525"><ele>387.0</ele><time>2026-04-24T13:48:30.24Z</time></trkpt><trkpt lat="44.6072053" lon="10.1282762"><ele>387.0</ele><time>2026-04-24T13:48:31.24Z</time></trkpt><trkpt lat="44.6070734" lon="10.1282027"><ele>387.0</ele><time>2026-04-24T13:48:32.239Z</time></trkpt><trkpt lat="44.6069588" lon="10.1281087"><ele>387.0</ele><time>2026-04-24T13:48:33.241Z</time></trkpt><trkpt lat="44.6068665" lon="10.127978"><ele>387.0</ele><time>2026-04-24T13:48:34.241Z</time></trkpt><trkpt lat="44.6067872" lon="10.1278095"><ele>387.0</ele><time>2026-04-24T13:48:35.239Z</time></trkpt><trkpt lat="44.6067152" lon="10.1276281"><ele>387.0</ele><time>2026-04-24T13:48:36.239Z</time></trkpt><trkpt lat="44.6066536" lon="10.1274364"><ele>387.0</ele><time>2026-04-24T13:48:37.239Z</time></trkpt><trkpt lat="44.6065934" lon="10.1272383"><ele>387.0</ele><time>2026-04-24T13:48:38.24Z</time></trkpt><trkpt lat="44.6065248" lon="10.1270464"><ele>387.0</ele><time>2026-04-24T13:48:39.24Z</time></trkpt><trkpt lat="44.6064416" lon="10.126878"><ele>387.0</ele><time>2026-04-24T13:48:40.24Z</time></trkpt><trkpt lat="44.6063405" lon="10.1267241"><ele>387.0</ele><time>2026-04-24T13:48:41.239Z</time></trkpt><trkpt lat="44.6062326" lon="10.1265846"><ele>386.75</ele><time>2026-04-24T13:48:42.24Z</time></trkpt><trkpt lat="44.6061199" lon="10.126459"><ele>386.5</ele><time>2026-04-24T13:48:43.24Z</time></trkpt><trkpt lat="44.6060053" lon="10.126346"><ele>386.25</ele><time>2026-04-24T13:48:44.24Z</time></trkpt><trkpt lat="44.605883" lon="10.1262338"><ele>386.0</ele><time>2026-04-24T13:48:45.24Z</time></trkpt><trkpt lat="44.6057676" lon="10.1261281"><ele>386.0</ele><time>2026-04-24T13:48:46.241Z</time></trkpt><trkpt lat="44.6056453" lon="10.1260222"><ele>386.0</ele><time>2026-04-24T13:48:47.241Z</time></trkpt><trkpt lat="44.6055221" lon="10.125912"><ele>386.0</ele><time>2026-04-24T13:48:48.24Z</time></trkpt><trkpt lat="44.6053944" lon="10.1258049"><ele>386.0</ele><time>2026-04-24T13:48:49.24Z</time></trkpt><trkpt lat="44.6052644" lon="10.1256939"><ele>386.66666666666663</ele><time>2026-04-24T13:48:50.24Z</time></trkpt><trkpt lat="44.6051327" lon="10.1255807"><ele>387.33333333333337</ele><time>2026-04-24T13:48:51.239Z</time></trkpt><trkpt lat="44.6050011" lon="10.1254683"><ele>388.0</ele><time>2026-04-24T13:48:52.241Z</time></trkpt><trkpt lat="44.6048728" lon="10.12536"><ele>388.0</ele><time>2026-04-24T13:48:53.24Z</time></trkpt><trkpt lat="44.6047471" lon="10.1252391"><ele>388.0</ele><time>2026-04-24T13:48:54.24Z</time></trkpt><trkpt lat="44.6046255" lon="10.1251259"><ele>388.0</ele><time>2026-04-24T13:48:55.24Z</time></trkpt><trkpt lat="44.604505" lon="10.1250173"><ele>388.0</ele><time>2026-04-24T13:48:56.24Z</time></trkpt><trkpt lat="44.604388" lon="10.124914"><ele>389.25</ele><time>2026-04-24T13:48:57.24Z</time></trkpt><trkpt lat="44.6042796" lon="10.1248197"><ele>390.5</ele><time>2026-04-24T13:48:58.24Z</time></trkpt><trkpt lat="44.6041716" lon="10.1247275"><ele>391.75</ele><time>2026-04-24T13:48:59.241Z</time></trkpt><trkpt lat="44.6040651" lon="10.1246356"><ele>393.0</ele><time>2026-04-24T13:49:00.241Z</time></trkpt><trkpt lat="44.6039566" lon="10.1245374"><ele>393.0</ele><time>2026-04-24T13:49:01.239Z</time></trkpt><trkpt lat="44.603846" lon="10.124439"><ele>393.0</ele><time>2026-04-24T13:49:02.24Z</time></trkpt><trkpt lat="44.6037337" lon="10.1243342"><ele>393.0</ele><time>2026-04-24T13:49:03.24Z</time></trkpt><trkpt lat="44.6036139" lon="10.1242275"><ele>393.0</ele><time>2026-04-24T13:49:04.239Z</time></trkpt><trkpt lat="44.6034989" lon="10.1241232"><ele>393.5</ele><time>2026-04-24T13:49:05.239Z</time></trkpt><trkpt lat="44.6033933" lon="10.1240216"><ele>394.0</ele><time>2026-04-24T13:49:06.239Z</time></trkpt><trkpt lat="44.6032918" lon="10.1239279"><ele>394.5</ele><time>2026-04-24T13:49:07.241Z</time></trkpt><trkpt lat="44.6031961" lon="10.1238379"><ele>395.0</ele><time>2026-04-24T13:49:08.24Z</time></trkpt><trkpt lat="44.6030907" lon="10.1237517"><ele>395.0</ele><time>2026-04-24T13:49:09.241Z</time></trkpt><trkpt lat="44.6029798" lon="10.1236561"><ele>395.0</ele><time>2026-04-24T13:49:10.239Z</time></trkpt><trkpt lat="44.602874" lon="10.123565"><ele>395.0</ele><time>2026-04-24T13:49:11.24Z</time></trkpt><trkpt lat="44.6027735" lon="10.1234733"><ele>395.0</ele><time>2026-04-24T13:49:12.24Z</time></trkpt><trkpt lat="44.6026801" lon="10.1233908"><ele>394.8</ele><time>2026-04-24T13:49:13.24Z</time></trkpt><trkpt lat="44.6025918" lon="10.1233164"><ele>394.6</ele><time>2026-04-24T13:49:14.241Z</time></trkpt><trkpt lat="44.6025072" lon="10.1232406"><ele>394.4</ele><time>2026-04-24T13:49:15.24Z</time></trkpt><trkpt lat="44.6024142" lon="10.1231579"><ele>394.2</ele><time>2026-04-24T13:49:16.24Z</time></trkpt><trkpt lat="44.6023136" lon="10.1230721"><ele>394.0</ele><time>2026-04-24T13:49:17.24Z</time></trkpt><trkpt lat="44.6022093" lon="10.1229784"><ele>394.0</ele><time>2026-04-24T13:49:18.24Z</time></trkpt><trkpt lat="44.6020973" lon="10.1228848"><ele>394.0</ele><time>2026-04-24T13:49:19.239Z</time></trkpt><trkpt lat="44.6019832" lon="10.122786"><ele>394.0</ele><time>2026-04-24T13:49:20.241Z</time></trkpt><trkpt lat="44.6018615" lon="10.1226835"><ele>394.0</ele><time>2026-04-24T13:49:21.24Z</time></trkpt><trkpt lat="44.6017392" lon="10.1225761"><ele>394.5</ele><time>2026-04-24T13:49:22.24Z</time></trkpt><trkpt lat="44.6016272" lon="10.1224689"><ele>395.0</ele><time>2026-04-24T13:49:23.24Z</time></trkpt><trkpt lat="44.6015249" lon="10.1223677"><ele>395.5</ele><time>2026-04-24T13:49:24.239Z</time></trkpt><trkpt lat="44.6014339" lon="10.122271"><ele>396.0</ele><time>2026-04-24T13:49:25.241Z</time></trkpt><trkpt lat="44.6013543" lon="10.1221793"><ele>396.0</ele><time>2026-04-24T13:49:26.241Z</time></trkpt><trkpt lat="44.6012848" lon="10.1221004"><ele>396.0</ele><time>2026-04-24T13:49:27.239Z</time></trkpt><trkpt lat="44.6012256" lon="10.1220216"><ele>396.0</ele><time>2026-04-24T13:49:28.239Z</time></trkpt><trkpt lat="44.6011756" lon="10.1219563"><ele>396.0</ele><time>2026-04-24T13:49:29.24Z</time></trkpt><trkpt lat="44.601141" lon="10.121873"><ele>396.0</ele><time>2026-04-24T13:49:30.239Z</time></trkpt><trkpt lat="44.6011066" lon="10.121788"><ele>396.0</ele><time>2026-04-24T13:49:31.24Z</time></trkpt><trkpt lat="44.6010845" lon="10.1216919"><ele>396.0</ele><time>2026-04-24T13:49:32.24Z</time></trkpt><trkpt lat="44.6010867" lon="10.1215913"><ele>396.6666666666667</ele><time>2026-04-24T13:49:33.239Z</time></trkpt><trkpt lat="44.6010968" lon="10.121488"><ele>397.33333333333337</ele><time>2026-04-24T13:49:34.24Z</time></trkpt><trkpt lat="44.6010605" lon="10.1213324"><ele>398.0</ele><time>2026-04-24T13:49:36.239Z</time></trkpt><trkpt lat="44.6010007" lon="10.1212802"><ele>398.6666666666667</ele><time>2026-04-24T13:49:37.24Z</time></trkpt><trkpt lat="44.6009295" lon="10.1212234"><ele>399.33333333333337</ele><time>2026-04-24T13:49:38.24Z</time></trkpt><trkpt lat="44.60087" lon="10.1211314"><ele>400.0</ele><time>2026-04-24T13:49:39.241Z</time></trkpt><trkpt lat="44.6008171" lon="10.1210154"><ele>400.0</ele><time>2026-04-24T13:49:40.239Z</time></trkpt><trkpt lat="44.6007541" lon="10.1208934"><ele>400.0</ele><time>2026-04-24T13:49:41.239Z</time></trkpt><trkpt lat="44.6006794" lon="10.1207727"><ele>400.0</ele><time>2026-04-24T13:49:42.24Z</time></trkpt><trkpt lat="44.6005905" lon="10.1206566"><ele>400.0</ele><time>2026-04-24T13:49:43.241Z</time></trkpt><trkpt lat="44.6004941" lon="10.1205504"><ele>400.0</ele><time>2026-04-24T13:49:44.239Z</time></trkpt><trkpt lat="44.6003852" lon="10.1204677"><ele>400.0</ele><time>2026-04-24T13:49:45.24Z</time></trkpt><trkpt lat="44.6002644" lon="10.1204084"><ele>400.0</ele><time>2026-04-24T13:49:46.241Z</time></trkpt><trkpt lat="44.6001435" lon="10.1203591"><ele>400.0</ele><time>2026-04-24T13:49:47.241Z</time></trkpt><trkpt lat="44.6000229" lon="10.1203148"><ele>400.0</ele><time>2026-04-24T13:49:48.238Z</time></trkpt><trkpt lat="44.5998989" lon="10.1202714"><ele>400.0</ele><time>2026-04-24T13:49:49.239Z</time></trkpt><trkpt lat="44.5997725" lon="10.1202227"><ele>400.0</ele><time>2026-04-24T13:49:50.239Z</time></trkpt><trkpt lat="44.5996462" lon="10.1201713"><ele>400.0</ele><time>2026-04-24T13:49:51.24Z</time></trkpt><trkpt lat="44.5995219" lon="10.1201197"><ele>400.5</ele><time>2026-04-24T13:49:52.239Z</time></trkpt><trkpt lat="44.5993938" lon="10.1200698"><ele>401.0</ele><time>2026-04-24T13:49:53.239Z</time></trkpt><trkpt lat="44.5992648" lon="10.120021"><ele>401.5</ele><time>2026-04-24T13:49:54.238Z</time></trkpt><trkpt lat="44.599137" lon="10.1199714"><ele>402.0</ele><time>2026-04-24T13:49:55.239Z</time></trkpt><trkpt lat="44.5989902" lon="10.1199202"><ele>401.66666666666663</ele><time>2026-04-24T13:49:56.24Z</time></trkpt><trkpt lat="44.5988477" lon="10.11987"><ele>401.3333333333333</ele><time>2026-04-24T13:49:57.24Z</time></trkpt><trkpt lat="44.5987001" lon="10.1198128"><ele>401.0</ele><time>2026-04-24T13:49:58.238Z</time></trkpt><trkpt lat="44.5985533" lon="10.1197583"><ele>401.66666666666663</ele><time>2026-04-24T13:49:59.24Z</time></trkpt><trkpt lat="44.5984047" lon="10.1197103"><ele>402.33333333333337</ele><time>2026-04-24T13:50:00.24Z</time></trkpt><trkpt lat="44.5982527" lon="10.1196516"><ele>403.0</ele><time>2026-04-24T13:50:01.239Z</time></trkpt><trkpt lat="44.5980993" lon="10.1195969"><ele>403.0</ele><time>2026-04-24T13:50:02.239Z</time></trkpt><trkpt lat="44.5979468" lon="10.1195386"><ele>403.0</ele><time>2026-04-24T13:50:03.24Z</time></trkpt><trkpt lat="44.5977906" lon="10.1194808"><ele>403.0</ele><time>2026-04-24T13:50:04.239Z</time></trkpt><trkpt lat="44.597632" lon="10.1194284"><ele>405.6666666666667</ele><time>2026-04-24T13:50:05.239Z</time></trkpt><trkpt lat="44.597476" lon="10.1193728"><ele>408.33333333333337</ele><time>2026-04-24T13:50:06.239Z</time></trkpt><trkpt lat="44.5973202" lon="10.1193115"><ele>411.0</ele><time>2026-04-24T13:50:07.24Z</time></trkpt><trkpt lat="44.5971686" lon="10.1192492"><ele>411.0</ele><time>2026-04-24T13:50:08.239Z</time></trkpt><trkpt lat="44.5970206" lon="10.1191935"><ele>411.0</ele><time>2026-04-24T13:50:09.24Z</time></trkpt><trkpt lat="44.5968758" lon="10.1191306"><ele>411.0</ele><time>2026-04-24T13:50:10.238Z</time></trkpt><trkpt lat="44.5967299" lon="10.1190719"><ele>412.0</ele><time>2026-04-24T13:50:11.238Z</time></trkpt><trkpt lat="44.5965849" lon="10.1190221"><ele>413.0</ele><time>2026-04-24T13:50:12.239Z</time></trkpt><trkpt lat="44.5964385" lon="10.118965"><ele>414.0</ele><time>2026-04-24T13:50:13.238Z</time></trkpt><trkpt lat="44.5962903" lon="10.1189063"><ele>416.0</ele><time>2026-04-24T13:50:14.238Z</time></trkpt><trkpt lat="44.5961375" lon="10.1188432"><ele>418.0</ele><time>2026-04-24T13:50:15.239Z</time></trkpt><trkpt lat="44.595988" lon="10.1187855"><ele>420.0</ele><time>2026-04-24T13:50:16.238Z</time></trkpt><trkpt lat="44.5958449" lon="10.1187315"><ele>420.0</ele><time>2026-04-24T13:50:17.239Z</time></trkpt><trkpt lat="44.5957046" lon="10.1186768"><ele>420.0</ele><time>2026-04-24T13:50:18.238Z</time></trkpt><trkpt lat="44.5955589" lon="10.1186285"><ele>420.0</ele><time>2026-04-24T13:50:19.239Z</time></trkpt><trkpt lat="44.5954093" lon="10.1185771"><ele>420.0</ele><time>2026-04-24T13:50:20.239Z</time></trkpt><trkpt lat="44.5952534" lon="10.1185277"><ele>422.33333333333337</ele><time>2026-04-24T13:50:21.24Z</time></trkpt><trkpt lat="44.5950938" lon="10.1184733"><ele>424.6666666666667</ele><time>2026-04-24T13:50:22.238Z</time></trkpt><trkpt lat="44.5949311" lon="10.1184132"><ele>427.0</ele><time>2026-04-24T13:50:23.24Z</time></trkpt><trkpt lat="44.5947695" lon="10.1183508"><ele>427.0</ele><time>2026-04-24T13:50:24.238Z</time></trkpt><trkpt lat="44.5946046" lon="10.1182911"><ele>427.0</ele><time>2026-04-24T13:50:25.24Z</time></trkpt><trkpt lat="44.5944369" lon="10.1182334"><ele>427.0</ele><time>2026-04-24T13:50:26.24Z</time></trkpt><trkpt lat="44.5942692" lon="10.1181735"><ele>424.6666666666667</ele><time>2026-04-24T13:50:27.238Z</time></trkpt><trkpt lat="44.5941081" lon="10.1181074"><ele>422.33333333333337</ele><time>2026-04-24T13:50:28.24Z</time></trkpt><trkpt lat="44.5939472" lon="10.1180206"><ele>420.0</ele><time>2026-04-24T13:50:29.24Z</time></trkpt><trkpt lat="44.5937882" lon="10.117897"><ele>423.0</ele><time>2026-04-24T13:50:30.238Z</time></trkpt><trkpt lat="44.5936261" lon="10.1177727"><ele>426.0</ele><time>2026-04-24T13:50:31.239Z</time></trkpt><trkpt lat="44.593461" lon="10.1176385"><ele>429.0</ele><time>2026-04-24T13:50:32.24Z</time></trkpt><trkpt lat="44.5932938" lon="10.1175048"><ele>426.0</ele><time>2026-04-24T13:50:33.238Z</time></trkpt><trkpt lat="44.5931258" lon="10.1173678"><ele>423.0</ele><time>2026-04-24T13:50:34.24Z</time></trkpt><trkpt lat="44.5929534" lon="10.1172266"><ele>420.0</ele><time>2026-04-24T13:50:35.238Z</time></trkpt><trkpt lat="44.5927896" lon="10.1170922"><ele>420.0</ele><time>2026-04-24T13:50:36.239Z</time></trkpt><trkpt lat="44.5926383" lon="10.1169667"><ele>420.0</ele><time>2026-04-24T13:50:37.238Z</time></trkpt><trkpt lat="44.5924926" lon="10.1168466"><ele>420.0</ele><time>2026-04-24T13:50:38.239Z</time></trkpt><trkpt lat="44.5923485" lon="10.1167216"><ele>420.0</ele><time>2026-04-24T13:50:39.239Z</time></trkpt><trkpt lat="44.5921955" lon="10.1165989"><ele>420.0</ele><time>2026-04-24T13:50:40.238Z</time></trkpt><trkpt lat="44.5920433" lon="10.1164722"><ele>420.0</ele><time>2026-04-24T13:50:41.239Z</time></trkpt><trkpt lat="44.59189" lon="10.1163417"><ele>422.66666666666663</ele><time>2026-04-24T13:50:42.239Z</time></trkpt><trkpt lat="44.5917327" lon="10.116214"><ele>425.3333333333333</ele><time>2026-04-24T13:50:43.238Z</time></trkpt><trkpt lat="44.591576" lon="10.1160884"><ele>428.0</ele><time>2026-04-24T13:50:44.24Z</time></trkpt><trkpt lat="44.5914189" lon="10.1159611"><ele>428.0</ele><time>2026-04-24T13:50:45.239Z</time></trkpt><trkpt lat="44.5912728" lon="10.1158456"><ele>428.0</ele><time>2026-04-24T13:50:46.238Z</time></trkpt><trkpt lat="44.5911415" lon="10.1157357"><ele>428.0</ele><time>2026-04-24T13:50:47.239Z</time></trkpt><trkpt lat="44.5910262" lon="10.1156381"><ele>431.5</ele><time>2026-04-24T13:50:48.239Z</time></trkpt><trkpt lat="44.5909315" lon="10.1155075"><ele>435.0</ele><time>2026-04-24T13:50:49.238Z</time></trkpt><trkpt lat="44.5908598" lon="10.1153428"><ele>438.5</ele><time>2026-04-24T13:50:50.239Z</time></trkpt><trkpt lat="44.590822" lon="10.1151515"><ele>442.0</ele><time>2026-04-24T13:50:51.24Z</time></trkpt><trkpt lat="44.5908204" lon="10.1149528"><ele>443.75</ele><time>2026-04-24T13:50:52.238Z</time></trkpt><trkpt lat="44.5908419" lon="10.1147504"><ele>445.5</ele><time>2026-04-24T13:50:53.239Z</time></trkpt><trkpt lat="44.5908744" lon="10.1145444"><ele>447.25</ele><time>2026-04-24T13:50:54.238Z</time></trkpt><trkpt lat="44.5909091" lon="10.1143383"><ele>449.0</ele><time>2026-04-24T13:50:55.24Z</time></trkpt><trkpt lat="44.590943" lon="10.1141343"><ele>449.0</ele><time>2026-04-24T13:50:56.239Z</time></trkpt><trkpt lat="44.5909722" lon="10.1139457"><ele>449.0</ele><time>2026-04-24T13:50:57.238Z</time></trkpt><trkpt lat="44.5909965" lon="10.1137722"><ele>449.0</ele><time>2026-04-24T13:50:58.24Z</time></trkpt><trkpt lat="44.5910098" lon="10.1135992"><ele>449.0</ele><time>2026-04-24T13:50:59.239Z</time></trkpt><trkpt lat="44.5909927" lon="10.1134269"><ele>449.0</ele><time>2026-04-24T13:51:00.24Z</time></trkpt><trkpt lat="44.5909555" lon="10.1132574"><ele>449.0</ele><time>2026-04-24T13:51:01.24Z</time></trkpt><trkpt lat="44.5909036" lon="10.1130929"><ele>449.0</ele><time>2026-04-24T13:51:02.239Z</time></trkpt><trkpt lat="44.5908389" lon="10.1129284"><ele>449.0</ele><time>2026-04-24T13:51:03.239Z</time></trkpt><trkpt lat="44.5907587" lon="10.112775"><ele>451.0</ele><time>2026-04-24T13:51:04.239Z</time></trkpt><trkpt lat="44.5906646" lon="10.1126351"><ele>453.0</ele><time>2026-04-24T13:51:05.238Z</time></trkpt><trkpt lat="44.5905552" lon="10.112504"><ele>455.0</ele><time>2026-04-24T13:51:06.238Z</time></trkpt><trkpt lat="44.5904417" lon="10.112376"><ele>457.0</ele><time>2026-04-24T13:51:07.239Z</time></trkpt><trkpt lat="44.5903272" lon="10.1122421"><ele>457.0</ele><time>2026-04-24T13:51:08.239Z</time></trkpt><trkpt lat="44.5902134" lon="10.1120936"><ele>457.0</ele><time>2026-04-24T13:51:09.239Z</time></trkpt><trkpt lat="44.5901066" lon="10.1119322"><ele>457.0</ele><time>2026-04-24T13:51:10.239Z</time></trkpt><trkpt lat="44.5900124" lon="10.1117531"><ele>451.6666666666667</ele><time>2026-04-24T13:51:11.24Z</time></trkpt><trkpt lat="44.5899225" lon="10.1115635"><ele>446.33333333333337</ele><time>2026-04-24T13:51:12.239Z</time></trkpt><trkpt lat="44.5898256" lon="10.1113748"><ele>441.0</ele><time>2026-04-24T13:51:13.24Z</time></trkpt><trkpt lat="44.5897214" lon="10.1111822"><ele>441.0</ele><time>2026-04-24T13:51:14.24Z</time></trkpt><trkpt lat="44.589617" lon="10.1109873"><ele>441.0</ele><time>2026-04-24T13:51:15.24Z</time></trkpt><trkpt lat="44.5895175" lon="10.1107834"><ele>441.0</ele><time>2026-04-24T13:51:16.24Z</time></trkpt><trkpt lat="44.5894318" lon="10.1105675"><ele>452.66666666666663</ele><time>2026-04-24T13:51:17.239Z</time></trkpt><trkpt lat="44.5893583" lon="10.1103385"><ele>464.3333333333333</ele><time>2026-04-24T13:51:18.239Z</time></trkpt><trkpt lat="44.5892933" lon="10.1101245"><ele>476.0</ele><time>2026-04-24T13:51:19.238Z</time></trkpt><trkpt lat="44.5892359" lon="10.1099304"><ele>473.25</ele><time>2026-04-24T13:51:20.239Z</time></trkpt><trkpt lat="44.5891842" lon="10.1097392"><ele>470.5</ele><time>2026-04-24T13:51:21.238Z</time></trkpt><trkpt lat="44.5891325" lon="10.1095477"><ele>467.75</ele><time>2026-04-24T13:51:22.238Z</time></trkpt><trkpt lat="44.5890869" lon="10.1093547"><ele>465.0</ele><time>2026-04-24T13:51:23.239Z</time></trkpt><trkpt lat="44.5890431" lon="10.1091623"><ele>461.25</ele><time>2026-04-24T13:51:24.238Z</time></trkpt><trkpt lat="44.5890004" lon="10.1089655"><ele>457.5</ele><time>2026-04-24T13:51:25.238Z</time></trkpt><trkpt lat="44.588958" lon="10.1087717"><ele>453.75</ele><time>2026-04-24T13:51:26.239Z</time></trkpt><trkpt lat="44.5889084" lon="10.1085994"><ele>450.0</ele><time>2026-04-24T13:51:27.238Z</time></trkpt><trkpt lat="44.5888393" lon="10.1084565"><ele>450.0</ele><time>2026-04-24T13:51:28.239Z</time></trkpt><trkpt lat="44.5887472" lon="10.1083467"><ele>450.0</ele><time>2026-04-24T13:51:29.238Z</time></trkpt><trkpt lat="44.5886338" lon="10.1082777"><ele>450.0</ele><time>2026-04-24T13:51:30.239Z</time></trkpt><trkpt lat="44.5885021" lon="10.108235"><ele>450.0</ele><time>2026-04-24T13:51:31.239Z</time></trkpt><trkpt lat="44.5883833" lon="10.1081724"><ele>456.0</ele><time>2026-04-24T13:51:32.238Z</time></trkpt><trkpt lat="44.5883047" lon="10.1080737"><ele>462.0</ele><time>2026-04-24T13:51:33.238Z</time></trkpt><trkpt lat="44.5882532" lon="10.1079272"><ele>468.0</ele><time>2026-04-24T13:51:34.239Z</time></trkpt><trkpt lat="44.5882341" lon="10.1077567"><ele>474.0</ele><time>2026-04-24T13:51:35.238Z</time></trkpt><trkpt lat="44.5882574" lon="10.1075831"><ele>474.0</ele><time>2026-04-24T13:51:36.238Z</time></trkpt><trkpt lat="44.5883168" lon="10.1074325"><ele>474.0</ele><time>2026-04-24T13:51:37.239Z</time></trkpt><trkpt lat="44.5883612" lon="10.1073022"><ele>474.0</ele><time>2026-04-24T13:51:38.238Z</time></trkpt><trkpt lat="44.5883666" lon="10.1071689"><ele>474.0</ele><time>2026-04-24T13:51:39.238Z</time></trkpt><trkpt lat="44.5883315" lon="10.1070382"><ele>474.0</ele><time>2026-04-24T13:51:40.239Z</time></trkpt><trkpt lat="44.5882527" lon="10.1069289"><ele>469.0</ele><time>2026-04-24T13:51:41.238Z</time></trkpt><trkpt lat="44.588134" lon="10.1068135"><ele>464.0</ele><time>2026-04-24T13:51:42.238Z</time></trkpt><trkpt lat="44.5879885" lon="10.1066574"><ele>459.0</ele><time>2026-04-24T13:51:43.239Z</time></trkpt><trkpt lat="44.587857" lon="10.1064735"><ele>470.33333333333337</ele><time>2026-04-24T13:51:44.238Z</time></trkpt><trkpt lat="44.5877408" lon="10.1062593"><ele>481.6666666666667</ele><time>2026-04-24T13:51:45.238Z</time></trkpt><trkpt lat="44.5876478" lon="10.1060091"><ele>493.0</ele><time>2026-04-24T13:51:46.238Z</time></trkpt><trkpt lat="44.5875554" lon="10.1057694"><ele>488.33333333333337</ele><time>2026-04-24T13:51:47.239Z</time></trkpt><trkpt lat="44.5874669" lon="10.1055626"><ele>483.66666666666663</ele><time>2026-04-24T13:51:48.238Z</time></trkpt><trkpt lat="44.587394" lon="10.105359"><ele>479.0</ele><time>2026-04-24T13:51:49.24Z</time></trkpt><trkpt lat="44.5873612" lon="10.1051538"><ele>479.0</ele><time>2026-04-24T13:51:50.239Z</time></trkpt><trkpt lat="44.5873677" lon="10.1049627"><ele>479.0</ele><time>2026-04-24T13:51:51.238Z</time></trkpt><trkpt lat="44.5873753" lon="10.1048043"><ele>479.0</ele><time>2026-04-24T13:51:52.238Z</time></trkpt><trkpt lat="44.587364" lon="10.1046561"><ele>479.0</ele><time>2026-04-24T13:51:53.238Z</time></trkpt><trkpt lat="44.5873435" lon="10.1045164"><ele>473.25</ele><time>2026-04-24T13:51:54.238Z</time></trkpt><trkpt lat="44.5872268" lon="10.1044116"><ele>467.5</ele><time>2026-04-24T13:51:55.238Z</time></trkpt><trkpt lat="44.5871119" lon="10.1043184"><ele>461.75</ele><time>2026-04-24T13:51:56.24Z</time></trkpt><trkpt lat="44.5869803" lon="10.104232"><ele>456.0</ele><time>2026-04-24T13:51:57.24Z</time></trkpt><trkpt lat="44.5868503" lon="10.1041498"><ele>464.0</ele><time>2026-04-24T13:51:58.239Z</time></trkpt><trkpt lat="44.5867446" lon="10.1040476"><ele>472.0</ele><time>2026-04-24T13:51:59.239Z</time></trkpt><trkpt lat="44.5866735" lon="10.1039184"><ele>480.0</ele><time>2026-04-24T13:52:00.239Z</time></trkpt><trkpt lat="44.5866337" lon="10.1037536"><ele>488.0</ele><time>2026-04-24T13:52:01.239Z</time></trkpt><trkpt lat="44.5866168" lon="10.1035702"><ele>488.0</ele><time>2026-04-24T13:52:02.239Z</time></trkpt><trkpt lat="44.5866001" lon="10.1033702"><ele>488.0</ele><time>2026-04-24T13:52:03.239Z</time></trkpt><trkpt lat="44.5865932" lon="10.1031521"><ele>488.0</ele><time>2026-04-24T13:52:04.239Z</time></trkpt><trkpt lat="44.5865723" lon="10.1029252"><ele>484.0</ele><time>2026-04-24T13:52:05.239Z</time></trkpt><trkpt lat="44.5865232" lon="10.1027049"><ele>480.0</ele><time>2026-04-24T13:52:06.239Z</time></trkpt><trkpt lat="44.5864818" lon="10.1024918"><ele>476.0</ele><time>2026-04-24T13:52:07.24Z</time></trkpt><trkpt lat="44.5864065" lon="10.1022587"><ele>473.3333333333333</ele><time>2026-04-24T13:52:08.239Z</time></trkpt><trkpt lat="44.5863616" lon="10.1020236"><ele>470.66666666666663</ele><time>2026-04-24T13:52:09.24Z</time></trkpt><trkpt lat="44.5863243" lon="10.1017893"><ele>468.0</ele><time>2026-04-24T13:52:10.24Z</time></trkpt><trkpt lat="44.5863052" lon="10.1015417"><ele>468.0</ele><time>2026-04-24T13:52:11.239Z</time></trkpt><trkpt lat="44.5862993" lon="10.1012904"><ele>468.0</ele><time>2026-04-24T13:52:12.24Z</time></trkpt><trkpt lat="44.5863062" lon="10.1010459"><ele>468.0</ele><time>2026-04-24T13:52:13.24Z</time></trkpt><trkpt lat="44.5863234" lon="10.1007954"><ele>473.0</ele><time>2026-04-24T13:52:14.24Z</time></trkpt><trkpt lat="44.5863329" lon="10.1005506"><ele>478.0</ele><time>2026-04-24T13:52:15.24Z</time></trkpt><trkpt lat="44.5863481" lon="10.1003107"><ele>483.0</ele><time>2026-04-24T13:52:16.239Z</time></trkpt><trkpt lat="44.5863516" lon="10.100079"><ele>486.75</ele><time>2026-04-24T13:52:17.239Z</time></trkpt><trkpt lat="44.5863529" lon="10.0998573"><ele>490.5</ele><time>2026-04-24T13:52:18.238Z</time></trkpt><trkpt lat="44.5863499" lon="10.0996617"><ele>494.25</ele><time>2026-04-24T13:52:19.239Z</time></trkpt><trkpt lat="44.5863559" lon="10.0994724"><ele>498.0</ele><time>2026-04-24T13:52:20.239Z</time></trkpt><trkpt lat="44.5863634" lon="10.0993074"><ele>498.0</ele><time>2026-04-24T13:52:21.239Z</time></trkpt><trkpt lat="44.5863799" lon="10.0991522"><ele>498.0</ele><time>2026-04-24T13:52:22.239Z</time></trkpt><trkpt lat="44.5864196" lon="10.098996"><ele>498.0</ele><time>2026-04-24T13:52:23.24Z</time></trkpt><trkpt lat="44.5864893" lon="10.0988389"><ele>498.0</ele><time>2026-04-24T13:52:24.238Z</time></trkpt><trkpt lat="44.5865759" lon="10.0986667"><ele>506.66666666666663</ele><time>2026-04-24T13:52:25.238Z</time></trkpt><trkpt lat="44.586667" lon="10.0984661"><ele>515.3333333333333</ele><time>2026-04-24T13:52:26.238Z</time></trkpt><trkpt lat="44.5867608" lon="10.0982545"><ele>524.0</ele><time>2026-04-24T13:52:27.238Z</time></trkpt><trkpt lat="44.58686" lon="10.098053"><ele>517.6666666666666</ele><time>2026-04-24T13:52:28.239Z</time></trkpt><trkpt lat="44.5869741" lon="10.0978647"><ele>511.33333333333337</ele><time>2026-04-24T13:52:29.238Z</time></trkpt><trkpt lat="44.5870843" lon="10.0976932"><ele>505.0</ele><time>2026-04-24T13:52:30.238Z</time></trkpt><trkpt lat="44.5871927" lon="10.0975178"><ele>513.0</ele><time>2026-04-24T13:52:31.238Z</time></trkpt><trkpt lat="44.5872892" lon="10.0973332"><ele>521.0</ele><time>2026-04-24T13:52:32.238Z</time></trkpt><trkpt lat="44.5873698" lon="10.0971372"><ele>529.0</ele><time>2026-04-24T13:52:33.238Z</time></trkpt><trkpt lat="44.5874454" lon="10.0969348"><ele>529.0</ele><time>2026-04-24T13:52:34.239Z</time></trkpt><trkpt lat="44.5875261" lon="10.0967333"><ele>529.0</ele><time>2026-04-24T13:52:35.238Z</time></trkpt><trkpt lat="44.5876197" lon="10.0965514"><ele>529.0</ele><time>2026-04-24T13:52:36.238Z</time></trkpt><trkpt lat="44.5877177" lon="10.0964029"><ele>527.0</ele><time>2026-04-24T13:52:37.238Z</time></trkpt><trkpt lat="44.5878184" lon="10.0962691"><ele>525.0</ele><time>2026-04-24T13:52:38.239Z</time></trkpt><trkpt lat="44.5879044" lon="10.0961546"><ele>523.0</ele><time>2026-04-24T13:52:39.24Z</time></trkpt><trkpt lat="44.5879607" lon="10.0960275"><ele>521.0</ele><time>2026-04-24T13:52:40.24Z</time></trkpt><trkpt lat="44.5879821" lon="10.0958943"><ele>515.4</ele><time>2026-04-24T13:52:41.238Z</time></trkpt><trkpt lat="44.5879719" lon="10.0957736"><ele>509.8</ele><time>2026-04-24T13:52:42.238Z</time></trkpt><trkpt lat="44.5879231" lon="10.0956673"><ele>504.19999999999993</ele><time>2026-04-24T13:52:43.239Z</time></trkpt><trkpt lat="44.5878654" lon="10.0955805"><ele>498.59999999999997</ele><time>2026-04-24T13:52:44.24Z</time></trkpt><trkpt lat="44.587736" lon="10.0955903"><ele>493.0</ele><time>2026-04-24T13:52:45.239Z</time></trkpt><trkpt lat="44.58762" lon="10.0956387"><ele>490.5</ele><time>2026-04-24T13:52:46.238Z</time></trkpt><trkpt lat="44.5875031" lon="10.0957323"><ele>488.0</ele><time>2026-04-24T13:52:47.238Z</time></trkpt><trkpt lat="44.5873872" lon="10.0958629"><ele>485.5</ele><time>2026-04-24T13:52:48.239Z</time></trkpt><trkpt lat="44.5872624" lon="10.0960063"><ele>483.0</ele><time>2026-04-24T13:52:49.238Z</time></trkpt><trkpt lat="44.5871329" lon="10.0961227"><ele>490.75</ele><time>2026-04-24T13:52:50.24Z</time></trkpt><trkpt lat="44.5870005" lon="10.0961926"><ele>498.5</ele><time>2026-04-24T13:52:51.24Z</time></trkpt><trkpt lat="44.5868511" lon="10.0962192"><ele>506.25</ele><time>2026-04-24T13:52:52.239Z</time></trkpt><trkpt lat="44.586699" lon="10.0962713"><ele>514.0</ele><time>2026-04-24T13:52:53.239Z</time></trkpt><trkpt lat="44.5865458" lon="10.0963528"><ele>514.0</ele><time>2026-04-24T13:52:54.24Z</time></trkpt><trkpt lat="44.5863895" lon="10.0964352"><ele>514.0</ele><time>2026-04-24T13:52:55.239Z</time></trkpt><trkpt lat="44.5862289" lon="10.0964913"><ele>514.0</ele><time>2026-04-24T13:52:56.239Z</time></trkpt><trkpt lat="44.5860909" lon="10.0965483"><ele>521.0</ele><time>2026-04-24T13:52:57.24Z</time></trkpt><trkpt lat="44.5859658" lon="10.0966438"><ele>528.0</ele><time>2026-04-24T13:52:58.239Z</time></trkpt><trkpt lat="44.5858391" lon="10.0967591"><ele>535.0</ele><time>2026-04-24T13:52:59.24Z</time></trkpt><trkpt lat="44.5856943" lon="10.0968556"><ele>535.0</ele><time>2026-04-24T13:53:00.239Z</time></trkpt><trkpt lat="44.5855343" lon="10.0969178"><ele>535.0</ele><time>2026-04-24T13:53:01.239Z</time></trkpt><trkpt lat="44.585378" lon="10.0969552"><ele>535.0</ele><time>2026-04-24T13:53:02.238Z</time></trkpt><trkpt lat="44.5852341" lon="10.0969878"><ele>537.25</ele><time>2026-04-24T13:53:03.238Z</time></trkpt><trkpt lat="44.5851075" lon="10.0969936"><ele>539.5</ele><time>2026-04-24T13:53:04.238Z</time></trkpt><trkpt lat="44.5849952" lon="10.0969506"><ele>541.75</ele><time>2026-04-24T13:53:05.238Z</time></trkpt><trkpt lat="44.5849028" lon="10.0968593"><ele>544.0</ele><time>2026-04-24T13:53:06.239Z</time></trkpt><trkpt lat="44.5848363" lon="10.0967096"><ele>541.0</ele><time>2026-04-24T13:53:07.239Z</time></trkpt><trkpt lat="44.5848076" lon="10.0965249"><ele>538.0</ele><time>2026-04-24T13:53:08.238Z</time></trkpt><trkpt lat="44.5847914" lon="10.0963256"><ele>535.0</ele><time>2026-04-24T13:53:09.239Z</time></trkpt><trkpt lat="44.5847678" lon="10.0961132"><ele>532.0</ele><time>2026-04-24T13:53:10.239Z</time></trkpt><trkpt lat="44.5847319" lon="10.0959312"><ele>534.75</ele><time>2026-04-24T13:53:11.238Z</time></trkpt><trkpt lat="44.5846726" lon="10.0957469"><ele>537.5</ele><time>2026-04-24T13:53:12.239Z</time></trkpt><trkpt lat="44.5845844" lon="10.0955822"><ele>540.25</ele><time>2026-04-24T13:53:13.239Z</time></trkpt><trkpt lat="44.5844919" lon="10.0954252"><ele>543.0</ele><time>2026-04-24T13:53:14.239Z</time></trkpt><trkpt lat="44.5844012" lon="10.0952786"><ele>543.0</ele><time>2026-04-24T13:53:15.24Z</time></trkpt><trkpt lat="44.5843145" lon="10.0951365"><ele>543.0</ele><time>2026-04-24T13:53:16.239Z</time></trkpt><trkpt lat="44.5842357" lon="10.0950056"><ele>543.0</ele><time>2026-04-24T13:53:17.239Z</time></trkpt><trkpt lat="44.5841779" lon="10.0948688"><ele>543.0</ele><time>2026-04-24T13:53:18.238Z</time></trkpt><trkpt lat="44.5841579" lon="10.0947147"><ele>550.25</ele><time>2026-04-24T13:53:19.239Z</time></trkpt><trkpt lat="44.5841679" lon="10.0945642"><ele>557.5</ele><time>2026-04-24T13:53:20.239Z</time></trkpt><trkpt lat="44.5842193" lon="10.0944216"><ele>564.75</ele><time>2026-04-24T13:53:21.239Z</time></trkpt><trkpt lat="44.584307" lon="10.0942935"><ele>572.0</ele><time>2026-04-24T13:53:22.24Z</time></trkpt><trkpt lat="44.5844211" lon="10.0941754"><ele>574.25</ele><time>2026-04-24T13:53:23.238Z</time></trkpt><trkpt lat="44.584555" lon="10.0940784"><ele>576.5</ele><time>2026-04-24T13:53:24.238Z</time></trkpt><trkpt lat="44.5847045" lon="10.0940155"><ele>578.75</ele><time>2026-04-24T13:53:25.238Z</time></trkpt><trkpt lat="44.5848413" lon="10.0939749"><ele>581.0</ele><time>2026-04-24T13:53:26.239Z</time></trkpt><trkpt lat="44.5849679" lon="10.0939558"><ele>581.0</ele><time>2026-04-24T13:53:27.24Z</time></trkpt><trkpt lat="44.5850825" lon="10.0939559"><ele>581.0</ele><time>2026-04-24T13:53:28.239Z</time></trkpt><trkpt lat="44.5851911" lon="10.0939598"><ele>581.0</ele><time>2026-04-24T13:53:29.239Z</time></trkpt><trkpt lat="44.5852687" lon="10.0939377"><ele>581.0</ele><time>2026-04-24T13:53:30.239Z</time></trkpt><trkpt lat="44.5853466" lon="10.093891"><ele>581.0</ele><time>2026-04-24T13:53:31.239Z</time></trkpt><trkpt lat="44.5853942" lon="10.0936948"><ele>575.0</ele><time>2026-04-24T13:53:32.238Z</time></trkpt><trkpt lat="44.585446" lon="10.0935339"><ele>569.0</ele><time>2026-04-24T13:53:33.24Z</time></trkpt><trkpt lat="44.5854952" lon="10.093354"><ele>563.0</ele><time>2026-04-24T13:53:34.24Z</time></trkpt><trkpt lat="44.5855592" lon="10.0931806"><ele>557.0</ele><time>2026-04-24T13:53:35.239Z</time></trkpt><trkpt lat="44.5856305" lon="10.0930008"><ele>557.0</ele><time>2026-04-24T13:53:36.238Z</time></trkpt><trkpt lat="44.5857041" lon="10.0928346"><ele>557.0</ele><time>2026-04-24T13:53:37.239Z</time></trkpt><trkpt lat="44.5857598" lon="10.0926638"><ele>557.0</ele><time>2026-04-24T13:53:38.239Z</time></trkpt><trkpt lat="44.5858058" lon="10.0924833"><ele>557.0</ele><time>2026-04-24T13:53:39.24Z</time></trkpt><trkpt lat="44.5857966" lon="10.0922786"><ele>554.5</ele><time>2026-04-24T13:53:40.239Z</time></trkpt><trkpt lat="44.5858078" lon="10.0920682"><ele>552.0</ele><time>2026-04-24T13:53:41.238Z</time></trkpt><trkpt lat="44.5858043" lon="10.091885"><ele>549.5</ele><time>2026-04-24T13:53:42.239Z</time></trkpt><trkpt lat="44.5857893" lon="10.0917207"><ele>547.0</ele><time>2026-04-24T13:53:43.238Z</time></trkpt><trkpt lat="44.5857351" lon="10.0915752"><ele>541.5</ele><time>2026-04-24T13:53:44.238Z</time></trkpt><trkpt lat="44.5856814" lon="10.091441"><ele>536.0</ele><time>2026-04-24T13:53:45.238Z</time></trkpt><trkpt lat="44.5855847" lon="10.0912948"><ele>530.5</ele><time>2026-04-24T13:53:46.238Z</time></trkpt><trkpt lat="44.5854957" lon="10.0911601"><ele>525.0</ele><time>2026-04-24T13:53:47.238Z</time></trkpt><trkpt lat="44.5853965" lon="10.0910186"><ele>531.75</ele><time>2026-04-24T13:53:48.239Z</time></trkpt><trkpt lat="44.585265" lon="10.0909228"><ele>538.5</ele><time>2026-04-24T13:53:49.238Z</time></trkpt><trkpt lat="44.5851394" lon="10.0908701"><ele>545.25</ele><time>2026-04-24T13:53:50.238Z</time></trkpt><trkpt lat="44.5850123" lon="10.0907987"><ele>552.0</ele><time>2026-04-24T13:53:51.238Z</time></trkpt><trkpt lat="44.5849075" lon="10.0906786"><ele>552.0</ele><time>2026-04-24T13:53:52.239Z</time></trkpt><trkpt lat="44.5848305" lon="10.0905439"><ele>552.0</ele><time>2026-04-24T13:53:53.239Z</time></trkpt><trkpt lat="44.5847617" lon="10.0904067"><ele>552.0</ele><time>2026-04-24T13:53:54.239Z</time></trkpt><trkpt lat="44.5846768" lon="10.0903159"><ele>552.0</ele><time>2026-04-24T13:53:55.238Z</time></trkpt><trkpt lat="44.5845879" lon="10.0902703"><ele>552.0</ele><time>2026-04-24T13:53:56.239Z</time></trkpt><trkpt lat="44.5844672" lon="10.0902883"><ele>556.0</ele><time>2026-04-24T13:53:57.239Z</time></trkpt><trkpt lat="44.5843546" lon="10.090322"><ele>560.0</ele><time>2026-04-24T13:53:58.238Z</time></trkpt><trkpt lat="44.5842372" lon="10.0903868"><ele>564.0</ele><time>2026-04-24T13:53:59.239Z</time></trkpt><trkpt lat="44.5841165" lon="10.0904673"><ele>568.0</ele><time>2026-04-24T13:54:00.237Z</time></trkpt><trkpt lat="44.5839961" lon="10.0905812"><ele>568.0</ele><time>2026-04-24T13:54:01.238Z</time></trkpt><trkpt lat="44.5838719" lon="10.0907083"><ele>568.0</ele><time>2026-04-24T13:54:02.239Z</time></trkpt><trkpt lat="44.5837664" lon="10.0908406"><ele>568.0</ele><time>2026-04-24T13:54:03.239Z</time></trkpt><trkpt lat="44.5836412" lon="10.090913"><ele>568.0</ele><time>2026-04-24T13:54:04.238Z</time></trkpt><trkpt lat="44.5835109" lon="10.0909356"><ele>572.75</ele><time>2026-04-24T13:54:05.238Z</time></trkpt><trkpt lat="44.5833736" lon="10.0909063"><ele>577.5</ele><time>2026-04-24T13:54:06.239Z</time></trkpt><trkpt lat="44.5832308" lon="10.0908879"><ele>582.25</ele><time>2026-04-24T13:54:07.239Z</time></trkpt><trkpt lat="44.5830737" lon="10.0908954"><ele>587.0</ele><time>2026-04-24T13:54:08.238Z</time></trkpt><trkpt lat="44.5829189" lon="10.0909324"><ele>588.5</ele><time>2026-04-24T13:54:09.239Z</time></trkpt><trkpt lat="44.582783" lon="10.0909981"><ele>590.0</ele><time>2026-04-24T13:54:10.238Z</time></trkpt><trkpt lat="44.5826415" lon="10.0910296"><ele>591.5</ele><time>2026-04-24T13:54:11.238Z</time></trkpt><trkpt lat="44.5824998" lon="10.0910412"><ele>593.0</ele><time>2026-04-24T13:54:12.238Z</time></trkpt><trkpt lat="44.5823701" lon="10.0909837"><ele>593.0</ele><time>2026-04-24T13:54:13.238Z</time></trkpt><trkpt lat="44.5822553" lon="10.0908659"><ele>593.0</ele><time>2026-04-24T13:54:14.239Z</time></trkpt><trkpt lat="44.5821534" lon="10.0907015"><ele>593.0</ele><time>2026-04-24T13:54:15.238Z</time></trkpt><trkpt lat="44.5820605" lon="10.0905154"><ele>593.6666666666666</ele><time>2026-04-24T13:54:16.238Z</time></trkpt><trkpt lat="44.5819651" lon="10.0903089"><ele>594.3333333333334</ele><time>2026-04-24T13:54:17.238Z</time></trkpt><trkpt lat="44.5818706" lon="10.0901004"><ele>595.0</ele><time>2026-04-24T13:54:18.238Z</time></trkpt><trkpt lat="44.5817756" lon="10.0898807"><ele>595.0</ele><time>2026-04-24T13:54:19.238Z</time></trkpt><trkpt lat="44.5816861" lon="10.0896511"><ele>595.0</ele><time>2026-04-24T13:54:20.239Z</time></trkpt><trkpt lat="44.5816094" lon="10.0894151"><ele>595.0</ele><time>2026-04-24T13:54:21.239Z</time></trkpt><trkpt lat="44.5815473" lon="10.0891789"><ele>591.6666666666667</ele><time>2026-04-24T13:54:22.238Z</time></trkpt><trkpt lat="44.5814927" lon="10.0889502"><ele>588.3333333333334</ele><time>2026-04-24T13:54:23.239Z</time></trkpt><trkpt lat="44.5814421" lon="10.0887283"><ele>585.0</ele><time>2026-04-24T13:54:24.238Z</time></trkpt><trkpt lat="44.5813858" lon="10.0885221"><ele>585.0</ele><time>2026-04-24T13:54:25.238Z</time></trkpt><trkpt lat="44.5813154" lon="10.0883336"><ele>585.0</ele><time>2026-04-24T13:54:26.237Z</time></trkpt><trkpt lat="44.5812425" lon="10.0881618"><ele>585.0</ele><time>2026-04-24T13:54:27.237Z</time></trkpt><trkpt lat="44.581142" lon="10.088005"><ele>585.0</ele><time>2026-04-24T13:54:28.238Z</time></trkpt><trkpt lat="44.5810212" lon="10.0878624"><ele>588.25</ele><time>2026-04-24T13:54:29.238Z</time></trkpt><trkpt lat="44.580887" lon="10.0877464"><ele>591.5</ele><time>2026-04-24T13:54:30.237Z</time></trkpt><trkpt lat="44.5807511" lon="10.0876687"><ele>594.75</ele><time>2026-04-24T13:54:31.237Z</time></trkpt><trkpt lat="44.5806101" lon="10.0876453"><ele>598.0</ele><time>2026-04-24T13:54:32.237Z</time></trkpt><trkpt lat="44.5804687" lon="10.0876512"><ele>600.0</ele><time>2026-04-24T13:54:33.238Z</time></trkpt><trkpt lat="44.5803313" lon="10.0877584"><ele>602.0</ele><time>2026-04-24T13:54:34.238Z</time></trkpt><trkpt lat="44.580185" lon="10.0878167"><ele>604.0</ele><time>2026-04-24T13:54:35.238Z</time></trkpt><trkpt lat="44.5800283" lon="10.0878071"><ele>604.0</ele><time>2026-04-24T13:54:36.237Z</time></trkpt><trkpt lat="44.5798822" lon="10.0877306"><ele>604.0</ele><time>2026-04-24T13:54:37.239Z</time></trkpt><trkpt lat="44.5797457" lon="10.0876291"><ele>604.0</ele><time>2026-04-24T13:54:38.238Z</time></trkpt><trkpt lat="44.5796274" lon="10.0874978"><ele>603.0</ele><time>2026-04-24T13:54:39.237Z</time></trkpt><trkpt lat="44.5795319" lon="10.0873534"><ele>602.0</ele><time>2026-04-24T13:54:40.238Z</time></trkpt><trkpt lat="44.5794535" lon="10.0871944"><ele>601.0</ele><time>2026-04-24T13:54:41.238Z</time></trkpt><trkpt lat="44.5794091" lon="10.0870084"><ele>600.0</ele><time>2026-04-24T13:54:42.239Z</time></trkpt><trkpt lat="44.5794025" lon="10.0868123"><ele>603.0</ele><time>2026-04-24T13:54:43.239Z</time></trkpt><trkpt lat="44.5794271" lon="10.0866091"><ele>606.0</ele><time>2026-04-24T13:54:44.238Z</time></trkpt><trkpt lat="44.5794801" lon="10.0863956"><ele>609.0</ele><time>2026-04-24T13:54:45.239Z</time></trkpt><trkpt lat="44.5795507" lon="10.0861699"><ele>609.0</ele><time>2026-04-24T13:54:46.239Z</time></trkpt><trkpt lat="44.5796595" lon="10.0859511"><ele>609.0</ele><time>2026-04-24T13:54:47.238Z</time></trkpt><trkpt lat="44.5797664" lon="10.0857283"><ele>609.0</ele><time>2026-04-24T13:54:48.237Z</time></trkpt><trkpt lat="44.5798836" lon="10.0855128"><ele>618.6666666666666</ele><time>2026-04-24T13:54:49.239Z</time></trkpt><trkpt lat="44.5800087" lon="10.0852933"><ele>628.3333333333333</ele><time>2026-04-24T13:54:50.238Z</time></trkpt><trkpt lat="44.5801349" lon="10.0850782"><ele>638.0</ele><time>2026-04-24T13:54:51.238Z</time></trkpt><trkpt lat="44.5802565" lon="10.0848693"><ele>631.0</ele><time>2026-04-24T13:54:52.238Z</time></trkpt><trkpt lat="44.580381" lon="10.084666"><ele>624.0</ele><time>2026-04-24T13:54:53.238Z</time></trkpt><trkpt lat="44.580499" lon="10.0844603"><ele>617.0</ele><time>2026-04-24T13:54:54.237Z</time></trkpt><trkpt lat="44.5806154" lon="10.0842565"><ele>628.0</ele><time>2026-04-24T13:54:55.238Z</time></trkpt><trkpt lat="44.5807273" lon="10.0840525"><ele>639.0</ele><time>2026-04-24T13:54:56.238Z</time></trkpt><trkpt lat="44.5808378" lon="10.083851"><ele>650.0</ele><time>2026-04-24T13:54:57.239Z</time></trkpt><trkpt lat="44.5809429" lon="10.0836379"><ele>650.0</ele><time>2026-04-24T13:54:58.237Z</time></trkpt><trkpt lat="44.5810506" lon="10.0834213"><ele>650.0</ele><time>2026-04-24T13:54:59.239Z</time></trkpt><trkpt lat="44.5811544" lon="10.0831967"><ele>650.0</ele><time>2026-04-24T13:55:00.237Z</time></trkpt><trkpt lat="44.5812589" lon="10.0829643"><ele>650.0</ele><time>2026-04-24T13:55:01.238Z</time></trkpt><trkpt lat="44.5813589" lon="10.0827282"><ele>650.0</ele><time>2026-04-24T13:55:02.238Z</time></trkpt><trkpt lat="44.5814726" lon="10.0825097"><ele>650.0</ele><time>2026-04-24T13:55:03.238Z</time></trkpt><trkpt lat="44.5815905" lon="10.082305"><ele>650.0</ele><time>2026-04-24T13:55:04.238Z</time></trkpt><trkpt lat="44.5816973" lon="10.0820998"><ele>650.0</ele><time>2026-04-24T13:55:05.237Z</time></trkpt><trkpt lat="44.5817818" lon="10.0818732"><ele>650.0</ele><time>2026-04-24T13:55:06.238Z</time></trkpt><trkpt lat="44.5818448" lon="10.08164"><ele>654.6666666666666</ele><time>2026-04-24T13:55:07.238Z</time></trkpt><trkpt lat="44.581917" lon="10.0814139"><ele>659.3333333333334</ele><time>2026-04-24T13:55:08.237Z</time></trkpt><trkpt lat="44.5819656" lon="10.0811642"><ele>664.0</ele><time>2026-04-24T13:55:09.238Z</time></trkpt><trkpt lat="44.5820064" lon="10.08091"><ele>653.0</ele><time>2026-04-24T13:55:10.238Z</time></trkpt><trkpt lat="44.5820577" lon="10.0806686"><ele>642.0</ele><time>2026-04-24T13:55:11.238Z</time></trkpt><trkpt lat="44.5821187" lon="10.0804397"><ele>631.0</ele><time>2026-04-24T13:55:12.239Z</time></trkpt><trkpt lat="44.582182" lon="10.0802349"><ele>631.0</ele><time>2026-04-24T13:55:13.237Z</time></trkpt><trkpt lat="44.5822881" lon="10.0801257"><ele>631.0</ele><time>2026-04-24T13:55:14.237Z</time></trkpt><trkpt lat="44.5823353" lon="10.0799738"><ele>631.0</ele><time>2026-04-24T13:55:15.238Z</time></trkpt><trkpt lat="44.5823571" lon="10.0798288"><ele>631.0</ele><time>2026-04-24T13:55:16.239Z</time></trkpt><trkpt lat="44.582374" lon="10.0796854"><ele>631.25</ele><time>2026-04-24T13:55:17.238Z</time></trkpt><trkpt lat="44.5822925" lon="10.0795653"><ele>631.5</ele><time>2026-04-24T13:55:18.238Z</time></trkpt><trkpt lat="44.582213" lon="10.0794898"><ele>631.75</ele><time>2026-04-24T13:55:19.238Z</time></trkpt><trkpt lat="44.5821312" lon="10.0794134"><ele>632.0</ele><time>2026-04-24T13:55:20.237Z</time></trkpt><trkpt lat="44.5819857" lon="10.0794696"><ele>635.25</ele><time>2026-04-24T13:55:21.237Z</time></trkpt><trkpt lat="44.5818474" lon="10.0795277"><ele>638.5</ele><time>2026-04-24T13:55:22.238Z</time></trkpt><trkpt lat="44.5817107" lon="10.0795859"><ele>641.75</ele><time>2026-04-24T13:55:23.239Z</time></trkpt><trkpt lat="44.5815848" lon="10.0796296"><ele>645.0</ele><time>2026-04-24T13:55:24.239Z</time></trkpt><trkpt lat="44.5814641" lon="10.0796389"><ele>645.0</ele><time>2026-04-24T13:55:25.239Z</time></trkpt><trkpt lat="44.5813506" lon="10.0795962"><ele>645.0</ele><time>2026-04-24T13:55:26.238Z</time></trkpt><trkpt lat="44.5812425" lon="10.07952"><ele>645.0</ele><time>2026-04-24T13:55:27.238Z</time></trkpt><trkpt lat="44.5811467" lon="10.0794238"><ele>645.0</ele><time>2026-04-24T13:55:28.238Z</time></trkpt><trkpt lat="44.5810567" lon="10.0793087"><ele>649.0</ele><time>2026-04-24T13:55:29.238Z</time></trkpt><trkpt lat="44.5809822" lon="10.0791652"><ele>653.0</ele><time>2026-04-24T13:55:30.239Z</time></trkpt><trkpt lat="44.580924" lon="10.0789872"><ele>657.0</ele><time>2026-04-24T13:55:31.238Z</time></trkpt><trkpt lat="44.5808833" lon="10.0787868"><ele>661.0</ele><time>2026-04-24T13:55:32.238Z</time></trkpt><trkpt lat="44.5808641" lon="10.0785811"><ele>661.0</ele><time>2026-04-24T13:55:33.238Z</time></trkpt><trkpt lat="44.5808388" lon="10.0784041"><ele>661.0</ele><time>2026-04-24T13:55:34.237Z</time></trkpt><trkpt lat="44.5807968" lon="10.0782543"><ele>661.0</ele><time>2026-04-24T13:55:35.238Z</time></trkpt><trkpt lat="44.5807324" lon="10.0781454"><ele>661.0</ele><time>2026-04-24T13:55:36.239Z</time></trkpt><trkpt lat="44.5806411" lon="10.0780845"><ele>661.0</ele><time>2026-04-24T13:55:37.237Z</time></trkpt><trkpt lat="44.5805299" lon="10.0780695"><ele>660.0</ele><time>2026-04-24T13:55:38.237Z</time></trkpt><trkpt lat="44.5804074" lon="10.0781043"><ele>659.0</ele><time>2026-04-24T13:55:39.239Z</time></trkpt><trkpt lat="44.5802754" lon="10.0781468"><ele>658.0</ele><time>2026-04-24T13:55:40.239Z</time></trkpt><trkpt lat="44.58014" lon="10.0781719"><ele>657.0</ele><time>2026-04-24T13:55:41.237Z</time></trkpt><trkpt lat="44.5800234" lon="10.0781482"><ele>657.0</ele><time>2026-04-24T13:55:42.237Z</time></trkpt><trkpt lat="44.579916" lon="10.0781034"><ele>657.0</ele><time>2026-04-24T13:55:43.238Z</time></trkpt><trkpt lat="44.5797985" lon="10.0780438"><ele>657.0</ele><time>2026-04-24T13:55:44.239Z</time></trkpt><trkpt lat="44.5796704" lon="10.0779712"><ele>657.0</ele><time>2026-04-24T13:55:45.237Z</time></trkpt><trkpt lat="44.5795455" lon="10.0778909"><ele>660.0</ele><time>2026-04-24T13:55:46.238Z</time></trkpt><trkpt lat="44.5794137" lon="10.0778085"><ele>663.0</ele><time>2026-04-24T13:55:47.237Z</time></trkpt><trkpt lat="44.5792977" lon="10.077747"><ele>666.0</ele><time>2026-04-24T13:55:48.238Z</time></trkpt><trkpt lat="44.5791826" lon="10.0777313"><ele>669.0</ele><time>2026-04-24T13:55:49.238Z</time></trkpt><trkpt lat="44.5790682" lon="10.0777737"><ele>669.0</ele><time>2026-04-24T13:55:50.238Z</time></trkpt><trkpt lat="44.5789593" lon="10.0778637"><ele>669.0</ele><time>2026-04-24T13:55:51.238Z</time></trkpt><trkpt lat="44.5788415" lon="10.0780028"><ele>669.0</ele><time>2026-04-24T13:55:52.237Z</time></trkpt><trkpt lat="44.5787197" lon="10.0781494"><ele>669.0</ele><time>2026-04-24T13:55:53.238Z</time></trkpt><trkpt lat="44.5785854" lon="10.0782964"><ele>670.6666666666666</ele><time>2026-04-24T13:55:54.238Z</time></trkpt><trkpt lat="44.5784488" lon="10.0784515"><ele>672.3333333333333</ele><time>2026-04-24T13:55:55.238Z</time></trkpt><trkpt lat="44.5783173" lon="10.0786029"><ele>674.0</ele><time>2026-04-24T13:55:56.237Z</time></trkpt><trkpt lat="44.578196" lon="10.0787327"><ele>674.0</ele><time>2026-04-24T13:55:57.239Z</time></trkpt><trkpt lat="44.5780761" lon="10.0788179"><ele>674.0</ele><time>2026-04-24T13:55:58.237Z</time></trkpt><trkpt lat="44.5779517" lon="10.0788451"><ele>674.0</ele><time>2026-04-24T13:55:59.237Z</time></trkpt><trkpt lat="44.5778308" lon="10.0788217"><ele>674.0</ele><time>2026-04-24T13:56:00.238Z</time></trkpt><trkpt lat="44.5777264" lon="10.0787224"><ele>675.3333333333333</ele><time>2026-04-24T13:56:01.237Z</time></trkpt><trkpt lat="44.577645" lon="10.0785653"><ele>676.6666666666666</ele><time>2026-04-24T13:56:02.238Z</time></trkpt><trkpt lat="44.5775823" lon="10.078371"><ele>678.0</ele><time>2026-04-24T13:56:03.238Z</time></trkpt><trkpt lat="44.5775157" lon="10.0781593"><ele>678.0</ele><time>2026-04-24T13:56:04.238Z</time></trkpt><trkpt lat="44.5774416" lon="10.0779459"><ele>678.0</ele><time>2026-04-24T13:56:05.239Z</time></trkpt><trkpt lat="44.577376" lon="10.0777457"><ele>678.0</ele><time>2026-04-24T13:56:06.237Z</time></trkpt><trkpt lat="44.5773172" lon="10.0775612"><ele>676.75</ele><time>2026-04-24T13:56:07.238Z</time></trkpt><trkpt lat="44.577259" lon="10.077395"><ele>675.5</ele><time>2026-04-24T13:56:08.238Z</time></trkpt><trkpt lat="44.5772124" lon="10.0772456"><ele>674.25</ele><time>2026-04-24T13:56:09.239Z</time></trkpt><trkpt lat="44.5771699" lon="10.0771047"><ele>673.0</ele><time>2026-04-24T13:56:10.237Z</time></trkpt><trkpt lat="44.5771326" lon="10.076977"><ele>673.0</ele><time>2026-04-24T13:56:11.238Z</time></trkpt><trkpt lat="44.5771025" lon="10.0768692"><ele>673.0</ele><time>2026-04-24T13:56:12.238Z</time></trkpt><trkpt lat="44.5770736" lon="10.0767757"><ele>673.0</ele><time>2026-04-24T13:56:13.238Z</time></trkpt><trkpt lat="44.5770221" lon="10.0766377"><ele>673.0</ele><time>2026-04-24T13:56:15.238Z</time></trkpt><trkpt lat="44.576919" lon="10.0765983"><ele>673.0</ele><time>2026-04-24T13:56:17.239Z</time></trkpt><trkpt lat="44.5768462" lon="10.0766421"><ele>674.6666666666667</ele><time>2026-04-24T13:56:18.238Z</time></trkpt><trkpt lat="44.576776" lon="10.0767071"><ele>676.3333333333334</ele><time>2026-04-24T13:56:19.239Z</time></trkpt><trkpt lat="44.5767126" lon="10.076769"><ele>678.0</ele><time>2026-04-24T13:56:20.239Z</time></trkpt><trkpt lat="44.5766681" lon="10.0768353"><ele>679.6666666666666</ele><time>2026-04-24T13:56:21.239Z</time></trkpt><trkpt lat="44.5766108" lon="10.0770054"><ele>681.3333333333333</ele><time>2026-04-24T13:56:23.237Z</time></trkpt><trkpt lat="44.5766081" lon="10.0771006"><ele>683.0</ele><time>2026-04-24T13:56:24.238Z</time></trkpt><trkpt lat="44.5766262" lon="10.0772376"><ele>683.0</ele><time>2026-04-24T13:56:26.237Z</time></trkpt><trkpt lat="44.5766381" lon="10.0773267"><ele>683.0</ele><time>2026-04-24T13:57:24.237Z</time></trkpt><trkpt lat="44.576662" lon="10.0775116"><ele>683.0</ele><time>2026-04-24T13:57:26.239Z</time></trkpt><trkpt lat="44.5766774" lon="10.0776449"><ele>683.0</ele><time>2026-04-24T13:57:27.238Z</time></trkpt><trkpt lat="44.5766885" lon="10.0777924"><ele>683.0</ele><time>2026-04-24T13:57:28.239Z</time></trkpt><trkpt lat="44.5767038" lon="10.0779391"><ele>683.75</ele><time>2026-04-24T13:57:29.237Z</time></trkpt><trkpt lat="44.5767255" lon="10.0781025"><ele>684.5</ele><time>2026-04-24T13:57:30.237Z</time></trkpt><trkpt lat="44.576739" lon="10.0782805"><ele>685.25</ele><time>2026-04-24T13:57:31.237Z</time></trkpt><trkpt lat="44.5767331" lon="10.0784712"><ele>686.0</ele><time>2026-04-24T13:57:32.239Z</time></trkpt><trkpt lat="44.5767136" lon="10.0786558"><ele>687.25</ele><time>2026-04-24T13:57:33.238Z</time></trkpt><trkpt lat="44.5766902" lon="10.0788362"><ele>688.5</ele><time>2026-04-24T13:57:34.237Z</time></trkpt><trkpt lat="44.5766631" lon="10.0790117"><ele>689.75</ele><time>2026-04-24T13:57:35.238Z</time></trkpt><trkpt lat="44.5766376" lon="10.0791896"><ele>691.0</ele><time>2026-04-24T13:57:36.239Z</time></trkpt><trkpt lat="44.5766072" lon="10.0793681"><ele>693.0</ele><time>2026-04-24T13:57:37.238Z</time></trkpt><trkpt lat="44.5765836" lon="10.0795494"><ele>695.0</ele><time>2026-04-24T13:57:38.238Z</time></trkpt><trkpt lat="44.5765546" lon="10.0797245"><ele>697.0</ele><time>2026-04-24T13:57:39.238Z</time></trkpt><trkpt lat="44.5765293" lon="10.0798947"><ele>699.0</ele><time>2026-04-24T13:57:40.239Z</time></trkpt><trkpt lat="44.5764612" lon="10.0799983"><ele>702.0</ele><time>2026-04-24T13:57:41.238Z</time></trkpt><trkpt lat="44.5763749" lon="10.0800912"><ele>705.0</ele><time>2026-04-24T13:57:42.237Z</time></trkpt><trkpt lat="44.5762673" lon="10.0801377"><ele>708.0</ele><time>2026-04-24T13:57:43.238Z</time></trkpt><trkpt lat="44.5761442" lon="10.0801328"><ele>711.0</ele><time>2026-04-24T13:57:44.238Z</time></trkpt><trkpt lat="44.5760247" lon="10.0800969"><ele>711.0</ele><time>2026-04-24T13:57:45.239Z</time></trkpt><trkpt lat="44.5759069" lon="10.0800664"><ele>711.0</ele><time>2026-04-24T13:57:46.237Z</time></trkpt><trkpt lat="44.5757865" lon="10.0800443"><ele>711.0</ele><time>2026-04-24T13:57:47.237Z</time></trkpt><trkpt lat="44.5756807" lon="10.0800262"><ele>711.0</ele><time>2026-04-24T13:57:48.238Z</time></trkpt><trkpt lat="44.5755754" lon="10.080033"><ele>711.0</ele><time>2026-04-24T13:57:49.237Z</time></trkpt><trkpt lat="44.5754796" lon="10.0800633"><ele>711.0</ele><time>2026-04-24T13:57:50.238Z</time></trkpt><trkpt lat="44.5754072" lon="10.0801356"><ele>711.0</ele><time>2026-04-24T13:57:51.237Z</time></trkpt><trkpt lat="44.5753419" lon="10.0802203"><ele>711.0</ele><time>2026-04-24T13:57:52.237Z</time></trkpt><trkpt lat="44.5752663" lon="10.0803095"><ele>711.0</ele><time>2026-04-24T13:57:53.239Z</time></trkpt><trkpt lat="44.5751728" lon="10.0803662"><ele>712.75</ele><time>2026-04-24T13:57:54.237Z</time></trkpt><trkpt lat="44.5750585" lon="10.0803886"><ele>714.5</ele><time>2026-04-24T13:57:55.239Z</time></trkpt><trkpt lat="44.57494" lon="10.0804202"><ele>716.25</ele><time>2026-04-24T13:57:56.237Z</time></trkpt><trkpt lat="44.5747951" lon="10.080422"><ele>718.0</ele><time>2026-04-24T13:57:57.238Z</time></trkpt><trkpt lat="44.5745797" lon="10.0803817"><ele>720.5</ele><time>2026-04-24T13:57:58.236Z</time></trkpt><trkpt lat="44.574391" lon="10.0803797"><ele>723.0</ele><time>2026-04-24T13:57:59.238Z</time></trkpt><trkpt lat="44.5742637" lon="10.0803865"><ele>725.5</ele><time>2026-04-24T13:58:00.237Z</time></trkpt><trkpt lat="44.574154" lon="10.0804108"><ele>728.0</ele><time>2026-04-24T13:58:01.236Z</time></trkpt><trkpt lat="44.5740604" lon="10.0804505"><ele>728.0</ele><time>2026-04-24T13:58:02.237Z</time></trkpt><trkpt lat="44.5739627" lon="10.0806017"><ele>728.0</ele><time>2026-04-24T13:58:04.236Z</time></trkpt><trkpt lat="44.5740379" lon="10.0808699"><ele>728.0</ele><time>2026-04-24T13:58:06.236Z</time></trkpt><trkpt lat="44.5743638" lon="10.0810319"><ele>729.3333333333333</ele><time>2026-04-24T13:58:07.237Z</time></trkpt><trkpt lat="44.5745177" lon="10.0811788"><ele>730.6666666666666</ele><time>2026-04-24T13:58:08.236Z</time></trkpt><trkpt lat="44.5746545" lon="10.0813093"><ele>732.0</ele><time>2026-04-24T13:58:09.238Z</time></trkpt><trkpt lat="44.5747982" lon="10.0814526"><ele>732.0</ele><time>2026-04-24T13:58:10.236Z</time></trkpt><trkpt lat="44.574932" lon="10.0815967"><ele>732.0</ele><time>2026-04-24T13:58:11.238Z</time></trkpt><trkpt lat="44.5750695" lon="10.0817417"><ele>732.0</ele><time>2026-04-24T13:58:12.236Z</time></trkpt><trkpt lat="44.5752032" lon="10.0818911"><ele>736.6666666666666</ele><time>2026-04-24T13:58:13.238Z</time></trkpt><trkpt lat="44.5753431" lon="10.082033"><ele>741.3333333333333</ele><time>2026-04-24T13:58:14.237Z</time></trkpt><trkpt lat="44.575478" lon="10.0821712"><ele>746.0</ele><time>2026-04-24T13:58:15.237Z</time></trkpt><trkpt lat="44.5756459" lon="10.0822178"><ele>746.0</ele><time>2026-04-24T13:58:16.236Z</time></trkpt><trkpt lat="44.5757973" lon="10.0823015"><ele>746.0</ele><time>2026-04-24T13:58:17.238Z</time></trkpt><trkpt lat="44.5759591" lon="10.0823456"><ele>746.0</ele><time>2026-04-24T13:58:18.237Z</time></trkpt><trkpt lat="44.5760952" lon="10.0824059"><ele>747.0</ele><time>2026-04-24T13:58:19.237Z</time></trkpt><trkpt lat="44.5762368" lon="10.0824631"><ele>748.0</ele><time>2026-04-24T13:58:20.236Z</time></trkpt><trkpt lat="44.5763862" lon="10.0824434"><ele>749.0</ele><time>2026-04-24T13:58:21.236Z</time></trkpt><trkpt lat="44.5764693" lon="10.0823947"><ele>750.0</ele><time>2026-04-24T13:58:22.238Z</time></trkpt><trkpt lat="44.5765847" lon="10.0823818"><ele>754.5</ele><time>2026-04-24T13:58:23.236Z</time></trkpt><trkpt lat="44.5766965" lon="10.0824332"><ele>759.0</ele><time>2026-04-24T13:58:24.237Z</time></trkpt><trkpt lat="44.576761" lon="10.0824526"><ele>763.5</ele><time>2026-04-24T13:58:25.236Z</time></trkpt><trkpt lat="44.5766705" lon="10.0826617"><ele>768.0</ele><time>2026-04-24T13:58:27.238Z</time></trkpt><trkpt lat="44.5765783" lon="10.0827192"><ele>768.0</ele><time>2026-04-24T13:58:28.236Z</time></trkpt><trkpt lat="44.5764436" lon="10.08271"><ele>768.0</ele><time>2026-04-24T13:58:29.236Z</time></trkpt><trkpt lat="44.576292" lon="10.0828175"><ele>768.0</ele><time>2026-04-24T13:58:30.237Z</time></trkpt><trkpt lat="44.5761729" lon="10.0828601"><ele>768.0</ele><time>2026-04-24T13:58:31.238Z</time></trkpt><trkpt lat="44.5760412" lon="10.0829062"><ele>767.5</ele><time>2026-04-24T13:58:32.238Z</time></trkpt><trkpt lat="44.5759091" lon="10.0829419"><ele>767.0</ele><time>2026-04-24T13:58:33.238Z</time></trkpt><trkpt lat="44.575769" lon="10.0829726"><ele>766.5</ele><time>2026-04-24T13:58:34.237Z</time></trkpt><trkpt lat="44.5756575" lon="10.0828771"><ele>766.0</ele><time>2026-04-24T13:58:35.238Z</time></trkpt><trkpt lat="44.5755463" lon="10.0828631"><ele>766.0</ele><time>2026-04-24T13:58:36.238Z</time></trkpt><trkpt lat="44.5754429" lon="10.0828972"><ele>766.0</ele><time>2026-04-24T13:58:37.238Z</time></trkpt><trkpt lat="44.5753478" lon="10.0829664"><ele>766.0</ele><time>2026-04-24T13:58:38.238Z</time></trkpt><trkpt lat="44.5752444" lon="10.0830671"><ele>766.0</ele><time>2026-04-24T13:58:39.238Z</time></trkpt><trkpt lat="44.5751585" lon="10.0832048"><ele>770.75</ele><time>2026-04-24T13:58:40.237Z</time></trkpt><trkpt lat="44.5750735" lon="10.0833615"><ele>775.5</ele><time>2026-04-24T13:58:41.237Z</time></trkpt><trkpt lat="44.5749943" lon="10.0835047"><ele>780.25</ele><time>2026-04-24T13:58:42.237Z</time></trkpt><trkpt lat="44.5749325" lon="10.0836195"><ele>785.0</ele><time>2026-04-24T13:58:43.236Z</time></trkpt><trkpt lat="44.5748658" lon="10.0837358"><ele>785.0</ele><time>2026-04-24T13:58:44.237Z</time></trkpt><trkpt lat="44.5748217" lon="10.0838529"><ele>785.0</ele><time>2026-04-24T13:58:45.237Z</time></trkpt><trkpt lat="44.5748402" lon="10.0839555"><ele>785.0</ele><time>2026-04-24T13:58:46.237Z</time></trkpt><trkpt lat="44.574922" lon="10.0840617"><ele>785.0</ele><time>2026-04-24T13:58:47.237Z</time></trkpt><trkpt lat="44.5749792" lon="10.084133"><ele>785.0</ele><time>2026-04-24T13:58:48.237Z</time></trkpt><trkpt lat="44.5750964" lon="10.0841093"><ele>785.0</ele><time>2026-04-24T13:58:49.237Z</time></trkpt><trkpt lat="44.5752368" lon="10.0840443"><ele>785.0</ele><time>2026-04-24T13:58:50.237Z</time></trkpt><trkpt lat="44.5753063" lon="10.0840761"><ele>785.0</ele><time>2026-04-24T13:58:51.236Z</time></trkpt><trkpt lat="44.5753694" lon="10.0841329"><ele>785.0</ele><time>2026-04-24T13:58:52.237Z</time></trkpt><trkpt lat="44.5754116" lon="10.0842173"><ele>785.0</ele><time>2026-04-24T13:58:53.237Z</time></trkpt><trkpt lat="44.5754334" lon="10.0843293"><ele>789.0</ele><time>2026-04-24T13:58:54.237Z</time></trkpt><trkpt lat="44.5754365" lon="10.0844578"><ele>793.0</ele><time>2026-04-24T13:58:55.237Z</time></trkpt><trkpt lat="44.5754403" lon="10.0846034"><ele>797.0</ele><time>2026-04-24T13:58:56.238Z</time></trkpt><trkpt lat="44.5754501" lon="10.0847679"><ele>801.0</ele><time>2026-04-24T13:58:57.237Z</time></trkpt><trkpt lat="44.5754638" lon="10.0849598"><ele>804.0</ele><time>2026-04-24T13:58:58.237Z</time></trkpt><trkpt lat="44.5754788" lon="10.085188"><ele>807.0</ele><time>2026-04-24T13:58:59.236Z</time></trkpt><trkpt lat="44.5754911" lon="10.0854251"><ele>810.0</ele><time>2026-04-24T13:59:00.236Z</time></trkpt><trkpt lat="44.5755015" lon="10.0856434"><ele>811.8</ele><time>2026-04-24T13:59:01.236Z</time></trkpt><trkpt lat="44.5755356" lon="10.0858322"><ele>813.6</ele><time>2026-04-24T13:59:02.237Z</time></trkpt><trkpt lat="44.575467" lon="10.0859177"><ele>815.4000000000001</ele><time>2026-04-24T13:59:03.237Z</time></trkpt><trkpt lat="44.5754215" lon="10.086029"><ele>817.2</ele><time>2026-04-24T13:59:04.237Z</time></trkpt><trkpt lat="44.5753248" lon="10.0860211"><ele>819.0</ele><time>2026-04-24T13:59:05.236Z</time></trkpt><trkpt lat="44.575232" lon="10.0860282"><ele>819.0</ele><time>2026-04-24T13:59:06.236Z</time></trkpt><trkpt lat="44.5751343" lon="10.0860094"><ele>819.0</ele><time>2026-04-24T13:59:07.236Z</time></trkpt><trkpt lat="44.5750375" lon="10.0859361"><ele>819.0</ele><time>2026-04-24T13:59:08.236Z</time></trkpt><trkpt lat="44.5749388" lon="10.0858901"><ele>819.0</ele><time>2026-04-24T13:59:09.236Z</time></trkpt><trkpt lat="44.574846" lon="10.0858587"><ele>819.0</ele><time>2026-04-24T13:59:10.236Z</time></trkpt><trkpt lat="44.5747506" lon="10.0858465"><ele>819.0</ele><time>2026-04-24T13:59:11.237Z</time></trkpt><trkpt lat="44.5746561" lon="10.0859783"><ele>819.0</ele><time>2026-04-24T13:59:12.237Z</time></trkpt><trkpt lat="44.5746776" lon="10.0861308"><ele>819.0</ele><time>2026-04-24T13:59:13.236Z</time></trkpt><trkpt lat="44.5747079" lon="10.086315"><ele>819.0</ele><time>2026-04-24T13:59:15.236Z</time></trkpt><trkpt lat="44.5747834" lon="10.0864266"><ele>819.0</ele><time>2026-04-24T13:59:16.238Z</time></trkpt><trkpt lat="44.5748705" lon="10.0865313"><ele>819.0</ele><time>2026-04-24T13:59:17.237Z</time></trkpt><trkpt lat="44.574947" lon="10.086612"><ele>819.0</ele><time>2026-04-24T13:59:18.237Z</time></trkpt><trkpt lat="44.5749771" lon="10.0866987"><ele>819.0</ele><time>2026-04-24T13:59:19.238Z</time></trkpt><trkpt lat="44.5749658" lon="10.0868692"><ele>819.0</ele><time>2026-04-24T13:59:21.238Z</time></trkpt><trkpt lat="44.5749082" lon="10.0869224"><ele>820.4000000000001</ele><time>2026-04-24T13:59:22.237Z</time></trkpt><trkpt lat="44.5748332" lon="10.0869286"><ele>821.8</ele><time>2026-04-24T13:59:23.238Z</time></trkpt><trkpt lat="44.5747374" lon="10.0869031"><ele>823.2</ele><time>2026-04-24T13:59:24.238Z</time></trkpt><trkpt lat="44.5746302" lon="10.086833"><ele>824.5999999999999</ele><time>2026-04-24T13:59:25.237Z</time></trkpt><trkpt lat="44.5745005" lon="10.0867463"><ele>826.0</ele><time>2026-04-24T13:59:26.237Z</time></trkpt><trkpt lat="44.5743631" lon="10.0866597"><ele>827.3333333333333</ele><time>2026-04-24T13:59:27.237Z</time></trkpt><trkpt lat="44.5741943" lon="10.0865546"><ele>828.6666666666667</ele><time>2026-04-24T13:59:28.236Z</time></trkpt><trkpt lat="44.5740281" lon="10.0864419"><ele>830.0</ele><time>2026-04-24T13:59:29.237Z</time></trkpt><trkpt lat="44.5738716" lon="10.0863403"><ele>830.0</ele><time>2026-04-24T13:59:30.236Z</time></trkpt><trkpt lat="44.5737179" lon="10.0862664"><ele>830.0</ele><time>2026-04-24T13:59:31.237Z</time></trkpt><trkpt lat="44.5735784" lon="10.0861804"><ele>830.0</ele><time>2026-04-24T13:59:32.237Z</time></trkpt><trkpt lat="44.5734533" lon="10.08606"><ele>829.0</ele><time>2026-04-24T13:59:33.237Z</time></trkpt><trkpt lat="44.5733239" lon="10.0859141"><ele>828.0</ele><time>2026-04-24T13:59:34.237Z</time></trkpt><trkpt lat="44.573183" lon="10.0857795"><ele>827.0</ele><time>2026-04-24T13:59:35.238Z</time></trkpt><trkpt lat="44.5730302" lon="10.0856414"><ele>827.0</ele><time>2026-04-24T13:59:36.238Z</time></trkpt><trkpt lat="44.5728857" lon="10.0854964"><ele>827.0</ele><time>2026-04-24T13:59:37.237Z</time></trkpt><trkpt lat="44.5727458" lon="10.0853419"><ele>827.0</ele><time>2026-04-24T13:59:38.237Z</time></trkpt><trkpt lat="44.5726119" lon="10.0851762"><ele>831.0</ele><time>2026-04-24T13:59:39.236Z</time></trkpt><trkpt lat="44.5724934" lon="10.0850251"><ele>835.0</ele><time>2026-04-24T13:59:40.237Z</time></trkpt><trkpt lat="44.5723664" lon="10.0848742"><ele>839.0</ele><time>2026-04-24T13:59:41.236Z</time></trkpt><trkpt lat="44.572257" lon="10.0847282"><ele>839.0</ele><time>2026-04-24T13:59:42.237Z</time></trkpt><trkpt lat="44.5721665" lon="10.0846049"><ele>839.0</ele><time>2026-04-24T13:59:44.236Z</time></trkpt><trkpt lat="44.572128" lon="10.0845172"><ele>839.0</ele><time>2026-04-24T13:59:47.237Z</time></trkpt><trkpt lat="44.5721042" lon="10.0846316"><ele>839.0</ele><time>2026-04-24T13:59:54.236Z</time></trkpt><trkpt lat="44.5719993" lon="10.0846546"><ele>839.0</ele><time>2026-04-24T13:59:56.237Z</time></trkpt><trkpt lat="44.5719284" lon="10.0846627"><ele>843.8000000000001</ele><time>2026-04-24T13:59:57.237Z</time></trkpt><trkpt lat="44.5718619" lon="10.084749"><ele>848.6</ele><time>2026-04-24T13:59:58.238Z</time></trkpt><trkpt lat="44.5717991" lon="10.0848509"><ele>853.4</ele><time>2026-04-24T13:59:59.238Z</time></trkpt><trkpt lat="44.5718069" lon="10.0850133"><ele>858.2</ele><time>2026-04-24T14:00:00.237Z</time></trkpt><trkpt lat="44.571779" lon="10.0851539"><ele>863.0</ele><time>2026-04-24T14:00:01.236Z</time></trkpt><trkpt lat="44.5717616" lon="10.0852759"><ele>864.3333333333334</ele><time>2026-04-24T14:00:02.237Z</time></trkpt><trkpt lat="44.5718502" lon="10.0856031"><ele>865.6666666666667</ele><time>2026-04-24T14:00:03.236Z</time></trkpt><trkpt lat="44.5718834" lon="10.085862"><ele>867.0</ele><time>2026-04-24T14:00:04.237Z</time></trkpt><trkpt lat="44.5719272" lon="10.0861552"><ele>868.3333333333333</ele><time>2026-04-24T14:00:05.237Z</time></trkpt><trkpt lat="44.5719719" lon="10.0864507"><ele>869.6666666666666</ele><time>2026-04-24T14:00:06.237Z</time></trkpt><trkpt lat="44.5720137" lon="10.0867084"><ele>871.0</ele><time>2026-04-24T14:00:07.238Z</time></trkpt><trkpt lat="44.5720511" lon="10.0869386"><ele>872.25</ele><time>2026-04-24T14:00:08.238Z</time></trkpt><trkpt lat="44.5720761" lon="10.0871194"><ele>873.5</ele><time>2026-04-24T14:00:09.237Z</time></trkpt><trkpt lat="44.5720757" lon="10.087274"><ele>874.75</ele><time>2026-04-24T14:00:10.236Z</time></trkpt><trkpt lat="44.5720416" lon="10.0874205"><ele>876.0</ele><time>2026-04-24T14:00:11.236Z</time></trkpt><trkpt lat="44.5719771" lon="10.0875361"><ele>876.0</ele><time>2026-04-24T14:00:12.237Z</time></trkpt><trkpt lat="44.5718751" lon="10.0876382"><ele>876.0</ele><time>2026-04-24T14:00:13.237Z</time></trkpt><trkpt lat="44.5717511" lon="10.0877466"><ele>876.0</ele><time>2026-04-24T14:00:14.237Z</time></trkpt><trkpt lat="44.5716357" lon="10.0878435"><ele>876.0</ele><time>2026-04-24T14:00:15.237Z</time></trkpt><trkpt lat="44.5715267" lon="10.0879018"><ele>876.0</ele><time>2026-04-24T14:00:16.237Z</time></trkpt><trkpt lat="44.5714209" lon="10.0879099"><ele>875.9999999999999</ele><time>2026-04-24T14:00:17.238Z</time></trkpt><trkpt lat="44.5713077" lon="10.087881"><ele>875.9999999999999</ele><time>2026-04-24T14:00:18.237Z</time></trkpt><trkpt lat="44.5712123" lon="10.0878091"><ele>876.0</ele><time>2026-04-24T14:00:19.237Z</time></trkpt><trkpt lat="44.571113" lon="10.0877448"><ele>876.0</ele><time>2026-04-24T14:00:20.237Z</time></trkpt><trkpt lat="44.5710147" lon="10.0875689"><ele>876.0</ele><time>2026-04-24T14:00:21.238Z</time></trkpt><trkpt lat="44.5709333" lon="10.0874578"><ele>875.9999999999999</ele><time>2026-04-24T14:00:22.236Z</time></trkpt><trkpt lat="44.5708376" lon="10.0874027"><ele>875.9999999999999</ele><time>2026-04-24T14:00:23.237Z</time></trkpt><trkpt lat="44.5707636" lon="10.0873711"><ele>876.0</ele><time>2026-04-24T14:00:24.237Z</time></trkpt><trkpt lat="44.5706782" lon="10.0873733"><ele>876.0</ele><time>2026-04-24T14:00:25.236Z</time></trkpt><trkpt lat="44.5705867" lon="10.0874486"><ele>879.75</ele><time>2026-04-24T14:00:26.236Z</time></trkpt><trkpt lat="44.5704752" lon="10.0875313"><ele>883.5</ele><time>2026-04-24T14:00:27.237Z</time></trkpt><trkpt lat="44.5703652" lon="10.087621"><ele>887.25</ele><time>2026-04-24T14:00:28.238Z</time></trkpt><trkpt lat="44.5702346" lon="10.0877307"><ele>891.0</ele><time>2026-04-24T14:00:29.237Z</time></trkpt><trkpt lat="44.5700567" lon="10.0878275"><ele>893.0</ele><time>2026-04-24T14:00:30.237Z</time></trkpt><trkpt lat="44.5699142" lon="10.0878978"><ele>895.0</ele><time>2026-04-24T14:00:31.236Z</time></trkpt><trkpt lat="44.5697748" lon="10.0879462"><ele>897.0</ele><time>2026-04-24T14:00:32.237Z</time></trkpt><trkpt lat="44.5696373" lon="10.0880342"><ele>899.0</ele><time>2026-04-24T14:00:33.237Z</time></trkpt><trkpt lat="44.5694977" lon="10.0881152"><ele>903.25</ele><time>2026-04-24T14:00:34.238Z</time></trkpt><trkpt lat="44.5693599" lon="10.0882019"><ele>907.5</ele><time>2026-04-24T14:00:35.238Z</time></trkpt><trkpt lat="44.5692297" lon="10.0882846"><ele>911.75</ele><time>2026-04-24T14:00:36.236Z</time></trkpt><trkpt lat="44.5691082" lon="10.0883621"><ele>916.0</ele><time>2026-04-24T14:00:37.236Z</time></trkpt><trkpt lat="44.56899" lon="10.088431"><ele>916.0</ele><time>2026-04-24T14:00:38.237Z</time></trkpt><trkpt lat="44.5689599" lon="10.0885704"><ele>915.9999999999999</ele><time>2026-04-24T14:00:39.237Z</time></trkpt><trkpt lat="44.568964" lon="10.0886994"><ele>915.9999999999999</ele><time>2026-04-24T14:00:40.238Z</time></trkpt><trkpt lat="44.5689629" lon="10.0888183"><ele>916.0</ele><time>2026-04-24T14:00:41.236Z</time></trkpt><trkpt lat="44.5690172" lon="10.0889538"><ele>916.0</ele><time>2026-04-24T14:00:42.236Z</time></trkpt><trkpt lat="44.5690639" lon="10.0890911"><ele>916.1999999999999</ele><time>2026-04-24T14:00:43.237Z</time></trkpt><trkpt lat="44.5690831" lon="10.0892136"><ele>916.3999999999999</ele><time>2026-04-24T14:00:44.237Z</time></trkpt><trkpt lat="44.5691074" lon="10.0893334"><ele>916.6</ele><time>2026-04-24T14:00:45.238Z</time></trkpt><trkpt lat="44.5690673" lon="10.0894885"><ele>916.8</ele><time>2026-04-24T14:00:46.236Z</time></trkpt><trkpt lat="44.5690266" lon="10.0896863"><ele>917.0</ele><time>2026-04-24T14:00:47.237Z</time></trkpt><trkpt lat="44.5689781" lon="10.0898966"><ele>918.3333333333334</ele><time>2026-04-24T14:00:48.237Z</time></trkpt><trkpt lat="44.5689191" lon="10.0901248"><ele>919.6666666666667</ele><time>2026-04-24T14:00:49.238Z</time></trkpt><trkpt lat="44.5688639" lon="10.090353"><ele>921.0</ele><time>2026-04-24T14:00:50.237Z</time></trkpt><trkpt lat="44.5688199" lon="10.0905684"><ele>921.0</ele><time>2026-04-24T14:00:51.238Z</time></trkpt><trkpt lat="44.5687922" lon="10.0907449"><ele>920.9999999999999</ele><time>2026-04-24T14:00:52.237Z</time></trkpt><trkpt lat="44.5687625" lon="10.0908966"><ele>920.9999999999999</ele><time>2026-04-24T14:00:53.237Z</time></trkpt><trkpt lat="44.5687123" lon="10.0910065"><ele>921.0</ele><time>2026-04-24T14:00:54.237Z</time></trkpt><trkpt lat="44.5686635" lon="10.0911048"><ele>921.0</ele><time>2026-04-24T14:00:55.237Z</time></trkpt><trkpt lat="44.5685679" lon="10.0910709"><ele>925.0</ele><time>2026-04-24T14:00:56.238Z</time></trkpt><trkpt lat="44.5684986" lon="10.0910728"><ele>929.0</ele><time>2026-04-24T14:00:57.236Z</time></trkpt><trkpt lat="44.568429" lon="10.0909765"><ele>933.0</ele><time>2026-04-24T14:00:58.237Z</time></trkpt><trkpt lat="44.568354" lon="10.0908823"><ele>937.0</ele><time>2026-04-24T14:00:59.237Z</time></trkpt><trkpt lat="44.5682298" lon="10.0906596"><ele>937.0</ele><time>2026-04-24T14:01:00.236Z</time></trkpt><trkpt lat="44.5681305" lon="10.0905197"><ele>937.0</ele><time>2026-04-24T14:01:01.237Z</time></trkpt><trkpt lat="44.5680294" lon="10.0903921"><ele>937.0</ele><time>2026-04-24T14:01:02.236Z</time></trkpt><trkpt lat="44.5679176" lon="10.0902868"><ele>937.0</ele><time>2026-04-24T14:01:03.236Z</time></trkpt><trkpt lat="44.5677889" lon="10.0901814"><ele>942.25</ele><time>2026-04-24T14:01:04.236Z</time></trkpt><trkpt lat="44.5676692" lon="10.0900774"><ele>947.5</ele><time>2026-04-24T14:01:05.238Z</time></trkpt><trkpt lat="44.5675815" lon="10.0899627"><ele>952.75</ele><time>2026-04-24T14:01:06.238Z</time></trkpt><trkpt lat="44.567515" lon="10.0898161"><ele>958.0</ele><time>2026-04-24T14:01:07.237Z</time></trkpt><trkpt lat="44.5674614" lon="10.0896355"><ele>958.0</ele><time>2026-04-24T14:01:08.238Z</time></trkpt><trkpt lat="44.5674167" lon="10.0894241"><ele>958.0</ele><time>2026-04-24T14:01:09.238Z</time></trkpt><trkpt lat="44.5673976" lon="10.0892245"><ele>958.0</ele><time>2026-04-24T14:01:10.237Z</time></trkpt><trkpt lat="44.5673903" lon="10.0890427"><ele>958.0</ele><time>2026-04-24T14:01:11.236Z</time></trkpt><trkpt lat="44.5673688" lon="10.0888749"><ele>957.0</ele><time>2026-04-24T14:01:12.236Z</time></trkpt><trkpt lat="44.5673503" lon="10.0887276"><ele>956.0</ele><time>2026-04-24T14:01:13.237Z</time></trkpt><trkpt lat="44.5673186" lon="10.088585"><ele>955.0</ele><time>2026-04-24T14:01:14.236Z</time></trkpt><trkpt lat="44.5672455" lon="10.0884684"><ele>954.0</ele><time>2026-04-24T14:01:15.238Z</time></trkpt><trkpt lat="44.5671801" lon="10.088402"><ele>953.0</ele><time>2026-04-24T14:01:16.237Z</time></trkpt><trkpt lat="44.5671309" lon="10.0885353"><ele>953.0</ele><time>2026-04-24T14:01:17.238Z</time></trkpt><trkpt lat="44.567059" lon="10.0887176"><ele>953.0</ele><time>2026-04-24T14:01:18.237Z</time></trkpt><trkpt lat="44.5670467" lon="10.0888663"><ele>953.0</ele><time>2026-04-24T14:01:19.237Z</time></trkpt><trkpt lat="44.5671203" lon="10.089136"><ele>954.25</ele><time>2026-04-24T14:01:20.237Z</time></trkpt><trkpt lat="44.5670935" lon="10.089301"><ele>955.5</ele><time>2026-04-24T14:01:21.238Z</time></trkpt><trkpt lat="44.5670648" lon="10.0895009"><ele>956.75</ele><time>2026-04-24T14:01:22.236Z</time></trkpt><trkpt lat="44.5670749" lon="10.0896932"><ele>958.0</ele><time>2026-04-24T14:01:23.237Z</time></trkpt><trkpt lat="44.5670823" lon="10.0898855"><ele>958.25</ele><time>2026-04-24T14:01:24.237Z</time></trkpt><trkpt lat="44.5670784" lon="10.0900343"><ele>958.5</ele><time>2026-04-24T14:01:25.236Z</time></trkpt><trkpt lat="44.5670357" lon="10.0901564"><ele>958.75</ele><time>2026-04-24T14:01:26.237Z</time></trkpt><trkpt lat="44.5669793" lon="10.0902951"><ele>959.0</ele><time>2026-04-24T14:01:27.238Z</time></trkpt><trkpt lat="44.5668575" lon="10.0904042"><ele>968.0</ele><time>2026-04-24T14:01:28.238Z</time></trkpt><trkpt lat="44.5667443" lon="10.0905616"><ele>977.0</ele><time>2026-04-24T14:01:29.237Z</time></trkpt><trkpt lat="44.5666234" lon="10.0907236"><ele>986.0</ele><time>2026-04-24T14:01:30.237Z</time></trkpt><trkpt lat="44.5665264" lon="10.0908588"><ele>986.0</ele><time>2026-04-24T14:01:31.238Z</time></trkpt><trkpt lat="44.5664397" lon="10.0909699"><ele>985.9999999999999</ele><time>2026-04-24T14:01:32.237Z</time></trkpt><trkpt lat="44.5663884" lon="10.0910586"><ele>985.9999999999999</ele><time>2026-04-24T14:01:33.236Z</time></trkpt><trkpt lat="44.5663802" lon="10.0911735"><ele>986.0</ele><time>2026-04-24T14:01:34.236Z</time></trkpt><trkpt lat="44.5663869" lon="10.0913045"><ele>986.0</ele><time>2026-04-24T14:01:35.235Z</time></trkpt><trkpt lat="44.566397" lon="10.0914411"><ele>986.0</ele><time>2026-04-24T14:01:36.236Z</time></trkpt><trkpt lat="44.5663894" lon="10.0915604"><ele>985.9999999999999</ele><time>2026-04-24T14:01:37.236Z</time></trkpt><trkpt lat="44.5663467" lon="10.0916939"><ele>985.9999999999999</ele><time>2026-04-24T14:01:38.236Z</time></trkpt><trkpt lat="44.5662876" lon="10.0918122"><ele>986.0</ele><time>2026-04-24T14:01:39.237Z</time></trkpt><trkpt lat="44.5662095" lon="10.0919037"><ele>986.0</ele><time>2026-04-24T14:01:40.236Z</time></trkpt><trkpt lat="44.5661134" lon="10.0919521"><ele>990.5</ele><time>2026-04-24T14:01:41.236Z</time></trkpt><trkpt lat="44.5660095" lon="10.0919784"><ele>995.0</ele><time>2026-04-24T14:01:42.237Z</time></trkpt><trkpt lat="44.5658716" lon="10.0919553"><ele>999.5</ele><time>2026-04-24T14:01:43.235Z</time></trkpt><trkpt lat="44.5657524" lon="10.0919747"><ele>1004.0</ele><time>2026-04-24T14:01:44.236Z</time></trkpt><trkpt lat="44.5656103" lon="10.091973"><ele>1004.0</ele><time>2026-04-24T14:01:45.236Z</time></trkpt><trkpt lat="44.5654619" lon="10.091987"><ele>1004.0</ele><time>2026-04-24T14:01:46.235Z</time></trkpt><trkpt lat="44.565298" lon="10.0919952"><ele>1004.0</ele><time>2026-04-24T14:01:47.236Z</time></trkpt><trkpt lat="44.5651601" lon="10.0919997"><ele>1005.25</ele><time>2026-04-24T14:01:48.236Z</time></trkpt><trkpt lat="44.5650359" lon="10.0919988"><ele>1006.5</ele><time>2026-04-24T14:01:49.236Z</time></trkpt><trkpt lat="44.5649242" lon="10.0920018"><ele>1007.75</ele><time>2026-04-24T14:01:50.237Z</time></trkpt><trkpt lat="44.5648214" lon="10.0920409"><ele>1009.0</ele><time>2026-04-24T14:01:51.237Z</time></trkpt><trkpt lat="44.5647234" lon="10.0921263"><ele>1009.0</ele><time>2026-04-24T14:01:52.235Z</time></trkpt><trkpt lat="44.5646674" lon="10.0922381"><ele>1009.0000000000001</ele><time>2026-04-24T14:01:53.236Z</time></trkpt><trkpt lat="44.5646371" lon="10.0923718"><ele>1009.0000000000001</ele><time>2026-04-24T14:01:54.236Z</time></trkpt><trkpt lat="44.5646234" lon="10.092509"><ele>1009.0</ele><time>2026-04-24T14:01:55.236Z</time></trkpt><trkpt lat="44.5646578" lon="10.0926708"><ele>1009.0</ele><time>2026-04-24T14:01:56.235Z</time></trkpt><trkpt lat="44.5646727" lon="10.0928302"><ele>1009.5</ele><time>2026-04-24T14:01:57.236Z</time></trkpt><trkpt lat="44.5647043" lon="10.0930029"><ele>1010.0</ele><time>2026-04-24T14:01:58.235Z</time></trkpt><trkpt lat="44.564747" lon="10.0931917"><ele>1010.5</ele><time>2026-04-24T14:01:59.237Z</time></trkpt><trkpt lat="44.5647799" lon="10.093384"><ele>1011.0</ele><time>2026-04-24T14:02:00.236Z</time></trkpt><trkpt lat="44.5648191" lon="10.0935865"><ele>1012.5999999999999</ele><time>2026-04-24T14:02:01.235Z</time></trkpt><trkpt lat="44.5648322" lon="10.093754"><ele>1014.1999999999999</ele><time>2026-04-24T14:02:02.235Z</time></trkpt><trkpt lat="44.5648585" lon="10.0938954"><ele>1015.8000000000001</ele><time>2026-04-24T14:02:03.236Z</time></trkpt><trkpt lat="44.5648557" lon="10.0939951"><ele>1017.4000000000001</ele><time>2026-04-24T14:02:04.235Z</time></trkpt><trkpt lat="44.5648093" lon="10.0941016"><ele>1019.0</ele><time>2026-04-24T14:02:05.237Z</time></trkpt><trkpt lat="44.5647484" lon="10.0942286"><ele>1020.4000000000001</ele><time>2026-04-24T14:02:06.236Z</time></trkpt><trkpt lat="44.5646558" lon="10.0943389"><ele>1021.8000000000001</ele><time>2026-04-24T14:02:07.236Z</time></trkpt><trkpt lat="44.5645935" lon="10.0944657"><ele>1023.1999999999999</ele><time>2026-04-24T14:02:08.236Z</time></trkpt><trkpt lat="44.564565" lon="10.0945986"><ele>1024.6</ele><time>2026-04-24T14:02:09.235Z</time></trkpt><trkpt lat="44.5645618" lon="10.0947586"><ele>1026.0</ele><time>2026-04-24T14:02:10.236Z</time></trkpt><trkpt lat="44.5645929" lon="10.0949099"><ele>1027.3999999999999</ele><time>2026-04-24T14:02:11.235Z</time></trkpt><trkpt lat="44.5646383" lon="10.0950571"><ele>1028.8</ele><time>2026-04-24T14:02:12.236Z</time></trkpt><trkpt lat="44.5646969" lon="10.0951816"><ele>1030.1999999999998</ele><time>2026-04-24T14:02:13.237Z</time></trkpt><trkpt lat="44.5647674" lon="10.0952947"><ele>1031.6</ele><time>2026-04-24T14:02:14.236Z</time></trkpt><trkpt lat="44.5648456" lon="10.0953865"><ele>1033.0</ele><time>2026-04-24T14:02:15.235Z</time></trkpt><trkpt lat="44.5649452" lon="10.0954452"><ele>1033.0</ele><time>2026-04-24T14:02:16.237Z</time></trkpt><trkpt lat="44.565017" lon="10.0955443"><ele>1033.0</ele><time>2026-04-24T14:02:17.236Z</time></trkpt><trkpt lat="44.5650424" lon="10.095704"><ele>1033.0</ele><time>2026-04-24T14:02:18.236Z</time></trkpt><trkpt lat="44.5650922" lon="10.0958681"><ele>1033.0</ele><time>2026-04-24T14:02:19.235Z</time></trkpt><trkpt lat="44.5651304" lon="10.096041"><ele>1035.2</ele><time>2026-04-24T14:02:20.235Z</time></trkpt><trkpt lat="44.565083" lon="10.096189"><ele>1037.4</ele><time>2026-04-24T14:02:21.235Z</time></trkpt><trkpt lat="44.5650529" lon="10.0963069"><ele>1039.6000000000001</ele><time>2026-04-24T14:02:22.235Z</time></trkpt><trkpt lat="44.5649928" lon="10.0964171"><ele>1041.8</ele><time>2026-04-24T14:02:23.236Z</time></trkpt><trkpt lat="44.5649346" lon="10.0965172"><ele>1044.0</ele><time>2026-04-24T14:02:24.236Z</time></trkpt><trkpt lat="44.5648744" lon="10.0966064"><ele>1044.1666666666667</ele><time>2026-04-24T14:02:25.236Z</time></trkpt><trkpt lat="44.5648264" lon="10.0966678"><ele>1044.3333333333333</ele><time>2026-04-24T14:02:26.236Z</time></trkpt><trkpt lat="44.5647473" lon="10.0967721"><ele>1044.5</ele><time>2026-04-24T14:02:28.235Z</time></trkpt><trkpt lat="44.5646691" lon="10.096841"><ele>1044.6666666666665</ele><time>2026-04-24T14:02:30.235Z</time></trkpt><trkpt lat="44.5645764" lon="10.096853"><ele>1044.8333333333333</ele><time>2026-04-24T14:02:32.237Z</time></trkpt><trkpt lat="44.5645178" lon="10.0968133"><ele>1045.0</ele><time>2026-04-24T14:02:34.236Z</time></trkpt><trkpt lat="44.5644506" lon="10.0967269"><ele>1047.1666666666665</ele><time>2026-04-24T14:02:36.237Z</time></trkpt><trkpt lat="44.564391" lon="10.09659"><ele>1049.3333333333333</ele><time>2026-04-24T14:02:38.236Z</time></trkpt><trkpt lat="44.5643706" lon="10.0964953"><ele>1051.5</ele><time>2026-04-24T14:02:39.235Z</time></trkpt><trkpt lat="44.5643539" lon="10.0964033"><ele>1053.6666666666667</ele><time>2026-04-24T14:02:40.237Z</time></trkpt><trkpt lat="44.564339" lon="10.0963076"><ele>1055.8333333333335</ele><time>2026-04-24T14:02:41.236Z</time></trkpt><trkpt lat="44.5643119" lon="10.0962145"><ele>1058.0</ele><time>2026-04-24T14:02:42.235Z</time></trkpt><trkpt lat="44.5642689" lon="10.0961253"><ele>1058.8</ele><time>2026-04-24T14:02:43.237Z</time></trkpt><trkpt lat="44.5642032" lon="10.0960497"><ele>1059.6</ele><time>2026-04-24T14:02:44.236Z</time></trkpt><trkpt lat="44.5641187" lon="10.0960083"><ele>1060.4</ele><time>2026-04-24T14:02:45.236Z</time></trkpt><trkpt lat="44.5640022" lon="10.0960137"><ele>1061.2</ele><time>2026-04-24T14:02:46.235Z</time></trkpt><trkpt lat="44.5638613" lon="10.0960523"><ele>1062.0</ele><time>2026-04-24T14:02:47.236Z</time></trkpt><trkpt lat="44.5637261" lon="10.096095"><ele>1065.6</ele><time>2026-04-24T14:02:48.236Z</time></trkpt><trkpt lat="44.5636158" lon="10.0961256"><ele>1069.2</ele><time>2026-04-24T14:02:49.236Z</time></trkpt><trkpt lat="44.5635438" lon="10.096138"><ele>1072.8</ele><time>2026-04-24T14:02:50.236Z</time></trkpt><trkpt lat="44.5634298" lon="10.0961697"><ele>1076.4</ele><time>2026-04-24T14:02:52.237Z</time></trkpt><trkpt lat="44.5633453" lon="10.096187"><ele>1080.0</ele><time>2026-04-24T14:02:54.235Z</time></trkpt><trkpt lat="44.563255" lon="10.0962143"><ele>1080.0</ele><time>2026-04-24T14:02:56.236Z</time></trkpt><trkpt lat="44.5631906" lon="10.0962318"><ele>1080.0</ele><time>2026-04-24T14:02:58.235Z</time></trkpt><trkpt lat="44.5631278" lon="10.09625"><ele>1080.0</ele><time>2026-04-24T14:03:01.237Z</time></trkpt><trkpt lat="44.5630277" lon="10.096265"><ele>1080.0</ele><time>2026-04-24T14:03:04.236Z</time></trkpt><trkpt lat="44.5629637" lon="10.0962748"><ele>1080.0</ele><time>2026-04-24T14:03:05.236Z</time></trkpt><trkpt lat="44.562889" lon="10.0962911"><ele>1080.0</ele><time>2026-04-24T14:03:06.236Z</time></trkpt><trkpt lat="44.5627985" lon="10.0962922"><ele>1080.25</ele><time>2026-04-24T14:03:07.237Z</time></trkpt><trkpt lat="44.5626582" lon="10.0963063"><ele>1080.5</ele><time>2026-04-24T14:03:08.236Z</time></trkpt><trkpt lat="44.5625182" lon="10.0964318"><ele>1080.75</ele><time>2026-04-24T14:03:09.235Z</time></trkpt><trkpt lat="44.5623906" lon="10.0965125"><ele>1081.0</ele><time>2026-04-24T14:03:10.236Z</time></trkpt><trkpt lat="44.562282" lon="10.0966318"><ele>1081.0</ele><time>2026-04-24T14:03:11.235Z</time></trkpt><trkpt lat="44.5621539" lon="10.0967554"><ele>1081.0</ele><time>2026-04-24T14:03:12.237Z</time></trkpt><trkpt lat="44.5620245" lon="10.0969028"><ele>1081.0</ele><time>2026-04-24T14:03:13.236Z</time></trkpt><trkpt lat="44.5618946" lon="10.0970417"><ele>1086.6666666666665</ele><time>2026-04-24T14:03:14.236Z</time></trkpt><trkpt lat="44.5617623" lon="10.0971822"><ele>1092.3333333333333</ele><time>2026-04-24T14:03:15.237Z</time></trkpt><trkpt lat="44.5616299" lon="10.0973078"><ele>1098.0</ele><time>2026-04-24T14:03:16.237Z</time></trkpt><trkpt lat="44.5615328" lon="10.0974217"><ele>1098.0</ele><time>2026-04-24T14:03:17.236Z</time></trkpt><trkpt lat="44.5614233" lon="10.0975387"><ele>1098.0</ele><time>2026-04-24T14:03:18.235Z</time></trkpt><trkpt lat="44.5613709" lon="10.0976905"><ele>1098.0</ele><time>2026-04-24T14:03:19.236Z</time></trkpt><trkpt lat="44.5613393" lon="10.0978631"><ele>1098.0</ele><time>2026-04-24T14:03:20.237Z</time></trkpt><trkpt lat="44.561273" lon="10.0980703"><ele>1097.0</ele><time>2026-04-24T14:03:21.236Z</time></trkpt><trkpt lat="44.5612306" lon="10.0982623"><ele>1096.0</ele><time>2026-04-24T14:03:22.235Z</time></trkpt><trkpt lat="44.5611913" lon="10.0984413"><ele>1095.0</ele><time>2026-04-24T14:03:23.236Z</time></trkpt><trkpt lat="44.5611424" lon="10.0986443"><ele>1094.0</ele><time>2026-04-24T14:03:24.236Z</time></trkpt><trkpt lat="44.5610822" lon="10.0988265"><ele>1099.8</ele><time>2026-04-24T14:03:25.236Z</time></trkpt><trkpt lat="44.5610015" lon="10.0989556"><ele>1105.6000000000001</ele><time>2026-04-24T14:03:26.237Z</time></trkpt><trkpt lat="44.5609486" lon="10.0991127"><ele>1111.4</ele><time>2026-04-24T14:03:27.236Z</time></trkpt><trkpt lat="44.5609074" lon="10.0992453"><ele>1117.2</ele><time>2026-04-24T14:03:28.235Z</time></trkpt><trkpt lat="44.5608881" lon="10.0993562"><ele>1123.0</ele><time>2026-04-24T14:03:29.235Z</time></trkpt><trkpt lat="44.5608869" lon="10.0994875"><ele>1123.0</ele><time>2026-04-24T14:03:30.235Z</time></trkpt><trkpt lat="44.561031" lon="10.0996601"><ele>1123.0</ele><time>2026-04-24T14:03:31.236Z</time></trkpt><trkpt lat="44.5610895" lon="10.0998317"><ele>1123.0</ele><time>2026-04-24T14:03:32.236Z</time></trkpt><trkpt lat="44.5611265" lon="10.1000022"><ele>1125.6666666666665</ele><time>2026-04-24T14:03:33.235Z</time></trkpt><trkpt lat="44.5611482" lon="10.1002043"><ele>1128.3333333333333</ele><time>2026-04-24T14:03:34.236Z</time></trkpt><trkpt lat="44.5611758" lon="10.1004401"><ele>1131.0</ele><time>2026-04-24T14:03:35.236Z</time></trkpt><trkpt lat="44.5611967" lon="10.1006891"><ele>1122.0</ele><time>2026-04-24T14:03:36.236Z</time></trkpt><trkpt lat="44.5612177" lon="10.1009547"><ele>1113.0</ele><time>2026-04-24T14:03:37.237Z</time></trkpt><trkpt lat="44.5612321" lon="10.1011975"><ele>1104.0</ele><time>2026-04-24T14:03:38.236Z</time></trkpt><trkpt lat="44.5612477" lon="10.101433"><ele>1105.5</ele><time>2026-04-24T14:03:39.236Z</time></trkpt><trkpt lat="44.5612779" lon="10.1015851"><ele>1107.0</ele><time>2026-04-24T14:03:40.236Z</time></trkpt><trkpt lat="44.5613036" lon="10.101739"><ele>1108.5</ele><time>2026-04-24T14:03:41.236Z</time></trkpt><trkpt lat="44.5613075" lon="10.1018526"><ele>1110.0</ele><time>2026-04-24T14:03:42.236Z</time></trkpt><trkpt lat="44.5612778" lon="10.1019486"><ele>1111.5</ele><time>2026-04-24T14:03:43.236Z</time></trkpt><trkpt lat="44.5612243" lon="10.1019961"><ele>1113.0</ele><time>2026-04-24T14:03:44.236Z</time></trkpt><trkpt lat="44.5611444" lon="10.1020173"><ele>1118.8</ele><time>2026-04-24T14:03:45.236Z</time></trkpt><trkpt lat="44.5610573" lon="10.1019985"><ele>1124.6</ele><time>2026-04-24T14:03:46.236Z</time></trkpt><trkpt lat="44.5609726" lon="10.1019418"><ele>1130.4</ele><time>2026-04-24T14:03:47.236Z</time></trkpt><trkpt lat="44.5609077" lon="10.1018534"><ele>1136.2</ele><time>2026-04-24T14:03:48.235Z</time></trkpt><trkpt lat="44.5608542" lon="10.1017257"><ele>1142.0</ele><time>2026-04-24T14:03:49.236Z</time></trkpt><trkpt lat="44.5608085" lon="10.1015974"><ele>1140.75</ele><time>2026-04-24T14:03:50.237Z</time></trkpt><trkpt lat="44.5607568" lon="10.1014514"><ele>1139.5</ele><time>2026-04-24T14:03:51.236Z</time></trkpt><trkpt lat="44.5606984" lon="10.1012944"><ele>1138.25</ele><time>2026-04-24T14:03:52.236Z</time></trkpt><trkpt lat="44.5606185" lon="10.101146"><ele>1137.0</ele><time>2026-04-24T14:03:53.236Z</time></trkpt><trkpt lat="44.5605303" lon="10.1009964"><ele>1137.0</ele><time>2026-04-24T14:03:54.236Z</time></trkpt><trkpt lat="44.5604446" lon="10.1008488"><ele>1137.0</ele><time>2026-04-24T14:03:55.236Z</time></trkpt><trkpt lat="44.5603685" lon="10.1007205"><ele>1137.0</ele><time>2026-04-24T14:03:56.235Z</time></trkpt><trkpt lat="44.5603068" lon="10.1005751"><ele>1137.0</ele><time>2026-04-24T14:03:57.236Z</time></trkpt><trkpt lat="44.5602593" lon="10.1004266"><ele>1140.8</ele><time>2026-04-24T14:03:58.236Z</time></trkpt><trkpt lat="44.5601974" lon="10.1002933"><ele>1144.6</ele><time>2026-04-24T14:03:59.235Z</time></trkpt><trkpt lat="44.560147" lon="10.1001561"><ele>1148.3999999999999</ele><time>2026-04-24T14:04:00.236Z</time></trkpt><trkpt lat="44.5601255" lon="10.1000388"><ele>1152.2</ele><time>2026-04-24T14:04:01.236Z</time></trkpt><trkpt lat="44.5600845" lon="10.0999363"><ele>1156.0</ele><time>2026-04-24T14:04:02.237Z</time></trkpt><trkpt lat="44.560023" lon="10.099905"><ele>1157.3999999999999</ele><time>2026-04-24T14:04:04.235Z</time></trkpt><trkpt lat="44.5599574" lon="10.0999995"><ele>1158.8</ele><time>2026-04-24T14:04:06.235Z</time></trkpt><trkpt lat="44.559978" lon="10.1001266"><ele>1160.1999999999998</ele><time>2026-04-24T14:04:07.236Z</time></trkpt><trkpt lat="44.5600206" lon="10.1002412"><ele>1161.6</ele><time>2026-04-24T14:04:08.235Z</time></trkpt><trkpt lat="44.5600498" lon="10.1003766"><ele>1163.0</ele><time>2026-04-24T14:04:09.236Z</time></trkpt><trkpt lat="44.5600717" lon="10.1005428"><ele>1163.0</ele><time>2026-04-24T14:04:10.235Z</time></trkpt><trkpt lat="44.5600766" lon="10.1007052"><ele>1163.0</ele><time>2026-04-24T14:04:11.235Z</time></trkpt><trkpt lat="44.560056" lon="10.1008727"><ele>1163.0</ele><time>2026-04-24T14:04:12.237Z</time></trkpt><trkpt lat="44.5599987" lon="10.1010442"><ele>1163.0</ele><time>2026-04-24T14:04:13.236Z</time></trkpt><trkpt lat="44.559939" lon="10.1012315"><ele>1164.75</ele><time>2026-04-24T14:04:14.236Z</time></trkpt><trkpt lat="44.5599017" lon="10.1014261"><ele>1166.5</ele><time>2026-04-24T14:04:15.236Z</time></trkpt><trkpt lat="44.5598597" lon="10.101602"><ele>1168.25</ele><time>2026-04-24T14:04:16.237Z</time></trkpt><trkpt lat="44.5597924" lon="10.1017422"><ele>1170.0</ele><time>2026-04-24T14:04:17.235Z</time></trkpt><trkpt lat="44.5597127" lon="10.1018826"><ele>1170.0</ele><time>2026-04-24T14:04:18.235Z</time></trkpt><trkpt lat="44.5596333" lon="10.1020126"><ele>1170.0</ele><time>2026-04-24T14:04:19.236Z</time></trkpt><trkpt lat="44.5595444" lon="10.1021331"><ele>1170.0</ele><time>2026-04-24T14:04:20.237Z</time></trkpt><trkpt lat="44.5594633" lon="10.1022175"><ele>1170.0</ele><time>2026-04-24T14:04:21.235Z</time></trkpt><trkpt lat="44.5593674" lon="10.1022776"><ele>1180.75</ele><time>2026-04-24T14:04:22.235Z</time></trkpt><trkpt lat="44.5592572" lon="10.1023156"><ele>1191.5</ele><time>2026-04-24T14:04:23.237Z</time></trkpt><trkpt lat="44.559149" lon="10.1023405"><ele>1202.25</ele><time>2026-04-24T14:04:24.236Z</time></trkpt><trkpt lat="44.5590376" lon="10.1023603"><ele>1213.0</ele><time>2026-04-24T14:04:25.237Z</time></trkpt><trkpt lat="44.5588945" lon="10.1023732"><ele>1213.0</ele><time>2026-04-24T14:04:26.235Z</time></trkpt><trkpt lat="44.558757" lon="10.1023712"><ele>1213.0</ele><time>2026-04-24T14:04:27.236Z</time></trkpt><trkpt lat="44.5586153" lon="10.1023756"><ele>1213.0</ele><time>2026-04-24T14:04:28.236Z</time></trkpt><trkpt lat="44.5866337" lon="10.1037536"><ele>1031.75</ele><time>2026-04-24T13:52:01.239Z</time></trkpt><trkpt lat="44.5866168" lon="10.1035702"><ele>850.5</ele><time>2026-04-24T13:52:02.239Z</time></trkpt><trkpt lat="44.5866001" lon="10.1033702"><ele>669.25</ele><time>2026-04-24T13:52:03.239Z</time></trkpt><trkpt lat="44.5865932" lon="10.1031521"><ele>488.0</ele><time>2026-04-24T13:52:04.239Z</time></trkpt><trkpt lat="44.5865723" lon="10.1029252"><ele>484.0</ele><time>2026-04-24T13:52:05.239Z</time></trkpt><trkpt lat="44.5865232" lon="10.1027049"><ele>480.0</ele><time>2026-04-24T13:52:06.239Z</time></trkpt><trkpt lat="44.5864818" lon="10.1024918"><ele>476.0</ele><time>2026-04-24T13:52:07.24Z</time></trkpt><trkpt lat="44.5864065" lon="10.1022587"><ele>473.3333333333333</ele><time>2026-04-24T13:52:08.239Z</time></trkpt><trkpt lat="44.5863616" lon="10.1020236"><ele>470.66666666666663</ele><time>2026-04-24T13:52:09.24Z</time></trkpt><trkpt lat="44.5863243" lon="10.1017893"><ele>468.0</ele><time>2026-04-24T13:52:10.24Z</time></trkpt><trkpt lat="44.5863052" lon="10.1015417"><ele>468.0</ele><time>2026-04-24T13:52:11.239Z</time></trkpt><trkpt lat="44.5862993" lon="10.1012904"><ele>468.0</ele><time>2026-04-24T13:52:12.24Z</time></trkpt><trkpt lat="44.5863062" lon="10.1010459"><ele>468.0</ele><time>2026-04-24T13:52:13.24Z</time></trkpt><trkpt lat="44.5863234" lon="10.1007954"><ele>473.0</ele><time>2026-04-24T13:52:14.24Z</time></trkpt><trkpt lat="44.5863329" lon="10.1005506"><ele>478.0</ele><time>2026-04-24T13:52:15.24Z</time></trkpt><trkpt lat="44.5863481" lon="10.1003107"><ele>483.0</ele><time>2026-04-24T13:52:16.239Z</time></trkpt><trkpt lat="44.5863516" lon="10.100079"><ele>486.75</ele><time>2026-04-24T13:52:17.239Z</time></trkpt><trkpt lat="44.5863529" lon="10.0998573"><ele>490.5</ele><time>2026-04-24T13:52:18.238Z</time></trkpt><trkpt lat="44.5863499" lon="10.0996617"><ele>494.25</ele><time>2026-04-24T13:52:19.239Z</time></trkpt><trkpt lat="44.5863559" lon="10.0994724"><ele>498.0</ele><time>2026-04-24T13:52:20.239Z</time></trkpt><trkpt lat="44.5863634" lon="10.0993074"><ele>498.0</ele><time>2026-04-24T13:52:21.239Z</time></trkpt><trkpt lat="44.5863799" lon="10.0991522"><ele>498.0</ele><time>2026-04-24T13:52:22.239Z</time></trkpt><trkpt lat="44.5864196" lon="10.098996"><ele>498.0</ele><time>2026-04-24T13:52:23.24Z</time></trkpt><trkpt lat="44.5864893" lon="10.0988389"><ele>498.0</ele><time>2026-04-24T13:52:24.238Z</time></trkpt><trkpt lat="44.5865759" lon="10.0986667"><ele>506.66666666666663</ele><time>2026-04-24T13:52:25.238Z</time></trkpt><trkpt lat="44.586667" lon="10.0984661"><ele>515.3333333333333</ele><time>2026-04-24T13:52:26.238Z</time></trkpt><trkpt lat="44.5867608" lon="10.0982545"><ele>524.0</ele><time>2026-04-24T13:52:27.238Z</time></trkpt><trkpt lat="44.58686" lon="10.098053"><ele>517.6666666666666</ele><time>2026-04-24T13:52:28.239Z</time></trkpt><trkpt lat="44.5869741" lon="10.0978647"><ele>511.33333333333337</ele><time>2026-04-24T13:52:29.238Z</time></trkpt><trkpt lat="44.5870843" lon="10.0976932"><ele>505.0</ele><time>2026-04-24T13:52:30.238Z</time></trkpt><trkpt lat="44.5871927" lon="10.0975178"><ele>513.0</ele><time>2026-04-24T13:52:31.238Z</time></trkpt><trkpt lat="44.5872892" lon="10.0973332"><ele>521.0</ele><time>2026-04-24T13:52:32.238Z</time></trkpt><trkpt lat="44.5873698" lon="10.0971372"><ele>529.0</ele><time>2026-04-24T13:52:33.238Z</time></trkpt><trkpt lat="44.5874454" lon="10.0969348"><ele>529.0</ele><time>2026-04-24T13:52:34.239Z</time></trkpt><trkpt lat="44.5875261" lon="10.0967333"><ele>529.0</ele><time>2026-04-24T13:52:35.238Z</time></trkpt><trkpt lat="44.5876197" lon="10.0965514"><ele>529.0</ele><time>2026-04-24T13:52:36.238Z</time></trkpt><trkpt lat="44.5877177" lon="10.0964029"><ele>527.0</ele><time>2026-04-24T13:52:37.238Z</time></trkpt><trkpt lat="44.5878184" lon="10.0962691"><ele>525.0</ele><time>2026-04-24T13:52:38.239Z</time></trkpt><trkpt lat="44.5879044" lon="10.0961546"><ele>523.0</ele><time>2026-04-24T13:52:39.24Z</time></trkpt><trkpt lat="44.5879607" lon="10.0960275"><ele>521.0</ele><time>2026-04-24T13:52:40.24Z</time></trkpt><trkpt lat="44.5879821" lon="10.0958943"><ele>515.4</ele><time>2026-04-24T13:52:41.238Z</time></trkpt><trkpt lat="44.5879719" lon="10.0957736"><ele>509.8</ele><time>2026-04-24T13:52:42.238Z</time></trkpt><trkpt lat="44.5879231" lon="10.0956673"><ele>504.19999999999993</ele><time>2026-04-24T13:52:43.239Z</time></trkpt><trkpt lat="44.5878654" lon="10.0955805"><ele>498.59999999999997</ele><time>2026-04-24T13:52:44.24Z</time></trkpt><trkpt lat="44.587736" lon="10.0955903"><ele>493.0</ele><time>2026-04-24T13:52:45.239Z</time></trkpt><trkpt lat="44.58762" lon="10.0956387"><ele>490.5</ele><time>2026-04-24T13:52:46.238Z</time></trkpt><trkpt lat="44.5875031" lon="10.0957323"><ele>488.0</ele><time>2026-04-24T13:52:47.238Z</time></trkpt><trkpt lat="44.5873872" lon="10.0958629"><ele>485.5</ele><time>2026-04-24T13:52:48.239Z</time></trkpt><trkpt lat="44.5872624" lon="10.0960063"><ele>483.0</ele><time>2026-04-24T13:52:49.238Z</time></trkpt><trkpt lat="44.5871329" lon="10.0961227"><ele>490.75</ele><time>2026-04-24T13:52:50.24Z</time></trkpt><trkpt lat="44.5870005" lon="10.0961926"><ele>498.5</ele><time>2026-04-24T13:52:51.24Z</time></trkpt><trkpt lat="44.5868511" lon="10.0962192"><ele>506.25</ele><time>2026-04-24T13:52:52.239Z</time></trkpt><trkpt lat="44.586699" lon="10.0962713"><ele>514.0</ele><time>2026-04-24T13:52:53.239Z</time></trkpt><trkpt lat="44.5865458" lon="10.0963528"><ele>514.0</ele><time>2026-04-24T13:52:54.24Z</time></trkpt><trkpt lat="44.5863895" lon="10.0964352"><ele>514.0</ele><time>2026-04-24T13:52:55.239Z</time></trkpt><trkpt lat="44.5862289" lon="10.0964913"><ele>514.0</ele><time>2026-04-24T13:52:56.239Z</time></trkpt><trkpt lat="44.5860909" lon="10.0965483"><ele>521.0</ele><time>2026-04-24T13:52:57.24Z</time></trkpt><trkpt lat="44.5859658" lon="10.0966438"><ele>528.0</ele><time>2026-04-24T13:52:58.239Z</time></trkpt><trkpt lat="44.5858391" lon="10.0967591"><ele>535.0</ele><time>2026-04-24T13:52:59.24Z</time></trkpt><trkpt lat="44.5856943" lon="10.0968556"><ele>535.0</ele><time>2026-04-24T13:53:00.239Z</time></trkpt><trkpt lat="44.5855343" lon="10.0969178"><ele>535.0</ele><time>2026-04-24T13:53:01.239Z</time></trkpt><trkpt lat="44.585378" lon="10.0969552"><ele>535.0</ele><time>2026-04-24T13:53:02.238Z</time></trkpt><trkpt lat="44.5852341" lon="10.0969878"><ele>537.25</ele><time>2026-04-24T13:53:03.238Z</time></trkpt><trkpt lat="44.5851075" lon="10.0969936"><ele>539.5</ele><time>2026-04-24T13:53:04.238Z</time></trkpt><trkpt lat="44.5849952" lon="10.0969506"><ele>541.75</ele><time>2026-04-24T13:53:05.238Z</time></trkpt><trkpt lat="44.5849028" lon="10.0968593"><ele>544.0</ele><time>2026-04-24T13:53:06.239Z</time></trkpt><trkpt lat="44.5848363" lon="10.0967096"><ele>541.0</ele><time>2026-04-24T13:53:07.239Z</time></trkpt><trkpt lat="44.5848076" lon="10.0965249"><ele>538.0</ele><time>2026-04-24T13:53:08.238Z</time></trkpt><trkpt lat="44.5847914" lon="10.0963256"><ele>535.0</ele><time>2026-04-24T13:53:09.239Z</time></trkpt><trkpt lat="44.5847678" lon="10.0961132"><ele>532.0</ele><time>2026-04-24T13:53:10.239Z</time></trkpt><trkpt lat="44.5847319" lon="10.0959312"><ele>534.75</ele><time>2026-04-24T13:53:11.238Z</time></trkpt><trkpt lat="44.5846726" lon="10.0957469"><ele>537.5</ele><time>2026-04-24T13:53:12.239Z</time></trkpt><trkpt lat="44.5845844" lon="10.0955822"><ele>540.25</ele><time>2026-04-24T13:53:13.239Z</time></trkpt><trkpt lat="44.5844919" lon="10.0954252"><ele>543.0</ele><time>2026-04-24T13:53:14.239Z</time></trkpt><trkpt lat="44.5844012" lon="10.0952786"><ele>543.0</ele><time>2026-04-24T13:53:15.24Z</time></trkpt><trkpt lat="44.5843145" lon="10.0951365"><ele>543.0</ele><time>2026-04-24T13:53:16.239Z</time></trkpt><trkpt lat="44.5842357" lon="10.0950056"><ele>543.0</ele><time>2026-04-24T13:53:17.239Z</time></trkpt><trkpt lat="44.5841779" lon="10.0948688"><ele>543.0</ele><time>2026-04-24T13:53:18.238Z</time></trkpt><trkpt lat="44.5841579" lon="10.0947147"><ele>550.25</ele><time>2026-04-24T13:53:19.239Z</time></trkpt><trkpt lat="44.5841679" lon="10.0945642"><ele>557.5</ele><time>2026-04-24T13:53:20.239Z</time></trkpt><trkpt lat="44.5842193" lon="10.0944216"><ele>564.75</ele><time>2026-04-24T13:53:21.239Z</time></trkpt><trkpt lat="44.584307" lon="10.0942935"><ele>572.0</ele><time>2026-04-24T13:53:22.24Z</time></trkpt><trkpt lat="44.5844211" lon="10.0941754"><ele>574.25</ele><time>2026-04-24T13:53:23.238Z</time></trkpt><trkpt lat="44.584555" lon="10.0940784"><ele>576.5</ele><time>2026-04-24T13:53:24.238Z</time></trkpt><trkpt lat="44.5847045" lon="10.0940155"><ele>578.75</ele><time>2026-04-24T13:53:25.238Z</time></trkpt><trkpt lat="44.5848413" lon="10.0939749"><ele>581.0</ele><time>2026-04-24T13:53:26.239Z</time></trkpt><trkpt lat="44.5849679" lon="10.0939558"><ele>581.0</ele><time>2026-04-24T13:53:27.24Z</time></trkpt><trkpt lat="44.5850825" lon="10.0939559"><ele>581.0</ele><time>2026-04-24T13:53:28.239Z</time></trkpt><trkpt lat="44.5851911" lon="10.0939598"><ele>581.0</ele><time>2026-04-24T13:53:29.239Z</time></trkpt><trkpt lat="44.5852687" lon="10.0939377"><ele>581.0</ele><time>2026-04-24T13:53:30.239Z</time></trkpt><trkpt lat="44.5853466" lon="10.093891"><ele>581.0</ele><time>2026-04-24T13:53:31.239Z</time></trkpt><trkpt lat="44.5853942" lon="10.0936948"><ele>575.0</ele><time>2026-04-24T13:53:32.238Z</time></trkpt><trkpt lat="44.585446" lon="10.0935339"><ele>569.0</ele><time>2026-04-24T13:53:33.24Z</time></trkpt><trkpt lat="44.5854952" lon="10.093354"><ele>563.0</ele><time>2026-04-24T13:53:34.24Z</time></trkpt><trkpt lat="44.5855592" lon="10.0931806"><ele>557.0</ele><time>2026-04-24T13:53:35.239Z</time></trkpt><trkpt lat="44.5856305" lon="10.0930008"><ele>557.0</ele><time>2026-04-24T13:53:36.238Z</time></trkpt><trkpt lat="44.5857041" lon="10.0928346"><ele>557.0</ele><time>2026-04-24T13:53:37.239Z</time></trkpt><trkpt lat="44.5857598" lon="10.0926638"><ele>557.0</ele><time>2026-04-24T13:53:38.239Z</time></trkpt><trkpt lat="44.5858058" lon="10.0924833"><ele>557.0</ele><time>2026-04-24T13:53:39.24Z</time></trkpt><trkpt lat="44.5857966" lon="10.0922786"><ele>554.5</ele><time>2026-04-24T13:53:40.239Z</time></trkpt><trkpt lat="44.5858078" lon="10.0920682"><ele>552.0</ele><time>2026-04-24T13:53:41.238Z</time></trkpt><trkpt lat="44.5858043" lon="10.091885"><ele>549.5</ele><time>2026-04-24T13:53:42.239Z</time></trkpt><trkpt lat="44.5857893" lon="10.0917207"><ele>547.0</ele><time>2026-04-24T13:53:43.238Z</time></trkpt><trkpt lat="44.5857351" lon="10.0915752"><ele>541.5</ele><time>2026-04-24T13:53:44.238Z</time></trkpt><trkpt lat="44.5856814" lon="10.091441"><ele>536.0</ele><time>2026-04-24T13:53:45.238Z</time></trkpt><trkpt lat="44.5855847" lon="10.0912948"><ele>530.5</ele><time>2026-04-24T13:53:46.238Z</time></trkpt><trkpt lat="44.5854957" lon="10.0911601"><ele>525.0</ele><time>2026-04-24T13:53:47.238Z</time></trkpt><trkpt lat="44.5853965" lon="10.0910186"><ele>531.75</ele><time>2026-04-24T13:53:48.239Z</time></trkpt><trkpt lat="44.585265" lon="10.0909228"><ele>538.5</ele><time>2026-04-24T13:53:49.238Z</time></trkpt><trkpt lat="44.5851394" lon="10.0908701"><ele>545.25</ele><time>2026-04-24T13:53:50.238Z</time></trkpt><trkpt lat="44.5850123" lon="10.0907987"><ele>552.0</ele><time>2026-04-24T13:53:51.238Z</time></trkpt><trkpt lat="44.5849075" lon="10.0906786"><ele>552.0</ele><time>2026-04-24T13:53:52.239Z</time></trkpt><trkpt lat="44.5848305" lon="10.0905439"><ele>552.0</ele><time>2026-04-24T13:53:53.239Z</time></trkpt><trkpt lat="44.5847617" lon="10.0904067"><ele>552.0</ele><time>2026-04-24T13:53:54.239Z</time></trkpt><trkpt lat="44.5846768" lon="10.0903159"><ele>552.0</ele><time>2026-04-24T13:53:55.238Z</time></trkpt><trkpt lat="44.5845879" lon="10.0902703"><ele>552.0</ele><time>2026-04-24T13:53:56.239Z</time></trkpt><trkpt lat="44.5844672" lon="10.0902883"><ele>556.0</ele><time>2026-04-24T13:53:57.239Z</time></trkpt><trkpt lat="44.5843546" lon="10.090322"><ele>560.0</ele><time>2026-04-24T13:53:58.238Z</time></trkpt><trkpt lat="44.5842372" lon="10.0903868"><ele>564.0</ele><time>2026-04-24T13:53:59.239Z</time></trkpt><trkpt lat="44.5841165" lon="10.0904673"><ele>568.0</ele><time>2026-04-24T13:54:00.237Z</time></trkpt><trkpt lat="44.5839961" lon="10.0905812"><ele>568.0</ele><time>2026-04-24T13:54:01.238Z</time></trkpt><trkpt lat="44.5838719" lon="10.0907083"><ele>568.0</ele><time>2026-04-24T13:54:02.239Z</time></trkpt><trkpt lat="44.5837664" lon="10.0908406"><ele>568.0</ele><time>2026-04-24T13:54:03.239Z</time></trkpt><trkpt lat="44.5836412" lon="10.090913"><ele>568.0</ele><time>2026-04-24T13:54:04.238Z</time></trkpt><trkpt lat="44.5835109" lon="10.0909356"><ele>572.75</ele><time>2026-04-24T13:54:05.238Z</time></trkpt><trkpt lat="44.5833736" lon="10.0909063"><ele>577.5</ele><time>2026-04-24T13:54:06.239Z</time></trkpt><trkpt lat="44.5832308" lon="10.0908879"><ele>582.25</ele><time>2026-04-24T13:54:07.239Z</time></trkpt><trkpt lat="44.5830737" lon="10.0908954"><ele>587.0</ele><time>2026-04-24T13:54:08.238Z</time></trkpt><trkpt lat="44.5829189" lon="10.0909324"><ele>588.5</ele><time>2026-04-24T13:54:09.239Z</time></trkpt><trkpt lat="44.582783" lon="10.0909981"><ele>590.0</ele><time>2026-04-24T13:54:10.238Z</time></trkpt><trkpt lat="44.5826415" lon="10.0910296"><ele>591.5</ele><time>2026-04-24T13:54:11.238Z</time></trkpt><trkpt lat="44.5824998" lon="10.0910412"><ele>593.0</ele><time>2026-04-24T13:54:12.238Z</time></trkpt><trkpt lat="44.5823701" lon="10.0909837"><ele>593.0</ele><time>2026-04-24T13:54:13.238Z</time></trkpt><trkpt lat="44.5822553" lon="10.0908659"><ele>593.0</ele><time>2026-04-24T13:54:14.239Z</time></trkpt><trkpt lat="44.5821534" lon="10.0907015"><ele>593.0</ele><time>2026-04-24T13:54:15.238Z</time></trkpt><trkpt lat="44.5820605" lon="10.0905154"><ele>593.6666666666666</ele><time>2026-04-24T13:54:16.238Z</time></trkpt><trkpt lat="44.5819651" lon="10.0903089"><ele>594.3333333333334</ele><time>2026-04-24T13:54:17.238Z</time></trkpt><trkpt lat="44.5818706" lon="10.0901004"><ele>595.0</ele><time>2026-04-24T13:54:18.238Z</time></trkpt><trkpt lat="44.5817756" lon="10.0898807"><ele>595.0</ele><time>2026-04-24T13:54:19.238Z</time></trkpt><trkpt lat="44.5816861" lon="10.0896511"><ele>595.0</ele><time>2026-04-24T13:54:20.239Z</time></trkpt><trkpt lat="44.5816094" lon="10.0894151"><ele>595.0</ele><time>2026-04-24T13:54:21.239Z</time></trkpt><trkpt lat="44.5815473" lon="10.0891789"><ele>591.6666666666667</ele><time>2026-04-24T13:54:22.238Z</time></trkpt><trkpt lat="44.5814927" lon="10.0889502"><ele>588.3333333333334</ele><time>2026-04-24T13:54:23.239Z</time></trkpt><trkpt lat="44.5814421" lon="10.0887283"><ele>585.0</ele><time>2026-04-24T13:54:24.238Z</time></trkpt><trkpt lat="44.5813858" lon="10.0885221"><ele>585.0</ele><time>2026-04-24T13:54:25.238Z</time></trkpt><trkpt lat="44.5813154" lon="10.0883336"><ele>585.0</ele><time>2026-04-24T13:54:26.237Z</time></trkpt><trkpt lat="44.5812425" lon="10.0881618"><ele>585.0</ele><time>2026-04-24T13:54:27.237Z</time></trkpt><trkpt lat="44.581142" lon="10.088005"><ele>585.0</ele><time>2026-04-24T13:54:28.238Z</time></trkpt><trkpt lat="44.5810212" lon="10.0878624"><ele>588.25</ele><time>2026-04-24T13:54:29.238Z</time></trkpt><trkpt lat="44.580887" lon="10.0877464"><ele>591.5</ele><time>2026-04-24T13:54:30.237Z</time></trkpt><trkpt lat="44.5807511" lon="10.0876687"><ele>594.75</ele><time>2026-04-24T13:54:31.237Z</time></trkpt><trkpt lat="44.5806101" lon="10.0876453"><ele>598.0</ele><time>2026-04-24T13:54:32.237Z</time></trkpt><trkpt lat="44.5804687" lon="10.0876512"><ele>600.0</ele><time>2026-04-24T13:54:33.238Z</time></trkpt><trkpt lat="44.5803313" lon="10.0877584"><ele>602.0</ele><time>2026-04-24T13:54:34.238Z</time></trkpt><trkpt lat="44.580185" lon="10.0878167"><ele>604.0</ele><time>2026-04-24T13:54:35.238Z</time></trkpt><trkpt lat="44.5800283" lon="10.0878071"><ele>604.0</ele><time>2026-04-24T13:54:36.237Z</time></trkpt><trkpt lat="44.5798822" lon="10.0877306"><ele>604.0</ele><time>2026-04-24T13:54:37.239Z</time></trkpt><trkpt lat="44.5797457" lon="10.0876291"><ele>604.0</ele><time>2026-04-24T13:54:38.238Z</time></trkpt><trkpt lat="44.5796274" lon="10.0874978"><ele>603.0</ele><time>2026-04-24T13:54:39.237Z</time></trkpt><trkpt lat="44.5795319" lon="10.0873534"><ele>602.0</ele><time>2026-04-24T13:54:40.238Z</time></trkpt><trkpt lat="44.5794535" lon="10.0871944"><ele>601.0</ele><time>2026-04-24T13:54:41.238Z</time></trkpt><trkpt lat="44.5794091" lon="10.0870084"><ele>600.0</ele><time>2026-04-24T13:54:42.239Z</time></trkpt><trkpt lat="44.5794025" lon="10.0868123"><ele>603.0</ele><time>2026-04-24T13:54:43.239Z</time></trkpt><trkpt lat="44.5794271" lon="10.0866091"><ele>606.0</ele><time>2026-04-24T13:54:44.238Z</time></trkpt><trkpt lat="44.5794801" lon="10.0863956"><ele>609.0</ele><time>2026-04-24T13:54:45.239Z</time></trkpt><trkpt lat="44.5795507" lon="10.0861699"><ele>609.0</ele><time>2026-04-24T13:54:46.239Z</time></trkpt><trkpt lat="44.5796595" lon="10.0859511"><ele>609.0</ele><time>2026-04-24T13:54:47.238Z</time></trkpt><trkpt lat="44.5797664" lon="10.0857283"><ele>609.0</ele><time>2026-04-24T13:54:48.237Z</time></trkpt><trkpt lat="44.5798836" lon="10.0855128"><ele>618.6666666666666</ele><time>2026-04-24T13:54:49.239Z</time></trkpt><trkpt lat="44.5800087" lon="10.0852933"><ele>628.3333333333333</ele><time>2026-04-24T13:54:50.238Z</time></trkpt><trkpt lat="44.5801349" lon="10.0850782"><ele>638.0</ele><time>2026-04-24T13:54:51.238Z</time></trkpt><trkpt lat="44.5802565" lon="10.0848693"><ele>631.0</ele><time>2026-04-24T13:54:52.238Z</time></trkpt><trkpt lat="44.580381" lon="10.084666"><ele>624.0</ele><time>2026-04-24T13:54:53.238Z</time></trkpt><trkpt lat="44.580499" lon="10.0844603"><ele>617.0</ele><time>2026-04-24T13:54:54.237Z</time></trkpt><trkpt lat="44.5806154" lon="10.0842565"><ele>628.0</ele><time>2026-04-24T13:54:55.238Z</time></trkpt><trkpt lat="44.5807273" lon="10.0840525"><ele>639.0</ele><time>2026-04-24T13:54:56.238Z</time></trkpt><trkpt lat="44.5808378" lon="10.083851"><ele>650.0</ele><time>2026-04-24T13:54:57.239Z</time></trkpt><trkpt lat="44.5809429" lon="10.0836379"><ele>650.0</ele><time>2026-04-24T13:54:58.237Z</time></trkpt><trkpt lat="44.5810506" lon="10.0834213"><ele>650.0</ele><time>2026-04-24T13:54:59.239Z</time></trkpt><trkpt lat="44.5811544" lon="10.0831967"><ele>650.0</ele><time>2026-04-24T13:55:00.237Z</time></trkpt><trkpt lat="44.5812589" lon="10.0829643"><ele>650.0</ele><time>2026-04-24T13:55:01.238Z</time></trkpt><trkpt lat="44.5813589" lon="10.0827282"><ele>650.0</ele><time>2026-04-24T13:55:02.238Z</time></trkpt><trkpt lat="44.5814726" lon="10.0825097"><ele>650.0</ele><time>2026-04-24T13:55:03.238Z</time></trkpt><trkpt lat="44.5815905" lon="10.082305"><ele>650.0</ele><time>2026-04-24T13:55:04.238Z</time></trkpt><trkpt lat="44.5816973" lon="10.0820998"><ele>650.0</ele><time>2026-04-24T13:55:05.237Z</time></trkpt><trkpt lat="44.5817818" lon="10.0818732"><ele>650.0</ele><time>2026-04-24T13:55:06.238Z</time></trkpt><trkpt lat="44.5818448" lon="10.08164"><ele>654.6666666666666</ele><time>2026-04-24T13:55:07.238Z</time></trkpt><trkpt lat="44.581917" lon="10.0814139"><ele>659.3333333333334</ele><time>2026-04-24T13:55:08.237Z</time></trkpt><trkpt lat="44.5819656" lon="10.0811642"><ele>664.0</ele><time>2026-04-24T13:55:09.238Z</time></trkpt><trkpt lat="44.5820064" lon="10.08091"><ele>653.0</ele><time>2026-04-24T13:55:10.238Z</time></trkpt><trkpt lat="44.5820577" lon="10.0806686"><ele>642.0</ele><time>2026-04-24T13:55:11.238Z</time></trkpt><trkpt lat="44.5821187" lon="10.0804397"><ele>631.0</ele><time>2026-04-24T13:55:12.239Z</time></trkpt><trkpt lat="44.582182" lon="10.0802349"><ele>631.0</ele><time>2026-04-24T13:55:13.237Z</time></trkpt><trkpt lat="44.5822881" lon="10.0801257"><ele>631.0</ele><time>2026-04-24T13:55:14.237Z</time></trkpt><trkpt lat="44.5823353" lon="10.0799738"><ele>631.0</ele><time>2026-04-24T13:55:15.238Z</time></trkpt><trkpt lat="44.5823571" lon="10.0798288"><ele>631.0</ele><time>2026-04-24T13:55:16.239Z</time></trkpt><trkpt lat="44.582374" lon="10.0796854"><ele>631.25</ele><time>2026-04-24T13:55:17.238Z</time></trkpt><trkpt lat="44.5822925" lon="10.0795653"><ele>631.5</ele><time>2026-04-24T13:55:18.238Z</time></trkpt><trkpt lat="44.582213" lon="10.0794898"><ele>631.75</ele><time>2026-04-24T13:55:19.238Z</time></trkpt><trkpt lat="44.5821312" lon="10.0794134"><ele>632.0</ele><time>2026-04-24T13:55:20.237Z</time></trkpt><trkpt lat="44.5819857" lon="10.0794696"><ele>635.25</ele><time>2026-04-24T13:55:21.237Z</time></trkpt><trkpt lat="44.5818474" lon="10.0795277"><ele>638.5</ele><time>2026-04-24T13:55:22.238Z</time></trkpt><trkpt lat="44.5817107" lon="10.0795859"><ele>641.75</ele><time>2026-04-24T13:55:23.239Z</time></trkpt><trkpt lat="44.5815848" lon="10.0796296"><ele>645.0</ele><time>2026-04-24T13:55:24.239Z</time></trkpt><trkpt lat="44.5814641" lon="10.0796389"><ele>645.0</ele><time>2026-04-24T13:55:25.239Z</time></trkpt><trkpt lat="44.5813506" lon="10.0795962"><ele>645.0</ele><time>2026-04-24T13:55:26.238Z</time></trkpt><trkpt lat="44.5812425" lon="10.07952"><ele>645.0</ele><time>2026-04-24T13:55:27.238Z</time></trkpt><trkpt lat="44.5811467" lon="10.0794238"><ele>645.0</ele><time>2026-04-24T13:55:28.238Z</time></trkpt><trkpt lat="44.5810567" lon="10.0793087"><ele>649.0</ele><time>2026-04-24T13:55:29.238Z</time></trkpt><trkpt lat="44.5809822" lon="10.0791652"><ele>653.0</ele><time>2026-04-24T13:55:30.239Z</time></trkpt><trkpt lat="44.580924" lon="10.0789872"><ele>657.0</ele><time>2026-04-24T13:55:31.238Z</time></trkpt><trkpt lat="44.5808833" lon="10.0787868"><ele>661.0</ele><time>2026-04-24T13:55:32.238Z</time></trkpt><trkpt lat="44.5808641" lon="10.0785811"><ele>661.0</ele><time>2026-04-24T13:55:33.238Z</time></trkpt><trkpt lat="44.5808388" lon="10.0784041"><ele>661.0</ele><time>2026-04-24T13:55:34.237Z</time></trkpt><trkpt lat="44.5807968" lon="10.0782543"><ele>661.0</ele><time>2026-04-24T13:55:35.238Z</time></trkpt><trkpt lat="44.5807324" lon="10.0781454"><ele>661.0</ele><time>2026-04-24T13:55:36.239Z</time></trkpt><trkpt lat="44.5806411" lon="10.0780845"><ele>661.0</ele><time>2026-04-24T13:55:37.237Z</time></trkpt><trkpt lat="44.5805299" lon="10.0780695"><ele>660.0</ele><time>2026-04-24T13:55:38.237Z</time></trkpt><trkpt lat="44.5804074" lon="10.0781043"><ele>659.0</ele><time>2026-04-24T13:55:39.239Z</time></trkpt><trkpt lat="44.5802754" lon="10.0781468"><ele>658.0</ele><time>2026-04-24T13:55:40.239Z</time></trkpt><trkpt lat="44.58014" lon="10.0781719"><ele>657.0</ele><time>2026-04-24T13:55:41.237Z</time></trkpt><trkpt lat="44.5800234" lon="10.0781482"><ele>657.0</ele><time>2026-04-24T13:55:42.237Z</time></trkpt><trkpt lat="44.579916" lon="10.0781034"><ele>657.0</ele><time>2026-04-24T13:55:43.238Z</time></trkpt><trkpt lat="44.5797985" lon="10.0780438"><ele>657.0</ele><time>2026-04-24T13:55:44.239Z</time></trkpt><trkpt lat="44.5796704" lon="10.0779712"><ele>657.0</ele><time>2026-04-24T13:55:45.237Z</time></trkpt><trkpt lat="44.5795455" lon="10.0778909"><ele>660.0</ele><time>2026-04-24T13:55:46.238Z</time></trkpt><trkpt lat="44.5794137" lon="10.0778085"><ele>663.0</ele><time>2026-04-24T13:55:47.237Z</time></trkpt><trkpt lat="44.5792977" lon="10.077747"><ele>666.0</ele><time>2026-04-24T13:55:48.238Z</time></trkpt><trkpt lat="44.5791826" lon="10.0777313"><ele>669.0</ele><time>2026-04-24T13:55:49.238Z</time></trkpt><trkpt lat="44.5790682" lon="10.0777737"><ele>669.0</ele><time>2026-04-24T13:55:50.238Z</time></trkpt><trkpt lat="44.5789593" lon="10.0778637"><ele>669.0</ele><time>2026-04-24T13:55:51.238Z</time></trkpt><trkpt lat="44.5788415" lon="10.0780028"><ele>669.0</ele><time>2026-04-24T13:55:52.237Z</time></trkpt><trkpt lat="44.5787197" lon="10.0781494"><ele>669.0</ele><time>2026-04-24T13:55:53.238Z</time></trkpt><trkpt lat="44.5785854" lon="10.0782964"><ele>670.6666666666666</ele><time>2026-04-24T13:55:54.238Z</time></trkpt><trkpt lat="44.5784488" lon="10.0784515"><ele>672.3333333333333</ele><time>2026-04-24T13:55:55.238Z</time></trkpt><trkpt lat="44.5783173" lon="10.0786029"><ele>674.0</ele><time>2026-04-24T13:55:56.237Z</time></trkpt><trkpt lat="44.578196" lon="10.0787327"><ele>674.0</ele><time>2026-04-24T13:55:57.239Z</time></trkpt><trkpt lat="44.5780761" lon="10.0788179"><ele>674.0</ele><time>2026-04-24T13:55:58.237Z</time></trkpt><trkpt lat="44.5779517" lon="10.0788451"><ele>674.0</ele><time>2026-04-24T13:55:59.237Z</time></trkpt><trkpt lat="44.5778308" lon="10.0788217"><ele>674.0</ele><time>2026-04-24T13:56:00.238Z</time></trkpt><trkpt lat="44.5777264" lon="10.0787224"><ele>675.3333333333333</ele><time>2026-04-24T13:56:01.237Z</time></trkpt><trkpt lat="44.577645" lon="10.0785653"><ele>676.6666666666666</ele><time>2026-04-24T13:56:02.238Z</time></trkpt><trkpt lat="44.5775823" lon="10.078371"><ele>678.0</ele><time>2026-04-24T13:56:03.238Z</time></trkpt><trkpt lat="44.5775157" lon="10.0781593"><ele>678.0</ele><time>2026-04-24T13:56:04.238Z</time></trkpt><trkpt lat="44.5774416" lon="10.0779459"><ele>678.0</ele><time>2026-04-24T13:56:05.239Z</time></trkpt><trkpt lat="44.577376" lon="10.0777457"><ele>678.0</ele><time>2026-04-24T13:56:06.237Z</time></trkpt><trkpt lat="44.5773172" lon="10.0775612"><ele>676.75</ele><time>2026-04-24T13:56:07.238Z</time></trkpt><trkpt lat="44.577259" lon="10.077395"><ele>675.5</ele><time>2026-04-24T13:56:08.238Z</time></trkpt><trkpt lat="44.5772124" lon="10.0772456"><ele>674.25</ele><time>2026-04-24T13:56:09.239Z</time></trkpt><trkpt lat="44.5771699" lon="10.0771047"><ele>673.0</ele><time>2026-04-24T13:56:10.237Z</time></trkpt><trkpt lat="44.5771326" lon="10.076977"><ele>673.0</ele><time>2026-04-24T13:56:11.238Z</time></trkpt><trkpt lat="44.5771025" lon="10.0768692"><ele>673.0</ele><time>2026-04-24T13:56:12.238Z</time></trkpt><trkpt lat="44.5770736" lon="10.0767757"><ele>673.0</ele><time>2026-04-24T13:56:13.238Z</time></trkpt><trkpt lat="44.5770221" lon="10.0766377"><ele>673.0</ele><time>2026-04-24T13:56:15.238Z</time></trkpt><trkpt lat="44.576919" lon="10.0765983"><ele>673.0</ele><time>2026-04-24T13:56:17.239Z</time></trkpt><trkpt lat="44.5768462" lon="10.0766421"><ele>674.6666666666667</ele><time>2026-04-24T13:56:18.238Z</time></trkpt><trkpt lat="44.576776" lon="10.0767071"><ele>676.3333333333334</ele><time>2026-04-24T13:56:19.239Z</time></trkpt><trkpt lat="44.5767126" lon="10.076769"><ele>678.0</ele><time>2026-04-24T13:56:20.239Z</time></trkpt><trkpt lat="44.5766681" lon="10.0768353"><ele>679.6666666666666</ele><time>2026-04-24T13:56:21.239Z</time></trkpt><trkpt lat="44.5766108" lon="10.0770054"><ele>681.3333333333333</ele><time>2026-04-24T13:56:23.237Z</time></trkpt><trkpt lat="44.5766081" lon="10.0771006"><ele>683.0</ele><time>2026-04-24T13:56:24.238Z</time></trkpt><trkpt lat="44.5766262" lon="10.0772376"><ele>683.0</ele><time>2026-04-24T13:56:26.237Z</time></trkpt><trkpt lat="44.5766381" lon="10.0773267"><ele>683.0</ele><time>2026-04-24T13:57:24.237Z</time></trkpt><trkpt lat="44.576662" lon="10.0775116"><ele>683.0</ele><time>2026-04-24T13:57:26.239Z</time></trkpt><trkpt lat="44.5766774" lon="10.0776449"><ele>683.0</ele><time>2026-04-24T13:57:27.238Z</time></trkpt><trkpt lat="44.5766885" lon="10.0777924"><ele>683.0</ele><time>2026-04-24T13:57:28.239Z</time></trkpt><trkpt lat="44.5767038" lon="10.0779391"><ele>683.75</ele><time>2026-04-24T13:57:29.237Z</time></trkpt><trkpt lat="44.5767255" lon="10.0781025"><ele>684.5</ele><time>2026-04-24T13:57:30.237Z</time></trkpt><trkpt lat="44.576739" lon="10.0782805"><ele>685.25</ele><time>2026-04-24T13:57:31.237Z</time></trkpt><trkpt lat="44.5767331" lon="10.0784712"><ele>686.0</ele><time>2026-04-24T13:57:32.239Z</time></trkpt><trkpt lat="44.5767136" lon="10.0786558"><ele>687.25</ele><time>2026-04-24T13:57:33.238Z</time></trkpt><trkpt lat="44.5766902" lon="10.0788362"><ele>688.5</ele><time>2026-04-24T13:57:34.237Z</time></trkpt><trkpt lat="44.5766631" lon="10.0790117"><ele>689.75</ele><time>2026-04-24T13:57:35.238Z</time></trkpt><trkpt lat="44.5766376" lon="10.0791896"><ele>691.0</ele><time>2026-04-24T13:57:36.239Z</time></trkpt><trkpt lat="44.5766072" lon="10.0793681"><ele>693.0</ele><time>2026-04-24T13:57:37.238Z</time></trkpt><trkpt lat="44.5765836" lon="10.0795494"><ele>695.0</ele><time>2026-04-24T13:57:38.238Z</time></trkpt><trkpt lat="44.5765546" lon="10.0797245"><ele>697.0</ele><time>2026-04-24T13:57:39.238Z</time></trkpt><trkpt lat="44.5765293" lon="10.0798947"><ele>699.0</ele><time>2026-04-24T13:57:40.239Z</time></trkpt><trkpt lat="44.5764612" lon="10.0799983"><ele>702.0</ele><time>2026-04-24T13:57:41.238Z</time></trkpt><trkpt lat="44.5763749" lon="10.0800912"><ele>705.0</ele><time>2026-04-24T13:57:42.237Z</time></trkpt><trkpt lat="44.5762673" lon="10.0801377"><ele>708.0</ele><time>2026-04-24T13:57:43.238Z</time></trkpt><trkpt lat="44.5761442" lon="10.0801328"><ele>711.0</ele><time>2026-04-24T13:57:44.238Z</time></trkpt><trkpt lat="44.5760247" lon="10.0800969"><ele>711.0</ele><time>2026-04-24T13:57:45.239Z</time></trkpt><trkpt lat="44.5759069" lon="10.0800664"><ele>711.0</ele><time>2026-04-24T13:57:46.237Z</time></trkpt><trkpt lat="44.5757865" lon="10.0800443"><ele>711.0</ele><time>2026-04-24T13:57:47.237Z</time></trkpt><trkpt lat="44.5756807" lon="10.0800262"><ele>711.0</ele><time>2026-04-24T13:57:48.238Z</time></trkpt><trkpt lat="44.5755754" lon="10.080033"><ele>711.0</ele><time>2026-04-24T13:57:49.237Z</time></trkpt><trkpt lat="44.5754796" lon="10.0800633"><ele>711.0</ele><time>2026-04-24T13:57:50.238Z</time></trkpt><trkpt lat="44.5754072" lon="10.0801356"><ele>711.0</ele><time>2026-04-24T13:57:51.237Z</time></trkpt><trkpt lat="44.5753419" lon="10.0802203"><ele>711.0</ele><time>2026-04-24T13:57:52.237Z</time></trkpt><trkpt lat="44.5752663" lon="10.0803095"><ele>711.0</ele><time>2026-04-24T13:57:53.239Z</time></trkpt><trkpt lat="44.5751728" lon="10.0803662"><ele>712.75</ele><time>2026-04-24T13:57:54.237Z</time></trkpt><trkpt lat="44.5750585" lon="10.0803886"><ele>714.5</ele><time>2026-04-24T13:57:55.239Z</time></trkpt><trkpt lat="44.57494" lon="10.0804202"><ele>716.25</ele><time>2026-04-24T13:57:56.237Z</time></trkpt><trkpt lat="44.5747951" lon="10.080422"><ele>718.0</ele><time>2026-04-24T13:57:57.238Z</time></trkpt><trkpt lat="44.5745797" lon="10.0803817"><ele>720.5</ele><time>2026-04-24T13:57:58.236Z</time></trkpt><trkpt lat="44.574391" lon="10.0803797"><ele>723.0</ele><time>2026-04-24T13:57:59.238Z</time></trkpt><trkpt lat="44.5742637" lon="10.0803865"><ele>725.5</ele><time>2026-04-24T13:58:00.237Z</time></trkpt><trkpt lat="44.574154" lon="10.0804108"><ele>728.0</ele><time>2026-04-24T13:58:01.236Z</time></trkpt><trkpt lat="44.5740604" lon="10.0804505"><ele>728.0</ele><time>2026-04-24T13:58:02.237Z</time></trkpt><trkpt lat="44.5739627" lon="10.0806017"><ele>728.0</ele><time>2026-04-24T13:58:04.236Z</time></trkpt><trkpt lat="44.5740379" lon="10.0808699"><ele>728.0</ele><time>2026-04-24T13:58:06.236Z</time></trkpt><trkpt lat="44.5743638" lon="10.0810319"><ele>729.3333333333333</ele><time>2026-04-24T13:58:07.237Z</time></trkpt><trkpt lat="44.5745177" lon="10.0811788"><ele>730.6666666666666</ele><time>2026-04-24T13:58:08.236Z</time></trkpt><trkpt lat="44.5746545" lon="10.0813093"><ele>732.0</ele><time>2026-04-24T13:58:09.238Z</time></trkpt><trkpt lat="44.5747982" lon="10.0814526"><ele>732.0</ele><time>2026-04-24T13:58:10.236Z</time></trkpt><trkpt lat="44.574932" lon="10.0815967"><ele>732.0</ele><time>2026-04-24T13:58:11.238Z</time></trkpt><trkpt lat="44.5750695" lon="10.0817417"><ele>732.0</ele><time>2026-04-24T13:58:12.236Z</time></trkpt><trkpt lat="44.5752032" lon="10.0818911"><ele>736.6666666666666</ele><time>2026-04-24T13:58:13.238Z</time></trkpt><trkpt lat="44.5753431" lon="10.082033"><ele>741.3333333333333</ele><time>2026-04-24T13:58:14.237Z</time></trkpt><trkpt lat="44.575478" lon="10.0821712"><ele>746.0</ele><time>2026-04-24T13:58:15.237Z</time></trkpt><trkpt lat="44.5756459" lon="10.0822178"><ele>746.0</ele><time>2026-04-24T13:58:16.236Z</time></trkpt><trkpt lat="44.5757973" lon="10.0823015"><ele>746.0</ele><time>2026-04-24T13:58:17.238Z</time></trkpt><trkpt lat="44.5759591" lon="10.0823456"><ele>746.0</ele><time>2026-04-24T13:58:18.237Z</time></trkpt><trkpt lat="44.5760952" lon="10.0824059"><ele>747.0</ele><time>2026-04-24T13:58:19.237Z</time></trkpt><trkpt lat="44.5762368" lon="10.0824631"><ele>748.0</ele><time>2026-04-24T13:58:20.236Z</time></trkpt><trkpt lat="44.5763862" lon="10.0824434"><ele>749.0</ele><time>2026-04-24T13:58:21.236Z</time></trkpt><trkpt lat="44.5764693" lon="10.0823947"><ele>750.0</ele><time>2026-04-24T13:58:22.238Z</time></trkpt><trkpt lat="44.5765847" lon="10.0823818"><ele>754.5</ele><time>2026-04-24T13:58:23.236Z</time></trkpt><trkpt lat="44.5766965" lon="10.0824332"><ele>759.0</ele><time>2026-04-24T13:58:24.237Z</time></trkpt><trkpt lat="44.576761" lon="10.0824526"><ele>763.5</ele><time>2026-04-24T13:58:25.236Z</time></trkpt><trkpt lat="44.5766705" lon="10.0826617"><ele>768.0</ele><time>2026-04-24T13:58:27.238Z</time></trkpt><trkpt lat="44.5765783" lon="10.0827192"><ele>768.0</ele><time>2026-04-24T13:58:28.236Z</time></trkpt><trkpt lat="44.5764436" lon="10.08271"><ele>768.0</ele><time>2026-04-24T13:58:29.236Z</time></trkpt><trkpt lat="44.576292" lon="10.0828175"><ele>768.0</ele><time>2026-04-24T13:58:30.237Z</time></trkpt><trkpt lat="44.5761729" lon="10.0828601"><ele>768.0</ele><time>2026-04-24T13:58:31.238Z</time></trkpt><trkpt lat="44.5760412" lon="10.0829062"><ele>767.5</ele><time>2026-04-24T13:58:32.238Z</time></trkpt><trkpt lat="44.5759091" lon="10.0829419"><ele>767.0</ele><time>2026-04-24T13:58:33.238Z</time></trkpt><trkpt lat="44.575769" lon="10.0829726"><ele>766.5</ele><time>2026-04-24T13:58:34.237Z</time></trkpt><trkpt lat="44.5756575" lon="10.0828771"><ele>766.0</ele><time>2026-04-24T13:58:35.238Z</time></trkpt><trkpt lat="44.5755463" lon="10.0828631"><ele>766.0</ele><time>2026-04-24T13:58:36.238Z</time></trkpt><trkpt lat="44.5754429" lon="10.0828972"><ele>766.0</ele><time>2026-04-24T13:58:37.238Z</time></trkpt><trkpt lat="44.5753478" lon="10.0829664"><ele>766.0</ele><time>2026-04-24T13:58:38.238Z</time></trkpt><trkpt lat="44.5752444" lon="10.0830671"><ele>766.0</ele><time>2026-04-24T13:58:39.238Z</time></trkpt><trkpt lat="44.5751585" lon="10.0832048"><ele>770.75</ele><time>2026-04-24T13:58:40.237Z</time></trkpt><trkpt lat="44.5750735" lon="10.0833615"><ele>775.5</ele><time>2026-04-24T13:58:41.237Z</time></trkpt><trkpt lat="44.5749943" lon="10.0835047"><ele>780.25</ele><time>2026-04-24T13:58:42.237Z</time></trkpt><trkpt lat="44.5749325" lon="10.0836195"><ele>785.0</ele><time>2026-04-24T13:58:43.236Z</time></trkpt><trkpt lat="44.5748658" lon="10.0837358"><ele>785.0</ele><time>2026-04-24T13:58:44.237Z</time></trkpt><trkpt lat="44.5748217" lon="10.0838529"><ele>785.0</ele><time>2026-04-24T13:58:45.237Z</time></trkpt><trkpt lat="44.5748402" lon="10.0839555"><ele>785.0</ele><time>2026-04-24T13:58:46.237Z</time></trkpt><trkpt lat="44.574922" lon="10.0840617"><ele>785.0</ele><time>2026-04-24T13:58:47.237Z</time></trkpt><trkpt lat="44.5749792" lon="10.084133"><ele>785.0</ele><time>2026-04-24T13:58:48.237Z</time></trkpt><trkpt lat="44.5750964" lon="10.0841093"><ele>785.0</ele><time>2026-04-24T13:58:49.237Z</time></trkpt><trkpt lat="44.5752368" lon="10.0840443"><ele>785.0</ele><time>2026-04-24T13:58:50.237Z</time></trkpt><trkpt lat="44.5753063" lon="10.0840761"><ele>785.0</ele><time>2026-04-24T13:58:51.236Z</time></trkpt><trkpt lat="44.5753694" lon="10.0841329"><ele>785.0</ele><time>2026-04-24T13:58:52.237Z</time></trkpt><trkpt lat="44.5754116" lon="10.0842173"><ele>785.0</ele><time>2026-04-24T13:58:53.237Z</time></trkpt><trkpt lat="44.5754334" lon="10.0843293"><ele>789.0</ele><time>2026-04-24T13:58:54.237Z</time></trkpt><trkpt lat="44.5754365" lon="10.0844578"><ele>793.0</ele><time>2026-04-24T13:58:55.237Z</time></trkpt><trkpt lat="44.5754403" lon="10.0846034"><ele>797.0</ele><time>2026-04-24T13:58:56.238Z</time></trkpt><trkpt lat="44.5754501" lon="10.0847679"><ele>801.0</ele><time>2026-04-24T13:58:57.237Z</time></trkpt><trkpt lat="44.5754638" lon="10.0849598"><ele>804.0</ele><time>2026-04-24T13:58:58.237Z</time></trkpt><trkpt lat="44.5754788" lon="10.085188"><ele>807.0</ele><time>2026-04-24T13:58:59.236Z</time></trkpt><trkpt lat="44.5754911" lon="10.0854251"><ele>810.0</ele><time>2026-04-24T13:59:00.236Z</time></trkpt><trkpt lat="44.5755015" lon="10.0856434"><ele>811.8</ele><time>2026-04-24T13:59:01.236Z</time></trkpt><trkpt lat="44.5755356" lon="10.0858322"><ele>813.6</ele><time>2026-04-24T13:59:02.237Z</time></trkpt><trkpt lat="44.575467" lon="10.0859177"><ele>815.4000000000001</ele><time>2026-04-24T13:59:03.237Z</time></trkpt><trkpt lat="44.5754215" lon="10.086029"><ele>817.2</ele><time>2026-04-24T13:59:04.237Z</time></trkpt><trkpt lat="44.5753248" lon="10.0860211"><ele>819.0</ele><time>2026-04-24T13:59:05.236Z</time></trkpt><trkpt lat="44.575232" lon="10.0860282"><ele>819.0</ele><time>2026-04-24T13:59:06.236Z</time></trkpt><trkpt lat="44.5751343" lon="10.0860094"><ele>819.0</ele><time>2026-04-24T13:59:07.236Z</time></trkpt><trkpt lat="44.5750375" lon="10.0859361"><ele>819.0</ele><time>2026-04-24T13:59:08.236Z</time></trkpt><trkpt lat="44.5749388" lon="10.0858901"><ele>819.0</ele><time>2026-04-24T13:59:09.236Z</time></trkpt><trkpt lat="44.574846" lon="10.0858587"><ele>819.0</ele><time>2026-04-24T13:59:10.236Z</time></trkpt><trkpt lat="44.5747506" lon="10.0858465"><ele>819.0</ele><time>2026-04-24T13:59:11.237Z</time></trkpt><trkpt lat="44.5746561" lon="10.0859783"><ele>819.0</ele><time>2026-04-24T13:59:12.237Z</time></trkpt><trkpt lat="44.5746776" lon="10.0861308"><ele>819.0</ele><time>2026-04-24T13:59:13.236Z</time></trkpt><trkpt lat="44.5747079" lon="10.086315"><ele>819.0</ele><time>2026-04-24T13:59:15.236Z</time></trkpt><trkpt lat="44.5747834" lon="10.0864266"><ele>819.0</ele><time>2026-04-24T13:59:16.238Z</time></trkpt><trkpt lat="44.5748705" lon="10.0865313"><ele>819.0</ele><time>2026-04-24T13:59:17.237Z</time></trkpt><trkpt lat="44.574947" lon="10.086612"><ele>819.0</ele><time>2026-04-24T13:59:18.237Z</time></trkpt><trkpt lat="44.5749771" lon="10.0866987"><ele>819.0</ele><time>2026-04-24T13:59:19.238Z</time></trkpt><trkpt lat="44.5749658" lon="10.0868692"><ele>819.0</ele><time>2026-04-24T13:59:21.238Z</time></trkpt><trkpt lat="44.5749082" lon="10.0869224"><ele>820.4000000000001</ele><time>2026-04-24T13:59:22.237Z</time></trkpt><trkpt lat="44.5748332" lon="10.0869286"><ele>821.8</ele><time>2026-04-24T13:59:23.238Z</time></trkpt><trkpt lat="44.5747374" lon="10.0869031"><ele>823.2</ele><time>2026-04-24T13:59:24.238Z</time></trkpt><trkpt lat="44.5746302" lon="10.086833"><ele>824.5999999999999</ele><time>2026-04-24T13:59:25.237Z</time></trkpt><trkpt lat="44.5745005" lon="10.0867463"><ele>826.0</ele><time>2026-04-24T13:59:26.237Z</time></trkpt><trkpt lat="44.5743631" lon="10.0866597"><ele>827.3333333333333</ele><time>2026-04-24T13:59:27.237Z</time></trkpt><trkpt lat="44.5741943" lon="10.0865546"><ele>828.6666666666667</ele><time>2026-04-24T13:59:28.236Z</time></trkpt><trkpt lat="44.5740281" lon="10.0864419"><ele>830.0</ele><time>2026-04-24T13:59:29.237Z</time></trkpt><trkpt lat="44.5738716" lon="10.0863403"><ele>830.0</ele><time>2026-04-24T13:59:30.236Z</time></trkpt><trkpt lat="44.5737179" lon="10.0862664"><ele>830.0</ele><time>2026-04-24T13:59:31.237Z</time></trkpt><trkpt lat="44.5735784" lon="10.0861804"><ele>830.0</ele><time>2026-04-24T13:59:32.237Z</time></trkpt><trkpt lat="44.5734533" lon="10.08606"><ele>829.0</ele><time>2026-04-24T13:59:33.237Z</time></trkpt><trkpt lat="44.5733239" lon="10.0859141"><ele>828.0</ele><time>2026-04-24T13:59:34.237Z</time></trkpt><trkpt lat="44.573183" lon="10.0857795"><ele>827.0</ele><time>2026-04-24T13:59:35.238Z</time></trkpt><trkpt lat="44.5730302" lon="10.0856414"><ele>827.0</ele><time>2026-04-24T13:59:36.238Z</time></trkpt><trkpt lat="44.5728857" lon="10.0854964"><ele>827.0</ele><time>2026-04-24T13:59:37.237Z</time></trkpt><trkpt lat="44.5727458" lon="10.0853419"><ele>827.0</ele><time>2026-04-24T13:59:38.237Z</time></trkpt><trkpt lat="44.5726119" lon="10.0851762"><ele>831.0</ele><time>2026-04-24T13:59:39.236Z</time></trkpt><trkpt lat="44.5724934" lon="10.0850251"><ele>835.0</ele><time>2026-04-24T13:59:40.237Z</time></trkpt><trkpt lat="44.5723664" lon="10.0848742"><ele>839.0</ele><time>2026-04-24T13:59:41.236Z</time></trkpt><trkpt lat="44.572257" lon="10.0847282"><ele>839.0</ele><time>2026-04-24T13:59:42.237Z</time></trkpt><trkpt lat="44.5721665" lon="10.0846049"><ele>839.0</ele><time>2026-04-24T13:59:44.236Z</time></trkpt><trkpt lat="44.572128" lon="10.0845172"><ele>839.0</ele><time>2026-04-24T13:59:47.237Z</time></trkpt><trkpt lat="44.5721042" lon="10.0846316"><ele>839.0</ele><time>2026-04-24T13:59:54.236Z</time></trkpt><trkpt lat="44.5719993" lon="10.0846546"><ele>839.0</ele><time>2026-04-24T13:59:56.237Z</time></trkpt><trkpt lat="44.5719284" lon="10.0846627"><ele>843.8000000000001</ele><time>2026-04-24T13:59:57.237Z</time></trkpt><trkpt lat="44.5718619" lon="10.084749"><ele>848.6</ele><time>2026-04-24T13:59:58.238Z</time></trkpt><trkpt lat="44.5717991" lon="10.0848509"><ele>853.4</ele><time>2026-04-24T13:59:59.238Z</time></trkpt><trkpt lat="44.5718069" lon="10.0850133"><ele>858.2</ele><time>2026-04-24T14:00:00.237Z</time></trkpt><trkpt lat="44.571779" lon="10.0851539"><ele>863.0</ele><time>2026-04-24T14:00:01.236Z</time></trkpt><trkpt lat="44.5717616" lon="10.0852759"><ele>864.3333333333334</ele><time>2026-04-24T14:00:02.237Z</time></trkpt><trkpt lat="44.5718502" lon="10.0856031"><ele>865.6666666666667</ele><time>2026-04-24T14:00:03.236Z</time></trkpt><trkpt lat="44.5718834" lon="10.085862"><ele>867.0</ele><time>2026-04-24T14:00:04.237Z</time></trkpt><trkpt lat="44.5719272" lon="10.0861552"><ele>868.3333333333333</ele><time>2026-04-24T14:00:05.237Z</time></trkpt><trkpt lat="44.5719719" lon="10.0864507"><ele>869.6666666666666</ele><time>2026-04-24T14:00:06.237Z</time></trkpt><trkpt lat="44.5720137" lon="10.0867084"><ele>871.0</ele><time>2026-04-24T14:00:07.238Z</time></trkpt><trkpt lat="44.5720511" lon="10.0869386"><ele>872.25</ele><time>2026-04-24T14:00:08.238Z</time></trkpt><trkpt lat="44.5720761" lon="10.0871194"><ele>873.5</ele><time>2026-04-24T14:00:09.237Z</time></trkpt><trkpt lat="44.5720757" lon="10.087274"><ele>874.75</ele><time>2026-04-24T14:00:10.236Z</time></trkpt><trkpt lat="44.5720416" lon="10.0874205"><ele>876.0</ele><time>2026-04-24T14:00:11.236Z</time></trkpt><trkpt lat="44.5719771" lon="10.0875361"><ele>876.0</ele><time>2026-04-24T14:00:12.237Z</time></trkpt><trkpt lat="44.5718751" lon="10.0876382"><ele>876.0</ele><time>2026-04-24T14:00:13.237Z</time></trkpt><trkpt lat="44.5717511" lon="10.0877466"><ele>876.0</ele><time>2026-04-24T14:00:14.237Z</time></trkpt><trkpt lat="44.5716357" lon="10.0878435"><ele>876.0</ele><time>2026-04-24T14:00:15.237Z</time></trkpt><trkpt lat="44.5715267" lon="10.0879018"><ele>876.0</ele><time>2026-04-24T14:00:16.237Z</time></trkpt><trkpt lat="44.5714209" lon="10.0879099"><ele>875.9999999999999</ele><time>2026-04-24T14:00:17.238Z</time></trkpt><trkpt lat="44.5713077" lon="10.087881"><ele>875.9999999999999</ele><time>2026-04-24T14:00:18.237Z</time></trkpt><trkpt lat="44.5712123" lon="10.0878091"><ele>876.0</ele><time>2026-04-24T14:00:19.237Z</time></trkpt><trkpt lat="44.571113" lon="10.0877448"><ele>876.0</ele><time>2026-04-24T14:00:20.237Z</time></trkpt><trkpt lat="44.5710147" lon="10.0875689"><ele>876.0</ele><time>2026-04-24T14:00:21.238Z</time></trkpt><trkpt lat="44.5709333" lon="10.0874578"><ele>875.9999999999999</ele><time>2026-04-24T14:00:22.236Z</time></trkpt><trkpt lat="44.5708376" lon="10.0874027"><ele>875.9999999999999</ele><time>2026-04-24T14:00:23.237Z</time></trkpt><trkpt lat="44.5707636" lon="10.0873711"><ele>876.0</ele><time>2026-04-24T14:00:24.237Z</time></trkpt><trkpt lat="44.5706782" lon="10.0873733"><ele>876.0</ele><time>2026-04-24T14:00:25.236Z</time></trkpt><trkpt lat="44.5705867" lon="10.0874486"><ele>879.75</ele><time>2026-04-24T14:00:26.236Z</time></trkpt><trkpt lat="44.5704752" lon="10.0875313"><ele>883.5</ele><time>2026-04-24T14:00:27.237Z</time></trkpt><trkpt lat="44.5703652" lon="10.087621"><ele>887.25</ele><time>2026-04-24T14:00:28.238Z</time></trkpt><trkpt lat="44.5702346" lon="10.0877307"><ele>891.0</ele><time>2026-04-24T14:00:29.237Z</time></trkpt><trkpt lat="44.5700567" lon="10.0878275"><ele>893.0</ele><time>2026-04-24T14:00:30.237Z</time></trkpt><trkpt lat="44.5699142" lon="10.0878978"><ele>895.0</ele><time>2026-04-24T14:00:31.236Z</time></trkpt><trkpt lat="44.5697748" lon="10.0879462"><ele>897.0</ele><time>2026-04-24T14:00:32.237Z</time></trkpt><trkpt lat="44.5696373" lon="10.0880342"><ele>899.0</ele><time>2026-04-24T14:00:33.237Z</time></trkpt><trkpt lat="44.5694977" lon="10.0881152"><ele>903.25</ele><time>2026-04-24T14:00:34.238Z</time></trkpt><trkpt lat="44.5693599" lon="10.0882019"><ele>907.5</ele><time>2026-04-24T14:00:35.238Z</time></trkpt><trkpt lat="44.5692297" lon="10.0882846"><ele>911.75</ele><time>2026-04-24T14:00:36.236Z</time></trkpt><trkpt lat="44.5691082" lon="10.0883621"><ele>916.0</ele><time>2026-04-24T14:00:37.236Z</time></trkpt><trkpt lat="44.56899" lon="10.088431"><ele>916.0</ele><time>2026-04-24T14:00:38.237Z</time></trkpt><trkpt lat="44.5689599" lon="10.0885704"><ele>915.9999999999999</ele><time>2026-04-24T14:00:39.237Z</time></trkpt><trkpt lat="44.568964" lon="10.0886994"><ele>915.9999999999999</ele><time>2026-04-24T14:00:40.238Z</time></trkpt><trkpt lat="44.5689629" lon="10.0888183"><ele>916.0</ele><time>2026-04-24T14:00:41.236Z</time></trkpt><trkpt lat="44.5690172" lon="10.0889538"><ele>916.0</ele><time>2026-04-24T14:00:42.236Z</time></trkpt><trkpt lat="44.5690639" lon="10.0890911"><ele>916.1999999999999</ele><time>2026-04-24T14:00:43.237Z</time></trkpt><trkpt lat="44.5690831" lon="10.0892136"><ele>916.3999999999999</ele><time>2026-04-24T14:00:44.237Z</time></trkpt><trkpt lat="44.5691074" lon="10.0893334"><ele>916.6</ele><time>2026-04-24T14:00:45.238Z</time></trkpt><trkpt lat="44.5690673" lon="10.0894885"><ele>916.8</ele><time>2026-04-24T14:00:46.236Z</time></trkpt><trkpt lat="44.5690266" lon="10.0896863"><ele>917.0</ele><time>2026-04-24T14:00:47.237Z</time></trkpt><trkpt lat="44.5689781" lon="10.0898966"><ele>918.3333333333334</ele><time>2026-04-24T14:00:48.237Z</time></trkpt><trkpt lat="44.5689191" lon="10.0901248"><ele>919.6666666666667</ele><time>2026-04-24T14:00:49.238Z</time></trkpt><trkpt lat="44.5688639" lon="10.090353"><ele>921.0</ele><time>2026-04-24T14:00:50.237Z</time></trkpt><trkpt lat="44.5688199" lon="10.0905684"><ele>921.0</ele><time>2026-04-24T14:00:51.238Z</time></trkpt><trkpt lat="44.5687922" lon="10.0907449"><ele>920.9999999999999</ele><time>2026-04-24T14:00:52.237Z</time></trkpt><trkpt lat="44.5687625" lon="10.0908966"><ele>920.9999999999999</ele><time>2026-04-24T14:00:53.237Z</time></trkpt><trkpt lat="44.5687123" lon="10.0910065"><ele>921.0</ele><time>2026-04-24T14:00:54.237Z</time></trkpt><trkpt lat="44.5686635" lon="10.0911048"><ele>921.0</ele><time>2026-04-24T14:00:55.237Z</time></trkpt><trkpt lat="44.5685679" lon="10.0910709"><ele>925.0</ele><time>2026-04-24T14:00:56.238Z</time></trkpt><trkpt lat="44.5684986" lon="10.0910728"><ele>929.0</ele><time>2026-04-24T14:00:57.236Z</time></trkpt><trkpt lat="44.568429" lon="10.0909765"><ele>933.0</ele><time>2026-04-24T14:00:58.237Z</time></trkpt><trkpt lat="44.568354" lon="10.0908823"><ele>937.0</ele><time>2026-04-24T14:00:59.237Z</time></trkpt><trkpt lat="44.5682298" lon="10.0906596"><ele>937.0</ele><time>2026-04-24T14:01:00.236Z</time></trkpt><trkpt lat="44.5681305" lon="10.0905197"><ele>937.0</ele><time>2026-04-24T14:01:01.237Z</time></trkpt><trkpt lat="44.5680294" lon="10.0903921"><ele>937.0</ele><time>2026-04-24T14:01:02.236Z</time></trkpt><trkpt lat="44.5679176" lon="10.0902868"><ele>937.0</ele><time>2026-04-24T14:01:03.236Z</time></trkpt><trkpt lat="44.5677889" lon="10.0901814"><ele>942.25</ele><time>2026-04-24T14:01:04.236Z</time></trkpt><trkpt lat="44.5676692" lon="10.0900774"><ele>947.5</ele><time>2026-04-24T14:01:05.238Z</time></trkpt><trkpt lat="44.5675815" lon="10.0899627"><ele>952.75</ele><time>2026-04-24T14:01:06.238Z</time></trkpt><trkpt lat="44.567515" lon="10.0898161"><ele>958.0</ele><time>2026-04-24T14:01:07.237Z</time></trkpt><trkpt lat="44.5674614" lon="10.0896355"><ele>958.0</ele><time>2026-04-24T14:01:08.238Z</time></trkpt><trkpt lat="44.5674167" lon="10.0894241"><ele>958.0</ele><time>2026-04-24T14:01:09.238Z</time></trkpt><trkpt lat="44.5673976" lon="10.0892245"><ele>958.0</ele><time>2026-04-24T14:01:10.237Z</time></trkpt><trkpt lat="44.5673903" lon="10.0890427"><ele>958.0</ele><time>2026-04-24T14:01:11.236Z</time></trkpt><trkpt lat="44.5673688" lon="10.0888749"><ele>957.0</ele><time>2026-04-24T14:01:12.236Z</time></trkpt><trkpt lat="44.5673503" lon="10.0887276"><ele>956.0</ele><time>2026-04-24T14:01:13.237Z</time></trkpt><trkpt lat="44.5673186" lon="10.088585"><ele>955.0</ele><time>2026-04-24T14:01:14.236Z</time></trkpt><trkpt lat="44.5672455" lon="10.0884684"><ele>954.0</ele><time>2026-04-24T14:01:15.238Z</time></trkpt><trkpt lat="44.5671801" lon="10.088402"><ele>953.0</ele><time>2026-04-24T14:01:16.237Z</time></trkpt><trkpt lat="44.5671309" lon="10.0885353"><ele>953.0</ele><time>2026-04-24T14:01:17.238Z</time></trkpt><trkpt lat="44.567059" lon="10.0887176"><ele>953.0</ele><time>2026-04-24T14:01:18.237Z</time></trkpt><trkpt lat="44.5670467" lon="10.0888663"><ele>953.0</ele><time>2026-04-24T14:01:19.237Z</time></trkpt><trkpt lat="44.5671203" lon="10.089136"><ele>954.25</ele><time>2026-04-24T14:01:20.237Z</time></trkpt><trkpt lat="44.5670935" lon="10.089301"><ele>955.5</ele><time>2026-04-24T14:01:21.238Z</time></trkpt><trkpt lat="44.5670648" lon="10.0895009"><ele>956.75</ele><time>2026-04-24T14:01:22.236Z</time></trkpt><trkpt lat="44.5670749" lon="10.0896932"><ele>958.0</ele><time>2026-04-24T14:01:23.237Z</time></trkpt><trkpt lat="44.5670823" lon="10.0898855"><ele>958.25</ele><time>2026-04-24T14:01:24.237Z</time></trkpt><trkpt lat="44.5670784" lon="10.0900343"><ele>958.5</ele><time>2026-04-24T14:01:25.236Z</time></trkpt><trkpt lat="44.5670357" lon="10.0901564"><ele>958.75</ele><time>2026-04-24T14:01:26.237Z</time></trkpt><trkpt lat="44.5669793" lon="10.0902951"><ele>959.0</ele><time>2026-04-24T14:01:27.238Z</time></trkpt><trkpt lat="44.5668575" lon="10.0904042"><ele>968.0</ele><time>2026-04-24T14:01:28.238Z</time></trkpt><trkpt lat="44.5667443" lon="10.0905616"><ele>977.0</ele><time>2026-04-24T14:01:29.237Z</time></trkpt><trkpt lat="44.5666234" lon="10.0907236"><ele>986.0</ele><time>2026-04-24T14:01:30.237Z</time></trkpt><trkpt lat="44.5665264" lon="10.0908588"><ele>986.0</ele><time>2026-04-24T14:01:31.238Z</time></trkpt><trkpt lat="44.5664397" lon="10.0909699"><ele>985.9999999999999</ele><time>2026-04-24T14:01:32.237Z</time></trkpt><trkpt lat="44.5663884" lon="10.0910586"><ele>985.9999999999999</ele><time>2026-04-24T14:01:33.236Z</time></trkpt><trkpt lat="44.5663802" lon="10.0911735"><ele>986.0</ele><time>2026-04-24T14:01:34.236Z</time></trkpt><trkpt lat="44.5663869" lon="10.0913045"><ele>986.0</ele><time>2026-04-24T14:01:35.235Z</time></trkpt><trkpt lat="44.566397" lon="10.0914411"><ele>986.0</ele><time>2026-04-24T14:01:36.236Z</time></trkpt><trkpt lat="44.5663894" lon="10.0915604"><ele>985.9999999999999</ele><time>2026-04-24T14:01:37.236Z</time></trkpt><trkpt lat="44.5663467" lon="10.0916939"><ele>985.9999999999999</ele><time>2026-04-24T14:01:38.236Z</time></trkpt><trkpt lat="44.5662876" lon="10.0918122"><ele>986.0</ele><time>2026-04-24T14:01:39.237Z</time></trkpt><trkpt lat="44.5662095" lon="10.0919037"><ele>986.0</ele><time>2026-04-24T14:01:40.236Z</time></trkpt><trkpt lat="44.5661134" lon="10.0919521"><ele>990.5</ele><time>2026-04-24T14:01:41.236Z</time></trkpt><trkpt lat="44.5660095" lon="10.0919784"><ele>995.0</ele><time>2026-04-24T14:01:42.237Z</time></trkpt><trkpt lat="44.5658716" lon="10.0919553"><ele>999.5</ele><time>2026-04-24T14:01:43.235Z</time></trkpt><trkpt lat="44.5657524" lon="10.0919747"><ele>1004.0</ele><time>2026-04-24T14:01:44.236Z</time></trkpt><trkpt lat="44.5656103" lon="10.091973"><ele>1004.0</ele><time>2026-04-24T14:01:45.236Z</time></trkpt><trkpt lat="44.5654619" lon="10.091987"><ele>1004.0</ele><time>2026-04-24T14:01:46.235Z</time></trkpt><trkpt lat="44.565298" lon="10.0919952"><ele>1004.0</ele><time>2026-04-24T14:01:47.236Z</time></trkpt><trkpt lat="44.5651601" lon="10.0919997"><ele>1005.25</ele><time>2026-04-24T14:01:48.236Z</time></trkpt><trkpt lat="44.5650359" lon="10.0919988"><ele>1006.5</ele><time>2026-04-24T14:01:49.236Z</time></trkpt><trkpt lat="44.5649242" lon="10.0920018"><ele>1007.75</ele><time>2026-04-24T14:01:50.237Z</time></trkpt><trkpt lat="44.5648214" lon="10.0920409"><ele>1009.0</ele><time>2026-04-24T14:01:51.237Z</time></trkpt><trkpt lat="44.5647234" lon="10.0921263"><ele>1009.0</ele><time>2026-04-24T14:01:52.235Z</time></trkpt><trkpt lat="44.5646674" lon="10.0922381"><ele>1009.0000000000001</ele><time>2026-04-24T14:01:53.236Z</time></trkpt><trkpt lat="44.5646371" lon="10.0923718"><ele>1009.0000000000001</ele><time>2026-04-24T14:01:54.236Z</time></trkpt><trkpt lat="44.5646234" lon="10.092509"><ele>1009.0</ele><time>2026-04-24T14:01:55.236Z</time></trkpt><trkpt lat="44.5646578" lon="10.0926708"><ele>1009.0</ele><time>2026-04-24T14:01:56.235Z</time></trkpt><trkpt lat="44.5646727" lon="10.0928302"><ele>1009.5</ele><time>2026-04-24T14:01:57.236Z</time></trkpt><trkpt lat="44.5647043" lon="10.0930029"><ele>1010.0</ele><time>2026-04-24T14:01:58.235Z</time></trkpt><trkpt lat="44.564747" lon="10.0931917"><ele>1010.5</ele><time>2026-04-24T14:01:59.237Z</time></trkpt><trkpt lat="44.5647799" lon="10.093384"><ele>1011.0</ele><time>2026-04-24T14:02:00.236Z</time></trkpt><trkpt lat="44.5648191" lon="10.0935865"><ele>1012.5999999999999</ele><time>2026-04-24T14:02:01.235Z</time></trkpt><trkpt lat="44.5648322" lon="10.093754"><ele>1014.1999999999999</ele><time>2026-04-24T14:02:02.235Z</time></trkpt><trkpt lat="44.5648585" lon="10.0938954"><ele>1015.8000000000001</ele><time>2026-04-24T14:02:03.236Z</time></trkpt><trkpt lat="44.5648557" lon="10.0939951"><ele>1017.4000000000001</ele><time>2026-04-24T14:02:04.235Z</time></trkpt><trkpt lat="44.5648093" lon="10.0941016"><ele>1019.0</ele><time>2026-04-24T14:02:05.237Z</time></trkpt><trkpt lat="44.5647484" lon="10.0942286"><ele>1020.4000000000001</ele><time>2026-04-24T14:02:06.236Z</time></trkpt><trkpt lat="44.5646558" lon="10.0943389"><ele>1021.8000000000001</ele><time>2026-04-24T14:02:07.236Z</time></trkpt><trkpt lat="44.5645935" lon="10.0944657"><ele>1023.1999999999999</ele><time>2026-04-24T14:02:08.236Z</time></trkpt><trkpt lat="44.564565" lon="10.0945986"><ele>1024.6</ele><time>2026-04-24T14:02:09.235Z</time></trkpt><trkpt lat="44.5645618" lon="10.0947586"><ele>1026.0</ele><time>2026-04-24T14:02:10.236Z</time></trkpt><trkpt lat="44.5645929" lon="10.0949099"><ele>1027.3999999999999</ele><time>2026-04-24T14:02:11.235Z</time></trkpt><trkpt lat="44.5646383" lon="10.0950571"><ele>1028.8</ele><time>2026-04-24T14:02:12.236Z</time></trkpt><trkpt lat="44.5646969" lon="10.0951816"><ele>1030.1999999999998</ele><time>2026-04-24T14:02:13.237Z</time></trkpt><trkpt lat="44.5647674" lon="10.0952947"><ele>1031.6</ele><time>2026-04-24T14:02:14.236Z</time></trkpt><trkpt lat="44.5648456" lon="10.0953865"><ele>1033.0</ele><time>2026-04-24T14:02:15.235Z</time></trkpt><trkpt lat="44.5649452" lon="10.0954452"><ele>1033.0</ele><time>2026-04-24T14:02:16.237Z</time></trkpt><trkpt lat="44.565017" lon="10.0955443"><ele>1033.0</ele><time>2026-04-24T14:02:17.236Z</time></trkpt><trkpt lat="44.5650424" lon="10.095704"><ele>1033.0</ele><time>2026-04-24T14:02:18.236Z</time></trkpt><trkpt lat="44.5650922" lon="10.0958681"><ele>1033.0</ele><time>2026-04-24T14:02:19.235Z</time></trkpt><trkpt lat="44.5651304" lon="10.096041"><ele>1035.2</ele><time>2026-04-24T14:02:20.235Z</time></trkpt><trkpt lat="44.565083" lon="10.096189"><ele>1037.4</ele><time>2026-04-24T14:02:21.235Z</time></trkpt><trkpt lat="44.5650529" lon="10.0963069"><ele>1039.6000000000001</ele><time>2026-04-24T14:02:22.235Z</time></trkpt><trkpt lat="44.5649928" lon="10.0964171"><ele>1041.8</ele><time>2026-04-24T14:02:23.236Z</time></trkpt><trkpt lat="44.5649346" lon="10.0965172"><ele>1044.0</ele><time>2026-04-24T14:02:24.236Z</time></trkpt><trkpt lat="44.5648744" lon="10.0966064"><ele>1044.1666666666667</ele><time>2026-04-24T14:02:25.236Z</time></trkpt><trkpt lat="44.5648264" lon="10.0966678"><ele>1044.3333333333333</ele><time>2026-04-24T14:02:26.236Z</time></trkpt><trkpt lat="44.5647473" lon="10.0967721"><ele>1044.5</ele><time>2026-04-24T14:02:28.235Z</time></trkpt><trkpt lat="44.5646691" lon="10.096841"><ele>1044.6666666666665</ele><time>2026-04-24T14:02:30.235Z</time></trkpt><trkpt lat="44.5645764" lon="10.096853"><ele>1044.8333333333333</ele><time>2026-04-24T14:02:32.237Z</time></trkpt><trkpt lat="44.5645178" lon="10.0968133"><ele>1045.0</ele><time>2026-04-24T14:02:34.236Z</time></trkpt><trkpt lat="44.5644506" lon="10.0967269"><ele>1047.1666666666665</ele><time>2026-04-24T14:02:36.237Z</time></trkpt><trkpt lat="44.564391" lon="10.09659"><ele>1049.3333333333333</ele><time>2026-04-24T14:02:38.236Z</time></trkpt><trkpt lat="44.5643706" lon="10.0964953"><ele>1051.5</ele><time>2026-04-24T14:02:39.235Z</time></trkpt><trkpt lat="44.5643539" lon="10.0964033"><ele>1053.6666666666667</ele><time>2026-04-24T14:02:40.237Z</time></trkpt><trkpt lat="44.564339" lon="10.0963076"><ele>1055.8333333333335</ele><time>2026-04-24T14:02:41.236Z</time></trkpt><trkpt lat="44.5643119" lon="10.0962145"><ele>1058.0</ele><time>2026-04-24T14:02:42.235Z</time></trkpt><trkpt lat="44.5642689" lon="10.0961253"><ele>1058.8</ele><time>2026-04-24T14:02:43.237Z</time></trkpt><trkpt lat="44.5642032" lon="10.0960497"><ele>1059.6</ele><time>2026-04-24T14:02:44.236Z</time></trkpt><trkpt lat="44.5641187" lon="10.0960083"><ele>1060.4</ele><time>2026-04-24T14:02:45.236Z</time></trkpt><trkpt lat="44.5640022" lon="10.0960137"><ele>1061.2</ele><time>2026-04-24T14:02:46.235Z</time></trkpt><trkpt lat="44.5638613" lon="10.0960523"><ele>1062.0</ele><time>2026-04-24T14:02:47.236Z</time></trkpt><trkpt lat="44.5637261" lon="10.096095"><ele>1065.6</ele><time>2026-04-24T14:02:48.236Z</time></trkpt><trkpt lat="44.5636158" lon="10.0961256"><ele>1069.2</ele><time>2026-04-24T14:02:49.236Z</time></trkpt><trkpt lat="44.5635438" lon="10.096138"><ele>1072.8</ele><time>2026-04-24T14:02:50.236Z</time></trkpt><trkpt lat="44.5634298" lon="10.0961697"><ele>1076.4</ele><time>2026-04-24T14:02:52.237Z</time></trkpt><trkpt lat="44.5633453" lon="10.096187"><ele>1080.0</ele><time>2026-04-24T14:02:54.235Z</time></trkpt><trkpt lat="44.563255" lon="10.0962143"><ele>1080.0</ele><time>2026-04-24T14:02:56.236Z</time></trkpt><trkpt lat="44.5631906" lon="10.0962318"><ele>1080.0</ele><time>2026-04-24T14:02:58.235Z</time></trkpt><trkpt lat="44.5631278" lon="10.09625"><ele>1080.0</ele><time>2026-04-24T14:03:01.237Z</time></trkpt><trkpt lat="44.5630277" lon="10.096265"><ele>1080.0</ele><time>2026-04-24T14:03:04.236Z</time></trkpt><trkpt lat="44.5629637" lon="10.0962748"><ele>1080.0</ele><time>2026-04-24T14:03:05.236Z</time></trkpt><trkpt lat="44.562889" lon="10.0962911"><ele>1080.0</ele><time>2026-04-24T14:03:06.236Z</time></trkpt><trkpt lat="44.5627985" lon="10.0962922"><ele>1080.25</ele><time>2026-04-24T14:03:07.237Z</time></trkpt><trkpt lat="44.5626582" lon="10.0963063"><ele>1080.5</ele><time>2026-04-24T14:03:08.236Z</time></trkpt><trkpt lat="44.5625182" lon="10.0964318"><ele>1080.75</ele><time>2026-04-24T14:03:09.235Z</time></trkpt><trkpt lat="44.5623906" lon="10.0965125"><ele>1081.0</ele><time>2026-04-24T14:03:10.236Z</time></trkpt><trkpt lat="44.562282" lon="10.0966318"><ele>1081.0</ele><time>2026-04-24T14:03:11.235Z</time></trkpt><trkpt lat="44.5621539" lon="10.0967554"><ele>1081.0</ele><time>2026-04-24T14:03:12.237Z</time></trkpt><trkpt lat="44.5620245" lon="10.0969028"><ele>1081.0</ele><time>2026-04-24T14:03:13.236Z</time></trkpt><trkpt lat="44.5618946" lon="10.0970417"><ele>1086.6666666666665</ele><time>2026-04-24T14:03:14.236Z</time></trkpt><trkpt lat="44.5617623" lon="10.0971822"><ele>1092.3333333333333</ele><time>2026-04-24T14:03:15.237Z</time></trkpt><trkpt lat="44.5616299" lon="10.0973078"><ele>1098.0</ele><time>2026-04-24T14:03:16.237Z</time></trkpt><trkpt lat="44.5615328" lon="10.0974217"><ele>1098.0</ele><time>2026-04-24T14:03:17.236Z</time></trkpt><trkpt lat="44.5614233" lon="10.0975387"><ele>1098.0</ele><time>2026-04-24T14:03:18.235Z</time></trkpt><trkpt lat="44.5613709" lon="10.0976905"><ele>1098.0</ele><time>2026-04-24T14:03:19.236Z</time></trkpt><trkpt lat="44.5613393" lon="10.0978631"><ele>1098.0</ele><time>2026-04-24T14:03:20.237Z</time></trkpt><trkpt lat="44.561273" lon="10.0980703"><ele>1097.0</ele><time>2026-04-24T14:03:21.236Z</time></trkpt><trkpt lat="44.5612306" lon="10.0982623"><ele>1096.0</ele><time>2026-04-24T14:03:22.235Z</time></trkpt><trkpt lat="44.5611913" lon="10.0984413"><ele>1095.0</ele><time>2026-04-24T14:03:23.236Z</time></trkpt><trkpt lat="44.5611424" lon="10.0986443"><ele>1094.0</ele><time>2026-04-24T14:03:24.236Z</time></trkpt><trkpt lat="44.5610822" lon="10.0988265"><ele>1099.8</ele><time>2026-04-24T14:03:25.236Z</time></trkpt><trkpt lat="44.5610015" lon="10.0989556"><ele>1105.6000000000001</ele><time>2026-04-24T14:03:26.237Z</time></trkpt><trkpt lat="44.5609486" lon="10.0991127"><ele>1111.4</ele><time>2026-04-24T14:03:27.236Z</time></trkpt><trkpt lat="44.5609074" lon="10.0992453"><ele>1117.2</ele><time>2026-04-24T14:03:28.235Z</time></trkpt><trkpt lat="44.5608881" lon="10.0993562"><ele>1123.0</ele><time>2026-04-24T14:03:29.235Z</time></trkpt><trkpt lat="44.5608869" lon="10.0994875"><ele>1123.0</ele><time>2026-04-24T14:03:30.235Z</time></trkpt><trkpt lat="44.561031" lon="10.0996601"><ele>1123.0</ele><time>2026-04-24T14:03:31.236Z</time></trkpt><trkpt lat="44.5610895" lon="10.0998317"><ele>1123.0</ele><time>2026-04-24T14:03:32.236Z</time></trkpt><trkpt lat="44.5611265" lon="10.1000022"><ele>1125.6666666666665</ele><time>2026-04-24T14:03:33.235Z</time></trkpt><trkpt lat="44.5611482" lon="10.1002043"><ele>1128.3333333333333</ele><time>2026-04-24T14:03:34.236Z</time></trkpt><trkpt lat="44.5611758" lon="10.1004401"><ele>1131.0</ele><time>2026-04-24T14:03:35.236Z</time></trkpt><trkpt lat="44.5611967" lon="10.1006891"><ele>1122.0</ele><time>2026-04-24T14:03:36.236Z</time></trkpt><trkpt lat="44.5612177" lon="10.1009547"><ele>1113.0</ele><time>2026-04-24T14:03:37.237Z</time></trkpt><trkpt lat="44.5612321" lon="10.1011975"><ele>1104.0</ele><time>2026-04-24T14:03:38.236Z</time></trkpt><trkpt lat="44.5612477" lon="10.101433"><ele>1105.5</ele><time>2026-04-24T14:03:39.236Z</time></trkpt><trkpt lat="44.5612779" lon="10.1015851"><ele>1107.0</ele><time>2026-04-24T14:03:40.236Z</time></trkpt><trkpt lat="44.5613036" lon="10.101739"><ele>1108.5</ele><time>2026-04-24T14:03:41.236Z</time></trkpt><trkpt lat="44.5613075" lon="10.1018526"><ele>1110.0</ele><time>2026-04-24T14:03:42.236Z</time></trkpt><trkpt lat="44.5612778" lon="10.1019486"><ele>1111.5</ele><time>2026-04-24T14:03:43.236Z</time></trkpt><trkpt lat="44.5612243" lon="10.1019961"><ele>1113.0</ele><time>2026-04-24T14:03:44.236Z</time></trkpt><trkpt lat="44.5611444" lon="10.1020173"><ele>1118.8</ele><time>2026-04-24T14:03:45.236Z</time></trkpt><trkpt lat="44.5610573" lon="10.1019985"><ele>1124.6</ele><time>2026-04-24T14:03:46.236Z</time></trkpt><trkpt lat="44.5609726" lon="10.1019418"><ele>1130.4</ele><time>2026-04-24T14:03:47.236Z</time></trkpt><trkpt lat="44.5609077" lon="10.1018534"><ele>1136.2</ele><time>2026-04-24T14:03:48.235Z</time></trkpt><trkpt lat="44.5608542" lon="10.1017257"><ele>1142.0</ele><time>2026-04-24T14:03:49.236Z</time></trkpt><trkpt lat="44.5608085" lon="10.1015974"><ele>1140.75</ele><time>2026-04-24T14:03:50.237Z</time></trkpt><trkpt lat="44.5607568" lon="10.1014514"><ele>1139.5</ele><time>2026-04-24T14:03:51.236Z</time></trkpt><trkpt lat="44.5606984" lon="10.1012944"><ele>1138.25</ele><time>2026-04-24T14:03:52.236Z</time></trkpt><trkpt lat="44.5606185" lon="10.101146"><ele>1137.0</ele><time>2026-04-24T14:03:53.236Z</time></trkpt><trkpt lat="44.5605303" lon="10.1009964"><ele>1137.0</ele><time>2026-04-24T14:03:54.236Z</time></trkpt><trkpt lat="44.5604446" lon="10.1008488"><ele>1137.0</ele><time>2026-04-24T14:03:55.236Z</time></trkpt><trkpt lat="44.5603685" lon="10.1007205"><ele>1137.0</ele><time>2026-04-24T14:03:56.235Z</time></trkpt><trkpt lat="44.5603068" lon="10.1005751"><ele>1137.0</ele><time>2026-04-24T14:03:57.236Z</time></trkpt><trkpt lat="44.5602593" lon="10.1004266"><ele>1140.8</ele><time>2026-04-24T14:03:58.236Z</time></trkpt><trkpt lat="44.5601974" lon="10.1002933"><ele>1144.6</ele><time>2026-04-24T14:03:59.235Z</time></trkpt><trkpt lat="44.560147" lon="10.1001561"><ele>1148.3999999999999</ele><time>2026-04-24T14:04:00.236Z</time></trkpt><trkpt lat="44.5601255" lon="10.1000388"><ele>1152.2</ele><time>2026-04-24T14:04:01.236Z</time></trkpt><trkpt lat="44.5600845" lon="10.0999363"><ele>1156.0</ele><time>2026-04-24T14:04:02.237Z</time></trkpt><trkpt lat="44.560023" lon="10.099905"><ele>1157.3999999999999</ele><time>2026-04-24T14:04:04.235Z</time></trkpt><trkpt lat="44.5599574" lon="10.0999995"><ele>1158.8</ele><time>2026-04-24T14:04:06.235Z</time></trkpt><trkpt lat="44.559978" lon="10.1001266"><ele>1160.1999999999998</ele><time>2026-04-24T14:04:07.236Z</time></trkpt><trkpt lat="44.5600206" lon="10.1002412"><ele>1161.6</ele><time>2026-04-24T14:04:08.235Z</time></trkpt><trkpt lat="44.5600498" lon="10.1003766"><ele>1163.0</ele><time>2026-04-24T14:04:09.236Z</time></trkpt><trkpt lat="44.5600717" lon="10.1005428"><ele>1163.0</ele><time>2026-04-24T14:04:10.235Z</time></trkpt><trkpt lat="44.5600766" lon="10.1007052"><ele>1163.0</ele><time>2026-04-24T14:04:11.235Z</time></trkpt><trkpt lat="44.560056" lon="10.1008727"><ele>1163.0</ele><time>2026-04-24T14:04:12.237Z</time></trkpt><trkpt lat="44.5599987" lon="10.1010442"><ele>1163.0</ele><time>2026-04-24T14:04:13.236Z</time></trkpt><trkpt lat="44.559939" lon="10.1012315"><ele>1164.75</ele><time>2026-04-24T14:04:14.236Z</time></trkpt><trkpt lat="44.5599017" lon="10.1014261"><ele>1166.5</ele><time>2026-04-24T14:04:15.236Z</time></trkpt><trkpt lat="44.5598597" lon="10.101602"><ele>1168.25</ele><time>2026-04-24T14:04:16.237Z</time></trkpt><trkpt lat="44.5597924" lon="10.1017422"><ele>1170.0</ele><time>2026-04-24T14:04:17.235Z</time></trkpt><trkpt lat="44.5597127" lon="10.1018826"><ele>1170.0</ele><time>2026-04-24T14:04:18.235Z</time></trkpt><trkpt lat="44.5596333" lon="10.1020126"><ele>1170.0</ele><time>2026-04-24T14:04:19.236Z</time></trkpt><trkpt lat="44.5595444" lon="10.1021331"><ele>1170.0</ele><time>2026-04-24T14:04:20.237Z</time></trkpt><trkpt lat="44.5594633" lon="10.1022175"><ele>1170.0</ele><time>2026-04-24T14:04:21.235Z</time></trkpt><trkpt lat="44.5593674" lon="10.1022776"><ele>1180.75</ele><time>2026-04-24T14:04:22.235Z</time></trkpt><trkpt lat="44.5592572" lon="10.1023156"><ele>1191.5</ele><time>2026-04-24T14:04:23.237Z</time></trkpt><trkpt lat="44.559149" lon="10.1023405"><ele>1202.25</ele><time>2026-04-24T14:04:24.236Z</time></trkpt><trkpt lat="44.5590376" lon="10.1023603"><ele>1213.0</ele><time>2026-04-24T14:04:25.237Z</time></trkpt><trkpt lat="44.5588945" lon="10.1023732"><ele>1213.0</ele><time>2026-04-24T14:04:26.235Z</time></trkpt><trkpt lat="44.558757" lon="10.1023712"><ele>1213.0</ele><time>2026-04-24T14:04:27.236Z</time></trkpt><trkpt lat="44.5586153" lon="10.1023756"><ele>1213.0</ele><time>2026-04-24T14:04:28.236Z</time></trkpt><trkpt lat="44.5584757" lon="10.1023676"><ele>1213.0</ele><time>2026-04-24T14:04:29.237Z</time></trkpt><trkpt lat="44.5583493" lon="10.1023598"><ele>1217.6</ele><time>2026-04-24T14:04:30.237Z</time></trkpt><trkpt lat="44.5582436" lon="10.1023488"><ele>1222.1999999999998</ele><time>2026-04-24T14:04:31.237Z</time></trkpt><trkpt lat="44.5581525" lon="10.1023392"><ele>1226.8</ele><time>2026-04-24T14:04:32.236Z</time></trkpt><trkpt lat="44.5580611" lon="10.1023285"><ele>1231.3999999999999</ele><time>2026-04-24T14:04:33.236Z</time></trkpt><trkpt lat="44.557965" lon="10.1023193"><ele>1236.0</ele><time>2026-04-24T14:04:34.235Z</time></trkpt><trkpt lat="44.55787" lon="10.1023043"><ele>1237.0</ele><time>2026-04-24T14:04:35.235Z</time></trkpt><trkpt lat="44.5577679" lon="10.102277"><ele>1238.0</ele><time>2026-04-24T14:04:36.236Z</time></trkpt><trkpt lat="44.5576611" lon="10.1022427"><ele>1239.0</ele><time>2026-04-24T14:04:37.235Z</time></trkpt><trkpt lat="44.5575559" lon="10.1022112"><ele>1240.0</ele><time>2026-04-24T14:04:38.236Z</time></trkpt><trkpt lat="44.5574615" lon="10.1021798"><ele>1241.0</ele><time>2026-04-24T14:04:39.237Z</time></trkpt><trkpt lat="44.5573802" lon="10.1021545"><ele>1241.0</ele><time>2026-04-24T14:04:40.236Z</time></trkpt><trkpt lat="44.5573043" lon="10.1021238"><ele>1241.0</ele><time>2026-04-24T14:04:41.236Z</time></trkpt><trkpt lat="44.5572327" lon="10.1020827"><ele>1241.0</ele><time>2026-04-24T14:04:42.237Z</time></trkpt><trkpt lat="44.5571718" lon="10.1020552"><ele>1241.0</ele><time>2026-04-24T14:04:43.237Z</time></trkpt><trkpt lat="44.5570772" lon="10.102007"><ele>1241.0</ele><time>2026-04-24T14:04:45.235Z</time></trkpt><trkpt lat="44.5569875" lon="10.1020166"><ele>1241.0</ele><time>2026-04-24T14:21:14.236Z</time></trkpt><trkpt lat="44.5569109" lon="10.1019703"><ele>1241.3999999999999</ele><time>2026-04-24T14:21:16.235Z</time></trkpt><trkpt lat="44.5568843" lon="10.1021038"><ele>1241.8</ele><time>2026-04-24T14:21:21.234Z</time></trkpt><trkpt lat="44.5569102" lon="10.1022085"><ele>1242.1999999999998</ele><time>2026-04-24T14:21:22.234Z</time></trkpt><trkpt lat="44.5569314" lon="10.1023256"><ele>1242.6</ele><time>2026-04-24T14:21:23.235Z</time></trkpt><trkpt lat="44.5569606" lon="10.1025258"><ele>1243.0</ele><time>2026-04-24T14:21:24.235Z</time></trkpt><trkpt lat="44.5569592" lon="10.1026376"><ele>1243.0</ele><time>2026-04-24T14:21:25.234Z</time></trkpt><trkpt lat="44.5569466" lon="10.1027911"><ele>1243.0</ele><time>2026-04-24T14:21:26.235Z</time></trkpt><trkpt lat="44.5569376" lon="10.1029407"><ele>1243.0</ele><time>2026-04-24T14:21:27.235Z</time></trkpt><trkpt lat="44.5569303" lon="10.1030721"><ele>1243.0</ele><time>2026-04-24T14:21:28.234Z</time></trkpt><trkpt lat="44.5569232" lon="10.1032002"><ele>1243.0</ele><time>2026-04-24T14:21:29.235Z</time></trkpt><trkpt lat="44.556937" lon="10.103328"><ele>1242.6</ele><time>2026-04-24T14:21:30.235Z</time></trkpt><trkpt lat="44.556926" lon="10.1034325"><ele>1242.1999999999998</ele><time>2026-04-24T14:21:31.236Z</time></trkpt><trkpt lat="44.556904" lon="10.1035904"><ele>1241.8</ele><time>2026-04-24T14:21:33.234Z</time></trkpt><trkpt lat="44.5568594" lon="10.1037394"><ele>1241.3999999999999</ele><time>2026-04-24T14:21:35.234Z</time></trkpt><trkpt lat="44.5567806" lon="10.1038229"><ele>1241.0</ele><time>2026-04-24T14:21:36.235Z</time></trkpt><trkpt lat="44.5567589" lon="10.1039179"><ele>1241.0</ele><time>2026-04-24T14:21:37.234Z</time></trkpt><trkpt lat="44.5567245" lon="10.1040019"><ele>1241.0</ele><time>2026-04-24T14:21:38.235Z</time></trkpt><trkpt lat="44.5566608" lon="10.1040764"><ele>1241.0</ele><time>2026-04-24T14:21:39.235Z</time></trkpt><trkpt lat="44.5566331" lon="10.1041712"><ele>1241.0</ele><time>2026-04-24T14:21:40.235Z</time></trkpt><trkpt lat="44.5565413" lon="10.1043095"><ele>1241.0</ele><time>2026-04-24T14:21:42.235Z</time></trkpt><trkpt lat="44.5564758" lon="10.1043988"><ele>1242.0</ele><time>2026-04-24T14:21:43.235Z</time></trkpt><trkpt lat="44.5564188" lon="10.1045511"><ele>1243.0</ele><time>2026-04-24T14:21:45.235Z</time></trkpt><trkpt lat="44.5563194" lon="10.1046913"><ele>1244.0</ele><time>2026-04-24T14:21:47.236Z</time></trkpt><trkpt lat="44.5562649" lon="10.104806"><ele>1245.0</ele><time>2026-04-24T14:21:48.236Z</time></trkpt><trkpt lat="44.5562342" lon="10.104887"><ele>1246.0</ele><time>2026-04-24T14:21:49.234Z</time></trkpt><trkpt lat="44.5561714" lon="10.1050136"><ele>1246.0</ele><time>2026-04-24T14:21:51.235Z</time></trkpt><trkpt lat="44.5561292" lon="10.1050979"><ele>1246.0</ele><time>2026-04-24T14:21:52.234Z</time></trkpt><trkpt lat="44.5560885" lon="10.1051871"><ele>1246.0</ele><time>2026-04-24T14:21:53.235Z</time></trkpt><trkpt lat="44.5560415" lon="10.1052987"><ele>1246.0</ele><time>2026-04-24T14:21:54.235Z</time></trkpt><trkpt lat="44.555979" lon="10.1054001"><ele>1246.0</ele><time>2026-04-24T14:21:55.235Z</time></trkpt><trkpt lat="44.5559398" lon="10.1055055"><ele>1246.0</ele><time>2026-04-24T14:21:56.236Z</time></trkpt><trkpt lat="44.5559038" lon="10.1055806"><ele>1246.0</ele><time>2026-04-24T14:21:57.236Z</time></trkpt><trkpt lat="44.555859" lon="10.1057109"><ele>1246.0</ele><time>2026-04-24T14:21:58.235Z</time></trkpt><trkpt lat="44.5558184" lon="10.105781"><ele>1246.0</ele><time>2026-04-24T14:21:59.236Z</time></trkpt><trkpt lat="44.5557843" lon="10.105859"><ele>1246.0</ele><time>2026-04-24T14:22:00.236Z</time></trkpt><trkpt lat="44.5557369" lon="10.1059463"><ele>1246.0</ele><time>2026-04-24T14:22:01.236Z</time></trkpt><trkpt lat="44.5556946" lon="10.1060214"><ele>1246.0</ele><time>2026-04-24T14:22:02.235Z</time></trkpt><trkpt lat="44.5556448" lon="10.1061"><ele>1245.3333333333333</ele><time>2026-04-24T14:22:03.236Z</time></trkpt><trkpt lat="44.5555976" lon="10.1062076"><ele>1244.6666666666665</ele><time>2026-04-24T14:22:04.235Z</time></trkpt><trkpt lat="44.5555465" lon="10.1063254"><ele>1244.0</ele><time>2026-04-24T14:22:05.236Z</time></trkpt><trkpt lat="44.5555167" lon="10.1064074"><ele>1243.3333333333333</ele><time>2026-04-24T14:22:06.236Z</time></trkpt><trkpt lat="44.5554756" lon="10.1065222"><ele>1242.6666666666667</ele><time>2026-04-24T14:22:07.234Z</time></trkpt><trkpt lat="44.5554463" lon="10.1066164"><ele>1242.0</ele><time>2026-04-24T14:22:08.235Z</time></trkpt><trkpt lat="44.5554152" lon="10.106717"><ele>1242.0</ele><time>2026-04-24T14:22:09.234Z</time></trkpt><trkpt lat="44.5553698" lon="10.1068568"><ele>1242.0</ele><time>2026-04-24T14:22:11.235Z</time></trkpt><trkpt lat="44.5553215" lon="10.1070129"><ele>1242.0</ele><time>2026-04-24T14:22:13.235Z</time></trkpt><trkpt lat="44.5552858" lon="10.107134"><ele>1242.0</ele><time>2026-04-24T14:22:14.236Z</time></trkpt><trkpt lat="44.5552732" lon="10.1072492"><ele>1242.0</ele><time>2026-04-24T14:22:16.235Z</time></trkpt><trkpt lat="44.5552399" lon="10.1073242"><ele>1241.3333333333333</ele><time>2026-04-24T14:22:17.235Z</time></trkpt><trkpt lat="44.5551843" lon="10.1074456"><ele>1240.6666666666667</ele><time>2026-04-24T14:22:19.235Z</time></trkpt><trkpt lat="44.5551391" lon="10.107556"><ele>1240.0</ele><time>2026-04-24T14:22:20.234Z</time></trkpt><trkpt lat="44.555096" lon="10.1076659"><ele>1239.3333333333335</ele><time>2026-04-24T14:22:21.235Z</time></trkpt><trkpt lat="44.555054" lon="10.1077591"><ele>1238.6666666666667</ele><time>2026-04-24T14:22:22.235Z</time></trkpt><trkpt lat="44.5550103" lon="10.1078513"><ele>1238.0</ele><time>2026-04-24T14:22:23.235Z</time></trkpt><trkpt lat="44.5549544" lon="10.1079296"><ele>1238.0</ele><time>2026-04-24T14:22:24.235Z</time></trkpt><trkpt lat="44.5549105" lon="10.1079968"><ele>1238.0</ele><time>2026-04-24T14:22:25.236Z</time></trkpt><trkpt lat="44.5548592" lon="10.1080597"><ele>1238.0</ele><time>2026-04-24T14:22:26.236Z</time></trkpt><trkpt lat="44.5548081" lon="10.1081142"><ele>1238.0</ele><time>2026-04-24T14:22:27.236Z</time></trkpt><trkpt lat="44.5547567" lon="10.1082125"><ele>1238.0</ele><time>2026-04-24T14:22:28.235Z</time></trkpt><trkpt lat="44.5546854" lon="10.1083697"><ele>1238.0</ele><time>2026-04-24T14:22:30.234Z</time></trkpt><trkpt lat="44.5546755" lon="10.1084858"><ele>1237.5</ele><time>2026-04-24T14:22:31.234Z</time></trkpt><trkpt lat="44.5546579" lon="10.1086566"><ele>1237.0</ele><time>2026-04-24T14:22:33.235Z</time></trkpt><trkpt lat="44.554634" lon="10.1087597"><ele>1236.5</ele><time>2026-04-24T14:22:34.235Z</time></trkpt><trkpt lat="44.5545947" lon="10.1088446"><ele>1236.0</ele><time>2026-04-24T14:22:35.236Z</time></trkpt><trkpt lat="44.5545617" lon="10.1089398"><ele>1235.5</ele><time>2026-04-24T14:22:36.235Z</time></trkpt><trkpt lat="44.5545288" lon="10.1090502"><ele>1235.0</ele><time>2026-04-24T14:22:37.235Z</time></trkpt><trkpt lat="44.5545171" lon="10.109146"><ele>1232.6</ele><time>2026-04-24T14:22:38.236Z</time></trkpt><trkpt lat="44.5545006" lon="10.1092402"><ele>1230.2</ele><time>2026-04-24T14:22:39.235Z</time></trkpt><trkpt lat="44.5544647" lon="10.1093286"><ele>1227.8</ele><time>2026-04-24T14:22:40.234Z</time></trkpt><trkpt lat="44.5543742" lon="10.1094403"><ele>1225.4</ele><time>2026-04-24T14:22:42.235Z</time></trkpt><trkpt lat="44.55428" lon="10.1094892"><ele>1223.0</ele><time>2026-04-24T14:22:44.236Z</time></trkpt><trkpt lat="44.5541517" lon="10.1095541"><ele>1223.0</ele><time>2026-04-24T14:22:46.236Z</time></trkpt><trkpt lat="44.5541" lon="10.1096423"><ele>1223.0</ele><time>2026-04-24T14:22:47.234Z</time></trkpt><trkpt lat="44.5539731" lon="10.1097823"><ele>1223.0</ele><time>2026-04-24T14:22:49.234Z</time></trkpt><trkpt lat="44.5538967" lon="10.1098724"><ele>1223.0</ele><time>2026-04-24T14:22:50.234Z</time></trkpt><trkpt lat="44.5538211" lon="10.1099493"><ele>1223.0</ele><time>2026-04-24T14:22:51.234Z</time></trkpt><trkpt lat="44.5537507" lon="10.1100241"><ele>1220.6</ele><time>2026-04-24T14:22:52.234Z</time></trkpt><trkpt lat="44.5536213" lon="10.1100743"><ele>1218.1999999999998</ele><time>2026-04-24T14:22:54.234Z</time></trkpt><trkpt lat="44.5535527" lon="10.1100909"><ele>1215.8</ele><time>2026-04-24T14:22:55.234Z</time></trkpt><trkpt lat="44.553436" lon="10.1101603"><ele>1213.3999999999999</ele><time>2026-04-24T14:22:57.235Z</time></trkpt><trkpt lat="44.553367" lon="10.1102014"><ele>1211.0</ele><time>2026-04-24T14:22:58.235Z</time></trkpt><trkpt lat="44.5532871" lon="10.1102367"><ele>1211.0</ele><time>2026-04-24T14:22:59.235Z</time></trkpt><trkpt lat="44.5532024" lon="10.1102504"><ele>1211.0</ele><time>2026-04-24T14:23:01.233Z</time></trkpt><trkpt lat="44.5530856" lon="10.1102636"><ele>1211.0</ele><time>2026-04-24T14:23:03.234Z</time></trkpt><trkpt lat="44.553018" lon="10.1102233"><ele>1211.0</ele><time>2026-04-24T14:23:04.234Z</time></trkpt><trkpt lat="44.5529569" lon="10.1101954"><ele>1211.0</ele><time>2026-04-24T14:23:05.235Z</time></trkpt><trkpt lat="44.552883" lon="10.1101574"><ele>1211.0</ele><time>2026-04-24T14:23:06.234Z</time></trkpt><trkpt lat="44.552811" lon="10.1101195"><ele>1208.3999999999999</ele><time>2026-04-24T14:23:07.233Z</time></trkpt><trkpt lat="44.552695" lon="10.1101004"><ele>1205.8</ele><time>2026-04-24T14:23:09.234Z</time></trkpt><trkpt lat="44.55257" lon="10.1101147"><ele>1203.1999999999998</ele><time>2026-04-24T14:23:11.234Z</time></trkpt><trkpt lat="44.5524402" lon="10.1101659"><ele>1200.6</ele><time>2026-04-24T14:23:13.234Z</time></trkpt><trkpt lat="44.5523769" lon="10.1102009"><ele>1198.0</ele><time>2026-04-24T14:23:14.234Z</time></trkpt><trkpt lat="44.5523046" lon="10.1102423"><ele>1198.0</ele><time>2026-04-24T14:23:15.233Z</time></trkpt><trkpt lat="44.5522339" lon="10.1103116"><ele>1198.0</ele><time>2026-04-24T14:23:16.233Z</time></trkpt><trkpt lat="44.5521704" lon="10.1103821"><ele>1198.0</ele><time>2026-04-24T14:23:17.234Z</time></trkpt><trkpt lat="44.5521131" lon="10.1104385"><ele>1198.0</ele><time>2026-04-24T14:23:18.234Z</time></trkpt><trkpt lat="44.5520526" lon="10.1104976"><ele>1198.0</ele><time>2026-04-24T14:23:19.234Z</time></trkpt><trkpt lat="44.5519895" lon="10.1105635"><ele>1198.0</ele><time>2026-04-24T14:23:20.233Z</time></trkpt><trkpt lat="44.5519113" lon="10.1106324"><ele>1196.1666666666665</ele><time>2026-04-24T14:23:21.234Z</time></trkpt><trkpt lat="44.5518342" lon="10.1106916"><ele>1194.3333333333333</ele><time>2026-04-24T14:23:22.235Z</time></trkpt><trkpt lat="44.5517596" lon="10.1107512"><ele>1192.5</ele><time>2026-04-24T14:23:23.234Z</time></trkpt><trkpt lat="44.5516923" lon="10.1108056"><ele>1190.6666666666667</ele><time>2026-04-24T14:23:24.233Z</time></trkpt><trkpt lat="44.5516418" lon="10.110877"><ele>1188.8333333333335</ele><time>2026-04-24T14:23:25.233Z</time></trkpt><trkpt lat="44.5515969" lon="10.1109874"><ele>1187.0</ele><time>2026-04-24T14:23:27.235Z</time></trkpt><trkpt lat="44.5516275" lon="10.1111324"><ele>1187.0</ele><time>2026-04-24T14:23:29.234Z</time></trkpt><trkpt lat="44.5516972" lon="10.1112876"><ele>1187.0</ele><time>2026-04-24T14:23:31.233Z</time></trkpt><trkpt lat="44.5517349" lon="10.1113675"><ele>1187.0</ele><time>2026-04-24T14:23:32.235Z</time></trkpt><trkpt lat="44.5517798" lon="10.1114318"><ele>1187.0</ele><time>2026-04-24T14:23:33.234Z</time></trkpt><trkpt lat="44.551827" lon="10.1114997"><ele>1187.0</ele><time>2026-04-24T14:23:34.235Z</time></trkpt><trkpt lat="44.5519048" lon="10.1115712"><ele>1187.0</ele><time>2026-04-24T14:23:36.235Z</time></trkpt><trkpt lat="44.5519402" lon="10.1116989"><ele>1186.4</ele><time>2026-04-24T14:23:38.234Z</time></trkpt><trkpt lat="44.551969" lon="10.1118861"><ele>1185.8000000000002</ele><time>2026-04-24T14:23:40.233Z</time></trkpt><trkpt lat="44.5519986" lon="10.1120596"><ele>1185.2</ele><time>2026-04-24T14:23:42.234Z</time></trkpt><trkpt lat="44.5520755" lon="10.112163"><ele>1184.6000000000001</ele><time>2026-04-24T14:23:44.234Z</time></trkpt><trkpt lat="44.5521137" lon="10.1122481"><ele>1184.0</ele><time>2026-04-24T14:23:45.235Z</time></trkpt><trkpt lat="44.5521554" lon="10.1123466"><ele>1180.5</ele><time>2026-04-24T14:23:46.234Z</time></trkpt><trkpt lat="44.5521919" lon="10.1124576"><ele>1177.0</ele><time>2026-04-24T14:23:47.234Z</time></trkpt><trkpt lat="44.5522308" lon="10.1125299"><ele>1173.5</ele><time>2026-04-24T14:23:48.234Z</time></trkpt><trkpt lat="44.5522697" lon="10.1126088"><ele>1170.0</ele><time>2026-04-24T14:23:49.234Z</time></trkpt><trkpt lat="44.5523032" lon="10.1127097"><ele>1166.5</ele><time>2026-04-24T14:23:50.233Z</time></trkpt><trkpt lat="44.5523307" lon="10.1128314"><ele>1163.0</ele><time>2026-04-24T14:23:51.235Z</time></trkpt><trkpt lat="44.5524029" lon="10.112944"><ele>1163.0</ele><time>2026-04-24T14:23:52.233Z</time></trkpt><trkpt lat="44.5524148" lon="10.1130424"><ele>1163.0</ele><time>2026-04-24T14:23:53.234Z</time></trkpt><trkpt lat="44.5524586" lon="10.1131408"><ele>1163.0</ele><time>2026-04-24T14:23:54.234Z</time></trkpt><trkpt lat="44.5524967" lon="10.1132537"><ele>1163.0</ele><time>2026-04-24T14:23:55.235Z</time></trkpt><trkpt lat="44.5525301" lon="10.1133367"><ele>1163.0</ele><time>2026-04-24T14:23:56.234Z</time></trkpt><trkpt lat="44.5525522" lon="10.1134286"><ele>1163.0</ele><time>2026-04-24T14:23:57.233Z</time></trkpt><trkpt lat="44.5525537" lon="10.1135242"><ele>1163.0</ele><time>2026-04-24T14:23:58.234Z</time></trkpt><trkpt lat="44.5525351" lon="10.1136391"><ele>1160.5</ele><time>2026-04-24T14:23:59.233Z</time></trkpt><trkpt lat="44.5524932" lon="10.1137345"><ele>1158.0</ele><time>2026-04-24T14:24:00.234Z</time></trkpt><trkpt lat="44.5524747" lon="10.1138437"><ele>1155.5</ele><time>2026-04-24T14:24:01.234Z</time></trkpt><trkpt lat="44.5524677" lon="10.1139466"><ele>1153.0</ele><time>2026-04-24T14:24:02.234Z</time></trkpt><trkpt lat="44.5524538" lon="10.1140564"><ele>1150.5</ele><time>2026-04-24T14:24:03.234Z</time></trkpt><trkpt lat="44.5524542" lon="10.1141498"><ele>1148.0</ele><time>2026-04-24T14:24:04.234Z</time></trkpt><trkpt lat="44.5524522" lon="10.1142508"><ele>1146.5</ele><time>2026-04-24T14:24:05.234Z</time></trkpt><trkpt lat="44.5524443" lon="10.114346"><ele>1145.0</ele><time>2026-04-24T14:24:06.233Z</time></trkpt><trkpt lat="44.5524455" lon="10.1144955"><ele>1143.5</ele><time>2026-04-24T14:24:08.235Z</time></trkpt><trkpt lat="44.5524619" lon="10.1145851"><ele>1142.0</ele><time>2026-04-24T14:24:09.234Z</time></trkpt><trkpt lat="44.5524732" lon="10.1146805"><ele>1140.5</ele><time>2026-04-24T14:24:10.233Z</time></trkpt><trkpt lat="44.5524538" lon="10.1148423"><ele>1139.0</ele><time>2026-04-24T14:24:12.234Z</time></trkpt><trkpt lat="44.5523632" lon="10.1148793"><ele>1139.0</ele><time>2026-04-24T14:24:14.233Z</time></trkpt><trkpt lat="44.5522572" lon="10.1148769"><ele>1139.0</ele><time>2026-04-24T14:24:16.234Z</time></trkpt><trkpt lat="44.5521112" lon="10.1148301"><ele>1139.0</ele><time>2026-04-24T14:24:18.235Z</time></trkpt><trkpt lat="44.5520317" lon="10.1147939"><ele>1139.0</ele><time>2026-04-24T14:24:19.233Z</time></trkpt><trkpt lat="44.551968" lon="10.1147626"><ele>1139.0</ele><time>2026-04-24T14:24:20.233Z</time></trkpt><trkpt lat="44.5518475" lon="10.1147724"><ele>1133.8</ele><time>2026-04-24T14:24:22.234Z</time></trkpt><trkpt lat="44.5517859" lon="10.1148049"><ele>1128.6000000000001</ele><time>2026-04-24T14:24:23.234Z</time></trkpt><trkpt lat="44.5517541" lon="10.1150153"><ele>1123.4</ele><time>2026-04-24T14:24:25.234Z</time></trkpt><trkpt lat="44.5517886" lon="10.1151305"><ele>1118.2</ele><time>2026-04-24T14:24:27.234Z</time></trkpt><trkpt lat="44.5518744" lon="10.1152881"><ele>1113.0</ele><time>2026-04-24T14:24:29.235Z</time></trkpt><trkpt lat="44.5519151" lon="10.1153676"><ele>1112.3333333333333</ele><time>2026-04-24T14:24:30.234Z</time></trkpt><trkpt lat="44.551955" lon="10.115442"><ele>1111.6666666666667</ele><time>2026-04-24T14:24:31.235Z</time></trkpt><trkpt lat="44.5519897" lon="10.115536"><ele>1111.0</ele><time>2026-04-24T14:24:32.234Z</time></trkpt><trkpt lat="44.5520186" lon="10.1156363"><ele>1110.3333333333335</ele><time>2026-04-24T14:24:33.235Z</time></trkpt><trkpt lat="44.5520523" lon="10.1157423"><ele>1109.6666666666667</ele><time>2026-04-24T14:24:34.235Z</time></trkpt><trkpt lat="44.552085" lon="10.1158534"><ele>1109.0</ele><time>2026-04-24T14:24:35.235Z</time></trkpt><trkpt lat="44.5521045" lon="10.1160516"><ele>1109.0</ele><time>2026-04-24T14:24:37.235Z</time></trkpt><trkpt lat="44.5520902" lon="10.1161777"><ele>1109.0</ele><time>2026-04-24T14:24:38.234Z</time></trkpt><trkpt lat="44.5520796" lon="10.1163753"><ele>1109.0</ele><time>2026-04-24T14:24:40.235Z</time></trkpt><trkpt lat="44.5520904" lon="10.1165254"><ele>1109.0</ele><time>2026-04-24T14:24:42.235Z</time></trkpt><trkpt lat="44.5520766" lon="10.1166538"><ele>1109.0</ele><time>2026-04-24T14:24:43.234Z</time></trkpt><trkpt lat="44.5520478" lon="10.1167566"><ele>1104.6000000000001</ele><time>2026-04-24T14:24:44.233Z</time></trkpt><trkpt lat="44.5520262" lon="10.1168613"><ele>1100.2</ele><time>2026-04-24T14:24:45.233Z</time></trkpt><trkpt lat="44.5519933" lon="10.1169736"><ele>1095.8000000000002</ele><time>2026-04-24T14:24:46.233Z</time></trkpt><trkpt lat="44.5519577" lon="10.1170942"><ele>1091.4</ele><time>2026-04-24T14:24:47.233Z</time></trkpt><trkpt lat="44.5518846" lon="10.1171988"><ele>1087.0</ele><time>2026-04-24T14:24:48.233Z</time></trkpt><trkpt lat="44.5518369" lon="10.1173117"><ele>1085.8333333333333</ele><time>2026-04-24T14:24:49.233Z</time></trkpt><trkpt lat="44.5517899" lon="10.1174087"><ele>1084.6666666666665</ele><time>2026-04-24T14:24:50.235Z</time></trkpt><trkpt lat="44.5517626" lon="10.1174973"><ele>1083.5</ele><time>2026-04-24T14:24:51.235Z</time></trkpt><trkpt lat="44.5517323" lon="10.117625"><ele>1082.3333333333333</ele><time>2026-04-24T14:24:52.234Z</time></trkpt><trkpt lat="44.5517237" lon="10.1177381"><ele>1081.1666666666667</ele><time>2026-04-24T14:24:53.234Z</time></trkpt><trkpt lat="44.5517035" lon="10.1178575"><ele>1080.0</ele><time>2026-04-24T14:24:54.233Z</time></trkpt><trkpt lat="44.5516862" lon="10.1179516"><ele>1080.0</ele><time>2026-04-24T14:24:55.233Z</time></trkpt><trkpt lat="44.5516723" lon="10.1180696"><ele>1080.0</ele><time>2026-04-24T14:24:56.234Z</time></trkpt><trkpt lat="44.5516833" lon="10.1181616"><ele>1080.0</ele><time>2026-04-24T14:24:57.234Z</time></trkpt><trkpt lat="44.5516992" lon="10.1182695"><ele>1080.0</ele><time>2026-04-24T14:24:58.234Z</time></trkpt><trkpt lat="44.5517246" lon="10.1183959"><ele>1080.0</ele><time>2026-04-24T14:24:59.235Z</time></trkpt><trkpt lat="44.5517511" lon="10.1185094"><ele>1080.0</ele><time>2026-04-24T14:25:00.234Z</time></trkpt><trkpt lat="44.5517631" lon="10.1186212"><ele>1080.3333333333333</ele><time>2026-04-24T14:25:01.234Z</time></trkpt><trkpt lat="44.5517715" lon="10.1187277"><ele>1080.6666666666667</ele><time>2026-04-24T14:25:02.234Z</time></trkpt><trkpt lat="44.5517708" lon="10.1188298"><ele>1081.0</ele><time>2026-04-24T14:25:03.233Z</time></trkpt><trkpt lat="44.5517625" lon="10.1189264"><ele>1081.3333333333335</ele><time>2026-04-24T14:25:04.234Z</time></trkpt><trkpt lat="44.5517616" lon="10.1190277"><ele>1081.6666666666667</ele><time>2026-04-24T14:25:05.233Z</time></trkpt><trkpt lat="44.5517647" lon="10.1191253"><ele>1082.0</ele><time>2026-04-24T14:25:06.235Z</time></trkpt><trkpt lat="44.5517608" lon="10.1192805"><ele>1082.0</ele><time>2026-04-24T14:25:08.235Z</time></trkpt><trkpt lat="44.551753" lon="10.1194284"><ele>1082.0</ele><time>2026-04-24T14:25:10.234Z</time></trkpt><trkpt lat="44.5517453" lon="10.1195596"><ele>1082.0</ele><time>2026-04-24T14:25:12.234Z</time></trkpt><trkpt lat="44.5517425" lon="10.1196827"><ele>1082.0</ele><time>2026-04-24T14:25:14.234Z</time></trkpt><trkpt lat="44.5517356" lon="10.1198456"><ele>1082.0</ele><time>2026-04-24T14:25:16.234Z</time></trkpt><trkpt lat="44.5517596" lon="10.1199913"><ele>1081.8333333333335</ele><time>2026-04-24T14:25:18.234Z</time></trkpt><trkpt lat="44.5517794" lon="10.1200796"><ele>1081.6666666666667</ele><time>2026-04-24T14:25:19.234Z</time></trkpt><trkpt lat="44.5518254" lon="10.1201619"><ele>1081.5</ele><time>2026-04-24T14:25:20.234Z</time></trkpt><trkpt lat="44.5518933" lon="10.1201752"><ele>1081.3333333333333</ele><time>2026-04-24T14:25:21.233Z</time></trkpt><trkpt lat="44.5519703" lon="10.1202368"><ele>1081.1666666666665</ele><time>2026-04-24T14:25:22.233Z</time></trkpt><trkpt lat="44.552041" lon="10.1204001"><ele>1081.0</ele><time>2026-04-24T14:25:24.235Z</time></trkpt><trkpt lat="44.5520574" lon="10.1204959"><ele>1079.1666666666665</ele><time>2026-04-24T14:25:25.233Z</time></trkpt><trkpt lat="44.5520774" lon="10.120596"><ele>1077.3333333333333</ele><time>2026-04-24T14:25:26.234Z</time></trkpt><trkpt lat="44.5520948" lon="10.1206961"><ele>1075.5</ele><time>2026-04-24T14:25:27.234Z</time></trkpt><trkpt lat="44.5520974" lon="10.120798"><ele>1073.6666666666667</ele><time>2026-04-24T14:25:28.235Z</time></trkpt><trkpt lat="44.5520891" lon="10.1209757"><ele>1071.8333333333335</ele><time>2026-04-24T14:25:30.235Z</time></trkpt><trkpt lat="44.5521061" lon="10.1210823"><ele>1070.0</ele><time>2026-04-24T14:25:31.234Z</time></trkpt><trkpt lat="44.5521054" lon="10.1211758"><ele>1070.0</ele><time>2026-04-24T14:25:32.235Z</time></trkpt><trkpt lat="44.5521459" lon="10.1212993"><ele>1070.0</ele><time>2026-04-24T14:25:33.235Z</time></trkpt><trkpt lat="44.5522723" lon="10.1212898"><ele>1070.0</ele><time>2026-04-24T14:25:34.233Z</time></trkpt><trkpt lat="44.5523218" lon="10.1213899"><ele>1070.0</ele><time>2026-04-24T14:25:35.234Z</time></trkpt><trkpt lat="44.5523741" lon="10.1214644"><ele>1070.0</ele><time>2026-04-24T14:25:36.234Z</time></trkpt><trkpt lat="44.5524396" lon="10.1215261"><ele>1069.4</ele><time>2026-04-24T14:25:37.234Z</time></trkpt><trkpt lat="44.5524974" lon="10.121607"><ele>1068.8</ele><time>2026-04-24T14:25:38.233Z</time></trkpt><trkpt lat="44.5525131" lon="10.1217223"><ele>1068.2</ele><time>2026-04-24T14:25:41.233Z</time></trkpt><trkpt lat="44.552537" lon="10.1218802"><ele>1067.6</ele><time>2026-04-24T14:25:44.234Z</time></trkpt><trkpt lat="44.5526116" lon="10.1219404"><ele>1067.0</ele><time>2026-04-24T14:25:46.233Z</time></trkpt><trkpt lat="44.5527074" lon="10.1219809"><ele>1066.9999999999998</ele><time>2026-04-24T14:25:48.234Z</time></trkpt><trkpt lat="44.5527839" lon="10.1220158"><ele>1067.0</ele><time>2026-04-24T14:25:49.235Z</time></trkpt><trkpt lat="44.55285" lon="10.1220443"><ele>1067.0</ele><time>2026-04-24T14:25:50.234Z</time></trkpt><trkpt lat="44.5529115" lon="10.1221018"><ele>1067.0</ele><time>2026-04-24T14:25:51.235Z</time></trkpt><trkpt lat="44.5529386" lon="10.1221864"><ele>1067.0</ele><time>2026-04-24T14:25:52.234Z</time></trkpt><trkpt lat="44.552964" lon="10.1222793"><ele>1066.9999999999998</ele><time>2026-04-24T14:25:53.234Z</time></trkpt><trkpt lat="44.552967" lon="10.1223728"><ele>1067.0</ele><time>2026-04-24T14:25:54.234Z</time></trkpt><trkpt lat="44.5529747" lon="10.1224723"><ele>1064.3333333333335</ele><time>2026-04-24T14:25:55.233Z</time></trkpt><trkpt lat="44.5530144" lon="10.1225911"><ele>1061.6666666666667</ele><time>2026-04-24T14:25:57.233Z</time></trkpt><trkpt lat="44.5530534" lon="10.1226642"><ele>1059.0</ele><time>2026-04-24T14:25:58.234Z</time></trkpt><trkpt lat="44.5531237" lon="10.122673"><ele>1056.3333333333333</ele><time>2026-04-24T14:25:59.234Z</time></trkpt><trkpt lat="44.5532036" lon="10.1226649"><ele>1053.6666666666665</ele><time>2026-04-24T14:26:00.234Z</time></trkpt><trkpt lat="44.5532685" lon="10.122691"><ele>1051.0</ele><time>2026-04-24T14:26:01.233Z</time></trkpt><trkpt lat="44.5533835" lon="10.1226255"><ele>1051.0</ele><time>2026-04-24T14:26:03.234Z</time></trkpt><trkpt lat="44.553493" lon="10.1227027"><ele>1051.0</ele><time>2026-04-24T14:26:05.234Z</time></trkpt><trkpt lat="44.5534909" lon="10.1228039"><ele>1051.0</ele><time>2026-04-24T14:26:06.234Z</time></trkpt><trkpt lat="44.5534604" lon="10.1229724"><ele>1051.0</ele><time>2026-04-24T14:26:08.234Z</time></trkpt><trkpt lat="44.5534153" lon="10.1230816"><ele>1051.0</ele><time>2026-04-24T14:26:09.233Z</time></trkpt><trkpt lat="44.5533872" lon="10.123165"><ele>1051.0</ele><time>2026-04-24T14:26:10.235Z</time></trkpt><trkpt lat="44.5533401" lon="10.1232265"><ele>1051.0</ele><time>2026-04-24T14:26:11.234Z</time></trkpt><trkpt lat="44.5532737" lon="10.1232779"><ele>1051.0</ele><time>2026-04-24T14:26:12.233Z</time></trkpt><trkpt lat="44.5532027" lon="10.1233322"><ele>1051.0</ele><time>2026-04-24T14:26:13.235Z</time></trkpt><trkpt lat="44.5531199" lon="10.1233803"><ele>1051.0</ele><time>2026-04-24T14:26:14.233Z</time></trkpt><trkpt lat="44.5530321" lon="10.1234228"><ele>1051.0</ele><time>2026-04-24T14:26:15.234Z</time></trkpt><trkpt lat="44.5529623" lon="10.1235722"><ele>1048.1666666666665</ele><time>2026-04-24T14:26:17.235Z</time></trkpt><trkpt lat="44.5529284" lon="10.1236746"><ele>1045.3333333333333</ele><time>2026-04-24T14:26:18.233Z</time></trkpt><trkpt lat="44.5528888" lon="10.1237672"><ele>1042.5</ele><time>2026-04-24T14:26:19.234Z</time></trkpt><trkpt lat="44.5528452" lon="10.1238608"><ele>1039.6666666666667</ele><time>2026-04-24T14:26:20.233Z</time></trkpt><trkpt lat="44.5528111" lon="10.1239378"><ele>1036.8333333333335</ele><time>2026-04-24T14:26:21.235Z</time></trkpt><trkpt lat="44.5527479" lon="10.1240564"><ele>1034.0</ele><time>2026-04-24T14:26:22.233Z</time></trkpt><trkpt lat="44.5526974" lon="10.1241545"><ele>1030.6666666666667</ele><time>2026-04-24T14:26:23.234Z</time></trkpt><trkpt lat="44.5526691" lon="10.1242402"><ele>1027.3333333333335</ele><time>2026-04-24T14:26:24.234Z</time></trkpt><trkpt lat="44.5526348" lon="10.1243221"><ele>1024.0</ele><time>2026-04-24T14:26:25.234Z</time></trkpt><trkpt lat="44.5526124" lon="10.124418"><ele>1020.6666666666667</ele><time>2026-04-24T14:26:26.234Z</time></trkpt><trkpt lat="44.5526103" lon="10.1245979"><ele>1017.3333333333334</ele><time>2026-04-24T14:26:28.234Z</time></trkpt><trkpt lat="44.5526389" lon="10.1247473"><ele>1014.0</ele><time>2026-04-24T14:26:29.234Z</time></trkpt><trkpt lat="44.5526902" lon="10.1248781"><ele>1011.4000000000001</ele><time>2026-04-24T14:26:30.235Z</time></trkpt><trkpt lat="44.5527289" lon="10.1250207"><ele>1008.8000000000001</ele><time>2026-04-24T14:26:31.234Z</time></trkpt><trkpt lat="44.5527623" lon="10.1251524"><ele>1006.1999999999999</ele><time>2026-04-24T14:26:32.234Z</time></trkpt><trkpt lat="44.5527936" lon="10.125266"><ele>1003.5999999999999</ele><time>2026-04-24T14:26:33.233Z</time></trkpt><trkpt lat="44.5528512" lon="10.12537"><ele>1001.0</ele><time>2026-04-24T14:26:34.235Z</time></trkpt><trkpt lat="44.5529219" lon="10.1255126"><ele>999.0</ele><time>2026-04-24T14:26:35.234Z</time></trkpt><trkpt lat="44.5529784" lon="10.125651"><ele>997.0</ele><time>2026-04-24T14:26:36.235Z</time></trkpt><trkpt lat="44.5530391" lon="10.1258044"><ele>995.0</ele><time>2026-04-24T14:26:37.234Z</time></trkpt><trkpt lat="44.5531035" lon="10.1259515"><ele>993.0</ele><time>2026-04-24T14:26:38.234Z</time></trkpt><trkpt lat="44.5531716" lon="10.1260708"><ele>992.3333333333334</ele><time>2026-04-24T14:26:39.234Z</time></trkpt><trkpt lat="44.553238" lon="10.1261751"><ele>991.6666666666667</ele><time>2026-04-24T14:26:40.235Z</time></trkpt><trkpt lat="44.5533032" lon="10.1262661"><ele>991.0</ele><time>2026-04-24T14:26:41.235Z</time></trkpt><trkpt lat="44.5533688" lon="10.1263446"><ele>990.3333333333334</ele><time>2026-04-24T14:26:42.235Z</time></trkpt><trkpt lat="44.5534204" lon="10.1264219"><ele>989.6666666666667</ele><time>2026-04-24T14:26:43.235Z</time></trkpt><trkpt lat="44.5534765" lon="10.1264815"><ele>989.0</ele><time>2026-04-24T14:26:44.234Z</time></trkpt><trkpt lat="44.5535318" lon="10.1265331"><ele>988.3333333333334</ele><time>2026-04-24T14:26:45.235Z</time></trkpt><trkpt lat="44.5536532" lon="10.1266193"><ele>987.6666666666667</ele><time>2026-04-24T14:26:47.234Z</time></trkpt><trkpt lat="44.5537225" lon="10.1266662"><ele>987.0</ele><time>2026-04-24T14:26:48.235Z</time></trkpt><trkpt lat="44.5537848" lon="10.1267221"><ele>986.3333333333333</ele><time>2026-04-24T14:26:49.234Z</time></trkpt><trkpt lat="44.5538379" lon="10.1267934"><ele>985.6666666666666</ele><time>2026-04-24T14:26:50.235Z</time></trkpt><trkpt lat="44.5538895" lon="10.1268726"><ele>985.0</ele><time>2026-04-24T14:26:51.234Z</time></trkpt><trkpt lat="44.5539364" lon="10.1269449"><ele>983.6666666666666</ele><time>2026-04-24T14:26:52.234Z</time></trkpt><trkpt lat="44.5539817" lon="10.1270227"><ele>982.3333333333333</ele><time>2026-04-24T14:26:53.233Z</time></trkpt><trkpt lat="44.5540257" lon="10.1270891"><ele>981.0</ele><time>2026-04-24T14:26:54.233Z</time></trkpt><trkpt lat="44.554071" lon="10.1271647"><ele>979.6666666666667</ele><time>2026-04-24T14:26:55.234Z</time></trkpt><trkpt lat="44.5541164" lon="10.1272862"><ele>978.3333333333334</ele><time>2026-04-24T14:26:56.233Z</time></trkpt><trkpt lat="44.5541711" lon="10.1274142"><ele>977.0</ele><time>2026-04-24T14:26:57.234Z</time></trkpt><trkpt lat="44.5542167" lon="10.1275442"><ele>975.6</ele><time>2026-04-24T14:26:58.234Z</time></trkpt><trkpt lat="44.5542651" lon="10.1276939"><ele>974.2</ele><time>2026-04-24T14:26:59.233Z</time></trkpt><trkpt lat="44.5543212" lon="10.1278176"><ele>972.8</ele><time>2026-04-24T14:27:00.234Z</time></trkpt><trkpt lat="44.5543719" lon="10.1279439"><ele>971.4</ele><time>2026-04-24T14:27:01.233Z</time></trkpt><trkpt lat="44.5544188" lon="10.1280652"><ele>970.0</ele><time>2026-04-24T14:27:02.234Z</time></trkpt><trkpt lat="44.5544674" lon="10.1281656"><ele>967.8333333333333</ele><time>2026-04-24T14:27:03.234Z</time></trkpt><trkpt lat="44.5545104" lon="10.1282473"><ele>965.6666666666666</ele><time>2026-04-24T14:27:04.234Z</time></trkpt><trkpt lat="44.5545453" lon="10.1283273"><ele>963.5</ele><time>2026-04-24T14:27:05.234Z</time></trkpt><trkpt lat="44.5546301" lon="10.1284402"><ele>961.3333333333333</ele><time>2026-04-24T14:27:07.233Z</time></trkpt><trkpt lat="44.5546781" lon="10.1285075"><ele>959.1666666666666</ele><time>2026-04-24T14:27:08.235Z</time></trkpt><trkpt lat="44.5547148" lon="10.1285886"><ele>957.0</ele><time>2026-04-24T14:27:09.234Z</time></trkpt><trkpt lat="44.5547544" lon="10.1286841"><ele>956.5</ele><time>2026-04-24T14:27:10.233Z</time></trkpt><trkpt lat="44.5547965" lon="10.1288116"><ele>956.0</ele><time>2026-04-24T14:27:11.235Z</time></trkpt><trkpt lat="44.554832" lon="10.1289129"><ele>955.5</ele><time>2026-04-24T14:27:12.234Z</time></trkpt><trkpt lat="44.5548602" lon="10.1289962"><ele>955.0</ele><time>2026-04-24T14:27:13.233Z</time></trkpt><trkpt lat="44.5549148" lon="10.129084"><ele>954.5</ele><time>2026-04-24T14:27:14.233Z</time></trkpt><trkpt lat="44.5549809" lon="10.1291811"><ele>954.0</ele><time>2026-04-24T14:27:15.233Z</time></trkpt><trkpt lat="44.5550397" lon="10.1292812"><ele>953.0</ele><time>2026-04-24T14:27:16.234Z</time></trkpt><trkpt lat="44.5551116" lon="10.1294029"><ele>952.0000000000001</ele><time>2026-04-24T14:27:17.233Z</time></trkpt><trkpt lat="44.555185" lon="10.1295214"><ele>951.0000000000001</ele><time>2026-04-24T14:27:18.233Z</time></trkpt><trkpt lat="44.5552579" lon="10.1296299"><ele>950.0</ele><time>2026-04-24T14:27:19.233Z</time></trkpt><trkpt lat="44.5553406" lon="10.1297191"><ele>949.0</ele><time>2026-04-24T14:27:20.234Z</time></trkpt><trkpt lat="44.555427" lon="10.1297882"><ele>948.3333333333333</ele><time>2026-04-24T14:27:21.233Z</time></trkpt><trkpt lat="44.5555093" lon="10.1298125"><ele>947.6666666666666</ele><time>2026-04-24T14:27:22.233Z</time></trkpt><trkpt lat="44.555594" lon="10.1298268"><ele>947.0</ele><time>2026-04-24T14:27:23.234Z</time></trkpt><trkpt lat="44.5556567" lon="10.1298487"><ele>946.3333333333333</ele><time>2026-04-24T14:27:24.233Z</time></trkpt><trkpt lat="44.5557378" lon="10.1299069"><ele>945.6666666666666</ele><time>2026-04-24T14:27:26.234Z</time></trkpt><trkpt lat="44.555783" lon="10.1300366"><ele>945.0</ele><time>2026-04-24T14:27:28.234Z</time></trkpt><trkpt lat="44.5558058" lon="10.130204"><ele>945.0</ele><time>2026-04-24T14:27:30.234Z</time></trkpt><trkpt lat="44.5558642" lon="10.1304406"><ele>945.0</ele><time>2026-04-24T14:27:32.233Z</time></trkpt><trkpt lat="44.5559015" lon="10.1305701"><ele>945.0</ele><time>2026-04-24T14:27:33.233Z</time></trkpt><trkpt lat="44.5559382" lon="10.1306992"><ele>945.0</ele><time>2026-04-24T14:27:34.234Z</time></trkpt><trkpt lat="44.5559967" lon="10.1308357"><ele>944.0</ele><time>2026-04-24T14:27:35.233Z</time></trkpt><trkpt lat="44.5560479" lon="10.1309632"><ele>943.0</ele><time>2026-04-24T14:27:36.233Z</time></trkpt><trkpt lat="44.5561004" lon="10.1310825"><ele>942.0</ele><time>2026-04-24T14:27:37.235Z</time></trkpt><trkpt lat="44.5561609" lon="10.131204"><ele>941.0</ele><time>2026-04-24T14:27:38.235Z</time></trkpt><trkpt lat="44.5562314" lon="10.1312942"><ele>940.0</ele><time>2026-04-24T14:27:39.235Z</time></trkpt><trkpt lat="44.5562805" lon="10.1313795"><ele>939.6</ele><time>2026-04-24T14:27:40.234Z</time></trkpt><trkpt lat="44.5563189" lon="10.1314514"><ele>939.2</ele><time>2026-04-24T14:27:41.234Z</time></trkpt><trkpt lat="44.5563624" lon="10.1315459"><ele>938.8</ele><time>2026-04-24T14:27:42.233Z</time></trkpt><trkpt lat="44.5564091" lon="10.1316745"><ele>938.4</ele><time>2026-04-24T14:27:43.233Z</time></trkpt><trkpt lat="44.5564607" lon="10.1318243"><ele>938.0</ele><time>2026-04-24T14:27:44.235Z</time></trkpt><trkpt lat="44.5564909" lon="10.1319619"><ele>938.0</ele><time>2026-04-24T14:27:45.234Z</time></trkpt><trkpt lat="44.5565241" lon="10.1321041"><ele>938.0</ele><time>2026-04-24T14:27:46.234Z</time></trkpt><trkpt lat="44.5565503" lon="10.1322387"><ele>938.0</ele><time>2026-04-24T14:27:47.233Z</time></trkpt><trkpt lat="44.556568" lon="10.1323646"><ele>938.0</ele><time>2026-04-24T14:27:48.235Z</time></trkpt><trkpt lat="44.5565897" lon="10.1324816"><ele>938.0</ele><time>2026-04-24T14:27:49.233Z</time></trkpt><trkpt lat="44.5566121" lon="10.1326031"><ele>938.1666666666667</ele><time>2026-04-24T14:27:50.233Z</time></trkpt><trkpt lat="44.5566303" lon="10.132729"><ele>938.3333333333334</ele><time>2026-04-24T14:27:51.233Z</time></trkpt><trkpt lat="44.556635" lon="10.1328538"><ele>938.5</ele><time>2026-04-24T14:27:52.233Z</time></trkpt><trkpt lat="44.5566296" lon="10.1329731"><ele>938.6666666666667</ele><time>2026-04-24T14:27:53.233Z</time></trkpt><trkpt lat="44.55662" lon="10.1330813"><ele>938.8333333333334</ele><time>2026-04-24T14:27:54.234Z</time></trkpt><trkpt lat="44.5566212" lon="10.1331699"><ele>939.0</ele><time>2026-04-24T14:27:55.233Z</time></trkpt><trkpt lat="44.556688" lon="10.133328"><ele>938.0</ele><time>2026-04-24T14:27:57.233Z</time></trkpt><trkpt lat="44.5567541" lon="10.1334159"><ele>937.0000000000001</ele><time>2026-04-24T14:27:58.234Z</time></trkpt><trkpt lat="44.5568356" lon="10.133505"><ele>936.0000000000001</ele><time>2026-04-24T14:27:59.233Z</time></trkpt><trkpt lat="44.5569211" lon="10.1336045"><ele>935.0</ele><time>2026-04-24T14:28:00.233Z</time></trkpt><trkpt lat="44.5570114" lon="10.1336861"><ele>934.0</ele><time>2026-04-24T14:28:01.233Z</time></trkpt><trkpt lat="44.5571138" lon="10.133753"><ele>933.2</ele><time>2026-04-24T14:28:02.233Z</time></trkpt><trkpt lat="44.5571976" lon="10.1338195"><ele>932.4000000000001</ele><time>2026-04-24T14:28:03.233Z</time></trkpt><trkpt lat="44.5572746" lon="10.1338847"><ele>931.6</ele><time>2026-04-24T14:28:04.234Z</time></trkpt><trkpt lat="44.5573327" lon="10.1339636"><ele>930.8</ele><time>2026-04-24T14:28:05.234Z</time></trkpt><trkpt lat="44.5573883" lon="10.1340444"><ele>930.0</ele><time>2026-04-24T14:28:06.233Z</time></trkpt><trkpt lat="44.5574497" lon="10.1341606"><ele>930.0</ele><time>2026-04-24T14:28:07.233Z</time></trkpt><trkpt lat="44.557506" lon="10.1342784"><ele>930.0</ele><time>2026-04-24T14:28:08.233Z</time></trkpt><trkpt lat="44.5575622" lon="10.1343926"><ele>930.0</ele><time>2026-04-24T14:28:09.234Z</time></trkpt><trkpt lat="44.5576264" lon="10.134499"><ele>930.0</ele><time>2026-04-24T14:28:10.235Z</time></trkpt><trkpt lat="44.5577003" lon="10.1345334"><ele>930.0</ele><time>2026-04-24T14:28:11.233Z</time></trkpt><trkpt lat="44.5578121" lon="10.1345706"><ele>928.4</ele><time>2026-04-24T14:28:12.232Z</time></trkpt><trkpt lat="44.5579043" lon="10.1346438"><ele>926.8</ele><time>2026-04-24T14:28:13.233Z</time></trkpt><trkpt lat="44.5579878" lon="10.1347351"><ele>925.2</ele><time>2026-04-24T14:28:14.233Z</time></trkpt><trkpt lat="44.5580553" lon="10.1348183"><ele>923.6</ele><time>2026-04-24T14:28:15.233Z</time></trkpt><trkpt lat="44.5581113" lon="10.1349757"><ele>922.0</ele><time>2026-04-24T14:28:17.233Z</time></trkpt><trkpt lat="44.558124" lon="10.1351102"><ele>921.9999999999999</ele><time>2026-04-24T14:28:18.232Z</time></trkpt><trkpt lat="44.5581349" lon="10.1352544"><ele>922.0</ele><time>2026-04-24T14:28:19.233Z</time></trkpt><trkpt lat="44.5581506" lon="10.135382"><ele>922.0</ele><time>2026-04-24T14:28:20.232Z</time></trkpt><trkpt lat="44.558166" lon="10.1355009"><ele>922.0</ele><time>2026-04-24T14:28:21.232Z</time></trkpt><trkpt lat="44.5581861" lon="10.1356024"><ele>921.9999999999999</ele><time>2026-04-24T14:28:22.232Z</time></trkpt><trkpt lat="44.558202" lon="10.1357004"><ele>922.0</ele><time>2026-04-24T14:28:23.232Z</time></trkpt><trkpt lat="44.5581915" lon="10.1358181"><ele>921.4999999999999</ele><time>2026-04-24T14:28:24.232Z</time></trkpt><trkpt lat="44.5581672" lon="10.1359378"><ele>921.0</ele><time>2026-04-24T14:28:25.232Z</time></trkpt><trkpt lat="44.5581661" lon="10.1360606"><ele>920.5</ele><time>2026-04-24T14:28:26.233Z</time></trkpt><trkpt lat="44.5581628" lon="10.1361793"><ele>920.0</ele><time>2026-04-24T14:28:27.233Z</time></trkpt><trkpt lat="44.5581605" lon="10.1362927"><ele>919.4999999999999</ele><time>2026-04-24T14:28:28.232Z</time></trkpt><trkpt lat="44.5581948" lon="10.1364038"><ele>919.0</ele><time>2026-04-24T14:28:29.232Z</time></trkpt><trkpt lat="44.5582471" lon="10.1364834"><ele>917.4000000000001</ele><time>2026-04-24T14:28:30.232Z</time></trkpt><trkpt lat="44.558315" lon="10.1365592"><ele>915.8000000000001</ele><time>2026-04-24T14:28:31.233Z</time></trkpt><trkpt lat="44.5583782" lon="10.1366523"><ele>914.1999999999999</ele><time>2026-04-24T14:28:32.232Z</time></trkpt><trkpt lat="44.558427" lon="10.1367369"><ele>912.5999999999999</ele><time>2026-04-24T14:28:33.233Z</time></trkpt><trkpt lat="44.558502" lon="10.1368681"><ele>911.0</ele><time>2026-04-24T14:28:35.233Z</time></trkpt><trkpt lat="44.5585612" lon="10.1369492"><ele>911.0</ele><time>2026-04-24T14:28:36.232Z</time></trkpt><trkpt lat="44.5586369" lon="10.1370291"><ele>910.9999999999999</ele><time>2026-04-24T14:28:37.233Z</time></trkpt><trkpt lat="44.5587389" lon="10.137117"><ele>910.9999999999999</ele><time>2026-04-24T14:28:38.232Z</time></trkpt><trkpt lat="44.5588315" lon="10.1372041"><ele>911.0</ele><time>2026-04-24T14:28:39.232Z</time></trkpt><trkpt lat="44.5589215" lon="10.1372992"><ele>911.0</ele><time>2026-04-24T14:28:40.232Z</time></trkpt><trkpt lat="44.559009" lon="10.1373904"><ele>910.5</ele><time>2026-04-24T14:28:41.233Z</time></trkpt><trkpt lat="44.5590957" lon="10.1374891"><ele>910.0</ele><time>2026-04-24T14:28:42.232Z</time></trkpt><trkpt lat="44.5591742" lon="10.1375965"><ele>909.5</ele><time>2026-04-24T14:28:43.233Z</time></trkpt><trkpt lat="44.5592509" lon="10.1377177"><ele>909.0</ele><time>2026-04-24T14:28:44.233Z</time></trkpt><trkpt lat="44.5593283" lon="10.1378479"><ele>909.0</ele><time>2026-04-24T14:28:45.233Z</time></trkpt><trkpt lat="44.5594087" lon="10.1379748"><ele>909.0</ele><time>2026-04-24T14:28:46.232Z</time></trkpt><trkpt lat="44.5594951" lon="10.1381108"><ele>909.0</ele><time>2026-04-24T14:28:47.232Z</time></trkpt><trkpt lat="44.5595876" lon="10.1382502"><ele>909.0</ele><time>2026-04-24T14:28:48.233Z</time></trkpt><trkpt lat="44.5596827" lon="10.1383857"><ele>908.25</ele><time>2026-04-24T14:28:49.233Z</time></trkpt><trkpt lat="44.5597791" lon="10.1385192"><ele>907.5</ele><time>2026-04-24T14:28:50.233Z</time></trkpt><trkpt lat="44.5598691" lon="10.1386487"><ele>906.75</ele><time>2026-04-24T14:28:51.233Z</time></trkpt><trkpt lat="44.5599538" lon="10.1387719"><ele>906.0</ele><time>2026-04-24T14:28:52.233Z</time></trkpt><trkpt lat="44.5600398" lon="10.1388971"><ele>906.0</ele><time>2026-04-24T14:28:53.232Z</time></trkpt><trkpt lat="44.560128" lon="10.1390231"><ele>906.0</ele><time>2026-04-24T14:28:54.232Z</time></trkpt><trkpt lat="44.560214" lon="10.1391448"><ele>906.0</ele><time>2026-04-24T14:28:55.232Z</time></trkpt><trkpt lat="44.5603016" lon="10.1392605"><ele>906.0</ele><time>2026-04-24T14:28:56.233Z</time></trkpt><trkpt lat="44.5604007" lon="10.1393704"><ele>906.4</ele><time>2026-04-24T14:28:57.232Z</time></trkpt><trkpt lat="44.5605057" lon="10.1394661"><ele>906.8</ele><time>2026-04-24T14:28:58.233Z</time></trkpt><trkpt lat="44.5606027" lon="10.1395339"><ele>907.1999999999999</ele><time>2026-04-24T14:28:59.233Z</time></trkpt><trkpt lat="44.5606881" lon="10.1395753"><ele>907.5999999999999</ele><time>2026-04-24T14:29:00.233Z</time></trkpt><trkpt lat="44.5607682" lon="10.1396008"><ele>908.0</ele><time>2026-04-24T14:29:01.232Z</time></trkpt><trkpt lat="44.5608306" lon="10.1396146"><ele>908.0000000000001</ele><time>2026-04-24T14:29:02.232Z</time></trkpt><trkpt lat="44.560921" lon="10.1396444"><ele>908.0</ele><time>2026-04-24T14:29:04.233Z</time></trkpt><trkpt lat="44.5609587" lon="10.1397746"><ele>908.0</ele><time>2026-04-24T14:29:07.233Z</time></trkpt><trkpt lat="44.5609299" lon="10.1399181"><ele>908.0</ele><time>2026-04-24T14:29:09.233Z</time></trkpt><trkpt lat="44.5609057" lon="10.1400017"><ele>908.0000000000001</ele><time>2026-04-24T14:29:10.233Z</time></trkpt><trkpt lat="44.56088" lon="10.14009"><ele>908.0</ele><time>2026-04-24T14:29:11.232Z</time></trkpt><trkpt lat="44.5608567" lon="10.1401797"><ele>908.3333333333334</ele><time>2026-04-24T14:29:12.233Z</time></trkpt><trkpt lat="44.5608285" lon="10.1402737"><ele>908.6666666666667</ele><time>2026-04-24T14:29:13.233Z</time></trkpt><trkpt lat="44.5608045" lon="10.1403633"><ele>909.0</ele><time>2026-04-24T14:29:14.233Z</time></trkpt><trkpt lat="44.5607767" lon="10.1405032"><ele>909.3333333333333</ele><time>2026-04-24T14:29:16.234Z</time></trkpt><trkpt lat="44.5607818" lon="10.1406593"><ele>909.6666666666666</ele><time>2026-04-24T14:29:18.233Z</time></trkpt><trkpt lat="44.5608045" lon="10.1407574"><ele>910.0</ele><time>2026-04-24T14:29:19.234Z</time></trkpt><trkpt lat="44.5608396" lon="10.1408718"><ele>908.6</ele><time>2026-04-24T14:29:20.233Z</time></trkpt><trkpt lat="44.5608671" lon="10.1410131"><ele>907.2</ele><time>2026-04-24T14:29:21.234Z</time></trkpt><trkpt lat="44.5609107" lon="10.1411645"><ele>905.8</ele><time>2026-04-24T14:29:22.234Z</time></trkpt><trkpt lat="44.5609492" lon="10.1413124"><ele>904.4</ele><time>2026-04-24T14:29:23.234Z</time></trkpt><trkpt lat="44.5609941" lon="10.1414579"><ele>903.0</ele><time>2026-04-24T14:29:24.233Z</time></trkpt><trkpt lat="44.5610453" lon="10.1415885"><ele>902.5999999999999</ele><time>2026-04-24T14:29:25.234Z</time></trkpt><trkpt lat="44.5610956" lon="10.1417149"><ele>902.1999999999999</ele><time>2026-04-24T14:29:26.233Z</time></trkpt><trkpt lat="44.5611465" lon="10.1418374"><ele>901.8</ele><time>2026-04-24T14:29:27.233Z</time></trkpt><trkpt lat="44.5611939" lon="10.1419529"><ele>901.4</ele><time>2026-04-24T14:29:28.233Z</time></trkpt><trkpt lat="44.561246" lon="10.1420822"><ele>901.0</ele><time>2026-04-24T14:29:29.232Z</time></trkpt><trkpt lat="44.5612971" lon="10.1422004"><ele>902.25</ele><time>2026-04-24T14:29:30.234Z</time></trkpt><trkpt lat="44.5613572" lon="10.1423087"><ele>903.5</ele><time>2026-04-24T14:29:31.233Z</time></trkpt><trkpt lat="44.5614335" lon="10.1424282"><ele>904.75</ele><time>2026-04-24T14:29:32.232Z</time></trkpt><trkpt lat="44.5615198" lon="10.1425594"><ele>906.0</ele><time>2026-04-24T14:29:33.232Z</time></trkpt><trkpt lat="44.5616121" lon="10.1426949"><ele>906.0</ele><time>2026-04-24T14:29:34.233Z</time></trkpt><trkpt lat="44.5616958" lon="10.142818"><ele>905.9999999999999</ele><time>2026-04-24T14:29:35.232Z</time></trkpt><trkpt lat="44.5617383" lon="10.1429416"><ele>905.9999999999999</ele><time>2026-04-24T14:29:36.232Z</time></trkpt><trkpt lat="44.5618037" lon="10.1430797"><ele>906.0</ele><time>2026-04-24T14:29:37.233Z</time></trkpt><trkpt lat="44.5618478" lon="10.1432191"><ele>906.0</ele><time>2026-04-24T14:29:38.234Z</time></trkpt><trkpt lat="44.5618574" lon="10.1433511"><ele>905.1999999999999</ele><time>2026-04-24T14:29:39.234Z</time></trkpt><trkpt lat="44.5618643" lon="10.1434659"><ele>904.3999999999999</ele><time>2026-04-24T14:29:40.234Z</time></trkpt><trkpt lat="44.5618704" lon="10.1435864"><ele>903.6</ele><time>2026-04-24T14:29:41.233Z</time></trkpt><trkpt lat="44.5618789" lon="10.1436768"><ele>902.8</ele><time>2026-04-24T14:29:42.233Z</time></trkpt><trkpt lat="44.5618946" lon="10.143817"><ele>902.0</ele><time>2026-04-24T14:29:44.234Z</time></trkpt><trkpt lat="44.5619813" lon="10.1439671"><ele>904.6</ele><time>2026-04-24T14:29:46.232Z</time></trkpt><trkpt lat="44.5620384" lon="10.1440571"><ele>907.2</ele><time>2026-04-24T14:29:47.233Z</time></trkpt><trkpt lat="44.5621102" lon="10.1441688"><ele>909.8</ele><time>2026-04-24T14:29:48.234Z</time></trkpt><trkpt lat="44.5621853" lon="10.1442672"><ele>912.4</ele><time>2026-04-24T14:29:49.233Z</time></trkpt><trkpt lat="44.5622581" lon="10.1443489"><ele>915.0</ele><time>2026-04-24T14:29:50.234Z</time></trkpt><trkpt lat="44.562342" lon="10.1444506"><ele>915.0</ele><time>2026-04-24T14:29:51.234Z</time></trkpt><trkpt lat="44.5624275" lon="10.1445552"><ele>915.0</ele><time>2026-04-24T14:29:52.234Z</time></trkpt><trkpt lat="44.5625118" lon="10.1446496"><ele>915.0</ele><time>2026-04-24T14:29:53.233Z</time></trkpt><trkpt lat="44.5625775" lon="10.144729"><ele>915.0</ele><time>2026-04-24T14:29:54.234Z</time></trkpt><trkpt lat="44.5626437" lon="10.1448039"><ele>915.0</ele><time>2026-04-24T14:29:55.232Z</time></trkpt><trkpt lat="44.5626937" lon="10.1448651"><ele>915.1666666666666</ele><time>2026-04-24T14:29:56.233Z</time></trkpt><trkpt lat="44.5627375" lon="10.1449286"><ele>915.3333333333333</ele><time>2026-04-24T14:29:57.232Z</time></trkpt><trkpt lat="44.5627713" lon="10.1450037"><ele>915.5</ele><time>2026-04-24T14:29:58.232Z</time></trkpt><trkpt lat="44.5628082" lon="10.1451107"><ele>915.6666666666666</ele><time>2026-04-24T14:29:59.233Z</time></trkpt><trkpt lat="44.5628355" lon="10.1452326"><ele>915.8333333333333</ele><time>2026-04-24T14:30:00.234Z</time></trkpt><trkpt lat="44.5628477" lon="10.1453638"><ele>916.0</ele><time>2026-04-24T14:30:01.232Z</time></trkpt><trkpt lat="44.5628504" lon="10.1455132"><ele>916.0</ele><time>2026-04-24T14:30:02.233Z</time></trkpt><trkpt lat="44.5628473" lon="10.1456689"><ele>915.9999999999999</ele><time>2026-04-24T14:30:03.233Z</time></trkpt><trkpt lat="44.5628414" lon="10.145819"><ele>915.9999999999999</ele><time>2026-04-24T14:30:04.233Z</time></trkpt><trkpt lat="44.5628321" lon="10.1459542"><ele>916.0</ele><time>2026-04-24T14:30:05.233Z</time></trkpt><trkpt lat="44.5628244" lon="10.146126"><ele>916.0</ele><time>2026-04-24T14:30:06.233Z</time></trkpt><trkpt lat="44.5628171" lon="10.1463103"><ele>914.4</ele><time>2026-04-24T14:30:07.233Z</time></trkpt><trkpt lat="44.5628047" lon="10.1464747"><ele>912.8</ele><time>2026-04-24T14:30:08.234Z</time></trkpt><trkpt lat="44.5627901" lon="10.1466332"><ele>911.1999999999999</ele><time>2026-04-24T14:30:09.234Z</time></trkpt><trkpt lat="44.5627645" lon="10.1467783"><ele>909.5999999999999</ele><time>2026-04-24T14:30:10.232Z</time></trkpt><trkpt lat="44.5627303" lon="10.1469035"><ele>908.0</ele><time>2026-04-24T14:30:11.233Z</time></trkpt><trkpt lat="44.5626943" lon="10.1470116"><ele>907.8333333333334</ele><time>2026-04-24T14:30:12.233Z</time></trkpt><trkpt lat="44.5626557" lon="10.147108"><ele>907.6666666666667</ele><time>2026-04-24T14:30:13.233Z</time></trkpt><trkpt lat="44.5626216" lon="10.1472019"><ele>907.5</ele><time>2026-04-24T14:30:14.233Z</time></trkpt><trkpt lat="44.5625942" lon="10.1473048"><ele>907.3333333333333</ele><time>2026-04-24T14:30:15.233Z</time></trkpt><trkpt lat="44.5625826" lon="10.147405"><ele>907.1666666666666</ele><time>2026-04-24T14:30:16.234Z</time></trkpt><trkpt lat="44.5625861" lon="10.1475124"><ele>907.0</ele><time>2026-04-24T14:30:17.234Z</time></trkpt><trkpt lat="44.5626178" lon="10.1476259"><ele>907.75</ele><time>2026-04-24T14:30:18.232Z</time></trkpt><trkpt lat="44.5626599" lon="10.1477512"><ele>908.5</ele><time>2026-04-24T14:30:19.232Z</time></trkpt><trkpt lat="44.562692" lon="10.1479084"><ele>909.25</ele><time>2026-04-24T14:30:20.234Z</time></trkpt><trkpt lat="44.5626918" lon="10.1480856"><ele>910.0</ele><time>2026-04-24T14:30:21.233Z</time></trkpt><trkpt lat="44.5626987" lon="10.1482548"><ele>910.0</ele><time>2026-04-24T14:30:22.233Z</time></trkpt><trkpt lat="44.5627063" lon="10.1484039"><ele>910.0</ele><time>2026-04-24T14:30:23.233Z</time></trkpt><trkpt lat="44.5627099" lon="10.148548"><ele>910.0</ele><time>2026-04-24T14:30:24.232Z</time></trkpt><trkpt lat="44.562717" lon="10.1486897"><ele>910.0</ele><time>2026-04-24T14:30:25.234Z</time></trkpt><trkpt lat="44.5627189" lon="10.1488188"><ele>910.0</ele><time>2026-04-24T14:30:26.234Z</time></trkpt><trkpt lat="44.5627238" lon="10.1489325"><ele>910.0</ele><time>2026-04-24T14:30:27.234Z</time></trkpt><trkpt lat="44.5627382" lon="10.1490369"><ele>910.0</ele><time>2026-04-24T14:30:28.233Z</time></trkpt><trkpt lat="44.5627625" lon="10.1491327"><ele>910.0</ele><time>2026-04-24T14:30:29.234Z</time></trkpt><trkpt lat="44.5627899" lon="10.1492315"><ele>910.0</ele><time>2026-04-24T14:30:30.233Z</time></trkpt><trkpt lat="44.5628269" lon="10.1493208"><ele>910.0</ele><time>2026-04-24T14:30:31.233Z</time></trkpt><trkpt lat="44.5628744" lon="10.149395"><ele>910.0</ele><time>2026-04-24T14:30:32.232Z</time></trkpt><trkpt lat="44.5629378" lon="10.1494628"><ele>910.0</ele><time>2026-04-24T14:30:33.232Z</time></trkpt><trkpt lat="44.5630195" lon="10.1495299"><ele>910.6</ele><time>2026-04-24T14:30:34.232Z</time></trkpt><trkpt lat="44.5631307" lon="10.1495694"><ele>911.2</ele><time>2026-04-24T14:30:35.233Z</time></trkpt><trkpt lat="44.5632162" lon="10.1496106"><ele>911.8</ele><time>2026-04-24T14:30:36.233Z</time></trkpt><trkpt lat="44.5632871" lon="10.1496363"><ele>912.4</ele><time>2026-04-24T14:30:37.233Z</time></trkpt><trkpt lat="44.563406" lon="10.1496547"><ele>913.0</ele><time>2026-04-24T14:30:39.234Z</time></trkpt><trkpt lat="44.5634743" lon="10.1496369"><ele>912.9999999999999</ele><time>2026-04-24T14:30:40.233Z</time></trkpt><trkpt lat="44.5635506" lon="10.1496203"><ele>913.0</ele><time>2026-04-24T14:30:41.233Z</time></trkpt><trkpt lat="44.5636331" lon="10.149599"><ele>913.0</ele><time>2026-04-24T14:30:42.232Z</time></trkpt><trkpt lat="44.5637116" lon="10.1495946"><ele>913.0</ele><time>2026-04-24T14:30:43.232Z</time></trkpt><trkpt lat="44.563785" lon="10.1496041"><ele>912.9999999999999</ele><time>2026-04-24T14:30:44.233Z</time></trkpt><trkpt lat="44.5638634" lon="10.1496442"><ele>913.0</ele><time>2026-04-24T14:30:45.233Z</time></trkpt><trkpt lat="44.5639219" lon="10.1496966"><ele>912.5999999999999</ele><time>2026-04-24T14:30:46.234Z</time></trkpt><trkpt lat="44.5640002" lon="10.1497398"><ele>912.1999999999999</ele><time>2026-04-24T14:30:47.233Z</time></trkpt><trkpt lat="44.5640872" lon="10.1497873"><ele>911.8</ele><time>2026-04-24T14:30:48.233Z</time></trkpt><trkpt lat="44.5641777" lon="10.149854"><ele>911.4</ele><time>2026-04-24T14:30:49.233Z</time></trkpt><trkpt lat="44.5642609" lon="10.1499251"><ele>911.0</ele><time>2026-04-24T14:30:50.233Z</time></trkpt><trkpt lat="44.5643384" lon="10.149978"><ele>908.0</ele><time>2026-04-24T14:30:51.233Z</time></trkpt><trkpt lat="44.5644363" lon="10.1500872"><ele>905.0</ele><time>2026-04-24T14:30:53.234Z</time></trkpt><trkpt lat="44.5644677" lon="10.1502245"><ele>902.0</ele><time>2026-04-24T14:30:55.232Z</time></trkpt><trkpt lat="44.5644378" lon="10.1503859"><ele>899.0</ele><time>2026-04-24T14:30:57.233Z</time></trkpt><trkpt lat="44.5643964" lon="10.1505298"><ele>899.0</ele><time>2026-04-24T14:30:59.233Z</time></trkpt><trkpt lat="44.564356" lon="10.1507"><ele>899.0000000000001</ele><time>2026-04-24T14:31:01.233Z</time></trkpt><trkpt lat="44.5643222" lon="10.1508552"><ele>899.0000000000001</ele><time>2026-04-24T14:31:03.233Z</time></trkpt><trkpt lat="44.56429" lon="10.1509348"><ele>899.0</ele><time>2026-04-24T14:31:04.233Z</time></trkpt><trkpt lat="44.5642544" lon="10.1510227"><ele>899.0</ele><time>2026-04-24T14:31:05.233Z</time></trkpt><trkpt lat="44.5642199" lon="10.1511455"><ele>896.6</ele><time>2026-04-24T14:31:07.233Z</time></trkpt><trkpt lat="44.5642459" lon="10.1512973"><ele>894.2</ele><time>2026-04-24T14:31:09.234Z</time></trkpt><trkpt lat="44.5642881" lon="10.1513632"><ele>891.8000000000001</ele><time>2026-04-24T14:31:10.232Z</time></trkpt><trkpt lat="44.564309" lon="10.1515246"><ele>889.4000000000001</ele><time>2026-04-24T14:31:12.233Z</time></trkpt><trkpt lat="44.564305" lon="10.1517218"><ele>887.0</ele><time>2026-04-24T14:31:14.233Z</time></trkpt><trkpt lat="44.5642746" lon="10.1518169"><ele>884.8333333333334</ele><time>2026-04-24T14:31:15.233Z</time></trkpt><trkpt lat="44.5642336" lon="10.1519402"><ele>882.6666666666667</ele><time>2026-04-24T14:31:16.233Z</time></trkpt><trkpt lat="44.5642082" lon="10.1520548"><ele>880.5</ele><time>2026-04-24T14:31:17.233Z</time></trkpt><trkpt lat="44.5641791" lon="10.1521644"><ele>878.3333333333333</ele><time>2026-04-24T14:31:18.232Z</time></trkpt><trkpt lat="44.5641515" lon="10.1522554"><ele>876.1666666666666</ele><time>2026-04-24T14:31:19.232Z</time></trkpt><trkpt lat="44.5641319" lon="10.1523583"><ele>874.0</ele><time>2026-04-24T14:31:20.234Z</time></trkpt><trkpt lat="44.5641118" lon="10.1524952"><ele>872.3333333333333</ele><time>2026-04-24T14:31:21.232Z</time></trkpt><trkpt lat="44.5640969" lon="10.1526367"><ele>870.6666666666666</ele><time>2026-04-24T14:31:22.232Z</time></trkpt><trkpt lat="44.564082" lon="10.1527637"><ele>869.0</ele><time>2026-04-24T14:31:23.232Z</time></trkpt><trkpt lat="44.564052" lon="10.1528895"><ele>867.3333333333333</ele><time>2026-04-24T14:31:24.232Z</time></trkpt><trkpt lat="44.5640252" lon="10.1529956"><ele>865.6666666666666</ele><time>2026-04-24T14:31:25.234Z</time></trkpt><trkpt lat="44.564007" lon="10.1530847"><ele>864.0</ele><time>2026-04-24T14:31:26.233Z</time></trkpt><trkpt lat="44.5639896" lon="10.1532461"><ele>864.0</ele><time>2026-04-24T14:31:28.233Z</time></trkpt><trkpt lat="44.5640177" lon="10.1533686"><ele>864.0000000000001</ele><time>2026-04-24T14:31:30.233Z</time></trkpt><trkpt lat="44.5641253" lon="10.1534159"><ele>864.0000000000001</ele><time>2026-04-24T14:31:32.233Z</time></trkpt><trkpt lat="44.5641936" lon="10.1533911"><ele>864.0</ele><time>2026-04-24T14:31:33.232Z</time></trkpt><trkpt lat="44.5642773" lon="10.1532153"><ele>864.0</ele><time>2026-04-24T14:31:35.234Z</time></trkpt><trkpt lat="44.5643109" lon="10.153073"><ele>864.0</ele><time>2026-04-24T14:31:36.233Z</time></trkpt><trkpt lat="44.5642949" lon="10.1529615"><ele>864.0000000000001</ele><time>2026-04-24T14:31:37.232Z</time></trkpt><trkpt lat="44.5643417" lon="10.1528583"><ele>864.0000000000001</ele><time>2026-04-24T14:31:38.232Z</time></trkpt><trkpt lat="44.5643612" lon="10.1527589"><ele>864.0</ele><time>2026-04-24T14:31:39.232Z</time></trkpt><trkpt lat="44.5644436" lon="10.1527217"><ele>864.0</ele><time>2026-04-24T14:31:40.233Z</time></trkpt><trkpt lat="44.5645762" lon="10.1526913"><ele>861.4000000000001</ele><time>2026-04-24T14:31:42.232Z</time></trkpt><trkpt lat="44.5646625" lon="10.1526851"><ele>858.8000000000001</ele><time>2026-04-24T14:31:43.234Z</time></trkpt><trkpt lat="44.5647477" lon="10.1527989"><ele>856.2</ele><time>2026-04-24T14:31:44.234Z</time></trkpt><trkpt lat="44.5648407" lon="10.1528342"><ele>853.5999999999999</ele><time>2026-04-24T14:31:45.233Z</time></trkpt><trkpt lat="44.5649418" lon="10.1528797"><ele>851.0</ele><time>2026-04-24T14:31:46.234Z</time></trkpt><trkpt lat="44.5650289" lon="10.1529185"><ele>851.0</ele><time>2026-04-24T14:31:47.234Z</time></trkpt><trkpt lat="44.5651176" lon="10.1529502"><ele>851.0</ele><time>2026-04-24T14:31:48.233Z</time></trkpt><trkpt lat="44.5652107" lon="10.1529735"><ele>851.0</ele><time>2026-04-24T14:31:49.233Z</time></trkpt><trkpt lat="44.5653075" lon="10.1530079"><ele>851.0</ele><time>2026-04-24T14:31:50.232Z</time></trkpt><trkpt lat="44.5653911" lon="10.1530632"><ele>851.0</ele><time>2026-04-24T14:31:51.232Z</time></trkpt><trkpt lat="44.5654694" lon="10.1531267"><ele>852.0</ele><time>2026-04-24T14:31:52.232Z</time></trkpt><trkpt lat="44.5655311" lon="10.1532004"><ele>853.0</ele><time>2026-04-24T14:31:53.233Z</time></trkpt><trkpt lat="44.5655898" lon="10.1532883"><ele>853.9999999999999</ele><time>2026-04-24T14:31:54.232Z</time></trkpt><trkpt lat="44.5656479" lon="10.1533985"><ele>855.0</ele><time>2026-04-24T14:31:55.232Z</time></trkpt><trkpt lat="44.5657076" lon="10.1535201"><ele>856.0</ele><time>2026-04-24T14:31:56.233Z</time></trkpt><trkpt lat="44.5657636" lon="10.1536473"><ele>854.0</ele><time>2026-04-24T14:31:57.234Z</time></trkpt><trkpt lat="44.565817" lon="10.1537925"><ele>851.9999999999999</ele><time>2026-04-24T14:31:58.234Z</time></trkpt><trkpt lat="44.5658629" lon="10.1539373"><ele>850.0</ele><time>2026-04-24T14:31:59.233Z</time></trkpt><trkpt lat="44.5659108" lon="10.1540731"><ele>848.0</ele><time>2026-04-24T14:32:00.233Z</time></trkpt><trkpt lat="44.5659269" lon="10.1541817"><ele>846.0</ele><time>2026-04-24T14:32:01.233Z</time></trkpt><trkpt lat="44.5659661" lon="10.1542984"><ele>846.0</ele><time>2026-04-24T14:32:02.233Z</time></trkpt><trkpt lat="44.56601" lon="10.1543973"><ele>846.0</ele><time>2026-04-24T14:32:03.232Z</time></trkpt><trkpt lat="44.5660612" lon="10.1544977"><ele>846.0</ele><time>2026-04-24T14:32:04.232Z</time></trkpt><trkpt lat="44.5660998" lon="10.1545939"><ele>846.0</ele><time>2026-04-24T14:32:05.232Z</time></trkpt><trkpt lat="44.566135" lon="10.1546763"><ele>846.0</ele><time>2026-04-24T14:32:06.233Z</time></trkpt><trkpt lat="44.5662065" lon="10.154731"><ele>846.0</ele><time>2026-04-24T14:32:07.232Z</time></trkpt><trkpt lat="44.5662785" lon="10.1547984"><ele>846.0</ele><time>2026-04-24T14:32:08.234Z</time></trkpt><trkpt lat="44.5663571" lon="10.1548566"><ele>846.0</ele><time>2026-04-24T14:32:09.233Z</time></trkpt><trkpt lat="44.5664401" lon="10.1549273"><ele>846.0</ele><time>2026-04-24T14:32:10.233Z</time></trkpt><trkpt lat="44.5665122" lon="10.1549962"><ele>846.0</ele><time>2026-04-24T14:32:11.233Z</time></trkpt><trkpt lat="44.5665646" lon="10.1550863"><ele>846.0</ele><time>2026-04-24T14:32:12.233Z</time></trkpt><trkpt lat="44.5666148" lon="10.155176"><ele>846.0</ele><time>2026-04-24T14:32:13.233Z</time></trkpt><trkpt lat="44.5666497" lon="10.1552661"><ele>843.5999999999999</ele><time>2026-04-24T14:32:14.232Z</time></trkpt><trkpt lat="44.5666762" lon="10.1554015"><ele>841.2</ele><time>2026-04-24T14:32:15.233Z</time></trkpt><trkpt lat="44.566717" lon="10.1555297"><ele>838.8</ele><time>2026-04-24T14:32:16.234Z</time></trkpt><trkpt lat="44.5667668" lon="10.1556465"><ele>836.4000000000001</ele><time>2026-04-24T14:32:17.233Z</time></trkpt><trkpt lat="44.5668133" lon="10.1557716"><ele>834.0</ele><time>2026-04-24T14:32:18.233Z</time></trkpt><trkpt lat="44.5668732" lon="10.1558845"><ele>832.4000000000001</ele><time>2026-04-24T14:32:19.233Z</time></trkpt><trkpt lat="44.5669288" lon="10.1559909"><ele>830.8</ele><time>2026-04-24T14:32:20.233Z</time></trkpt><trkpt lat="44.5670066" lon="10.1560839"><ele>829.2</ele><time>2026-04-24T14:32:21.233Z</time></trkpt><trkpt lat="44.567099" lon="10.1561717"><ele>827.5999999999999</ele><time>2026-04-24T14:32:22.234Z</time></trkpt><trkpt lat="44.5671772" lon="10.1562672"><ele>826.0</ele><time>2026-04-24T14:32:23.234Z</time></trkpt><trkpt lat="44.5672642" lon="10.1563277"><ele>827.4</ele><time>2026-04-24T14:32:24.234Z</time></trkpt><trkpt lat="44.567352" lon="10.1564027"><ele>828.8</ele><time>2026-04-24T14:32:25.233Z</time></trkpt><trkpt lat="44.5674232" lon="10.1564405"><ele>830.1999999999999</ele><time>2026-04-24T14:32:26.232Z</time></trkpt><trkpt lat="44.5675032" lon="10.1564618"><ele>831.5999999999999</ele><time>2026-04-24T14:32:27.232Z</time></trkpt><trkpt lat="44.5676101" lon="10.1565129"><ele>833.0</ele><time>2026-04-24T14:32:28.233Z</time></trkpt><trkpt lat="44.567708" lon="10.156549"><ele>833.0</ele><time>2026-04-24T14:32:29.234Z</time></trkpt><trkpt lat="44.5677819" lon="10.1565792"><ele>833.0</ele><time>2026-04-24T14:32:30.233Z</time></trkpt><trkpt lat="44.5678724" lon="10.1566569"><ele>833.0</ele><time>2026-04-24T14:32:31.234Z</time></trkpt><trkpt lat="44.5679776" lon="10.1567155"><ele>833.0</ele><time>2026-04-24T14:32:32.233Z</time></trkpt><trkpt lat="44.5680748" lon="10.1567696"><ele>833.0</ele><time>2026-04-24T14:32:33.234Z</time></trkpt><trkpt lat="44.5681533" lon="10.1568611"><ele>833.0</ele><time>2026-04-24T14:32:34.233Z</time></trkpt><trkpt lat="44.5682362" lon="10.1569359"><ele>833.0</ele><time>2026-04-24T14:32:35.233Z</time></trkpt><trkpt lat="44.5683179" lon="10.1570082"><ele>833.0</ele><time>2026-04-24T14:32:36.233Z</time></trkpt><trkpt lat="44.5683305" lon="10.1571963"><ele>833.0</ele><time>2026-04-24T14:32:37.234Z</time></trkpt><trkpt lat="44.5683856" lon="10.1573086"><ele>833.0</ele><time>2026-04-24T14:32:38.234Z</time></trkpt><trkpt lat="44.5683983" lon="10.1574877"><ele>833.0</ele><time>2026-04-24T14:32:39.234Z</time></trkpt><trkpt lat="44.5684341" lon="10.1576183"><ele>833.0</ele><time>2026-04-24T14:32:40.234Z</time></trkpt><trkpt lat="44.5684555" lon="10.1577804"><ele>833.0</ele><time>2026-04-24T14:32:41.234Z</time></trkpt><trkpt lat="44.5684539" lon="10.1579047"><ele>833.0</ele><time>2026-04-24T14:32:42.232Z</time></trkpt><trkpt lat="44.5685194" lon="10.1580323"><ele>833.0</ele><time>2026-04-24T14:32:43.234Z</time></trkpt><trkpt lat="44.5685532" lon="10.1581688"><ele>831.2</ele><time>2026-04-24T14:32:44.232Z</time></trkpt><trkpt lat="44.5686212" lon="10.1582719"><ele>829.4</ele><time>2026-04-24T14:32:45.233Z</time></trkpt><trkpt lat="44.568683" lon="10.1584043"><ele>827.6</ele><time>2026-04-24T14:32:46.233Z</time></trkpt><trkpt lat="44.5687059" lon="10.1585566"><ele>825.8000000000001</ele><time>2026-04-24T14:32:47.234Z</time></trkpt><trkpt lat="44.5687295" lon="10.1587221"><ele>824.0</ele><time>2026-04-24T14:32:48.232Z</time></trkpt><trkpt lat="44.5687303" lon="10.1588922"><ele>823.6</ele><time>2026-04-24T14:32:49.233Z</time></trkpt><trkpt lat="44.5687295" lon="10.1590631"><ele>823.2</ele><time>2026-04-24T14:32:50.232Z</time></trkpt><trkpt lat="44.5687506" lon="10.159206"><ele>822.8000000000001</ele><time>2026-04-24T14:32:51.232Z</time></trkpt><trkpt lat="44.5687768" lon="10.1593191"><ele>822.4000000000001</ele><time>2026-04-24T14:32:52.233Z</time></trkpt><trkpt lat="44.5688101" lon="10.1594159"><ele>822.0</ele><time>2026-04-24T14:32:53.233Z</time></trkpt><trkpt lat="44.5688943" lon="10.1594867"><ele>822.0</ele><time>2026-04-24T14:32:54.233Z</time></trkpt><trkpt lat="44.5689907" lon="10.1595634"><ele>822.0</ele><time>2026-04-24T14:32:55.233Z</time></trkpt><trkpt lat="44.569063" lon="10.1596407"><ele>822.0</ele><time>2026-04-24T14:32:56.233Z</time></trkpt><trkpt lat="44.5691202" lon="10.1597341"><ele>822.0</ele><time>2026-04-24T14:32:57.233Z</time></trkpt><trkpt lat="44.5691742" lon="10.1598564"><ele>822.0</ele><time>2026-04-24T14:32:58.232Z</time></trkpt><trkpt lat="44.5692192" lon="10.160011"><ele>821.2</ele><time>2026-04-24T14:32:59.233Z</time></trkpt><trkpt lat="44.569258" lon="10.1601779"><ele>820.4000000000001</ele><time>2026-04-24T14:33:00.231Z</time></trkpt><trkpt lat="44.5692893" lon="10.160335"><ele>819.5999999999999</ele><time>2026-04-24T14:33:01.232Z</time></trkpt><trkpt lat="44.569307" lon="10.1604731"><ele>818.8</ele><time>2026-04-24T14:33:02.232Z</time></trkpt><trkpt lat="44.5693173" lon="10.1606125"><ele>818.0</ele><time>2026-04-24T14:33:03.232Z</time></trkpt><trkpt lat="44.5693515" lon="10.1607631"><ele>816.0</ele><time>2026-04-24T14:33:04.232Z</time></trkpt><trkpt lat="44.5693916" lon="10.1609257"><ele>814.0</ele><time>2026-04-24T14:33:05.232Z</time></trkpt><trkpt lat="44.569434" lon="10.161072"><ele>812.0</ele><time>2026-04-24T14:33:06.233Z</time></trkpt><trkpt lat="44.5694663" lon="10.1612199"><ele>810.0</ele><time>2026-04-24T14:33:07.232Z</time></trkpt><trkpt lat="44.5694957" lon="10.1613664"><ele>809.6</ele><time>2026-04-24T14:33:08.231Z</time></trkpt><trkpt lat="44.5695011" lon="10.1615364"><ele>809.2</ele><time>2026-04-24T14:33:09.232Z</time></trkpt><trkpt lat="44.5695105" lon="10.1616764"><ele>808.8</ele><time>2026-04-24T14:33:10.232Z</time></trkpt><trkpt lat="44.5695305" lon="10.1618097"><ele>808.4</ele><time>2026-04-24T14:33:11.232Z</time></trkpt><trkpt lat="44.5695769" lon="10.1619266"><ele>808.0</ele><time>2026-04-24T14:33:12.231Z</time></trkpt><trkpt lat="44.5696018" lon="10.1620697"><ele>808.0</ele><time>2026-04-24T14:33:13.232Z</time></trkpt><trkpt lat="44.569635" lon="10.1622089"><ele>808.0</ele><time>2026-04-24T14:33:14.231Z</time></trkpt><trkpt lat="44.5696734" lon="10.1623282"><ele>808.0</ele><time>2026-04-24T14:33:15.232Z</time></trkpt><trkpt lat="44.569721" lon="10.1624398"><ele>808.0</ele><time>2026-04-24T14:33:16.233Z</time></trkpt><trkpt lat="44.5697941" lon="10.1625615"><ele>808.0</ele><time>2026-04-24T14:33:17.233Z</time></trkpt><trkpt lat="44.5698595" lon="10.1627066"><ele>808.0</ele><time>2026-04-24T14:33:18.233Z</time></trkpt><trkpt lat="44.5699267" lon="10.1628512"><ele>808.0</ele><time>2026-04-24T14:33:19.232Z</time></trkpt><trkpt lat="44.5699778" lon="10.1629928"><ele>808.0</ele><time>2026-04-24T14:33:20.233Z</time></trkpt><trkpt lat="44.570015" lon="10.1631244"><ele>808.0</ele><time>2026-04-24T14:33:21.233Z</time></trkpt><trkpt lat="44.570046" lon="10.1632443"><ele>808.0</ele><time>2026-04-24T14:33:22.232Z</time></trkpt><trkpt lat="44.5700819" lon="10.163353"><ele>808.5999999999999</ele><time>2026-04-24T14:33:23.232Z</time></trkpt><trkpt lat="44.5701238" lon="10.1634595"><ele>809.1999999999999</ele><time>2026-04-24T14:33:24.231Z</time></trkpt><trkpt lat="44.5701799" lon="10.1635512"><ele>809.8</ele><time>2026-04-24T14:33:25.233Z</time></trkpt><trkpt lat="44.5702396" lon="10.1636354"><ele>810.4</ele><time>2026-04-24T14:33:26.233Z</time></trkpt><trkpt lat="44.5703529" lon="10.1637097"><ele>811.0</ele><time>2026-04-24T14:33:27.231Z</time></trkpt><trkpt lat="44.5704546" lon="10.1637764"><ele>811.0</ele><time>2026-04-24T14:33:28.231Z</time></trkpt><trkpt lat="44.5705644" lon="10.1638381"><ele>811.0</ele><time>2026-04-24T14:33:29.232Z</time></trkpt><trkpt lat="44.5706517" lon="10.1638932"><ele>811.0</ele><time>2026-04-24T14:33:30.232Z</time></trkpt><trkpt lat="44.5707265" lon="10.1639503"><ele>811.0</ele><time>2026-04-24T14:33:31.233Z</time></trkpt><trkpt lat="44.5707945" lon="10.1640499"><ele>811.0</ele><time>2026-04-24T14:33:32.232Z</time></trkpt><trkpt lat="44.5708724" lon="10.1641343"><ele>812.0</ele><time>2026-04-24T14:33:33.232Z</time></trkpt><trkpt lat="44.570941" lon="10.1642578"><ele>813.0</ele><time>2026-04-24T14:33:34.232Z</time></trkpt><trkpt lat="44.570995" lon="10.1644037"><ele>814.0</ele><time>2026-04-24T14:33:35.231Z</time></trkpt><trkpt lat="44.5710372" lon="10.1645248"><ele>815.0</ele><time>2026-04-24T14:33:36.232Z</time></trkpt><trkpt lat="44.571096" lon="10.1646161"><ele>816.0</ele><time>2026-04-24T14:33:37.233Z</time></trkpt><trkpt lat="44.5711681" lon="10.1647123"><ele>815.8</ele><time>2026-04-24T14:33:38.231Z</time></trkpt><trkpt lat="44.5712496" lon="10.1648011"><ele>815.5999999999999</ele><time>2026-04-24T14:33:39.231Z</time></trkpt><trkpt lat="44.5713654" lon="10.1648909"><ele>815.4</ele><time>2026-04-24T14:33:40.232Z</time></trkpt><trkpt lat="44.5714689" lon="10.1649851"><ele>815.2</ele><time>2026-04-24T14:33:41.233Z</time></trkpt><trkpt lat="44.5715406" lon="10.1650488"><ele>815.0</ele><time>2026-04-24T14:33:42.233Z</time></trkpt><trkpt lat="44.5716323" lon="10.1651267"><ele>816.8</ele><time>2026-04-24T14:33:43.231Z</time></trkpt><trkpt lat="44.5717085" lon="10.1652718"><ele>818.6</ele><time>2026-04-24T14:33:45.233Z</time></trkpt><trkpt lat="44.5716759" lon="10.1654062"><ele>820.4000000000001</ele><time>2026-04-24T14:33:46.231Z</time></trkpt><trkpt lat="44.5716802" lon="10.1655159"><ele>822.2</ele><time>2026-04-24T14:33:47.231Z</time></trkpt><trkpt lat="44.571689" lon="10.1656139"><ele>824.0</ele><time>2026-04-24T14:33:48.233Z</time></trkpt><trkpt lat="44.5717114" lon="10.1657444"><ele>825.75</ele><time>2026-04-24T14:33:49.233Z</time></trkpt><trkpt lat="44.5717438" lon="10.1659026"><ele>827.5</ele><time>2026-04-24T14:33:50.232Z</time></trkpt><trkpt lat="44.5717852" lon="10.1660735"><ele>829.25</ele><time>2026-04-24T14:33:51.231Z</time></trkpt><trkpt lat="44.571813" lon="10.1662261"><ele>831.0</ele><time>2026-04-24T14:33:52.233Z</time></trkpt><trkpt lat="44.5718364" lon="10.1663558"><ele>831.0</ele><time>2026-04-24T14:33:53.232Z</time></trkpt><trkpt lat="44.5718641" lon="10.1664721"><ele>831.0</ele><time>2026-04-24T14:33:54.232Z</time></trkpt><trkpt lat="44.5719064" lon="10.1665806"><ele>831.0</ele><time>2026-04-24T14:33:55.232Z</time></trkpt><trkpt lat="44.5719653" lon="10.1666695"><ele>831.0</ele><time>2026-04-24T14:33:56.233Z</time></trkpt><trkpt lat="44.5720162" lon="10.1667656"><ele>831.0</ele><time>2026-04-24T14:33:57.233Z</time></trkpt><trkpt lat="44.5720592" lon="10.1668841"><ele>831.0</ele><time>2026-04-24T14:33:58.233Z</time></trkpt><trkpt lat="44.5720987" lon="10.1670149"><ele>831.8</ele><time>2026-04-24T14:33:59.231Z</time></trkpt><trkpt lat="44.5721295" lon="10.1671616"><ele>832.5999999999999</ele><time>2026-04-24T14:34:00.232Z</time></trkpt><trkpt lat="44.5721657" lon="10.1673007"><ele>833.4</ele><time>2026-04-24T14:34:01.232Z</time></trkpt><trkpt lat="44.5722182" lon="10.1674209"><ele>834.2</ele><time>2026-04-24T14:34:02.233Z</time></trkpt><trkpt lat="44.5722677" lon="10.1675288"><ele>835.0</ele><time>2026-04-24T14:34:03.232Z</time></trkpt><trkpt lat="44.5723306" lon="10.1676111"><ele>836.1666666666666</ele><time>2026-04-24T14:34:04.233Z</time></trkpt><trkpt lat="44.5723804" lon="10.1677156"><ele>837.3333333333333</ele><time>2026-04-24T14:34:05.231Z</time></trkpt><trkpt lat="44.5724149" lon="10.1678287"><ele>838.5</ele><time>2026-04-24T14:34:06.232Z</time></trkpt><trkpt lat="44.572461" lon="10.167936"><ele>839.6666666666667</ele><time>2026-04-24T14:34:07.232Z</time></trkpt><trkpt lat="44.5725053" lon="10.1680293"><ele>840.8333333333334</ele><time>2026-04-24T14:34:08.232Z</time></trkpt><trkpt lat="44.5725533" lon="10.1681205"><ele>842.0</ele><time>2026-04-24T14:34:09.233Z</time></trkpt><trkpt lat="44.5725984" lon="10.1681928"><ele>841.8333333333334</ele><time>2026-04-24T14:34:10.232Z</time></trkpt><trkpt lat="44.5726466" lon="10.1682621"><ele>841.6666666666667</ele><time>2026-04-24T14:34:11.233Z</time></trkpt><trkpt lat="44.5726983" lon="10.1683241"><ele>841.5</ele><time>2026-04-24T14:34:12.232Z</time></trkpt><trkpt lat="44.5727626" lon="10.168395"><ele>841.3333333333333</ele><time>2026-04-24T14:34:13.232Z</time></trkpt><trkpt lat="44.5728308" lon="10.1684672"><ele>841.1666666666666</ele><time>2026-04-24T14:34:14.231Z</time></trkpt><trkpt lat="44.5728929" lon="10.1685299"><ele>841.0</ele><time>2026-04-24T14:34:15.231Z</time></trkpt><trkpt lat="44.5729582" lon="10.1685894"><ele>840.8333333333333</ele><time>2026-04-24T14:34:16.232Z</time></trkpt><trkpt lat="44.5730184" lon="10.1686368"><ele>840.6666666666666</ele><time>2026-04-24T14:34:17.233Z</time></trkpt><trkpt lat="44.5730809" lon="10.1686675"><ele>840.5</ele><time>2026-04-24T14:34:18.233Z</time></trkpt><trkpt lat="44.5731399" lon="10.1687003"><ele>840.3333333333333</ele><time>2026-04-24T14:34:19.232Z</time></trkpt><trkpt lat="44.5732601" lon="10.1687211"><ele>840.1666666666666</ele><time>2026-04-24T14:34:21.231Z</time></trkpt><trkpt lat="44.5733249" lon="10.1687267"><ele>840.0</ele><time>2026-04-24T14:34:22.231Z</time></trkpt><trkpt lat="44.5733924" lon="10.1687396"><ele>840.0</ele><time>2026-04-24T14:34:23.233Z</time></trkpt><trkpt lat="44.5735049" lon="10.1687868"><ele>840.0</ele><time>2026-04-24T14:34:25.232Z</time></trkpt><trkpt lat="44.5735882" lon="10.1688236"><ele>840.0</ele><time>2026-04-24T14:34:27.231Z</time></trkpt><trkpt lat="44.5736521" lon="10.1687848"><ele>840.0</ele><time>2026-04-24T14:37:50.231Z</time></trkpt><trkpt lat="44.5735954" lon="10.1687236"><ele>840.0</ele><time>2026-04-24T14:37:52.232Z</time></trkpt><trkpt lat="44.5735317" lon="10.1687343"><ele>840.0</ele><time>2026-04-24T14:37:53.231Z</time></trkpt><trkpt lat="44.5734587" lon="10.1687338"><ele>840.0</ele><time>2026-04-24T14:37:54.23Z</time></trkpt><trkpt lat="44.5733753" lon="10.1687353"><ele>840.0</ele><time>2026-04-24T14:37:55.231Z</time></trkpt><trkpt lat="44.5732949" lon="10.1687282"><ele>840.0</ele><time>2026-04-24T14:37:56.23Z</time></trkpt><trkpt lat="44.5732212" lon="10.1687203"><ele>840.0</ele><time>2026-04-24T14:37:57.232Z</time></trkpt><trkpt lat="44.5731534" lon="10.1687067"><ele>840.0</ele><time>2026-04-24T14:37:58.232Z</time></trkpt><trkpt lat="44.5730905" lon="10.168685"><ele>840.0</ele><time>2026-04-24T14:37:59.232Z</time></trkpt><trkpt lat="44.5730301" lon="10.1686498"><ele>840.0</ele><time>2026-04-24T14:38:00.232Z</time></trkpt><trkpt lat="44.5729667" lon="10.1686038"><ele>840.0</ele><time>2026-04-24T14:38:01.231Z</time></trkpt><trkpt lat="44.572897" lon="10.1685425"><ele>840.0</ele><time>2026-04-24T14:38:02.231Z</time></trkpt><trkpt lat="44.5728147" lon="10.1684622"><ele>840.0</ele><time>2026-04-24T14:38:03.231Z</time></trkpt><trkpt lat="44.5727308" lon="10.1683687"><ele>840.0</ele><time>2026-04-24T14:38:04.232Z</time></trkpt><trkpt lat="44.5726427" lon="10.1682621"><ele>840.0</ele><time>2026-04-24T14:38:05.231Z</time></trkpt><trkpt lat="44.5725601" lon="10.1681372"><ele>840.5</ele><time>2026-04-24T14:38:06.231Z</time></trkpt><trkpt lat="44.5724915" lon="10.1679964"><ele>841.0</ele><time>2026-04-24T14:38:07.231Z</time></trkpt><trkpt lat="44.5724333" lon="10.1678352"><ele>841.5</ele><time>2026-04-24T14:38:08.232Z</time></trkpt><trkpt lat="44.5723621" lon="10.1676806"><ele>842.0</ele><time>2026-04-24T14:38:09.231Z</time></trkpt><trkpt lat="44.5722832" lon="10.1675482"><ele>842.0</ele><time>2026-04-24T14:38:10.23Z</time></trkpt><trkpt lat="44.5722215" lon="10.1674257"><ele>842.0</ele><time>2026-04-24T14:38:11.231Z</time></trkpt><trkpt lat="44.572172" lon="10.167287"><ele>842.0</ele><time>2026-04-24T14:38:12.231Z</time></trkpt><trkpt lat="44.572141" lon="10.1671243"><ele>842.0</ele><time>2026-04-24T14:38:13.231Z</time></trkpt><trkpt lat="44.5721061" lon="10.1669923"><ele>842.0</ele><time>2026-04-24T14:38:14.231Z</time></trkpt><trkpt lat="44.5720674" lon="10.1669049"><ele>841.5000000000001</ele><time>2026-04-24T14:38:15.232Z</time></trkpt><trkpt lat="44.5720027" lon="10.1667777"><ele>841.0</ele><time>2026-04-24T14:38:17.232Z</time></trkpt><trkpt lat="44.5719578" lon="10.1666954"><ele>840.5</ele><time>2026-04-24T14:38:18.232Z</time></trkpt><trkpt lat="44.5719061" lon="10.1665991"><ele>840.0</ele><time>2026-04-24T14:38:19.231Z</time></trkpt><trkpt lat="44.5718701" lon="10.1664952"><ele>839.5000000000001</ele><time>2026-04-24T14:38:20.231Z</time></trkpt><trkpt lat="44.5718401" lon="10.1663844"><ele>839.0</ele><time>2026-04-24T14:38:21.232Z</time></trkpt><trkpt lat="44.5718086" lon="10.1662123"><ele>837.4000000000001</ele><time>2026-04-24T14:38:22.232Z</time></trkpt><trkpt lat="44.5717865" lon="10.1660697"><ele>835.8</ele><time>2026-04-24T14:38:23.232Z</time></trkpt><trkpt lat="44.57176" lon="10.165935"><ele>834.2</ele><time>2026-04-24T14:38:24.232Z</time></trkpt><trkpt lat="44.5717383" lon="10.1658038"><ele>832.5999999999999</ele><time>2026-04-24T14:38:25.23Z</time></trkpt><trkpt lat="44.5717122" lon="10.1656816"><ele>831.0</ele><time>2026-04-24T14:38:26.23Z</time></trkpt><trkpt lat="44.571691" lon="10.1655679"><ele>829.5999999999999</ele><time>2026-04-24T14:38:27.231Z</time></trkpt><trkpt lat="44.5716915" lon="10.1654506"><ele>828.2</ele><time>2026-04-24T14:38:28.231Z</time></trkpt><trkpt lat="44.5716879" lon="10.1653386"><ele>826.8</ele><time>2026-04-24T14:38:29.231Z</time></trkpt><trkpt lat="44.5716786" lon="10.1652373"><ele>825.4000000000001</ele><time>2026-04-24T14:38:30.231Z</time></trkpt><trkpt lat="44.571609" lon="10.1650978"><ele>824.0</ele><time>2026-04-24T14:38:32.231Z</time></trkpt><trkpt lat="44.5715039" lon="10.165042"><ele>824.0</ele><time>2026-04-24T14:38:33.231Z</time></trkpt><trkpt lat="44.5714259" lon="10.1649548"><ele>824.0</ele><time>2026-04-24T14:38:34.231Z</time></trkpt><trkpt lat="44.5712998" lon="10.1648762"><ele>824.0</ele><time>2026-04-24T14:38:35.231Z</time></trkpt><trkpt lat="44.5712073" lon="10.1647882"><ele>824.0</ele><time>2026-04-24T14:38:36.23Z</time></trkpt><trkpt lat="44.5711252" lon="10.1647103"><ele>824.0</ele><time>2026-04-24T14:38:37.23Z</time></trkpt><trkpt lat="44.5710612" lon="10.1645948"><ele>822.0</ele><time>2026-04-24T14:38:38.231Z</time></trkpt><trkpt lat="44.5709981" lon="10.16444"><ele>820.0</ele><time>2026-04-24T14:38:39.23Z</time></trkpt><trkpt lat="44.5709438" lon="10.1642961"><ele>818.0</ele><time>2026-04-24T14:38:40.231Z</time></trkpt><trkpt lat="44.5708767" lon="10.1641708"><ele>816.0</ele><time>2026-04-24T14:38:41.23Z</time></trkpt><trkpt lat="44.5708062" lon="10.1640588"><ele>815.0</ele><time>2026-04-24T14:38:42.23Z</time></trkpt><trkpt lat="44.5707437" lon="10.1639658"><ele>814.0</ele><time>2026-04-24T14:38:43.231Z</time></trkpt><trkpt lat="44.5706818" lon="10.1638851"><ele>813.0</ele><time>2026-04-24T14:38:44.23Z</time></trkpt><trkpt lat="44.5705662" lon="10.1638269"><ele>812.0</ele><time>2026-04-24T14:38:45.231Z</time></trkpt><trkpt lat="44.5704343" lon="10.163764"><ele>811.0</ele><time>2026-04-24T14:38:46.232Z</time></trkpt><trkpt lat="44.5703161" lon="10.1636789"><ele>810.4</ele><time>2026-04-24T14:38:47.232Z</time></trkpt><trkpt lat="44.5702279" lon="10.1636053"><ele>809.8</ele><time>2026-04-24T14:38:48.231Z</time></trkpt><trkpt lat="44.5701557" lon="10.1635175"><ele>809.1999999999999</ele><time>2026-04-24T14:38:49.232Z</time></trkpt><trkpt lat="44.5701081" lon="10.1633823"><ele>808.5999999999999</ele><time>2026-04-24T14:38:50.232Z</time></trkpt><trkpt lat="44.5700571" lon="10.1632226"><ele>808.0</ele><time>2026-04-24T14:38:51.231Z</time></trkpt><trkpt lat="44.5700094" lon="10.1630462"><ele>808.0</ele><time>2026-04-24T14:38:52.23Z</time></trkpt><trkpt lat="44.5699377" lon="10.1628634"><ele>808.0</ele><time>2026-04-24T14:38:53.23Z</time></trkpt><trkpt lat="44.5698473" lon="10.1626629"><ele>808.0</ele><time>2026-04-24T14:38:54.231Z</time></trkpt><trkpt lat="44.5697664" lon="10.1624912"><ele>808.8</ele><time>2026-04-24T14:38:55.231Z</time></trkpt><trkpt lat="44.5697032" lon="10.1623526"><ele>809.5999999999999</ele><time>2026-04-24T14:38:56.231Z</time></trkpt><trkpt lat="44.569657" lon="10.1622343"><ele>810.4000000000001</ele><time>2026-04-24T14:38:57.232Z</time></trkpt><trkpt lat="44.5696241" lon="10.1621063"><ele>811.2</ele><time>2026-04-24T14:38:58.232Z</time></trkpt><trkpt lat="44.5695871" lon="10.1619575"><ele>812.0</ele><time>2026-04-24T14:38:59.23Z</time></trkpt><trkpt lat="44.5695528" lon="10.1618111"><ele>812.0</ele><time>2026-04-24T14:39:00.231Z</time></trkpt><trkpt lat="44.5695287" lon="10.1616247"><ele>812.0</ele><time>2026-04-24T14:39:01.231Z</time></trkpt><trkpt lat="44.5695095" lon="10.1614396"><ele>812.0</ele><time>2026-04-24T14:39:02.232Z</time></trkpt><trkpt lat="44.5694815" lon="10.1612814"><ele>812.0</ele><time>2026-04-24T14:39:03.231Z</time></trkpt><trkpt lat="44.5694467" lon="10.1611341"><ele>811.5</ele><time>2026-04-24T14:39:04.231Z</time></trkpt><trkpt lat="44.5694012" lon="10.1609578"><ele>811.0</ele><time>2026-04-24T14:39:05.231Z</time></trkpt><trkpt lat="44.569358" lon="10.160798"><ele>810.5</ele><time>2026-04-24T14:39:06.231Z</time></trkpt><trkpt lat="44.5693223" lon="10.1606438"><ele>810.0</ele><time>2026-04-24T14:39:07.231Z</time></trkpt><trkpt lat="44.5693" lon="10.160468"><ele>812.0</ele><time>2026-04-24T14:39:08.231Z</time></trkpt><trkpt lat="44.5692696" lon="10.1602904"><ele>814.0</ele><time>2026-04-24T14:39:09.232Z</time></trkpt><trkpt lat="44.5692273" lon="10.1600954"><ele>816.0</ele><time>2026-04-24T14:39:10.231Z</time></trkpt><trkpt lat="44.5691891" lon="10.1599216"><ele>818.0</ele><time>2026-04-24T14:39:11.231Z</time></trkpt><trkpt lat="44.5691454" lon="10.1597906"><ele>818.8</ele><time>2026-04-24T14:39:12.231Z</time></trkpt><trkpt lat="44.5690877" lon="10.1596781"><ele>819.5999999999999</ele><time>2026-04-24T14:39:13.231Z</time></trkpt><trkpt lat="44.5690093" lon="10.1595828"><ele>820.4000000000001</ele><time>2026-04-24T14:39:14.231Z</time></trkpt><trkpt lat="44.5689084" lon="10.1594914"><ele>821.2</ele><time>2026-04-24T14:39:15.231Z</time></trkpt><trkpt lat="44.5688269" lon="10.1594273"><ele>822.0</ele><time>2026-04-24T14:39:16.23Z</time></trkpt><trkpt lat="44.5687716" lon="10.1593358"><ele>822.0</ele><time>2026-04-24T14:39:17.23Z</time></trkpt><trkpt lat="44.5687341" lon="10.1592111"><ele>822.0</ele><time>2026-04-24T14:39:18.23Z</time></trkpt><trkpt lat="44.5687181" lon="10.1590523"><ele>822.0</ele><time>2026-04-24T14:39:19.231Z</time></trkpt><trkpt lat="44.5687222" lon="10.1588523"><ele>822.0</ele><time>2026-04-24T14:39:20.23Z</time></trkpt><trkpt lat="44.5687132" lon="10.1586584"><ele>821.8</ele><time>2026-04-24T14:39:21.232Z</time></trkpt><trkpt lat="44.568693" lon="10.1585208"><ele>821.6</ele><time>2026-04-24T14:39:22.232Z</time></trkpt><trkpt lat="44.5686597" lon="10.1584107"><ele>821.4</ele><time>2026-04-24T14:39:23.231Z</time></trkpt><trkpt lat="44.5686084" lon="10.1582971"><ele>821.1999999999999</ele><time>2026-04-24T14:39:24.232Z</time></trkpt><trkpt lat="44.5685464" lon="10.158158"><ele>821.0</ele><time>2026-04-24T14:39:25.231Z</time></trkpt><trkpt lat="44.5684919" lon="10.1580131"><ele>824.0</ele><time>2026-04-24T14:39:26.231Z</time></trkpt><trkpt lat="44.5684562" lon="10.15787"><ele>827.0</ele><time>2026-04-24T14:39:27.231Z</time></trkpt><trkpt lat="44.5684231" lon="10.1577196"><ele>830.0</ele><time>2026-04-24T14:39:28.231Z</time></trkpt><trkpt lat="44.5684052" lon="10.157525"><ele>833.0</ele><time>2026-04-24T14:39:29.23Z</time></trkpt><trkpt lat="44.5683776" lon="10.1573576"><ele>835.25</ele><time>2026-04-24T14:39:30.231Z</time></trkpt><trkpt lat="44.5683396" lon="10.1572017"><ele>837.5</ele><time>2026-04-24T14:39:31.231Z</time></trkpt><trkpt lat="44.5682899" lon="10.1570354"><ele>839.75</ele><time>2026-04-24T14:39:32.231Z</time></trkpt><trkpt lat="44.5682385" lon="10.1568953"><ele>842.0</ele><time>2026-04-24T14:39:33.231Z</time></trkpt><trkpt lat="44.5681678" lon="10.1567965"><ele>842.0</ele><time>2026-04-24T14:39:34.23Z</time></trkpt><trkpt lat="44.5680748" lon="10.1567624"><ele>842.0</ele><time>2026-04-24T14:39:35.23Z</time></trkpt><trkpt lat="44.5679793" lon="10.1567011"><ele>842.0</ele><time>2026-04-24T14:39:36.23Z</time></trkpt><trkpt lat="44.5678586" lon="10.1566066"><ele>842.0</ele><time>2026-04-24T14:39:37.23Z</time></trkpt><trkpt lat="44.5677423" lon="10.1565273"><ele>842.8</ele><time>2026-04-24T14:39:38.23Z</time></trkpt><trkpt lat="44.5676412" lon="10.1564728"><ele>843.6</ele><time>2026-04-24T14:39:39.23Z</time></trkpt><trkpt lat="44.5675385" lon="10.1564248"><ele>844.4</ele><time>2026-04-24T14:39:40.23Z</time></trkpt><trkpt lat="44.5674708" lon="10.1564231"><ele>845.1999999999999</ele><time>2026-04-24T14:39:41.231Z</time></trkpt><trkpt lat="44.5673859" lon="10.1563993"><ele>846.0</ele><time>2026-04-24T14:39:42.232Z</time></trkpt><trkpt lat="44.5673095" lon="10.1563459"><ele>846.0</ele><time>2026-04-24T14:39:43.231Z</time></trkpt><trkpt lat="44.5672379" lon="10.1562973"><ele>846.0</ele><time>2026-04-24T14:39:44.23Z</time></trkpt><trkpt lat="44.5671597" lon="10.1562482"><ele>846.0</ele><time>2026-04-24T14:39:45.231Z</time></trkpt><trkpt lat="44.567097" lon="10.1561697"><ele>846.0</ele><time>2026-04-24T14:39:46.23Z</time></trkpt><trkpt lat="44.5670406" lon="10.1561147"><ele>846.0</ele><time>2026-04-24T14:39:47.231Z</time></trkpt><trkpt lat="44.5669537" lon="10.1559994"><ele>846.0</ele><time>2026-04-24T14:39:49.231Z</time></trkpt><trkpt lat="44.5668918" lon="10.1559025"><ele>843.5999999999999</ele><time>2026-04-24T14:39:51.231Z</time></trkpt><trkpt lat="44.5668152" lon="10.1558183"><ele>841.2</ele><time>2026-04-24T14:40:02.23Z</time></trkpt><trkpt lat="44.5667761" lon="10.1557239"><ele>838.8</ele><time>2026-04-24T14:40:03.23Z</time></trkpt><trkpt lat="44.5667295" lon="10.1556049"><ele>836.4000000000001</ele><time>2026-04-24T14:40:04.23Z</time></trkpt><trkpt lat="44.5666955" lon="10.1554862"><ele>834.0</ele><time>2026-04-24T14:40:05.23Z</time></trkpt><trkpt lat="44.566661" lon="10.1553559"><ele>834.0</ele><time>2026-04-24T14:40:06.23Z</time></trkpt><trkpt lat="44.56663" lon="10.1552353"><ele>834.0</ele><time>2026-04-24T14:40:07.232Z</time></trkpt><trkpt lat="44.5665978" lon="10.1551187"><ele>834.0</ele><time>2026-04-24T14:40:08.231Z</time></trkpt><trkpt lat="44.5665563" lon="10.1550249"><ele>834.0</ele><time>2026-04-24T14:40:09.23Z</time></trkpt><trkpt lat="44.5665056" lon="10.1549344"><ele>834.0</ele><time>2026-04-24T14:40:10.231Z</time></trkpt><trkpt lat="44.5664107" lon="10.1548984"><ele>834.0</ele><time>2026-04-24T14:40:11.231Z</time></trkpt><trkpt lat="44.5663212" lon="10.1548182"><ele>834.4000000000001</ele><time>2026-04-24T14:40:12.231Z</time></trkpt><trkpt lat="44.5662327" lon="10.1547513"><ele>834.8</ele><time>2026-04-24T14:40:13.23Z</time></trkpt><trkpt lat="44.5661565" lon="10.1546724"><ele>835.2</ele><time>2026-04-24T14:40:14.231Z</time></trkpt><trkpt lat="44.5660906" lon="10.1545875"><ele>835.5999999999999</ele><time>2026-04-24T14:40:15.232Z</time></trkpt><trkpt lat="44.5660367" lon="10.1544783"><ele>836.0</ele><time>2026-04-24T14:40:16.231Z</time></trkpt><trkpt lat="44.5659846" lon="10.1543406"><ele>836.0</ele><time>2026-04-24T14:40:17.231Z</time></trkpt><trkpt lat="44.5659268" lon="10.154178"><ele>836.0</ele><time>2026-04-24T14:40:18.231Z</time></trkpt><trkpt lat="44.5658761" lon="10.1540222"><ele>836.0</ele><time>2026-04-24T14:40:19.231Z</time></trkpt><trkpt lat="44.5658319" lon="10.1538772"><ele>836.0</ele><time>2026-04-24T14:40:20.23Z</time></trkpt><trkpt lat="44.5657897" lon="10.1537287"><ele>838.0</ele><time>2026-04-24T14:40:21.23Z</time></trkpt><trkpt lat="44.5657378" lon="10.1535839"><ele>840.0</ele><time>2026-04-24T14:40:22.231Z</time></trkpt><trkpt lat="44.5656715" lon="10.1534492"><ele>842.0</ele><time>2026-04-24T14:40:23.23Z</time></trkpt><trkpt lat="44.5656052" lon="10.1533211"><ele>844.0</ele><time>2026-04-24T14:40:24.231Z</time></trkpt><trkpt lat="44.5655431" lon="10.15321"><ele>846.0</ele><time>2026-04-24T14:40:25.232Z</time></trkpt><trkpt lat="44.565483" lon="10.15313"><ele>847.0</ele><time>2026-04-24T14:40:26.23Z</time></trkpt><trkpt lat="44.5654037" lon="10.1530639"><ele>848.0</ele><time>2026-04-24T14:40:27.231Z</time></trkpt><trkpt lat="44.5652989" lon="10.1530056"><ele>849.0</ele><time>2026-04-24T14:40:28.23Z</time></trkpt><trkpt lat="44.5651782" lon="10.1529749"><ele>850.0</ele><time>2026-04-24T14:40:29.231Z</time></trkpt><trkpt lat="44.5650637" lon="10.1529552"><ele>851.0</ele><time>2026-04-24T14:40:30.231Z</time></trkpt><trkpt lat="44.5649577" lon="10.1529111"><ele>851.0</ele><time>2026-04-24T14:40:31.231Z</time></trkpt><trkpt lat="44.5648445" lon="10.152849"><ele>851.0</ele><time>2026-04-24T14:40:32.231Z</time></trkpt><trkpt lat="44.5647318" lon="10.1527744"><ele>851.0</ele><time>2026-04-24T14:40:33.231Z</time></trkpt><trkpt lat="44.5646192" lon="10.1527038"><ele>851.0</ele><time>2026-04-24T14:40:34.23Z</time></trkpt><trkpt lat="44.56454" lon="10.1526666"><ele>853.5999999999999</ele><time>2026-04-24T14:40:35.231Z</time></trkpt><trkpt lat="44.5644642" lon="10.1526302"><ele>856.2</ele><time>2026-04-24T14:40:36.232Z</time></trkpt><trkpt lat="44.5643832" lon="10.1526048"><ele>858.8000000000001</ele><time>2026-04-24T14:40:37.232Z</time></trkpt><trkpt lat="44.5643182" lon="10.1526141"><ele>861.4000000000001</ele><time>2026-04-24T14:40:38.231Z</time></trkpt><trkpt lat="44.5642833" lon="10.1527266"><ele>864.0</ele><time>2026-04-24T14:40:39.231Z</time></trkpt><trkpt lat="44.5642474" lon="10.1529202"><ele>864.0</ele><time>2026-04-24T14:40:40.23Z</time></trkpt><trkpt lat="44.5642063" lon="10.1530831"><ele>864.0000000000001</ele><time>2026-04-24T14:40:41.23Z</time></trkpt><trkpt lat="44.5641984" lon="10.1531991"><ele>864.0000000000001</ele><time>2026-04-24T14:40:42.23Z</time></trkpt><trkpt lat="44.5641749" lon="10.1532862"><ele>864.0</ele><time>2026-04-24T14:40:43.229Z</time></trkpt><trkpt lat="44.564112" lon="10.1533615"><ele>864.0</ele><time>2026-04-24T14:40:44.23Z</time></trkpt><trkpt lat="44.5640067" lon="10.1533203"><ele>864.0</ele><time>2026-04-24T14:40:46.23Z</time></trkpt><trkpt lat="44.5639712" lon="10.153189"><ele>864.0000000000001</ele><time>2026-04-24T14:40:48.23Z</time></trkpt><trkpt lat="44.5639866" lon="10.1530381"><ele>864.0000000000001</ele><time>2026-04-24T14:40:50.231Z</time></trkpt><trkpt lat="44.5640368" lon="10.1529183"><ele>864.0</ele><time>2026-04-24T14:40:51.229Z</time></trkpt><trkpt lat="44.5640819" lon="10.1527618"><ele>864.0</ele><time>2026-04-24T14:40:52.23Z</time></trkpt><trkpt lat="44.5640993" lon="10.1525927"><ele>864.0</ele><time>2026-04-24T14:40:53.231Z</time></trkpt><trkpt lat="44.564121" lon="10.1524209"><ele>864.0</ele><time>2026-04-24T14:40:54.23Z</time></trkpt><trkpt lat="44.5641539" lon="10.1522575"><ele>864.0</ele><time>2026-04-24T14:40:55.229Z</time></trkpt><trkpt lat="44.5641975" lon="10.1520844"><ele>864.0</ele><time>2026-04-24T14:40:56.23Z</time></trkpt><trkpt lat="44.5642449" lon="10.1519061"><ele>866.0</ele><time>2026-04-24T14:40:57.231Z</time></trkpt><trkpt lat="44.5642935" lon="10.151735"><ele>868.0000000000001</ele><time>2026-04-24T14:40:58.23Z</time></trkpt><trkpt lat="44.5643397" lon="10.1515668"><ele>870.0000000000001</ele><time>2026-04-24T14:40:59.23Z</time></trkpt><trkpt lat="44.5643624" lon="10.1514454"><ele>872.0</ele><time>2026-04-24T14:41:00.23Z</time></trkpt><trkpt lat="44.5643739" lon="10.1513223"><ele>874.0</ele><time>2026-04-24T14:41:01.23Z</time></trkpt><trkpt lat="44.5643132" lon="10.1512324"><ele>876.6</ele><time>2026-04-24T14:41:02.229Z</time></trkpt><trkpt lat="44.5642784" lon="10.151144"><ele>879.2</ele><time>2026-04-24T14:41:03.23Z</time></trkpt><trkpt lat="44.5642584" lon="10.1510407"><ele>881.8000000000001</ele><time>2026-04-24T14:41:05.229Z</time></trkpt><trkpt lat="44.5643191" lon="10.1508926"><ele>884.4000000000001</ele><time>2026-04-24T14:41:18.23Z</time></trkpt><trkpt lat="44.5643504" lon="10.1508106"><ele>887.0</ele><time>2026-04-24T14:41:19.229Z</time></trkpt><trkpt lat="44.5643988" lon="10.150599"><ele>888.7142857142857</ele><time>2026-04-24T14:41:21.23Z</time></trkpt><trkpt lat="44.5644242" lon="10.1504949"><ele>890.4285714285713</ele><time>2026-04-24T14:41:22.229Z</time></trkpt><trkpt lat="44.564442" lon="10.1503849"><ele>892.1428571428571</ele><time>2026-04-24T14:41:23.231Z</time></trkpt><trkpt lat="44.5644518" lon="10.1502955"><ele>893.8571428571428</ele><time>2026-04-24T14:41:24.229Z</time></trkpt><trkpt lat="44.5644658" lon="10.1502014"><ele>895.5714285714286</ele><time>2026-04-24T14:41:25.23Z</time></trkpt><trkpt lat="44.5644927" lon="10.1501046"><ele>897.2857142857141</ele><time>2026-04-24T14:41:26.229Z</time></trkpt><trkpt lat="44.5644254" lon="10.1500501"><ele>898.9999999999999</ele><time>2026-04-24T14:41:28.23Z</time></trkpt><trkpt lat="44.5643502" lon="10.1499779"><ele>899.0</ele><time>2026-04-24T14:41:30.231Z</time></trkpt><trkpt lat="44.5642568" lon="10.1499447"><ele>899.0000000000001</ele><time>2026-04-24T14:41:32.23Z</time></trkpt><trkpt lat="44.5641807" lon="10.1498888"><ele>899.0000000000001</ele><time>2026-04-24T14:41:34.23Z</time></trkpt><trkpt lat="44.5641213" lon="10.149834"><ele>899.0</ele><time>2026-04-24T14:41:35.229Z</time></trkpt><trkpt lat="44.5640448" lon="10.1497853"><ele>899.0</ele><time>2026-04-24T14:41:36.229Z</time></trkpt><trkpt lat="44.5639239" lon="10.1497018"><ele>901.4000000000001</ele><time>2026-04-24T14:41:37.229Z</time></trkpt><trkpt lat="44.5638297" lon="10.1496399"><ele>903.8000000000001</ele><time>2026-04-24T14:41:38.23Z</time></trkpt><trkpt lat="44.5637366" lon="10.1496016"><ele>906.1999999999999</ele><time>2026-04-24T14:41:39.229Z</time></trkpt><trkpt lat="44.5636542" lon="10.1496004"><ele>908.5999999999999</ele><time>2026-04-24T14:41:40.23Z</time></trkpt><trkpt lat="44.5635585" lon="10.1496196"><ele>911.0</ele><time>2026-04-24T14:41:41.23Z</time></trkpt><trkpt lat="44.5634656" lon="10.1496292"><ele>911.3333333333334</ele><time>2026-04-24T14:41:42.229Z</time></trkpt><trkpt lat="44.5633908" lon="10.1496319"><ele>911.6666666666667</ele><time>2026-04-24T14:41:43.229Z</time></trkpt><trkpt lat="44.5633167" lon="10.1496424"><ele>912.0</ele><time>2026-04-24T14:41:44.229Z</time></trkpt><trkpt lat="44.5632458" lon="10.1496146"><ele>912.3333333333333</ele><time>2026-04-24T14:41:45.229Z</time></trkpt><trkpt lat="44.563148" lon="10.1495661"><ele>912.6666666666666</ele><time>2026-04-24T14:41:46.23Z</time></trkpt><trkpt lat="44.5630475" lon="10.1495105"><ele>913.0</ele><time>2026-04-24T14:41:47.231Z</time></trkpt><trkpt lat="44.5629534" lon="10.1494518"><ele>913.0</ele><time>2026-04-24T14:41:48.23Z</time></trkpt><trkpt lat="44.5628854" lon="10.1493854"><ele>913.0</ele><time>2026-04-24T14:41:49.229Z</time></trkpt><trkpt lat="44.5628198" lon="10.1492899"><ele>913.0</ele><time>2026-04-24T14:41:50.23Z</time></trkpt><trkpt lat="44.5627648" lon="10.149155"><ele>913.0</ele><time>2026-04-24T14:41:51.231Z</time></trkpt><trkpt lat="44.5627378" lon="10.149023"><ele>913.0</ele><time>2026-04-24T14:41:52.23Z</time></trkpt><trkpt lat="44.5627342" lon="10.1488538"><ele>912.5</ele><time>2026-04-24T14:41:53.23Z</time></trkpt><trkpt lat="44.5627267" lon="10.148674"><ele>912.0</ele><time>2026-04-24T14:41:54.23Z</time></trkpt><trkpt lat="44.5627141" lon="10.1485037"><ele>911.5</ele><time>2026-04-24T14:41:55.23Z</time></trkpt><trkpt lat="44.5627066" lon="10.1483375"><ele>911.0</ele><time>2026-04-24T14:41:56.23Z</time></trkpt><trkpt lat="44.5627041" lon="10.1481364"><ele>911.0</ele><time>2026-04-24T14:41:57.23Z</time></trkpt><trkpt lat="44.5626966" lon="10.1479618"><ele>911.0</ele><time>2026-04-24T14:41:58.231Z</time></trkpt><trkpt lat="44.5626798" lon="10.1477951"><ele>911.0</ele><time>2026-04-24T14:41:59.23Z</time></trkpt><trkpt lat="44.5626273" lon="10.1476469"><ele>911.0</ele><time>2026-04-24T14:42:00.23Z</time></trkpt><trkpt lat="44.5626012" lon="10.1475087"><ele>910.1999999999999</ele><time>2026-04-24T14:42:01.23Z</time></trkpt><trkpt lat="44.5625908" lon="10.1473696"><ele>909.3999999999999</ele><time>2026-04-24T14:42:02.231Z</time></trkpt><trkpt lat="44.5626058" lon="10.1472454"><ele>908.6</ele><time>2026-04-24T14:42:03.231Z</time></trkpt><trkpt lat="44.5626481" lon="10.147124"><ele>907.8</ele><time>2026-04-24T14:42:04.231Z</time></trkpt><trkpt lat="44.5626995" lon="10.1469908"><ele>907.0</ele><time>2026-04-24T14:42:05.23Z</time></trkpt><trkpt lat="44.5627422" lon="10.1468435"><ele>907.0</ele><time>2026-04-24T14:42:06.231Z</time></trkpt><trkpt lat="44.5627781" lon="10.1466774"><ele>907.0</ele><time>2026-04-24T14:42:07.23Z</time></trkpt><trkpt lat="44.5627898" lon="10.1464925"><ele>907.0</ele><time>2026-04-24T14:42:08.229Z</time></trkpt><trkpt lat="44.5627981" lon="10.1462865"><ele>907.0</ele><time>2026-04-24T14:42:09.23Z</time></trkpt><trkpt lat="44.5628153" lon="10.1460461"><ele>907.3333333333333</ele><time>2026-04-24T14:42:10.229Z</time></trkpt><trkpt lat="44.5628329" lon="10.145814"><ele>907.6666666666667</ele><time>2026-04-24T14:42:11.229Z</time></trkpt><trkpt lat="44.5628447" lon="10.1455824"><ele>908.0</ele><time>2026-04-24T14:42:12.229Z</time></trkpt><trkpt lat="44.5628487" lon="10.1453883"><ele>909.4</ele><time>2026-04-24T14:42:13.229Z</time></trkpt><trkpt lat="44.562838" lon="10.1452388"><ele>910.8</ele><time>2026-04-24T14:42:14.23Z</time></trkpt><trkpt lat="44.5628096" lon="10.1451165"><ele>912.2</ele><time>2026-04-24T14:42:15.23Z</time></trkpt><trkpt lat="44.5627823" lon="10.1450059"><ele>913.6</ele><time>2026-04-24T14:42:16.229Z</time></trkpt><trkpt lat="44.5627431" lon="10.1448902"><ele>915.0</ele><time>2026-04-24T14:42:17.231Z</time></trkpt><trkpt lat="44.5626821" lon="10.1447876"><ele>915.0</ele><time>2026-04-24T14:42:18.231Z</time></trkpt><trkpt lat="44.5626024" lon="10.1446879"><ele>915.0</ele><time>2026-04-24T14:42:19.231Z</time></trkpt><trkpt lat="44.5625144" lon="10.144596"><ele>915.0</ele><time>2026-04-24T14:42:20.23Z</time></trkpt><trkpt lat="44.5624285" lon="10.1445034"><ele>915.0</ele><time>2026-04-24T14:42:21.231Z</time></trkpt><trkpt lat="44.56235" lon="10.1444207"><ele>915.0</ele><time>2026-04-24T14:42:22.229Z</time></trkpt><trkpt lat="44.5622793" lon="10.1443464"><ele>915.0</ele><time>2026-04-24T14:42:23.23Z</time></trkpt><trkpt lat="44.5622131" lon="10.1442708"><ele>915.0</ele><time>2026-04-24T14:42:24.23Z</time></trkpt><trkpt lat="44.5621481" lon="10.1442018"><ele>915.0</ele><time>2026-04-24T14:42:25.23Z</time></trkpt><trkpt lat="44.5620908" lon="10.144127"><ele>915.0</ele><time>2026-04-24T14:42:26.229Z</time></trkpt><trkpt lat="44.5620183" lon="10.1440253"><ele>915.0</ele><time>2026-04-24T14:42:28.23Z</time></trkpt><trkpt lat="44.5619524" lon="10.143938"><ele>915.0</ele><time>2026-04-24T14:42:30.23Z</time></trkpt><trkpt lat="44.5618831" lon="10.1437863"><ele>913.5</ele><time>2026-04-24T14:42:32.23Z</time></trkpt><trkpt lat="44.5618546" lon="10.1436271"><ele>912.0</ele><time>2026-04-24T14:42:34.231Z</time></trkpt><trkpt lat="44.5618593" lon="10.143533"><ele>910.5</ele><time>2026-04-24T14:42:35.23Z</time></trkpt><trkpt lat="44.5618716" lon="10.143428"><ele>909.0</ele><time>2026-04-24T14:42:36.23Z</time></trkpt><trkpt lat="44.5618762" lon="10.1433335"><ele>907.5</ele><time>2026-04-24T14:42:37.231Z</time></trkpt><trkpt lat="44.5618632" lon="10.1432404"><ele>906.0</ele><time>2026-04-24T14:42:38.23Z</time></trkpt><trkpt lat="44.5618275" lon="10.1430981"><ele>906.0</ele><time>2026-04-24T14:42:40.23Z</time></trkpt><trkpt lat="44.5617636" lon="10.1429769"><ele>905.9999999999999</ele><time>2026-04-24T14:42:42.23Z</time></trkpt><trkpt lat="44.5617204" lon="10.1428811"><ele>905.9999999999999</ele><time>2026-04-24T14:42:43.23Z</time></trkpt><trkpt lat="44.5616694" lon="10.1427683"><ele>906.0</ele><time>2026-04-24T14:42:44.23Z</time></trkpt><trkpt lat="44.5615746" lon="10.1426499"><ele>906.0</ele><time>2026-04-24T14:42:45.23Z</time></trkpt><trkpt lat="44.5614849" lon="10.1424979"><ele>904.75</ele><time>2026-04-24T14:42:46.23Z</time></trkpt><trkpt lat="44.5613999" lon="10.1423564"><ele>903.5</ele><time>2026-04-24T14:42:47.229Z</time></trkpt><trkpt lat="44.56132" lon="10.1422127"><ele>902.25</ele><time>2026-04-24T14:42:48.231Z</time></trkpt><trkpt lat="44.5612398" lon="10.1420534"><ele>901.0</ele><time>2026-04-24T14:42:49.23Z</time></trkpt><trkpt lat="44.561175" lon="10.1418537"><ele>901.0</ele><time>2026-04-24T14:42:50.23Z</time></trkpt><trkpt lat="44.5611053" lon="10.1416802"><ele>901.0</ele><time>2026-04-24T14:42:51.23Z</time></trkpt><trkpt lat="44.5610386" lon="10.1415237"><ele>901.0</ele><time>2026-04-24T14:42:52.231Z</time></trkpt><trkpt lat="44.5609826" lon="10.1413505"><ele>901.0</ele><time>2026-04-24T14:42:53.231Z</time></trkpt><trkpt lat="44.5609268" lon="10.141157"><ele>901.5</ele><time>2026-04-24T14:42:54.231Z</time></trkpt><trkpt lat="44.5608673" lon="10.1409479"><ele>902.0</ele><time>2026-04-24T14:42:55.231Z</time></trkpt><trkpt lat="44.5608168" lon="10.1407745"><ele>902.5</ele><time>2026-04-24T14:42:56.231Z</time></trkpt><trkpt lat="44.5607822" lon="10.1406492"><ele>903.0</ele><time>2026-04-24T14:42:57.231Z</time></trkpt><trkpt lat="44.5607586" lon="10.140551"><ele>904.4</ele><time>2026-04-24T14:42:58.23Z</time></trkpt><trkpt lat="44.5607374" lon="10.1404421"><ele>905.8</ele><time>2026-04-24T14:42:59.231Z</time></trkpt><trkpt lat="44.5608012" lon="10.140305"><ele>907.2</ele><time>2026-04-24T14:43:01.231Z</time></trkpt><trkpt lat="44.5608374" lon="10.1402043"><ele>908.6</ele><time>2026-04-24T14:43:02.23Z</time></trkpt><trkpt lat="44.5608629" lon="10.1400817"><ele>910.0</ele><time>2026-04-24T14:43:03.23Z</time></trkpt><trkpt lat="44.5608904" lon="10.1399667"><ele>909.6666666666666</ele><time>2026-04-24T14:43:04.229Z</time></trkpt><trkpt lat="44.5609286" lon="10.1398559"><ele>909.3333333333333</ele><time>2026-04-24T14:43:05.229Z</time></trkpt><trkpt lat="44.5609533" lon="10.139759"><ele>909.0</ele><time>2026-04-24T14:43:06.229Z</time></trkpt><trkpt lat="44.5609365" lon="10.1396566"><ele>908.6666666666667</ele><time>2026-04-24T14:43:08.23Z</time></trkpt><trkpt lat="44.560875" lon="10.1396214"><ele>908.3333333333334</ele><time>2026-04-24T14:43:10.231Z</time></trkpt><trkpt lat="44.5608098" lon="10.1396141"><ele>908.0</ele><time>2026-04-24T14:43:12.23Z</time></trkpt><trkpt lat="44.560721" lon="10.1395989"><ele>908.0</ele><time>2026-04-24T14:43:15.231Z</time></trkpt><trkpt lat="44.560633" lon="10.1395593"><ele>908.0</ele><time>2026-04-24T14:43:18.23Z</time></trkpt><trkpt lat="44.560569" lon="10.1395225"><ele>908.0</ele><time>2026-04-24T14:43:21.231Z</time></trkpt><trkpt lat="44.5604865" lon="10.1394591"><ele>908.0</ele><time>2026-04-24T14:43:24.23Z</time></trkpt><trkpt lat="44.5603825" lon="10.1393574"><ele>908.0</ele><time>2026-04-24T14:43:26.229Z</time></trkpt><trkpt lat="44.5603284" lon="10.1392916"><ele>908.0</ele><time>2026-04-24T14:43:27.23Z</time></trkpt><trkpt lat="44.5602685" lon="10.1392146"><ele>908.0</ele><time>2026-04-24T14:43:28.23Z</time></trkpt><trkpt lat="44.5602044" lon="10.1391237"><ele>908.0</ele><time>2026-04-24T14:43:29.231Z</time></trkpt><trkpt lat="44.5601347" lon="10.139023"><ele>908.0</ele><time>2026-04-24T14:43:30.23Z</time></trkpt><trkpt lat="44.5600626" lon="10.1389103"><ele>908.0</ele><time>2026-04-24T14:43:31.23Z</time></trkpt><trkpt lat="44.5599842" lon="10.1387945"><ele>907.5</ele><time>2026-04-24T14:43:32.229Z</time></trkpt><trkpt lat="44.5598998" lon="10.1386748"><ele>907.0</ele><time>2026-04-24T14:43:33.23Z</time></trkpt><trkpt lat="44.5598087" lon="10.138549"><ele>906.5</ele><time>2026-04-24T14:43:34.23Z</time></trkpt><trkpt lat="44.5597149" lon="10.1384143"><ele>906.0</ele><time>2026-04-24T14:43:35.23Z</time></trkpt><trkpt lat="44.5596162" lon="10.1382745"><ele>906.75</ele><time>2026-04-24T14:43:36.229Z</time></trkpt><trkpt lat="44.5595137" lon="10.1381269"><ele>907.5</ele><time>2026-04-24T14:43:37.229Z</time></trkpt><trkpt lat="44.5594146" lon="10.1379741"><ele>908.25</ele><time>2026-04-24T14:43:38.229Z</time></trkpt><trkpt lat="44.5593229" lon="10.1378317"><ele>909.0</ele><time>2026-04-24T14:43:39.23Z</time></trkpt><trkpt lat="44.5592377" lon="10.1376989"><ele>909.0</ele><time>2026-04-24T14:43:40.229Z</time></trkpt><trkpt lat="44.5591646" lon="10.1375818"><ele>909.0000000000001</ele><time>2026-04-24T14:43:41.23Z</time></trkpt><trkpt lat="44.5591008" lon="10.1374872"><ele>909.0000000000001</ele><time>2026-04-24T14:43:42.23Z</time></trkpt><trkpt lat="44.5590302" lon="10.1374005"><ele>909.0</ele><time>2026-04-24T14:43:43.229Z</time></trkpt><trkpt lat="44.5589412" lon="10.1373061"><ele>909.0</ele><time>2026-04-24T14:43:44.23Z</time></trkpt><trkpt lat="44.5588463" lon="10.1372118"><ele>909.4000000000001</ele><time>2026-04-24T14:43:45.23Z</time></trkpt><trkpt lat="44.5587513" lon="10.1371268"><ele>909.8000000000001</ele><time>2026-04-24T14:43:46.231Z</time></trkpt><trkpt lat="44.5586635" lon="10.1370516"><ele>910.1999999999999</ele><time>2026-04-24T14:43:47.231Z</time></trkpt><trkpt lat="44.5585855" lon="10.1369822"><ele>910.5999999999999</ele><time>2026-04-24T14:43:48.23Z</time></trkpt><trkpt lat="44.5585231" lon="10.1369028"><ele>911.0</ele><time>2026-04-24T14:43:49.23Z</time></trkpt><trkpt lat="44.5584722" lon="10.1367943"><ele>911.0000000000001</ele><time>2026-04-24T14:43:50.23Z</time></trkpt><trkpt lat="44.5584287" lon="10.1366951"><ele>911.0</ele><time>2026-04-24T14:43:51.229Z</time></trkpt><trkpt lat="44.5583819" lon="10.1365997"><ele>911.0</ele><time>2026-04-24T14:43:52.229Z</time></trkpt><trkpt lat="44.5583194" lon="10.1365117"><ele>911.0</ele><time>2026-04-24T14:43:53.229Z</time></trkpt><trkpt lat="44.5582543" lon="10.1364176"><ele>911.0000000000001</ele><time>2026-04-24T14:43:54.23Z</time></trkpt><trkpt lat="44.558201" lon="10.1363297"><ele>911.0</ele><time>2026-04-24T14:43:55.229Z</time></trkpt><trkpt lat="44.55815" lon="10.1362411"><ele>912.5999999999999</ele><time>2026-04-24T14:43:56.229Z</time></trkpt><trkpt lat="44.5581017" lon="10.1361426"><ele>914.1999999999999</ele><time>2026-04-24T14:43:57.229Z</time></trkpt><trkpt lat="44.5581324" lon="10.1359772"><ele>915.8000000000001</ele><time>2026-04-24T14:43:58.231Z</time></trkpt><trkpt lat="44.5581442" lon="10.1358136"><ele>917.4000000000001</ele><time>2026-04-24T14:43:59.23Z</time></trkpt><trkpt lat="44.5581916" lon="10.1356619"><ele>919.0</ele><time>2026-04-24T14:44:00.23Z</time></trkpt><trkpt lat="44.5581685" lon="10.1355535"><ele>919.4999999999999</ele><time>2026-04-24T14:44:01.229Z</time></trkpt><trkpt lat="44.558117" lon="10.1354071"><ele>920.0</ele><time>2026-04-24T14:44:02.229Z</time></trkpt><trkpt lat="44.5581038" lon="10.1352785"><ele>920.5</ele><time>2026-04-24T14:44:03.229Z</time></trkpt><trkpt lat="44.5581087" lon="10.1351405"><ele>921.0</ele><time>2026-04-24T14:44:04.23Z</time></trkpt><trkpt lat="44.5580999" lon="10.1350412"><ele>921.4999999999999</ele><time>2026-04-24T14:44:05.229Z</time></trkpt><trkpt lat="44.558085" lon="10.1349454"><ele>922.0</ele><time>2026-04-24T14:44:06.229Z</time></trkpt><trkpt lat="44.5580569" lon="10.134865"><ele>923.6</ele><time>2026-04-24T14:44:07.23Z</time></trkpt><trkpt lat="44.558026" lon="10.1347742"><ele>925.2</ele><time>2026-04-24T14:44:08.23Z</time></trkpt><trkpt lat="44.5579202" lon="10.1346554"><ele>926.8</ele><time>2026-04-24T14:44:10.229Z</time></trkpt><trkpt lat="44.5578046" lon="10.1346235"><ele>928.4</ele><time>2026-04-24T14:44:11.229Z</time></trkpt><trkpt lat="44.5577129" lon="10.1345465"><ele>930.0</ele><time>2026-04-24T14:44:12.23Z</time></trkpt><trkpt lat="44.5576234" lon="10.1344685"><ele>930.0</ele><time>2026-04-24T14:44:13.229Z</time></trkpt><trkpt lat="44.5575583" lon="10.1343606"><ele>930.0</ele><time>2026-04-24T14:44:14.23Z</time></trkpt><trkpt lat="44.5574775" lon="10.1342698"><ele>930.0</ele><time>2026-04-24T14:44:15.23Z</time></trkpt><trkpt lat="44.5574143" lon="10.1341197"><ele>930.0</ele><time>2026-04-24T14:44:16.231Z</time></trkpt><trkpt lat="44.5573615" lon="10.1340237"><ele>930.0</ele><time>2026-04-24T14:44:17.229Z</time></trkpt><trkpt lat="44.5572904" lon="10.133938"><ele>931.0</ele><time>2026-04-24T14:44:18.229Z</time></trkpt><trkpt lat="44.5572146" lon="10.1338397"><ele>932.0</ele><time>2026-04-24T14:44:19.229Z</time></trkpt><trkpt lat="44.5570921" lon="10.1337626"><ele>933.0</ele><time>2026-04-24T14:44:20.231Z</time></trkpt><trkpt lat="44.556992" lon="10.1336652"><ele>934.0</ele><time>2026-04-24T14:44:21.231Z</time></trkpt><trkpt lat="44.5569007" lon="10.1335858"><ele>933.9999999999999</ele><time>2026-04-24T14:44:22.231Z</time></trkpt><trkpt lat="44.5568197" lon="10.1335026"><ele>934.0</ele><time>2026-04-24T14:44:23.231Z</time></trkpt><trkpt lat="44.556734" lon="10.1334141"><ele>934.0</ele><time>2026-04-24T14:44:24.23Z</time></trkpt><trkpt lat="44.5566652" lon="10.1333143"><ele>934.0</ele><time>2026-04-24T14:44:25.23Z</time></trkpt><trkpt lat="44.5566321" lon="10.1332267"><ele>933.9999999999999</ele><time>2026-04-24T14:44:26.229Z</time></trkpt><trkpt lat="44.5566298" lon="10.1331259"><ele>934.0</ele><time>2026-04-24T14:44:27.23Z</time></trkpt><trkpt lat="44.5566369" lon="10.1330099"><ele>934.8000000000001</ele><time>2026-04-24T14:44:28.229Z</time></trkpt><trkpt lat="44.5566492" lon="10.1328983"><ele>935.6000000000001</ele><time>2026-04-24T14:44:29.229Z</time></trkpt><trkpt lat="44.556641" lon="10.1327164"><ele>936.4</ele><time>2026-04-24T14:44:30.23Z</time></trkpt><trkpt lat="44.5566191" lon="10.1325638"><ele>937.2</ele><time>2026-04-24T14:44:31.23Z</time></trkpt><trkpt lat="44.5565877" lon="10.1324124"><ele>938.0</ele><time>2026-04-24T14:44:32.229Z</time></trkpt><trkpt lat="44.5565628" lon="10.1322389"><ele>938.0000000000001</ele><time>2026-04-24T14:44:33.229Z</time></trkpt><trkpt lat="44.5565383" lon="10.132087"><ele>938.0</ele><time>2026-04-24T14:44:34.23Z</time></trkpt><trkpt lat="44.5565109" lon="10.1319668"><ele>938.0</ele><time>2026-04-24T14:44:35.23Z</time></trkpt><trkpt lat="44.5564784" lon="10.1318605"><ele>938.0</ele><time>2026-04-24T14:44:36.229Z</time></trkpt><trkpt lat="44.5564442" lon="10.131764"><ele>938.0000000000001</ele><time>2026-04-24T14:44:37.23Z</time></trkpt><trkpt lat="44.5564009" lon="10.1316613"><ele>938.0</ele><time>2026-04-24T14:44:38.23Z</time></trkpt><trkpt lat="44.5563477" lon="10.1315504"><ele>938.3333333333334</ele><time>2026-04-24T14:44:39.23Z</time></trkpt><trkpt lat="44.5563035" lon="10.1314466"><ele>938.6666666666667</ele><time>2026-04-24T14:44:40.231Z</time></trkpt><trkpt lat="44.5562639" lon="10.1313635"><ele>939.0</ele><time>2026-04-24T14:44:41.231Z</time></trkpt><trkpt lat="44.5562127" lon="10.1312684"><ele>939.3333333333333</ele><time>2026-04-24T14:44:42.231Z</time></trkpt><trkpt lat="44.5561556" lon="10.1311649"><ele>939.6666666666666</ele><time>2026-04-24T14:44:43.231Z</time></trkpt><trkpt lat="44.5560995" lon="10.1310709"><ele>940.0</ele><time>2026-04-24T14:44:44.23Z</time></trkpt><trkpt lat="44.5560479" lon="10.1309827"><ele>940.0</ele><time>2026-04-24T14:44:45.23Z</time></trkpt><trkpt lat="44.5559994" lon="10.1308991"><ele>940.0</ele><time>2026-04-24T14:44:46.231Z</time></trkpt><trkpt lat="44.555962" lon="10.1307864"><ele>940.0</ele><time>2026-04-24T14:44:47.23Z</time></trkpt><trkpt lat="44.5559237" lon="10.1306559"><ele>940.0</ele><time>2026-04-24T14:44:48.231Z</time></trkpt><trkpt lat="44.5558868" lon="10.1305193"><ele>940.0</ele><time>2026-04-24T14:44:49.23Z</time></trkpt><trkpt lat="44.5558476" lon="10.1303626"><ele>940.0</ele><time>2026-04-24T14:44:50.23Z</time></trkpt><trkpt lat="44.555806" lon="10.1302177"><ele>940.0</ele><time>2026-04-24T14:44:51.229Z</time></trkpt><trkpt lat="44.5557746" lon="10.1300756"><ele>940.0</ele><time>2026-04-24T14:44:52.23Z</time></trkpt><trkpt lat="44.555757" lon="10.1299696"><ele>940.0</ele><time>2026-04-24T14:44:53.23Z</time></trkpt><trkpt lat="44.5557442" lon="10.1298677"><ele>940.0</ele><time>2026-04-24T14:44:54.23Z</time></trkpt><trkpt lat="44.5556588" lon="10.129843"><ele>939.9999999999999</ele><time>2026-04-24T14:44:56.23Z</time></trkpt><trkpt lat="44.5555951" lon="10.129828"><ele>940.0</ele><time>2026-04-24T14:44:57.231Z</time></trkpt><trkpt lat="44.5554914" lon="10.1298165"><ele>940.0</ele><time>2026-04-24T14:44:58.23Z</time></trkpt><trkpt lat="44.5554116" lon="10.1297635"><ele>940.0</ele><time>2026-04-24T14:44:59.229Z</time></trkpt><trkpt lat="44.5553359" lon="10.1297147"><ele>939.9999999999999</ele><time>2026-04-24T14:45:00.23Z</time></trkpt><trkpt lat="44.5552727" lon="10.1296168"><ele>940.0</ele><time>2026-04-24T14:45:01.229Z</time></trkpt><trkpt lat="44.5551998" lon="10.1295145"><ele>941.8</ele><time>2026-04-24T14:45:02.23Z</time></trkpt><trkpt lat="44.5551266" lon="10.129388"><ele>943.6</ele><time>2026-04-24T14:45:03.229Z</time></trkpt><trkpt lat="44.5550481" lon="10.1292592"><ele>945.4000000000001</ele><time>2026-04-24T14:45:04.231Z</time></trkpt><trkpt lat="44.5549772" lon="10.1291493"><ele>947.2</ele><time>2026-04-24T14:45:05.23Z</time></trkpt><trkpt lat="44.5549133" lon="10.1290424"><ele>949.0</ele><time>2026-04-24T14:45:06.229Z</time></trkpt><trkpt lat="44.5548622" lon="10.128962"><ele>949.8333333333333</ele><time>2026-04-24T14:45:07.229Z</time></trkpt><trkpt lat="44.5548192" lon="10.1288712"><ele>950.6666666666666</ele><time>2026-04-24T14:45:08.23Z</time></trkpt><trkpt lat="44.5547764" lon="10.1287563"><ele>951.5</ele><time>2026-04-24T14:45:09.229Z</time></trkpt><trkpt lat="44.5547336" lon="10.1286398"><ele>952.3333333333333</ele><time>2026-04-24T14:45:10.229Z</time></trkpt><trkpt lat="44.554675" lon="10.1285325"><ele>953.1666666666666</ele><time>2026-04-24T14:45:11.23Z</time></trkpt><trkpt lat="44.5546151" lon="10.12844"><ele>954.0</ele><time>2026-04-24T14:45:12.23Z</time></trkpt><trkpt lat="44.5545533" lon="10.1283428"><ele>954.6</ele><time>2026-04-24T14:45:13.229Z</time></trkpt><trkpt lat="44.5544956" lon="10.1282368"><ele>955.2</ele><time>2026-04-24T14:45:14.23Z</time></trkpt><trkpt lat="44.5544419" lon="10.12813"><ele>955.8000000000001</ele><time>2026-04-24T14:45:15.228Z</time></trkpt><trkpt lat="44.5543911" lon="10.1280123"><ele>956.4000000000001</ele><time>2026-04-24T14:45:16.228Z</time></trkpt><trkpt lat="44.5543374" lon="10.1278828"><ele>957.0</ele><time>2026-04-24T14:45:17.229Z</time></trkpt><trkpt lat="44.5542829" lon="10.1277502"><ele>959.6</ele><time>2026-04-24T14:45:18.228Z</time></trkpt><trkpt lat="44.5542357" lon="10.1276099"><ele>962.2</ele><time>2026-04-24T14:45:19.23Z</time></trkpt><trkpt lat="44.5541955" lon="10.1274887"><ele>964.8</ele><time>2026-04-24T14:45:20.229Z</time></trkpt><trkpt lat="44.5541464" lon="10.1273734"><ele>967.4</ele><time>2026-04-24T14:45:21.228Z</time></trkpt><trkpt lat="44.5540937" lon="10.1272584"><ele>970.0</ele><time>2026-04-24T14:45:22.23Z</time></trkpt><trkpt lat="44.5540542" lon="10.1271488"><ele>971.1666666666666</ele><time>2026-04-24T14:45:23.229Z</time></trkpt><trkpt lat="44.5540027" lon="10.1270523"><ele>972.3333333333333</ele><time>2026-04-24T14:45:24.229Z</time></trkpt><trkpt lat="44.5539499" lon="10.1269741"><ele>973.5</ele><time>2026-04-24T14:45:25.228Z</time></trkpt><trkpt lat="44.5538953" lon="10.1268814"><ele>974.6666666666667</ele><time>2026-04-24T14:45:26.229Z</time></trkpt><trkpt lat="44.553844" lon="10.126807"><ele>975.8333333333334</ele><time>2026-04-24T14:45:27.229Z</time></trkpt><trkpt lat="44.5537905" lon="10.1267196"><ele>977.0</ele><time>2026-04-24T14:45:29.229Z</time></trkpt><trkpt lat="44.5536908" lon="10.1266335"><ele>978.6</ele><time>2026-04-24T14:45:35.228Z</time></trkpt><trkpt lat="44.5536094" lon="10.1265763"><ele>980.2</ele><time>2026-04-24T14:45:36.229Z</time></trkpt><trkpt lat="44.5535322" lon="10.1265205"><ele>981.8</ele><time>2026-04-24T14:45:37.23Z</time></trkpt><trkpt lat="44.5534674" lon="10.1264502"><ele>983.4</ele><time>2026-04-24T14:45:38.228Z</time></trkpt><trkpt lat="44.5533976" lon="10.1263678"><ele>985.0</ele><time>2026-04-24T14:45:39.228Z</time></trkpt><trkpt lat="44.5533193" lon="10.1262716"><ele>986.0</ele><time>2026-04-24T14:45:40.228Z</time></trkpt><trkpt lat="44.5532295" lon="10.1261487"><ele>987.0</ele><time>2026-04-24T14:45:41.228Z</time></trkpt><trkpt lat="44.5531494" lon="10.1260056"><ele>988.0</ele><time>2026-04-24T14:45:42.228Z</time></trkpt><trkpt lat="44.5530638" lon="10.1258305"><ele>989.0</ele><time>2026-04-24T14:45:43.229Z</time></trkpt><trkpt lat="44.5529885" lon="10.1256617"><ele>990.0</ele><time>2026-04-24T14:45:44.229Z</time></trkpt><trkpt lat="44.5529277" lon="10.1255163"><ele>991.0</ele><time>2026-04-24T14:45:45.23Z</time></trkpt><trkpt lat="44.5528575" lon="10.1253892"><ele>992.0</ele><time>2026-04-24T14:45:46.228Z</time></trkpt><trkpt lat="44.5528028" lon="10.1252762"><ele>993.0</ele><time>2026-04-24T14:45:47.228Z</time></trkpt><trkpt lat="44.5527661" lon="10.1251137"><ele>994.5999999999999</ele><time>2026-04-24T14:45:48.229Z</time></trkpt><trkpt lat="44.5527241" lon="10.1249364"><ele>996.1999999999999</ele><time>2026-04-24T14:45:49.228Z</time></trkpt><trkpt lat="44.5526737" lon="10.1247682"><ele>997.8</ele><time>2026-04-24T14:45:50.229Z</time></trkpt><trkpt lat="44.5526417" lon="10.124636"><ele>999.4</ele><time>2026-04-24T14:45:51.228Z</time></trkpt><trkpt lat="44.5526248" lon="10.1245217"><ele>1001.0</ele><time>2026-04-24T14:45:52.23Z</time></trkpt><trkpt lat="44.5526296" lon="10.1244016"><ele>1003.5999999999999</ele><time>2026-04-24T14:45:53.229Z</time></trkpt><trkpt lat="44.5526589" lon="10.1242835"><ele>1006.1999999999999</ele><time>2026-04-24T14:45:54.229Z</time></trkpt><trkpt lat="44.5527056" lon="10.1241789"><ele>1008.8000000000001</ele><time>2026-04-24T14:45:55.228Z</time></trkpt><trkpt lat="44.5527533" lon="10.1240622"><ele>1011.4000000000001</ele><time>2026-04-24T14:45:56.229Z</time></trkpt><trkpt lat="44.5528135" lon="10.1239364"><ele>1014.0</ele><time>2026-04-24T14:45:57.228Z</time></trkpt><trkpt lat="44.5528606" lon="10.1238194"><ele>1016.5</ele><time>2026-04-24T14:45:58.23Z</time></trkpt><trkpt lat="44.5529264" lon="10.1237012"><ele>1019.0</ele><time>2026-04-24T14:45:59.229Z</time></trkpt><trkpt lat="44.5529857" lon="10.1235719"><ele>1021.5</ele><time>2026-04-24T14:46:00.229Z</time></trkpt><trkpt lat="44.5530171" lon="10.1234708"><ele>1024.0</ele><time>2026-04-24T14:46:01.23Z</time></trkpt><trkpt lat="44.553061" lon="10.123394"><ele>1026.5</ele><time>2026-04-24T14:46:02.23Z</time></trkpt><trkpt lat="44.5531052" lon="10.1233143"><ele>1029.0</ele><time>2026-04-24T14:46:03.229Z</time></trkpt><trkpt lat="44.5531641" lon="10.1232458"><ele>1033.4</ele><time>2026-04-24T14:46:04.229Z</time></trkpt><trkpt lat="44.553281" lon="10.1231871"><ele>1037.8000000000002</ele><time>2026-04-24T14:46:06.229Z</time></trkpt><trkpt lat="44.5533493" lon="10.1231142"><ele>1042.1999999999998</ele><time>2026-04-24T14:46:07.23Z</time></trkpt><trkpt lat="44.5534007" lon="10.1229844"><ele>1046.6</ele><time>2026-04-24T14:46:08.228Z</time></trkpt><trkpt lat="44.5534462" lon="10.1228966"><ele>1051.0</ele><time>2026-04-24T14:46:09.228Z</time></trkpt><trkpt lat="44.5534836" lon="10.1227859"><ele>1051.0</ele><time>2026-04-24T14:46:10.23Z</time></trkpt><trkpt lat="44.5534899" lon="10.1226976"><ele>1051.0</ele><time>2026-04-24T14:46:11.23Z</time></trkpt><trkpt lat="44.5534615" lon="10.1226137"><ele>1051.0</ele><time>2026-04-24T14:46:12.23Z</time></trkpt><trkpt lat="44.5533492" lon="10.1225361"><ele>1051.0</ele><time>2026-04-24T14:46:14.229Z</time></trkpt><trkpt lat="44.5532685" lon="10.1225981"><ele>1051.0</ele><time>2026-04-24T14:46:15.229Z</time></trkpt><trkpt lat="44.5531784" lon="10.1226325"><ele>1051.0</ele><time>2026-04-24T14:46:16.228Z</time></trkpt><trkpt lat="44.5531019" lon="10.1226526"><ele>1051.0</ele><time>2026-04-24T14:46:17.229Z</time></trkpt><trkpt lat="44.5530722" lon="10.1225373"><ele>1051.0</ele><time>2026-04-24T14:46:18.228Z</time></trkpt><trkpt lat="44.5529776" lon="10.1224433"><ele>1051.0</ele><time>2026-04-24T14:46:20.228Z</time></trkpt><trkpt lat="44.5529357" lon="10.1223426"><ele>1051.0</ele><time>2026-04-24T14:46:21.228Z</time></trkpt><trkpt lat="44.5528945" lon="10.1222716"><ele>1051.0</ele><time>2026-04-24T14:46:22.23Z</time></trkpt><trkpt lat="44.5528693" lon="10.1221349"><ele>1053.6666666666665</ele><time>2026-04-24T14:46:24.229Z</time></trkpt><trkpt lat="44.5527917" lon="10.1221108"><ele>1056.3333333333333</ele><time>2026-04-24T14:46:25.23Z</time></trkpt><trkpt lat="44.5526997" lon="10.1220676"><ele>1059.0</ele><time>2026-04-24T14:46:26.23Z</time></trkpt><trkpt lat="44.5526136" lon="10.1220305"><ele>1061.6666666666667</ele><time>2026-04-24T14:46:27.23Z</time></trkpt><trkpt lat="44.5525451" lon="10.1219884"><ele>1064.3333333333335</ele><time>2026-04-24T14:46:28.23Z</time></trkpt><trkpt lat="44.5525292" lon="10.1218834"><ele>1067.0</ele><time>2026-04-24T14:46:29.229Z</time></trkpt><trkpt lat="44.5525041" lon="10.1217822"><ele>1067.0</ele><time>2026-04-24T14:46:30.229Z</time></trkpt><trkpt lat="44.5524563" lon="10.1216993"><ele>1067.0</ele><time>2026-04-24T14:46:32.229Z</time></trkpt><trkpt lat="44.552409" lon="10.1216239"><ele>1067.0</ele><time>2026-04-24T14:46:34.228Z</time></trkpt><trkpt lat="44.5523429" lon="10.1215443"><ele>1067.0</ele><time>2026-04-24T14:46:37.229Z</time></trkpt><trkpt lat="44.5522958" lon="10.1214814"><ele>1067.0</ele><time>2026-04-24T14:46:39.23Z</time></trkpt><trkpt lat="44.5522499" lon="10.1213901"><ele>1067.0</ele><time>2026-04-24T14:46:47.228Z</time></trkpt><trkpt lat="44.5521442" lon="10.1212211"><ele>1067.6</ele><time>2026-04-24T14:46:48.23Z</time></trkpt><trkpt lat="44.5520879" lon="10.1211033"><ele>1068.2</ele><time>2026-04-24T14:46:49.23Z</time></trkpt><trkpt lat="44.5520466" lon="10.1210132"><ele>1068.8</ele><time>2026-04-24T14:46:50.229Z</time></trkpt><trkpt lat="44.5520576" lon="10.1209005"><ele>1069.4</ele><time>2026-04-24T14:46:51.228Z</time></trkpt><trkpt lat="44.5520559" lon="10.120789"><ele>1070.0</ele><time>2026-04-24T14:46:52.229Z</time></trkpt><trkpt lat="44.5520216" lon="10.1206004"><ele>1072.2</ele><time>2026-04-24T14:46:53.229Z</time></trkpt><trkpt lat="44.552004" lon="10.120458"><ele>1074.4</ele><time>2026-04-24T14:46:54.23Z</time></trkpt><trkpt lat="44.5519843" lon="10.1203153"><ele>1076.6</ele><time>2026-04-24T14:46:55.228Z</time></trkpt><trkpt lat="44.5519652" lon="10.1201784"><ele>1078.8</ele><time>2026-04-24T14:46:56.228Z</time></trkpt><trkpt lat="44.5519232" lon="10.1200505"><ele>1081.0</ele><time>2026-04-24T14:46:57.229Z</time></trkpt><trkpt lat="44.5518642" lon="10.119905"><ele>1081.1666666666665</ele><time>2026-04-24T14:46:58.229Z</time></trkpt><trkpt lat="44.5517851" lon="10.1198747"><ele>1081.3333333333333</ele><time>2026-04-24T14:46:59.229Z</time></trkpt><trkpt lat="44.5517341" lon="10.1197798"><ele>1081.5</ele><time>2026-04-24T14:47:01.229Z</time></trkpt><trkpt lat="44.5517218" lon="10.1195983"><ele>1081.6666666666667</ele><time>2026-04-24T14:47:03.228Z</time></trkpt><trkpt lat="44.5517182" lon="10.1194991"><ele>1081.8333333333335</ele><time>2026-04-24T14:47:04.229Z</time></trkpt><trkpt lat="44.5517228" lon="10.1194087"><ele>1082.0</ele><time>2026-04-24T14:47:05.23Z</time></trkpt><trkpt lat="44.551733" lon="10.1193212"><ele>1082.0</ele><time>2026-04-24T14:47:06.229Z</time></trkpt><trkpt lat="44.5517309" lon="10.1190979"><ele>1082.0</ele><time>2026-04-24T14:47:08.228Z</time></trkpt><trkpt lat="44.5517303" lon="10.118973"><ele>1082.0</ele><time>2026-04-24T14:47:09.23Z</time></trkpt><trkpt lat="44.551736" lon="10.1188613"><ele>1082.0</ele><time>2026-04-24T14:47:10.229Z</time></trkpt><trkpt lat="44.551736" lon="10.1187409"><ele>1082.0</ele><time>2026-04-24T14:47:11.228Z</time></trkpt><trkpt lat="44.5517544" lon="10.1186377"><ele>1081.6</ele><time>2026-04-24T14:47:12.229Z</time></trkpt><trkpt lat="44.5517275" lon="10.1184779"><ele>1081.2</ele><time>2026-04-24T14:47:13.23Z</time></trkpt><trkpt lat="44.5516966" lon="10.1183072"><ele>1080.8</ele><time>2026-04-24T14:47:14.23Z</time></trkpt><trkpt lat="44.5516608" lon="10.1181711"><ele>1080.4</ele><time>2026-04-24T14:47:15.23Z</time></trkpt><trkpt lat="44.5516614" lon="10.1180605"><ele>1080.0</ele><time>2026-04-24T14:47:16.229Z</time></trkpt><trkpt lat="44.5516838" lon="10.1179186"><ele>1080.0</ele><time>2026-04-24T14:47:17.23Z</time></trkpt><trkpt lat="44.5517156" lon="10.1177548"><ele>1080.0</ele><time>2026-04-24T14:47:18.229Z</time></trkpt><trkpt lat="44.5517273" lon="10.1176139"><ele>1080.0</ele><time>2026-04-24T14:47:19.229Z</time></trkpt><trkpt lat="44.551753" lon="10.1174683"><ele>1080.0</ele><time>2026-04-24T14:47:20.23Z</time></trkpt><trkpt lat="44.5518065" lon="10.1173324"><ele>1080.0</ele><time>2026-04-24T14:47:21.229Z</time></trkpt><trkpt lat="44.5518739" lon="10.1172011"><ele>1081.4</ele><time>2026-04-24T14:47:22.23Z</time></trkpt><trkpt lat="44.5519271" lon="10.1170883"><ele>1082.8</ele><time>2026-04-24T14:47:23.23Z</time></trkpt><trkpt lat="44.5519932" lon="10.1169785"><ele>1084.2</ele><time>2026-04-24T14:47:24.228Z</time></trkpt><trkpt lat="44.5520267" lon="10.1168125"><ele>1085.6</ele><time>2026-04-24T14:47:26.228Z</time></trkpt><trkpt lat="44.5520508" lon="10.1166708"><ele>1087.0</ele><time>2026-04-24T14:47:27.229Z</time></trkpt><trkpt lat="44.5520685" lon="10.1165513"><ele>1092.5</ele><time>2026-04-24T14:47:28.23Z</time></trkpt><trkpt lat="44.552086" lon="10.1164001"><ele>1098.0</ele><time>2026-04-24T14:47:29.23Z</time></trkpt><trkpt lat="44.5520532" lon="10.1162229"><ele>1103.5</ele><time>2026-04-24T14:47:30.228Z</time></trkpt><trkpt lat="44.5520661" lon="10.1160488"><ele>1109.0</ele><time>2026-04-24T14:47:31.229Z</time></trkpt><trkpt lat="44.5520722" lon="10.1158982"><ele>1109.0</ele><time>2026-04-24T14:47:32.229Z</time></trkpt><trkpt lat="44.5520802" lon="10.11575"><ele>1109.0</ele><time>2026-04-24T14:47:33.228Z</time></trkpt><trkpt lat="44.5520744" lon="10.1156268"><ele>1109.0</ele><time>2026-04-24T14:47:34.229Z</time></trkpt><trkpt lat="44.552017" lon="10.1155214"><ele>1109.0</ele><time>2026-04-24T14:47:35.23Z</time></trkpt><trkpt lat="44.5519833" lon="10.115409"><ele>1109.0</ele><time>2026-04-24T14:47:36.23Z</time></trkpt><trkpt lat="44.5519374" lon="10.1153219"><ele>1108.8333333333335</ele><time>2026-04-24T14:47:37.229Z</time></trkpt><trkpt lat="44.5518945" lon="10.1152202"><ele>1108.6666666666667</ele><time>2026-04-24T14:47:38.229Z</time></trkpt><trkpt lat="44.5518366" lon="10.1151629"><ele>1108.5</ele><time>2026-04-24T14:47:39.23Z</time></trkpt><trkpt lat="44.5518001" lon="10.1150631"><ele>1108.3333333333333</ele><time>2026-04-24T14:47:40.229Z</time></trkpt><trkpt lat="44.5517903" lon="10.1149715"><ele>1108.1666666666665</ele><time>2026-04-24T14:47:41.23Z</time></trkpt><trkpt lat="44.5518397" lon="10.1148297"><ele>1108.0</ele><time>2026-04-24T14:47:43.229Z</time></trkpt><trkpt lat="44.5518963" lon="10.1147758"><ele>1109.0</ele><time>2026-04-24T14:47:44.23Z</time></trkpt><trkpt lat="44.5520043" lon="10.1146883"><ele>1110.0</ele><time>2026-04-24T14:47:46.228Z</time></trkpt><trkpt lat="44.5520753" lon="10.1146823"><ele>1111.0</ele><time>2026-04-24T14:47:47.229Z</time></trkpt><trkpt lat="44.5521666" lon="10.1147497"><ele>1112.0</ele><time>2026-04-24T14:47:48.228Z</time></trkpt><trkpt lat="44.5522507" lon="10.1147872"><ele>1113.0</ele><time>2026-04-24T14:47:49.228Z</time></trkpt><trkpt lat="44.5523278" lon="10.1148184"><ele>1118.2</ele><time>2026-04-24T14:47:50.23Z</time></trkpt><trkpt lat="44.5524229" lon="10.114839"><ele>1123.4</ele><time>2026-04-24T14:47:52.23Z</time></trkpt><trkpt lat="44.5524528" lon="10.1146167"><ele>1128.6000000000001</ele><time>2026-04-24T14:48:06.229Z</time></trkpt><trkpt lat="44.5524418" lon="10.1145136"><ele>1133.8</ele><time>2026-04-24T14:48:07.229Z</time></trkpt><trkpt lat="44.5524219" lon="10.1143824"><ele>1139.0</ele><time>2026-04-24T14:48:08.228Z</time></trkpt><trkpt lat="44.5524193" lon="10.1142464"><ele>1139.0</ele><time>2026-04-24T14:48:09.23Z</time></trkpt><trkpt lat="44.5524231" lon="10.1140955"><ele>1139.0</ele><time>2026-04-24T14:48:10.23Z</time></trkpt><trkpt lat="44.5524364" lon="10.1139376"><ele>1139.0</ele><time>2026-04-24T14:48:11.229Z</time></trkpt><trkpt lat="44.552458" lon="10.1137913"><ele>1139.0</ele><time>2026-04-24T14:48:12.23Z</time></trkpt><trkpt lat="44.5524872" lon="10.1136625"><ele>1139.0</ele><time>2026-04-24T14:48:13.229Z</time></trkpt><trkpt lat="44.5525112" lon="10.1135399"><ele>1140.8</ele><time>2026-04-24T14:48:14.229Z</time></trkpt><trkpt lat="44.5525126" lon="10.1134433"><ele>1142.6000000000001</ele><time>2026-04-24T14:48:15.23Z</time></trkpt><trkpt lat="44.5524992" lon="10.1132948"><ele>1144.4</ele><time>2026-04-24T14:48:17.228Z</time></trkpt><trkpt lat="44.5524235" lon="10.113152"><ele>1146.2</ele><time>2026-04-24T14:48:18.228Z</time></trkpt><trkpt lat="44.5523706" lon="10.1129946"><ele>1148.0</ele><time>2026-04-24T14:48:19.229Z</time></trkpt><trkpt lat="44.5523416" lon="10.1128563"><ele>1151.0</ele><time>2026-04-24T14:48:20.229Z</time></trkpt><trkpt lat="44.5523225" lon="10.1127234"><ele>1154.0</ele><time>2026-04-24T14:48:21.229Z</time></trkpt><trkpt lat="44.552305" lon="10.1125981"><ele>1157.0</ele><time>2026-04-24T14:48:22.228Z</time></trkpt><trkpt lat="44.5522813" lon="10.112468"><ele>1160.0</ele><time>2026-04-24T14:48:23.228Z</time></trkpt><trkpt lat="44.5522236" lon="10.1123286"><ele>1163.0</ele><time>2026-04-24T14:48:24.229Z</time></trkpt><trkpt lat="44.5521838" lon="10.1122108"><ele>1164.6666666666667</ele><time>2026-04-24T14:48:25.228Z</time></trkpt><trkpt lat="44.5521186" lon="10.1120893"><ele>1166.3333333333335</ele><time>2026-04-24T14:48:26.23Z</time></trkpt><trkpt lat="44.5520429" lon="10.1120515"><ele>1168.0</ele><time>2026-04-24T14:48:27.229Z</time></trkpt><trkpt lat="44.5519959" lon="10.1119817"><ele>1169.6666666666667</ele><time>2026-04-24T14:48:28.229Z</time></trkpt><trkpt lat="44.5519688" lon="10.1118939"><ele>1171.3333333333333</ele><time>2026-04-24T14:48:29.229Z</time></trkpt><trkpt lat="44.5519408" lon="10.1118076"><ele>1173.0</ele><time>2026-04-24T14:48:30.229Z</time></trkpt><trkpt lat="44.5519306" lon="10.111689"><ele>1175.3333333333333</ele><time>2026-04-24T14:48:31.228Z</time></trkpt><trkpt lat="44.5519466" lon="10.1115726"><ele>1177.6666666666667</ele><time>2026-04-24T14:48:32.229Z</time></trkpt><trkpt lat="44.5519242" lon="10.1114794"><ele>1180.0</ele><time>2026-04-24T14:48:33.229Z</time></trkpt><trkpt lat="44.5518648" lon="10.1114179"><ele>1182.3333333333335</ele><time>2026-04-24T14:48:34.23Z</time></trkpt><trkpt lat="44.5517944" lon="10.1114107"><ele>1184.6666666666667</ele><time>2026-04-24T14:48:35.228Z</time></trkpt><trkpt lat="44.5517245" lon="10.1112986"><ele>1187.0</ele><time>2026-04-24T14:48:37.229Z</time></trkpt><trkpt lat="44.5516764" lon="10.1111898"><ele>1187.0</ele><time>2026-04-24T14:48:38.229Z</time></trkpt><trkpt lat="44.5516309" lon="10.111088"><ele>1187.0</ele><time>2026-04-24T14:48:39.229Z</time></trkpt><trkpt lat="44.5516122" lon="10.1109501"><ele>1187.0</ele><time>2026-04-24T14:48:41.23Z</time></trkpt><trkpt lat="44.5516895" lon="10.1108159"><ele>1187.0</ele><time>2026-04-24T14:48:43.23Z</time></trkpt><trkpt lat="44.5517596" lon="10.1107474"><ele>1187.0</ele><time>2026-04-24T14:48:44.23Z</time></trkpt><trkpt lat="44.5518541" lon="10.1106722"><ele>1184.25</ele><time>2026-04-24T14:48:45.23Z</time></trkpt><trkpt lat="44.5519659" lon="10.1105778"><ele>1181.5</ele><time>2026-04-24T14:48:46.229Z</time></trkpt><trkpt lat="44.5520836" lon="10.110471"><ele>1178.75</ele><time>2026-04-24T14:48:47.229Z</time></trkpt><trkpt lat="44.5521875" lon="10.1103653"><ele>1176.0</ele><time>2026-04-24T14:48:48.229Z</time></trkpt><trkpt lat="44.5522696" lon="10.1102769"><ele>1180.3999999999999</ele><time>2026-04-24T14:48:49.228Z</time></trkpt><trkpt lat="44.5523593" lon="10.1102152"><ele>1184.8</ele><time>2026-04-24T14:48:50.229Z</time></trkpt><trkpt lat="44.5524613" lon="10.1101646"><ele>1189.1999999999998</ele><time>2026-04-24T14:48:51.229Z</time></trkpt><trkpt lat="44.5525536" lon="10.1101296"><ele>1193.6</ele><time>2026-04-24T14:48:52.229Z</time></trkpt><trkpt lat="44.5526227" lon="10.1101022"><ele>1198.0</ele><time>2026-04-24T14:48:53.228Z</time></trkpt><trkpt lat="44.552698" lon="10.1100856"><ele>1198.0</ele><time>2026-04-24T14:48:54.229Z</time></trkpt><trkpt lat="44.5527713" lon="10.1100821"><ele>1198.0</ele><time>2026-04-24T14:48:56.229Z</time></trkpt><trkpt lat="44.5528356" lon="10.1101086"><ele>1198.0</ele><time>2026-04-24T14:49:03.23Z</time></trkpt><trkpt lat="44.5529171" lon="10.1101398"><ele>1198.0</ele><time>2026-04-24T14:49:04.23Z</time></trkpt><trkpt lat="44.5530151" lon="10.1101843"><ele>1198.0</ele><time>2026-04-24T14:49:05.23Z</time></trkpt><trkpt lat="44.5530878" lon="10.1102123"><ele>1198.0</ele><time>2026-04-24T14:49:06.229Z</time></trkpt><trkpt lat="44.5531632" lon="10.1102383"><ele>1200.6</ele><time>2026-04-24T14:49:07.228Z</time></trkpt><trkpt lat="44.5532305" lon="10.1102626"><ele>1203.1999999999998</ele><time>2026-04-24T14:49:08.228Z</time></trkpt><trkpt lat="44.5533547" lon="10.1102143"><ele>1205.8</ele><time>2026-04-24T14:49:10.229Z</time></trkpt><trkpt lat="44.5534252" lon="10.110162"><ele>1208.3999999999999</ele><time>2026-04-24T14:49:11.23Z</time></trkpt><trkpt lat="44.5535466" lon="10.1101401"><ele>1211.0</ele><time>2026-04-24T14:49:13.229Z</time></trkpt><trkpt lat="44.5536102" lon="10.1101176"><ele>1211.0</ele><time>2026-04-24T14:49:14.229Z</time></trkpt><trkpt lat="44.5536921" lon="10.1100561"><ele>1211.0</ele><time>2026-04-24T14:49:15.23Z</time></trkpt><trkpt lat="44.5537817" lon="10.1100081"><ele>1211.0</ele><time>2026-04-24T14:49:16.229Z</time></trkpt><trkpt lat="44.5538501" lon="10.1099268"><ele>1211.0</ele><time>2026-04-24T14:49:17.228Z</time></trkpt><trkpt lat="44.5539194" lon="10.1098447"><ele>1211.0</ele><time>2026-04-24T14:49:18.229Z</time></trkpt><trkpt lat="44.5539787" lon="10.1097539"><ele>1213.0</ele><time>2026-04-24T14:49:19.23Z</time></trkpt><trkpt lat="44.5540402" lon="10.1096726"><ele>1215.0</ele><time>2026-04-24T14:49:20.23Z</time></trkpt><trkpt lat="44.5541276" lon="10.1096096"><ele>1217.0</ele><time>2026-04-24T14:49:21.229Z</time></trkpt><trkpt lat="44.5542162" lon="10.1095443"><ele>1219.0</ele><time>2026-04-24T14:49:22.229Z</time></trkpt><trkpt lat="44.5542808" lon="10.1095278"><ele>1221.0</ele><time>2026-04-24T14:49:23.229Z</time></trkpt><trkpt lat="44.5543556" lon="10.1094981"><ele>1223.0</ele><time>2026-04-24T14:49:24.23Z</time></trkpt><trkpt lat="44.5544212" lon="10.1094564"><ele>1223.0</ele><time>2026-04-24T14:49:25.228Z</time></trkpt><trkpt lat="44.5544515" lon="10.1093608"><ele>1223.0</ele><time>2026-04-24T14:49:26.228Z</time></trkpt><trkpt lat="44.5544748" lon="10.1092224"><ele>1223.0</ele><time>2026-04-24T14:49:27.23Z</time></trkpt><trkpt lat="44.5545037" lon="10.1091145"><ele>1223.0</ele><time>2026-04-24T14:49:28.229Z</time></trkpt><trkpt lat="44.5545379" lon="10.109012"><ele>1223.0</ele><time>2026-04-24T14:49:29.229Z</time></trkpt><trkpt lat="44.5545674" lon="10.1088972"><ele>1223.0</ele><time>2026-04-24T14:49:30.228Z</time></trkpt><trkpt lat="44.554598" lon="10.1087586"><ele>1225.4</ele><time>2026-04-24T14:49:31.23Z</time></trkpt><trkpt lat="44.5546206" lon="10.1086233"><ele>1227.8</ele><time>2026-04-24T14:49:32.23Z</time></trkpt><trkpt lat="44.554639" lon="10.1084783"><ele>1230.2</ele><time>2026-04-24T14:49:33.23Z</time></trkpt><trkpt lat="44.5546638" lon="10.108355"><ele>1232.6</ele><time>2026-04-24T14:49:34.229Z</time></trkpt><trkpt lat="44.5546821" lon="10.1082376"><ele>1235.0</ele><time>2026-04-24T14:49:35.23Z</time></trkpt><trkpt lat="44.5547135" lon="10.1081243"><ele>1235.6</ele><time>2026-04-24T14:49:36.23Z</time></trkpt><trkpt lat="44.5547787" lon="10.1081282"><ele>1236.2</ele><time>2026-04-24T14:49:37.229Z</time></trkpt><trkpt lat="44.5548556" lon="10.1080229"><ele>1236.8</ele><time>2026-04-24T14:49:38.229Z</time></trkpt><trkpt lat="44.5549088" lon="10.1079468"><ele>1237.4</ele><time>2026-04-24T14:49:39.228Z</time></trkpt><trkpt lat="44.554975" lon="10.1078406"><ele>1238.0</ele><time>2026-04-24T14:49:40.23Z</time></trkpt><trkpt lat="44.5550544" lon="10.1077398"><ele>1238.0</ele><time>2026-04-24T14:49:41.229Z</time></trkpt><trkpt lat="44.5551059" lon="10.1076222"><ele>1238.0</ele><time>2026-04-24T14:49:42.228Z</time></trkpt><trkpt lat="44.5551563" lon="10.1074889"><ele>1238.0</ele><time>2026-04-24T14:49:43.229Z</time></trkpt><trkpt lat="44.5552015" lon="10.1073714"><ele>1238.0</ele><time>2026-04-24T14:49:45.23Z</time></trkpt><trkpt lat="44.5552087" lon="10.1072769"><ele>1238.0</ele><time>2026-04-24T14:49:48.228Z</time></trkpt><trkpt lat="44.5552542" lon="10.1071528"><ele>1238.2</ele><time>2026-04-24T14:49:50.229Z</time></trkpt><trkpt lat="44.5552753" lon="10.1070523"><ele>1238.4</ele><time>2026-04-24T14:49:51.229Z</time></trkpt><trkpt lat="44.5552948" lon="10.1069579"><ele>1238.6000000000001</ele><time>2026-04-24T14:49:52.228Z</time></trkpt><trkpt lat="44.5553152" lon="10.1068735"><ele>1238.8</ele><time>2026-04-24T14:49:53.23Z</time></trkpt><trkpt lat="44.5553912" lon="10.1066899"><ele>1239.0</ele><time>2026-04-24T14:49:55.228Z</time></trkpt><trkpt lat="44.5554442" lon="10.1065735"><ele>1239.6000000000001</ele><time>2026-04-24T14:49:56.228Z</time></trkpt><trkpt lat="44.5554674" lon="10.1064841"><ele>1240.2</ele><time>2026-04-24T14:49:57.23Z</time></trkpt><trkpt lat="44.555523" lon="10.1063828"><ele>1240.8000000000002</ele><time>2026-04-24T14:49:59.229Z</time></trkpt><trkpt lat="44.5555571" lon="10.1063074"><ele>1241.4</ele><time>2026-04-24T14:50:00.229Z</time></trkpt><trkpt lat="44.5556497" lon="10.1061562"><ele>1242.0</ele><time>2026-04-24T14:50:02.229Z</time></trkpt><trkpt lat="44.5557011" lon="10.1060391"><ele>1242.0</ele><time>2026-04-24T14:50:03.228Z</time></trkpt><trkpt lat="44.5557591" lon="10.1059652"><ele>1242.0</ele><time>2026-04-24T14:50:04.229Z</time></trkpt><trkpt lat="44.5558113" lon="10.1058667"><ele>1242.0</ele><time>2026-04-24T14:50:05.229Z</time></trkpt><trkpt lat="44.5558546" lon="10.1057613"><ele>1242.0</ele><time>2026-04-24T14:50:06.229Z</time></trkpt><trkpt lat="44.555898" lon="10.1056566"><ele>1242.0</ele><time>2026-04-24T14:50:07.229Z</time></trkpt><trkpt lat="44.5559535" lon="10.1055696"><ele>1242.0</ele><time>2026-04-24T14:50:08.228Z</time></trkpt><trkpt lat="44.5559905" lon="10.105462"><ele>1242.8</ele><time>2026-04-24T14:50:09.23Z</time></trkpt><trkpt lat="44.5560479" lon="10.1053505"><ele>1243.6</ele><time>2026-04-24T14:50:10.23Z</time></trkpt><trkpt lat="44.5560867" lon="10.1052493"><ele>1244.3999999999999</ele><time>2026-04-24T14:50:11.228Z</time></trkpt><trkpt lat="44.5561307" lon="10.1051459"><ele>1245.2</ele><time>2026-04-24T14:50:12.228Z</time></trkpt><trkpt lat="44.5562035" lon="10.1050269"><ele>1246.0</ele><time>2026-04-24T14:50:13.229Z</time></trkpt><trkpt lat="44.5562518" lon="10.104941"><ele>1243.6</ele><time>2026-04-24T14:50:14.229Z</time></trkpt><trkpt lat="44.5562941" lon="10.1048066"><ele>1241.1999999999998</ele><time>2026-04-24T14:50:15.229Z</time></trkpt><trkpt lat="44.5563528" lon="10.1046924"><ele>1238.8000000000002</ele><time>2026-04-24T14:50:16.229Z</time></trkpt><trkpt lat="44.5564052" lon="10.1045971"><ele>1236.4</ele><time>2026-04-24T14:50:17.229Z</time></trkpt><trkpt lat="44.5564706" lon="10.1045089"><ele>1234.0</ele><time>2026-04-24T14:50:18.228Z</time></trkpt><trkpt lat="44.5565279" lon="10.104415"><ele>1234.0</ele><time>2026-04-24T14:50:19.227Z</time></trkpt><trkpt lat="44.5565958" lon="10.1043346"><ele>1234.0</ele><time>2026-04-24T14:50:20.228Z</time></trkpt><trkpt lat="44.5566598" lon="10.1042118"><ele>1234.0</ele><time>2026-04-24T14:50:21.227Z</time></trkpt><trkpt lat="44.5567019" lon="10.1040799"><ele>1234.0</ele><time>2026-04-24T14:50:22.229Z</time></trkpt><trkpt lat="44.5567387" lon="10.1039594"><ele>1234.0</ele><time>2026-04-24T14:50:23.228Z</time></trkpt><trkpt lat="44.5568087" lon="10.1038123"><ele>1235.4</ele><time>2026-04-24T14:50:24.227Z</time></trkpt><trkpt lat="44.5568608" lon="10.1036961"><ele>1236.8000000000002</ele><time>2026-04-24T14:50:25.228Z</time></trkpt><trkpt lat="44.5569198" lon="10.1035937"><ele>1238.1999999999998</ele><time>2026-04-24T14:50:26.228Z</time></trkpt><trkpt lat="44.556957" lon="10.103464"><ele>1239.6</ele><time>2026-04-24T14:50:27.227Z</time></trkpt><trkpt lat="44.5569429" lon="10.103261"><ele>1241.0</ele><time>2026-04-24T14:50:28.228Z</time></trkpt><trkpt lat="44.5569008" lon="10.1031286"><ele>1241.3999999999999</ele><time>2026-04-24T14:50:29.228Z</time></trkpt><trkpt lat="44.5569159" lon="10.1029687"><ele>1241.8</ele><time>2026-04-24T14:50:30.229Z</time></trkpt><trkpt lat="44.5568967" lon="10.1028251"><ele>1242.1999999999998</ele><time>2026-04-24T14:50:31.229Z</time></trkpt><trkpt lat="44.5568929" lon="10.1027096"><ele>1242.6</ele><time>2026-04-24T14:50:32.227Z</time></trkpt><trkpt lat="44.5568967" lon="10.1025674"><ele>1243.0</ele><time>2026-04-24T14:50:33.227Z</time></trkpt><trkpt lat="44.5568589" lon="10.1024431"><ele>1244.0</ele><time>2026-04-24T14:50:34.227Z</time></trkpt><trkpt lat="44.5568439" lon="10.1023066"><ele>1245.0</ele><time>2026-04-24T14:50:35.228Z</time></trkpt><trkpt lat="44.5568067" lon="10.102219"><ele>1246.0</ele><time>2026-04-24T14:50:36.228Z</time></trkpt><trkpt lat="44.5567784" lon="10.1021283"><ele>1247.0</ele><time>2026-04-24T14:50:37.229Z</time></trkpt><trkpt lat="44.5567706" lon="10.1020046"><ele>1248.0</ele><time>2026-04-24T14:50:39.228Z</time></trkpt><trkpt lat="44.5568787" lon="10.1020075"><ele>1249.0</ele><time>2026-04-24T14:50:41.228Z</time></trkpt><trkpt lat="44.5570021" lon="10.1020774"><ele>1247.4</ele><time>2026-04-24T14:50:43.228Z</time></trkpt><trkpt lat="44.5570834" lon="10.1021103"><ele>1245.8000000000002</ele><time>2026-04-24T14:50:44.228Z</time></trkpt><trkpt lat="44.5571555" lon="10.1021519"><ele>1244.1999999999998</ele><time>2026-04-24T14:50:45.228Z</time></trkpt><trkpt lat="44.5572808" lon="10.1021891"><ele>1242.6</ele><time>2026-04-24T14:50:47.229Z</time></trkpt><trkpt lat="44.5573472" lon="10.1022019"><ele>1241.0</ele><time>2026-04-24T14:50:48.227Z</time></trkpt><trkpt lat="44.5574689" lon="10.1022336"><ele>1241.0</ele><time>2026-04-24T14:50:50.228Z</time></trkpt><trkpt lat="44.5575358" lon="10.1022468"><ele>1241.0</ele><time>2026-04-24T14:50:51.227Z</time></trkpt><trkpt lat="44.5576045" lon="10.1022725"><ele>1241.0</ele><time>2026-04-24T14:50:52.228Z</time></trkpt><trkpt lat="44.5576835" lon="10.1022866"><ele>1241.0</ele><time>2026-04-24T14:50:53.228Z</time></trkpt><trkpt lat="44.5577623" lon="10.1023092"><ele>1241.0</ele><time>2026-04-24T14:50:54.227Z</time></trkpt><trkpt lat="44.5578448" lon="10.1023276"><ele>1241.0</ele><time>2026-04-24T14:50:55.228Z</time></trkpt><trkpt lat="44.5579331" lon="10.1023479"><ele>1240.1666666666667</ele><time>2026-04-24T14:50:56.228Z</time></trkpt><trkpt lat="44.5580121" lon="10.1023668"><ele>1239.3333333333335</ele><time>2026-04-24T14:50:57.228Z</time></trkpt><trkpt lat="44.5580882" lon="10.1023824"><ele>1238.5</ele><time>2026-04-24T14:50:58.228Z</time></trkpt><trkpt lat="44.5581612" lon="10.1023978"><ele>1237.6666666666667</ele><time>2026-04-24T14:50:59.228Z</time></trkpt><trkpt lat="44.5582373" lon="10.1024033"><ele>1236.8333333333333</ele><time>2026-04-24T14:51:00.228Z</time></trkpt><trkpt lat="44.5583218" lon="10.1024037"><ele>1236.0</ele><time>2026-04-24T14:51:01.229Z</time></trkpt><trkpt lat="44.5584081" lon="10.10241"><ele>1236.0</ele><time>2026-04-24T14:51:02.228Z</time></trkpt><trkpt lat="44.5584917" lon="10.1024135"><ele>1236.0</ele><time>2026-04-24T14:51:03.227Z</time></trkpt><trkpt lat="44.5585761" lon="10.1024199"><ele>1236.0</ele><time>2026-04-24T14:51:04.228Z</time></trkpt><trkpt lat="44.558668" lon="10.1024219"><ele>1236.0</ele><time>2026-04-24T14:51:05.228Z</time></trkpt><trkpt lat="44.5587581" lon="10.1024297"><ele>1236.0</ele><time>2026-04-24T14:51:06.228Z</time></trkpt><trkpt lat="44.5588474" lon="10.1024348"><ele>1236.0</ele><time>2026-04-24T14:51:07.228Z</time></trkpt><trkpt lat="44.5589412" lon="10.1024358"><ele>1230.25</ele><time>2026-04-24T14:51:08.227Z</time></trkpt><trkpt lat="44.5590494" lon="10.1024328"><ele>1224.5</ele><time>2026-04-24T14:51:09.228Z</time></trkpt><trkpt lat="44.5591745" lon="10.1024159"><ele>1218.75</ele><time>2026-04-24T14:51:10.229Z</time></trkpt><trkpt lat="44.5592863" lon="10.1023876"><ele>1213.0</ele><time>2026-04-24T14:51:11.228Z</time></trkpt><trkpt lat="44.5593873" lon="10.1023341"><ele>1213.0</ele><time>2026-04-24T14:51:12.228Z</time></trkpt><trkpt lat="44.5594629" lon="10.1022717"><ele>1213.0</ele><time>2026-04-24T14:51:13.228Z</time></trkpt><trkpt lat="44.559542" lon="10.1021707"><ele>1213.0</ele><time>2026-04-24T14:51:14.227Z</time></trkpt><trkpt lat="44.5596182" lon="10.1020739"><ele>1213.0</ele><time>2026-04-24T14:51:15.228Z</time></trkpt><trkpt lat="44.5596755" lon="10.1019646"><ele>1213.0</ele><time>2026-04-24T14:51:16.227Z</time></trkpt><trkpt lat="44.5597478" lon="10.1018708"><ele>1204.6</ele><time>2026-04-24T14:51:17.228Z</time></trkpt><trkpt lat="44.5598094" lon="10.1017687"><ele>1196.1999999999998</ele><time>2026-04-24T14:51:18.229Z</time></trkpt><trkpt lat="44.5598431" lon="10.101671"><ele>1187.8</ele><time>2026-04-24T14:51:19.229Z</time></trkpt><trkpt lat="44.559871" lon="10.1015284"><ele>1179.3999999999999</ele><time>2026-04-24T14:51:20.227Z</time></trkpt><trkpt lat="44.5599046" lon="10.1013599"><ele>1171.0</ele><time>2026-04-24T14:51:21.227Z</time></trkpt><trkpt lat="44.559938" lon="10.1012095"><ele>1171.0</ele><time>2026-04-24T14:51:22.229Z</time></trkpt><trkpt lat="44.5599965" lon="10.1010793"><ele>1171.0</ele><time>2026-04-24T14:51:23.229Z</time></trkpt><trkpt lat="44.5600299" lon="10.1009418"><ele>1171.0</ele><time>2026-04-24T14:51:24.228Z</time></trkpt><trkpt lat="44.5600451" lon="10.1007925"><ele>1171.0</ele><time>2026-04-24T14:51:25.228Z</time></trkpt><trkpt lat="44.5600569" lon="10.1006571"><ele>1171.0</ele><time>2026-04-24T14:51:26.227Z</time></trkpt><trkpt lat="44.5600403" lon="10.10052"><ele>1169.6666666666665</ele><time>2026-04-24T14:51:27.228Z</time></trkpt><trkpt lat="44.5600058" lon="10.100394"><ele>1168.3333333333333</ele><time>2026-04-24T14:51:28.229Z</time></trkpt><trkpt lat="44.5599641" lon="10.1002725"><ele>1167.0</ele><time>2026-04-24T14:51:29.227Z</time></trkpt><trkpt lat="44.5599245" lon="10.1001558"><ele>1165.6666666666667</ele><time>2026-04-24T14:51:30.228Z</time></trkpt><trkpt lat="44.5598938" lon="10.100057"><ele>1164.3333333333335</ele><time>2026-04-24T14:51:31.228Z</time></trkpt><trkpt lat="44.55988" lon="10.0999362"><ele>1163.0</ele><time>2026-04-24T14:51:32.228Z</time></trkpt><trkpt lat="44.5598928" lon="10.0998235"><ele>1163.0</ele><time>2026-04-24T14:51:33.229Z</time></trkpt><trkpt lat="44.559972" lon="10.0997761"><ele>1163.0</ele><time>2026-04-24T14:51:34.229Z</time></trkpt><trkpt lat="44.5600368" lon="10.0999365"><ele>1163.0</ele><time>2026-04-24T14:51:35.229Z</time></trkpt><trkpt lat="44.5600974" lon="10.0999634"><ele>1163.0</ele><time>2026-04-24T14:51:36.227Z</time></trkpt><trkpt lat="44.5601508" lon="10.100042"><ele>1163.0</ele><time>2026-04-24T14:51:37.228Z</time></trkpt><trkpt lat="44.5602051" lon="10.1001234"><ele>1163.0</ele><time>2026-04-24T14:51:38.228Z</time></trkpt><trkpt lat="44.5602748" lon="10.1002369"><ele>1163.0</ele><time>2026-04-24T14:51:39.227Z</time></trkpt><trkpt lat="44.5603391" lon="10.1003646"><ele>1163.0</ele><time>2026-04-24T14:51:40.227Z</time></trkpt><trkpt lat="44.5603419" lon="10.1005683"><ele>1163.0</ele><time>2026-04-24T14:51:41.229Z</time></trkpt><trkpt lat="44.5604205" lon="10.1006875"><ele>1163.0</ele><time>2026-04-24T14:51:42.228Z</time></trkpt><trkpt lat="44.5604838" lon="10.1008238"><ele>1156.5</ele><time>2026-04-24T14:51:43.228Z</time></trkpt><trkpt lat="44.5605422" lon="10.1009776"><ele>1150.0</ele><time>2026-04-24T14:51:44.228Z</time></trkpt><trkpt lat="44.5606134" lon="10.1011174"><ele>1143.5</ele><time>2026-04-24T14:51:45.227Z</time></trkpt><trkpt lat="44.5606727" lon="10.1012515"><ele>1137.0</ele><time>2026-04-24T14:51:46.228Z</time></trkpt><trkpt lat="44.5607331" lon="10.1013953"><ele>1137.0</ele><time>2026-04-24T14:51:47.228Z</time></trkpt><trkpt lat="44.5607796" lon="10.1015609"><ele>1137.0</ele><time>2026-04-24T14:51:48.229Z</time></trkpt><trkpt lat="44.5608256" lon="10.1017077"><ele>1137.0</ele><time>2026-04-24T14:51:49.227Z</time></trkpt><trkpt lat="44.5608725" lon="10.1018242"><ele>1137.0</ele><time>2026-04-24T14:51:50.228Z</time></trkpt><trkpt lat="44.5609129" lon="10.101938"><ele>1137.0</ele><time>2026-04-24T14:51:51.228Z</time></trkpt><trkpt lat="44.5609922" lon="10.1019879"><ele>1137.8333333333333</ele><time>2026-04-24T14:51:52.227Z</time></trkpt><trkpt lat="44.5610489" lon="10.1020562"><ele>1138.6666666666667</ele><time>2026-04-24T14:51:53.227Z</time></trkpt><trkpt lat="44.5611224" lon="10.1020959"><ele>1139.5</ele><time>2026-04-24T14:51:54.229Z</time></trkpt><trkpt lat="44.5611966" lon="10.1020548"><ele>1140.3333333333335</ele><time>2026-04-24T14:51:55.228Z</time></trkpt><trkpt lat="44.5612838" lon="10.102026"><ele>1141.1666666666667</ele><time>2026-04-24T14:51:56.228Z</time></trkpt><trkpt lat="44.5613076" lon="10.1019016"><ele>1142.0</ele><time>2026-04-24T14:51:57.228Z</time></trkpt><trkpt lat="44.5613251" lon="10.1018167"><ele>1136.2</ele><time>2026-04-24T14:51:58.228Z</time></trkpt><trkpt lat="44.5613384" lon="10.1017207"><ele>1130.4</ele><time>2026-04-24T14:51:59.229Z</time></trkpt><trkpt lat="44.5613418" lon="10.1016179"><ele>1124.6</ele><time>2026-04-24T14:52:00.228Z</time></trkpt><trkpt lat="44.5613307" lon="10.1015006"><ele>1118.8</ele><time>2026-04-24T14:52:01.228Z</time></trkpt><trkpt lat="44.5613059" lon="10.1013359"><ele>1113.0</ele><time>2026-04-24T14:52:02.228Z</time></trkpt><trkpt lat="44.561248" lon="10.101104"><ele>1110.75</ele><time>2026-04-24T14:52:03.227Z</time></trkpt><trkpt lat="44.5612343" lon="10.1008733"><ele>1108.5</ele><time>2026-04-24T14:52:04.228Z</time></trkpt><trkpt lat="44.5612206" lon="10.100673"><ele>1106.25</ele><time>2026-04-24T14:52:05.227Z</time></trkpt><trkpt lat="44.5612211" lon="10.1004893"><ele>1104.0</ele><time>2026-04-24T14:52:06.227Z</time></trkpt><trkpt lat="44.561204" lon="10.1003234"><ele>1108.75</ele><time>2026-04-24T14:52:07.228Z</time></trkpt><trkpt lat="44.561191" lon="10.1001458"><ele>1113.5</ele><time>2026-04-24T14:52:08.229Z</time></trkpt><trkpt lat="44.5611718" lon="10.0999768"><ele>1118.25</ele><time>2026-04-24T14:52:09.228Z</time></trkpt><trkpt lat="44.5611506" lon="10.09982"><ele>1123.0</ele><time>2026-04-24T14:52:10.229Z</time></trkpt><trkpt lat="44.5611218" lon="10.0996658"><ele>1123.0</ele><time>2026-04-24T14:52:11.228Z</time></trkpt><trkpt lat="44.561069" lon="10.0995188"><ele>1123.0</ele><time>2026-04-24T14:52:12.227Z</time></trkpt><trkpt lat="44.56103" lon="10.0994201"><ele>1123.0</ele><time>2026-04-24T14:52:13.228Z</time></trkpt><trkpt lat="44.5609912" lon="10.0992959"><ele>1123.0</ele><time>2026-04-24T14:52:14.228Z</time></trkpt><trkpt lat="44.5609846" lon="10.0991599"><ele>1123.0</ele><time>2026-04-24T14:52:15.227Z</time></trkpt><trkpt lat="44.5609855" lon="10.0990359"><ele>1123.4</ele><time>2026-04-24T14:52:16.228Z</time></trkpt><trkpt lat="44.5610063" lon="10.0989247"><ele>1123.8</ele><time>2026-04-24T14:52:17.228Z</time></trkpt><trkpt lat="44.5610553" lon="10.0987985"><ele>1124.2</ele><time>2026-04-24T14:52:18.227Z</time></trkpt><trkpt lat="44.5611137" lon="10.0986474"><ele>1124.6</ele><time>2026-04-24T14:52:19.228Z</time></trkpt><trkpt lat="44.5611865" lon="10.098505"><ele>1125.0</ele><time>2026-04-24T14:52:20.229Z</time></trkpt><trkpt lat="44.5612259" lon="10.0983511"><ele>1118.25</ele><time>2026-04-24T14:52:21.227Z</time></trkpt><trkpt lat="44.5612831" lon="10.0981782"><ele>1111.5</ele><time>2026-04-24T14:52:22.227Z</time></trkpt><trkpt lat="44.5613042" lon="10.0980381"><ele>1104.75</ele><time>2026-04-24T14:52:23.228Z</time></trkpt><trkpt lat="44.561338" lon="10.0978752"><ele>1098.0</ele><time>2026-04-24T14:52:24.229Z</time></trkpt><trkpt lat="44.5613693" lon="10.0977116"><ele>1098.0</ele><time>2026-04-24T14:52:25.229Z</time></trkpt><trkpt lat="44.5614242" lon="10.0975722"><ele>1098.0</ele><time>2026-04-24T14:52:26.228Z</time></trkpt><trkpt lat="44.5615204" lon="10.0974462"><ele>1098.0</ele><time>2026-04-24T14:52:27.227Z</time></trkpt><trkpt lat="44.5616002" lon="10.097318"><ele>1098.0</ele><time>2026-04-24T14:52:28.229Z</time></trkpt><trkpt lat="44.5616951" lon="10.0971994"><ele>1093.75</ele><time>2026-04-24T14:52:29.229Z</time></trkpt><trkpt lat="44.5617893" lon="10.097103"><ele>1089.5</ele><time>2026-04-24T14:52:30.228Z</time></trkpt><trkpt lat="44.5619342" lon="10.0970075"><ele>1085.25</ele><time>2026-04-24T14:52:31.227Z</time></trkpt><trkpt lat="44.562012" lon="10.0969062"><ele>1081.0</ele><time>2026-04-24T14:52:32.229Z</time></trkpt><trkpt lat="44.562105" lon="10.0968185"><ele>1081.0</ele><time>2026-04-24T14:52:33.228Z</time></trkpt><trkpt lat="44.5621744" lon="10.0967185"><ele>1081.0</ele><time>2026-04-24T14:52:34.228Z</time></trkpt><trkpt lat="44.5622507" lon="10.0966345"><ele>1081.0</ele><time>2026-04-24T14:52:35.229Z</time></trkpt><trkpt lat="44.5623611" lon="10.0965462"><ele>1081.0</ele><time>2026-04-24T14:52:36.228Z</time></trkpt><trkpt lat="44.5624644" lon="10.0964545"><ele>1081.0</ele><time>2026-04-24T14:52:37.227Z</time></trkpt><trkpt lat="44.5626068" lon="10.096385"><ele>1080.75</ele><time>2026-04-24T14:52:38.227Z</time></trkpt><trkpt lat="44.5627575" lon="10.0963393"><ele>1080.5</ele><time>2026-04-24T14:52:39.228Z</time></trkpt><trkpt lat="44.5628823" lon="10.0962959"><ele>1080.25</ele><time>2026-04-24T14:52:40.227Z</time></trkpt><trkpt lat="44.5630338" lon="10.0962604"><ele>1080.0</ele><time>2026-04-24T14:52:41.228Z</time></trkpt><trkpt lat="44.5631782" lon="10.0962257"><ele>1080.0</ele><time>2026-04-24T14:52:42.228Z</time></trkpt><trkpt lat="44.5633077" lon="10.0961885"><ele>1080.0</ele><time>2026-04-24T14:52:43.228Z</time></trkpt><trkpt lat="44.5634165" lon="10.0961487"><ele>1080.0</ele><time>2026-04-24T14:52:44.227Z</time></trkpt><trkpt lat="44.5635496" lon="10.0961271"><ele>1080.0</ele><time>2026-04-24T14:52:45.227Z</time></trkpt><trkpt lat="44.5636827" lon="10.0960994"><ele>1075.5</ele><time>2026-04-24T14:52:46.227Z</time></trkpt><trkpt lat="44.5638115" lon="10.0960521"><ele>1071.0</ele><time>2026-04-24T14:52:47.228Z</time></trkpt><trkpt lat="44.5639371" lon="10.0960032"><ele>1066.5</ele><time>2026-04-24T14:52:48.228Z</time></trkpt><trkpt lat="44.5640427" lon="10.0959892"><ele>1062.0</ele><time>2026-04-24T14:52:49.228Z</time></trkpt><trkpt lat="44.5641309" lon="10.0960067"><ele>1062.0</ele><time>2026-04-24T14:52:50.227Z</time></trkpt><trkpt lat="44.5642117" lon="10.0960603"><ele>1062.0</ele><time>2026-04-24T14:52:51.229Z</time></trkpt><trkpt lat="44.5642758" lon="10.0961502"><ele>1062.0</ele><time>2026-04-24T14:52:52.228Z</time></trkpt><trkpt lat="44.5643184" lon="10.0962786"><ele>1062.0</ele><time>2026-04-24T14:52:53.227Z</time></trkpt><trkpt lat="44.5643478" lon="10.0964054"><ele>1062.0</ele><time>2026-04-24T14:52:54.227Z</time></trkpt><trkpt lat="44.5643776" lon="10.0965248"><ele>1061.3333333333333</ele><time>2026-04-24T14:52:55.228Z</time></trkpt><trkpt lat="44.5644118" lon="10.0966422"><ele>1060.6666666666667</ele><time>2026-04-24T14:52:56.229Z</time></trkpt><trkpt lat="44.5644542" lon="10.0967481"><ele>1060.0</ele><time>2026-04-24T14:52:57.227Z</time></trkpt><trkpt lat="44.5645147" lon="10.0968005"><ele>1059.3333333333335</ele><time>2026-04-24T14:52:58.229Z</time></trkpt><trkpt lat="44.564581" lon="10.0968518"><ele>1058.6666666666667</ele><time>2026-04-24T14:52:59.229Z</time></trkpt><trkpt lat="44.5646549" lon="10.0968216"><ele>1058.0</ele><time>2026-04-24T14:53:00.229Z</time></trkpt><trkpt lat="44.5647282" lon="10.0967601"><ele>1055.4</ele><time>2026-04-24T14:53:01.229Z</time></trkpt><trkpt lat="44.5648136" lon="10.0966753"><ele>1052.8</ele><time>2026-04-24T14:53:02.227Z</time></trkpt><trkpt lat="44.5648883" lon="10.0965671"><ele>1050.2</ele><time>2026-04-24T14:53:03.227Z</time></trkpt><trkpt lat="44.5649569" lon="10.096482"><ele>1047.6</ele><time>2026-04-24T14:53:04.228Z</time></trkpt><trkpt lat="44.5650149" lon="10.0963925"><ele>1045.0</ele><time>2026-04-24T14:53:05.227Z</time></trkpt><trkpt lat="44.5650466" lon="10.0962946"><ele>1044.8</ele><time>2026-04-24T14:53:06.228Z</time></trkpt><trkpt lat="44.5650705" lon="10.0961856"><ele>1044.6</ele><time>2026-04-24T14:53:07.228Z</time></trkpt><trkpt lat="44.5650839" lon="10.0960696"><ele>1044.4</ele><time>2026-04-24T14:53:08.229Z</time></trkpt><trkpt lat="44.565095" lon="10.0959452"><ele>1044.2</ele><time>2026-04-24T14:53:09.229Z</time></trkpt><trkpt lat="44.5650541" lon="10.0957597"><ele>1044.0</ele><time>2026-04-24T14:53:10.227Z</time></trkpt><trkpt lat="44.5650381" lon="10.0956271"><ele>1041.8</ele><time>2026-04-24T14:53:11.228Z</time></trkpt><trkpt lat="44.5650205" lon="10.0954966"><ele>1039.6000000000001</ele><time>2026-04-24T14:53:12.229Z</time></trkpt><trkpt lat="44.565004" lon="10.095387"><ele>1037.4</ele><time>2026-04-24T14:53:13.228Z</time></trkpt><trkpt lat="44.5649597" lon="10.0953037"><ele>1035.2</ele><time>2026-04-24T14:53:14.228Z</time></trkpt><trkpt lat="44.5648157" lon="10.095312"><ele>1033.0</ele><time>2026-04-24T14:53:15.228Z</time></trkpt><trkpt lat="44.5647419" lon="10.0952402"><ele>1033.0</ele><time>2026-04-24T14:53:16.227Z</time></trkpt><trkpt lat="44.5646828" lon="10.0951477"><ele>1033.0</ele><time>2026-04-24T14:53:17.229Z</time></trkpt><trkpt lat="44.5646356" lon="10.0950453"><ele>1033.0</ele><time>2026-04-24T14:53:18.228Z</time></trkpt><trkpt lat="44.5646048" lon="10.0949313"><ele>1033.0</ele><time>2026-04-24T14:53:19.228Z</time></trkpt><trkpt lat="44.5645761" lon="10.0948172"><ele>1033.0</ele><time>2026-04-24T14:53:20.229Z</time></trkpt><trkpt lat="44.564557" lon="10.0946945"><ele>1033.0</ele><time>2026-04-24T14:53:21.229Z</time></trkpt><trkpt lat="44.5645557" lon="10.0945648"><ele>1031.6</ele><time>2026-04-24T14:53:22.229Z</time></trkpt><trkpt lat="44.5645832" lon="10.0944503"><ele>1030.1999999999998</ele><time>2026-04-24T14:53:23.229Z</time></trkpt><trkpt lat="44.5646313" lon="10.0943419"><ele>1028.8</ele><time>2026-04-24T14:53:24.228Z</time></trkpt><trkpt lat="44.5646946" lon="10.0942275"><ele>1027.3999999999999</ele><time>2026-04-24T14:53:25.228Z</time></trkpt><trkpt lat="44.5647622" lon="10.0941327"><ele>1026.0</ele><time>2026-04-24T14:53:26.228Z</time></trkpt><trkpt lat="44.5648189" lon="10.0940493"><ele>1024.6</ele><time>2026-04-24T14:53:27.228Z</time></trkpt><trkpt lat="44.5648557" lon="10.0939576"><ele>1023.1999999999999</ele><time>2026-04-24T14:53:28.228Z</time></trkpt><trkpt lat="44.5648704" lon="10.093849"><ele>1021.8000000000001</ele><time>2026-04-24T14:53:29.227Z</time></trkpt><trkpt lat="44.5648911" lon="10.0937468"><ele>1020.4000000000001</ele><time>2026-04-24T14:53:30.229Z</time></trkpt><trkpt lat="44.5648998" lon="10.0936284"><ele>1019.0</ele><time>2026-04-24T14:53:31.228Z</time></trkpt><trkpt lat="44.5648112" lon="10.0933989"><ele>1017.4000000000001</ele><time>2026-04-24T14:53:32.227Z</time></trkpt><trkpt lat="44.5647913" lon="10.0932498"><ele>1015.8000000000001</ele><time>2026-04-24T14:53:33.229Z</time></trkpt><trkpt lat="44.5647736" lon="10.0931055"><ele>1014.1999999999999</ele><time>2026-04-24T14:53:34.229Z</time></trkpt><trkpt lat="44.5647557" lon="10.0929689"><ele>1012.5999999999999</ele><time>2026-04-24T14:53:35.228Z</time></trkpt><trkpt lat="44.5647203" lon="10.0928346"><ele>1011.0</ele><time>2026-04-24T14:53:36.228Z</time></trkpt><trkpt lat="44.5646716" lon="10.092679"><ele>1011.0</ele><time>2026-04-24T14:53:37.229Z</time></trkpt><trkpt lat="44.56464" lon="10.0925645"><ele>1010.9999999999999</ele><time>2026-04-24T14:53:38.228Z</time></trkpt><trkpt lat="44.5646451" lon="10.0924393"><ele>1010.9999999999999</ele><time>2026-04-24T14:53:39.227Z</time></trkpt><trkpt lat="44.5646405" lon="10.0923006"><ele>1011.0</ele><time>2026-04-24T14:53:40.228Z</time></trkpt><trkpt lat="44.5646497" lon="10.0921631"><ele>1011.0</ele><time>2026-04-24T14:53:41.228Z</time></trkpt><trkpt lat="44.56474" lon="10.0920902"><ele>1010.5</ele><time>2026-04-24T14:53:42.228Z</time></trkpt><trkpt lat="44.5648221" lon="10.092008"><ele>1010.0</ele><time>2026-04-24T14:53:43.227Z</time></trkpt><trkpt lat="44.5649272" lon="10.0919862"><ele>1009.5</ele><time>2026-04-24T14:53:44.229Z</time></trkpt><trkpt lat="44.5650459" lon="10.0919824"><ele>1009.0</ele><time>2026-04-24T14:53:45.227Z</time></trkpt><trkpt lat="44.5651731" lon="10.0919738"><ele>1009.0</ele><time>2026-04-24T14:53:46.227Z</time></trkpt><trkpt lat="44.5653028" lon="10.0919701"><ele>1009.0</ele><time>2026-04-24T14:53:47.228Z</time></trkpt><trkpt lat="44.5654386" lon="10.0919741"><ele>1009.0</ele><time>2026-04-24T14:53:48.228Z</time></trkpt><trkpt lat="44.5655573" lon="10.0919677"><ele>1009.0</ele><time>2026-04-24T14:53:49.228Z</time></trkpt><trkpt lat="44.5656709" lon="10.0919605"><ele>1008.0</ele><time>2026-04-24T14:53:50.228Z</time></trkpt><trkpt lat="44.5657817" lon="10.0919515"><ele>1007.0000000000001</ele><time>2026-04-24T14:53:51.228Z</time></trkpt><trkpt lat="44.5658807" lon="10.0919425"><ele>1006.0000000000001</ele><time>2026-04-24T14:53:52.229Z</time></trkpt><trkpt lat="44.5659823" lon="10.0919566"><ele>1005.0</ele><time>2026-04-24T14:53:53.228Z</time></trkpt><trkpt lat="44.5660623" lon="10.0919596"><ele>1004.0</ele><time>2026-04-24T14:53:54.227Z</time></trkpt><trkpt lat="44.5661431" lon="10.0919481"><ele>999.5</ele><time>2026-04-24T14:53:55.228Z</time></trkpt><trkpt lat="44.566254" lon="10.0919342"><ele>995.0</ele><time>2026-04-24T14:53:56.229Z</time></trkpt><trkpt lat="44.5663517" lon="10.0919257"><ele>990.5</ele><time>2026-04-24T14:53:57.227Z</time></trkpt><trkpt lat="44.5663949" lon="10.091719"><ele>986.0</ele><time>2026-04-24T14:53:58.228Z</time></trkpt><trkpt lat="44.5664341" lon="10.0915262"><ele>986.0</ele><time>2026-04-24T14:54:00.228Z</time></trkpt><trkpt lat="44.5664486" lon="10.0914314"><ele>985.9999999999999</ele><time>2026-04-24T14:54:01.228Z</time></trkpt><trkpt lat="44.5664265" lon="10.0913087"><ele>985.9999999999999</ele><time>2026-04-24T14:54:02.227Z</time></trkpt><trkpt lat="44.5664328" lon="10.0911576"><ele>986.0</ele><time>2026-04-24T14:54:03.229Z</time></trkpt><trkpt lat="44.5664726" lon="10.0910125"><ele>986.0</ele><time>2026-04-24T14:54:04.228Z</time></trkpt><trkpt lat="44.5665474" lon="10.090929"><ele>986.0</ele><time>2026-04-24T14:54:05.227Z</time></trkpt><trkpt lat="44.5666289" lon="10.0908117"><ele>986.0</ele><time>2026-04-24T14:54:06.227Z</time></trkpt><trkpt lat="44.5667271" lon="10.0906684"><ele>986.0</ele><time>2026-04-24T14:54:07.227Z</time></trkpt><trkpt lat="44.5668002" lon="10.0905548"><ele>986.0</ele><time>2026-04-24T14:54:08.227Z</time></trkpt><trkpt lat="44.5668828" lon="10.090442"><ele>986.8</ele><time>2026-04-24T14:54:09.228Z</time></trkpt><trkpt lat="44.5669602" lon="10.0903289"><ele>987.5999999999999</ele><time>2026-04-24T14:54:10.228Z</time></trkpt><trkpt lat="44.5670424" lon="10.0902168"><ele>988.4</ele><time>2026-04-24T14:54:11.228Z</time></trkpt><trkpt lat="44.5670762" lon="10.090136"><ele>989.2</ele><time>2026-04-24T14:54:12.228Z</time></trkpt><trkpt lat="44.5671394" lon="10.0900374"><ele>990.0</ele><time>2026-04-24T14:54:13.228Z</time></trkpt><trkpt lat="44.5670953" lon="10.0898918"><ele>982.0</ele><time>2026-04-24T14:54:14.229Z</time></trkpt><trkpt lat="44.5671021" lon="10.08975"><ele>974.0</ele><time>2026-04-24T14:54:15.228Z</time></trkpt><trkpt lat="44.5670916" lon="10.0895543"><ele>966.0</ele><time>2026-04-24T14:54:16.228Z</time></trkpt><trkpt lat="44.5671184" lon="10.0893996"><ele>958.0</ele><time>2026-04-24T14:54:17.228Z</time></trkpt><trkpt lat="44.5671359" lon="10.0892402"><ele>957.0</ele><time>2026-04-24T14:54:18.229Z</time></trkpt><trkpt lat="44.567155" lon="10.0890794"><ele>956.0</ele><time>2026-04-24T14:54:19.228Z</time></trkpt><trkpt lat="44.5671207" lon="10.0889654"><ele>955.0</ele><time>2026-04-24T14:54:20.228Z</time></trkpt><trkpt lat="44.5671071" lon="10.0888375"><ele>954.0</ele><time>2026-04-24T14:54:21.228Z</time></trkpt><trkpt lat="44.5671223" lon="10.0887089"><ele>953.0</ele><time>2026-04-24T14:54:22.229Z</time></trkpt><trkpt lat="44.5671475" lon="10.0886126"><ele>953.0</ele><time>2026-04-24T14:54:23.229Z</time></trkpt><trkpt lat="44.5672379" lon="10.0886548"><ele>953.0</ele><time>2026-04-24T14:54:24.227Z</time></trkpt><trkpt lat="44.5673347" lon="10.0887472"><ele>953.0</ele><time>2026-04-24T14:54:26.227Z</time></trkpt><trkpt lat="44.5673659" lon="10.0888669"><ele>953.0</ele><time>2026-04-24T14:54:27.228Z</time></trkpt><trkpt lat="44.5673763" lon="10.0890128"><ele>953.0</ele><time>2026-04-24T14:54:28.227Z</time></trkpt><trkpt lat="44.5673836" lon="10.0891605"><ele>954.0</ele><time>2026-04-24T14:54:29.229Z</time></trkpt><trkpt lat="44.5674022" lon="10.0893195"><ele>955.0</ele><time>2026-04-24T14:54:30.228Z</time></trkpt><trkpt lat="44.5674374" lon="10.0894708"><ele>956.0</ele><time>2026-04-24T14:54:31.229Z</time></trkpt><trkpt lat="44.5674719" lon="10.0896164"><ele>957.0</ele><time>2026-04-24T14:54:32.228Z</time></trkpt><trkpt lat="44.567501" lon="10.0897624"><ele>958.0</ele><time>2026-04-24T14:54:33.228Z</time></trkpt><trkpt lat="44.5675386" lon="10.0898866"><ele>958.25</ele><time>2026-04-24T14:54:34.227Z</time></trkpt><trkpt lat="44.5676069" lon="10.0899857"><ele>958.5</ele><time>2026-04-24T14:54:35.228Z</time></trkpt><trkpt lat="44.5676955" lon="10.09008"><ele>958.75</ele><time>2026-04-24T14:54:36.228Z</time></trkpt><trkpt lat="44.5678026" lon="10.0901757"><ele>959.0</ele><time>2026-04-24T14:54:37.228Z</time></trkpt><trkpt lat="44.5679063" lon="10.0902551"><ele>953.5</ele><time>2026-04-24T14:54:38.228Z</time></trkpt><trkpt lat="44.5680023" lon="10.0903352"><ele>948.0</ele><time>2026-04-24T14:54:39.227Z</time></trkpt><trkpt lat="44.5680785" lon="10.0904434"><ele>942.5</ele><time>2026-04-24T14:54:40.227Z</time></trkpt><trkpt lat="44.5681641" lon="10.090562"><ele>937.0</ele><time>2026-04-24T14:54:41.229Z</time></trkpt><trkpt lat="44.5682458" lon="10.0906824"><ele>937.6</ele><time>2026-04-24T14:54:42.228Z</time></trkpt><trkpt lat="44.5683216" lon="10.0907975"><ele>938.2</ele><time>2026-04-24T14:54:43.228Z</time></trkpt><trkpt lat="44.5683998" lon="10.0909128"><ele>938.8</ele><time>2026-04-24T14:54:44.227Z</time></trkpt><trkpt lat="44.5684801" lon="10.0910139"><ele>939.4</ele><time>2026-04-24T14:54:45.228Z</time></trkpt><trkpt lat="44.5685434" lon="10.0910964"><ele>940.0</ele><time>2026-04-24T14:54:46.229Z</time></trkpt><trkpt lat="44.5686478" lon="10.0910804"><ele>936.5</ele><time>2026-04-24T14:54:48.227Z</time></trkpt><trkpt lat="44.568744" lon="10.0909051"><ele>933.0</ele><time>2026-04-24T14:54:50.229Z</time></trkpt><trkpt lat="44.5687774" lon="10.0907665"><ele>929.5</ele><time>2026-04-24T14:54:51.228Z</time></trkpt><trkpt lat="44.5688114" lon="10.0905871"><ele>926.0</ele><time>2026-04-24T14:54:52.229Z</time></trkpt><trkpt lat="44.56884" lon="10.090396"><ele>924.75</ele><time>2026-04-24T14:54:53.228Z</time></trkpt><trkpt lat="44.5688775" lon="10.090211"><ele>923.5</ele><time>2026-04-24T14:54:54.227Z</time></trkpt><trkpt lat="44.5689219" lon="10.0900214"><ele>922.25</ele><time>2026-04-24T14:54:55.227Z</time></trkpt><trkpt lat="44.56896" lon="10.0898397"><ele>921.0</ele><time>2026-04-24T14:54:56.228Z</time></trkpt><trkpt lat="44.5689924" lon="10.0896737"><ele>920.1999999999999</ele><time>2026-04-24T14:54:57.229Z</time></trkpt><trkpt lat="44.5690251" lon="10.0895156"><ele>919.3999999999999</ele><time>2026-04-24T14:54:58.229Z</time></trkpt><trkpt lat="44.5690509" lon="10.0893773"><ele>918.6</ele><time>2026-04-24T14:54:59.228Z</time></trkpt><trkpt lat="44.5690769" lon="10.0892435"><ele>917.8</ele><time>2026-04-24T14:55:00.227Z</time></trkpt><trkpt lat="44.569057" lon="10.0891497"><ele>917.0</ele><time>2026-04-24T14:55:01.228Z</time></trkpt><trkpt lat="44.5690509" lon="10.0890235"><ele>916.8333333333334</ele><time>2026-04-24T14:55:02.228Z</time></trkpt><trkpt lat="44.5689689" lon="10.0888974"><ele>916.6666666666667</ele><time>2026-04-24T14:55:03.229Z</time></trkpt><trkpt lat="44.5689313" lon="10.0888011"><ele>916.5</ele><time>2026-04-24T14:55:04.228Z</time></trkpt><trkpt lat="44.5689099" lon="10.0886932"><ele>916.3333333333333</ele><time>2026-04-24T14:55:05.228Z</time></trkpt><trkpt lat="44.5689303" lon="10.0885854"><ele>916.1666666666666</ele><time>2026-04-24T14:55:06.227Z</time></trkpt><trkpt lat="44.5689663" lon="10.0884977"><ele>916.0</ele><time>2026-04-24T14:55:07.228Z</time></trkpt><trkpt lat="44.5690329" lon="10.0884157"><ele>916.0</ele><time>2026-04-24T14:55:08.227Z</time></trkpt><trkpt lat="44.5691355" lon="10.0883335"><ele>916.0</ele><time>2026-04-24T14:55:09.229Z</time></trkpt><trkpt lat="44.5692426" lon="10.0882338"><ele>916.0</ele><time>2026-04-24T14:55:10.228Z</time></trkpt><trkpt lat="44.5693733" lon="10.0881623"><ele>916.0</ele><time>2026-04-24T14:55:11.227Z</time></trkpt><trkpt lat="44.5695088" lon="10.0880917"><ele>911.75</ele><time>2026-04-24T14:55:12.227Z</time></trkpt><trkpt lat="44.5696345" lon="10.0880343"><ele>907.5</ele><time>2026-04-24T14:55:13.228Z</time></trkpt><trkpt lat="44.569754" lon="10.0879693"><ele>903.25</ele><time>2026-04-24T14:55:14.229Z</time></trkpt><trkpt lat="44.5698771" lon="10.0879021"><ele>899.0</ele><time>2026-04-24T14:55:15.227Z</time></trkpt><trkpt lat="44.5699985" lon="10.0878387"><ele>899.0</ele><time>2026-04-24T14:55:16.227Z</time></trkpt><trkpt lat="44.5701127" lon="10.0877349"><ele>899.0</ele><time>2026-04-24T14:55:17.228Z</time></trkpt><trkpt lat="44.5702185" lon="10.0876432"><ele>899.0</ele><time>2026-04-24T14:55:18.228Z</time></trkpt><trkpt lat="44.5703117" lon="10.0875524"><ele>899.0</ele><time>2026-04-24T14:55:19.228Z</time></trkpt><trkpt lat="44.57042" lon="10.0875084"><ele>897.4000000000001</ele><time>2026-04-24T14:55:20.228Z</time></trkpt><trkpt lat="44.5705191" lon="10.0874411"><ele>895.8000000000001</ele><time>2026-04-24T14:55:21.227Z</time></trkpt><trkpt lat="44.5706187" lon="10.0873758"><ele>894.1999999999999</ele><time>2026-04-24T14:55:22.228Z</time></trkpt><trkpt lat="44.5706997" lon="10.0873503"><ele>892.5999999999999</ele><time>2026-04-24T14:55:23.229Z</time></trkpt><trkpt lat="44.570775" lon="10.0873463"><ele>891.0</ele><time>2026-04-24T14:55:24.228Z</time></trkpt><trkpt lat="44.5708493" lon="10.0873772"><ele>891.0</ele><time>2026-04-24T14:55:25.228Z</time></trkpt><trkpt lat="44.5709224" lon="10.0874446"><ele>890.9999999999999</ele><time>2026-04-24T14:55:26.229Z</time></trkpt><trkpt lat="44.5710047" lon="10.0875249"><ele>890.9999999999999</ele><time>2026-04-24T14:55:27.228Z</time></trkpt><trkpt lat="44.5710986" lon="10.0876231"><ele>891.0</ele><time>2026-04-24T14:55:28.228Z</time></trkpt><trkpt lat="44.5711725" lon="10.0877274"><ele>891.0</ele><time>2026-04-24T14:55:29.228Z</time></trkpt><trkpt lat="44.5712551" lon="10.0877964"><ele>888.0</ele><time>2026-04-24T14:55:30.227Z</time></trkpt><trkpt lat="44.5713384" lon="10.0878377"><ele>884.9999999999999</ele><time>2026-04-24T14:55:31.229Z</time></trkpt><trkpt lat="44.5714194" lon="10.0878594"><ele>881.9999999999999</ele><time>2026-04-24T14:55:32.228Z</time></trkpt><trkpt lat="44.5715053" lon="10.0878472"><ele>879.0</ele><time>2026-04-24T14:55:33.228Z</time></trkpt><trkpt lat="44.571602" lon="10.0877956"><ele>876.0</ele><time>2026-04-24T14:55:34.229Z</time></trkpt><trkpt lat="44.571704" lon="10.0877203"><ele>876.0</ele><time>2026-04-24T14:55:35.228Z</time></trkpt><trkpt lat="44.5718129" lon="10.0876482"><ele>875.9999999999999</ele><time>2026-04-24T14:55:36.229Z</time></trkpt><trkpt lat="44.5719089" lon="10.0875884"><ele>875.9999999999999</ele><time>2026-04-24T14:55:37.229Z</time></trkpt><trkpt lat="44.5719892" lon="10.0875166"><ele>876.0</ele><time>2026-04-24T14:55:38.227Z</time></trkpt><trkpt lat="44.5720354" lon="10.0874261"><ele>876.0</ele><time>2026-04-24T14:55:39.229Z</time></trkpt><trkpt lat="44.5720646" lon="10.0873059"><ele>875.0</ele><time>2026-04-24T14:55:40.227Z</time></trkpt><trkpt lat="44.5720727" lon="10.0871568"><ele>874.0</ele><time>2026-04-24T14:55:41.227Z</time></trkpt><trkpt lat="44.5720549" lon="10.0869912"><ele>873.0</ele><time>2026-04-24T14:55:42.228Z</time></trkpt><trkpt lat="44.5720214" lon="10.0867791"><ele>872.0</ele><time>2026-04-24T14:55:43.227Z</time></trkpt><trkpt lat="44.5719902" lon="10.0865462"><ele>871.6666666666667</ele><time>2026-04-24T14:55:44.228Z</time></trkpt><trkpt lat="44.5719603" lon="10.0863051"><ele>871.3333333333333</ele><time>2026-04-24T14:55:45.228Z</time></trkpt><trkpt lat="44.5719265" lon="10.0860882"><ele>871.0</ele><time>2026-04-24T14:55:46.228Z</time></trkpt><trkpt lat="44.5718976" lon="10.0858879"><ele>870.0</ele><time>2026-04-24T14:55:47.229Z</time></trkpt><trkpt lat="44.5718716" lon="10.0856964"><ele>869.0</ele><time>2026-04-24T14:55:48.227Z</time></trkpt><trkpt lat="44.5718492" lon="10.0855187"><ele>868.0</ele><time>2026-04-24T14:55:49.229Z</time></trkpt><trkpt lat="44.5718308" lon="10.0853628"><ele>867.0</ele><time>2026-04-24T14:55:50.229Z</time></trkpt><trkpt lat="44.5718083" lon="10.0852218"><ele>867.0</ele><time>2026-04-24T14:55:51.228Z</time></trkpt><trkpt lat="44.5717893" lon="10.0850941"><ele>867.0</ele><time>2026-04-24T14:55:52.229Z</time></trkpt><trkpt lat="44.5717739" lon="10.0849711"><ele>867.0</ele><time>2026-04-24T14:55:53.228Z</time></trkpt><trkpt lat="44.571799" lon="10.0848532"><ele>867.0</ele><time>2026-04-24T14:55:54.227Z</time></trkpt><trkpt lat="44.5718483" lon="10.0847474"><ele>867.0</ele><time>2026-04-24T14:55:55.229Z</time></trkpt><trkpt lat="44.5719141" lon="10.0846617"><ele>867.0</ele><time>2026-04-24T14:55:56.229Z</time></trkpt><trkpt lat="44.5719684" lon="10.0845768"><ele>865.8333333333334</ele><time>2026-04-24T14:55:57.228Z</time></trkpt><trkpt lat="44.5720599" lon="10.0846193"><ele>864.6666666666667</ele><time>2026-04-24T14:55:58.228Z</time></trkpt><trkpt lat="44.572151" lon="10.0846452"><ele>863.5</ele><time>2026-04-24T14:55:59.227Z</time></trkpt><trkpt lat="44.5722267" lon="10.0846998"><ele>862.3333333333334</ele><time>2026-04-24T14:56:00.229Z</time></trkpt><trkpt lat="44.5722922" lon="10.0847735"><ele>861.1666666666667</ele><time>2026-04-24T14:56:01.228Z</time></trkpt><trkpt lat="44.5723577" lon="10.084852"><ele>860.0</ele><time>2026-04-24T14:56:02.228Z</time></trkpt><trkpt lat="44.5724197" lon="10.0849351"><ele>860.0</ele><time>2026-04-24T14:56:03.227Z</time></trkpt><trkpt lat="44.5725228" lon="10.0850748"><ele>860.0</ele><time>2026-04-24T14:56:04.228Z</time></trkpt><trkpt lat="44.5726152" lon="10.0851985"><ele>860.0</ele><time>2026-04-24T14:56:05.227Z</time></trkpt><trkpt lat="44.5727031" lon="10.0853131"><ele>860.0</ele><time>2026-04-24T14:56:06.227Z</time></trkpt><trkpt lat="44.5727919" lon="10.0854262"><ele>857.2</ele><time>2026-04-24T14:56:07.227Z</time></trkpt><trkpt lat="44.5728817" lon="10.0855152"><ele>854.4</ele><time>2026-04-24T14:56:08.228Z</time></trkpt><trkpt lat="44.5729794" lon="10.0855934"><ele>851.5999999999999</ele><time>2026-04-24T14:56:09.228Z</time></trkpt><trkpt lat="44.5730681" lon="10.0856688"><ele>848.8</ele><time>2026-04-24T14:56:10.229Z</time></trkpt><trkpt lat="44.5731584" lon="10.0857521"><ele>846.0</ele><time>2026-04-24T14:56:11.227Z</time></trkpt><trkpt lat="44.5732467" lon="10.085839"><ele>846.0</ele><time>2026-04-24T14:56:12.227Z</time></trkpt><trkpt lat="44.5733288" lon="10.0859327"><ele>846.0</ele><time>2026-04-24T14:56:13.228Z</time></trkpt><trkpt lat="44.5734222" lon="10.086037"><ele>846.0</ele><time>2026-04-24T14:56:14.228Z</time></trkpt><trkpt lat="44.5735132" lon="10.0861436"><ele>846.0</ele><time>2026-04-24T14:56:15.227Z</time></trkpt><trkpt lat="44.573613" lon="10.0862265"><ele>842.0</ele><time>2026-04-24T14:56:16.227Z</time></trkpt><trkpt lat="44.5737228" lon="10.0862889"><ele>838.0</ele><time>2026-04-24T14:56:17.229Z</time></trkpt><trkpt lat="44.5738348" lon="10.0863355"><ele>834.0</ele><time>2026-04-24T14:56:18.227Z</time></trkpt><trkpt lat="44.573948" lon="10.0863759"><ele>830.0</ele><time>2026-04-24T14:56:19.228Z</time></trkpt><trkpt lat="44.5740362" lon="10.0864424"><ele>830.0</ele><time>2026-04-24T14:56:20.228Z</time></trkpt><trkpt lat="44.5741326" lon="10.0865172"><ele>830.0</ele><time>2026-04-24T14:56:21.228Z</time></trkpt><trkpt lat="44.5742377" lon="10.0865854"><ele>830.0</ele><time>2026-04-24T14:56:22.228Z</time></trkpt><trkpt lat="44.5743365" lon="10.0866427"><ele>830.0</ele><time>2026-04-24T14:56:23.229Z</time></trkpt><trkpt lat="44.5744316" lon="10.0866988"><ele>830.0</ele><time>2026-04-24T14:56:24.228Z</time></trkpt><trkpt lat="44.5745004" lon="10.086741"><ele>829.3333333333334</ele><time>2026-04-24T14:56:25.228Z</time></trkpt><trkpt lat="44.5745681" lon="10.0867813"><ele>828.6666666666667</ele><time>2026-04-24T14:56:26.229Z</time></trkpt><trkpt lat="44.5746724" lon="10.0868485"><ele>828.0</ele><time>2026-04-24T14:56:28.228Z</time></trkpt><trkpt lat="44.5747546" lon="10.0868934"><ele>827.3333333333333</ele><time>2026-04-24T14:56:30.227Z</time></trkpt><trkpt lat="44.5748307" lon="10.0869047"><ele>826.6666666666666</ele><time>2026-04-24T14:56:33.228Z</time></trkpt><trkpt lat="44.5749036" lon="10.0869099"><ele>826.0</ele><time>2026-04-24T14:56:36.227Z</time></trkpt><trkpt lat="44.5749557" lon="10.0868"><ele>825.9999999999999</ele><time>2026-04-24T14:57:24.227Z</time></trkpt><trkpt lat="44.5750165" lon="10.0867495"><ele>826.0</ele><time>2026-04-24T14:57:27.227Z</time></trkpt><trkpt lat="44.5750719" lon="10.0867992"><ele>826.0</ele><time>2026-04-24T14:57:30.227Z</time></trkpt><trkpt lat="44.5751524" lon="10.0868724"><ele>826.0</ele><time>2026-04-24T14:57:33.227Z</time></trkpt><trkpt lat="44.5752251" lon="10.0868686"><ele>825.9999999999999</ele><time>2026-04-24T14:57:34.227Z</time></trkpt><trkpt lat="44.5753132" lon="10.086839"><ele>826.0</ele><time>2026-04-24T14:57:36.228Z</time></trkpt><trkpt lat="44.5754164" lon="10.0867678"><ele>824.8</ele><time>2026-04-24T14:57:38.226Z</time></trkpt><trkpt lat="44.5755256" lon="10.0867167"><ele>823.5999999999999</ele><time>2026-04-24T14:57:39.228Z</time></trkpt><trkpt lat="44.5756006" lon="10.0866639"><ele>822.4</ele><time>2026-04-24T14:57:40.227Z</time></trkpt><trkpt lat="44.5756742" lon="10.0866115"><ele>821.2</ele><time>2026-04-24T14:57:41.226Z</time></trkpt><trkpt lat="44.575742" lon="10.0865278"><ele>820.0</ele><time>2026-04-24T14:57:42.227Z</time></trkpt><trkpt lat="44.5758036" lon="10.0864559"><ele>819.9999999999999</ele><time>2026-04-24T14:57:43.228Z</time></trkpt><trkpt lat="44.5758568" lon="10.0863992"><ele>820.0</ele><time>2026-04-24T14:57:44.228Z</time></trkpt><trkpt lat="44.5759267" lon="10.0863351"><ele>820.0</ele><time>2026-04-24T14:57:45.228Z</time></trkpt><trkpt lat="44.5759741" lon="10.0862584"><ele>820.0</ele><time>2026-04-24T14:57:46.228Z</time></trkpt><trkpt lat="44.5760329" lon="10.0861815"><ele>819.9999999999999</ele><time>2026-04-24T14:57:47.226Z</time></trkpt><trkpt lat="44.5760735" lon="10.0861027"><ele>820.0</ele><time>2026-04-24T14:57:48.226Z</time></trkpt><trkpt lat="44.5761321" lon="10.0860136"><ele>819.9999999999999</ele><time>2026-04-24T14:57:49.226Z</time></trkpt><trkpt lat="44.5761771" lon="10.0859457"><ele>820.0</ele><time>2026-04-24T14:57:50.226Z</time></trkpt><trkpt lat="44.5762398" lon="10.0858903"><ele>820.0</ele><time>2026-04-24T14:57:51.226Z</time></trkpt><trkpt lat="44.5762918" lon="10.0858164"><ele>820.0</ele><time>2026-04-24T14:57:52.226Z</time></trkpt><trkpt lat="44.5763482" lon="10.0857114"><ele>819.9999999999999</ele><time>2026-04-24T14:57:53.227Z</time></trkpt><trkpt lat="44.5763648" lon="10.0855885"><ele>820.0</ele><time>2026-04-24T14:57:54.226Z</time></trkpt><trkpt lat="44.5763988" lon="10.0855062"><ele>819.3333333333333</ele><time>2026-04-24T14:57:55.226Z</time></trkpt><trkpt lat="44.5764425" lon="10.0854088"><ele>818.6666666666666</ele><time>2026-04-24T14:57:56.226Z</time></trkpt><trkpt lat="44.5764813" lon="10.0853219"><ele>818.0</ele><time>2026-04-24T14:57:57.227Z</time></trkpt><trkpt lat="44.57654" lon="10.0852543"><ele>817.3333333333333</ele><time>2026-04-24T14:57:58.227Z</time></trkpt><trkpt lat="44.5766195" lon="10.0851911"><ele>816.6666666666666</ele><time>2026-04-24T14:57:59.226Z</time></trkpt><trkpt lat="44.5766916" lon="10.0851313"><ele>816.0</ele><time>2026-04-24T14:58:01.227Z</time></trkpt><trkpt lat="44.5768152" lon="10.0850964"><ele>816.0</ele><time>2026-04-24T14:58:03.228Z</time></trkpt><trkpt lat="44.5769286" lon="10.0850288"><ele>816.0</ele><time>2026-04-24T14:58:05.228Z</time></trkpt><trkpt lat="44.5770365" lon="10.0849194"><ele>816.0</ele><time>2026-04-24T14:58:07.228Z</time></trkpt><trkpt lat="44.577132" lon="10.0848398"><ele>816.0</ele><time>2026-04-24T14:58:09.227Z</time></trkpt><trkpt lat="44.5771315" lon="10.0847098"><ele>814.3333333333334</ele><time>2026-04-24T14:58:11.227Z</time></trkpt><trkpt lat="44.5771545" lon="10.0845951"><ele>812.6666666666667</ele><time>2026-04-24T14:58:13.227Z</time></trkpt><trkpt lat="44.5771996" lon="10.0845072"><ele>811.0</ele><time>2026-04-24T14:58:15.227Z</time></trkpt><trkpt lat="44.57724" lon="10.0843722"><ele>809.3333333333334</ele><time>2026-04-24T14:58:17.227Z</time></trkpt><trkpt lat="44.5772891" lon="10.0842346"><ele>807.6666666666667</ele><time>2026-04-24T14:58:19.227Z</time></trkpt><trkpt lat="44.5772973" lon="10.0841446"><ele>806.0</ele><time>2026-04-24T14:58:20.226Z</time></trkpt><trkpt lat="44.5773235" lon="10.084048"><ele>804.1666666666667</ele><time>2026-04-24T14:58:22.227Z</time></trkpt><trkpt lat="44.5773404" lon="10.0839397"><ele>802.3333333333334</ele><time>2026-04-24T14:58:24.226Z</time></trkpt><trkpt lat="44.5773832" lon="10.0837933"><ele>800.5</ele><time>2026-04-24T14:58:26.227Z</time></trkpt><trkpt lat="44.5774457" lon="10.0836891"><ele>798.6666666666667</ele><time>2026-04-24T14:58:29.227Z</time></trkpt><trkpt lat="44.5774987" lon="10.0836285"><ele>796.8333333333334</ele><time>2026-04-24T14:58:30.227Z</time></trkpt><trkpt lat="44.5775147" lon="10.083537"><ele>795.0</ele><time>2026-04-24T14:58:31.228Z</time></trkpt><trkpt lat="44.5776057" lon="10.0834314"><ele>795.0</ele><time>2026-04-24T14:58:33.227Z</time></trkpt><trkpt lat="44.5776835" lon="10.0833291"><ele>795.0</ele><time>2026-04-24T14:58:35.227Z</time></trkpt><trkpt lat="44.5777663" lon="10.0832627"><ele>795.0</ele><time>2026-04-24T14:58:37.228Z</time></trkpt><trkpt lat="44.577862" lon="10.0831523"><ele>795.0</ele><time>2026-04-24T14:58:39.228Z</time></trkpt><trkpt lat="44.5779139" lon="10.083101"><ele>795.0</ele><time>2026-04-24T14:58:40.226Z</time></trkpt><trkpt lat="44.5780104" lon="10.0830119"><ele>792.7142857142858</ele><time>2026-04-24T14:58:42.226Z</time></trkpt><trkpt lat="44.5780763" lon="10.0829931"><ele>790.4285714285714</ele><time>2026-04-24T14:58:44.227Z</time></trkpt><trkpt lat="44.5781478" lon="10.0829831"><ele>788.1428571428571</ele><time>2026-04-24T14:58:47.227Z</time></trkpt><trkpt lat="44.5782119" lon="10.0830629"><ele>785.8571428571429</ele><time>2026-04-24T14:58:50.227Z</time></trkpt><trkpt lat="44.5782522" lon="10.0831456"><ele>783.5714285714286</ele><time>2026-04-24T14:58:52.227Z</time></trkpt><trkpt lat="44.5782846" lon="10.0832232"><ele>781.2857142857143</ele><time>2026-04-24T14:58:54.226Z</time></trkpt><trkpt lat="44.5783549" lon="10.0832647"><ele>779.0</ele><time>2026-04-24T14:58:57.226Z</time></trkpt><trkpt lat="44.5784348" lon="10.0831926"><ele>777.3333333333334</ele><time>2026-04-24T14:59:00.228Z</time></trkpt><trkpt lat="44.5784657" lon="10.0831017"><ele>775.6666666666667</ele><time>2026-04-24T14:59:02.227Z</time></trkpt><trkpt lat="44.5785136" lon="10.0830312"><ele>774.0</ele><time>2026-04-24T14:59:04.227Z</time></trkpt><trkpt lat="44.5785626" lon="10.0829681"><ele>772.3333333333333</ele><time>2026-04-24T14:59:06.227Z</time></trkpt><trkpt lat="44.5786317" lon="10.082896"><ele>770.6666666666666</ele><time>2026-04-24T14:59:08.227Z</time></trkpt><trkpt lat="44.5786921" lon="10.0828007"><ele>769.0</ele><time>2026-04-24T14:59:10.228Z</time></trkpt><trkpt lat="44.5787764" lon="10.0827039"><ele>766.3333333333333</ele><time>2026-04-24T14:59:12.228Z</time></trkpt><trkpt lat="44.5788297" lon="10.0826464"><ele>763.6666666666666</ele><time>2026-04-24T14:59:13.227Z</time></trkpt><trkpt lat="44.5788883" lon="10.0826034"><ele>761.0</ele><time>2026-04-24T14:59:14.228Z</time></trkpt><trkpt lat="44.578948" lon="10.0825098"><ele>758.3333333333333</ele><time>2026-04-24T14:59:16.226Z</time></trkpt><trkpt lat="44.5789673" lon="10.0823883"><ele>755.6666666666666</ele><time>2026-04-24T14:59:18.226Z</time></trkpt><trkpt lat="44.5789708" lon="10.0822924"><ele>753.0</ele><time>2026-04-24T14:59:20.228Z</time></trkpt><trkpt lat="44.5789962" lon="10.082173"><ele>750.8</ele><time>2026-04-24T14:59:22.227Z</time></trkpt><trkpt lat="44.5790417" lon="10.0820634"><ele>748.5999999999999</ele><time>2026-04-24T14:59:25.226Z</time></trkpt><trkpt lat="44.5790374" lon="10.0819588"><ele>746.4000000000001</ele><time>2026-04-24T14:59:34.227Z</time></trkpt><trkpt lat="44.5790155" lon="10.0820461"><ele>744.2</ele><time>2026-04-24T15:01:10.228Z</time></trkpt><trkpt lat="44.5789899" lon="10.0822281"><ele>742.0</ele><time>2026-04-24T15:01:13.226Z</time></trkpt><trkpt lat="44.5789551" lon="10.0823424"><ele>744.2</ele><time>2026-04-24T15:01:14.226Z</time></trkpt><trkpt lat="44.5789351" lon="10.0824605"><ele>746.4000000000001</ele><time>2026-04-24T15:01:15.226Z</time></trkpt><trkpt lat="44.5789133" lon="10.0825935"><ele>748.5999999999999</ele><time>2026-04-24T15:01:17.228Z</time></trkpt><trkpt lat="44.5788239" lon="10.0827158"><ele>750.8</ele><time>2026-04-24T15:01:19.228Z</time></trkpt><trkpt lat="44.578756" lon="10.0827874"><ele>753.0</ele><time>2026-04-24T15:01:20.226Z</time></trkpt><trkpt lat="44.5786729" lon="10.0828425"><ele>756.2</ele><time>2026-04-24T15:01:21.226Z</time></trkpt><trkpt lat="44.5785771" lon="10.0829446"><ele>759.4</ele><time>2026-04-24T15:01:23.227Z</time></trkpt><trkpt lat="44.5784804" lon="10.0830483"><ele>762.6</ele><time>2026-04-24T15:01:25.227Z</time></trkpt><trkpt lat="44.5784112" lon="10.0831838"><ele>765.8000000000001</ele><time>2026-04-24T15:01:27.226Z</time></trkpt><trkpt lat="44.5783518" lon="10.0832445"><ele>769.0</ele><time>2026-04-24T15:01:29.226Z</time></trkpt><trkpt lat="44.5782877" lon="10.0831934"><ele>769.0</ele><time>2026-04-24T15:01:31.226Z</time></trkpt><trkpt lat="44.5782412" lon="10.0830927"><ele>769.0</ele><time>2026-04-24T15:01:33.227Z</time></trkpt><trkpt lat="44.5781659" lon="10.0829948"><ele>769.0</ele><time>2026-04-24T15:01:35.227Z</time></trkpt><trkpt lat="44.5781041" lon="10.0829421"><ele>769.0</ele><time>2026-04-24T15:01:37.226Z</time></trkpt><trkpt lat="44.5780094" lon="10.0830638"><ele>769.0</ele><time>2026-04-24T15:01:38.225Z</time></trkpt><trkpt lat="44.5778821" lon="10.0832197"><ele>773.3333333333333</ele><time>2026-04-24T15:01:40.225Z</time></trkpt><trkpt lat="44.5777958" lon="10.0833025"><ele>777.6666666666666</ele><time>2026-04-24T15:01:42.227Z</time></trkpt><trkpt lat="44.5777055" lon="10.0833677"><ele>782.0</ele><time>2026-04-24T15:01:44.226Z</time></trkpt><trkpt lat="44.5776554" lon="10.083424"><ele>786.3333333333333</ele><time>2026-04-24T15:01:45.225Z</time></trkpt><trkpt lat="44.5776064" lon="10.083494"><ele>790.6666666666666</ele><time>2026-04-24T15:01:46.227Z</time></trkpt><trkpt lat="44.5775472" lon="10.0835654"><ele>795.0</ele><time>2026-04-24T15:01:47.226Z</time></trkpt><trkpt lat="44.5774571" lon="10.0836456"><ele>795.0</ele><time>2026-04-24T15:01:49.225Z</time></trkpt><trkpt lat="44.5774133" lon="10.0837403"><ele>795.0</ele><time>2026-04-24T15:01:50.225Z</time></trkpt><trkpt lat="44.5773638" lon="10.0838301"><ele>795.0</ele><time>2026-04-24T15:01:51.226Z</time></trkpt><trkpt lat="44.5773206" lon="10.0839545"><ele>795.0</ele><time>2026-04-24T15:01:52.225Z</time></trkpt><trkpt lat="44.5772697" lon="10.0840508"><ele>795.0</ele><time>2026-04-24T15:01:53.225Z</time></trkpt><trkpt lat="44.5772473" lon="10.08416"><ele>795.0</ele><time>2026-04-24T15:01:54.226Z</time></trkpt><trkpt lat="44.5772315" lon="10.0842909"><ele>796.8333333333334</ele><time>2026-04-24T15:01:55.225Z</time></trkpt><trkpt lat="44.5772129" lon="10.0843773"><ele>798.6666666666667</ele><time>2026-04-24T15:01:56.225Z</time></trkpt><trkpt lat="44.5771813" lon="10.0844556"><ele>800.5</ele><time>2026-04-24T15:01:57.226Z</time></trkpt><trkpt lat="44.5771209" lon="10.0846252"><ele>802.3333333333334</ele><time>2026-04-24T15:01:59.226Z</time></trkpt><trkpt lat="44.577106" lon="10.0847358"><ele>804.1666666666667</ele><time>2026-04-24T15:02:00.225Z</time></trkpt><trkpt lat="44.5770613" lon="10.0848565"><ele>806.0</ele><time>2026-04-24T15:02:02.227Z</time></trkpt><trkpt lat="44.5769561" lon="10.0849686"><ele>808.0</ele><time>2026-04-24T15:02:04.225Z</time></trkpt><trkpt lat="44.576895" lon="10.0850269"><ele>810.0</ele><time>2026-04-24T15:02:05.226Z</time></trkpt><trkpt lat="44.5768288" lon="10.0850663"><ele>812.0</ele><time>2026-04-24T15:02:06.226Z</time></trkpt><trkpt lat="44.5767215" lon="10.0851282"><ele>814.0</ele><time>2026-04-24T15:02:08.226Z</time></trkpt><trkpt lat="44.5766395" lon="10.0852051"><ele>816.0</ele><time>2026-04-24T15:02:10.225Z</time></trkpt><trkpt lat="44.5765554" lon="10.0852954"><ele>816.0</ele><time>2026-04-24T15:02:11.226Z</time></trkpt><trkpt lat="44.5764822" lon="10.0853785"><ele>816.0</ele><time>2026-04-24T15:02:12.225Z</time></trkpt><trkpt lat="44.5764543" lon="10.0854863"><ele>816.0</ele><time>2026-04-24T15:02:13.226Z</time></trkpt><trkpt lat="44.5764212" lon="10.0855903"><ele>816.0</ele><time>2026-04-24T15:02:14.226Z</time></trkpt><trkpt lat="44.5763783" lon="10.0856801"><ele>816.0</ele><time>2026-04-24T15:02:15.224Z</time></trkpt><trkpt lat="44.5763348" lon="10.0857689"><ele>816.0</ele><time>2026-04-24T15:02:16.226Z</time></trkpt><trkpt lat="44.576268" lon="10.0858304"><ele>816.8</ele><time>2026-04-24T15:02:17.225Z</time></trkpt><trkpt lat="44.5762" lon="10.0859368"><ele>817.5999999999999</ele><time>2026-04-24T15:02:18.225Z</time></trkpt><trkpt lat="44.576114" lon="10.0860308"><ele>818.4</ele><time>2026-04-24T15:02:19.226Z</time></trkpt><trkpt lat="44.576042" lon="10.0861305"><ele>819.2</ele><time>2026-04-24T15:02:20.226Z</time></trkpt><trkpt lat="44.5759768" lon="10.0862396"><ele>820.0</ele><time>2026-04-24T15:02:21.226Z</time></trkpt><trkpt lat="44.5759201" lon="10.0863162"><ele>820.0</ele><time>2026-04-24T15:02:22.225Z</time></trkpt><trkpt lat="44.5758623" lon="10.0863769"><ele>820.0</ele><time>2026-04-24T15:02:23.226Z</time></trkpt><trkpt lat="44.5757936" lon="10.0864579"><ele>820.0</ele><time>2026-04-24T15:02:24.226Z</time></trkpt><trkpt lat="44.5757081" lon="10.0865359"><ele>820.0</ele><time>2026-04-24T15:02:25.226Z</time></trkpt><trkpt lat="44.5756266" lon="10.086605"><ele>820.0</ele><time>2026-04-24T15:02:26.226Z</time></trkpt><trkpt lat="44.5755091" lon="10.0867324"><ele>819.4</ele><time>2026-04-24T15:02:27.225Z</time></trkpt><trkpt lat="44.5754045" lon="10.0868083"><ele>818.8</ele><time>2026-04-24T15:02:28.226Z</time></trkpt><trkpt lat="44.5753113" lon="10.0868536"><ele>818.2</ele><time>2026-04-24T15:02:29.226Z</time></trkpt><trkpt lat="44.575242" lon="10.0868958"><ele>817.6</ele><time>2026-04-24T15:02:30.226Z</time></trkpt><trkpt lat="44.5751589" lon="10.0869136"><ele>817.0</ele><time>2026-04-24T15:02:31.225Z</time></trkpt><trkpt lat="44.5750531" lon="10.0869331"><ele>818.2857142857142</ele><time>2026-04-24T15:02:32.225Z</time></trkpt><trkpt lat="44.5749839" lon="10.086956"><ele>819.5714285714286</ele><time>2026-04-24T15:02:33.225Z</time></trkpt><trkpt lat="44.574913" lon="10.0869986"><ele>820.8571428571429</ele><time>2026-04-24T15:02:34.226Z</time></trkpt><trkpt lat="44.5748309" lon="10.0870246"><ele>822.1428571428571</ele><time>2026-04-24T15:02:36.225Z</time></trkpt><trkpt lat="44.5748239" lon="10.0869142"><ele>823.4285714285714</ele><time>2026-04-24T15:02:40.225Z</time></trkpt><trkpt lat="44.574875" lon="10.0869753"><ele>824.7142857142857</ele><time>2026-04-24T15:03:11.225Z</time></trkpt><trkpt lat="44.5749402" lon="10.0869774"><ele>826.0</ele><time>2026-04-24T15:03:14.226Z</time></trkpt><trkpt lat="44.5750082" lon="10.0869178"><ele>826.0</ele><time>2026-04-24T15:03:17.225Z</time></trkpt><trkpt lat="44.575106" lon="10.0868894"><ele>826.0</ele><time>2026-04-24T15:03:19.225Z</time></trkpt><trkpt lat="44.5752202" lon="10.0868614"><ele>826.0</ele><time>2026-04-24T15:03:21.227Z</time></trkpt><trkpt lat="44.5753177" lon="10.0868352"><ele>826.0</ele><time>2026-04-24T15:03:23.227Z</time></trkpt><trkpt lat="44.5754038" lon="10.0867752"><ele>826.0</ele><time>2026-04-24T15:03:25.225Z</time></trkpt><trkpt lat="44.5754707" lon="10.0867271"><ele>824.9999999999999</ele><time>2026-04-24T15:03:26.227Z</time></trkpt><trkpt lat="44.5755302" lon="10.0866821"><ele>824.0</ele><time>2026-04-24T15:03:27.226Z</time></trkpt><trkpt lat="44.5755903" lon="10.0866381"><ele>823.0</ele><time>2026-04-24T15:03:28.225Z</time></trkpt><trkpt lat="44.5756517" lon="10.0865946"><ele>822.0</ele><time>2026-04-24T15:03:29.226Z</time></trkpt><trkpt lat="44.5757308" lon="10.0865303"><ele>820.9999999999999</ele><time>2026-04-24T15:03:31.225Z</time></trkpt><trkpt lat="44.5758553" lon="10.0864124"><ele>820.0</ele><time>2026-04-24T15:03:33.226Z</time></trkpt><trkpt lat="44.5758921" lon="10.0863388"><ele>819.9999999999999</ele><time>2026-04-24T15:03:34.226Z</time></trkpt><trkpt lat="44.5759501" lon="10.0862549"><ele>820.0</ele><time>2026-04-24T15:03:35.226Z</time></trkpt><trkpt lat="44.5760175" lon="10.0861404"><ele>820.0</ele><time>2026-04-24T15:03:37.226Z</time></trkpt><trkpt lat="44.576079" lon="10.0860775"><ele>820.0</ele><time>2026-04-24T15:03:38.226Z</time></trkpt><trkpt lat="44.5761301" lon="10.0860157"><ele>819.9999999999999</ele><time>2026-04-24T15:03:39.226Z</time></trkpt><trkpt lat="44.5761956" lon="10.0859525"><ele>820.0</ele><time>2026-04-24T15:03:40.226Z</time></trkpt><trkpt lat="44.5762497" lon="10.0858921"><ele>819.3333333333333</ele><time>2026-04-24T15:03:41.226Z</time></trkpt><trkpt lat="44.5763051" lon="10.0857972"><ele>818.6666666666666</ele><time>2026-04-24T15:03:42.226Z</time></trkpt><trkpt lat="44.5763511" lon="10.085693"><ele>818.0</ele><time>2026-04-24T15:03:43.227Z</time></trkpt><trkpt lat="44.5763775" lon="10.0855991"><ele>817.3333333333333</ele><time>2026-04-24T15:03:44.226Z</time></trkpt><trkpt lat="44.5764193" lon="10.0855204"><ele>816.6666666666666</ele><time>2026-04-24T15:03:45.226Z</time></trkpt><trkpt lat="44.5764662" lon="10.0854167"><ele>816.0</ele><time>2026-04-24T15:03:46.227Z</time></trkpt><trkpt lat="44.5765718" lon="10.0852756"><ele>816.0</ele><time>2026-04-24T15:03:48.226Z</time></trkpt><trkpt lat="44.5766373" lon="10.0852072"><ele>816.0</ele><time>2026-04-24T15:03:49.225Z</time></trkpt><trkpt lat="44.5767099" lon="10.085093"><ele>816.0</ele><time>2026-04-24T15:03:51.227Z</time></trkpt><trkpt lat="44.5767827" lon="10.0850709"><ele>816.0</ele><time>2026-04-24T15:03:57.226Z</time></trkpt><trkpt lat="44.576863" lon="10.0850423"><ele>816.0</ele><time>2026-04-24T15:04:00.226Z</time></trkpt><trkpt lat="44.5769751" lon="10.0849509"><ele>814.0</ele><time>2026-04-24T15:04:02.226Z</time></trkpt><trkpt lat="44.5770584" lon="10.0848789"><ele>812.0</ele><time>2026-04-24T15:04:04.226Z</time></trkpt><trkpt lat="44.5770955" lon="10.084755"><ele>810.0</ele><time>2026-04-24T15:04:06.227Z</time></trkpt><trkpt lat="44.5771118" lon="10.0846373"><ele>808.0</ele><time>2026-04-24T15:04:08.226Z</time></trkpt><trkpt lat="44.5771499" lon="10.0845283"><ele>806.0</ele><time>2026-04-24T15:04:10.226Z</time></trkpt><trkpt lat="44.5772112" lon="10.0844323"><ele>806.0</ele><time>2026-04-24T15:04:12.225Z</time></trkpt><trkpt lat="44.5772365" lon="10.0843034"><ele>806.0</ele><time>2026-04-24T15:04:14.227Z</time></trkpt><trkpt lat="44.5772631" lon="10.0841444"><ele>806.0</ele><time>2026-04-24T15:04:16.226Z</time></trkpt><trkpt lat="44.5772908" lon="10.0840321"><ele>806.0</ele><time>2026-04-24T15:04:18.226Z</time></trkpt><trkpt lat="44.5773409" lon="10.0839238"><ele>806.0</ele><time>2026-04-24T15:04:20.226Z</time></trkpt><trkpt lat="44.5773684" lon="10.0838305"><ele>803.25</ele><time>2026-04-24T15:04:22.225Z</time></trkpt><trkpt lat="44.5774215" lon="10.0837363"><ele>800.5</ele><time>2026-04-24T15:04:24.227Z</time></trkpt><trkpt lat="44.5774896" lon="10.0835851"><ele>797.75</ele><time>2026-04-24T15:04:26.226Z</time></trkpt><trkpt lat="44.5776031" lon="10.0834895"><ele>795.0</ele><time>2026-04-24T15:04:28.225Z</time></trkpt><trkpt lat="44.5776771" lon="10.0833628"><ele>795.0</ele><time>2026-04-24T15:04:30.226Z</time></trkpt><trkpt lat="44.577743" lon="10.083285"><ele>795.0</ele><time>2026-04-24T15:04:32.225Z</time></trkpt><trkpt lat="44.5778182" lon="10.0832255"><ele>795.0</ele><time>2026-04-24T15:04:34.225Z</time></trkpt><trkpt lat="44.5778994" lon="10.0831029"><ele>795.0</ele><time>2026-04-24T15:04:36.226Z</time></trkpt><trkpt lat="44.5779608" lon="10.08306"><ele>795.0</ele><time>2026-04-24T15:04:37.226Z</time></trkpt><trkpt lat="44.5780365" lon="10.0830053"><ele>795.0</ele><time>2026-04-24T15:04:38.227Z</time></trkpt><trkpt lat="44.5781363" lon="10.0829879"><ele>790.6666666666666</ele><time>2026-04-24T15:04:40.226Z</time></trkpt><trkpt lat="44.5782164" lon="10.0830425"><ele>786.3333333333333</ele><time>2026-04-24T15:04:42.225Z</time></trkpt><trkpt lat="44.5782665" lon="10.0831188"><ele>782.0</ele><time>2026-04-24T15:04:44.226Z</time></trkpt><trkpt lat="44.5782911" lon="10.0832299"><ele>777.6666666666666</ele><time>2026-04-24T15:04:46.225Z</time></trkpt><trkpt lat="44.5783672" lon="10.0832567"><ele>773.3333333333333</ele><time>2026-04-24T15:04:49.226Z</time></trkpt><trkpt lat="44.5784486" lon="10.083237"><ele>769.0</ele><time>2026-04-24T15:04:51.224Z</time></trkpt><trkpt lat="44.5784853" lon="10.083133"><ele>769.0</ele><time>2026-04-24T15:04:54.225Z</time></trkpt><trkpt lat="44.5785436" lon="10.0830146"><ele>769.0</ele><time>2026-04-24T15:04:56.225Z</time></trkpt><trkpt lat="44.5786093" lon="10.0829125"><ele>769.0</ele><time>2026-04-24T15:04:58.225Z</time></trkpt><trkpt lat="44.5786686" lon="10.0828591"><ele>769.0</ele><time>2026-04-24T15:05:00.224Z</time></trkpt><trkpt lat="44.5787126" lon="10.082785"><ele>769.0</ele><time>2026-04-24T15:05:01.224Z</time></trkpt><trkpt lat="44.5788097" lon="10.0826958"><ele>765.8000000000001</ele><time>2026-04-24T15:05:03.224Z</time></trkpt><trkpt lat="44.57889" lon="10.0825408"><ele>762.6</ele><time>2026-04-24T15:05:05.224Z</time></trkpt><trkpt lat="44.5789332" lon="10.0824546"><ele>759.4</ele><time>2026-04-24T15:05:07.224Z</time></trkpt><trkpt lat="44.5789585" lon="10.0823483"><ele>756.2</ele><time>2026-04-24T15:05:09.224Z</time></trkpt><trkpt lat="44.5789727" lon="10.082223"><ele>753.0</ele><time>2026-04-24T15:05:11.225Z</time></trkpt><trkpt lat="44.5789871" lon="10.0821256"><ele>751.1666666666666</ele><time>2026-04-24T15:05:13.225Z</time></trkpt><trkpt lat="44.5790295" lon="10.0820304"><ele>749.3333333333334</ele><time>2026-04-24T15:05:15.225Z</time></trkpt><trkpt lat="44.5790784" lon="10.0819166"><ele>747.5</ele><time>2026-04-24T15:05:17.225Z</time></trkpt><trkpt lat="44.5791483" lon="10.0818854"><ele>745.6666666666667</ele><time>2026-04-24T15:05:19.224Z</time></trkpt><trkpt lat="44.5792263" lon="10.081883"><ele>743.8333333333334</ele><time>2026-04-24T15:05:21.224Z</time></trkpt><trkpt lat="44.5792938" lon="10.0818771"><ele>742.0</ele><time>2026-04-24T15:05:22.225Z</time></trkpt><trkpt lat="44.5793912" lon="10.0818941"><ele>742.0</ele><time>2026-04-24T15:05:24.224Z</time></trkpt><trkpt lat="44.5794485" lon="10.0818452"><ele>742.0</ele><time>2026-04-24T15:05:27.224Z</time></trkpt><trkpt lat="44.5794215" lon="10.0817591"><ele>742.0</ele><time>2026-04-24T15:05:30.224Z</time></trkpt><trkpt lat="44.5793587" lon="10.0816857"><ele>742.0</ele><time>2026-04-24T15:05:32.224Z</time></trkpt><trkpt lat="44.5792754" lon="10.0815798"><ele>742.0</ele><time>2026-04-24T15:05:34.225Z</time></trkpt><trkpt lat="44.5792088" lon="10.0814838"><ele>742.0</ele><time>2026-04-24T15:05:36.225Z</time></trkpt><trkpt lat="44.5791327" lon="10.0814124"><ele>739.5714285714286</ele><time>2026-04-24T15:05:38.225Z</time></trkpt><trkpt lat="44.5790488" lon="10.0813544"><ele>737.1428571428571</ele><time>2026-04-24T15:05:40.226Z</time></trkpt><trkpt lat="44.5789882" lon="10.0813291"><ele>734.7142857142858</ele><time>2026-04-24T15:05:41.224Z</time></trkpt><trkpt lat="44.5789152" lon="10.0813021"><ele>732.2857142857142</ele><time>2026-04-24T15:05:42.225Z</time></trkpt><trkpt lat="44.5788492" lon="10.0812663"><ele>729.8571428571429</ele><time>2026-04-24T15:05:43.224Z</time></trkpt><trkpt lat="44.5787926" lon="10.0812018"><ele>727.4285714285714</ele><time>2026-04-24T15:05:44.226Z</time></trkpt><trkpt lat="44.5787342" lon="10.0811525"><ele>725.0</ele><time>2026-04-24T15:05:45.225Z</time></trkpt><trkpt lat="44.5786922" lon="10.0810814"><ele>725.3333333333333</ele><time>2026-04-24T15:05:46.225Z</time></trkpt><trkpt lat="44.5786361" lon="10.0810323"><ele>725.6666666666666</ele><time>2026-04-24T15:05:47.224Z</time></trkpt><trkpt lat="44.5785631" lon="10.080957"><ele>726.0</ele><time>2026-04-24T15:05:48.224Z</time></trkpt><trkpt lat="44.5784805" lon="10.080944"><ele>726.3333333333334</ele><time>2026-04-24T15:05:49.225Z</time></trkpt><trkpt lat="44.5784139" lon="10.0809064"><ele>726.6666666666667</ele><time>2026-04-24T15:05:50.226Z</time></trkpt><trkpt lat="44.5782849" lon="10.0808572"><ele>727.0</ele><time>2026-04-24T15:05:52.224Z</time></trkpt><trkpt lat="44.5781979" lon="10.0808435"><ele>727.0</ele><time>2026-04-24T15:05:53.225Z</time></trkpt><trkpt lat="44.5781261" lon="10.0808311"><ele>727.0</ele><time>2026-04-24T15:05:54.224Z</time></trkpt><trkpt lat="44.5780117" lon="10.0807813"><ele>727.0</ele><time>2026-04-24T15:05:56.225Z</time></trkpt><trkpt lat="44.5779034" lon="10.0807111"><ele>727.0</ele><time>2026-04-24T15:05:58.225Z</time></trkpt><trkpt lat="44.5778409" lon="10.080675"><ele>727.0</ele><time>2026-04-24T15:05:59.225Z</time></trkpt><trkpt lat="44.577782" lon="10.080634"><ele>727.0</ele><time>2026-04-24T15:06:00.224Z</time></trkpt><trkpt lat="44.5776816" lon="10.0805316"><ele>724.6666666666667</ele><time>2026-04-24T15:06:02.224Z</time></trkpt><trkpt lat="44.5776307" lon="10.0804713"><ele>722.3333333333334</ele><time>2026-04-24T15:06:03.224Z</time></trkpt><trkpt lat="44.5775804" lon="10.0804171"><ele>720.0</ele><time>2026-04-24T15:06:04.225Z</time></trkpt><trkpt lat="44.5775104" lon="10.0802616"><ele>717.6666666666666</ele><time>2026-04-24T15:06:06.224Z</time></trkpt><trkpt lat="44.5774681" lon="10.0801803"><ele>715.3333333333333</ele><time>2026-04-24T15:06:07.224Z</time></trkpt><trkpt lat="44.5774082" lon="10.0800621"><ele>713.0</ele><time>2026-04-24T15:06:09.224Z</time></trkpt><trkpt lat="44.577308" lon="10.0800212"><ele>713.0</ele><time>2026-04-24T15:06:11.224Z</time></trkpt><trkpt lat="44.5772481" lon="10.0799629"><ele>713.0</ele><time>2026-04-24T15:06:12.225Z</time></trkpt><trkpt lat="44.5771787" lon="10.079842"><ele>713.0</ele><time>2026-04-24T15:06:14.225Z</time></trkpt><trkpt lat="44.577171" lon="10.0797518"><ele>713.0</ele><time>2026-04-24T15:06:15.226Z</time></trkpt><trkpt lat="44.5771631" lon="10.079662"><ele>713.0</ele><time>2026-04-24T15:06:16.225Z</time></trkpt><trkpt lat="44.5771278" lon="10.0795681"><ele>713.0</ele><time>2026-04-24T15:06:17.224Z</time></trkpt><trkpt lat="44.5770969" lon="10.079474"><ele>710.6666666666666</ele><time>2026-04-24T15:06:18.224Z</time></trkpt><trkpt lat="44.5770012" lon="10.0793763"><ele>708.3333333333333</ele><time>2026-04-24T15:06:19.224Z</time></trkpt><trkpt lat="44.5769483" lon="10.0792959"><ele>706.0</ele><time>2026-04-24T15:06:20.225Z</time></trkpt><trkpt lat="44.5768845" lon="10.0792273"><ele>703.6666666666666</ele><time>2026-04-24T15:06:21.226Z</time></trkpt><trkpt lat="44.5768222" lon="10.0792038"><ele>701.3333333333334</ele><time>2026-04-24T15:06:22.226Z</time></trkpt><trkpt lat="44.576729" lon="10.0792568"><ele>699.0</ele><time>2026-04-24T15:06:24.224Z</time></trkpt><trkpt lat="44.5766943" lon="10.0793613"><ele>699.0</ele><time>2026-04-24T15:06:25.224Z</time></trkpt><trkpt lat="44.5766508" lon="10.0795159"><ele>699.0</ele><time>2026-04-24T15:06:27.225Z</time></trkpt><trkpt lat="44.5765772" lon="10.0794845"><ele>699.0</ele><time>2026-04-24T15:06:29.224Z</time></trkpt><trkpt lat="44.5765877" lon="10.0793833"><ele>699.0</ele><time>2026-04-24T15:06:32.225Z</time></trkpt><trkpt lat="44.5766048" lon="10.0792719"><ele>699.0</ele><time>2026-04-24T15:06:35.225Z</time></trkpt><trkpt lat="44.5766164" lon="10.0791836"><ele>699.0</ele><time>2026-04-24T15:06:37.225Z</time></trkpt><trkpt lat="44.5766276" lon="10.0790911"><ele>697.4000000000001</ele><time>2026-04-24T15:06:39.224Z</time></trkpt><trkpt lat="44.5766368" lon="10.0789937"><ele>695.8</ele><time>2026-04-24T15:06:41.226Z</time></trkpt><trkpt lat="44.5766444" lon="10.0788986"><ele>694.2</ele><time>2026-04-24T15:06:43.224Z</time></trkpt><trkpt lat="44.5766647" lon="10.0787873"><ele>692.5999999999999</ele><time>2026-04-24T15:06:45.225Z</time></trkpt><trkpt lat="44.5766908" lon="10.0786382"><ele>691.0</ele><time>2026-04-24T15:06:47.224Z</time></trkpt><trkpt lat="44.5767119" lon="10.0784719"><ele>691.0</ele><time>2026-04-24T15:06:49.225Z</time></trkpt><trkpt lat="44.5767141" lon="10.0783785"><ele>691.0</ele><time>2026-04-24T15:06:50.224Z</time></trkpt><trkpt lat="44.5767085" lon="10.0782792"><ele>691.0</ele><time>2026-04-24T15:06:51.224Z</time></trkpt><trkpt lat="44.5767051" lon="10.0781763"><ele>691.0</ele><time>2026-04-24T15:06:52.224Z</time></trkpt><trkpt lat="44.5766938" lon="10.0780561"><ele>691.0</ele><time>2026-04-24T15:06:53.224Z</time></trkpt><trkpt lat="44.5766834" lon="10.0779343"><ele>691.0</ele><time>2026-04-24T15:06:54.226Z</time></trkpt><trkpt lat="44.5766672" lon="10.0778139"><ele>690.0</ele><time>2026-04-24T15:06:55.226Z</time></trkpt><trkpt lat="44.576651" lon="10.0776756"><ele>689.0</ele><time>2026-04-24T15:06:56.225Z</time></trkpt><trkpt lat="44.576637" lon="10.0775247"><ele>688.0</ele><time>2026-04-24T15:06:57.226Z</time></trkpt><trkpt lat="44.5766216" lon="10.0773633"><ele>687.0</ele><time>2026-04-24T15:06:58.225Z</time></trkpt><trkpt lat="44.5766066" lon="10.0771992"><ele>686.0</ele><time>2026-04-24T15:06:59.225Z</time></trkpt><trkpt lat="44.576604" lon="10.077041"><ele>685.4</ele><time>2026-04-24T15:07:00.225Z</time></trkpt><trkpt lat="44.5766288" lon="10.0768968"><ele>684.8</ele><time>2026-04-24T15:07:01.225Z</time></trkpt><trkpt lat="44.5766893" lon="10.0767833"><ele>684.1999999999999</ele><time>2026-04-24T15:07:02.225Z</time></trkpt><trkpt lat="44.5767678" lon="10.0766999"><ele>683.5999999999999</ele><time>2026-04-24T15:07:03.224Z</time></trkpt><trkpt lat="44.5768398" lon="10.0766402"><ele>683.0</ele><time>2026-04-24T15:07:04.226Z</time></trkpt><trkpt lat="44.5769071" lon="10.0766068"><ele>683.0</ele><time>2026-04-24T15:07:05.224Z</time></trkpt><trkpt lat="44.5769897" lon="10.0766196"><ele>683.0</ele><time>2026-04-24T15:07:07.224Z</time></trkpt><trkpt lat="44.5770446" lon="10.076742"><ele>683.0</ele><time>2026-04-24T15:07:09.226Z</time></trkpt><trkpt lat="44.5770758" lon="10.0768344"><ele>683.0</ele><time>2026-04-24T15:07:10.224Z</time></trkpt><trkpt lat="44.5771035" lon="10.0769283"><ele>683.0</ele><time>2026-04-24T15:07:11.224Z</time></trkpt><trkpt lat="44.5771338" lon="10.0770286"><ele>683.0</ele><time>2026-04-24T15:07:12.226Z</time></trkpt><trkpt lat="44.5771669" lon="10.0771304"><ele>682.1666666666666</ele><time>2026-04-24T15:07:13.226Z</time></trkpt><trkpt lat="44.5771926" lon="10.0772428"><ele>681.3333333333333</ele><time>2026-04-24T15:07:14.225Z</time></trkpt><trkpt lat="44.5772242" lon="10.0773579"><ele>680.5</ele><time>2026-04-24T15:07:15.226Z</time></trkpt><trkpt lat="44.5772576" lon="10.0774713"><ele>679.6666666666666</ele><time>2026-04-24T15:07:16.225Z</time></trkpt><trkpt lat="44.5772933" lon="10.0775882"><ele>678.8333333333334</ele><time>2026-04-24T15:07:17.225Z</time></trkpt><trkpt lat="44.5773303" lon="10.0777014"><ele>678.0</ele><time>2026-04-24T15:07:18.225Z</time></trkpt><trkpt lat="44.5773688" lon="10.0778204"><ele>678.0</ele><time>2026-04-24T15:07:19.224Z</time></trkpt><trkpt lat="44.5774079" lon="10.0779421"><ele>678.0</ele><time>2026-04-24T15:07:20.224Z</time></trkpt><trkpt lat="44.5774466" lon="10.078057"><ele>678.0</ele><time>2026-04-24T15:07:21.224Z</time></trkpt><trkpt lat="44.5774875" lon="10.0781676"><ele>678.0</ele><time>2026-04-24T15:07:22.224Z</time></trkpt><trkpt lat="44.5775258" lon="10.0782851"><ele>678.0</ele><time>2026-04-24T15:07:23.224Z</time></trkpt><trkpt lat="44.5775599" lon="10.0784043"><ele>677.3333333333334</ele><time>2026-04-24T15:07:24.224Z</time></trkpt><trkpt lat="44.5775907" lon="10.0785184"><ele>676.6666666666666</ele><time>2026-04-24T15:07:25.224Z</time></trkpt><trkpt lat="44.5776264" lon="10.0786195"><ele>676.0</ele><time>2026-04-24T15:07:26.224Z</time></trkpt><trkpt lat="44.5776675" lon="10.0787033"><ele>675.3333333333333</ele><time>2026-04-24T15:07:27.225Z</time></trkpt><trkpt lat="44.5777182" lon="10.0787756"><ele>674.6666666666666</ele><time>2026-04-24T15:07:28.226Z</time></trkpt><trkpt lat="44.577785" lon="10.0788351"><ele>674.0</ele><time>2026-04-24T15:07:29.226Z</time></trkpt><trkpt lat="44.5778707" lon="10.0788689"><ele>674.0</ele><time>2026-04-24T15:07:30.225Z</time></trkpt><trkpt lat="44.5779631" lon="10.0788688"><ele>674.0</ele><time>2026-04-24T15:07:31.225Z</time></trkpt><trkpt lat="44.578065" lon="10.0788282"><ele>674.0</ele><time>2026-04-24T15:07:32.224Z</time></trkpt><trkpt lat="44.5781584" lon="10.0787509"><ele>674.0</ele><time>2026-04-24T15:07:33.224Z</time></trkpt><trkpt lat="44.5782521" lon="10.0786552"><ele>674.0</ele><time>2026-04-24T15:07:34.224Z</time></trkpt><trkpt lat="44.5783471" lon="10.0785601"><ele>674.0</ele><time>2026-04-24T15:07:35.225Z</time></trkpt><trkpt lat="44.5784417" lon="10.0784601"><ele>674.0</ele><time>2026-04-24T15:07:36.225Z</time></trkpt><trkpt lat="44.5785296" lon="10.0783647"><ele>674.0</ele><time>2026-04-24T15:07:37.226Z</time></trkpt><trkpt lat="44.5786183" lon="10.0782654"><ele>674.0</ele><time>2026-04-24T15:07:38.226Z</time></trkpt><trkpt lat="44.5787103" lon="10.0781629"><ele>672.75</ele><time>2026-04-24T15:07:39.225Z</time></trkpt><trkpt lat="44.5788077" lon="10.0780558"><ele>671.5</ele><time>2026-04-24T15:07:40.226Z</time></trkpt><trkpt lat="44.5789081" lon="10.0779421"><ele>670.25</ele><time>2026-04-24T15:07:41.225Z</time></trkpt><trkpt lat="44.5790024" lon="10.0778421"><ele>669.0</ele><time>2026-04-24T15:07:42.225Z</time></trkpt><trkpt lat="44.5791035" lon="10.0777725"><ele>669.0</ele><time>2026-04-24T15:07:43.225Z</time></trkpt><trkpt lat="44.579211" lon="10.0777596"><ele>669.0</ele><time>2026-04-24T15:07:44.226Z</time></trkpt><trkpt lat="44.5793256" lon="10.0777982"><ele>669.0</ele><time>2026-04-24T15:07:45.224Z</time></trkpt><trkpt lat="44.5794404" lon="10.0778546"><ele>669.0</ele><time>2026-04-24T15:07:46.225Z</time></trkpt><trkpt lat="44.5795713" lon="10.0779268"><ele>666.0</ele><time>2026-04-24T15:07:47.225Z</time></trkpt><trkpt lat="44.5797069" lon="10.078005"><ele>663.0</ele><time>2026-04-24T15:07:48.225Z</time></trkpt><trkpt lat="44.5798412" lon="10.0780859"><ele>660.0</ele><time>2026-04-24T15:07:49.225Z</time></trkpt><trkpt lat="44.5799689" lon="10.0781528"><ele>657.0</ele><time>2026-04-24T15:07:50.226Z</time></trkpt><trkpt lat="44.580093" lon="10.0781955"><ele>657.0</ele><time>2026-04-24T15:07:51.225Z</time></trkpt><trkpt lat="44.5802277" lon="10.0781492"><ele>657.0</ele><time>2026-04-24T15:07:52.225Z</time></trkpt><trkpt lat="44.5803615" lon="10.0781103"><ele>657.0</ele><time>2026-04-24T15:07:53.225Z</time></trkpt><trkpt lat="44.5804852" lon="10.0780834"><ele>657.0</ele><time>2026-04-24T15:07:54.224Z</time></trkpt><trkpt lat="44.5805957" lon="10.0780839"><ele>657.8</ele><time>2026-04-24T15:07:55.226Z</time></trkpt><trkpt lat="44.5806917" lon="10.078135"><ele>658.6</ele><time>2026-04-24T15:07:56.225Z</time></trkpt><trkpt lat="44.5807553" lon="10.0782263"><ele>659.4</ele><time>2026-04-24T15:07:57.225Z</time></trkpt><trkpt lat="44.580793" lon="10.0783622"><ele>660.1999999999999</ele><time>2026-04-24T15:07:58.226Z</time></trkpt><trkpt lat="44.5808129" lon="10.0785397"><ele>661.0</ele><time>2026-04-24T15:07:59.224Z</time></trkpt><trkpt lat="44.5808407" lon="10.0787496"><ele>661.0</ele><time>2026-04-24T15:08:00.225Z</time></trkpt><trkpt lat="44.58089" lon="10.0789519"><ele>661.0</ele><time>2026-04-24T15:08:01.224Z</time></trkpt><trkpt lat="44.5809482" lon="10.0791382"><ele>661.0</ele><time>2026-04-24T15:08:02.224Z</time></trkpt><trkpt lat="44.5810268" lon="10.0792986"><ele>661.0</ele><time>2026-04-24T15:08:03.225Z</time></trkpt><trkpt lat="44.5811183" lon="10.0794349"><ele>657.0</ele><time>2026-04-24T15:08:04.224Z</time></trkpt><trkpt lat="44.5812268" lon="10.0795483"><ele>653.0</ele><time>2026-04-24T15:08:05.226Z</time></trkpt><trkpt lat="44.5813383" lon="10.0796331"><ele>649.0</ele><time>2026-04-24T15:08:06.225Z</time></trkpt><trkpt lat="44.5814601" lon="10.0796814"><ele>645.0</ele><time>2026-04-24T15:08:07.224Z</time></trkpt><trkpt lat="44.581583" lon="10.0796672"><ele>645.0</ele><time>2026-04-24T15:08:08.226Z</time></trkpt><trkpt lat="44.5817071" lon="10.0795855"><ele>645.0</ele><time>2026-04-24T15:08:09.226Z</time></trkpt><trkpt lat="44.5818347" lon="10.0795406"><ele>645.0</ele><time>2026-04-24T15:08:10.225Z</time></trkpt><trkpt lat="44.5819513" lon="10.0795037"><ele>645.0</ele><time>2026-04-24T15:08:11.226Z</time></trkpt><trkpt lat="44.5820682" lon="10.0794758"><ele>642.4</ele><time>2026-04-24T15:08:12.225Z</time></trkpt><trkpt lat="44.5821756" lon="10.0794858"><ele>639.8</ele><time>2026-04-24T15:08:13.225Z</time></trkpt><trkpt lat="44.5822655" lon="10.0795556"><ele>637.2</ele><time>2026-04-24T15:08:14.225Z</time></trkpt><trkpt lat="44.5823245" lon="10.0796616"><ele>634.6</ele><time>2026-04-24T15:08:15.226Z</time></trkpt><trkpt lat="44.5823335" lon="10.0798075"><ele>632.0</ele><time>2026-04-24T15:08:16.224Z</time></trkpt><trkpt lat="44.5823077" lon="10.0799451"><ele>631.75</ele><time>2026-04-24T15:08:17.226Z</time></trkpt><trkpt lat="44.582242" lon="10.0800853"><ele>631.5</ele><time>2026-04-24T15:08:18.225Z</time></trkpt><trkpt lat="44.5821587" lon="10.0802318"><ele>631.25</ele><time>2026-04-24T15:08:19.224Z</time></trkpt><trkpt lat="44.5820799" lon="10.0804149"><ele>631.0</ele><time>2026-04-24T15:08:20.225Z</time></trkpt><trkpt lat="44.5820275" lon="10.0806214"><ele>642.0</ele><time>2026-04-24T15:08:21.225Z</time></trkpt><trkpt lat="44.5819807" lon="10.0808468"><ele>653.0</ele><time>2026-04-24T15:08:22.226Z</time></trkpt><trkpt lat="44.5819303" lon="10.0810749"><ele>664.0</ele><time>2026-04-24T15:08:23.226Z</time></trkpt><trkpt lat="44.5818824" lon="10.081298"><ele>664.0</ele><time>2026-04-24T15:08:24.226Z</time></trkpt><trkpt lat="44.5818342" lon="10.0815231"><ele>664.0</ele><time>2026-04-24T15:08:25.224Z</time></trkpt><trkpt lat="44.5817746" lon="10.0817434"><ele>664.0</ele><time>2026-04-24T15:08:26.224Z</time></trkpt><trkpt lat="44.5816964" lon="10.0819542"><ele>659.3333333333334</ele><time>2026-04-24T15:08:27.225Z</time></trkpt><trkpt lat="44.581596" lon="10.0821615"><ele>654.6666666666666</ele><time>2026-04-24T15:08:28.224Z</time></trkpt><trkpt lat="44.5814842" lon="10.0823729"><ele>650.0</ele><time>2026-04-24T15:08:29.225Z</time></trkpt><trkpt lat="44.5813694" lon="10.0826022"><ele>650.0</ele><time>2026-04-24T15:08:30.226Z</time></trkpt><trkpt lat="44.5812556" lon="10.0828467"><ele>650.0</ele><time>2026-04-24T15:08:31.224Z</time></trkpt><trkpt lat="44.5811437" lon="10.0831068"><ele>650.0</ele><time>2026-04-24T15:08:32.226Z</time></trkpt><trkpt lat="44.5810297" lon="10.0833653"><ele>650.0</ele><time>2026-04-24T15:08:33.225Z</time></trkpt><trkpt lat="44.5809068" lon="10.0836262"><ele>650.0</ele><time>2026-04-24T15:08:34.225Z</time></trkpt><trkpt lat="44.5807768" lon="10.0838798"><ele>650.0</ele><time>2026-04-24T15:08:35.225Z</time></trkpt><trkpt lat="44.5806406" lon="10.0841186"><ele>658.0</ele><time>2026-04-24T15:08:36.226Z</time></trkpt><trkpt lat="44.5805022" lon="10.084358"><ele>666.0</ele><time>2026-04-24T15:08:37.225Z</time></trkpt><trkpt lat="44.5803619" lon="10.0846043"><ele>674.0</ele><time>2026-04-24T15:08:38.224Z</time></trkpt><trkpt lat="44.5802255" lon="10.0848452"><ele>662.0</ele><time>2026-04-24T15:08:39.225Z</time></trkpt><trkpt lat="44.5800929" lon="10.0850783"><ele>650.0</ele><time>2026-04-24T15:08:40.225Z</time></trkpt><trkpt lat="44.5799712" lon="10.0853055"><ele>638.0</ele><time>2026-04-24T15:08:41.224Z</time></trkpt><trkpt lat="44.5798582" lon="10.0855151"><ele>638.0</ele><time>2026-04-24T15:08:42.224Z</time></trkpt><trkpt lat="44.5797533" lon="10.0857131"><ele>638.0</ele><time>2026-04-24T15:08:43.226Z</time></trkpt><trkpt lat="44.5796532" lon="10.0858983"><ele>638.0</ele><time>2026-04-24T15:08:44.226Z</time></trkpt><trkpt lat="44.5795591" lon="10.0860843"><ele>637.25</ele><time>2026-04-24T15:08:45.226Z</time></trkpt><trkpt lat="44.579483" lon="10.086268"><ele>636.5</ele><time>2026-04-24T15:08:46.225Z</time></trkpt><trkpt lat="44.5794275" lon="10.0864556"><ele>635.75</ele><time>2026-04-24T15:08:47.224Z</time></trkpt><trkpt lat="44.5793868" lon="10.0866462"><ele>635.0</ele><time>2026-04-24T15:08:48.224Z</time></trkpt><trkpt lat="44.5793624" lon="10.0868257"><ele>635.0</ele><time>2026-04-24T15:08:49.224Z</time></trkpt><trkpt lat="44.5793666" lon="10.0869981"><ele>635.0</ele><time>2026-04-24T15:08:50.224Z</time></trkpt><trkpt lat="44.579407" lon="10.0871634"><ele>635.0</ele><time>2026-04-24T15:08:51.225Z</time></trkpt><trkpt lat="44.5794826" lon="10.0873287"><ele>635.0</ele><time>2026-04-24T15:08:52.225Z</time></trkpt><trkpt lat="44.5795855" lon="10.0874851"><ele>624.6666666666666</ele><time>2026-04-24T15:08:53.225Z</time></trkpt><trkpt lat="44.5797053" lon="10.0876281"><ele>614.3333333333334</ele><time>2026-04-24T15:08:54.225Z</time></trkpt><trkpt lat="44.5798384" lon="10.0877293"><ele>604.0</ele><time>2026-04-24T15:08:55.225Z</time></trkpt><trkpt lat="44.5799791" lon="10.0877915"><ele>604.0</ele><time>2026-04-24T15:08:56.224Z</time></trkpt><trkpt lat="44.5801289" lon="10.0878025"><ele>604.0</ele><time>2026-04-24T15:08:57.226Z</time></trkpt><trkpt lat="44.5802794" lon="10.0877554"><ele>604.0</ele><time>2026-04-24T15:08:58.224Z</time></trkpt><trkpt lat="44.5804221" lon="10.0876914"><ele>602.5</ele><time>2026-04-24T15:08:59.223Z</time></trkpt><trkpt lat="44.5805594" lon="10.0876535"><ele>601.0</ele><time>2026-04-24T15:09:00.224Z</time></trkpt><trkpt lat="44.5806953" lon="10.0876671"><ele>599.5</ele><time>2026-04-24T15:09:01.224Z</time></trkpt><trkpt lat="44.5808298" lon="10.0877273"><ele>598.0</ele><time>2026-04-24T15:09:02.223Z</time></trkpt><trkpt lat="44.5809547" lon="10.0878339"><ele>598.0</ele><time>2026-04-24T15:09:03.224Z</time></trkpt><trkpt lat="44.5810777" lon="10.0879639"><ele>598.0</ele><time>2026-04-24T15:09:04.223Z</time></trkpt><trkpt lat="44.5811968" lon="10.0881205"><ele>598.0</ele><time>2026-04-24T15:09:05.223Z</time></trkpt><trkpt lat="44.581307" lon="10.0882894"><ele>593.6666666666667</ele><time>2026-04-24T15:09:06.225Z</time></trkpt><trkpt lat="44.5813957" lon="10.0884843"><ele>589.3333333333334</ele><time>2026-04-24T15:09:07.225Z</time></trkpt><trkpt lat="44.5814199" lon="10.0887699"><ele>585.0</ele><time>2026-04-24T15:09:08.225Z</time></trkpt><trkpt lat="44.5814798" lon="10.0890021"><ele>588.3333333333334</ele><time>2026-04-24T15:09:09.225Z</time></trkpt><trkpt lat="44.5815488" lon="10.0892498"><ele>591.6666666666667</ele><time>2026-04-24T15:09:10.223Z</time></trkpt><trkpt lat="44.5816249" lon="10.0894962"><ele>595.0</ele><time>2026-04-24T15:09:11.224Z</time></trkpt><trkpt lat="44.5817141" lon="10.0897422"><ele>599.6666666666667</ele><time>2026-04-24T15:09:12.224Z</time></trkpt><trkpt lat="44.58181" lon="10.0899677"><ele>604.3333333333334</ele><time>2026-04-24T15:09:13.225Z</time></trkpt><trkpt lat="44.5819056" lon="10.0901868"><ele>609.0</ele><time>2026-04-24T15:09:14.223Z</time></trkpt><trkpt lat="44.5819904" lon="10.090402"><ele>603.6666666666666</ele><time>2026-04-24T15:09:15.223Z</time></trkpt><trkpt lat="44.5820892" lon="10.090617"><ele>598.3333333333333</ele><time>2026-04-24T15:09:16.223Z</time></trkpt><trkpt lat="44.5821767" lon="10.0907999"><ele>593.0</ele><time>2026-04-24T15:09:17.223Z</time></trkpt><trkpt lat="44.5822848" lon="10.0909399"><ele>593.0</ele><time>2026-04-24T15:09:18.224Z</time></trkpt><trkpt lat="44.5823926" lon="10.0910513"><ele>593.0</ele><time>2026-04-24T15:09:19.225Z</time></trkpt><trkpt lat="44.5824977" lon="10.0911258"><ele>593.0</ele><time>2026-04-24T15:09:20.223Z</time></trkpt><trkpt lat="44.5827143" lon="10.0910274"><ele>591.0</ele><time>2026-04-24T15:09:21.223Z</time></trkpt><trkpt lat="44.5828687" lon="10.0909792"><ele>589.0</ele><time>2026-04-24T15:09:22.224Z</time></trkpt><trkpt lat="44.5830222" lon="10.0909213"><ele>587.0</ele><time>2026-04-24T15:09:23.224Z</time></trkpt><trkpt lat="44.5831749" lon="10.0909073"><ele>587.0</ele><time>2026-04-24T15:09:24.224Z</time></trkpt><trkpt lat="44.5833337" lon="10.090938"><ele>587.0</ele><time>2026-04-24T15:09:25.224Z</time></trkpt><trkpt lat="44.5834708" lon="10.0909757"><ele>587.0</ele><time>2026-04-24T15:09:26.223Z</time></trkpt><trkpt lat="44.5836103" lon="10.0909615"><ele>587.0</ele><time>2026-04-24T15:09:27.223Z</time></trkpt><trkpt lat="44.5837312" lon="10.0908778"><ele>589.0</ele><time>2026-04-24T15:09:28.223Z</time></trkpt><trkpt lat="44.5838375" lon="10.09076"><ele>591.0</ele><time>2026-04-24T15:09:29.224Z</time></trkpt><trkpt lat="44.5839482" lon="10.0906126"><ele>593.0</ele><time>2026-04-24T15:09:30.224Z</time></trkpt><trkpt lat="44.5840815" lon="10.0904952"><ele>595.0</ele><time>2026-04-24T15:09:31.223Z</time></trkpt><trkpt lat="44.584218" lon="10.0903869"><ele>588.25</ele><time>2026-04-24T15:09:32.223Z</time></trkpt><trkpt lat="44.5843599" lon="10.0903197"><ele>581.5</ele><time>2026-04-24T15:09:33.223Z</time></trkpt><trkpt lat="44.5844829" lon="10.0902775"><ele>574.75</ele><time>2026-04-24T15:09:34.224Z</time></trkpt><trkpt lat="44.5845917" lon="10.0902887"><ele>568.0</ele><time>2026-04-24T15:09:35.224Z</time></trkpt><trkpt lat="44.5846876" lon="10.0903659"><ele>571.25</ele><time>2026-04-24T15:09:36.223Z</time></trkpt><trkpt lat="44.5847651" lon="10.0904903"><ele>574.5</ele><time>2026-04-24T15:09:37.224Z</time></trkpt><trkpt lat="44.5848445" lon="10.0906377"><ele>577.75</ele><time>2026-04-24T15:09:38.224Z</time></trkpt><trkpt lat="44.5849264" lon="10.0907637"><ele>581.0</ele><time>2026-04-24T15:09:39.225Z</time></trkpt><trkpt lat="44.5850227" lon="10.0908673"><ele>581.0</ele><time>2026-04-24T15:09:40.223Z</time></trkpt><trkpt lat="44.5852013" lon="10.0908821"><ele>581.0</ele><time>2026-04-24T15:09:41.225Z</time></trkpt><trkpt lat="44.5853156" lon="10.0909878"><ele>581.0</ele><time>2026-04-24T15:09:42.224Z</time></trkpt><trkpt lat="44.5854239" lon="10.0911178"><ele>569.6666666666666</ele><time>2026-04-24T15:09:43.225Z</time></trkpt><trkpt lat="44.5855428" lon="10.0912705"><ele>558.3333333333334</ele><time>2026-04-24T15:09:44.224Z</time></trkpt><trkpt lat="44.5856405" lon="10.091435"><ele>547.0</ele><time>2026-04-24T15:09:45.225Z</time></trkpt><trkpt lat="44.585722" lon="10.0916056"><ele>547.0</ele><time>2026-04-24T15:09:46.224Z</time></trkpt><trkpt lat="44.5857897" lon="10.0917652"><ele>547.0</ele><time>2026-04-24T15:09:47.223Z</time></trkpt><trkpt lat="44.5858437" lon="10.0919697"><ele>547.0</ele><time>2026-04-24T15:09:48.224Z</time></trkpt><trkpt lat="44.5857983" lon="10.0922022"><ele>547.0</ele><time>2026-04-24T15:09:49.224Z</time></trkpt><trkpt lat="44.5858041" lon="10.0924123"><ele>547.0</ele><time>2026-04-24T15:09:50.224Z</time></trkpt><trkpt lat="44.5857681" lon="10.0926067"><ele>547.0</ele><time>2026-04-24T15:09:51.224Z</time></trkpt><trkpt lat="44.585702" lon="10.0927923"><ele>547.0</ele><time>2026-04-24T15:09:52.224Z</time></trkpt><trkpt lat="44.5856245" lon="10.0929728"><ele>546.0</ele><time>2026-04-24T15:09:53.223Z</time></trkpt><trkpt lat="44.585555" lon="10.0931609"><ele>545.0</ele><time>2026-04-24T15:09:54.225Z</time></trkpt><trkpt lat="44.5854924" lon="10.0933482"><ele>544.0</ele><time>2026-04-24T15:09:55.224Z</time></trkpt><trkpt lat="44.5854397" lon="10.0935261"><ele>543.0</ele><time>2026-04-24T15:09:56.224Z</time></trkpt><trkpt lat="44.5853806" lon="10.0936826"><ele>552.5</ele><time>2026-04-24T15:09:57.224Z</time></trkpt><trkpt lat="44.5853037" lon="10.0938021"><ele>562.0</ele><time>2026-04-24T15:09:58.224Z</time></trkpt><trkpt lat="44.5852063" lon="10.093878"><ele>571.5</ele><time>2026-04-24T15:09:59.224Z</time></trkpt><trkpt lat="44.5850891" lon="10.0939092"><ele>581.0</ele><time>2026-04-24T15:10:00.225Z</time></trkpt><trkpt lat="44.584968" lon="10.0939127"><ele>581.0</ele><time>2026-04-24T15:10:01.224Z</time></trkpt><trkpt lat="44.5848357" lon="10.0939365"><ele>581.0</ele><time>2026-04-24T15:10:02.223Z</time></trkpt><trkpt lat="44.5847033" lon="10.0939771"><ele>581.0</ele><time>2026-04-24T15:10:03.223Z</time></trkpt><trkpt lat="44.5845774" lon="10.0940307"><ele>581.0</ele><time>2026-04-24T15:10:04.223Z</time></trkpt><trkpt lat="44.5844593" lon="10.0941027"><ele>578.75</ele><time>2026-04-24T15:10:05.223Z</time></trkpt><trkpt lat="44.5843504" lon="10.0941892"><ele>576.5</ele><time>2026-04-24T15:10:06.223Z</time></trkpt><trkpt lat="44.5842527" lon="10.0942965"><ele>574.25</ele><time>2026-04-24T15:10:07.225Z</time></trkpt><trkpt lat="44.5841795" lon="10.0944224"><ele>572.0</ele><time>2026-04-24T15:10:08.223Z</time></trkpt><trkpt lat="44.5841328" lon="10.0945743"><ele>572.0</ele><time>2026-04-24T15:10:09.223Z</time></trkpt><trkpt lat="44.5841189" lon="10.0947261"><ele>572.0</ele><time>2026-04-24T15:10:10.224Z</time></trkpt><trkpt lat="44.5841105" lon="10.0948837"><ele>572.0</ele><time>2026-04-24T15:10:11.224Z</time></trkpt><trkpt lat="44.5842172" lon="10.095009"><ele>572.0</ele><time>2026-04-24T15:10:12.224Z</time></trkpt><trkpt lat="44.5843004" lon="10.0951455"><ele>564.75</ele><time>2026-04-24T15:10:13.224Z</time></trkpt><trkpt lat="44.5843822" lon="10.0952893"><ele>557.5</ele><time>2026-04-24T15:10:14.225Z</time></trkpt><trkpt lat="44.5844685" lon="10.0954395"><ele>550.25</ele><time>2026-04-24T15:10:15.224Z</time></trkpt><trkpt lat="44.5845617" lon="10.0956028"><ele>543.0</ele><time>2026-04-24T15:10:16.224Z</time></trkpt><trkpt lat="44.5846424" lon="10.0957864"><ele>539.3333333333334</ele><time>2026-04-24T15:10:17.224Z</time></trkpt><trkpt lat="44.5846891" lon="10.0959907"><ele>535.6666666666667</ele><time>2026-04-24T15:10:18.224Z</time></trkpt><trkpt lat="44.5847123" lon="10.0962082"><ele>532.0</ele><time>2026-04-24T15:10:19.224Z</time></trkpt><trkpt lat="44.5847362" lon="10.0964205"><ele>535.0</ele><time>2026-04-24T15:10:20.223Z</time></trkpt><trkpt lat="44.5847642" lon="10.0966113"><ele>538.0</ele><time>2026-04-24T15:10:21.223Z</time></trkpt><trkpt lat="44.584809" lon="10.0967745"><ele>541.0</ele><time>2026-04-24T15:10:22.224Z</time></trkpt><trkpt lat="44.5848571" lon="10.0969269"><ele>544.0</ele><time>2026-04-24T15:10:23.224Z</time></trkpt><trkpt lat="44.5849274" lon="10.0970312"><ele>544.0</ele><time>2026-04-24T15:10:24.224Z</time></trkpt><trkpt lat="44.5851264" lon="10.0969777"><ele>544.0</ele><time>2026-04-24T15:10:25.225Z</time></trkpt><trkpt lat="44.585261" lon="10.096968"><ele>544.0</ele><time>2026-04-24T15:10:26.225Z</time></trkpt><trkpt lat="44.5854123" lon="10.0969493"><ele>541.0</ele><time>2026-04-24T15:10:27.224Z</time></trkpt><trkpt lat="44.5855642" lon="10.0969143"><ele>538.0</ele><time>2026-04-24T15:10:28.225Z</time></trkpt><trkpt lat="44.5857155" lon="10.096827"><ele>535.0</ele><time>2026-04-24T15:10:29.225Z</time></trkpt><trkpt lat="44.585846" lon="10.0967034"><ele>535.0</ele><time>2026-04-24T15:10:30.224Z</time></trkpt><trkpt lat="44.5859718" lon="10.0965955"><ele>535.0</ele><time>2026-04-24T15:10:31.223Z</time></trkpt><trkpt lat="44.5861171" lon="10.0965361"><ele>535.0</ele><time>2026-04-24T15:10:32.223Z</time></trkpt><trkpt lat="44.5862704" lon="10.096472"><ele>528.0</ele><time>2026-04-24T15:10:33.224Z</time></trkpt><trkpt lat="44.5864229" lon="10.0963845"><ele>521.0</ele><time>2026-04-24T15:10:34.224Z</time></trkpt><trkpt lat="44.5865812" lon="10.0963081"><ele>514.0</ele><time>2026-04-24T15:10:35.223Z</time></trkpt><trkpt lat="44.5867422" lon="10.096258"><ele>514.0</ele><time>2026-04-24T15:10:36.224Z</time></trkpt><trkpt lat="44.5868914" lon="10.0962275"><ele>514.0</ele><time>2026-04-24T15:10:37.225Z</time></trkpt><trkpt lat="44.5870325" lon="10.0961793"><ele>514.0</ele><time>2026-04-24T15:10:38.224Z</time></trkpt><trkpt lat="44.5871651" lon="10.0960775"><ele>514.0</ele><time>2026-04-24T15:10:39.224Z</time></trkpt><trkpt lat="44.5872864" lon="10.0959467"><ele>515.75</ele><time>2026-04-24T15:10:40.225Z</time></trkpt><trkpt lat="44.587395" lon="10.0958099"><ele>517.5</ele><time>2026-04-24T15:10:41.223Z</time></trkpt><trkpt lat="44.5875111" lon="10.0957025"><ele>519.25</ele><time>2026-04-24T15:10:42.224Z</time></trkpt><trkpt lat="44.5876394" lon="10.0956311"><ele>521.0</ele><time>2026-04-24T15:10:43.223Z</time></trkpt><trkpt lat="44.5877577" lon="10.0956016"><ele>515.4</ele><time>2026-04-24T15:10:44.223Z</time></trkpt><trkpt lat="44.5878472" lon="10.0956287"><ele>509.8</ele><time>2026-04-24T15:10:45.224Z</time></trkpt><trkpt lat="44.58792" lon="10.095716"><ele>504.19999999999993</ele><time>2026-04-24T15:10:46.225Z</time></trkpt><trkpt lat="44.5879506" lon="10.0958379"><ele>498.59999999999997</ele><time>2026-04-24T15:10:47.224Z</time></trkpt><trkpt lat="44.5879363" lon="10.0959656"><ele>493.0</ele><time>2026-04-24T15:10:48.225Z</time></trkpt><trkpt lat="44.587878" lon="10.0960869"><ele>500.0</ele><time>2026-04-24T15:10:49.225Z</time></trkpt><trkpt lat="44.5877863" lon="10.0962055"><ele>507.0</ele><time>2026-04-24T15:10:50.225Z</time></trkpt><trkpt lat="44.5876819" lon="10.0963554"><ele>514.0</ele><time>2026-04-24T15:10:51.225Z</time></trkpt><trkpt lat="44.5875834" lon="10.0965278"><ele>521.0</ele><time>2026-04-24T15:10:52.224Z</time></trkpt><trkpt lat="44.5874886" lon="10.0967326"><ele>523.6666666666666</ele><time>2026-04-24T15:10:53.224Z</time></trkpt><trkpt lat="44.5874136" lon="10.0969402"><ele>526.3333333333334</ele><time>2026-04-24T15:10:54.224Z</time></trkpt><trkpt lat="44.5873406" lon="10.0971355"><ele>529.0</ele><time>2026-04-24T15:10:55.225Z</time></trkpt><trkpt lat="44.5872546" lon="10.0973154"><ele>536.0</ele><time>2026-04-24T15:10:56.225Z</time></trkpt><trkpt lat="44.5871545" lon="10.0974938"><ele>543.0</ele><time>2026-04-24T15:10:57.225Z</time></trkpt><trkpt lat="44.5870448" lon="10.0976714"><ele>550.0</ele><time>2026-04-24T15:10:58.223Z</time></trkpt><trkpt lat="44.586929" lon="10.0978542"><ele>550.0</ele><time>2026-04-24T15:10:59.224Z</time></trkpt><trkpt lat="44.5868187" lon="10.0980503"><ele>550.0</ele><time>2026-04-24T15:11:00.224Z</time></trkpt><trkpt lat="44.586718" lon="10.0982591"><ele>550.0</ele><time>2026-04-24T15:11:01.225Z</time></trkpt><trkpt lat="44.5866161" lon="10.0984743"><ele>541.3333333333334</ele><time>2026-04-24T15:11:02.224Z</time></trkpt><trkpt lat="44.5865131" lon="10.0986712"><ele>532.6666666666666</ele><time>2026-04-24T15:11:03.223Z</time></trkpt><trkpt lat="44.5864308" lon="10.0988711"><ele>524.0</ele><time>2026-04-24T15:11:04.224Z</time></trkpt><trkpt lat="44.5863727" lon="10.0990886"><ele>515.3333333333333</ele><time>2026-04-24T15:11:05.224Z</time></trkpt><trkpt lat="44.586343" lon="10.099336"><ele>506.66666666666663</ele><time>2026-04-24T15:11:06.223Z</time></trkpt><trkpt lat="44.5863287" lon="10.099595"><ele>498.0</ele><time>2026-04-24T15:11:07.224Z</time></trkpt><trkpt lat="44.5863203" lon="10.0998498"><ele>493.0</ele><time>2026-04-24T15:11:08.224Z</time></trkpt><trkpt lat="44.5863145" lon="10.1001108"><ele>488.0</ele><time>2026-04-24T15:11:09.224Z</time></trkpt><trkpt lat="44.586305" lon="10.1003769"><ele>483.0</ele><time>2026-04-24T15:11:10.224Z</time></trkpt><trkpt lat="44.5862898" lon="10.1006464"><ele>478.0</ele><time>2026-04-24T15:11:11.224Z</time></trkpt><trkpt lat="44.5862675" lon="10.1009122"><ele>473.0</ele><time>2026-04-24T15:11:12.223Z</time></trkpt><trkpt lat="44.5862497" lon="10.1011675"><ele>468.0</ele><time>2026-04-24T15:11:13.224Z</time></trkpt><trkpt lat="44.5862518" lon="10.1014237"><ele>467.0</ele><time>2026-04-24T15:11:14.223Z</time></trkpt><trkpt lat="44.5862722" lon="10.1016714"><ele>466.0</ele><time>2026-04-24T15:11:15.224Z</time></trkpt><trkpt lat="44.5863059" lon="10.1019156"><ele>465.0</ele><time>2026-04-24T15:11:16.224Z</time></trkpt><trkpt lat="44.5863485" lon="10.1021495"><ele>465.0</ele><time>2026-04-24T15:11:17.225Z</time></trkpt><trkpt lat="44.5864037" lon="10.1023752"><ele>465.0</ele><time>2026-04-24T15:11:18.225Z</time></trkpt><trkpt lat="44.5864662" lon="10.1025903"><ele>465.0</ele><time>2026-04-24T15:11:19.223Z</time></trkpt><trkpt lat="44.5865103" lon="10.102801"><ele>468.66666666666663</ele><time>2026-04-24T15:11:20.224Z</time></trkpt><trkpt lat="44.5865335" lon="10.1030267"><ele>472.3333333333333</ele><time>2026-04-24T15:11:21.223Z</time></trkpt><trkpt lat="44.5865469" lon="10.1032578"><ele>476.0</ele><time>2026-04-24T15:11:22.224Z</time></trkpt><trkpt lat="44.5865554" lon="10.1034774"><ele>479.0</ele><time>2026-04-24T15:11:23.224Z</time></trkpt><trkpt lat="44.5865669" lon="10.1036688"><ele>482.0</ele><time>2026-04-24T15:11:24.224Z</time></trkpt><trkpt lat="44.5865939" lon="10.1038353"><ele>485.0</ele><time>2026-04-24T15:11:25.224Z</time></trkpt><trkpt lat="44.5866591" lon="10.1039696"><ele>488.0</ele><time>2026-04-24T15:11:26.224Z</time></trkpt><trkpt lat="44.586762" lon="10.1040764"><ele>493.75</ele><time>2026-04-24T15:11:27.223Z</time></trkpt><trkpt lat="44.586894" lon="10.1041724"><ele>499.5</ele><time>2026-04-24T15:11:28.224Z</time></trkpt><trkpt lat="44.5870382" lon="10.1042733"><ele>505.25</ele><time>2026-04-24T15:11:29.224Z</time></trkpt><trkpt lat="44.587157" lon="10.1043646"><ele>511.0</ele><time>2026-04-24T15:11:30.224Z</time></trkpt><trkpt lat="44.5872426" lon="10.1044756"><ele>503.0</ele><time>2026-04-24T15:11:31.224Z</time></trkpt><trkpt lat="44.5872956" lon="10.1046147"><ele>495.0</ele><time>2026-04-24T15:11:32.224Z</time></trkpt><trkpt lat="44.5873038" lon="10.1047837"><ele>487.0</ele><time>2026-04-24T15:11:33.224Z</time></trkpt><trkpt lat="44.5872924" lon="10.1049745"><ele>479.0</ele><time>2026-04-24T15:11:34.224Z</time></trkpt><trkpt lat="44.5873095" lon="10.105177"><ele>479.0</ele><time>2026-04-24T15:11:35.224Z</time></trkpt><trkpt lat="44.5873868" lon="10.1053956"><ele>479.0</ele><time>2026-04-24T15:11:36.223Z</time></trkpt><trkpt lat="44.5874828" lon="10.1056132"><ele>479.0</ele><time>2026-04-24T15:11:37.223Z</time></trkpt><trkpt lat="44.5875691" lon="10.105855"><ele>483.66666666666663</ele><time>2026-04-24T15:11:38.223Z</time></trkpt><trkpt lat="44.5876388" lon="10.1061034"><ele>488.33333333333337</ele><time>2026-04-24T15:11:39.223Z</time></trkpt><trkpt lat="44.5877427" lon="10.1063184"><ele>493.0</ele><time>2026-04-24T15:11:40.224Z</time></trkpt><trkpt lat="44.5878616" lon="10.1065204"><ele>484.5</ele><time>2026-04-24T15:11:41.223Z</time></trkpt><trkpt lat="44.5879822" lon="10.1066873"><ele>476.0</ele><time>2026-04-24T15:11:42.223Z</time></trkpt><trkpt lat="44.5881068" lon="10.1068031"><ele>467.5</ele><time>2026-04-24T15:11:43.224Z</time></trkpt><trkpt lat="44.5882088" lon="10.1068956"><ele>459.0</ele><time>2026-04-24T15:11:44.224Z</time></trkpt><trkpt lat="44.5882769" lon="10.1069944"><ele>459.0</ele><time>2026-04-24T15:11:45.224Z</time></trkpt><trkpt lat="44.5883152" lon="10.1071225"><ele>459.0</ele><time>2026-04-24T15:11:46.223Z</time></trkpt><trkpt lat="44.5883088" lon="10.1072616"><ele>459.0</ele><time>2026-04-24T15:11:47.223Z</time></trkpt><trkpt lat="44.5882546" lon="10.1073944"><ele>459.0</ele><time>2026-04-24T15:11:48.225Z</time></trkpt><trkpt lat="44.5882122" lon="10.1075317"><ele>459.0</ele><time>2026-04-24T15:11:49.224Z</time></trkpt><trkpt lat="44.5881911" lon="10.1076946"><ele>462.75</ele><time>2026-04-24T15:11:50.223Z</time></trkpt><trkpt lat="44.5882018" lon="10.1078659"><ele>466.5</ele><time>2026-04-24T15:11:51.224Z</time></trkpt><trkpt lat="44.5882476" lon="10.1080274"><ele>470.25</ele><time>2026-04-24T15:11:52.224Z</time></trkpt><trkpt lat="44.5882918" lon="10.1081674"><ele>474.0</ele><time>2026-04-24T15:11:53.223Z</time></trkpt><trkpt lat="44.5884324" lon="10.1082229"><ele>477.0</ele><time>2026-04-24T15:11:54.223Z</time></trkpt><trkpt lat="44.5885309" lon="10.108306"><ele>480.0</ele><time>2026-04-24T15:11:55.224Z</time></trkpt><trkpt lat="44.5886777" lon="10.1083246"><ele>483.0</ele><time>2026-04-24T15:11:56.225Z</time></trkpt><trkpt lat="44.588777" lon="10.1084332"><ele>486.0</ele><time>2026-04-24T15:11:57.225Z</time></trkpt><trkpt lat="44.5888541" lon="10.1085909"><ele>479.0</ele><time>2026-04-24T15:11:58.224Z</time></trkpt><trkpt lat="44.5889121" lon="10.1087925"><ele>472.0</ele><time>2026-04-24T15:11:59.223Z</time></trkpt><trkpt lat="44.5889697" lon="10.1090144"><ele>465.0</ele><time>2026-04-24T15:12:00.223Z</time></trkpt><trkpt lat="44.5890341" lon="10.1092547"><ele>465.0</ele><time>2026-04-24T15:12:01.223Z</time></trkpt><trkpt lat="44.5891002" lon="10.1095098"><ele>465.0</ele><time>2026-04-24T15:12:02.224Z</time></trkpt><trkpt lat="44.5891701" lon="10.1097734"><ele>465.0</ele><time>2026-04-24T15:12:03.224Z</time></trkpt><trkpt lat="44.5892418" lon="10.1100411"><ele>468.66666666666663</ele><time>2026-04-24T15:12:04.223Z</time></trkpt><trkpt lat="44.589311" lon="10.1102942"><ele>472.3333333333333</ele><time>2026-04-24T15:12:05.223Z</time></trkpt><trkpt lat="44.5893874" lon="10.1105321"><ele>476.0</ele><time>2026-04-24T15:12:06.224Z</time></trkpt><trkpt lat="44.5894829" lon="10.110765"><ele>464.3333333333333</ele><time>2026-04-24T15:12:07.223Z</time></trkpt><trkpt lat="44.5895981" lon="10.1109902"><ele>452.66666666666663</ele><time>2026-04-24T15:12:08.223Z</time></trkpt><trkpt lat="44.5897197" lon="10.1112218"><ele>441.0</ele><time>2026-04-24T15:12:09.223Z</time></trkpt><trkpt lat="44.5898319" lon="10.1114572"><ele>446.33333333333337</ele><time>2026-04-24T15:12:10.224Z</time></trkpt><trkpt lat="44.589942" lon="10.1116937"><ele>451.6666666666667</ele><time>2026-04-24T15:12:11.223Z</time></trkpt><trkpt lat="44.590059" lon="10.1119158"><ele>457.0</ele><time>2026-04-24T15:12:12.224Z</time></trkpt><trkpt lat="44.590204" lon="10.1121218"><ele>448.6666666666667</ele><time>2026-04-24T15:12:13.224Z</time></trkpt><trkpt lat="44.5903526" lon="10.1123096"><ele>440.33333333333337</ele><time>2026-04-24T15:12:14.224Z</time></trkpt><trkpt lat="44.5905072" lon="10.1124841"><ele>432.0</ele><time>2026-04-24T15:12:15.224Z</time></trkpt><trkpt lat="44.5906461" lon="10.112654"><ele>432.0</ele><time>2026-04-24T15:12:16.224Z</time></trkpt><trkpt lat="44.5907601" lon="10.1128392"><ele>432.0</ele><time>2026-04-24T15:12:17.223Z</time></trkpt><trkpt lat="44.5908592" lon="10.1130539"><ele>432.0</ele><time>2026-04-24T15:12:18.223Z</time></trkpt><trkpt lat="44.5909222" lon="10.113244"><ele>437.66666666666663</ele><time>2026-04-24T15:12:19.223Z</time></trkpt><trkpt lat="44.5909582" lon="10.1134405"><ele>443.3333333333333</ele><time>2026-04-24T15:12:20.223Z</time></trkpt><trkpt lat="44.590949" lon="10.1136529"><ele>449.0</ele><time>2026-04-24T15:12:21.224Z</time></trkpt><trkpt lat="44.5909202" lon="10.1138912"><ele>449.0</ele><time>2026-04-24T15:12:22.224Z</time></trkpt><trkpt lat="44.5908801" lon="10.1141648"><ele>449.0</ele><time>2026-04-24T15:12:23.224Z</time></trkpt><trkpt lat="44.5908356" lon="10.1144388"><ele>449.0</ele><time>2026-04-24T15:12:24.225Z</time></trkpt><trkpt lat="44.590796" lon="10.1146794"><ele>449.0</ele><time>2026-04-24T15:12:25.224Z</time></trkpt><trkpt lat="44.5907748" lon="10.1149002"><ele>449.0</ele><time>2026-04-24T15:12:26.225Z</time></trkpt><trkpt lat="44.5907802" lon="10.1151057"><ele>449.0</ele><time>2026-04-24T15:12:27.225Z</time></trkpt><trkpt lat="44.5907826" lon="10.1153082"><ele>449.0</ele><time>2026-04-24T15:12:28.225Z</time></trkpt><trkpt lat="44.5908896" lon="10.1154633"><ele>446.66666666666663</ele><time>2026-04-24T15:12:29.223Z</time></trkpt><trkpt lat="44.5909581" lon="10.1156252"><ele>444.33333333333337</ele><time>2026-04-24T15:12:30.224Z</time></trkpt><trkpt lat="44.5911427" lon="10.1157375"><ele>442.0</ele><time>2026-04-24T15:12:31.223Z</time></trkpt><trkpt lat="44.5913026" lon="10.1158694"><ele>437.33333333333337</ele><time>2026-04-24T15:12:32.224Z</time></trkpt><trkpt lat="44.5914687" lon="10.1160179"><ele>432.66666666666663</ele><time>2026-04-24T15:12:33.223Z</time></trkpt><trkpt lat="44.5916501" lon="10.1161657"><ele>428.0</ele><time>2026-04-24T15:12:34.225Z</time></trkpt><trkpt lat="44.5918433" lon="10.1163309"><ele>424.0</ele><time>2026-04-24T15:12:35.225Z</time></trkpt><trkpt lat="44.5920487" lon="10.1165013"><ele>420.0</ele><time>2026-04-24T15:12:36.224Z</time></trkpt><trkpt lat="44.5922413" lon="10.1166675"><ele>420.0</ele><time>2026-04-24T15:12:37.223Z</time></trkpt><trkpt lat="44.5924286" lon="10.116816"><ele>420.0</ele><time>2026-04-24T15:12:38.223Z</time></trkpt><trkpt lat="44.5926051" lon="10.1169588"><ele>420.0</ele><time>2026-04-24T15:12:39.223Z</time></trkpt><trkpt lat="44.5927669" lon="10.1170933"><ele>419.0</ele><time>2026-04-24T15:12:40.225Z</time></trkpt><trkpt lat="44.5929207" lon="10.1172181"><ele>418.0</ele><time>2026-04-24T15:12:41.225Z</time></trkpt><trkpt lat="44.5930666" lon="10.1173388"><ele>417.0</ele><time>2026-04-24T15:12:42.222Z</time></trkpt><trkpt lat="44.5932115" lon="10.117457"><ele>421.0</ele><time>2026-04-24T15:12:43.223Z</time></trkpt><trkpt lat="44.5933471" lon="10.1175683"><ele>425.0</ele><time>2026-04-24T15:12:44.224Z</time></trkpt><trkpt lat="44.5934794" lon="10.1176762"><ele>429.0</ele><time>2026-04-24T15:12:45.222Z</time></trkpt><trkpt lat="44.5936277" lon="10.1177911"><ele>426.0</ele><time>2026-04-24T15:12:46.223Z</time></trkpt><trkpt lat="44.5937716" lon="10.1179027"><ele>423.0</ele><time>2026-04-24T15:12:47.222Z</time></trkpt><trkpt lat="44.5939036" lon="10.1180029"><ele>420.0</ele><time>2026-04-24T15:12:48.224Z</time></trkpt><trkpt lat="44.5940276" lon="10.1180824"><ele>420.0</ele><time>2026-04-24T15:12:49.224Z</time></trkpt><trkpt lat="44.5941499" lon="10.1181439"><ele>420.0</ele><time>2026-04-24T15:12:50.223Z</time></trkpt><trkpt lat="44.5942642" lon="10.1181878"><ele>420.0</ele><time>2026-04-24T15:12:51.222Z</time></trkpt><trkpt lat="44.5943757" lon="10.1182256"><ele>420.0</ele><time>2026-04-24T15:12:52.223Z</time></trkpt><trkpt lat="44.5944838" lon="10.1182609"><ele>421.75</ele><time>2026-04-24T15:12:53.223Z</time></trkpt><trkpt lat="44.5945861" lon="10.1183029"><ele>423.5</ele><time>2026-04-24T15:12:54.223Z</time></trkpt><trkpt lat="44.5947005" lon="10.1183476"><ele>425.25</ele><time>2026-04-24T15:12:55.222Z</time></trkpt><trkpt lat="44.5948295" lon="10.1183965"><ele>427.0</ele><time>2026-04-24T15:12:56.223Z</time></trkpt><trkpt lat="44.5949728" lon="10.1184457"><ele>427.0</ele><time>2026-04-24T15:12:57.224Z</time></trkpt><trkpt lat="44.595125" lon="10.1185007"><ele>427.0</ele><time>2026-04-24T15:12:58.222Z</time></trkpt><trkpt lat="44.5952872" lon="10.1185574"><ele>427.0</ele><time>2026-04-24T15:12:59.224Z</time></trkpt><trkpt lat="44.5954546" lon="10.1186195"><ele>424.6666666666667</ele><time>2026-04-24T15:13:00.223Z</time></trkpt><trkpt lat="44.5956292" lon="10.1186802"><ele>422.33333333333337</ele><time>2026-04-24T15:13:01.223Z</time></trkpt><trkpt lat="44.5958103" lon="10.11875"><ele>420.0</ele><time>2026-04-24T15:13:02.224Z</time></trkpt><trkpt lat="44.5960019" lon="10.1188239"><ele>420.33333333333337</ele><time>2026-04-24T15:13:03.223Z</time></trkpt><trkpt lat="44.5962026" lon="10.1189038"><ele>420.6666666666667</ele><time>2026-04-24T15:13:04.223Z</time></trkpt><trkpt lat="44.5964141" lon="10.118987"><ele>421.0</ele><time>2026-04-24T15:13:05.224Z</time></trkpt><trkpt lat="44.5966225" lon="10.1190684"><ele>421.0</ele><time>2026-04-24T15:13:06.223Z</time></trkpt><trkpt lat="44.5968287" lon="10.1191416"><ele>421.0</ele><time>2026-04-24T15:13:07.224Z</time></trkpt><trkpt lat="44.5970241" lon="10.1192133"><ele>421.0</ele><time>2026-04-24T15:13:08.224Z</time></trkpt><trkpt lat="44.5972201" lon="10.1192852"><ele>417.6666666666667</ele><time>2026-04-24T15:13:09.222Z</time></trkpt><trkpt lat="44.5974117" lon="10.1193543"><ele>414.33333333333337</ele><time>2026-04-24T15:13:10.222Z</time></trkpt><trkpt lat="44.5976082" lon="10.1194265"><ele>411.0</ele><time>2026-04-24T15:13:11.224Z</time></trkpt><trkpt lat="44.5978086" lon="10.119503"><ele>408.33333333333337</ele><time>2026-04-24T15:13:12.224Z</time></trkpt><trkpt lat="44.5980154" lon="10.1195782"><ele>405.6666666666667</ele><time>2026-04-24T15:13:13.222Z</time></trkpt><trkpt lat="44.5982165" lon="10.1196518"><ele>403.0</ele><time>2026-04-24T15:13:14.224Z</time></trkpt><trkpt lat="44.5984094" lon="10.1197264"><ele>403.0</ele><time>2026-04-24T15:13:15.223Z</time></trkpt><trkpt lat="44.5985946" lon="10.1197958"><ele>403.0</ele><time>2026-04-24T15:13:16.223Z</time></trkpt><trkpt lat="44.5987694" lon="10.1198635"><ele>403.0</ele><time>2026-04-24T15:13:17.222Z</time></trkpt><trkpt lat="44.5989415" lon="10.1199226"><ele>402.6666666666667</ele><time>2026-04-24T15:13:18.224Z</time></trkpt><trkpt lat="44.599096" lon="10.1199824"><ele>402.33333333333337</ele><time>2026-04-24T15:13:19.223Z</time></trkpt><trkpt lat="44.5992485" lon="10.1200318"><ele>402.0</ele><time>2026-04-24T15:13:20.222Z</time></trkpt><trkpt lat="44.5994001" lon="10.1200833"><ele>401.5</ele><time>2026-04-24T15:13:21.224Z</time></trkpt><trkpt lat="44.5995384" lon="10.1201352"><ele>401.0</ele><time>2026-04-24T15:13:22.223Z</time></trkpt><trkpt lat="44.5996702" lon="10.1201848"><ele>400.5</ele><time>2026-04-24T15:13:23.222Z</time></trkpt><trkpt lat="44.5997974" lon="10.1202351"><ele>400.0</ele><time>2026-04-24T15:13:24.223Z</time></trkpt><trkpt lat="44.5999363" lon="10.1202806"><ele>400.0</ele><time>2026-04-24T15:13:25.222Z</time></trkpt><trkpt lat="44.6000756" lon="10.1203326"><ele>400.0</ele><time>2026-04-24T15:13:26.222Z</time></trkpt><trkpt lat="44.6002242" lon="10.1203889"><ele>400.0</ele><time>2026-04-24T15:13:27.223Z</time></trkpt><trkpt lat="44.600361" lon="10.1204764"><ele>400.0</ele><time>2026-04-24T15:13:28.222Z</time></trkpt><trkpt lat="44.6004915" lon="10.1205826"><ele>400.0</ele><time>2026-04-24T15:13:29.223Z</time></trkpt><trkpt lat="44.6006058" lon="10.1207006"><ele>400.0</ele><time>2026-04-24T15:13:30.223Z</time></trkpt><trkpt lat="44.6006949" lon="10.1208376"><ele>400.0</ele><time>2026-04-24T15:13:31.223Z</time></trkpt><trkpt lat="44.6007615" lon="10.1209738"><ele>400.0</ele><time>2026-04-24T15:13:32.223Z</time></trkpt><trkpt lat="44.6008106" lon="10.1210901"><ele>400.00000000000006</ele><time>2026-04-24T15:13:33.223Z</time></trkpt><trkpt lat="44.6008467" lon="10.1211942"><ele>400.0</ele><time>2026-04-24T15:13:34.224Z</time></trkpt><trkpt lat="44.600881" lon="10.1212799"><ele>400.0</ele><time>2026-04-24T15:13:35.222Z</time></trkpt><trkpt lat="44.6009122" lon="10.1213828"><ele>400.0</ele><time>2026-04-24T15:13:36.223Z</time></trkpt><trkpt lat="44.6009482" lon="10.1215083"><ele>400.00000000000006</ele><time>2026-04-24T15:13:37.224Z</time></trkpt><trkpt lat="44.6009917" lon="10.1216515"><ele>400.0</ele><time>2026-04-24T15:13:38.224Z</time></trkpt><trkpt lat="44.6010446" lon="10.1217866"><ele>400.4</ele><time>2026-04-24T15:13:39.222Z</time></trkpt><trkpt lat="44.6011104" lon="10.1218968"><ele>400.8</ele><time>2026-04-24T15:13:40.224Z</time></trkpt><trkpt lat="44.6011635" lon="10.121977"><ele>401.20000000000005</ele><time>2026-04-24T15:13:41.223Z</time></trkpt><trkpt lat="44.6012712" lon="10.1220245"><ele>401.6</ele><time>2026-04-24T15:13:43.223Z</time></trkpt><trkpt lat="44.6013395" lon="10.1219357"><ele>402.0</ele><time>2026-04-24T15:13:45.222Z</time></trkpt><trkpt lat="44.6013792" lon="10.1218499"><ele>401.1428571428571</ele><time>2026-04-24T15:13:47.223Z</time></trkpt><trkpt lat="44.6013458" lon="10.1217582"><ele>400.28571428571433</ele><time>2026-04-24T15:13:50.223Z</time></trkpt><trkpt lat="44.6013918" lon="10.1218267"><ele>399.42857142857144</ele><time>2026-04-24T15:16:43.222Z</time></trkpt><trkpt lat="44.6014371" lon="10.1218916"><ele>398.57142857142856</ele><time>2026-04-24T15:16:48.222Z</time></trkpt><trkpt lat="44.6015041" lon="10.1219013"><ele>397.71428571428567</ele><time>2026-04-24T15:16:56.221Z</time></trkpt><trkpt lat="44.6015676" lon="10.1219266"><ele>396.8571428571429</ele><time>2026-04-24T15:17:05.221Z</time></trkpt><trkpt lat="44.6014905" lon="10.1219177"><ele>396.0</ele><time>2026-04-24T15:18:36.207Z</time></trkpt><trkpt lat="44.6015697" lon="10.1219426"><ele>396.0</ele><time>2026-04-24T15:18:54.223Z</time></trkpt><trkpt lat="44.6014949" lon="10.1218733"><ele>396.0</ele><time>2026-04-24T15:20:30.222Z</time></trkpt><trkpt lat="44.601434" lon="10.1218498"><ele>396.0</ele><time>2026-04-24T15:41:56.218Z</time></trkpt><trkpt lat="44.6013645" lon="10.1218281"><ele>396.0</ele><time>2026-04-24T15:42:02.284Z</time></trkpt><trkpt lat="44.6013333" lon="10.1217461"><ele>396.0</ele><time>2026-04-24T15:42:07.218Z</time></trkpt><trkpt lat="44.6013844" lon="10.1218168"><ele>396.0</ele><time>2026-04-24T15:46:06.217Z</time></trkpt><trkpt lat="44.601314" lon="10.1219575"><ele>396.0</ele><time>2026-04-24T15:46:08.217Z</time></trkpt><trkpt lat="44.6012482" lon="10.1220037"><ele>396.0</ele><time>2026-04-24T15:46:10.216Z</time></trkpt><trkpt lat="44.6012733" lon="10.1221054"><ele>396.0</ele><time>2026-04-24T15:46:12.217Z</time></trkpt><trkpt lat="44.6013375" lon="10.1221719"><ele>396.0</ele><time>2026-04-24T15:46:13.216Z</time></trkpt><trkpt lat="44.6014101" lon="10.1222474"><ele>396.0</ele><time>2026-04-24T15:46:14.217Z</time></trkpt><trkpt lat="44.601489" lon="10.1223288"><ele>396.0</ele><time>2026-04-24T15:46:15.217Z</time></trkpt><trkpt lat="44.6015871" lon="10.122423"><ele>396.25</ele><time>2026-04-24T15:46:16.217Z</time></trkpt><trkpt lat="44.6017031" lon="10.1225351"><ele>396.5</ele><time>2026-04-24T15:46:17.218Z</time></trkpt><trkpt lat="44.6018219" lon="10.1226462"><ele>396.75</ele><time>2026-04-24T15:46:18.217Z</time></trkpt><trkpt lat="44.6019498" lon="10.1227581"><ele>397.0</ele><time>2026-04-24T15:46:19.218Z</time></trkpt><trkpt lat="44.6020774" lon="10.1228747"><ele>397.0</ele><time>2026-04-24T15:46:20.217Z</time></trkpt><trkpt lat="44.6022107" lon="10.1229936"><ele>397.0</ele><time>2026-04-24T15:46:21.217Z</time></trkpt><trkpt lat="44.6023466" lon="10.1231173"><ele>397.0</ele><time>2026-04-24T15:46:22.218Z</time></trkpt><trkpt lat="44.6024824" lon="10.1232334"><ele>397.0</ele><time>2026-04-24T15:46:23.216Z</time></trkpt><trkpt lat="44.6026095" lon="10.1233351"><ele>397.0</ele><time>2026-04-24T15:46:24.217Z</time></trkpt><trkpt lat="44.6027374" lon="10.1234397"><ele>397.0</ele><time>2026-04-24T15:46:25.217Z</time></trkpt><trkpt lat="44.6028357" lon="10.1235375"><ele>397.0</ele><time>2026-04-24T15:46:26.217Z</time></trkpt><trkpt lat="44.6029454" lon="10.1236351"><ele>396.5</ele><time>2026-04-24T15:46:27.216Z</time></trkpt><trkpt lat="44.6030614" lon="10.1237328"><ele>396.0</ele><time>2026-04-24T15:46:28.217Z</time></trkpt><trkpt lat="44.6031829" lon="10.123843"><ele>395.5</ele><time>2026-04-24T15:46:29.216Z</time></trkpt><trkpt lat="44.6033123" lon="10.1239582"><ele>395.0</ele><time>2026-04-24T15:46:30.217Z</time></trkpt><trkpt lat="44.6034406" lon="10.1240796"><ele>394.3333333333333</ele><time>2026-04-24T15:46:31.217Z</time></trkpt><trkpt lat="44.6035767" lon="10.124207"><ele>393.66666666666663</ele><time>2026-04-24T15:46:32.217Z</time></trkpt><trkpt lat="44.6037154" lon="10.1243375"><ele>393.0</ele><time>2026-04-24T15:46:33.218Z</time></trkpt><trkpt lat="44.6038594" lon="10.124474"><ele>393.0</ele><time>2026-04-24T15:46:34.217Z</time></trkpt><trkpt lat="44.6040127" lon="10.1246032"><ele>393.0</ele><time>2026-04-24T15:46:35.216Z</time></trkpt><trkpt lat="44.6041693" lon="10.1247412"><ele>393.0</ele><time>2026-04-24T15:46:36.218Z</time></trkpt><trkpt lat="44.6043301" lon="10.1248829"><ele>394.33333333333337</ele><time>2026-04-24T15:46:37.217Z</time></trkpt><trkpt lat="44.604489" lon="10.1250262"><ele>395.6666666666667</ele><time>2026-04-24T15:46:38.218Z</time></trkpt><trkpt lat="44.6046543" lon="10.1251701"><ele>397.0</ele><time>2026-04-24T15:46:39.217Z</time></trkpt><trkpt lat="44.6048208" lon="10.1253204"><ele>395.6666666666667</ele><time>2026-04-24T15:46:40.217Z</time></trkpt><trkpt lat="44.6049907" lon="10.1254666"><ele>394.33333333333337</ele><time>2026-04-24T15:46:41.217Z</time></trkpt><trkpt lat="44.60516" lon="10.1256123"><ele>393.0</ele><time>2026-04-24T15:46:42.217Z</time></trkpt><trkpt lat="44.6053286" lon="10.1257591"><ele>390.66666666666663</ele><time>2026-04-24T15:46:43.217Z</time></trkpt><trkpt lat="44.6054969" lon="10.125905"><ele>388.3333333333333</ele><time>2026-04-24T15:46:44.218Z</time></trkpt><trkpt lat="44.6056632" lon="10.1260528"><ele>386.0</ele><time>2026-04-24T15:46:45.218Z</time></trkpt><trkpt lat="44.6058297" lon="10.1261954"><ele>386.0</ele><time>2026-04-24T15:46:46.217Z</time></trkpt><trkpt lat="44.6059879" lon="10.1263424"><ele>386.0</ele><time>2026-04-24T15:46:47.218Z</time></trkpt><trkpt lat="44.6061414" lon="10.1264975"><ele>386.0</ele><time>2026-04-24T15:46:48.216Z</time></trkpt><trkpt lat="44.6062861" lon="10.1266702"><ele>386.3333333333333</ele><time>2026-04-24T15:46:49.218Z</time></trkpt><trkpt lat="44.6064096" lon="10.126873"><ele>386.66666666666663</ele><time>2026-04-24T15:46:50.217Z</time></trkpt><trkpt lat="44.60651" lon="10.1271024"><ele>387.0</ele><time>2026-04-24T15:46:51.217Z</time></trkpt><trkpt lat="44.6065807" lon="10.1273573"><ele>388.66666666666663</ele><time>2026-04-24T15:46:52.217Z</time></trkpt><trkpt lat="44.6066493" lon="10.1275869"><ele>390.3333333333333</ele><time>2026-04-24T15:46:53.217Z</time></trkpt><trkpt lat="44.6067315" lon="10.1277998"><ele>392.0</ele><time>2026-04-24T15:46:54.216Z</time></trkpt><trkpt lat="44.6068228" lon="10.1279839"><ele>392.0</ele><time>2026-04-24T15:46:55.218Z</time></trkpt><trkpt lat="44.6069473" lon="10.1281127"><ele>392.0</ele><time>2026-04-24T15:46:56.218Z</time></trkpt><trkpt lat="44.6071202" lon="10.1282152"><ele>392.0</ele><time>2026-04-24T15:46:57.216Z</time></trkpt><trkpt lat="44.607275" lon="10.1283125"><ele>390.3333333333333</ele><time>2026-04-24T15:46:58.217Z</time></trkpt><trkpt lat="44.6074256" lon="10.1284168"><ele>388.66666666666663</ele><time>2026-04-24T15:46:59.216Z</time></trkpt><trkpt lat="44.6075507" lon="10.1285586"><ele>387.0</ele><time>2026-04-24T15:47:00.216Z</time></trkpt><trkpt lat="44.6076668" lon="10.1287283"><ele>387.0</ele><time>2026-04-24T15:47:01.218Z</time></trkpt><trkpt lat="44.607773" lon="10.1289132"><ele>387.0</ele><time>2026-04-24T15:47:02.216Z</time></trkpt><trkpt lat="44.6078939" lon="10.1290652"><ele>387.0</ele><time>2026-04-24T15:47:03.216Z</time></trkpt><trkpt lat="44.6080292" lon="10.1291693"><ele>388.66666666666663</ele><time>2026-04-24T15:47:04.217Z</time></trkpt><trkpt lat="44.60819" lon="10.129237"><ele>390.3333333333333</ele><time>2026-04-24T15:47:05.216Z</time></trkpt><trkpt lat="44.6083553" lon="10.1292821"><ele>392.0</ele><time>2026-04-24T15:47:06.217Z</time></trkpt><trkpt lat="44.6085264" lon="10.1293064"><ele>392.66666666666663</ele><time>2026-04-24T15:47:07.216Z</time></trkpt><trkpt lat="44.6086981" lon="10.1292977"><ele>393.33333333333337</ele><time>2026-04-24T15:47:08.216Z</time></trkpt><trkpt lat="44.6088698" lon="10.1292414"><ele>394.0</ele><time>2026-04-24T15:47:09.216Z</time></trkpt><trkpt lat="44.6090217" lon="10.1292035"><ele>394.0</ele><time>2026-04-24T15:47:10.218Z</time></trkpt><trkpt lat="44.6091611" lon="10.1291868"><ele>394.0</ele><time>2026-04-24T15:47:11.217Z</time></trkpt><trkpt lat="44.6092851" lon="10.1292045"><ele>394.0</ele><time>2026-04-24T15:47:12.217Z</time></trkpt><trkpt lat="44.6094063" lon="10.1292435"><ele>394.0</ele><time>2026-04-24T15:47:13.216Z</time></trkpt><trkpt lat="44.6095173" lon="10.1293329"><ele>396.0</ele><time>2026-04-24T15:47:14.218Z</time></trkpt><trkpt lat="44.609614" lon="10.1294652"><ele>398.0</ele><time>2026-04-24T15:47:15.216Z</time></trkpt><trkpt lat="44.6097113" lon="10.1296255"><ele>400.0</ele><time>2026-04-24T15:47:16.217Z</time></trkpt><trkpt lat="44.6098164" lon="10.129793"><ele>402.0</ele><time>2026-04-24T15:47:17.217Z</time></trkpt><trkpt lat="44.609926" lon="10.1299622"><ele>402.0</ele><time>2026-04-24T15:47:18.217Z</time></trkpt><trkpt lat="44.6100395" lon="10.1301365"><ele>402.0</ele><time>2026-04-24T15:47:19.218Z</time></trkpt><trkpt lat="44.6101582" lon="10.1303174"><ele>402.0</ele><time>2026-04-24T15:47:20.217Z</time></trkpt><trkpt lat="44.6102772" lon="10.1305031"><ele>395.3333333333333</ele><time>2026-04-24T15:47:21.217Z</time></trkpt><trkpt lat="44.6103939" lon="10.1306997"><ele>388.66666666666663</ele><time>2026-04-24T15:47:22.217Z</time></trkpt><trkpt lat="44.6105078" lon="10.1309056"><ele>382.0</ele><time>2026-04-24T15:47:23.218Z</time></trkpt><trkpt lat="44.6106129" lon="10.1311048"><ele>382.0</ele><time>2026-04-24T15:47:24.217Z</time></trkpt><trkpt lat="44.6106901" lon="10.1313111"><ele>382.0</ele><time>2026-04-24T15:47:25.216Z</time></trkpt><trkpt lat="44.6107359" lon="10.1315252"><ele>382.0</ele><time>2026-04-24T15:47:26.216Z</time></trkpt><trkpt lat="44.6107337" lon="10.1317409"><ele>386.66666666666663</ele><time>2026-04-24T15:47:27.217Z</time></trkpt><trkpt lat="44.610741" lon="10.1319724"><ele>391.3333333333333</ele><time>2026-04-24T15:47:28.216Z</time></trkpt><trkpt lat="44.610771" lon="10.1321973"><ele>396.0</ele><time>2026-04-24T15:47:29.218Z</time></trkpt><trkpt lat="44.6108431" lon="10.1324132"><ele>396.0</ele><time>2026-04-24T15:47:30.217Z</time></trkpt><trkpt lat="44.6109269" lon="10.1326209"><ele>396.0</ele><time>2026-04-24T15:47:31.217Z</time></trkpt><trkpt lat="44.611015" lon="10.1328262"><ele>396.0</ele><time>2026-04-24T15:47:32.217Z</time></trkpt><trkpt lat="44.6111055" lon="10.1330367"><ele>391.6666666666667</ele><time>2026-04-24T15:47:33.218Z</time></trkpt><trkpt lat="44.6112032" lon="10.1332445"><ele>387.33333333333337</ele><time>2026-04-24T15:47:34.217Z</time></trkpt><trkpt lat="44.6113108" lon="10.1334529"><ele>383.0</ele><time>2026-04-24T15:47:35.217Z</time></trkpt><trkpt lat="44.6114182" lon="10.1336597"><ele>383.0</ele><time>2026-04-24T15:47:36.217Z</time></trkpt><trkpt lat="44.6115207" lon="10.1338576"><ele>383.0</ele><time>2026-04-24T15:47:37.218Z</time></trkpt><trkpt lat="44.61162" lon="10.1340419"><ele>383.0</ele><time>2026-04-24T15:47:38.216Z</time></trkpt><trkpt lat="44.6117319" lon="10.1342095"><ele>381.0</ele><time>2026-04-24T15:47:39.218Z</time></trkpt><trkpt lat="44.6118701" lon="10.1343539"><ele>379.0</ele><time>2026-04-24T15:47:40.216Z</time></trkpt><trkpt lat="44.6120295" lon="10.1344762"><ele>377.0</ele><time>2026-04-24T15:47:41.217Z</time></trkpt><trkpt lat="44.6121969" lon="10.1345989"><ele>377.0</ele><time>2026-04-24T15:47:42.217Z</time></trkpt><trkpt lat="44.6123726" lon="10.1347192"><ele>377.0</ele><time>2026-04-24T15:47:43.217Z</time></trkpt><trkpt lat="44.6125489" lon="10.1348419"><ele>377.0</ele><time>2026-04-24T15:47:44.216Z</time></trkpt><trkpt lat="44.6127187" lon="10.1349616"><ele>376.0</ele><time>2026-04-24T15:47:45.216Z</time></trkpt><trkpt lat="44.6128728" lon="10.135084"><ele>375.0</ele><time>2026-04-24T15:47:46.217Z</time></trkpt><trkpt lat="44.6130006" lon="10.1352334"><ele>374.0</ele><time>2026-04-24T15:47:47.217Z</time></trkpt><trkpt lat="44.6131118" lon="10.1354083"><ele>374.0</ele><time>2026-04-24T15:47:48.218Z</time></trkpt><trkpt lat="44.6132112" lon="10.1356158"><ele>374.0</ele><time>2026-04-24T15:47:49.216Z</time></trkpt><trkpt lat="44.6133085" lon="10.1358343"><ele>374.0</ele><time>2026-04-24T15:47:50.217Z</time></trkpt><trkpt lat="44.6134123" lon="10.1360566"><ele>373.33333333333337</ele><time>2026-04-24T15:47:51.216Z</time></trkpt><trkpt lat="44.6135239" lon="10.1362796"><ele>372.6666666666667</ele><time>2026-04-24T15:47:52.218Z</time></trkpt><trkpt lat="44.6136463" lon="10.1364913"><ele>372.0</ele><time>2026-04-24T15:47:53.217Z</time></trkpt><trkpt lat="44.6137699" lon="10.1367042"><ele>372.0</ele><time>2026-04-24T15:47:54.217Z</time></trkpt><trkpt lat="44.6138959" lon="10.1369176"><ele>372.0</ele><time>2026-04-24T15:47:55.218Z</time></trkpt><trkpt lat="44.6140158" lon="10.137134"><ele>372.0</ele><time>2026-04-24T15:47:56.217Z</time></trkpt><trkpt lat="44.6141255" lon="10.1373568"><ele>378.66666666666663</ele><time>2026-04-24T15:47:57.216Z</time></trkpt><trkpt lat="44.6142201" lon="10.1375883"><ele>385.3333333333333</ele><time>2026-04-24T15:47:58.218Z</time></trkpt><trkpt lat="44.6143093" lon="10.1378153"><ele>392.0</ele><time>2026-04-24T15:47:59.216Z</time></trkpt><trkpt lat="44.6143916" lon="10.138041"><ele>384.66666666666663</ele><time>2026-04-24T15:48:00.217Z</time></trkpt><trkpt lat="44.6144788" lon="10.1382654"><ele>377.3333333333333</ele><time>2026-04-24T15:48:01.216Z</time></trkpt><trkpt lat="44.6145743" lon="10.1384822"><ele>370.0</ele><time>2026-04-24T15:48:02.217Z</time></trkpt><trkpt lat="44.6146734" lon="10.1386989"><ele>370.0</ele><time>2026-04-24T15:48:03.218Z</time></trkpt><trkpt lat="44.6147775" lon="10.1389136"><ele>370.0</ele><time>2026-04-24T15:48:04.217Z</time></trkpt><trkpt lat="44.6148776" lon="10.1391299"><ele>370.0</ele><time>2026-04-24T15:48:05.217Z</time></trkpt><trkpt lat="44.6149749" lon="10.1393493"><ele>375.0</ele><time>2026-04-24T15:48:06.217Z</time></trkpt><trkpt lat="44.615071" lon="10.1395675"><ele>380.0</ele><time>2026-04-24T15:48:07.218Z</time></trkpt><trkpt lat="44.6151609" lon="10.1397929"><ele>385.0</ele><time>2026-04-24T15:48:08.216Z</time></trkpt><trkpt lat="44.6152466" lon="10.1400271"><ele>380.6666666666667</ele><time>2026-04-24T15:48:09.218Z</time></trkpt><trkpt lat="44.6153223" lon="10.1402686"><ele>376.33333333333337</ele><time>2026-04-24T15:48:10.216Z</time></trkpt><trkpt lat="44.6154035" lon="10.1405077"><ele>372.0</ele><time>2026-04-24T15:48:11.216Z</time></trkpt><trkpt lat="44.6154795" lon="10.1407505"><ele>372.0</ele><time>2026-04-24T15:48:12.216Z</time></trkpt><trkpt lat="44.6155554" lon="10.1409925"><ele>372.0</ele><time>2026-04-24T15:48:13.217Z</time></trkpt><trkpt lat="44.6156268" lon="10.1412177"><ele>372.0</ele><time>2026-04-24T15:48:14.216Z</time></trkpt><trkpt lat="44.6156741" lon="10.1414427"><ele>375.6666666666667</ele><time>2026-04-24T15:48:15.218Z</time></trkpt><trkpt lat="44.6156927" lon="10.1416798"><ele>379.33333333333337</ele><time>2026-04-24T15:48:16.216Z</time></trkpt><trkpt lat="44.6156964" lon="10.1419252"><ele>383.0</ele><time>2026-04-24T15:48:17.218Z</time></trkpt><trkpt lat="44.6156841" lon="10.1421788"><ele>382.33333333333337</ele><time>2026-04-24T15:48:18.216Z</time></trkpt><trkpt lat="44.6156759" lon="10.1424317"><ele>381.6666666666667</ele><time>2026-04-24T15:48:19.217Z</time></trkpt><trkpt lat="44.6156872" lon="10.142664"><ele>381.0</ele><time>2026-04-24T15:48:20.218Z</time></trkpt><trkpt lat="44.6157361" lon="10.1428818"><ele>381.0</ele><time>2026-04-24T15:48:21.217Z</time></trkpt><trkpt lat="44.6158192" lon="10.1430876"><ele>381.0</ele><time>2026-04-24T15:48:22.218Z</time></trkpt><trkpt lat="44.6159344" lon="10.1432724"><ele>381.0</ele><time>2026-04-24T15:48:23.216Z</time></trkpt><trkpt lat="44.616052" lon="10.143459"><ele>383.0</ele><time>2026-04-24T15:48:24.218Z</time></trkpt><trkpt lat="44.616152" lon="10.1436556"><ele>385.0</ele><time>2026-04-24T15:48:25.217Z</time></trkpt><trkpt lat="44.616215" lon="10.1438871"><ele>387.0</ele><time>2026-04-24T15:48:26.217Z</time></trkpt><trkpt lat="44.6162351" lon="10.1441362"><ele>379.0</ele><time>2026-04-24T15:48:27.216Z</time></trkpt><trkpt lat="44.6162259" lon="10.1443963"><ele>371.0</ele><time>2026-04-24T15:48:28.218Z</time></trkpt><trkpt lat="44.6162022" lon="10.1446729"><ele>363.0</ele><time>2026-04-24T15:48:29.217Z</time></trkpt><trkpt lat="44.6161763" lon="10.1449573"><ele>375.33333333333337</ele><time>2026-04-24T15:48:30.218Z</time></trkpt><trkpt lat="44.6161462" lon="10.1452405"><ele>387.6666666666667</ele><time>2026-04-24T15:48:31.216Z</time></trkpt><trkpt lat="44.6161124" lon="10.1455201"><ele>400.0</ele><time>2026-04-24T15:48:32.217Z</time></trkpt><trkpt lat="44.6160759" lon="10.1457901"><ele>400.0</ele><time>2026-04-24T15:48:33.218Z</time></trkpt><trkpt lat="44.6160457" lon="10.1460671"><ele>400.0</ele><time>2026-04-24T15:48:34.216Z</time></trkpt><trkpt lat="44.6160302" lon="10.1463472"><ele>400.0</ele><time>2026-04-24T15:48:35.217Z</time></trkpt><trkpt lat="44.6160175" lon="10.1466271"><ele>398.0</ele><time>2026-04-24T15:48:36.218Z</time></trkpt><trkpt lat="44.6160152" lon="10.1469052"><ele>396.0</ele><time>2026-04-24T15:48:37.217Z</time></trkpt><trkpt lat="44.6160225" lon="10.1471777"><ele>394.0</ele><time>2026-04-24T15:48:38.218Z</time></trkpt><trkpt lat="44.6160426" lon="10.1474398"><ele>393.0</ele><time>2026-04-24T15:48:39.217Z</time></trkpt><trkpt lat="44.6160554" lon="10.1476834"><ele>392.0</ele><time>2026-04-24T15:48:40.217Z</time></trkpt><trkpt lat="44.616034" lon="10.1479111"><ele>391.0</ele><time>2026-04-24T15:48:41.217Z</time></trkpt><trkpt lat="44.6159905" lon="10.1481414"><ele>388.6666666666667</ele><time>2026-04-24T15:48:42.218Z</time></trkpt><trkpt lat="44.6159131" lon="10.1483637"><ele>386.33333333333337</ele><time>2026-04-24T15:48:43.216Z</time></trkpt><trkpt lat="44.6158086" lon="10.1485744"><ele>384.0</ele><time>2026-04-24T15:48:44.218Z</time></trkpt><trkpt lat="44.6157019" lon="10.1487892"><ele>384.0</ele><time>2026-04-24T15:48:45.217Z</time></trkpt><trkpt lat="44.6156146" lon="10.1490274"><ele>384.0</ele><time>2026-04-24T15:48:46.218Z</time></trkpt><trkpt lat="44.6155641" lon="10.1492881"><ele>384.0</ele><time>2026-04-24T15:48:47.218Z</time></trkpt><trkpt lat="44.6155277" lon="10.1495578"><ele>380.0</ele><time>2026-04-24T15:48:48.217Z</time></trkpt><trkpt lat="44.6155032" lon="10.1498207"><ele>376.0</ele><time>2026-04-24T15:48:49.216Z</time></trkpt><trkpt lat="44.6154847" lon="10.150069"><ele>372.0</ele><time>2026-04-24T15:48:50.218Z</time></trkpt><trkpt lat="44.6154754" lon="10.1502971"><ele>369.6666666666667</ele><time>2026-04-24T15:48:51.216Z</time></trkpt><trkpt lat="44.6154867" lon="10.1505234"><ele>367.33333333333337</ele><time>2026-04-24T15:48:52.217Z</time></trkpt><trkpt lat="44.6155313" lon="10.1507555"><ele>365.0</ele><time>2026-04-24T15:48:53.218Z</time></trkpt><trkpt lat="44.6156014" lon="10.1509841"><ele>364.6666666666667</ele><time>2026-04-24T15:48:54.217Z</time></trkpt><trkpt lat="44.6156631" lon="10.1512147"><ele>364.3333333333333</ele><time>2026-04-24T15:48:55.217Z</time></trkpt><trkpt lat="44.6157055" lon="10.1514648"><ele>364.0</ele><time>2026-04-24T15:48:56.217Z</time></trkpt><trkpt lat="44.6157253" lon="10.1517161"><ele>364.0</ele><time>2026-04-24T15:48:57.217Z</time></trkpt><trkpt lat="44.6157208" lon="10.1519632"><ele>364.0</ele><time>2026-04-24T15:48:58.218Z</time></trkpt><trkpt lat="44.6156913" lon="10.1522096"><ele>364.0</ele><time>2026-04-24T15:48:59.216Z</time></trkpt><trkpt lat="44.6156579" lon="10.152455"><ele>364.0</ele><time>2026-04-24T15:49:00.217Z</time></trkpt><trkpt lat="44.6156391" lon="10.1527036"><ele>364.0</ele><time>2026-04-24T15:49:01.218Z</time></trkpt><trkpt lat="44.6156363" lon="10.1529674"><ele>364.0</ele><time>2026-04-24T15:49:02.217Z</time></trkpt><trkpt lat="44.6156419" lon="10.1532325"><ele>364.0</ele><time>2026-04-24T15:49:03.217Z</time></trkpt><trkpt lat="44.6156541" lon="10.1535021"><ele>364.0</ele><time>2026-04-24T15:49:04.217Z</time></trkpt><trkpt lat="44.6156719" lon="10.1537668"><ele>364.0</ele><time>2026-04-24T15:49:05.217Z</time></trkpt><trkpt lat="44.6156802" lon="10.1540306"><ele>364.66666666666663</ele><time>2026-04-24T15:49:06.217Z</time></trkpt><trkpt lat="44.6156878" lon="10.1542954"><ele>365.3333333333333</ele><time>2026-04-24T15:49:07.217Z</time></trkpt><trkpt lat="44.6156997" lon="10.1545539"><ele>366.0</ele><time>2026-04-24T15:49:08.217Z</time></trkpt><trkpt lat="44.6157272" lon="10.154786"><ele>363.6666666666667</ele><time>2026-04-24T15:49:09.218Z</time></trkpt><trkpt lat="44.6157798" lon="10.1550064"><ele>361.33333333333337</ele><time>2026-04-24T15:49:10.216Z</time></trkpt><trkpt lat="44.6158603" lon="10.1552234"><ele>359.0</ele><time>2026-04-24T15:49:11.218Z</time></trkpt><trkpt lat="44.6159659" lon="10.1554369"><ele>359.0</ele><time>2026-04-24T15:49:12.216Z</time></trkpt><trkpt lat="44.6161002" lon="10.1556269"><ele>359.0</ele><time>2026-04-24T15:49:13.217Z</time></trkpt><trkpt lat="44.6162462" lon="10.1558016"><ele>359.0</ele><time>2026-04-24T15:49:14.217Z</time></trkpt><trkpt lat="44.6163994" lon="10.1559632"><ele>358.6666666666667</ele><time>2026-04-24T15:49:15.216Z</time></trkpt><trkpt lat="44.6165649" lon="10.1560974"><ele>358.3333333333333</ele><time>2026-04-24T15:49:16.218Z</time></trkpt><trkpt lat="44.6167337" lon="10.1562244"><ele>358.0</ele><time>2026-04-24T15:49:17.216Z</time></trkpt><trkpt lat="44.6168996" lon="10.1563501"><ele>356.0</ele><time>2026-04-24T15:49:18.217Z</time></trkpt><trkpt lat="44.6170545" lon="10.1564914"><ele>354.0</ele><time>2026-04-24T15:49:19.217Z</time></trkpt><trkpt lat="44.6172073" lon="10.1566627"><ele>352.0</ele><time>2026-04-24T15:49:20.217Z</time></trkpt><trkpt lat="44.6173486" lon="10.1568545"><ele>352.0</ele><time>2026-04-24T15:49:21.217Z</time></trkpt><trkpt lat="44.6174859" lon="10.1570437"><ele>352.0</ele><time>2026-04-24T15:49:22.217Z</time></trkpt><trkpt lat="44.6176143" lon="10.1572159"><ele>352.0</ele><time>2026-04-24T15:49:23.217Z</time></trkpt><trkpt lat="44.617734" lon="10.1573773"><ele>349.3333333333333</ele><time>2026-04-24T15:49:24.218Z</time></trkpt><trkpt lat="44.6178371" lon="10.1575437"><ele>346.6666666666667</ele><time>2026-04-24T15:49:25.216Z</time></trkpt><trkpt lat="44.6179247" lon="10.1577295"><ele>344.0</ele><time>2026-04-24T15:49:26.217Z</time></trkpt><trkpt lat="44.6179915" lon="10.1579371"><ele>344.0</ele><time>2026-04-24T15:49:27.217Z</time></trkpt><trkpt lat="44.6180372" lon="10.1581565"><ele>344.0</ele><time>2026-04-24T15:49:28.216Z</time></trkpt><trkpt lat="44.6180451" lon="10.1583829"><ele>344.0</ele><time>2026-04-24T15:49:29.217Z</time></trkpt><trkpt lat="44.6180347" lon="10.1586146"><ele>345.33333333333337</ele><time>2026-04-24T15:49:30.216Z</time></trkpt><trkpt lat="44.6179985" lon="10.158853"><ele>346.6666666666667</ele><time>2026-04-24T15:49:31.218Z</time></trkpt><trkpt lat="44.6179501" lon="10.1590928"><ele>348.0</ele><time>2026-04-24T15:49:32.217Z</time></trkpt><trkpt lat="44.617906" lon="10.1593151"><ele>348.0</ele><time>2026-04-24T15:49:33.218Z</time></trkpt><trkpt lat="44.6178694" lon="10.1595163"><ele>348.0</ele><time>2026-04-24T15:49:34.217Z</time></trkpt><trkpt lat="44.6178599" lon="10.1597012"><ele>348.0</ele><time>2026-04-24T15:49:35.217Z</time></trkpt><trkpt lat="44.6178828" lon="10.1598764"><ele>348.0</ele><time>2026-04-24T15:49:36.217Z</time></trkpt><trkpt lat="44.6179251" lon="10.1600598"><ele>349.3333333333333</ele><time>2026-04-24T15:49:37.216Z</time></trkpt><trkpt lat="44.6179743" lon="10.1602198"><ele>350.66666666666663</ele><time>2026-04-24T15:49:38.216Z</time></trkpt><trkpt lat="44.6180438" lon="10.160339"><ele>352.0</ele><time>2026-04-24T15:49:39.218Z</time></trkpt><trkpt lat="44.6182848" lon="10.160342"><ele>352.0</ele><time>2026-04-24T15:49:40.216Z</time></trkpt><trkpt lat="44.6183958" lon="10.1604442"><ele>352.0</ele><time>2026-04-24T15:49:41.217Z</time></trkpt><trkpt lat="44.6185024" lon="10.1605689"><ele>352.0</ele><time>2026-04-24T15:49:42.217Z</time></trkpt><trkpt lat="44.6185928" lon="10.1607249"><ele>352.0</ele><time>2026-04-24T15:49:43.216Z</time></trkpt><trkpt lat="44.6186619" lon="10.160915"><ele>350.0</ele><time>2026-04-24T15:49:44.218Z</time></trkpt><trkpt lat="44.6187068" lon="10.1611408"><ele>348.0</ele><time>2026-04-24T15:49:45.216Z</time></trkpt><trkpt lat="44.6187494" lon="10.1613841"><ele>346.0</ele><time>2026-04-24T15:49:46.217Z</time></trkpt><trkpt lat="44.6187983" lon="10.1616274"><ele>346.0</ele><time>2026-04-24T15:49:47.216Z</time></trkpt><trkpt lat="44.6188578" lon="10.161851"><ele>346.0</ele><time>2026-04-24T15:49:48.216Z</time></trkpt><trkpt lat="44.6189153" lon="10.1620579"><ele>346.0</ele><time>2026-04-24T15:49:49.217Z</time></trkpt><trkpt lat="44.6189616" lon="10.1622765"><ele>347.66666666666663</ele><time>2026-04-24T15:49:50.216Z</time></trkpt><trkpt lat="44.6189826" lon="10.1625038"><ele>349.3333333333333</ele><time>2026-04-24T15:49:51.218Z</time></trkpt><trkpt lat="44.6189762" lon="10.1627413"><ele>351.0</ele><time>2026-04-24T15:49:52.217Z</time></trkpt><trkpt lat="44.6189368" lon="10.1629781"><ele>351.0</ele><time>2026-04-24T15:49:53.218Z</time></trkpt><trkpt lat="44.6188909" lon="10.1632203"><ele>351.0</ele><time>2026-04-24T15:49:54.217Z</time></trkpt><trkpt lat="44.6188582" lon="10.163462"><ele>351.0</ele><time>2026-04-24T15:49:55.218Z</time></trkpt><trkpt lat="44.6188413" lon="10.1636994"><ele>351.0</ele><time>2026-04-24T15:49:56.216Z</time></trkpt><trkpt lat="44.6188271" lon="10.1639368"><ele>351.0</ele><time>2026-04-24T15:49:57.217Z</time></trkpt><trkpt lat="44.6188149" lon="10.1641554"><ele>351.0</ele><time>2026-04-24T15:49:58.216Z</time></trkpt><trkpt lat="44.6188097" lon="10.1643611"><ele>351.3333333333333</ele><time>2026-04-24T15:49:59.217Z</time></trkpt><trkpt lat="44.6188197" lon="10.1645714"><ele>351.66666666666663</ele><time>2026-04-24T15:50:00.217Z</time></trkpt><trkpt lat="44.6188592" lon="10.1647804"><ele>352.0</ele><time>2026-04-24T15:50:01.217Z</time></trkpt><trkpt lat="44.6189393" lon="10.1649683"><ele>354.0</ele><time>2026-04-24T15:50:02.217Z</time></trkpt><trkpt lat="44.6190511" lon="10.1651297"><ele>356.0</ele><time>2026-04-24T15:50:03.218Z</time></trkpt><trkpt lat="44.6191918" lon="10.1652626"><ele>358.0</ele><time>2026-04-24T15:50:04.216Z</time></trkpt><trkpt lat="44.6193454" lon="10.1653772"><ele>357.0</ele><time>2026-04-24T15:50:05.216Z</time></trkpt><trkpt lat="44.6194971" lon="10.1654941"><ele>356.0</ele><time>2026-04-24T15:50:06.218Z</time></trkpt><trkpt lat="44.6196465" lon="10.1656095"><ele>355.0</ele><time>2026-04-24T15:50:07.216Z</time></trkpt><trkpt lat="44.6198017" lon="10.1657285"><ele>355.0</ele><time>2026-04-24T15:50:08.218Z</time></trkpt><trkpt lat="44.6199566" lon="10.1658501"><ele>355.0</ele><time>2026-04-24T15:50:09.216Z</time></trkpt><trkpt lat="44.6201119" lon="10.1659703"><ele>355.0</ele><time>2026-04-24T15:50:10.218Z</time></trkpt><trkpt lat="44.620272" lon="10.1660981"><ele>354.66666666666663</ele><time>2026-04-24T15:50:11.217Z</time></trkpt><trkpt lat="44.6204358" lon="10.1662263"><ele>354.3333333333333</ele><time>2026-04-24T15:50:12.217Z</time></trkpt><trkpt lat="44.6206029" lon="10.1663559"><ele>354.0</ele><time>2026-04-24T15:50:13.216Z</time></trkpt><trkpt lat="44.620768" lon="10.1664937"><ele>354.6666666666667</ele><time>2026-04-24T15:50:14.216Z</time></trkpt><trkpt lat="44.6209348" lon="10.1666277"><ele>355.33333333333337</ele><time>2026-04-24T15:50:15.217Z</time></trkpt><trkpt lat="44.6211" lon="10.1667551"><ele>356.0</ele><time>2026-04-24T15:50:16.216Z</time></trkpt><trkpt lat="44.6212642" lon="10.1668695"><ele>354.33333333333337</ele><time>2026-04-24T15:50:17.217Z</time></trkpt><trkpt lat="44.6214359" lon="10.1669605"><ele>352.6666666666667</ele><time>2026-04-24T15:50:18.218Z</time></trkpt><trkpt lat="44.6216156" lon="10.1670188"><ele>351.0</ele><time>2026-04-24T15:50:19.217Z</time></trkpt><trkpt lat="44.6217968" lon="10.1670501"><ele>351.0</ele><time>2026-04-24T15:50:20.216Z</time></trkpt><trkpt lat="44.6219813" lon="10.1670656"><ele>351.0</ele><time>2026-04-24T15:50:21.217Z</time></trkpt><trkpt lat="44.6221584" lon="10.1670717"><ele>351.0</ele><time>2026-04-24T15:50:22.216Z</time></trkpt><trkpt lat="44.6223309" lon="10.1670833"><ele>349.0</ele><time>2026-04-24T15:50:23.218Z</time></trkpt><trkpt lat="44.6225059" lon="10.1671095"><ele>347.0</ele><time>2026-04-24T15:50:24.217Z</time></trkpt><trkpt lat="44.6226854" lon="10.1671438"><ele>345.0</ele><time>2026-04-24T15:50:25.218Z</time></trkpt><trkpt lat="44.6228677" lon="10.1671895"><ele>342.3333333333333</ele><time>2026-04-24T15:50:26.217Z</time></trkpt><trkpt lat="44.6230446" lon="10.1672374"><ele>339.66666666666663</ele><time>2026-04-24T15:50:27.218Z</time></trkpt><trkpt lat="44.6232113" lon="10.1672789"><ele>337.0</ele><time>2026-04-24T15:50:28.216Z</time></trkpt><trkpt lat="44.6233713" lon="10.1672916"><ele>337.0</ele><time>2026-04-24T15:50:29.216Z</time></trkpt><trkpt lat="44.6235347" lon="10.1672677"><ele>337.0</ele><time>2026-04-24T15:50:30.217Z</time></trkpt><trkpt lat="44.6236821" lon="10.1672147"><ele>337.0</ele><time>2026-04-24T15:50:31.217Z</time></trkpt><trkpt lat="44.6238171" lon="10.1671474"><ele>337.0</ele><time>2026-04-24T15:50:32.218Z</time></trkpt><trkpt lat="44.6239264" lon="10.1670872"><ele>337.0</ele><time>2026-04-24T15:50:33.217Z</time></trkpt><trkpt lat="44.6240344" lon="10.1670439"><ele>337.0</ele><time>2026-04-24T15:50:34.217Z</time></trkpt><trkpt lat="44.6241407" lon="10.1670274"><ele>337.0</ele><time>2026-04-24T15:50:35.217Z</time></trkpt><trkpt lat="44.6242453" lon="10.1670416"><ele>337.0</ele><time>2026-04-24T15:50:36.218Z</time></trkpt><trkpt lat="44.6243464" lon="10.1670767"><ele>337.0</ele><time>2026-04-24T15:50:37.216Z</time></trkpt><trkpt lat="44.6244584" lon="10.1671301"><ele>337.0</ele><time>2026-04-24T15:50:38.216Z</time></trkpt><trkpt lat="44.6245807" lon="10.1671902"><ele>337.0</ele><time>2026-04-24T15:50:39.217Z</time></trkpt><trkpt lat="44.6247065" lon="10.167265"><ele>337.0</ele><time>2026-04-24T15:50:40.217Z</time></trkpt><trkpt lat="44.6248442" lon="10.1673353"><ele>338.3333333333333</ele><time>2026-04-24T15:50:41.217Z</time></trkpt><trkpt lat="44.6249878" lon="10.1674091"><ele>339.6666666666667</ele><time>2026-04-24T15:50:42.216Z</time></trkpt><trkpt lat="44.6251328" lon="10.1674899"><ele>341.0</ele><time>2026-04-24T15:50:43.218Z</time></trkpt><trkpt lat="44.6252824" lon="10.1675769"><ele>339.33333333333337</ele><time>2026-04-24T15:50:44.217Z</time></trkpt><trkpt lat="44.6254324" lon="10.1676597"><ele>337.6666666666667</ele><time>2026-04-24T15:50:45.218Z</time></trkpt><trkpt lat="44.6255727" lon="10.1677426"><ele>336.0</ele><time>2026-04-24T15:50:46.218Z</time></trkpt><trkpt lat="44.6257085" lon="10.1678176"><ele>336.0</ele><time>2026-04-24T15:50:47.216Z</time></trkpt><trkpt lat="44.6258379" lon="10.1678898"><ele>336.0</ele><time>2026-04-24T15:50:48.217Z</time></trkpt><trkpt lat="44.6259561" lon="10.1679607"><ele>336.0</ele><time>2026-04-24T15:50:49.217Z</time></trkpt><trkpt lat="44.6260728" lon="10.1680302"><ele>336.0</ele><time>2026-04-24T15:50:50.217Z</time></trkpt><trkpt lat="44.6261857" lon="10.1680898"><ele>335.4</ele><time>2026-04-24T15:50:51.217Z</time></trkpt><trkpt lat="44.6262894" lon="10.1681486"><ele>334.8</ele><time>2026-04-24T15:50:52.218Z</time></trkpt><trkpt lat="44.6263874" lon="10.1682056"><ele>334.2</ele><time>2026-04-24T15:50:53.216Z</time></trkpt><trkpt lat="44.6264826" lon="10.1682582"><ele>333.59999999999997</ele><time>2026-04-24T15:50:54.216Z</time></trkpt><trkpt lat="44.62658" lon="10.1683151"><ele>333.0</ele><time>2026-04-24T15:50:55.218Z</time></trkpt><trkpt lat="44.6266815" lon="10.1683777"><ele>333.0</ele><time>2026-04-24T15:50:56.218Z</time></trkpt><trkpt lat="44.6267913" lon="10.1684381"><ele>333.0</ele><time>2026-04-24T15:50:57.216Z</time></trkpt><trkpt lat="44.626895" lon="10.1685083"><ele>333.0</ele><time>2026-04-24T15:50:58.217Z</time></trkpt><trkpt lat="44.6269942" lon="10.1685803"><ele>333.0</ele><time>2026-04-24T15:50:59.218Z</time></trkpt><trkpt lat="44.6270869" lon="10.1686586"><ele>332.59999999999997</ele><time>2026-04-24T15:51:00.217Z</time></trkpt><trkpt lat="44.627176" lon="10.1687384"><ele>332.2</ele><time>2026-04-24T15:51:01.217Z</time></trkpt><trkpt lat="44.6272572" lon="10.1688138"><ele>331.8</ele><time>2026-04-24T15:51:02.217Z</time></trkpt><trkpt lat="44.6273231" lon="10.1688789"><ele>331.4</ele><time>2026-04-24T15:51:03.216Z</time></trkpt><trkpt lat="44.6274014" lon="10.1689625"><ele>331.0</ele><time>2026-04-24T15:51:05.218Z</time></trkpt><trkpt lat="44.6274628" lon="10.1690316"><ele>331.0</ele><time>2026-04-24T15:51:07.217Z</time></trkpt><trkpt lat="44.6275281" lon="10.1691077"><ele>331.0</ele><time>2026-04-24T15:51:09.217Z</time></trkpt><trkpt lat="44.6276285" lon="10.1692186"><ele>331.0</ele><time>2026-04-24T15:51:11.217Z</time></trkpt><trkpt lat="44.627694" lon="10.1692954"><ele>331.0</ele><time>2026-04-24T15:51:13.217Z</time></trkpt><trkpt lat="44.6277703" lon="10.1693815"><ele>331.0</ele><time>2026-04-24T15:51:17.216Z</time></trkpt><trkpt lat="44.627859" lon="10.1694958"><ele>330.0</ele><time>2026-04-24T15:51:19.217Z</time></trkpt><trkpt lat="44.627911" lon="10.1695703"><ele>329.0</ele><time>2026-04-24T15:51:20.217Z</time></trkpt><trkpt lat="44.6279711" lon="10.1696569"><ele>328.0</ele><time>2026-04-24T15:51:21.217Z</time></trkpt><trkpt lat="44.6280264" lon="10.1697463"><ele>327.0</ele><time>2026-04-24T15:51:22.218Z</time></trkpt><trkpt lat="44.6280755" lon="10.1698332"><ele>326.0</ele><time>2026-04-24T15:51:23.217Z</time></trkpt><trkpt lat="44.6281237" lon="10.1699223"><ele>325.0</ele><time>2026-04-24T15:51:24.216Z</time></trkpt><trkpt lat="44.6281752" lon="10.1700096"><ele>325.0</ele><time>2026-04-24T15:51:25.217Z</time></trkpt><trkpt lat="44.628224" lon="10.1700998"><ele>325.0</ele><time>2026-04-24T15:51:26.217Z</time></trkpt><trkpt lat="44.6282734" lon="10.1701848"><ele>325.0</ele><time>2026-04-24T15:51:27.216Z</time></trkpt><trkpt lat="44.6283235" lon="10.170274"><ele>325.0</ele><time>2026-04-24T15:51:28.218Z</time></trkpt><trkpt lat="44.6283755" lon="10.1703705"><ele>325.0</ele><time>2026-04-24T15:51:29.216Z</time></trkpt><trkpt lat="44.6284331" lon="10.1704742"><ele>325.0</ele><time>2026-04-24T15:51:30.217Z</time></trkpt><trkpt lat="44.6284863" lon="10.1705997"><ele>324.25</ele><time>2026-04-24T15:51:31.217Z</time></trkpt><trkpt lat="44.6285557" lon="10.1707217"><ele>323.5</ele><time>2026-04-24T15:51:32.217Z</time></trkpt><trkpt lat="44.6286421" lon="10.1708448"><ele>322.75</ele><time>2026-04-24T15:51:33.216Z</time></trkpt><trkpt lat="44.6287477" lon="10.1709573"><ele>322.0</ele><time>2026-04-24T15:51:34.217Z</time></trkpt><trkpt lat="44.6288737" lon="10.1710641"><ele>322.0</ele><time>2026-04-24T15:51:35.216Z</time></trkpt><trkpt lat="44.6290328" lon="10.1711346"><ele>322.0</ele><time>2026-04-24T15:51:36.217Z</time></trkpt><trkpt lat="44.6291937" lon="10.1711855"><ele>322.0</ele><time>2026-04-24T15:51:37.217Z</time></trkpt><trkpt lat="44.6293498" lon="10.1712153"><ele>320.66666666666663</ele><time>2026-04-24T15:51:38.216Z</time></trkpt><trkpt lat="44.6295072" lon="10.1712443"><ele>319.3333333333333</ele><time>2026-04-24T15:51:39.217Z</time></trkpt><trkpt lat="44.629665" lon="10.1712749"><ele>318.0</ele><time>2026-04-24T15:51:40.217Z</time></trkpt><trkpt lat="44.6298223" lon="10.1713079"><ele>318.0</ele><time>2026-04-24T15:51:41.216Z</time></trkpt><trkpt lat="44.629983" lon="10.171337"><ele>318.0</ele><time>2026-04-24T15:51:42.217Z</time></trkpt><trkpt lat="44.6301336" lon="10.1713713"><ele>318.0</ele><time>2026-04-24T15:51:43.215Z</time></trkpt><trkpt lat="44.6302772" lon="10.1714218"><ele>318.0</ele><time>2026-04-24T15:51:44.216Z</time></trkpt><trkpt lat="44.6304042" lon="10.1714953"><ele>318.0</ele><time>2026-04-24T15:51:45.215Z</time></trkpt><trkpt lat="44.6305161" lon="10.1715942"><ele>318.0</ele><time>2026-04-24T15:51:46.215Z</time></trkpt><trkpt lat="44.6306122" lon="10.1717093"><ele>318.0</ele><time>2026-04-24T15:51:47.217Z</time></trkpt><trkpt lat="44.6306998" lon="10.1718364"><ele>318.0</ele><time>2026-04-24T15:51:48.216Z</time></trkpt><trkpt lat="44.6307855" lon="10.1719676"><ele>318.0</ele><time>2026-04-24T15:51:49.215Z</time></trkpt><trkpt lat="44.6308755" lon="10.1720889"><ele>318.0</ele><time>2026-04-24T15:51:50.215Z</time></trkpt><trkpt lat="44.6309583" lon="10.172181"><ele>318.0</ele><time>2026-04-24T15:51:51.216Z</time></trkpt><trkpt lat="44.6310206" lon="10.1722634"><ele>318.0</ele><time>2026-04-24T15:51:52.217Z</time></trkpt><trkpt lat="44.6310426" lon="10.1723526"><ele>318.4</ele><time>2026-04-24T15:51:53.215Z</time></trkpt><trkpt lat="44.6310279" lon="10.1724449"><ele>318.8</ele><time>2026-04-24T15:51:54.217Z</time></trkpt><trkpt lat="44.6309815" lon="10.1725393"><ele>319.2</ele><time>2026-04-24T15:51:55.216Z</time></trkpt><trkpt lat="44.6309103" lon="10.1726431"><ele>319.6</ele><time>2026-04-24T15:51:56.215Z</time></trkpt><trkpt lat="44.6308267" lon="10.1727683"><ele>320.0</ele><time>2026-04-24T15:51:57.215Z</time></trkpt><trkpt lat="44.6307213" lon="10.1728837"><ele>320.0</ele><time>2026-04-24T15:51:58.215Z</time></trkpt><trkpt lat="44.6306163" lon="10.173007"><ele>320.0</ele><time>2026-04-24T15:51:59.216Z</time></trkpt><trkpt lat="44.6305156" lon="10.1731214"><ele>320.0</ele><time>2026-04-24T15:52:00.216Z</time></trkpt><trkpt lat="44.6304081" lon="10.1732229"><ele>320.0</ele><time>2026-04-24T15:52:01.216Z</time></trkpt><trkpt lat="44.6303029" lon="10.1733293"><ele>321.8</ele><time>2026-04-24T15:52:02.215Z</time></trkpt><trkpt lat="44.6302218" lon="10.173389"><ele>323.6</ele><time>2026-04-24T15:52:03.215Z</time></trkpt><trkpt lat="44.6301366" lon="10.173465"><ele>325.4</ele><time>2026-04-24T15:52:04.216Z</time></trkpt><trkpt lat="44.6300761" lon="10.1735696"><ele>327.2</ele><time>2026-04-24T15:52:05.216Z</time></trkpt><trkpt lat="44.6300346" lon="10.1736954"><ele>329.0</ele><time>2026-04-24T15:52:06.215Z</time></trkpt><trkpt lat="44.6299736" lon="10.1738107"><ele>329.0</ele><time>2026-04-24T15:52:07.216Z</time></trkpt><trkpt lat="44.6299118" lon="10.1739257"><ele>329.0</ele><time>2026-04-24T15:52:08.215Z</time></trkpt><trkpt lat="44.6298402" lon="10.1740401"><ele>329.0</ele><time>2026-04-24T15:52:09.216Z</time></trkpt><trkpt lat="44.6297607" lon="10.1741543"><ele>329.0</ele><time>2026-04-24T15:52:10.216Z</time></trkpt><trkpt lat="44.6295879" lon="10.1743596"><ele>331.75</ele><time>2026-04-24T15:52:12.216Z</time></trkpt><trkpt lat="44.6294978" lon="10.174484"><ele>334.5</ele><time>2026-04-24T15:52:13.216Z</time></trkpt><trkpt lat="44.6293599" lon="10.174578"><ele>337.25</ele><time>2026-04-24T15:52:14.216Z</time></trkpt><trkpt lat="44.6292521" lon="10.1746983"><ele>340.0</ele><time>2026-04-24T15:52:15.215Z</time></trkpt><trkpt lat="44.6291512" lon="10.1747814"><ele>346.75</ele><time>2026-04-24T15:52:16.215Z</time></trkpt><trkpt lat="44.6290578" lon="10.1748776"><ele>353.5</ele><time>2026-04-24T15:52:17.216Z</time></trkpt><trkpt lat="44.6289642" lon="10.1749959"><ele>360.25</ele><time>2026-04-24T15:52:18.215Z</time></trkpt><trkpt lat="44.6288588" lon="10.1751466"><ele>367.0</ele><time>2026-04-24T15:52:19.216Z</time></trkpt><trkpt lat="44.6287411" lon="10.1752606"><ele>360.66666666666663</ele><time>2026-04-24T15:52:20.217Z</time></trkpt><trkpt lat="44.6286267" lon="10.1753763"><ele>354.3333333333333</ele><time>2026-04-24T15:52:21.217Z</time></trkpt><trkpt lat="44.6285254" lon="10.1755393"><ele>348.0</ele><time>2026-04-24T15:52:22.216Z</time></trkpt><trkpt lat="44.628389" lon="10.1756595"><ele>358.0</ele><time>2026-04-24T15:52:23.217Z</time></trkpt><trkpt lat="44.6282667" lon="10.1757873"><ele>368.0</ele><time>2026-04-24T15:52:24.216Z</time></trkpt><trkpt lat="44.6281631" lon="10.1759524"><ele>378.0</ele><time>2026-04-24T15:52:25.216Z</time></trkpt><trkpt lat="44.628045" lon="10.1761069"><ele>378.0</ele><time>2026-04-24T15:52:26.215Z</time></trkpt><trkpt lat="44.6279509" lon="10.1762257"><ele>378.0</ele><time>2026-04-24T15:52:27.217Z</time></trkpt><trkpt lat="44.6278787" lon="10.176335"><ele>378.0</ele><time>2026-04-24T15:52:28.217Z</time></trkpt><trkpt lat="44.6278169" lon="10.176432"><ele>378.0</ele><time>2026-04-24T15:52:29.217Z</time></trkpt><trkpt lat="44.6277629" lon="10.1765438"><ele>378.0</ele><time>2026-04-24T15:52:30.216Z</time></trkpt><trkpt lat="44.6278855" lon="10.176675"><ele>381.2</ele><time>2026-04-24T15:52:32.216Z</time></trkpt><trkpt lat="44.6279534" lon="10.1767399"><ele>384.4</ele><time>2026-04-24T15:52:33.216Z</time></trkpt><trkpt lat="44.6280431" lon="10.1767974"><ele>387.59999999999997</ele><time>2026-04-24T15:52:34.216Z</time></trkpt><trkpt lat="44.6281314" lon="10.176825"><ele>390.79999999999995</ele><time>2026-04-24T15:52:35.216Z</time></trkpt><trkpt lat="44.6282639" lon="10.1767939"><ele>394.0</ele><time>2026-04-24T15:52:36.216Z</time></trkpt><trkpt lat="44.6283402" lon="10.1766463"><ele>393.75</ele><time>2026-04-24T15:52:37.215Z</time></trkpt><trkpt lat="44.6284335" lon="10.1764949"><ele>393.5</ele><time>2026-04-24T15:52:38.215Z</time></trkpt><trkpt lat="44.6285288" lon="10.1763754"><ele>393.25</ele><time>2026-04-24T15:52:39.215Z</time></trkpt><trkpt lat="44.6286387" lon="10.1762575"><ele>393.0</ele><time>2026-04-24T15:52:40.216Z</time></trkpt><trkpt lat="44.628758" lon="10.1761896"><ele>393.0</ele><time>2026-04-24T15:52:41.215Z</time></trkpt><trkpt lat="44.6288883" lon="10.1761791"><ele>393.0</ele><time>2026-04-24T15:52:42.215Z</time></trkpt><trkpt lat="44.6290127" lon="10.176198"><ele>393.0</ele><time>2026-04-24T15:52:43.215Z</time></trkpt><trkpt lat="44.6291428" lon="10.1762063"><ele>393.0</ele><time>2026-04-24T15:52:44.216Z</time></trkpt><trkpt lat="44.6292826" lon="10.1761781"><ele>393.0</ele><time>2026-04-24T15:52:45.215Z</time></trkpt><trkpt lat="44.6294116" lon="10.1760916"><ele>393.0</ele><time>2026-04-24T15:52:46.216Z</time></trkpt><trkpt lat="44.6295421" lon="10.1760126"><ele>393.0</ele><time>2026-04-24T15:52:47.217Z</time></trkpt><trkpt lat="44.6296522" lon="10.1759429"><ele>393.0</ele><time>2026-04-24T15:52:48.216Z</time></trkpt><trkpt lat="44.6297594" lon="10.175902"><ele>396.25</ele><time>2026-04-24T15:52:49.217Z</time></trkpt><trkpt lat="44.6298643" lon="10.1759015"><ele>399.5</ele><time>2026-04-24T15:52:50.216Z</time></trkpt><trkpt lat="44.629969" lon="10.1759323"><ele>402.75</ele><time>2026-04-24T15:52:51.216Z</time></trkpt><trkpt lat="44.6300806" lon="10.1759873"><ele>406.0</ele><time>2026-04-24T15:52:52.217Z</time></trkpt><trkpt lat="44.6301934" lon="10.1760576"><ele>406.00000000000006</ele><time>2026-04-24T15:52:53.216Z</time></trkpt><trkpt lat="44.6302806" lon="10.1761363"><ele>406.0</ele><time>2026-04-24T15:52:54.217Z</time></trkpt><trkpt lat="44.6303537" lon="10.1762054"><ele>406.0</ele><time>2026-04-24T15:52:55.216Z</time></trkpt><trkpt lat="44.6304146" lon="10.1762703"><ele>406.0</ele><time>2026-04-24T15:52:56.216Z</time></trkpt><trkpt lat="44.6304635" lon="10.1763324"><ele>406.00000000000006</ele><time>2026-04-24T15:52:57.216Z</time></trkpt><trkpt lat="44.6305251" lon="10.1764034"><ele>406.0</ele><time>2026-04-24T15:52:59.216Z</time></trkpt><trkpt lat="44.6305849" lon="10.176462"><ele>406.00000000000006</ele><time>2026-04-24T15:53:03.216Z</time></trkpt><trkpt lat="44.6305092" lon="10.1764032"><ele>406.0</ele><time>2026-04-24T15:53:08.216Z</time></trkpt><trkpt lat="44.6304637" lon="10.1763155"><ele>406.0</ele><time>2026-04-24T15:53:10.216Z</time></trkpt><trkpt lat="44.6304146" lon="10.1762464"><ele>406.0</ele><time>2026-04-24T15:53:12.217Z</time></trkpt><trkpt lat="44.6303631" lon="10.1761858"><ele>406.00000000000006</ele><time>2026-04-24T15:53:14.215Z</time></trkpt><trkpt lat="44.6302963" lon="10.1761754"><ele>406.0</ele><time>2026-04-24T15:53:17.216Z</time></trkpt><trkpt lat="44.6302233" lon="10.1762323"><ele>406.0</ele><time>2026-04-24T15:53:19.216Z</time></trkpt><trkpt lat="44.6301207" lon="10.1762407"><ele>406.0</ele><time>2026-04-24T15:53:21.217Z</time></trkpt><trkpt lat="44.6300317" lon="10.1762528"><ele>406.0</ele><time>2026-04-24T15:54:10.216Z</time></trkpt><trkpt lat="44.6298948" lon="10.1762723"><ele>406.0</ele><time>2026-04-24T15:54:12.215Z</time></trkpt><trkpt lat="44.6298115" lon="10.1763022"><ele>406.0</ele><time>2026-04-24T15:54:13.216Z</time></trkpt><trkpt lat="44.6297231" lon="10.1763509"><ele>406.0</ele><time>2026-04-24T15:54:14.216Z</time></trkpt><trkpt lat="44.6296334" lon="10.1764497"><ele>406.0</ele><time>2026-04-24T15:54:15.217Z</time></trkpt><trkpt lat="44.6295306" lon="10.1765619"><ele>406.0</ele><time>2026-04-24T15:54:16.216Z</time></trkpt><trkpt lat="44.6294334" lon="10.1766396"><ele>406.0</ele><time>2026-04-24T15:54:17.217Z</time></trkpt><trkpt lat="44.6293516" lon="10.1766989"><ele>406.0</ele><time>2026-04-24T15:54:18.217Z</time></trkpt><trkpt lat="44.6292782" lon="10.1767725"><ele>408.75</ele><time>2026-04-24T15:54:19.215Z</time></trkpt><trkpt lat="44.6291932" lon="10.1768843"><ele>411.5</ele><time>2026-04-24T15:54:20.217Z</time></trkpt><trkpt lat="44.6291898" lon="10.1770022"><ele>414.25</ele><time>2026-04-24T15:54:21.216Z</time></trkpt><trkpt lat="44.6292176" lon="10.1772585"><ele>417.0</ele><time>2026-04-24T15:54:22.216Z</time></trkpt><trkpt lat="44.62919" lon="10.1774448"><ele>420.75</ele><time>2026-04-24T15:54:23.216Z</time></trkpt><trkpt lat="44.6291757" lon="10.1776306"><ele>424.5</ele><time>2026-04-24T15:54:24.216Z</time></trkpt><trkpt lat="44.6291599" lon="10.1778352"><ele>428.25</ele><time>2026-04-24T15:54:25.215Z</time></trkpt><trkpt lat="44.6291362" lon="10.1780459"><ele>432.0</ele><time>2026-04-24T15:54:26.216Z</time></trkpt><trkpt lat="44.6291002" lon="10.1782514"><ele>434.5</ele><time>2026-04-24T15:54:27.217Z</time></trkpt><trkpt lat="44.6290628" lon="10.1784349"><ele>437.0</ele><time>2026-04-24T15:54:28.216Z</time></trkpt><trkpt lat="44.6290269" lon="10.1786027"><ele>439.5</ele><time>2026-04-24T15:54:29.216Z</time></trkpt><trkpt lat="44.6290035" lon="10.1787802"><ele>442.0</ele><time>2026-04-24T15:54:30.216Z</time></trkpt><trkpt lat="44.6289919" lon="10.1789631"><ele>444.75</ele><time>2026-04-24T15:54:31.216Z</time></trkpt><trkpt lat="44.6289805" lon="10.1791514"><ele>447.5</ele><time>2026-04-24T15:54:32.215Z</time></trkpt><trkpt lat="44.6289768" lon="10.179342"><ele>450.25</ele><time>2026-04-24T15:54:33.215Z</time></trkpt><trkpt lat="44.6289719" lon="10.1795283"><ele>453.0</ele><time>2026-04-24T15:54:34.216Z</time></trkpt><trkpt lat="44.6289585" lon="10.1797067"><ele>455.0</ele><time>2026-04-24T15:54:35.215Z</time></trkpt><trkpt lat="44.6289104" lon="10.1798694"><ele>457.0</ele><time>2026-04-24T15:54:36.215Z</time></trkpt><trkpt lat="44.6288685" lon="10.1800348"><ele>459.0</ele><time>2026-04-24T15:54:37.215Z</time></trkpt><trkpt lat="44.6288371" lon="10.1801863"><ele>461.0</ele><time>2026-04-24T15:54:38.215Z</time></trkpt><trkpt lat="44.6288134" lon="10.1803416"><ele>461.0</ele><time>2026-04-24T15:54:39.216Z</time></trkpt><trkpt lat="44.628831" lon="10.180512"><ele>461.0</ele><time>2026-04-24T15:54:40.215Z</time></trkpt><trkpt lat="44.628833" lon="10.1806765"><ele>461.0</ele><time>2026-04-24T15:54:41.216Z</time></trkpt><trkpt lat="44.6288352" lon="10.1808527"><ele>461.0</ele><time>2026-04-24T15:54:42.216Z</time></trkpt><trkpt lat="44.628827" lon="10.1810228"><ele>462.75</ele><time>2026-04-24T15:54:43.216Z</time></trkpt><trkpt lat="44.6287886" lon="10.1812127"><ele>464.5</ele><time>2026-04-24T15:54:44.216Z</time></trkpt><trkpt lat="44.6287623" lon="10.1814009"><ele>466.25</ele><time>2026-04-24T15:54:45.216Z</time></trkpt><trkpt lat="44.6287323" lon="10.1815785"><ele>468.0</ele><time>2026-04-24T15:54:46.215Z</time></trkpt><trkpt lat="44.6287106" lon="10.181738"><ele>469.79999999999995</ele><time>2026-04-24T15:54:47.216Z</time></trkpt><trkpt lat="44.6286856" lon="10.1818714"><ele>471.59999999999997</ele><time>2026-04-24T15:54:48.215Z</time></trkpt><trkpt lat="44.628673" lon="10.1819956"><ele>473.40000000000003</ele><time>2026-04-24T15:54:49.216Z</time></trkpt><trkpt lat="44.6286616" lon="10.1821201"><ele>475.20000000000005</ele><time>2026-04-24T15:54:50.216Z</time></trkpt><trkpt lat="44.6287218" lon="10.1822802"><ele>477.0</ele><time>2026-04-24T15:54:51.216Z</time></trkpt><trkpt lat="44.6287473" lon="10.1824493"><ele>478.25</ele><time>2026-04-24T15:54:52.216Z</time></trkpt><trkpt lat="44.6287541" lon="10.182633"><ele>479.5</ele><time>2026-04-24T15:54:53.216Z</time></trkpt><trkpt lat="44.6287419" lon="10.1828301"><ele>480.75</ele><time>2026-04-24T15:54:54.216Z</time></trkpt><trkpt lat="44.6286952" lon="10.1830005"><ele>482.0</ele><time>2026-04-24T15:54:55.216Z</time></trkpt><trkpt lat="44.6286597" lon="10.1831719"><ele>478.5</ele><time>2026-04-24T15:54:56.215Z</time></trkpt><trkpt lat="44.6285982" lon="10.1833247"><ele>475.0</ele><time>2026-04-24T15:54:57.216Z</time></trkpt><trkpt lat="44.6285149" lon="10.183442"><ele>471.5</ele><time>2026-04-24T15:54:58.215Z</time></trkpt><trkpt lat="44.6284036" lon="10.1835233"><ele>468.0</ele><time>2026-04-24T15:54:59.216Z</time></trkpt><trkpt lat="44.6282806" lon="10.1835807"><ele>468.0</ele><time>2026-04-24T15:55:00.216Z</time></trkpt><trkpt lat="44.6281724" lon="10.1836317"><ele>467.99999999999994</ele><time>2026-04-24T15:55:01.215Z</time></trkpt><trkpt lat="44.6280854" lon="10.1836971"><ele>467.99999999999994</ele><time>2026-04-24T15:55:02.215Z</time></trkpt><trkpt lat="44.6280097" lon="10.1838118"><ele>468.0</ele><time>2026-04-24T15:55:03.215Z</time></trkpt><trkpt lat="44.6279239" lon="10.1839348"><ele>468.0</ele><time>2026-04-24T15:55:04.215Z</time></trkpt><trkpt lat="44.6278331" lon="10.1840581"><ele>465.25</ele><time>2026-04-24T15:55:05.216Z</time></trkpt><trkpt lat="44.627754" lon="10.1841741"><ele>462.5</ele><time>2026-04-24T15:55:06.216Z</time></trkpt><trkpt lat="44.6276802" lon="10.1843015"><ele>459.75</ele><time>2026-04-24T15:55:07.216Z</time></trkpt><trkpt lat="44.6276201" lon="10.1844464"><ele>457.0</ele><time>2026-04-24T15:55:08.215Z</time></trkpt><trkpt lat="44.6275673" lon="10.1845791"><ele>457.0</ele><time>2026-04-24T15:55:09.216Z</time></trkpt><trkpt lat="44.62753" lon="10.1847138"><ele>457.0</ele><time>2026-04-24T15:55:10.215Z</time></trkpt><trkpt lat="44.6275226" lon="10.1848689"><ele>457.0</ele><time>2026-04-24T15:55:11.216Z</time></trkpt><trkpt lat="44.6275295" lon="10.1850255"><ele>457.0</ele><time>2026-04-24T15:55:12.216Z</time></trkpt><trkpt lat="44.627546" lon="10.1852015"><ele>458.75</ele><time>2026-04-24T15:55:13.216Z</time></trkpt><trkpt lat="44.6275591" lon="10.1853847"><ele>460.5</ele><time>2026-04-24T15:55:14.216Z</time></trkpt><trkpt lat="44.6275708" lon="10.1855739"><ele>462.25</ele><time>2026-04-24T15:55:15.216Z</time></trkpt><trkpt lat="44.6275573" lon="10.1857542"><ele>464.0</ele><time>2026-04-24T15:55:16.215Z</time></trkpt><trkpt lat="44.6275128" lon="10.1859164"><ele>467.0</ele><time>2026-04-24T15:55:17.216Z</time></trkpt><trkpt lat="44.6274288" lon="10.1860388"><ele>470.0</ele><time>2026-04-24T15:55:18.216Z</time></trkpt><trkpt lat="44.6273341" lon="10.1861438"><ele>473.0</ele><time>2026-04-24T15:55:19.215Z</time></trkpt><trkpt lat="44.6272289" lon="10.1862157"><ele>476.0</ele><time>2026-04-24T15:55:20.216Z</time></trkpt><trkpt lat="44.6271427" lon="10.186297"><ele>476.0</ele><time>2026-04-24T15:55:21.216Z</time></trkpt><trkpt lat="44.6270644" lon="10.1864251"><ele>476.0</ele><time>2026-04-24T15:55:22.215Z</time></trkpt><trkpt lat="44.6269899" lon="10.1865745"><ele>476.0</ele><time>2026-04-24T15:55:23.215Z</time></trkpt><trkpt lat="44.6269089" lon="10.186765"><ele>476.0</ele><time>2026-04-24T15:55:24.217Z</time></trkpt><trkpt lat="44.6268227" lon="10.1869581"><ele>472.5</ele><time>2026-04-24T15:55:25.216Z</time></trkpt><trkpt lat="44.6267305" lon="10.1871464"><ele>469.0</ele><time>2026-04-24T15:55:26.216Z</time></trkpt><trkpt lat="44.6266465" lon="10.1873037"><ele>465.5</ele><time>2026-04-24T15:55:27.216Z</time></trkpt><trkpt lat="44.6265703" lon="10.1874322"><ele>462.0</ele><time>2026-04-24T15:55:28.216Z</time></trkpt><trkpt lat="44.6265105" lon="10.187551"><ele>462.0</ele><time>2026-04-24T15:55:29.215Z</time></trkpt><trkpt lat="44.6264715" lon="10.1876731"><ele>462.00000000000006</ele><time>2026-04-24T15:55:30.215Z</time></trkpt><trkpt lat="44.6264473" lon="10.1878087"><ele>462.00000000000006</ele><time>2026-04-24T15:55:31.216Z</time></trkpt><trkpt lat="44.6264343" lon="10.1879504"><ele>462.0</ele><time>2026-04-24T15:55:32.215Z</time></trkpt><trkpt lat="44.6264174" lon="10.1880735"><ele>462.0</ele><time>2026-04-24T15:55:33.216Z</time></trkpt><trkpt lat="44.6264375" lon="10.1882194"><ele>462.8</ele><time>2026-04-24T15:55:34.216Z</time></trkpt><trkpt lat="44.6264502" lon="10.1883608"><ele>463.6</ele><time>2026-04-24T15:55:35.216Z</time></trkpt><trkpt lat="44.6264754" lon="10.1884859"><ele>464.40000000000003</ele><time>2026-04-24T15:55:36.217Z</time></trkpt><trkpt lat="44.6265264" lon="10.188595"><ele>465.20000000000005</ele><time>2026-04-24T15:55:37.215Z</time></trkpt><trkpt lat="44.6266029" lon="10.1886969"><ele>466.0</ele><time>2026-04-24T15:55:38.216Z</time></trkpt><trkpt lat="44.6266878" lon="10.1887996"><ele>466.0</ele><time>2026-04-24T15:55:39.215Z</time></trkpt><trkpt lat="44.6267959" lon="10.1888775"><ele>466.0</ele><time>2026-04-24T15:55:40.215Z</time></trkpt><trkpt lat="44.6269071" lon="10.1889517"><ele>466.0</ele><time>2026-04-24T15:55:41.215Z</time></trkpt><trkpt lat="44.627041" lon="10.1889477"><ele>466.0</ele><time>2026-04-24T15:55:42.216Z</time></trkpt><trkpt lat="44.627159" lon="10.1889647"><ele>467.00000000000006</ele><time>2026-04-24T15:55:43.215Z</time></trkpt><trkpt lat="44.6272613" lon="10.1889807"><ele>468.0</ele><time>2026-04-24T15:55:44.215Z</time></trkpt><trkpt lat="44.6273468" lon="10.1890069"><ele>469.0</ele><time>2026-04-24T15:55:45.216Z</time></trkpt><trkpt lat="44.6274122" lon="10.1890429"><ele>470.0</ele><time>2026-04-24T15:55:46.215Z</time></trkpt><trkpt lat="44.6274697" lon="10.1890847"><ele>471.00000000000006</ele><time>2026-04-24T15:55:47.215Z</time></trkpt><trkpt lat="44.6275625" lon="10.1891925"><ele>472.0</ele><time>2026-04-24T15:55:49.217Z</time></trkpt><trkpt lat="44.6276043" lon="10.1892672"><ele>472.0</ele><time>2026-04-24T15:55:50.216Z</time></trkpt><trkpt lat="44.6276554" lon="10.189352"><ele>472.00000000000006</ele><time>2026-04-24T15:55:51.216Z</time></trkpt><trkpt lat="44.6277062" lon="10.1894552"><ele>472.00000000000006</ele><time>2026-04-24T15:55:52.215Z</time></trkpt><trkpt lat="44.6277609" lon="10.1895704"><ele>472.0</ele><time>2026-04-24T15:55:53.217Z</time></trkpt><trkpt lat="44.627822" lon="10.1896914"><ele>472.0</ele><time>2026-04-24T15:55:54.216Z</time></trkpt><trkpt lat="44.6278715" lon="10.1898131"><ele>476.0</ele><time>2026-04-24T15:55:55.215Z</time></trkpt><trkpt lat="44.6279176" lon="10.1899429"><ele>480.0</ele><time>2026-04-24T15:55:56.217Z</time></trkpt><trkpt lat="44.6279509" lon="10.1901019"><ele>484.0</ele><time>2026-04-24T15:55:57.216Z</time></trkpt><trkpt lat="44.6279643" lon="10.1902769"><ele>488.0</ele><time>2026-04-24T15:55:58.215Z</time></trkpt><trkpt lat="44.6279653" lon="10.1904611"><ele>488.0</ele><time>2026-04-24T15:55:59.215Z</time></trkpt><trkpt lat="44.6279684" lon="10.1906528"><ele>488.0</ele><time>2026-04-24T15:56:00.216Z</time></trkpt><trkpt lat="44.6279747" lon="10.1908523"><ele>488.0</ele><time>2026-04-24T15:56:01.216Z</time></trkpt><trkpt lat="44.6279796" lon="10.1910622"><ele>488.0</ele><time>2026-04-24T15:56:02.216Z</time></trkpt><trkpt lat="44.6279764" lon="10.1912693"><ele>490.0</ele><time>2026-04-24T15:56:03.214Z</time></trkpt><trkpt lat="44.6279613" lon="10.1914853"><ele>492.0</ele><time>2026-04-24T15:56:04.214Z</time></trkpt><trkpt lat="44.6279319" lon="10.1916964"><ele>494.0</ele><time>2026-04-24T15:56:05.215Z</time></trkpt><trkpt lat="44.627898" lon="10.1918988"><ele>491.0</ele><time>2026-04-24T15:56:06.216Z</time></trkpt><trkpt lat="44.6278685" lon="10.1921035"><ele>488.0</ele><time>2026-04-24T15:56:07.216Z</time></trkpt><trkpt lat="44.6278327" lon="10.1923137"><ele>485.0</ele><time>2026-04-24T15:56:08.216Z</time></trkpt><trkpt lat="44.6277741" lon="10.1925155"><ele>485.0</ele><time>2026-04-24T15:56:09.215Z</time></trkpt><trkpt lat="44.6277149" lon="10.1926826"><ele>485.0</ele><time>2026-04-24T15:56:10.215Z</time></trkpt><trkpt lat="44.6276643" lon="10.1928206"><ele>485.0</ele><time>2026-04-24T15:56:11.214Z</time></trkpt><trkpt lat="44.6276365" lon="10.1929264"><ele>485.0</ele><time>2026-04-24T15:56:12.215Z</time></trkpt><trkpt lat="44.6276357" lon="10.1930149"><ele>485.0</ele><time>2026-04-24T15:56:13.214Z</time></trkpt><trkpt lat="44.6276895" lon="10.1931613"><ele>485.0</ele><time>2026-04-24T15:56:15.215Z</time></trkpt><trkpt lat="44.6277502" lon="10.1929382"><ele>485.0</ele><time>2026-04-24T15:56:16.215Z</time></trkpt><trkpt lat="44.6278172" lon="10.1928509"><ele>485.0</ele><time>2026-04-24T15:56:17.215Z</time></trkpt><trkpt lat="44.6279057" lon="10.1927285"><ele>485.0</ele><time>2026-04-24T15:56:18.215Z</time></trkpt><trkpt lat="44.628006" lon="10.1925787"><ele>491.66666666666663</ele><time>2026-04-24T15:56:19.215Z</time></trkpt><trkpt lat="44.6281021" lon="10.1924223"><ele>498.33333333333337</ele><time>2026-04-24T15:56:20.214Z</time></trkpt><trkpt lat="44.6281992" lon="10.1922455"><ele>505.0</ele><time>2026-04-24T15:56:21.214Z</time></trkpt><trkpt lat="44.6282883" lon="10.1920491"><ele>505.0</ele><time>2026-04-24T15:56:22.214Z</time></trkpt><trkpt lat="44.6283717" lon="10.1918589"><ele>505.0</ele><time>2026-04-24T15:56:23.215Z</time></trkpt><trkpt lat="44.6284441" lon="10.191676"><ele>505.0</ele><time>2026-04-24T15:56:24.216Z</time></trkpt><trkpt lat="44.6285071" lon="10.1915122"><ele>505.0</ele><time>2026-04-24T15:56:25.215Z</time></trkpt><trkpt lat="44.628582" lon="10.1913281"><ele>507.75</ele><time>2026-04-24T15:56:27.215Z</time></trkpt><trkpt lat="44.6286802" lon="10.1914283"><ele>510.5</ele><time>2026-04-24T15:56:29.216Z</time></trkpt><trkpt lat="44.6287018" lon="10.1915977"><ele>513.25</ele><time>2026-04-24T15:56:31.215Z</time></trkpt><trkpt lat="44.6286985" lon="10.1917295"><ele>516.0</ele><time>2026-04-24T15:56:32.215Z</time></trkpt><trkpt lat="44.6286935" lon="10.1918994"><ele>516.0</ele><time>2026-04-24T15:56:33.214Z</time></trkpt><trkpt lat="44.6286584" lon="10.1920461"><ele>516.0</ele><time>2026-04-24T15:56:34.215Z</time></trkpt><trkpt lat="44.6285715" lon="10.1921936"><ele>516.0</ele><time>2026-04-24T15:56:35.215Z</time></trkpt><trkpt lat="44.6285024" lon="10.192356"><ele>516.0</ele><time>2026-04-24T15:56:36.214Z</time></trkpt><trkpt lat="44.6284304" lon="10.1925236"><ele>514.0</ele><time>2026-04-24T15:56:37.216Z</time></trkpt><trkpt lat="44.628357" lon="10.1927107"><ele>512.0</ele><time>2026-04-24T15:56:38.216Z</time></trkpt><trkpt lat="44.628288" lon="10.1929055"><ele>510.0</ele><time>2026-04-24T15:56:39.216Z</time></trkpt><trkpt lat="44.6282221" lon="10.1931204"><ele>514.3333333333334</ele><time>2026-04-24T15:56:40.215Z</time></trkpt><trkpt lat="44.628156" lon="10.1933388"><ele>518.6666666666667</ele><time>2026-04-24T15:56:41.216Z</time></trkpt><trkpt lat="44.6280915" lon="10.1935425"><ele>523.0</ele><time>2026-04-24T15:56:42.216Z</time></trkpt><trkpt lat="44.628038" lon="10.193716"><ele>523.0</ele><time>2026-04-24T15:56:43.216Z</time></trkpt><trkpt lat="44.6279974" lon="10.1938671"><ele>523.0</ele><time>2026-04-24T15:56:44.216Z</time></trkpt><trkpt lat="44.6279761" lon="10.1939921"><ele>523.0</ele><time>2026-04-24T15:56:45.215Z</time></trkpt><trkpt lat="44.6279551" lon="10.1940935"><ele>523.0</ele><time>2026-04-24T15:56:46.215Z</time></trkpt><trkpt lat="44.6279385" lon="10.1941887"><ele>523.0</ele><time>2026-04-24T15:56:47.215Z</time></trkpt><trkpt lat="44.6279221" lon="10.1942902"><ele>523.0</ele><time>2026-04-24T15:56:48.215Z</time></trkpt><trkpt lat="44.6279116" lon="10.1944056"><ele>523.1666666666667</ele><time>2026-04-24T15:56:49.216Z</time></trkpt><trkpt lat="44.6279183" lon="10.1945156"><ele>523.3333333333334</ele><time>2026-04-24T15:56:50.215Z</time></trkpt><trkpt lat="44.6279384" lon="10.1946267"><ele>523.5</ele><time>2026-04-24T15:56:51.215Z</time></trkpt><trkpt lat="44.6279422" lon="10.1947481"><ele>523.6666666666666</ele><time>2026-04-24T15:56:52.215Z</time></trkpt><trkpt lat="44.6279255" lon="10.1948656"><ele>523.8333333333333</ele><time>2026-04-24T15:56:53.215Z</time></trkpt><trkpt lat="44.6278949" lon="10.1949865"><ele>524.0</ele><time>2026-04-24T15:56:54.216Z</time></trkpt><trkpt lat="44.6278569" lon="10.195122"><ele>524.0</ele><time>2026-04-24T15:56:55.215Z</time></trkpt><trkpt lat="44.6278136" lon="10.1952707"><ele>524.0</ele><time>2026-04-24T15:56:56.214Z</time></trkpt><trkpt lat="44.6277737" lon="10.1954074"><ele>524.0</ele><time>2026-04-24T15:56:57.215Z</time></trkpt><trkpt lat="44.6277462" lon="10.1955573"><ele>524.0</ele><time>2026-04-24T15:56:58.215Z</time></trkpt><trkpt lat="44.6277341" lon="10.1957138"><ele>524.0</ele><time>2026-04-24T15:56:59.216Z</time></trkpt><trkpt lat="44.6277283" lon="10.1958696"><ele>522.75</ele><time>2026-04-24T15:57:00.215Z</time></trkpt><trkpt lat="44.6277302" lon="10.1960294"><ele>521.5</ele><time>2026-04-24T15:57:01.216Z</time></trkpt><trkpt lat="44.627753" lon="10.1961838"><ele>520.25</ele><time>2026-04-24T15:57:02.215Z</time></trkpt><trkpt lat="44.6278409" lon="10.1963033"><ele>519.0</ele><time>2026-04-24T15:57:03.216Z</time></trkpt><trkpt lat="44.6279038" lon="10.1964346"><ele>520.4</ele><time>2026-04-24T15:57:04.216Z</time></trkpt><trkpt lat="44.627956" lon="10.1965679"><ele>521.8</ele><time>2026-04-24T15:57:05.216Z</time></trkpt><trkpt lat="44.6280076" lon="10.1967049"><ele>523.2</ele><time>2026-04-24T15:57:06.216Z</time></trkpt><trkpt lat="44.6280425" lon="10.196857"><ele>524.6</ele><time>2026-04-24T15:57:07.215Z</time></trkpt><trkpt lat="44.6280518" lon="10.1970165"><ele>526.0</ele><time>2026-04-24T15:57:08.216Z</time></trkpt><trkpt lat="44.627981" lon="10.1972193"><ele>526.4</ele><time>2026-04-24T15:57:09.215Z</time></trkpt><trkpt lat="44.6279506" lon="10.1973549"><ele>526.8</ele><time>2026-04-24T15:57:10.216Z</time></trkpt><trkpt lat="44.6279101" lon="10.1974954"><ele>527.1999999999999</ele><time>2026-04-24T15:57:11.214Z</time></trkpt><trkpt lat="44.6278397" lon="10.1976218"><ele>527.6</ele><time>2026-04-24T15:57:12.214Z</time></trkpt><trkpt lat="44.6277758" lon="10.1977661"><ele>528.0</ele><time>2026-04-24T15:57:13.215Z</time></trkpt><trkpt lat="44.6277104" lon="10.1979374"><ele>535.75</ele><time>2026-04-24T15:57:14.215Z</time></trkpt><trkpt lat="44.6276649" lon="10.1980958"><ele>543.5</ele><time>2026-04-24T15:57:15.216Z</time></trkpt><trkpt lat="44.6276676" lon="10.1982655"><ele>551.25</ele><time>2026-04-24T15:57:16.216Z</time></trkpt><trkpt lat="44.6276523" lon="10.1984338"><ele>559.0</ele><time>2026-04-24T15:57:17.215Z</time></trkpt><trkpt lat="44.6276769" lon="10.1985761"><ele>559.0</ele><time>2026-04-24T15:57:18.215Z</time></trkpt><trkpt lat="44.6277098" lon="10.1987114"><ele>559.0</ele><time>2026-04-24T15:57:19.216Z</time></trkpt><trkpt lat="44.6277284" lon="10.1988405"><ele>559.0</ele><time>2026-04-24T15:57:20.216Z</time></trkpt><trkpt lat="44.6277272" lon="10.198954"><ele>559.0</ele><time>2026-04-24T15:57:21.215Z</time></trkpt><trkpt lat="44.6277153" lon="10.1990732"><ele>559.0</ele><time>2026-04-24T15:57:22.216Z</time></trkpt><trkpt lat="44.6276696" lon="10.199186"><ele>558.4</ele><time>2026-04-24T15:57:23.215Z</time></trkpt><trkpt lat="44.6276314" lon="10.1993075"><ele>557.8</ele><time>2026-04-24T15:57:24.215Z</time></trkpt><trkpt lat="44.6275823" lon="10.1994565"><ele>557.2</ele><time>2026-04-24T15:57:25.214Z</time></trkpt><trkpt lat="44.6275485" lon="10.1996034"><ele>556.6</ele><time>2026-04-24T15:57:26.215Z</time></trkpt><trkpt lat="44.6275349" lon="10.1997754"><ele>556.0</ele><time>2026-04-24T15:57:27.214Z</time></trkpt><trkpt lat="44.6275168" lon="10.1999436"><ele>555.25</ele><time>2026-04-24T15:57:28.215Z</time></trkpt><trkpt lat="44.6274958" lon="10.2001244"><ele>554.5</ele><time>2026-04-24T15:57:29.214Z</time></trkpt><trkpt lat="44.6274602" lon="10.2002926"><ele>553.75</ele><time>2026-04-24T15:57:30.216Z</time></trkpt><trkpt lat="44.6274135" lon="10.2004414"><ele>553.0</ele><time>2026-04-24T15:57:31.215Z</time></trkpt><trkpt lat="44.6273547" lon="10.2005954"><ele>552.8</ele><time>2026-04-24T15:57:32.215Z</time></trkpt><trkpt lat="44.6272947" lon="10.2007496"><ele>552.5999999999999</ele><time>2026-04-24T15:57:33.215Z</time></trkpt><trkpt lat="44.6272533" lon="10.2008795"><ele>552.4000000000001</ele><time>2026-04-24T15:57:34.216Z</time></trkpt><trkpt lat="44.6272297" lon="10.2010077"><ele>552.2</ele><time>2026-04-24T15:57:35.215Z</time></trkpt><trkpt lat="44.6272292" lon="10.2011514"><ele>552.0</ele><time>2026-04-24T15:57:36.215Z</time></trkpt><trkpt lat="44.6272588" lon="10.2013059"><ele>552.0</ele><time>2026-04-24T15:57:37.214Z</time></trkpt><trkpt lat="44.6273043" lon="10.2014964"><ele>552.0</ele><time>2026-04-24T15:57:38.215Z</time></trkpt><trkpt lat="44.6273513" lon="10.2016828"><ele>552.0</ele><time>2026-04-24T15:57:39.216Z</time></trkpt><trkpt lat="44.6274058" lon="10.201834"><ele>552.0</ele><time>2026-04-24T15:57:40.215Z</time></trkpt><trkpt lat="44.6274846" lon="10.2019587"><ele>553.0</ele><time>2026-04-24T15:57:41.216Z</time></trkpt><trkpt lat="44.6275891" lon="10.2020589"><ele>554.0</ele><time>2026-04-24T15:57:42.215Z</time></trkpt><trkpt lat="44.6277077" lon="10.2021544"><ele>555.0</ele><time>2026-04-24T15:57:43.216Z</time></trkpt><trkpt lat="44.6278299" lon="10.2022598"><ele>556.0</ele><time>2026-04-24T15:57:44.215Z</time></trkpt><trkpt lat="44.627937" lon="10.2023824"><ele>556.0</ele><time>2026-04-24T15:57:45.216Z</time></trkpt><trkpt lat="44.6280253" lon="10.2025097"><ele>556.0</ele><time>2026-04-24T15:57:46.216Z</time></trkpt><trkpt lat="44.6281168" lon="10.2026694"><ele>556.0</ele><time>2026-04-24T15:57:47.216Z</time></trkpt><trkpt lat="44.6282031" lon="10.2028126"><ele>556.0</ele><time>2026-04-24T15:57:48.216Z</time></trkpt><trkpt lat="44.6282725" lon="10.2029408"><ele>556.0</ele><time>2026-04-24T15:57:49.216Z</time></trkpt><trkpt lat="44.6283433" lon="10.2030749"><ele>556.0</ele><time>2026-04-24T15:57:50.215Z</time></trkpt><trkpt lat="44.6283965" lon="10.2031869"><ele>556.0</ele><time>2026-04-24T15:57:51.215Z</time></trkpt><trkpt lat="44.6284625" lon="10.2032647"><ele>556.0</ele><time>2026-04-24T15:57:52.216Z</time></trkpt><trkpt lat="44.6285408" lon="10.2033248"><ele>556.0</ele><time>2026-04-24T15:57:53.215Z</time></trkpt><trkpt lat="44.6286228" lon="10.2033725"><ele>557.4</ele><time>2026-04-24T15:57:54.214Z</time></trkpt><trkpt lat="44.6286847" lon="10.2034309"><ele>558.8</ele><time>2026-04-24T15:57:55.214Z</time></trkpt><trkpt lat="44.6287208" lon="10.2035825"><ele>560.1999999999999</ele><time>2026-04-24T15:57:57.215Z</time></trkpt><trkpt lat="44.6286987" lon="10.2037018"><ele>561.6</ele><time>2026-04-24T15:57:58.215Z</time></trkpt><trkpt lat="44.6286664" lon="10.2038273"><ele>563.0</ele><time>2026-04-24T15:57:59.215Z</time></trkpt><trkpt lat="44.6286424" lon="10.2039738"><ele>564.5</ele><time>2026-04-24T15:58:00.216Z</time></trkpt><trkpt lat="44.6286229" lon="10.2041529"><ele>566.0</ele><time>2026-04-24T15:58:01.215Z</time></trkpt><trkpt lat="44.6286179" lon="10.2043288"><ele>567.5</ele><time>2026-04-24T15:58:02.215Z</time></trkpt><trkpt lat="44.6286187" lon="10.2045077"><ele>569.0</ele><time>2026-04-24T15:58:03.214Z</time></trkpt><trkpt lat="44.6286188" lon="10.204667"><ele>569.0</ele><time>2026-04-24T15:58:04.215Z</time></trkpt><trkpt lat="44.628615" lon="10.2048193"><ele>569.0</ele><time>2026-04-24T15:58:05.215Z</time></trkpt><trkpt lat="44.6286175" lon="10.2049516"><ele>569.0</ele><time>2026-04-24T15:58:06.216Z</time></trkpt><trkpt lat="44.6286389" lon="10.2050772"><ele>569.0</ele><time>2026-04-24T15:58:07.216Z</time></trkpt><trkpt lat="44.6286801" lon="10.2051873"><ele>569.0</ele><time>2026-04-24T15:58:08.216Z</time></trkpt><trkpt lat="44.6287265" lon="10.2053099"><ele>565.2</ele><time>2026-04-24T15:58:09.214Z</time></trkpt><trkpt lat="44.6287848" lon="10.2053947"><ele>561.4</ele><time>2026-04-24T15:58:10.214Z</time></trkpt><trkpt lat="44.6287955" lon="10.2055061"><ele>557.6</ele><time>2026-04-24T15:58:11.215Z</time></trkpt><trkpt lat="44.6287879" lon="10.205651"><ele>553.8</ele><time>2026-04-24T15:58:12.216Z</time></trkpt><trkpt lat="44.6287995" lon="10.2057894"><ele>550.0</ele><time>2026-04-24T15:58:13.215Z</time></trkpt><trkpt lat="44.628806" lon="10.2059571"><ele>549.75</ele><time>2026-04-24T15:58:14.214Z</time></trkpt><trkpt lat="44.6287982" lon="10.2061341"><ele>549.5</ele><time>2026-04-24T15:58:15.215Z</time></trkpt><trkpt lat="44.6288055" lon="10.2062917"><ele>549.25</ele><time>2026-04-24T15:58:16.215Z</time></trkpt><trkpt lat="44.6288374" lon="10.2064725"><ele>549.0</ele><time>2026-04-24T15:58:17.215Z</time></trkpt><trkpt lat="44.6289029" lon="10.206647"><ele>548.25</ele><time>2026-04-24T15:58:18.215Z</time></trkpt><trkpt lat="44.628977" lon="10.2068249"><ele>547.5</ele><time>2026-04-24T15:58:19.214Z</time></trkpt><trkpt lat="44.6290597" lon="10.2069948"><ele>546.75</ele><time>2026-04-24T15:58:20.214Z</time></trkpt><trkpt lat="44.6291252" lon="10.2071415"><ele>546.0</ele><time>2026-04-24T15:58:21.214Z</time></trkpt><trkpt lat="44.6291832" lon="10.2073046"><ele>546.6</ele><time>2026-04-24T15:58:22.215Z</time></trkpt><trkpt lat="44.6291999" lon="10.2074754"><ele>547.2</ele><time>2026-04-24T15:58:23.215Z</time></trkpt><trkpt lat="44.6292268" lon="10.2076062"><ele>547.8</ele><time>2026-04-24T15:58:24.215Z</time></trkpt><trkpt lat="44.6292531" lon="10.2077402"><ele>548.4</ele><time>2026-04-24T15:58:25.215Z</time></trkpt><trkpt lat="44.6292905" lon="10.2078785"><ele>549.0</ele><time>2026-04-24T15:58:26.214Z</time></trkpt><trkpt lat="44.6293866" lon="10.2079441"><ele>544.0</ele><time>2026-04-24T15:58:27.216Z</time></trkpt><trkpt lat="44.6295126" lon="10.2080315"><ele>539.0</ele><time>2026-04-24T15:58:28.214Z</time></trkpt><trkpt lat="44.6295868" lon="10.2081301"><ele>534.0</ele><time>2026-04-24T15:58:29.216Z</time></trkpt><trkpt lat="44.629585" lon="10.2082322"><ele>529.0</ele><time>2026-04-24T15:58:30.216Z</time></trkpt><trkpt lat="44.629578" lon="10.2083405"><ele>524.0</ele><time>2026-04-24T15:58:31.215Z</time></trkpt><trkpt lat="44.6295678" lon="10.2084744"><ele>524.0</ele><time>2026-04-24T15:58:32.214Z</time></trkpt><trkpt lat="44.6295217" lon="10.2086204"><ele>524.0</ele><time>2026-04-24T15:58:33.215Z</time></trkpt><trkpt lat="44.6295284" lon="10.2087578"><ele>524.0</ele><time>2026-04-24T15:58:34.216Z</time></trkpt><trkpt lat="44.6295295" lon="10.2088772"><ele>524.0</ele><time>2026-04-24T15:58:35.215Z</time></trkpt><trkpt lat="44.6295564" lon="10.2090117"><ele>524.0</ele><time>2026-04-24T15:58:36.216Z</time></trkpt><trkpt lat="44.6296228" lon="10.2091246"><ele>523.5</ele><time>2026-04-24T15:58:37.216Z</time></trkpt><trkpt lat="44.6297167" lon="10.2091881"><ele>523.0</ele><time>2026-04-24T15:58:38.214Z</time></trkpt><trkpt lat="44.6298846" lon="10.2092774"><ele>522.5</ele><time>2026-04-24T15:58:39.216Z</time></trkpt><trkpt lat="44.6300464" lon="10.2093265"><ele>522.0</ele><time>2026-04-24T15:58:40.215Z</time></trkpt><trkpt lat="44.6301694" lon="10.2093521"><ele>522.0</ele><time>2026-04-24T15:58:41.214Z</time></trkpt><trkpt lat="44.6302785" lon="10.2093632"><ele>522.0</ele><time>2026-04-24T15:58:42.215Z</time></trkpt><trkpt lat="44.6303584" lon="10.2093758"><ele>522.0</ele><time>2026-04-24T15:58:43.214Z</time></trkpt><trkpt lat="44.6304122" lon="10.2094251"><ele>522.0</ele><time>2026-04-24T15:58:44.214Z</time></trkpt><trkpt lat="44.630432" lon="10.2095887"><ele>522.0</ele><time>2026-04-24T15:58:46.214Z</time></trkpt><trkpt lat="44.6303913" lon="10.209663"><ele>522.0</ele><time>2026-04-24T15:58:47.215Z</time></trkpt><trkpt lat="44.6303204" lon="10.2097133"><ele>522.0</ele><time>2026-04-24T15:58:48.215Z</time></trkpt><trkpt lat="44.6302237" lon="10.2097532"><ele>522.0</ele><time>2026-04-24T15:58:49.215Z</time></trkpt><trkpt lat="44.6301289" lon="10.2098032"><ele>522.0</ele><time>2026-04-24T15:58:50.215Z</time></trkpt><trkpt lat="44.6300294" lon="10.2098776"><ele>522.0</ele><time>2026-04-24T15:58:51.215Z</time></trkpt><trkpt lat="44.6299327" lon="10.2099472"><ele>522.0</ele><time>2026-04-24T15:58:52.215Z</time></trkpt><trkpt lat="44.6298479" lon="10.2100324"><ele>520.8000000000001</ele><time>2026-04-24T15:58:53.215Z</time></trkpt><trkpt lat="44.6298145" lon="10.2101495"><ele>519.6</ele><time>2026-04-24T15:58:54.215Z</time></trkpt><trkpt lat="44.6297584" lon="10.2102504"><ele>518.4000000000001</ele><time>2026-04-24T15:58:55.214Z</time></trkpt><trkpt lat="44.6297242" lon="10.2104172"><ele>517.2</ele><time>2026-04-24T15:58:56.214Z</time></trkpt><trkpt lat="44.6297435" lon="10.2106004"><ele>516.0</ele><time>2026-04-24T15:58:57.215Z</time></trkpt><trkpt lat="44.6297714" lon="10.2107206"><ele>514.2</ele><time>2026-04-24T15:58:58.215Z</time></trkpt><trkpt lat="44.6297538" lon="10.2108522"><ele>512.4000000000001</ele><time>2026-04-24T15:58:59.214Z</time></trkpt><trkpt lat="44.6297052" lon="10.2109719"><ele>510.6</ele><time>2026-04-24T15:59:00.215Z</time></trkpt><trkpt lat="44.6296881" lon="10.2111032"><ele>508.8</ele><time>2026-04-24T15:59:02.215Z</time></trkpt><trkpt lat="44.6297675" lon="10.2111818"><ele>507.0</ele><time>2026-04-24T15:59:04.216Z</time></trkpt><trkpt lat="44.6298474" lon="10.2111482"><ele>507.0</ele><time>2026-04-24T15:59:05.216Z</time></trkpt><trkpt lat="44.6299019" lon="10.2111012"><ele>507.0</ele><time>2026-04-24T15:59:06.215Z</time></trkpt><trkpt lat="44.6299739" lon="10.211053"><ele>507.0</ele><time>2026-04-24T15:59:07.215Z</time></trkpt><trkpt lat="44.6300417" lon="10.2110159"><ele>507.0</ele><time>2026-04-24T15:59:08.216Z</time></trkpt><trkpt lat="44.6301195" lon="10.2110145"><ele>507.0</ele><time>2026-04-24T15:59:09.216Z</time></trkpt><trkpt lat="44.6302042" lon="10.211046"><ele>507.0</ele><time>2026-04-24T15:59:10.215Z</time></trkpt><trkpt lat="44.6302836" lon="10.2111434"><ele>505.40000000000003</ele><time>2026-04-24T15:59:11.215Z</time></trkpt><trkpt lat="44.6303558" lon="10.2112897"><ele>503.80000000000007</ele><time>2026-04-24T15:59:12.214Z</time></trkpt><trkpt lat="44.6304117" lon="10.2114223"><ele>502.2</ele><time>2026-04-24T15:59:13.214Z</time></trkpt><trkpt lat="44.6304754" lon="10.2115398"><ele>500.6</ele><time>2026-04-24T15:59:14.215Z</time></trkpt><trkpt lat="44.6305455" lon="10.2116349"><ele>499.0</ele><time>2026-04-24T15:59:15.215Z</time></trkpt><trkpt lat="44.6306236" lon="10.2116964"><ele>497.79999999999995</ele><time>2026-04-24T15:59:16.214Z</time></trkpt><trkpt lat="44.6307075" lon="10.2117311"><ele>496.59999999999997</ele><time>2026-04-24T15:59:17.215Z</time></trkpt><trkpt lat="44.6308063" lon="10.2117387"><ele>495.4</ele><time>2026-04-24T15:59:18.214Z</time></trkpt><trkpt lat="44.6309048" lon="10.211752"><ele>494.2</ele><time>2026-04-24T15:59:19.214Z</time></trkpt><trkpt lat="44.63099" lon="10.2117848"><ele>493.0</ele><time>2026-04-24T15:59:20.216Z</time></trkpt><trkpt lat="44.6310707" lon="10.2118437"><ele>491.25</ele><time>2026-04-24T15:59:21.215Z</time></trkpt><trkpt lat="44.631157" lon="10.2119265"><ele>489.5</ele><time>2026-04-24T15:59:22.214Z</time></trkpt><trkpt lat="44.6312447" lon="10.2120361"><ele>487.75</ele><time>2026-04-24T15:59:23.215Z</time></trkpt><trkpt lat="44.6313254" lon="10.212138"><ele>486.0</ele><time>2026-04-24T15:59:24.216Z</time></trkpt><trkpt lat="44.6314173" lon="10.2122527"><ele>485.0</ele><time>2026-04-24T15:59:25.216Z</time></trkpt><trkpt lat="44.6315118" lon="10.2123464"><ele>484.0</ele><time>2026-04-24T15:59:26.215Z</time></trkpt><trkpt lat="44.6316098" lon="10.2124385"><ele>483.0</ele><time>2026-04-24T15:59:27.215Z</time></trkpt><trkpt lat="44.631696" lon="10.2125344"><ele>482.0</ele><time>2026-04-24T15:59:28.214Z</time></trkpt><trkpt lat="44.6317766" lon="10.2126294"><ele>481.0</ele><time>2026-04-24T15:59:29.215Z</time></trkpt><trkpt lat="44.6318489" lon="10.2127176"><ele>481.00000000000006</ele><time>2026-04-24T15:59:30.214Z</time></trkpt><trkpt lat="44.6319226" lon="10.2127827"><ele>481.0</ele><time>2026-04-24T15:59:31.215Z</time></trkpt><trkpt lat="44.6319916" lon="10.2128377"><ele>481.0</ele><time>2026-04-24T15:59:32.215Z</time></trkpt><trkpt lat="44.6320637" lon="10.2128741"><ele>481.0</ele><time>2026-04-24T15:59:33.216Z</time></trkpt><trkpt lat="44.6321577" lon="10.2128788"><ele>481.00000000000006</ele><time>2026-04-24T15:59:35.214Z</time></trkpt><trkpt lat="44.6322316" lon="10.2128907"><ele>481.0</ele><time>2026-04-24T15:59:38.215Z</time></trkpt><trkpt lat="44.632261" lon="10.2129837"><ele>479.83333333333337</ele><time>2026-04-24T15:59:50.213Z</time></trkpt><trkpt lat="44.6321802" lon="10.2130188"><ele>478.6666666666667</ele><time>2026-04-24T15:59:53.215Z</time></trkpt><trkpt lat="44.6321361" lon="10.2131114"><ele>477.5</ele><time>2026-04-24T16:01:22.214Z</time></trkpt><trkpt lat="44.632076" lon="10.2131603"><ele>476.33333333333337</ele><time>2026-04-24T16:01:24.214Z</time></trkpt><trkpt lat="44.6320509" lon="10.2132669"><ele>475.1666666666667</ele><time>2026-04-24T16:01:27.213Z</time></trkpt><trkpt lat="44.6320506" lon="10.2131724"><ele>474.0</ele><time>2026-04-24T16:01:33.214Z</time></trkpt><trkpt lat="44.6321386" lon="10.2130959"><ele>474.0</ele><time>2026-04-24T16:01:35.214Z</time></trkpt><trkpt lat="44.6322395" lon="10.2129924"><ele>474.0</ele><time>2026-04-24T16:01:37.214Z</time></trkpt><trkpt lat="44.6322892" lon="10.2129356"><ele>474.0</ele><time>2026-04-24T16:01:38.214Z</time></trkpt><trkpt lat="44.6323773" lon="10.2128186"><ele>474.0</ele><time>2026-04-24T16:01:40.214Z</time></trkpt><trkpt lat="44.6324706" lon="10.2127055"><ele>474.0</ele><time>2026-04-24T16:01:42.215Z</time></trkpt><trkpt lat="44.6325503" lon="10.212608"><ele>474.0</ele><time>2026-04-24T16:01:44.213Z</time></trkpt><trkpt lat="44.632622" lon="10.2125269"><ele>474.0</ele><time>2026-04-24T16:01:46.215Z</time></trkpt><trkpt lat="44.6327168" lon="10.2124536"><ele>474.0</ele><time>2026-04-24T16:01:48.214Z</time></trkpt><trkpt lat="44.6328231" lon="10.2124119"><ele>474.0</ele><time>2026-04-24T16:01:50.213Z</time></trkpt><trkpt lat="44.6329288" lon="10.2124018"><ele>474.0</ele><time>2026-04-24T16:01:52.214Z</time></trkpt><trkpt lat="44.633024" lon="10.2123895"><ele>472.0</ele><time>2026-04-24T16:01:54.213Z</time></trkpt><trkpt lat="44.6331136" lon="10.2123755"><ele>470.0</ele><time>2026-04-24T16:01:56.213Z</time></trkpt><trkpt lat="44.63319" lon="10.2123686"><ele>468.0</ele><time>2026-04-24T16:01:58.213Z</time></trkpt><trkpt lat="44.6332561" lon="10.2123652"><ele>466.0</ele><time>2026-04-24T16:02:00.214Z</time></trkpt><trkpt lat="44.6333312" lon="10.2123462"><ele>464.0</ele><time>2026-04-24T16:02:03.214Z</time></trkpt><trkpt lat="44.6333921" lon="10.2123232"><ele>462.0</ele><time>2026-04-24T16:02:07.213Z</time></trkpt><trkpt lat="44.6334833" lon="10.2122403"><ele>462.0</ele><time>2026-04-24T16:02:10.213Z</time></trkpt><trkpt lat="44.6335512" lon="10.212146"><ele>462.0</ele><time>2026-04-24T16:02:11.214Z</time></trkpt><trkpt lat="44.6336274" lon="10.2120129"><ele>462.0</ele><time>2026-04-24T16:02:12.215Z</time></trkpt><trkpt lat="44.6336935" lon="10.2118659"><ele>462.0</ele><time>2026-04-24T16:02:13.214Z</time></trkpt><trkpt lat="44.6337693" lon="10.2117376"><ele>460.0</ele><time>2026-04-24T16:02:14.215Z</time></trkpt><trkpt lat="44.6338561" lon="10.2116487"><ele>458.00000000000006</ele><time>2026-04-24T16:02:15.213Z</time></trkpt><trkpt lat="44.6339372" lon="10.2116033"><ele>456.00000000000006</ele><time>2026-04-24T16:02:16.214Z</time></trkpt><trkpt lat="44.6339995" lon="10.2115661"><ele>454.0</ele><time>2026-04-24T16:02:17.215Z</time></trkpt><trkpt lat="44.6340436" lon="10.2114586"><ele>452.0</ele><time>2026-04-24T16:02:19.215Z</time></trkpt><trkpt lat="44.6339766" lon="10.2112891"><ele>452.0</ele><time>2026-04-24T16:02:21.214Z</time></trkpt><trkpt lat="44.6339119" lon="10.2111755"><ele>452.0</ele><time>2026-04-24T16:02:22.214Z</time></trkpt><trkpt lat="44.6338454" lon="10.2110308"><ele>452.0</ele><time>2026-04-24T16:02:23.213Z</time></trkpt><trkpt lat="44.6337921" lon="10.2108865"><ele>452.0</ele><time>2026-04-24T16:02:24.213Z</time></trkpt><trkpt lat="44.6337511" lon="10.2107373"><ele>452.0</ele><time>2026-04-24T16:02:25.214Z</time></trkpt><trkpt lat="44.633735" lon="10.2105732"><ele>452.0</ele><time>2026-04-24T16:02:26.213Z</time></trkpt><trkpt lat="44.6337371" lon="10.210392"><ele>452.0</ele><time>2026-04-24T16:02:27.214Z</time></trkpt><trkpt lat="44.6337482" lon="10.2101935"><ele>452.0</ele><time>2026-04-24T16:02:28.214Z</time></trkpt><trkpt lat="44.6337635" lon="10.210017"><ele>452.0</ele><time>2026-04-24T16:02:29.213Z</time></trkpt><trkpt lat="44.6337904" lon="10.2098648"><ele>452.0</ele><time>2026-04-24T16:02:30.214Z</time></trkpt><trkpt lat="44.6338272" lon="10.2097125"><ele>452.0</ele><time>2026-04-24T16:02:31.214Z</time></trkpt><trkpt lat="44.6338769" lon="10.2095529"><ele>452.0</ele><time>2026-04-24T16:02:32.214Z</time></trkpt><trkpt lat="44.6339373" lon="10.2093847"><ele>451.75</ele><time>2026-04-24T16:02:33.213Z</time></trkpt><trkpt lat="44.6340053" lon="10.2092152"><ele>451.5</ele><time>2026-04-24T16:02:34.214Z</time></trkpt><trkpt lat="44.6340674" lon="10.2090446"><ele>451.25</ele><time>2026-04-24T16:02:35.214Z</time></trkpt><trkpt lat="44.6341207" lon="10.2088831"><ele>451.0</ele><time>2026-04-24T16:02:36.214Z</time></trkpt><trkpt lat="44.6341755" lon="10.2087424"><ele>449.6</ele><time>2026-04-24T16:02:37.214Z</time></trkpt><trkpt lat="44.6342422" lon="10.2086222"><ele>448.20000000000005</ele><time>2026-04-24T16:02:38.214Z</time></trkpt><trkpt lat="44.6343278" lon="10.2085159"><ele>446.79999999999995</ele><time>2026-04-24T16:02:39.214Z</time></trkpt><trkpt lat="44.6344201" lon="10.2084166"><ele>445.4</ele><time>2026-04-24T16:02:40.215Z</time></trkpt><trkpt lat="44.6345052" lon="10.2083341"><ele>444.0</ele><time>2026-04-24T16:02:41.215Z</time></trkpt><trkpt lat="44.6345696" lon="10.2082554"><ele>444.0</ele><time>2026-04-24T16:02:42.214Z</time></trkpt><trkpt lat="44.6346249" lon="10.2081649"><ele>444.0</ele><time>2026-04-24T16:02:43.215Z</time></trkpt><trkpt lat="44.6346767" lon="10.2080576"><ele>444.0</ele><time>2026-04-24T16:02:44.214Z</time></trkpt><trkpt lat="44.634714" lon="10.2079356"><ele>444.0</ele><time>2026-04-24T16:02:45.213Z</time></trkpt><trkpt lat="44.6347447" lon="10.2077787"><ele>444.0</ele><time>2026-04-24T16:02:46.214Z</time></trkpt><trkpt lat="44.6347605" lon="10.2076064"><ele>446.25</ele><time>2026-04-24T16:02:47.213Z</time></trkpt><trkpt lat="44.6347766" lon="10.2074283"><ele>448.5</ele><time>2026-04-24T16:02:48.213Z</time></trkpt><trkpt lat="44.6347979" lon="10.2072641"><ele>450.75</ele><time>2026-04-24T16:02:49.213Z</time></trkpt><trkpt lat="44.6348291" lon="10.2071037"><ele>453.0</ele><time>2026-04-24T16:02:50.213Z</time></trkpt><trkpt lat="44.6348939" lon="10.2069565"><ele>455.0</ele><time>2026-04-24T16:02:51.213Z</time></trkpt><trkpt lat="44.6349629" lon="10.2068515"><ele>457.0</ele><time>2026-04-24T16:02:52.214Z</time></trkpt><trkpt lat="44.6350292" lon="10.2067635"><ele>459.0</ele><time>2026-04-24T16:02:53.215Z</time></trkpt><trkpt lat="44.6350871" lon="10.2066896"><ele>461.0</ele><time>2026-04-24T16:02:54.213Z</time></trkpt><trkpt lat="44.6351248" lon="10.2066154"><ele>463.0</ele><time>2026-04-24T16:02:55.214Z</time></trkpt><trkpt lat="44.6351591" lon="10.2065325"><ele>465.0</ele><time>2026-04-24T16:02:56.214Z</time></trkpt><trkpt lat="44.6351521" lon="10.2064152"><ele>466.0</ele><time>2026-04-24T16:02:57.214Z</time></trkpt><trkpt lat="44.6350954" lon="10.2062469"><ele>467.0</ele><time>2026-04-24T16:02:58.213Z</time></trkpt><trkpt lat="44.6351035" lon="10.2060941"><ele>468.0</ele><time>2026-04-24T16:02:59.214Z</time></trkpt><trkpt lat="44.6351309" lon="10.2059205"><ele>469.0</ele><time>2026-04-24T16:03:00.214Z</time></trkpt><trkpt lat="44.6351749" lon="10.2057212"><ele>471.25</ele><time>2026-04-24T16:03:01.214Z</time></trkpt><trkpt lat="44.6352149" lon="10.2055175"><ele>473.5</ele><time>2026-04-24T16:03:02.214Z</time></trkpt><trkpt lat="44.6352542" lon="10.2053438"><ele>475.75</ele><time>2026-04-24T16:03:03.213Z</time></trkpt><trkpt lat="44.6352835" lon="10.2051874"><ele>478.0</ele><time>2026-04-24T16:03:04.212Z</time></trkpt><trkpt lat="44.6353074" lon="10.2050387"><ele>478.79999999999995</ele><time>2026-04-24T16:03:05.213Z</time></trkpt><trkpt lat="44.6353147" lon="10.2048939"><ele>479.59999999999997</ele><time>2026-04-24T16:03:06.214Z</time></trkpt><trkpt lat="44.6353012" lon="10.2047516"><ele>480.40000000000003</ele><time>2026-04-24T16:03:07.214Z</time></trkpt><trkpt lat="44.6352833" lon="10.2045903"><ele>481.20000000000005</ele><time>2026-04-24T16:03:08.213Z</time></trkpt><trkpt lat="44.6352669" lon="10.2044247"><ele>482.0</ele><time>2026-04-24T16:03:09.212Z</time></trkpt><trkpt lat="44.6352331" lon="10.2042674"><ele>482.0</ele><time>2026-04-24T16:03:10.214Z</time></trkpt><trkpt lat="44.6351807" lon="10.2040992"><ele>482.0</ele><time>2026-04-24T16:03:11.214Z</time></trkpt><trkpt lat="44.635132" lon="10.2039498"><ele>482.0</ele><time>2026-04-24T16:03:12.212Z</time></trkpt><trkpt lat="44.6350861" lon="10.2038189"><ele>482.0</ele><time>2026-04-24T16:03:13.212Z</time></trkpt><trkpt lat="44.6350253" lon="10.2036953"><ele>480.75</ele><time>2026-04-24T16:03:14.212Z</time></trkpt><trkpt lat="44.6349429" lon="10.2035837"><ele>479.5</ele><time>2026-04-24T16:03:15.213Z</time></trkpt><trkpt lat="44.6348417" lon="10.2034672"><ele>478.25</ele><time>2026-04-24T16:03:16.214Z</time></trkpt><trkpt lat="44.6347413" lon="10.203332"><ele>477.0</ele><time>2026-04-24T16:03:17.213Z</time></trkpt><trkpt lat="44.6346341" lon="10.2032034"><ele>476.33333333333337</ele><time>2026-04-24T16:03:18.213Z</time></trkpt><trkpt lat="44.6345311" lon="10.2030113"><ele>475.6666666666667</ele><time>2026-04-24T16:03:19.214Z</time></trkpt><trkpt lat="44.6344307" lon="10.2028558"><ele>475.0</ele><time>2026-04-24T16:03:20.212Z</time></trkpt><trkpt lat="44.6343448" lon="10.2026962"><ele>478.6</ele><time>2026-04-24T16:03:21.212Z</time></trkpt><trkpt lat="44.6342917" lon="10.202556"><ele>482.2</ele><time>2026-04-24T16:03:22.213Z</time></trkpt><trkpt lat="44.6342474" lon="10.2023566"><ele>485.79999999999995</ele><time>2026-04-24T16:03:24.214Z</time></trkpt><trkpt lat="44.6342678" lon="10.2022713"><ele>489.4</ele><time>2026-04-24T16:03:25.214Z</time></trkpt><trkpt lat="44.6343102" lon="10.2021887"><ele>493.0</ele><time>2026-04-24T16:03:26.213Z</time></trkpt><trkpt lat="44.6343811" lon="10.2020972"><ele>493.0</ele><time>2026-04-24T16:03:27.212Z</time></trkpt><trkpt lat="44.6344689" lon="10.2020005"><ele>493.0</ele><time>2026-04-24T16:03:28.213Z</time></trkpt><trkpt lat="44.6345832" lon="10.2018916"><ele>493.0</ele><time>2026-04-24T16:03:29.212Z</time></trkpt><trkpt lat="44.6347144" lon="10.2017647"><ele>493.0</ele><time>2026-04-24T16:03:30.213Z</time></trkpt><trkpt lat="44.6348376" lon="10.2016416"><ele>494.0</ele><time>2026-04-24T16:03:31.214Z</time></trkpt><trkpt lat="44.6349623" lon="10.2015182"><ele>495.0</ele><time>2026-04-24T16:03:32.213Z</time></trkpt><trkpt lat="44.6350708" lon="10.2013955"><ele>496.0</ele><time>2026-04-24T16:03:33.213Z</time></trkpt><trkpt lat="44.6351682" lon="10.2012913"><ele>497.0</ele><time>2026-04-24T16:03:34.214Z</time></trkpt><trkpt lat="44.6352718" lon="10.2011842"><ele>494.25</ele><time>2026-04-24T16:03:35.214Z</time></trkpt><trkpt lat="44.635387" lon="10.2011016"><ele>491.5</ele><time>2026-04-24T16:03:36.213Z</time></trkpt><trkpt lat="44.6355076" lon="10.2010115"><ele>488.75</ele><time>2026-04-24T16:03:37.212Z</time></trkpt><trkpt lat="44.6356198" lon="10.2009232"><ele>486.0</ele><time>2026-04-24T16:03:38.213Z</time></trkpt><trkpt lat="44.6357179" lon="10.2008444"><ele>486.0</ele><time>2026-04-24T16:03:39.212Z</time></trkpt><trkpt lat="44.6358015" lon="10.2007589"><ele>486.0</ele><time>2026-04-24T16:03:40.213Z</time></trkpt><trkpt lat="44.6358671" lon="10.2006742"><ele>486.0</ele><time>2026-04-24T16:03:41.212Z</time></trkpt><trkpt lat="44.6359172" lon="10.2005747"><ele>486.0</ele><time>2026-04-24T16:03:42.212Z</time></trkpt><trkpt lat="44.6359617" lon="10.2004498"><ele>486.0</ele><time>2026-04-24T16:03:43.212Z</time></trkpt><trkpt lat="44.6359981" lon="10.2002897"><ele>486.5</ele><time>2026-04-24T16:03:44.213Z</time></trkpt><trkpt lat="44.6360302" lon="10.2001037"><ele>487.0</ele><time>2026-04-24T16:03:45.213Z</time></trkpt><trkpt lat="44.6360631" lon="10.1998978"><ele>487.5</ele><time>2026-04-24T16:03:46.213Z</time></trkpt><trkpt lat="44.6360944" lon="10.1996782"><ele>488.0</ele><time>2026-04-24T16:03:47.212Z</time></trkpt><trkpt lat="44.6361289" lon="10.1994444"><ele>485.5</ele><time>2026-04-24T16:03:48.212Z</time></trkpt><trkpt lat="44.6361627" lon="10.1992346"><ele>483.0</ele><time>2026-04-24T16:03:49.213Z</time></trkpt><trkpt lat="44.6361923" lon="10.1990409"><ele>480.5</ele><time>2026-04-24T16:03:50.212Z</time></trkpt><trkpt lat="44.6362263" lon="10.1988649"><ele>478.0</ele><time>2026-04-24T16:03:51.212Z</time></trkpt><trkpt lat="44.6362599" lon="10.1987103"><ele>478.0</ele><time>2026-04-24T16:03:52.212Z</time></trkpt><trkpt lat="44.6362855" lon="10.1985673"><ele>477.99999999999994</ele><time>2026-04-24T16:03:53.213Z</time></trkpt><trkpt lat="44.6363096" lon="10.1984374"><ele>477.99999999999994</ele><time>2026-04-24T16:03:54.212Z</time></trkpt><trkpt lat="44.6363439" lon="10.1983212"><ele>478.0</ele><time>2026-04-24T16:03:55.212Z</time></trkpt><trkpt lat="44.6364003" lon="10.1982206"><ele>478.0</ele><time>2026-04-24T16:03:56.213Z</time></trkpt><trkpt lat="44.6364764" lon="10.1981368"><ele>477.0</ele><time>2026-04-24T16:03:57.212Z</time></trkpt><trkpt lat="44.6365571" lon="10.1980676"><ele>475.99999999999994</ele><time>2026-04-24T16:03:58.213Z</time></trkpt><trkpt lat="44.636648" lon="10.1980092"><ele>474.99999999999994</ele><time>2026-04-24T16:03:59.213Z</time></trkpt><trkpt lat="44.6367467" lon="10.1979732"><ele>474.0</ele><time>2026-04-24T16:04:00.214Z</time></trkpt><trkpt lat="44.6368448" lon="10.1979546"><ele>473.0</ele><time>2026-04-24T16:04:01.213Z</time></trkpt><trkpt lat="44.636944" lon="10.1979388"><ele>472.4</ele><time>2026-04-24T16:04:02.214Z</time></trkpt><trkpt lat="44.6370682" lon="10.1979167"><ele>471.79999999999995</ele><time>2026-04-24T16:04:03.214Z</time></trkpt><trkpt lat="44.6371772" lon="10.1978961"><ele>471.2</ele><time>2026-04-24T16:04:04.214Z</time></trkpt><trkpt lat="44.6372835" lon="10.1978767"><ele>470.6</ele><time>2026-04-24T16:04:05.214Z</time></trkpt><trkpt lat="44.637385" lon="10.1978492"><ele>470.0</ele><time>2026-04-24T16:04:06.212Z</time></trkpt><trkpt lat="44.6374851" lon="10.19782"><ele>470.0</ele><time>2026-04-24T16:04:07.213Z</time></trkpt><trkpt lat="44.6375793" lon="10.1977559"><ele>470.0</ele><time>2026-04-24T16:04:08.214Z</time></trkpt><trkpt lat="44.637676" lon="10.1976957"><ele>470.0</ele><time>2026-04-24T16:04:09.214Z</time></trkpt><trkpt lat="44.6377618" lon="10.1976639"><ele>470.0</ele><time>2026-04-24T16:04:10.212Z</time></trkpt><trkpt lat="44.6378699" lon="10.1976005"><ele>470.0</ele><time>2026-04-24T16:04:11.212Z</time></trkpt><trkpt lat="44.6379614" lon="10.1975403"><ele>465.0</ele><time>2026-04-24T16:04:12.213Z</time></trkpt><trkpt lat="44.6380564" lon="10.1974822"><ele>460.0</ele><time>2026-04-24T16:04:13.214Z</time></trkpt><trkpt lat="44.6381798" lon="10.1973977"><ele>455.0</ele><time>2026-04-24T16:04:14.213Z</time></trkpt><trkpt lat="44.6382461" lon="10.1972649"><ele>450.0</ele><time>2026-04-24T16:04:15.214Z</time></trkpt><trkpt lat="44.6383405" lon="10.1971807"><ele>450.0</ele><time>2026-04-24T16:04:16.214Z</time></trkpt><trkpt lat="44.6384384" lon="10.1971106"><ele>450.0</ele><time>2026-04-24T16:04:17.212Z</time></trkpt><trkpt lat="44.6385476" lon="10.1970773"><ele>450.0</ele><time>2026-04-24T16:04:18.213Z</time></trkpt><trkpt lat="44.6386908" lon="10.1970205"><ele>450.0</ele><time>2026-04-24T16:04:19.213Z</time></trkpt><trkpt lat="44.6388371" lon="10.1969754"><ele>446.5</ele><time>2026-04-24T16:04:20.212Z</time></trkpt><trkpt lat="44.6389681" lon="10.196922"><ele>443.0</ele><time>2026-04-24T16:04:21.213Z</time></trkpt><trkpt lat="44.6391" lon="10.1968763"><ele>439.5</ele><time>2026-04-24T16:04:22.213Z</time></trkpt><trkpt lat="44.6392279" lon="10.1968297"><ele>436.0</ele><time>2026-04-24T16:04:23.212Z</time></trkpt><trkpt lat="44.6393472" lon="10.1967859"><ele>433.5</ele><time>2026-04-24T16:04:24.213Z</time></trkpt><trkpt lat="44.6394796" lon="10.1967562"><ele>431.0</ele><time>2026-04-24T16:04:25.212Z</time></trkpt><trkpt lat="44.6396177" lon="10.1967358"><ele>428.5</ele><time>2026-04-24T16:04:26.212Z</time></trkpt><trkpt lat="44.6397751" lon="10.1967191"><ele>426.0</ele><time>2026-04-24T16:04:27.212Z</time></trkpt><trkpt lat="44.6399258" lon="10.1967152"><ele>426.0</ele><time>2026-04-24T16:04:28.213Z</time></trkpt><trkpt lat="44.6400828" lon="10.1967402"><ele>426.0</ele><time>2026-04-24T16:04:29.214Z</time></trkpt><trkpt lat="44.6402255" lon="10.1967813"><ele>426.0</ele><time>2026-04-24T16:04:30.214Z</time></trkpt><trkpt lat="44.6403632" lon="10.1968232"><ele>426.0</ele><time>2026-04-24T16:04:31.214Z</time></trkpt><trkpt lat="44.6404898" lon="10.1968512"><ele>425.0</ele><time>2026-04-24T16:04:32.214Z</time></trkpt><trkpt lat="44.6406048" lon="10.1968749"><ele>424.0</ele><time>2026-04-24T16:04:33.212Z</time></trkpt><trkpt lat="44.6407071" lon="10.1968966"><ele>423.0</ele><time>2026-04-24T16:04:34.213Z</time></trkpt><trkpt lat="44.6408044" lon="10.196937"><ele>422.0</ele><time>2026-04-24T16:04:35.213Z</time></trkpt><trkpt lat="44.6408975" lon="10.1969659"><ele>421.0</ele><time>2026-04-24T16:04:36.213Z</time></trkpt><trkpt lat="44.6409849" lon="10.1969763"><ele>421.00000000000006</ele><time>2026-04-24T16:04:37.212Z</time></trkpt><trkpt lat="44.6410662" lon="10.1969625"><ele>421.0</ele><time>2026-04-24T16:04:38.212Z</time></trkpt><trkpt lat="44.64114" lon="10.1969265"><ele>421.0</ele><time>2026-04-24T16:04:39.212Z</time></trkpt><trkpt lat="44.6412219" lon="10.196874"><ele>421.0</ele><time>2026-04-24T16:04:40.213Z</time></trkpt><trkpt lat="44.6412919" lon="10.1968104"><ele>421.00000000000006</ele><time>2026-04-24T16:04:41.213Z</time></trkpt><trkpt lat="44.6413635" lon="10.1967305"><ele>421.0</ele><time>2026-04-24T16:04:42.213Z</time></trkpt><trkpt lat="44.6414443" lon="10.1966544"><ele>420.4</ele><time>2026-04-24T16:04:43.213Z</time></trkpt><trkpt lat="44.6415252" lon="10.1965787"><ele>419.8</ele><time>2026-04-24T16:04:44.214Z</time></trkpt><trkpt lat="44.6416092" lon="10.1965037"><ele>419.2</ele><time>2026-04-24T16:04:45.213Z</time></trkpt><trkpt lat="44.6416978" lon="10.1964646"><ele>418.59999999999997</ele><time>2026-04-24T16:04:46.213Z</time></trkpt><trkpt lat="44.641788" lon="10.1964348"><ele>418.0</ele><time>2026-04-24T16:04:47.214Z</time></trkpt><trkpt lat="44.6418805" lon="10.1964287"><ele>417.79999999999995</ele><time>2026-04-24T16:04:48.214Z</time></trkpt><trkpt lat="44.6419699" lon="10.1964366"><ele>417.6</ele><time>2026-04-24T16:04:49.213Z</time></trkpt><trkpt lat="44.6420605" lon="10.1964654"><ele>417.4</ele><time>2026-04-24T16:04:50.213Z</time></trkpt><trkpt lat="44.6421653" lon="10.1965102"><ele>417.20000000000005</ele><time>2026-04-24T16:04:51.213Z</time></trkpt><trkpt lat="44.642273" lon="10.1965675"><ele>417.0</ele><time>2026-04-24T16:04:52.213Z</time></trkpt><trkpt lat="44.6423643" lon="10.1966312"><ele>417.0</ele><time>2026-04-24T16:04:53.213Z</time></trkpt><trkpt lat="44.6424634" lon="10.1967029"><ele>417.0</ele><time>2026-04-24T16:04:54.212Z</time></trkpt><trkpt lat="44.6425667" lon="10.196773"><ele>417.0</ele><time>2026-04-24T16:04:55.213Z</time></trkpt><trkpt lat="44.6426634" lon="10.1968264"><ele>417.0</ele><time>2026-04-24T16:04:56.213Z</time></trkpt><trkpt lat="44.6427623" lon="10.1968627"><ele>417.0</ele><time>2026-04-24T16:04:57.214Z</time></trkpt><trkpt lat="44.6428706" lon="10.1968884"><ele>416.75</ele><time>2026-04-24T16:04:58.213Z</time></trkpt><trkpt lat="44.6429866" lon="10.1968923"><ele>416.5</ele><time>2026-04-24T16:04:59.214Z</time></trkpt><trkpt lat="44.6431026" lon="10.1968896"><ele>416.25</ele><time>2026-04-24T16:05:00.213Z</time></trkpt><trkpt lat="44.6432172" lon="10.196874"><ele>416.0</ele><time>2026-04-24T16:05:01.214Z</time></trkpt><trkpt lat="44.6433284" lon="10.1968439"><ele>416.0</ele><time>2026-04-24T16:05:02.214Z</time></trkpt><trkpt lat="44.6434423" lon="10.1967845"><ele>416.0</ele><time>2026-04-24T16:05:03.213Z</time></trkpt><trkpt lat="44.6435613" lon="10.196724"><ele>416.0</ele><time>2026-04-24T16:05:04.212Z</time></trkpt><trkpt lat="44.6436872" lon="10.1966596"><ele>416.0</ele><time>2026-04-24T16:05:05.212Z</time></trkpt><trkpt lat="44.6438256" lon="10.1965941"><ele>416.0</ele><time>2026-04-24T16:05:06.213Z</time></trkpt><trkpt lat="44.6439753" lon="10.1965312"><ele>416.0</ele><time>2026-04-24T16:05:07.213Z</time></trkpt><trkpt lat="44.6441245" lon="10.1964856"><ele>416.0</ele><time>2026-04-24T16:05:08.212Z</time></trkpt><trkpt lat="44.6442823" lon="10.1964459"><ele>416.0</ele><time>2026-04-24T16:05:09.212Z</time></trkpt><trkpt lat="44.644431" lon="10.1964149"><ele>416.0</ele><time>2026-04-24T16:05:10.212Z</time></trkpt><trkpt lat="44.6445667" lon="10.1964139"><ele>416.0</ele><time>2026-04-24T16:05:11.212Z</time></trkpt><trkpt lat="44.6447049" lon="10.1964383"><ele>416.0</ele><time>2026-04-24T16:05:12.213Z</time></trkpt><trkpt lat="44.6448493" lon="10.1964886"><ele>415.0</ele><time>2026-04-24T16:05:13.213Z</time></trkpt><trkpt lat="44.645" lon="10.1965594"><ele>414.0</ele><time>2026-04-24T16:05:14.212Z</time></trkpt><trkpt lat="44.6451631" lon="10.1966365"><ele>413.0</ele><time>2026-04-24T16:05:15.213Z</time></trkpt><trkpt lat="44.6453208" lon="10.1967038"><ele>411.75</ele><time>2026-04-24T16:05:16.213Z</time></trkpt><trkpt lat="44.6454674" lon="10.196768"><ele>410.5</ele><time>2026-04-24T16:05:17.212Z</time></trkpt><trkpt lat="44.6455945" lon="10.196822"><ele>409.25</ele><time>2026-04-24T16:05:18.213Z</time></trkpt><trkpt lat="44.6457092" lon="10.1968823"><ele>408.0</ele><time>2026-04-24T16:05:19.213Z</time></trkpt><trkpt lat="44.6458166" lon="10.1969428"><ele>408.0</ele><time>2026-04-24T16:05:20.214Z</time></trkpt><trkpt lat="44.6459117" lon="10.1970285"><ele>408.0</ele><time>2026-04-24T16:05:21.213Z</time></trkpt><trkpt lat="44.6460148" lon="10.1971392"><ele>408.0</ele><time>2026-04-24T16:05:22.213Z</time></trkpt><trkpt lat="44.6461189" lon="10.1972733"><ele>408.0</ele><time>2026-04-24T16:05:23.214Z</time></trkpt><trkpt lat="44.6462301" lon="10.1974243"><ele>408.5</ele><time>2026-04-24T16:05:24.214Z</time></trkpt><trkpt lat="44.6463444" lon="10.1975856"><ele>409.0</ele><time>2026-04-24T16:05:25.214Z</time></trkpt><trkpt lat="44.6464435" lon="10.1977271"><ele>409.5</ele><time>2026-04-24T16:05:26.213Z</time></trkpt><trkpt lat="44.6465341" lon="10.1978601"><ele>410.0</ele><time>2026-04-24T16:05:27.214Z</time></trkpt><trkpt lat="44.6466156" lon="10.1979868"><ele>410.0</ele><time>2026-04-24T16:05:28.214Z</time></trkpt><trkpt lat="44.6466919" lon="10.1981108"><ele>410.0</ele><time>2026-04-24T16:05:29.213Z</time></trkpt><trkpt lat="44.6467591" lon="10.1982333"><ele>410.0</ele><time>2026-04-24T16:05:30.214Z</time></trkpt><trkpt lat="44.6468224" lon="10.1983627"><ele>410.0</ele><time>2026-04-24T16:05:31.213Z</time></trkpt><trkpt lat="44.6468791" lon="10.198498"><ele>409.6</ele><time>2026-04-24T16:05:32.212Z</time></trkpt><trkpt lat="44.6469303" lon="10.1986378"><ele>409.2</ele><time>2026-04-24T16:05:33.213Z</time></trkpt><trkpt lat="44.6469724" lon="10.1987805"><ele>408.79999999999995</ele><time>2026-04-24T16:05:34.212Z</time></trkpt><trkpt lat="44.647013" lon="10.1989106"><ele>408.4</ele><time>2026-04-24T16:05:35.213Z</time></trkpt><trkpt lat="44.6470553" lon="10.199035"><ele>408.0</ele><time>2026-04-24T16:05:36.212Z</time></trkpt><trkpt lat="44.647096" lon="10.1991511"><ele>406.6666666666667</ele><time>2026-04-24T16:05:37.213Z</time></trkpt><trkpt lat="44.6471339" lon="10.1992686"><ele>405.33333333333337</ele><time>2026-04-24T16:05:38.212Z</time></trkpt><trkpt lat="44.6471708" lon="10.1993803"><ele>404.0</ele><time>2026-04-24T16:05:39.212Z</time></trkpt><trkpt lat="44.6472079" lon="10.1994822"><ele>402.6666666666667</ele><time>2026-04-24T16:05:40.212Z</time></trkpt><trkpt lat="44.6472523" lon="10.1995844"><ele>401.33333333333337</ele><time>2026-04-24T16:05:41.213Z</time></trkpt><trkpt lat="44.6473076" lon="10.199681"><ele>400.0</ele><time>2026-04-24T16:05:42.214Z</time></trkpt><trkpt lat="44.647372" lon="10.199774"><ele>398.4</ele><time>2026-04-24T16:05:43.212Z</time></trkpt><trkpt lat="44.6474364" lon="10.199874"><ele>396.8</ele><time>2026-04-24T16:05:44.212Z</time></trkpt><trkpt lat="44.6474929" lon="10.1999923"><ele>395.20000000000005</ele><time>2026-04-24T16:05:45.212Z</time></trkpt><trkpt lat="44.6475443" lon="10.2001149"><ele>393.6</ele><time>2026-04-24T16:05:46.213Z</time></trkpt><trkpt lat="44.647605" lon="10.2002348"><ele>392.0</ele><time>2026-04-24T16:05:47.212Z</time></trkpt><trkpt lat="44.64767" lon="10.2003516"><ele>392.0</ele><time>2026-04-24T16:05:48.214Z</time></trkpt><trkpt lat="44.6477443" lon="10.2004788"><ele>392.0</ele><time>2026-04-24T16:05:49.213Z</time></trkpt><trkpt lat="44.6478103" lon="10.200601"><ele>392.0</ele><time>2026-04-24T16:05:50.213Z</time></trkpt><trkpt lat="44.6478696" lon="10.2007227"><ele>392.0</ele><time>2026-04-24T16:05:51.213Z</time></trkpt><trkpt lat="44.6479167" lon="10.2008513"><ele>392.0</ele><time>2026-04-24T16:05:52.212Z</time></trkpt><trkpt lat="44.6479635" lon="10.2010018"><ele>389.75</ele><time>2026-04-24T16:05:53.213Z</time></trkpt><trkpt lat="44.6480185" lon="10.2011676"><ele>387.5</ele><time>2026-04-24T16:05:54.214Z</time></trkpt><trkpt lat="44.6480638" lon="10.2013177"><ele>385.25</ele><time>2026-04-24T16:05:55.213Z</time></trkpt><trkpt lat="44.6481098" lon="10.2014771"><ele>383.0</ele><time>2026-04-24T16:05:56.213Z</time></trkpt><trkpt lat="44.6481538" lon="10.2016448"><ele>380.25</ele><time>2026-04-24T16:05:57.214Z</time></trkpt><trkpt lat="44.6481833" lon="10.2018108"><ele>377.5</ele><time>2026-04-24T16:05:58.213Z</time></trkpt><trkpt lat="44.648204" lon="10.2019748"><ele>374.75</ele><time>2026-04-24T16:05:59.213Z</time></trkpt><trkpt lat="44.6482314" lon="10.2021289"><ele>372.0</ele><time>2026-04-24T16:06:00.213Z</time></trkpt><trkpt lat="44.6482669" lon="10.2022849"><ele>369.5</ele><time>2026-04-24T16:06:01.214Z</time></trkpt><trkpt lat="44.6483086" lon="10.202443"><ele>367.0</ele><time>2026-04-24T16:06:02.214Z</time></trkpt><trkpt lat="44.6483588" lon="10.2026364"><ele>364.5</ele><time>2026-04-24T16:06:03.214Z</time></trkpt><trkpt lat="44.6484058" lon="10.202831"><ele>362.0</ele><time>2026-04-24T16:06:04.214Z</time></trkpt><trkpt lat="44.6484539" lon="10.2030118"><ele>360.25</ele><time>2026-04-24T16:06:05.213Z</time></trkpt><trkpt lat="44.6485065" lon="10.2031841"><ele>358.5</ele><time>2026-04-24T16:06:06.213Z</time></trkpt><trkpt lat="44.6485676" lon="10.2033717"><ele>356.75</ele><time>2026-04-24T16:06:07.212Z</time></trkpt><trkpt lat="44.6486317" lon="10.2035708"><ele>355.0</ele><time>2026-04-24T16:06:08.214Z</time></trkpt><trkpt lat="44.6486868" lon="10.2037589"><ele>353.5</ele><time>2026-04-24T16:06:09.214Z</time></trkpt><trkpt lat="44.648737" lon="10.2039413"><ele>352.0</ele><time>2026-04-24T16:06:10.214Z</time></trkpt><trkpt lat="44.6487875" lon="10.2041192"><ele>350.5</ele><time>2026-04-24T16:06:11.214Z</time></trkpt><trkpt lat="44.6488415" lon="10.2042974"><ele>349.0</ele><time>2026-04-24T16:06:12.212Z</time></trkpt><trkpt lat="44.6488953" lon="10.2045049"><ele>348.25</ele><time>2026-04-24T16:06:13.212Z</time></trkpt><trkpt lat="44.6489406" lon="10.2046963"><ele>347.5</ele><time>2026-04-24T16:06:14.212Z</time></trkpt><trkpt lat="44.6489834" lon="10.2048868"><ele>346.75</ele><time>2026-04-24T16:06:15.212Z</time></trkpt><trkpt lat="44.6490328" lon="10.2050831"><ele>346.0</ele><time>2026-04-24T16:06:16.213Z</time></trkpt><trkpt lat="44.6490864" lon="10.2052725"><ele>344.5</ele><time>2026-04-24T16:06:17.213Z</time></trkpt><trkpt lat="44.6491421" lon="10.2054649"><ele>343.0</ele><time>2026-04-24T16:06:18.213Z</time></trkpt><trkpt lat="44.6491933" lon="10.2056487"><ele>341.5</ele><time>2026-04-24T16:06:19.213Z</time></trkpt><trkpt lat="44.6492382" lon="10.2058228"><ele>340.0</ele><time>2026-04-24T16:06:20.213Z</time></trkpt><trkpt lat="44.6492817" lon="10.2059856"><ele>338.3333333333333</ele><time>2026-04-24T16:06:21.213Z</time></trkpt><trkpt lat="44.6493203" lon="10.2061225"><ele>336.66666666666663</ele><time>2026-04-24T16:06:22.213Z</time></trkpt><trkpt lat="44.6493592" lon="10.2062272"><ele>335.0</ele><time>2026-04-24T16:06:23.212Z</time></trkpt><trkpt lat="44.6494013" lon="10.2063069"><ele>333.3333333333333</ele><time>2026-04-24T16:06:24.212Z</time></trkpt><trkpt lat="44.6494602" lon="10.2063645"><ele>331.6666666666667</ele><time>2026-04-24T16:06:25.213Z</time></trkpt><trkpt lat="44.6495406" lon="10.2063951"><ele>330.0</ele><time>2026-04-24T16:06:26.213Z</time></trkpt><trkpt lat="44.6496445" lon="10.2064091"><ele>328.5</ele><time>2026-04-24T16:06:27.212Z</time></trkpt><trkpt lat="44.6497707" lon="10.2064001"><ele>327.0</ele><time>2026-04-24T16:06:28.213Z</time></trkpt><trkpt lat="44.6498849" lon="10.2063855"><ele>325.5</ele><time>2026-04-24T16:06:29.212Z</time></trkpt><trkpt lat="44.6499928" lon="10.2064012"><ele>324.0</ele><time>2026-04-24T16:06:30.212Z</time></trkpt><trkpt lat="44.6500984" lon="10.206443"><ele>323.0</ele><time>2026-04-24T16:06:31.212Z</time></trkpt><trkpt lat="44.6502168" lon="10.2065201"><ele>322.0</ele><time>2026-04-24T16:06:32.212Z</time></trkpt><trkpt lat="44.650363" lon="10.206606"><ele>321.0</ele><time>2026-04-24T16:06:33.213Z</time></trkpt><trkpt lat="44.6504906" lon="10.2066742"><ele>320.0</ele><time>2026-04-24T16:06:34.214Z</time></trkpt><trkpt lat="44.6506247" lon="10.2067447"><ele>318.2</ele><time>2026-04-24T16:06:35.214Z</time></trkpt><trkpt lat="44.6507426" lon="10.2068028"><ele>316.4</ele><time>2026-04-24T16:06:36.214Z</time></trkpt><trkpt lat="44.650849" lon="10.2068553"><ele>314.6</ele><time>2026-04-24T16:06:37.214Z</time></trkpt><trkpt lat="44.6509449" lon="10.2069083"><ele>312.8</ele><time>2026-04-24T16:06:38.214Z</time></trkpt><trkpt lat="44.6510271" lon="10.2069776"><ele>311.0</ele><time>2026-04-24T16:06:39.212Z</time></trkpt><trkpt lat="44.6510942" lon="10.2070777"><ele>309.0</ele><time>2026-04-24T16:06:40.213Z</time></trkpt><trkpt lat="44.6511623" lon="10.2072047"><ele>307.0</ele><time>2026-04-24T16:06:41.213Z</time></trkpt><trkpt lat="44.6512346" lon="10.2073273"><ele>305.0</ele><time>2026-04-24T16:06:42.213Z</time></trkpt><trkpt lat="44.6513097" lon="10.2074302"><ele>303.0</ele><time>2026-04-24T16:06:43.214Z</time></trkpt><trkpt lat="44.6513938" lon="10.2075154"><ele>301.0</ele><time>2026-04-24T16:06:44.213Z</time></trkpt><trkpt lat="44.6515" lon="10.2075991"><ele>300.75</ele><time>2026-04-24T16:06:45.212Z</time></trkpt><trkpt lat="44.6516226" lon="10.2076803"><ele>300.5</ele><time>2026-04-24T16:06:46.211Z</time></trkpt><trkpt lat="44.6517383" lon="10.207752"><ele>300.25</ele><time>2026-04-24T16:06:47.212Z</time></trkpt><trkpt lat="44.6518478" lon="10.2078301"><ele>300.0</ele><time>2026-04-24T16:06:48.212Z</time></trkpt><trkpt lat="44.6519442" lon="10.2079084"><ele>298.6666666666667</ele><time>2026-04-24T16:06:49.212Z</time></trkpt><trkpt lat="44.6520321" lon="10.2079748"><ele>297.3333333333333</ele><time>2026-04-24T16:06:50.212Z</time></trkpt><trkpt lat="44.6521099" lon="10.2080417"><ele>296.0</ele><time>2026-04-24T16:06:51.213Z</time></trkpt><trkpt lat="44.6521707" lon="10.2081265"><ele>294.66666666666663</ele><time>2026-04-24T16:06:52.212Z</time></trkpt><trkpt lat="44.6522138" lon="10.2082238"><ele>293.3333333333333</ele><time>2026-04-24T16:06:53.213Z</time></trkpt><trkpt lat="44.6522506" lon="10.2083251"><ele>292.0</ele><time>2026-04-24T16:06:54.212Z</time></trkpt><trkpt lat="44.6522869" lon="10.2084284"><ele>291.0</ele><time>2026-04-24T16:06:55.213Z</time></trkpt><trkpt lat="44.6523228" lon="10.2085319"><ele>290.0</ele><time>2026-04-24T16:06:56.212Z</time></trkpt><trkpt lat="44.6523567" lon="10.2086366"><ele>289.0</ele><time>2026-04-24T16:06:57.211Z</time></trkpt><trkpt lat="44.6523913" lon="10.2087355"><ele>288.0</ele><time>2026-04-24T16:06:58.212Z</time></trkpt><trkpt lat="44.6524421" lon="10.2088624"><ele>287.0</ele><time>2026-04-24T16:07:00.211Z</time></trkpt><trkpt lat="44.6525036" lon="10.2089464"><ele>286.0</ele><time>2026-04-24T16:07:02.212Z</time></trkpt><trkpt lat="44.6526092" lon="10.2089799"><ele>284.6</ele><time>2026-04-24T16:07:04.211Z</time></trkpt><trkpt lat="44.652701" lon="10.2089971"><ele>283.20000000000005</ele><time>2026-04-24T16:07:05.211Z</time></trkpt><trkpt lat="44.6528136" lon="10.209017"><ele>281.79999999999995</ele><time>2026-04-24T16:07:06.212Z</time></trkpt><trkpt lat="44.6529191" lon="10.2090368"><ele>280.4</ele><time>2026-04-24T16:07:07.213Z</time></trkpt><trkpt lat="44.6530198" lon="10.2090622"><ele>279.0</ele><time>2026-04-24T16:07:08.211Z</time></trkpt><trkpt lat="44.6531113" lon="10.2090917"><ele>279.0</ele><time>2026-04-24T16:07:09.211Z</time></trkpt><trkpt lat="44.6532028" lon="10.2091144"><ele>279.0</ele><time>2026-04-24T16:07:10.212Z</time></trkpt><trkpt lat="44.6532882" lon="10.2091269"><ele>279.0</ele><time>2026-04-24T16:07:11.212Z</time></trkpt><trkpt lat="44.6533592" lon="10.2091412"><ele>279.0</ele><time>2026-04-24T16:07:12.212Z</time></trkpt><trkpt lat="44.6534339" lon="10.2091593"><ele>279.0</ele><time>2026-04-24T16:07:13.212Z</time></trkpt><trkpt lat="44.6534986" lon="10.2091754"><ele>279.0</ele><time>2026-04-24T16:07:14.213Z</time></trkpt><trkpt lat="44.653609" lon="10.2092257"><ele>278.4</ele><time>2026-04-24T16:07:16.212Z</time></trkpt><trkpt lat="44.6536762" lon="10.2093798"><ele>277.79999999999995</ele><time>2026-04-24T16:07:18.213Z</time></trkpt><trkpt lat="44.6537077" lon="10.2094904"><ele>277.20000000000005</ele><time>2026-04-24T16:07:19.212Z</time></trkpt><trkpt lat="44.6537402" lon="10.2095979"><ele>276.6</ele><time>2026-04-24T16:07:20.212Z</time></trkpt><trkpt lat="44.6537841" lon="10.2097349"><ele>276.0</ele><time>2026-04-24T16:07:22.212Z</time></trkpt><trkpt lat="44.6537981" lon="10.2098249"><ele>277.0</ele><time>2026-04-24T16:07:24.211Z</time></trkpt><trkpt lat="44.6537366" lon="10.2099328"><ele>278.0</ele><time>2026-04-24T16:07:26.211Z</time></trkpt><trkpt lat="44.6536753" lon="10.2099932"><ele>279.0</ele><time>2026-04-24T16:07:27.212Z</time></trkpt><trkpt lat="44.6536068" lon="10.210045"><ele>280.0</ele><time>2026-04-24T16:07:28.211Z</time></trkpt><trkpt lat="44.6535392" lon="10.2101113"><ele>281.0</ele><time>2026-04-24T16:07:29.213Z</time></trkpt><trkpt lat="44.6535197" lon="10.2103049"><ele>281.33333333333337</ele><time>2026-04-24T16:07:31.212Z</time></trkpt><trkpt lat="44.6535321" lon="10.2104027"><ele>281.6666666666667</ele><time>2026-04-24T16:07:32.211Z</time></trkpt><trkpt lat="44.6535484" lon="10.2104905"><ele>282.0</ele><time>2026-04-24T16:07:33.212Z</time></trkpt><trkpt lat="44.6535732" lon="10.2105775"><ele>282.3333333333333</ele><time>2026-04-24T16:07:34.212Z</time></trkpt><trkpt lat="44.6536041" lon="10.210686"><ele>282.66666666666663</ele><time>2026-04-24T16:07:35.212Z</time></trkpt><trkpt lat="44.6536478" lon="10.2108077"><ele>283.0</ele><time>2026-04-24T16:07:36.212Z</time></trkpt><trkpt lat="44.6536879" lon="10.2109254"><ele>283.0</ele><time>2026-04-24T16:07:37.212Z</time></trkpt><trkpt lat="44.6537313" lon="10.2110524"><ele>283.0</ele><time>2026-04-24T16:07:38.211Z</time></trkpt><trkpt lat="44.6537779" lon="10.2111819"><ele>283.0</ele><time>2026-04-24T16:07:39.213Z</time></trkpt><trkpt lat="44.653833" lon="10.2113197"><ele>283.0</ele><time>2026-04-24T16:07:40.213Z</time></trkpt><trkpt lat="44.6538749" lon="10.2114558"><ele>283.0</ele><time>2026-04-24T16:07:41.212Z</time></trkpt><trkpt lat="44.6539286" lon="10.2115988"><ele>284.25</ele><time>2026-04-24T16:07:42.213Z</time></trkpt><trkpt lat="44.6539848" lon="10.211757"><ele>285.5</ele><time>2026-04-24T16:07:43.213Z</time></trkpt><trkpt lat="44.6540459" lon="10.2119195"><ele>286.75</ele><time>2026-04-24T16:07:44.212Z</time></trkpt><trkpt lat="44.6541001" lon="10.2120806"><ele>288.0</ele><time>2026-04-24T16:07:45.212Z</time></trkpt><trkpt lat="44.6541507" lon="10.2122401"><ele>289.25</ele><time>2026-04-24T16:07:46.213Z</time></trkpt><trkpt lat="44.6541912" lon="10.2123945"><ele>290.5</ele><time>2026-04-24T16:07:47.211Z</time></trkpt><trkpt lat="44.6542312" lon="10.21255"><ele>291.75</ele><time>2026-04-24T16:07:48.212Z</time></trkpt><trkpt lat="44.6542609" lon="10.2127144"><ele>293.0</ele><time>2026-04-24T16:07:49.213Z</time></trkpt><trkpt lat="44.6542862" lon="10.2128822"><ele>293.0</ele><time>2026-04-24T16:07:50.212Z</time></trkpt><trkpt lat="44.6543126" lon="10.2130619"><ele>293.0</ele><time>2026-04-24T16:07:51.212Z</time></trkpt><trkpt lat="44.6543464" lon="10.2132479"><ele>293.0</ele><time>2026-04-24T16:07:52.211Z</time></trkpt><trkpt lat="44.6543879" lon="10.2134312"><ele>293.0</ele><time>2026-04-24T16:07:53.213Z</time></trkpt><trkpt lat="44.6544257" lon="10.2136191"><ele>296.75</ele><time>2026-04-24T16:07:54.212Z</time></trkpt><trkpt lat="44.6544677" lon="10.2138046"><ele>300.5</ele><time>2026-04-24T16:07:55.211Z</time></trkpt><trkpt lat="44.6545063" lon="10.2139949"><ele>304.25</ele><time>2026-04-24T16:07:56.212Z</time></trkpt><trkpt lat="44.65454" lon="10.2141777"><ele>308.0</ele><time>2026-04-24T16:07:57.212Z</time></trkpt><trkpt lat="44.6545763" lon="10.2143606"><ele>309.25</ele><time>2026-04-24T16:07:58.212Z</time></trkpt><trkpt lat="44.6546103" lon="10.2145468"><ele>310.5</ele><time>2026-04-24T16:07:59.213Z</time></trkpt><trkpt lat="44.654649" lon="10.214732"><ele>311.75</ele><time>2026-04-24T16:08:00.212Z</time></trkpt><trkpt lat="44.6546903" lon="10.2149199"><ele>313.0</ele><time>2026-04-24T16:08:01.212Z</time></trkpt><trkpt lat="44.6547321" lon="10.215101"><ele>313.5</ele><time>2026-04-24T16:08:02.213Z</time></trkpt><trkpt lat="44.6547539" lon="10.2152828"><ele>314.0</ele><time>2026-04-24T16:08:03.213Z</time></trkpt><trkpt lat="44.6547693" lon="10.2154663"><ele>314.5</ele><time>2026-04-24T16:08:04.211Z</time></trkpt><trkpt lat="44.6547772" lon="10.2156485"><ele>315.0</ele><time>2026-04-24T16:08:05.212Z</time></trkpt><trkpt lat="44.6547797" lon="10.2158414"><ele>315.5</ele><time>2026-04-24T16:08:06.213Z</time></trkpt><trkpt lat="44.6547652" lon="10.2160377"><ele>316.0</ele><time>2026-04-24T16:08:07.212Z</time></trkpt><trkpt lat="44.6547387" lon="10.2162357"><ele>316.5</ele><time>2026-04-24T16:08:08.212Z</time></trkpt><trkpt lat="44.6547039" lon="10.2164347"><ele>317.0</ele><time>2026-04-24T16:08:09.211Z</time></trkpt><trkpt lat="44.6546701" lon="10.2166303"><ele>319.0</ele><time>2026-04-24T16:08:10.211Z</time></trkpt><trkpt lat="44.6546478" lon="10.2168084"><ele>321.0</ele><time>2026-04-24T16:08:11.211Z</time></trkpt><trkpt lat="44.6546452" lon="10.2169671"><ele>323.0</ele><time>2026-04-24T16:08:12.212Z</time></trkpt><trkpt lat="44.6546735" lon="10.2171266"><ele>325.0</ele><time>2026-04-24T16:08:13.212Z</time></trkpt><trkpt lat="44.6547195" lon="10.217278"><ele>326.0</ele><time>2026-04-24T16:08:14.211Z</time></trkpt><trkpt lat="44.6547758" lon="10.2174226"><ele>327.0</ele><time>2026-04-24T16:08:15.211Z</time></trkpt><trkpt lat="44.6548372" lon="10.2175905"><ele>328.0</ele><time>2026-04-24T16:08:16.211Z</time></trkpt><trkpt lat="44.6548575" lon="10.2177781"><ele>329.0</ele><time>2026-04-24T16:08:17.212Z</time></trkpt><trkpt lat="44.6548549" lon="10.2179693"><ele>329.25</ele><time>2026-04-24T16:08:18.212Z</time></trkpt><trkpt lat="44.6548239" lon="10.2181787"><ele>329.5</ele><time>2026-04-24T16:08:19.212Z</time></trkpt><trkpt lat="44.6547879" lon="10.218379"><ele>329.75</ele><time>2026-04-24T16:08:20.212Z</time></trkpt><trkpt lat="44.6547746" lon="10.2185551"><ele>330.0</ele><time>2026-04-24T16:08:21.212Z</time></trkpt><trkpt lat="44.6547766" lon="10.2187357"><ele>330.0</ele><time>2026-04-24T16:08:22.212Z</time></trkpt><trkpt lat="44.6547832" lon="10.2189215"><ele>330.0</ele><time>2026-04-24T16:08:23.212Z</time></trkpt><trkpt lat="44.6547969" lon="10.2191029"><ele>330.0</ele><time>2026-04-24T16:08:24.212Z</time></trkpt><trkpt lat="44.6548038" lon="10.2192929"><ele>330.0</ele><time>2026-04-24T16:08:25.211Z</time></trkpt><trkpt lat="44.6547922" lon="10.219482"><ele>332.0</ele><time>2026-04-24T16:08:26.212Z</time></trkpt><trkpt lat="44.6547636" lon="10.2196676"><ele>334.0</ele><time>2026-04-24T16:08:27.212Z</time></trkpt><trkpt lat="44.6547237" lon="10.2198441"><ele>336.0</ele><time>2026-04-24T16:08:28.212Z</time></trkpt><trkpt lat="44.6546818" lon="10.2200273"><ele>338.0</ele><time>2026-04-24T16:08:29.213Z</time></trkpt><trkpt lat="44.6546457" lon="10.2202117"><ele>339.25</ele><time>2026-04-24T16:08:30.212Z</time></trkpt><trkpt lat="44.6546166" lon="10.2203815"><ele>340.5</ele><time>2026-04-24T16:08:31.211Z</time></trkpt><trkpt lat="44.654594" lon="10.2205501"><ele>341.75</ele><time>2026-04-24T16:08:32.212Z</time></trkpt><trkpt lat="44.6545668" lon="10.2207349"><ele>343.0</ele><time>2026-04-24T16:08:33.212Z</time></trkpt><trkpt lat="44.6545431" lon="10.2209229"><ele>343.5</ele><time>2026-04-24T16:08:34.212Z</time></trkpt><trkpt lat="44.6545214" lon="10.2211322"><ele>344.0</ele><time>2026-04-24T16:08:35.211Z</time></trkpt><trkpt lat="44.6545003" lon="10.2213339"><ele>344.5</ele><time>2026-04-24T16:08:36.212Z</time></trkpt><trkpt lat="44.6544771" lon="10.2215169"><ele>345.0</ele><time>2026-04-24T16:08:37.211Z</time></trkpt><trkpt lat="44.6544488" lon="10.2216734"><ele>346.8</ele><time>2026-04-24T16:08:38.212Z</time></trkpt><trkpt lat="44.6544086" lon="10.2218069"><ele>348.6</ele><time>2026-04-24T16:08:39.211Z</time></trkpt><trkpt lat="44.6543406" lon="10.2218889"><ele>350.4</ele><time>2026-04-24T16:08:40.211Z</time></trkpt><trkpt lat="44.6542625" lon="10.2219326"><ele>352.2</ele><time>2026-04-24T16:08:41.213Z</time></trkpt><trkpt lat="44.6541619" lon="10.2219535"><ele>354.0</ele><time>2026-04-24T16:08:42.212Z</time></trkpt><trkpt lat="44.6540341" lon="10.2219562"><ele>354.0</ele><time>2026-04-24T16:08:43.212Z</time></trkpt><trkpt lat="44.6538817" lon="10.2219385"><ele>354.0</ele><time>2026-04-24T16:08:44.212Z</time></trkpt><trkpt lat="44.6537386" lon="10.2218944"><ele>354.0</ele><time>2026-04-24T16:08:45.211Z</time></trkpt><trkpt lat="44.6536044" lon="10.2218299"><ele>354.0</ele><time>2026-04-24T16:08:46.212Z</time></trkpt><trkpt lat="44.6534861" lon="10.221747"><ele>351.25</ele><time>2026-04-24T16:08:47.211Z</time></trkpt><trkpt lat="44.6533863" lon="10.2216304"><ele>348.5</ele><time>2026-04-24T16:08:48.212Z</time></trkpt><trkpt lat="44.6532844" lon="10.2215336"><ele>345.75</ele><time>2026-04-24T16:08:49.211Z</time></trkpt><trkpt lat="44.6531833" lon="10.221483"><ele>343.0</ele><time>2026-04-24T16:08:50.213Z</time></trkpt><trkpt lat="44.6530952" lon="10.221426"><ele>347.0</ele><time>2026-04-24T16:08:51.213Z</time></trkpt><trkpt lat="44.6530084" lon="10.2215103"><ele>351.0</ele><time>2026-04-24T16:08:52.212Z</time></trkpt><trkpt lat="44.6529255" lon="10.2215675"><ele>355.0</ele><time>2026-04-24T16:08:53.211Z</time></trkpt><trkpt lat="44.6528473" lon="10.2216434"><ele>359.0</ele><time>2026-04-24T16:08:54.212Z</time></trkpt><trkpt lat="44.6527679" lon="10.2216759"><ele>363.0</ele><time>2026-04-24T16:08:55.212Z</time></trkpt><trkpt lat="44.6526978" lon="10.2216448"><ele>367.0</ele><time>2026-04-24T16:08:56.212Z</time></trkpt><trkpt lat="44.6526315" lon="10.2215595"><ele>368.0</ele><time>2026-04-24T16:08:57.211Z</time></trkpt><trkpt lat="44.6525659" lon="10.2214723"><ele>369.0</ele><time>2026-04-24T16:08:58.212Z</time></trkpt><trkpt lat="44.652489" lon="10.2214414"><ele>370.0</ele><time>2026-04-24T16:08:59.212Z</time></trkpt><trkpt lat="44.6524029" lon="10.221461"><ele>371.0</ele><time>2026-04-24T16:09:00.211Z</time></trkpt><trkpt lat="44.6523157" lon="10.2215338"><ele>372.0</ele><time>2026-04-24T16:09:01.213Z</time></trkpt><trkpt lat="44.6522241" lon="10.2216379"><ele>372.0</ele><time>2026-04-24T16:09:02.213Z</time></trkpt><trkpt lat="44.6521277" lon="10.2217595"><ele>372.0</ele><time>2026-04-24T16:09:03.213Z</time></trkpt><trkpt lat="44.6520328" lon="10.2218939"><ele>372.0</ele><time>2026-04-24T16:09:04.213Z</time></trkpt><trkpt lat="44.6519492" lon="10.2220342"><ele>372.0</ele><time>2026-04-24T16:09:05.212Z</time></trkpt><trkpt lat="44.6518806" lon="10.2221553"><ele>371.3333333333333</ele><time>2026-04-24T16:09:06.212Z</time></trkpt><trkpt lat="44.6518241" lon="10.2222582"><ele>370.6666666666667</ele><time>2026-04-24T16:09:07.213Z</time></trkpt><trkpt lat="44.6517734" lon="10.2223532"><ele>370.0</ele><time>2026-04-24T16:09:08.213Z</time></trkpt><trkpt lat="44.6517281" lon="10.2224375"><ele>369.33333333333337</ele><time>2026-04-24T16:09:09.213Z</time></trkpt><trkpt lat="44.6516813" lon="10.222515"><ele>368.6666666666667</ele><time>2026-04-24T16:09:10.212Z</time></trkpt><trkpt lat="44.6516233" lon="10.2225774"><ele>368.0</ele><time>2026-04-24T16:09:11.212Z</time></trkpt><trkpt lat="44.6515519" lon="10.2226051"><ele>371.0</ele><time>2026-04-24T16:09:12.212Z</time></trkpt><trkpt lat="44.6514894" lon="10.2226433"><ele>374.0</ele><time>2026-04-24T16:09:13.212Z</time></trkpt><trkpt lat="44.6513489" lon="10.222606"><ele>377.0</ele><time>2026-04-24T16:09:14.212Z</time></trkpt><trkpt lat="44.6512255" lon="10.2225816"><ele>380.0</ele><time>2026-04-24T16:09:15.211Z</time></trkpt><trkpt lat="44.651094" lon="10.2225534"><ele>381.33333333333337</ele><time>2026-04-24T16:09:16.211Z</time></trkpt><trkpt lat="44.6509491" lon="10.2224997"><ele>382.6666666666667</ele><time>2026-04-24T16:09:17.212Z</time></trkpt><trkpt lat="44.6508068" lon="10.2224174"><ele>384.0</ele><time>2026-04-24T16:09:18.211Z</time></trkpt><trkpt lat="44.6506623" lon="10.2223194"><ele>382.3333333333333</ele><time>2026-04-24T16:09:19.211Z</time></trkpt><trkpt lat="44.6505156" lon="10.2222246"><ele>380.66666666666663</ele><time>2026-04-24T16:09:20.213Z</time></trkpt><trkpt lat="44.6503667" lon="10.2221297"><ele>379.0</ele><time>2026-04-24T16:09:21.212Z</time></trkpt><trkpt lat="44.6502202" lon="10.2220399"><ele>381.75</ele><time>2026-04-24T16:09:22.212Z</time></trkpt><trkpt lat="44.6500786" lon="10.2219557"><ele>384.5</ele><time>2026-04-24T16:09:23.213Z</time></trkpt><trkpt lat="44.6499576" lon="10.2218859"><ele>387.25</ele><time>2026-04-24T16:09:24.213Z</time></trkpt><trkpt lat="44.6498447" lon="10.2218356"><ele>390.0</ele><time>2026-04-24T16:09:25.213Z</time></trkpt><trkpt lat="44.6497291" lon="10.2217763"><ele>390.0</ele><time>2026-04-24T16:09:26.213Z</time></trkpt><trkpt lat="44.6496219" lon="10.2217242"><ele>390.0</ele><time>2026-04-24T16:09:27.212Z</time></trkpt><trkpt lat="44.6495096" lon="10.22166"><ele>390.0</ele><time>2026-04-24T16:09:28.212Z</time></trkpt><trkpt lat="44.6493661" lon="10.2216149"><ele>390.0</ele><time>2026-04-24T16:09:29.211Z</time></trkpt><trkpt lat="44.6492308" lon="10.2215919"><ele>391.8</ele><time>2026-04-24T16:09:30.213Z</time></trkpt><trkpt lat="44.6491038" lon="10.2215636"><ele>393.6</ele><time>2026-04-24T16:09:31.212Z</time></trkpt><trkpt lat="44.6489968" lon="10.2215582"><ele>395.4</ele><time>2026-04-24T16:09:32.212Z</time></trkpt><trkpt lat="44.6489098" lon="10.2215712"><ele>397.2</ele><time>2026-04-24T16:09:33.211Z</time></trkpt><trkpt lat="44.6488329" lon="10.221603"><ele>399.0</ele><time>2026-04-24T16:09:34.213Z</time></trkpt><trkpt lat="44.6487789" lon="10.221662"><ele>399.0</ele><time>2026-04-24T16:09:35.211Z</time></trkpt><trkpt lat="44.6487385" lon="10.2217591"><ele>399.0</ele><time>2026-04-24T16:09:36.211Z</time></trkpt><trkpt lat="44.6487112" lon="10.2218628"><ele>399.0</ele><time>2026-04-24T16:09:37.213Z</time></trkpt><trkpt lat="44.6486748" lon="10.2219796"><ele>399.0</ele><time>2026-04-24T16:09:38.212Z</time></trkpt><trkpt lat="44.6486253" lon="10.2221051"><ele>399.0</ele><time>2026-04-24T16:09:39.212Z</time></trkpt><trkpt lat="44.6485531" lon="10.2222184"><ele>399.75</ele><time>2026-04-24T16:09:40.212Z</time></trkpt><trkpt lat="44.6484579" lon="10.2223264"><ele>400.5</ele><time>2026-04-24T16:09:41.211Z</time></trkpt><trkpt lat="44.6483553" lon="10.2224294"><ele>401.25</ele><time>2026-04-24T16:09:42.211Z</time></trkpt><trkpt lat="44.6482491" lon="10.2225481"><ele>402.0</ele><time>2026-04-24T16:09:43.211Z</time></trkpt><trkpt lat="44.6481425" lon="10.2226768"><ele>402.0</ele><time>2026-04-24T16:09:44.212Z</time></trkpt><trkpt lat="44.6480353" lon="10.2228106"><ele>402.0</ele><time>2026-04-24T16:09:45.212Z</time></trkpt><trkpt lat="44.6479285" lon="10.2229444"><ele>402.0</ele><time>2026-04-24T16:09:46.211Z</time></trkpt><trkpt lat="44.6478174" lon="10.2230541"><ele>402.0</ele><time>2026-04-24T16:09:47.212Z</time></trkpt><trkpt lat="44.6476872" lon="10.2231231"><ele>403.5</ele><time>2026-04-24T16:09:48.212Z</time></trkpt><trkpt lat="44.6475531" lon="10.2231892"><ele>405.0</ele><time>2026-04-24T16:09:49.211Z</time></trkpt><trkpt lat="44.6474199" lon="10.2232574"><ele>406.5</ele><time>2026-04-24T16:09:50.212Z</time></trkpt><trkpt lat="44.6472856" lon="10.2233117"><ele>408.0</ele><time>2026-04-24T16:09:51.212Z</time></trkpt><trkpt lat="44.6471426" lon="10.2233536"><ele>408.0</ele><time>2026-04-24T16:09:52.212Z</time></trkpt><trkpt lat="44.6470019" lon="10.2234105"><ele>408.0</ele><time>2026-04-24T16:09:53.212Z</time></trkpt><trkpt lat="44.6468632" lon="10.2234876"><ele>408.0</ele><time>2026-04-24T16:09:54.213Z</time></trkpt><trkpt lat="44.6467232" lon="10.223563"><ele>408.0</ele><time>2026-04-24T16:09:55.213Z</time></trkpt><trkpt lat="44.6465855" lon="10.2236269"><ele>407.25</ele><time>2026-04-24T16:09:56.212Z</time></trkpt><trkpt lat="44.6464469" lon="10.2236621"><ele>406.5</ele><time>2026-04-24T16:09:57.212Z</time></trkpt><trkpt lat="44.6463115" lon="10.2236778"><ele>405.75</ele><time>2026-04-24T16:09:58.211Z</time></trkpt><trkpt lat="44.6461782" lon="10.2236749"><ele>405.0</ele><time>2026-04-24T16:09:59.212Z</time></trkpt><trkpt lat="44.6460496" lon="10.2236669"><ele>403.75</ele><time>2026-04-24T16:10:00.213Z</time></trkpt><trkpt lat="44.6459191" lon="10.2236611"><ele>402.5</ele><time>2026-04-24T16:10:01.213Z</time></trkpt><trkpt lat="44.6457903" lon="10.223667"><ele>401.25</ele><time>2026-04-24T16:10:02.212Z</time></trkpt><trkpt lat="44.6456707" lon="10.2236766"><ele>400.0</ele><time>2026-04-24T16:10:03.211Z</time></trkpt><trkpt lat="44.6455583" lon="10.2237076"><ele>400.0</ele><time>2026-04-24T16:10:04.212Z</time></trkpt><trkpt lat="44.6454521" lon="10.2237695"><ele>400.0</ele><time>2026-04-24T16:10:05.212Z</time></trkpt><trkpt lat="44.645346" lon="10.2238438"><ele>400.0</ele><time>2026-04-24T16:10:06.213Z</time></trkpt><trkpt lat="44.645242" lon="10.2239137"><ele>400.0</ele><time>2026-04-24T16:10:07.211Z</time></trkpt><trkpt lat="44.645131" lon="10.2239799"><ele>404.0</ele><time>2026-04-24T16:10:08.212Z</time></trkpt><trkpt lat="44.6450163" lon="10.2240394"><ele>408.0</ele><time>2026-04-24T16:10:09.212Z</time></trkpt><trkpt lat="44.6448949" lon="10.2240897"><ele>412.0</ele><time>2026-04-24T16:10:10.213Z</time></trkpt><trkpt lat="44.644764" lon="10.2241296"><ele>416.0</ele><time>2026-04-24T16:10:11.213Z</time></trkpt><trkpt lat="44.6446387" lon="10.2241851"><ele>416.0</ele><time>2026-04-24T16:10:12.211Z</time></trkpt><trkpt lat="44.6445176" lon="10.2242642"><ele>416.0</ele><time>2026-04-24T16:10:13.212Z</time></trkpt><trkpt lat="44.6443991" lon="10.2243731"><ele>416.0</ele><time>2026-04-24T16:10:14.211Z</time></trkpt><trkpt lat="44.6442825" lon="10.2245079"><ele>416.0</ele><time>2026-04-24T16:10:15.211Z</time></trkpt><trkpt lat="44.644165" lon="10.2246521"><ele>415.66666666666663</ele><time>2026-04-24T16:10:16.211Z</time></trkpt><trkpt lat="44.6440425" lon="10.2247958"><ele>415.33333333333337</ele><time>2026-04-24T16:10:17.212Z</time></trkpt><trkpt lat="44.64392" lon="10.224944"><ele>415.0</ele><time>2026-04-24T16:10:18.212Z</time></trkpt><trkpt lat="44.643797" lon="10.2250851"><ele>415.0</ele><time>2026-04-24T16:10:19.212Z</time></trkpt><trkpt lat="44.6436835" lon="10.2252125"><ele>415.0</ele><time>2026-04-24T16:10:20.211Z</time></trkpt><trkpt lat="44.6435729" lon="10.2253365"><ele>415.0</ele><time>2026-04-24T16:10:21.213Z</time></trkpt><trkpt lat="44.6434575" lon="10.2254691"><ele>415.0</ele><time>2026-04-24T16:10:22.212Z</time></trkpt><trkpt lat="44.6433423" lon="10.225601"><ele>414.75</ele><time>2026-04-24T16:10:23.213Z</time></trkpt><trkpt lat="44.643226" lon="10.2257286"><ele>414.5</ele><time>2026-04-24T16:10:24.212Z</time></trkpt><trkpt lat="44.643116" lon="10.2258512"><ele>414.25</ele><time>2026-04-24T16:10:25.211Z</time></trkpt><trkpt lat="44.6429995" lon="10.2259788"><ele>414.0</ele><time>2026-04-24T16:10:26.211Z</time></trkpt><trkpt lat="44.6428816" lon="10.2260889"><ele>416.33333333333337</ele><time>2026-04-24T16:10:27.212Z</time></trkpt><trkpt lat="44.6427475" lon="10.2261803"><ele>418.6666666666667</ele><time>2026-04-24T16:10:28.21Z</time></trkpt><trkpt lat="44.6426008" lon="10.2262371"><ele>421.0</ele><time>2026-04-24T16:10:29.211Z</time></trkpt><trkpt lat="44.6424464" lon="10.2262722"><ele>421.0</ele><time>2026-04-24T16:10:30.211Z</time></trkpt><trkpt lat="44.6422846" lon="10.2263067"><ele>421.0</ele><time>2026-04-24T16:10:31.211Z</time></trkpt><trkpt lat="44.6421156" lon="10.2263491"><ele>421.0</ele><time>2026-04-24T16:10:32.211Z</time></trkpt><trkpt lat="44.6419386" lon="10.2263877"><ele>419.0</ele><time>2026-04-24T16:10:33.21Z</time></trkpt><trkpt lat="44.6417509" lon="10.2264073"><ele>417.0</ele><time>2026-04-24T16:10:34.212Z</time></trkpt><trkpt lat="44.6415608" lon="10.2264083"><ele>415.0</ele><time>2026-04-24T16:10:35.212Z</time></trkpt><trkpt lat="44.6413708" lon="10.2263852"><ele>415.0</ele><time>2026-04-24T16:10:36.211Z</time></trkpt><trkpt lat="44.6411791" lon="10.2263634"><ele>415.0</ele><time>2026-04-24T16:10:37.211Z</time></trkpt><trkpt lat="44.6409876" lon="10.2263625"><ele>415.0</ele><time>2026-04-24T16:10:38.211Z</time></trkpt><trkpt lat="44.6407993" lon="10.2263835"><ele>416.0</ele><time>2026-04-24T16:10:39.212Z</time></trkpt><trkpt lat="44.6406172" lon="10.2264148"><ele>417.0</ele><time>2026-04-24T16:10:40.211Z</time></trkpt><trkpt lat="44.6404394" lon="10.2264517"><ele>418.0</ele><time>2026-04-24T16:10:41.212Z</time></trkpt><trkpt lat="44.6402626" lon="10.226483"><ele>422.33333333333337</ele><time>2026-04-24T16:10:42.212Z</time></trkpt><trkpt lat="44.6400915" lon="10.2265068"><ele>426.66666666666663</ele><time>2026-04-24T16:10:43.211Z</time></trkpt><trkpt lat="44.6399155" lon="10.2265282"><ele>431.0</ele><time>2026-04-24T16:10:44.212Z</time></trkpt><trkpt lat="44.6397381" lon="10.2265546"><ele>431.0</ele><time>2026-04-24T16:10:45.212Z</time></trkpt><trkpt lat="44.6395606" lon="10.2265864"><ele>431.0</ele><time>2026-04-24T16:10:46.212Z</time></trkpt><trkpt lat="44.6393815" lon="10.2266297"><ele>431.0</ele><time>2026-04-24T16:10:47.21Z</time></trkpt><trkpt lat="44.6392012" lon="10.2266827"><ele>433.0</ele><time>2026-04-24T16:10:48.211Z</time></trkpt><trkpt lat="44.6390218" lon="10.2267434"><ele>435.0</ele><time>2026-04-24T16:10:49.21Z</time></trkpt><trkpt lat="44.6388395" lon="10.2268003"><ele>437.0</ele><time>2026-04-24T16:10:50.211Z</time></trkpt><trkpt lat="44.6386638" lon="10.2268529"><ele>437.3333333333333</ele><time>2026-04-24T16:10:51.211Z</time></trkpt><trkpt lat="44.6385031" lon="10.226885"><ele>437.66666666666663</ele><time>2026-04-24T16:10:52.211Z</time></trkpt><trkpt lat="44.6383526" lon="10.2268831"><ele>438.0</ele><time>2026-04-24T16:10:53.211Z</time></trkpt><trkpt lat="44.6382148" lon="10.2268554"><ele>438.0</ele><time>2026-04-24T16:10:54.211Z</time></trkpt><trkpt lat="44.6380721" lon="10.2268211"><ele>438.0</ele><time>2026-04-24T16:10:55.211Z</time></trkpt><trkpt lat="44.6379151" lon="10.2267892"><ele>438.0</ele><time>2026-04-24T16:10:56.211Z</time></trkpt><trkpt lat="44.6377402" lon="10.2267531"><ele>439.0</ele><time>2026-04-24T16:10:57.21Z</time></trkpt><trkpt lat="44.6375741" lon="10.2267242"><ele>440.0</ele><time>2026-04-24T16:10:58.21Z</time></trkpt><trkpt lat="44.6374134" lon="10.2266979"><ele>441.0</ele><time>2026-04-24T16:10:59.211Z</time></trkpt><trkpt lat="44.6372492" lon="10.2266706"><ele>441.0</ele><time>2026-04-24T16:11:00.211Z</time></trkpt><trkpt lat="44.6371047" lon="10.2266409"><ele>441.0</ele><time>2026-04-24T16:11:01.211Z</time></trkpt><trkpt lat="44.6369851" lon="10.2266105"><ele>441.0</ele><time>2026-04-24T16:11:02.212Z</time></trkpt><trkpt lat="44.6368793" lon="10.2265815"><ele>441.0</ele><time>2026-04-24T16:11:03.212Z</time></trkpt><trkpt lat="44.6367906" lon="10.2265533"><ele>442.0</ele><time>2026-04-24T16:11:04.211Z</time></trkpt><trkpt lat="44.6367156" lon="10.226523"><ele>443.0</ele><time>2026-04-24T16:11:05.211Z</time></trkpt><trkpt lat="44.6366501" lon="10.2265154"><ele>444.0</ele><time>2026-04-24T16:11:06.21Z</time></trkpt><trkpt lat="44.6365689" lon="10.2266085"><ele>445.0</ele><time>2026-04-24T16:11:08.21Z</time></trkpt><trkpt lat="44.6365192" lon="10.2267166"><ele>446.0</ele><time>2026-04-24T16:11:10.212Z</time></trkpt><trkpt lat="44.6364772" lon="10.2268077"><ele>447.0</ele><time>2026-04-24T16:11:12.211Z</time></trkpt><trkpt lat="44.6365247" lon="10.2267444"><ele>447.0</ele><time>2026-04-24T16:11:55.21Z</time></trkpt><trkpt lat="44.6365603" lon="10.2266626"><ele>447.0</ele><time>2026-04-24T16:11:56.211Z</time></trkpt><trkpt lat="44.6366046" lon="10.2265971"><ele>447.0</ele><time>2026-04-24T16:11:57.211Z</time></trkpt><trkpt lat="44.6366631" lon="10.2265621"><ele>447.0</ele><time>2026-04-24T16:11:58.21Z</time></trkpt><trkpt lat="44.6367453" lon="10.2265646"><ele>447.0</ele><time>2026-04-24T16:11:59.211Z</time></trkpt><trkpt lat="44.6368439" lon="10.2265883"><ele>447.0</ele><time>2026-04-24T16:12:00.21Z</time></trkpt><trkpt lat="44.636962" lon="10.2266141"><ele>445.0</ele><time>2026-04-24T16:12:01.211Z</time></trkpt><trkpt lat="44.6371041" lon="10.2266469"><ele>443.0</ele><time>2026-04-24T16:12:02.21Z</time></trkpt><trkpt lat="44.6372488" lon="10.2266723"><ele>441.0</ele><time>2026-04-24T16:12:03.21Z</time></trkpt><trkpt lat="44.6374075" lon="10.2267011"><ele>441.0</ele><time>2026-04-24T16:12:04.211Z</time></trkpt><trkpt lat="44.6375693" lon="10.2267198"><ele>441.0</ele><time>2026-04-24T16:12:05.21Z</time></trkpt><trkpt lat="44.6377423" lon="10.2267512"><ele>441.0</ele><time>2026-04-24T16:12:06.21Z</time></trkpt><trkpt lat="44.6379137" lon="10.2267898"><ele>440.0</ele><time>2026-04-24T16:12:07.211Z</time></trkpt><trkpt lat="44.6380866" lon="10.2268391"><ele>439.0</ele><time>2026-04-24T16:12:08.211Z</time></trkpt><trkpt lat="44.6382513" lon="10.2268806"><ele>438.0</ele><time>2026-04-24T16:12:09.21Z</time></trkpt><trkpt lat="44.6384216" lon="10.2268969"><ele>438.0</ele><time>2026-04-24T16:12:10.211Z</time></trkpt><trkpt lat="44.6386032" lon="10.2268647"><ele>438.0</ele><time>2026-04-24T16:12:11.21Z</time></trkpt><trkpt lat="44.6388002" lon="10.2268092"><ele>438.0</ele><time>2026-04-24T16:12:12.211Z</time></trkpt><trkpt lat="44.6390096" lon="10.2267447"><ele>437.5</ele><time>2026-04-24T16:12:13.211Z</time></trkpt><trkpt lat="44.6392285" lon="10.2266801"><ele>437.0</ele><time>2026-04-24T16:12:14.212Z</time></trkpt><trkpt lat="44.6394523" lon="10.2266211"><ele>434.0</ele><time>2026-04-24T16:12:15.212Z</time></trkpt><trkpt lat="44.6396734" lon="10.2265794"><ele>431.0</ele><time>2026-04-24T16:12:16.212Z</time></trkpt><trkpt lat="44.6399005" lon="10.2265484"><ele>431.0</ele><time>2026-04-24T16:12:17.212Z</time></trkpt><trkpt lat="44.6401296" lon="10.2265178"><ele>431.0</ele><time>2026-04-24T16:12:18.21Z</time></trkpt><trkpt lat="44.6403531" lon="10.226479"><ele>424.5</ele><time>2026-04-24T16:12:19.211Z</time></trkpt><trkpt lat="44.6405778" lon="10.2264377"><ele>418.0</ele><time>2026-04-24T16:12:20.211Z</time></trkpt><trkpt lat="44.6408037" lon="10.2263983"><ele>418.0</ele><time>2026-04-24T16:12:21.211Z</time></trkpt><trkpt lat="44.6410322" lon="10.2263755"><ele>418.0</ele><time>2026-04-24T16:12:22.21Z</time></trkpt><trkpt lat="44.6412552" lon="10.226388"><ele>417.0</ele><time>2026-04-24T16:12:23.21Z</time></trkpt><trkpt lat="44.6414642" lon="10.2264115"><ele>416.0</ele><time>2026-04-24T16:12:24.21Z</time></trkpt><trkpt lat="44.6416776" lon="10.226427"><ele>415.0</ele><time>2026-04-24T16:12:25.211Z</time></trkpt><trkpt lat="44.6418825" lon="10.2264085"><ele>417.0</ele><time>2026-04-24T16:12:26.21Z</time></trkpt><trkpt lat="44.6420925" lon="10.2263584"><ele>419.0</ele><time>2026-04-24T16:12:27.211Z</time></trkpt><trkpt lat="44.6422959" lon="10.2263186"><ele>421.0</ele><time>2026-04-24T16:12:28.211Z</time></trkpt><trkpt lat="44.6424752" lon="10.226283"><ele>421.0</ele><time>2026-04-24T16:12:29.212Z</time></trkpt><trkpt lat="44.6426392" lon="10.2262334"><ele>421.0</ele><time>2026-04-24T16:12:30.212Z</time></trkpt><trkpt lat="44.6428018" lon="10.2261399"><ele>421.0</ele><time>2026-04-24T16:12:31.211Z</time></trkpt><trkpt lat="44.6429672" lon="10.2259969"><ele>418.6666666666667</ele><time>2026-04-24T16:12:32.212Z</time></trkpt><trkpt lat="44.6431368" lon="10.2258147"><ele>416.33333333333337</ele><time>2026-04-24T16:12:33.212Z</time></trkpt><trkpt lat="44.643316" lon="10.2256135"><ele>414.0</ele><time>2026-04-24T16:12:34.21Z</time></trkpt><trkpt lat="44.643503" lon="10.2254051"><ele>414.5</ele><time>2026-04-24T16:12:35.211Z</time></trkpt><trkpt lat="44.643691" lon="10.2251882"><ele>415.0</ele><time>2026-04-24T16:12:36.21Z</time></trkpt><trkpt lat="44.643865" lon="10.2249836"><ele>415.0</ele><time>2026-04-24T16:12:37.21Z</time></trkpt><trkpt lat="44.6440262" lon="10.2247944"><ele>415.0</ele><time>2026-04-24T16:12:38.211Z</time></trkpt><trkpt lat="44.644173" lon="10.224618"><ele>415.0</ele><time>2026-04-24T16:12:39.211Z</time></trkpt><trkpt lat="44.6443127" lon="10.2244493"><ele>415.0</ele><time>2026-04-24T16:12:40.211Z</time></trkpt><trkpt lat="44.6444408" lon="10.224309"><ele>415.0</ele><time>2026-04-24T16:12:41.211Z</time></trkpt><trkpt lat="44.6445817" lon="10.224214"><ele>415.0</ele><time>2026-04-24T16:12:42.211Z</time></trkpt><trkpt lat="44.6447393" lon="10.2241515"><ele>415.33333333333337</ele><time>2026-04-24T16:12:43.211Z</time></trkpt><trkpt lat="44.6449062" lon="10.2240916"><ele>415.66666666666663</ele><time>2026-04-24T16:12:44.211Z</time></trkpt><trkpt lat="44.6450691" lon="10.2240061"><ele>416.0</ele><time>2026-04-24T16:12:45.21Z</time></trkpt><trkpt lat="44.6452173" lon="10.2239032"><ele>410.66666666666663</ele><time>2026-04-24T16:12:46.211Z</time></trkpt><trkpt lat="44.6453629" lon="10.2238061"><ele>405.33333333333337</ele><time>2026-04-24T16:12:47.21Z</time></trkpt><trkpt lat="44.6455085" lon="10.2237271"><ele>400.0</ele><time>2026-04-24T16:12:48.211Z</time></trkpt><trkpt lat="44.6456691" lon="10.2236783"><ele>400.0</ele><time>2026-04-24T16:12:49.211Z</time></trkpt><trkpt lat="44.6458463" lon="10.223668"><ele>400.0</ele><time>2026-04-24T16:12:50.21Z</time></trkpt><trkpt lat="44.6460329" lon="10.2236814"><ele>400.0</ele><time>2026-04-24T16:12:51.21Z</time></trkpt><trkpt lat="44.6462284" lon="10.2236784"><ele>401.6666666666667</ele><time>2026-04-24T16:12:52.211Z</time></trkpt><trkpt lat="44.6464322" lon="10.2236521"><ele>403.33333333333337</ele><time>2026-04-24T16:12:53.211Z</time></trkpt><trkpt lat="44.6466379" lon="10.2235878"><ele>405.0</ele><time>2026-04-24T16:12:54.211Z</time></trkpt><trkpt lat="44.6468401" lon="10.223497"><ele>406.0</ele><time>2026-04-24T16:12:55.211Z</time></trkpt><trkpt lat="44.6470372" lon="10.2234107"><ele>407.0</ele><time>2026-04-24T16:12:56.211Z</time></trkpt><trkpt lat="44.6472149" lon="10.2233508"><ele>408.0</ele><time>2026-04-24T16:12:57.21Z</time></trkpt><trkpt lat="44.6473796" lon="10.2232719"><ele>408.0</ele><time>2026-04-24T16:12:58.211Z</time></trkpt><trkpt lat="44.6475489" lon="10.2231913"><ele>408.0</ele><time>2026-04-24T16:12:59.211Z</time></trkpt><trkpt lat="44.6476918" lon="10.2231235"><ele>408.0</ele><time>2026-04-24T16:13:00.211Z</time></trkpt><trkpt lat="44.6478253" lon="10.2230464"><ele>406.0</ele><time>2026-04-24T16:13:01.212Z</time></trkpt><trkpt lat="44.6479573" lon="10.2229135"><ele>404.0</ele><time>2026-04-24T16:13:02.21Z</time></trkpt><trkpt lat="44.6480899" lon="10.2227537"><ele>402.0</ele><time>2026-04-24T16:13:03.211Z</time></trkpt><trkpt lat="44.6482311" lon="10.2225903"><ele>402.0</ele><time>2026-04-24T16:13:04.211Z</time></trkpt><trkpt lat="44.6483742" lon="10.2224371"><ele>402.0</ele><time>2026-04-24T16:13:05.211Z</time></trkpt><trkpt lat="44.6484985" lon="10.2223067"><ele>402.0</ele><time>2026-04-24T16:13:06.21Z</time></trkpt><trkpt lat="44.6485926" lon="10.2221723"><ele>401.25</ele><time>2026-04-24T16:13:07.211Z</time></trkpt><trkpt lat="44.6486597" lon="10.2220201"><ele>400.5</ele><time>2026-04-24T16:13:08.211Z</time></trkpt><trkpt lat="44.6487088" lon="10.2218527"><ele>399.75</ele><time>2026-04-24T16:13:09.211Z</time></trkpt><trkpt lat="44.6487694" lon="10.2217113"><ele>399.0</ele><time>2026-04-24T16:13:10.211Z</time></trkpt><trkpt lat="44.648844" lon="10.2216265"><ele>399.0</ele><time>2026-04-24T16:13:11.211Z</time></trkpt><trkpt lat="44.6489269" lon="10.2215889"><ele>399.0</ele><time>2026-04-24T16:13:12.21Z</time></trkpt><trkpt lat="44.6490288" lon="10.2215865"><ele>399.0</ele><time>2026-04-24T16:13:13.21Z</time></trkpt><trkpt lat="44.6491643" lon="10.2216031"><ele>399.0</ele><time>2026-04-24T16:13:14.211Z</time></trkpt><trkpt lat="44.6493242" lon="10.2216253"><ele>396.0</ele><time>2026-04-24T16:13:15.212Z</time></trkpt><trkpt lat="44.6494935" lon="10.2216748"><ele>393.0</ele><time>2026-04-24T16:13:16.212Z</time></trkpt><trkpt lat="44.6496632" lon="10.221754"><ele>390.0</ele><time>2026-04-24T16:13:17.212Z</time></trkpt><trkpt lat="44.6498241" lon="10.2218289"><ele>390.0</ele><time>2026-04-24T16:13:18.212Z</time></trkpt><trkpt lat="44.6499882" lon="10.2219012"><ele>390.0</ele><time>2026-04-24T16:13:19.21Z</time></trkpt><trkpt lat="44.6501476" lon="10.2219882"><ele>390.0</ele><time>2026-04-24T16:13:20.211Z</time></trkpt><trkpt lat="44.6503011" lon="10.2220734"><ele>388.0</ele><time>2026-04-24T16:13:21.21Z</time></trkpt><trkpt lat="44.6504712" lon="10.2221814"><ele>386.0</ele><time>2026-04-24T16:13:22.211Z</time></trkpt><trkpt lat="44.6506367" lon="10.222278"><ele>384.0</ele><time>2026-04-24T16:13:23.211Z</time></trkpt><trkpt lat="44.6507953" lon="10.2223746"><ele>384.0</ele><time>2026-04-24T16:13:24.211Z</time></trkpt><trkpt lat="44.6509704" lon="10.2224605"><ele>384.0</ele><time>2026-04-24T16:13:25.211Z</time></trkpt><trkpt lat="44.6511073" lon="10.2225528"><ele>384.0</ele><time>2026-04-24T16:13:26.21Z</time></trkpt><trkpt lat="44.651273" lon="10.2226251"><ele>383.0</ele><time>2026-04-24T16:13:27.21Z</time></trkpt><trkpt lat="44.6514449" lon="10.2226451"><ele>382.0</ele><time>2026-04-24T16:13:28.21Z</time></trkpt><trkpt lat="44.6515761" lon="10.2226595"><ele>381.0</ele><time>2026-04-24T16:13:29.21Z</time></trkpt><trkpt lat="44.651664" lon="10.2227232"><ele>380.0</ele><time>2026-04-24T16:13:30.211Z</time></trkpt><trkpt lat="44.651776" lon="10.2228351"><ele>380.0</ele><time>2026-04-24T16:13:31.211Z</time></trkpt><trkpt lat="44.6518828" lon="10.2229674"><ele>380.0</ele><time>2026-04-24T16:13:32.211Z</time></trkpt><trkpt lat="44.6519963" lon="10.2231281"><ele>380.0</ele><time>2026-04-24T16:13:33.211Z</time></trkpt><trkpt lat="44.6520972" lon="10.2233271"><ele>384.0</ele><time>2026-04-24T16:13:34.21Z</time></trkpt><trkpt lat="44.6521805" lon="10.223567"><ele>388.0</ele><time>2026-04-24T16:13:35.21Z</time></trkpt><trkpt lat="44.6522611" lon="10.2238042"><ele>392.0</ele><time>2026-04-24T16:13:36.211Z</time></trkpt><trkpt lat="44.6523403" lon="10.2240507"><ele>392.3333333333333</ele><time>2026-04-24T16:13:37.21Z</time></trkpt><trkpt lat="44.6524228" lon="10.2243002"><ele>392.66666666666663</ele><time>2026-04-24T16:13:38.212Z</time></trkpt><trkpt lat="44.6524981" lon="10.2245507"><ele>393.0</ele><time>2026-04-24T16:13:39.211Z</time></trkpt><trkpt lat="44.6525785" lon="10.2247717"><ele>391.75</ele><time>2026-04-24T16:13:40.211Z</time></trkpt><trkpt lat="44.6526432" lon="10.2249652"><ele>390.5</ele><time>2026-04-24T16:13:41.21Z</time></trkpt><trkpt lat="44.6527162" lon="10.2251022"><ele>389.25</ele><time>2026-04-24T16:13:42.211Z</time></trkpt><trkpt lat="44.6528008" lon="10.225183"><ele>388.0</ele><time>2026-04-24T16:13:43.211Z</time></trkpt><trkpt lat="44.6528987" lon="10.2252056"><ele>392.0</ele><time>2026-04-24T16:13:44.211Z</time></trkpt><trkpt lat="44.6530007" lon="10.2252058"><ele>396.0</ele><time>2026-04-24T16:13:45.21Z</time></trkpt><trkpt lat="44.653123" lon="10.2252166"><ele>400.0</ele><time>2026-04-24T16:13:46.212Z</time></trkpt><trkpt lat="44.6532625" lon="10.2252422"><ele>404.0</ele><time>2026-04-24T16:13:47.211Z</time></trkpt><trkpt lat="44.6534139" lon="10.2252812"><ele>404.0</ele><time>2026-04-24T16:13:48.211Z</time></trkpt><trkpt lat="44.6535591" lon="10.2253365"><ele>404.0</ele><time>2026-04-24T16:13:49.211Z</time></trkpt><trkpt lat="44.6537046" lon="10.2254298"><ele>404.0</ele><time>2026-04-24T16:13:50.21Z</time></trkpt><trkpt lat="44.6538473" lon="10.2255599"><ele>402.3333333333333</ele><time>2026-04-24T16:13:51.21Z</time></trkpt><trkpt lat="44.6539894" lon="10.2257079"><ele>400.66666666666663</ele><time>2026-04-24T16:13:52.212Z</time></trkpt><trkpt lat="44.6541424" lon="10.2258713"><ele>399.0</ele><time>2026-04-24T16:13:53.21Z</time></trkpt><trkpt lat="44.6543038" lon="10.2260387"><ele>400.66666666666663</ele><time>2026-04-24T16:13:54.211Z</time></trkpt><trkpt lat="44.6544688" lon="10.2261979"><ele>402.3333333333333</ele><time>2026-04-24T16:13:55.211Z</time></trkpt><trkpt lat="44.6546314" lon="10.2263505"><ele>404.0</ele><time>2026-04-24T16:13:56.211Z</time></trkpt><trkpt lat="44.6547746" lon="10.2264919"><ele>404.0</ele><time>2026-04-24T16:13:57.212Z</time></trkpt><trkpt lat="44.6549095" lon="10.2266208"><ele>404.0</ele><time>2026-04-24T16:13:58.211Z</time></trkpt><trkpt lat="44.6550605" lon="10.2267482"><ele>404.0</ele><time>2026-04-24T16:13:59.21Z</time></trkpt><trkpt lat="44.6552318" lon="10.2268722"><ele>403.3333333333333</ele><time>2026-04-24T16:14:00.21Z</time></trkpt><trkpt lat="44.6554197" lon="10.2269793"><ele>402.66666666666663</ele><time>2026-04-24T16:14:01.21Z</time></trkpt><trkpt lat="44.6556154" lon="10.2270689"><ele>402.0</ele><time>2026-04-24T16:14:02.209Z</time></trkpt><trkpt lat="44.6558208" lon="10.2271532"><ele>402.0</ele><time>2026-04-24T16:14:03.21Z</time></trkpt><trkpt lat="44.656016" lon="10.2272278"><ele>402.0</ele><time>2026-04-24T16:14:04.211Z</time></trkpt><trkpt lat="44.6561915" lon="10.2272905"><ele>402.0</ele><time>2026-04-24T16:14:05.211Z</time></trkpt><trkpt lat="44.6563628" lon="10.2273527"><ele>405.33333333333337</ele><time>2026-04-24T16:14:06.209Z</time></trkpt><trkpt lat="44.6565363" lon="10.2274188"><ele>408.6666666666667</ele><time>2026-04-24T16:14:07.209Z</time></trkpt><trkpt lat="44.6567206" lon="10.2275023"><ele>412.0</ele><time>2026-04-24T16:14:08.21Z</time></trkpt><trkpt lat="44.656913" lon="10.2275905"><ele>413.0</ele><time>2026-04-24T16:14:09.209Z</time></trkpt><trkpt lat="44.6571152" lon="10.2276824"><ele>414.0</ele><time>2026-04-24T16:14:10.211Z</time></trkpt><trkpt lat="44.6573166" lon="10.2277741"><ele>415.0</ele><time>2026-04-24T16:14:11.21Z</time></trkpt><trkpt lat="44.657519" lon="10.2278698"><ele>415.0</ele><time>2026-04-24T16:14:12.209Z</time></trkpt><trkpt lat="44.6577226" lon="10.2279656"><ele>415.0</ele><time>2026-04-24T16:14:13.209Z</time></trkpt><trkpt lat="44.6579237" lon="10.2280593"><ele>415.0</ele><time>2026-04-24T16:14:14.209Z</time></trkpt><trkpt lat="44.6581233" lon="10.2281331"><ele>413.6666666666667</ele><time>2026-04-24T16:14:15.209Z</time></trkpt><trkpt lat="44.658314" lon="10.2281778"><ele>412.33333333333337</ele><time>2026-04-24T16:14:16.21Z</time></trkpt><trkpt lat="44.6584752" lon="10.2282083"><ele>411.0</ele><time>2026-04-24T16:14:17.211Z</time></trkpt><trkpt lat="44.6586238" lon="10.2282416"><ele>410.33333333333337</ele><time>2026-04-24T16:14:18.211Z</time></trkpt><trkpt lat="44.6587781" lon="10.2282994"><ele>409.6666666666667</ele><time>2026-04-24T16:14:19.209Z</time></trkpt><trkpt lat="44.6589422" lon="10.2283896"><ele>409.0</ele><time>2026-04-24T16:14:20.21Z</time></trkpt><trkpt lat="44.6591228" lon="10.2285008"><ele>409.0</ele><time>2026-04-24T16:14:21.21Z</time></trkpt><trkpt lat="44.6593074" lon="10.2286384"><ele>409.0</ele><time>2026-04-24T16:14:22.209Z</time></trkpt><trkpt lat="44.6594801" lon="10.2287696"><ele>409.0</ele><time>2026-04-24T16:14:23.21Z</time></trkpt><trkpt lat="44.6596436" lon="10.2288772"><ele>405.33333333333337</ele><time>2026-04-24T16:14:24.21Z</time></trkpt><trkpt lat="44.6598056" lon="10.2289356"><ele>401.66666666666663</ele><time>2026-04-24T16:14:25.21Z</time></trkpt><trkpt lat="44.6599879" lon="10.2289524"><ele>398.0</ele><time>2026-04-24T16:14:26.21Z</time></trkpt><trkpt lat="44.6601624" lon="10.2289301"><ele>402.66666666666663</ele><time>2026-04-24T16:14:27.21Z</time></trkpt><trkpt lat="44.6603365" lon="10.2288568"><ele>407.33333333333337</ele><time>2026-04-24T16:14:28.21Z</time></trkpt><trkpt lat="44.6605009" lon="10.2287595"><ele>412.0</ele><time>2026-04-24T16:14:29.21Z</time></trkpt><trkpt lat="44.6606488" lon="10.2286885"><ele>412.0</ele><time>2026-04-24T16:14:30.209Z</time></trkpt><trkpt lat="44.6607889" lon="10.228636"><ele>412.0</ele><time>2026-04-24T16:14:31.21Z</time></trkpt><trkpt lat="44.6609328" lon="10.2285974"><ele>412.0</ele><time>2026-04-24T16:14:32.211Z</time></trkpt><trkpt lat="44.6610793" lon="10.2285819"><ele>412.0</ele><time>2026-04-24T16:14:33.21Z</time></trkpt><trkpt lat="44.66122" lon="10.2285978"><ele>412.40000000000003</ele><time>2026-04-24T16:14:34.21Z</time></trkpt><trkpt lat="44.6613526" lon="10.2286256"><ele>412.8</ele><time>2026-04-24T16:14:35.21Z</time></trkpt><trkpt lat="44.6614631" lon="10.2286597"><ele>413.2</ele><time>2026-04-24T16:14:36.209Z</time></trkpt><trkpt lat="44.6615481" lon="10.2287135"><ele>413.6</ele><time>2026-04-24T16:14:37.209Z</time></trkpt><trkpt lat="44.6616259" lon="10.2288135"><ele>414.0</ele><time>2026-04-24T16:14:38.21Z</time></trkpt><trkpt lat="44.6617102" lon="10.2289543"><ele>413.66666666666663</ele><time>2026-04-24T16:14:39.211Z</time></trkpt><trkpt lat="44.6617925" lon="10.2291341"><ele>413.3333333333333</ele><time>2026-04-24T16:14:40.21Z</time></trkpt><trkpt lat="44.6618664" lon="10.2293505"><ele>413.0</ele><time>2026-04-24T16:14:41.211Z</time></trkpt><trkpt lat="44.6619498" lon="10.2295783"><ele>412.66666666666663</ele><time>2026-04-24T16:14:42.211Z</time></trkpt><trkpt lat="44.6620402" lon="10.2298149"><ele>412.33333333333337</ele><time>2026-04-24T16:14:43.21Z</time></trkpt><trkpt lat="44.6621321" lon="10.2300236"><ele>412.0</ele><time>2026-04-24T16:14:44.211Z</time></trkpt><trkpt lat="44.6622648" lon="10.2302162"><ele>412.0</ele><time>2026-04-24T16:14:45.211Z</time></trkpt><trkpt lat="44.6624034" lon="10.2304045"><ele>412.0</ele><time>2026-04-24T16:14:46.21Z</time></trkpt><trkpt lat="44.662543" lon="10.2305982"><ele>412.0</ele><time>2026-04-24T16:14:47.21Z</time></trkpt><trkpt lat="44.6626701" lon="10.2307956"><ele>411.0</ele><time>2026-04-24T16:14:48.21Z</time></trkpt><trkpt lat="44.6627782" lon="10.2309974"><ele>410.0</ele><time>2026-04-24T16:14:49.21Z</time></trkpt><trkpt lat="44.6628817" lon="10.2312037"><ele>409.0</ele><time>2026-04-24T16:14:50.209Z</time></trkpt><trkpt lat="44.6629767" lon="10.2313806"><ele>410.33333333333337</ele><time>2026-04-24T16:14:51.21Z</time></trkpt><trkpt lat="44.6630924" lon="10.2315054"><ele>411.66666666666663</ele><time>2026-04-24T16:14:52.21Z</time></trkpt><trkpt lat="44.6632306" lon="10.2315943"><ele>413.0</ele><time>2026-04-24T16:14:53.21Z</time></trkpt><trkpt lat="44.6633796" lon="10.2316544"><ele>413.0</ele><time>2026-04-24T16:14:54.209Z</time></trkpt><trkpt lat="44.6635277" lon="10.2317154"><ele>413.0</ele><time>2026-04-24T16:14:55.209Z</time></trkpt><trkpt lat="44.6636816" lon="10.2318022"><ele>413.0</ele><time>2026-04-24T16:14:56.21Z</time></trkpt><trkpt lat="44.6638332" lon="10.2319431"><ele>411.66666666666663</ele><time>2026-04-24T16:14:57.21Z</time></trkpt><trkpt lat="44.6639815" lon="10.2321182"><ele>410.33333333333337</ele><time>2026-04-24T16:14:58.21Z</time></trkpt><trkpt lat="44.6641302" lon="10.2323092"><ele>409.0</ele><time>2026-04-24T16:14:59.21Z</time></trkpt><trkpt lat="44.6642805" lon="10.2325086"><ele>409.0</ele><time>2026-04-24T16:15:00.21Z</time></trkpt><trkpt lat="44.6644311" lon="10.2326998"><ele>409.0</ele><time>2026-04-24T16:15:01.209Z</time></trkpt><trkpt lat="44.6645804" lon="10.232861"><ele>409.0</ele><time>2026-04-24T16:15:02.21Z</time></trkpt><trkpt lat="44.6647251" lon="10.2329978"><ele>406.6666666666667</ele><time>2026-04-24T16:15:03.21Z</time></trkpt><trkpt lat="44.6648595" lon="10.2331257"><ele>404.33333333333337</ele><time>2026-04-24T16:15:04.21Z</time></trkpt><trkpt lat="44.6649857" lon="10.2332351"><ele>402.0</ele><time>2026-04-24T16:15:05.211Z</time></trkpt><trkpt lat="44.6651058" lon="10.2333388"><ele>402.0</ele><time>2026-04-24T16:15:06.211Z</time></trkpt><trkpt lat="44.6652062" lon="10.233434"><ele>402.0</ele><time>2026-04-24T16:15:07.211Z</time></trkpt><trkpt lat="44.6652878" lon="10.2335387"><ele>402.0</ele><time>2026-04-24T16:15:08.21Z</time></trkpt><trkpt lat="44.6653294" lon="10.2336742"><ele>402.0</ele><time>2026-04-24T16:15:09.211Z</time></trkpt><trkpt lat="44.6653342" lon="10.2338405"><ele>400.0</ele><time>2026-04-24T16:15:10.209Z</time></trkpt><trkpt lat="44.6653415" lon="10.2340246"><ele>398.0</ele><time>2026-04-24T16:15:11.209Z</time></trkpt><trkpt lat="44.6653788" lon="10.2342207"><ele>396.0</ele><time>2026-04-24T16:15:12.21Z</time></trkpt><trkpt lat="44.6654528" lon="10.2343983"><ele>394.0</ele><time>2026-04-24T16:15:13.21Z</time></trkpt><trkpt lat="44.6655506" lon="10.2345643"><ele>394.0</ele><time>2026-04-24T16:15:14.21Z</time></trkpt><trkpt lat="44.6656676" lon="10.2347127"><ele>394.0</ele><time>2026-04-24T16:15:15.209Z</time></trkpt><trkpt lat="44.6658081" lon="10.2348431"><ele>394.0</ele><time>2026-04-24T16:15:16.21Z</time></trkpt><trkpt lat="44.6659498" lon="10.2349452"><ele>394.25</ele><time>2026-04-24T16:15:17.21Z</time></trkpt><trkpt lat="44.6660825" lon="10.2350119"><ele>394.5</ele><time>2026-04-24T16:15:18.21Z</time></trkpt><trkpt lat="44.6662184" lon="10.2350363"><ele>394.75</ele><time>2026-04-24T16:15:19.21Z</time></trkpt><trkpt lat="44.6663722" lon="10.2350236"><ele>395.0</ele><time>2026-04-24T16:15:20.211Z</time></trkpt><trkpt lat="44.6665354" lon="10.2349756"><ele>395.0</ele><time>2026-04-24T16:15:21.21Z</time></trkpt><trkpt lat="44.6667006" lon="10.2349472"><ele>395.0</ele><time>2026-04-24T16:15:22.21Z</time></trkpt><trkpt lat="44.6668647" lon="10.2349406"><ele>395.0</ele><time>2026-04-24T16:15:23.209Z</time></trkpt><trkpt lat="44.6670129" lon="10.2349486"><ele>393.2</ele><time>2026-04-24T16:15:24.21Z</time></trkpt><trkpt lat="44.6671401" lon="10.2349711"><ele>391.4</ele><time>2026-04-24T16:15:25.209Z</time></trkpt><trkpt lat="44.6672358" lon="10.2350074"><ele>389.6</ele><time>2026-04-24T16:15:26.21Z</time></trkpt><trkpt lat="44.6673044" lon="10.2350565"><ele>387.8</ele><time>2026-04-24T16:15:27.21Z</time></trkpt><trkpt lat="44.6673703" lon="10.2350667"><ele>386.0</ele><time>2026-04-24T16:15:28.21Z</time></trkpt><trkpt lat="44.667498" lon="10.235005"><ele>385.99999999999994</ele><time>2026-04-24T16:15:30.21Z</time></trkpt><trkpt lat="44.66758" lon="10.2349396"><ele>386.0</ele><time>2026-04-24T16:15:31.21Z</time></trkpt><trkpt lat="44.6676608" lon="10.2348815"><ele>386.0</ele><time>2026-04-24T16:15:32.209Z</time></trkpt><trkpt lat="44.6677379" lon="10.2348314"><ele>386.0</ele><time>2026-04-24T16:15:33.209Z</time></trkpt><trkpt lat="44.6678158" lon="10.234803"><ele>385.99999999999994</ele><time>2026-04-24T16:15:34.21Z</time></trkpt><trkpt lat="44.6678934" lon="10.2347753"><ele>386.0</ele><time>2026-04-24T16:15:35.21Z</time></trkpt><trkpt lat="44.6679899" lon="10.2347537"><ele>383.20000000000005</ele><time>2026-04-24T16:15:36.211Z</time></trkpt><trkpt lat="44.6681013" lon="10.2348141"><ele>380.40000000000003</ele><time>2026-04-24T16:15:37.21Z</time></trkpt><trkpt lat="44.6682017" lon="10.2348306"><ele>377.6</ele><time>2026-04-24T16:15:38.21Z</time></trkpt><trkpt lat="44.6683026" lon="10.2348648"><ele>374.8</ele><time>2026-04-24T16:15:39.211Z</time></trkpt><trkpt lat="44.6683983" lon="10.2349002"><ele>372.0</ele><time>2026-04-24T16:15:40.21Z</time></trkpt><trkpt lat="44.6685038" lon="10.2349374"><ele>370.0</ele><time>2026-04-24T16:15:41.21Z</time></trkpt><trkpt lat="44.6686116" lon="10.2349725"><ele>368.0</ele><time>2026-04-24T16:15:42.211Z</time></trkpt><trkpt lat="44.6687245" lon="10.2349908"><ele>366.0</ele><time>2026-04-24T16:15:43.21Z</time></trkpt><trkpt lat="44.6688324" lon="10.2349893"><ele>364.0</ele><time>2026-04-24T16:15:44.211Z</time></trkpt><trkpt lat="44.6689378" lon="10.2349678"><ele>362.0</ele><time>2026-04-24T16:15:45.211Z</time></trkpt><trkpt lat="44.6690431" lon="10.2349395"><ele>362.0</ele><time>2026-04-24T16:15:46.209Z</time></trkpt><trkpt lat="44.669153" lon="10.2349079"><ele>362.0</ele><time>2026-04-24T16:15:47.21Z</time></trkpt><trkpt lat="44.6692607" lon="10.2348796"><ele>362.0</ele><time>2026-04-24T16:15:48.209Z</time></trkpt><trkpt lat="44.6693694" lon="10.2348531"><ele>362.0</ele><time>2026-04-24T16:15:49.209Z</time></trkpt><trkpt lat="44.6694761" lon="10.2348277"><ele>362.0</ele><time>2026-04-24T16:15:50.209Z</time></trkpt><trkpt lat="44.6695859" lon="10.2348071"><ele>359.40000000000003</ele><time>2026-04-24T16:15:51.21Z</time></trkpt><trkpt lat="44.6696953" lon="10.2347954"><ele>356.8</ele><time>2026-04-24T16:15:52.21Z</time></trkpt><trkpt lat="44.6697977" lon="10.234788"><ele>354.2</ele><time>2026-04-24T16:15:53.209Z</time></trkpt><trkpt lat="44.6699047" lon="10.2347781"><ele>351.6</ele><time>2026-04-24T16:15:54.21Z</time></trkpt><trkpt lat="44.6700184" lon="10.234769"><ele>349.0</ele><time>2026-04-24T16:15:55.211Z</time></trkpt><trkpt lat="44.6701312" lon="10.2347604"><ele>349.0</ele><time>2026-04-24T16:15:56.21Z</time></trkpt><trkpt lat="44.6702554" lon="10.2347479"><ele>349.0</ele><time>2026-04-24T16:15:57.209Z</time></trkpt><trkpt lat="44.6703794" lon="10.2347447"><ele>349.0</ele><time>2026-04-24T16:15:58.21Z</time></trkpt><trkpt lat="44.6704975" lon="10.2347565"><ele>349.0</ele><time>2026-04-24T16:15:59.211Z</time></trkpt><trkpt lat="44.6706057" lon="10.2347894"><ele>348.5</ele><time>2026-04-24T16:16:00.21Z</time></trkpt><trkpt lat="44.6707059" lon="10.2348373"><ele>348.0</ele><time>2026-04-24T16:16:01.21Z</time></trkpt><trkpt lat="44.6707884" lon="10.2348809"><ele>347.5</ele><time>2026-04-24T16:16:02.21Z</time></trkpt><trkpt lat="44.6708574" lon="10.2349111"><ele>347.0</ele><time>2026-04-24T16:16:03.209Z</time></trkpt><trkpt lat="44.6709275" lon="10.2349243"><ele>346.5</ele><time>2026-04-24T16:16:04.21Z</time></trkpt><trkpt lat="44.6710197" lon="10.2349166"><ele>346.0</ele><time>2026-04-24T16:16:05.209Z</time></trkpt><trkpt lat="44.6711229" lon="10.2348699"><ele>344.0</ele><time>2026-04-24T16:16:06.21Z</time></trkpt><trkpt lat="44.6712414" lon="10.2347993"><ele>342.0</ele><time>2026-04-24T16:16:07.21Z</time></trkpt><trkpt lat="44.6713734" lon="10.2347065"><ele>340.0</ele><time>2026-04-24T16:16:08.21Z</time></trkpt><trkpt lat="44.6715098" lon="10.2345752"><ele>338.0</ele><time>2026-04-24T16:16:09.21Z</time></trkpt><trkpt lat="44.6716406" lon="10.2344268"><ele>338.0</ele><time>2026-04-24T16:16:10.21Z</time></trkpt><trkpt lat="44.6717657" lon="10.2342916"><ele>338.0</ele><time>2026-04-24T16:16:11.21Z</time></trkpt><trkpt lat="44.6718938" lon="10.2341739"><ele>338.0</ele><time>2026-04-24T16:16:12.21Z</time></trkpt><trkpt lat="44.6720286" lon="10.234092"><ele>336.25</ele><time>2026-04-24T16:16:13.21Z</time></trkpt><trkpt lat="44.6721626" lon="10.2340382"><ele>334.5</ele><time>2026-04-24T16:16:14.21Z</time></trkpt><trkpt lat="44.6722733" lon="10.2339598"><ele>332.75</ele><time>2026-04-24T16:16:15.211Z</time></trkpt><trkpt lat="44.6723685" lon="10.2338401"><ele>331.0</ele><time>2026-04-24T16:16:16.211Z</time></trkpt><trkpt lat="44.672464" lon="10.2337344"><ele>331.0</ele><time>2026-04-24T16:16:17.21Z</time></trkpt><trkpt lat="44.6725596" lon="10.2335639"><ele>331.0</ele><time>2026-04-24T16:16:18.21Z</time></trkpt><trkpt lat="44.6726853" lon="10.23343"><ele>331.0</ele><time>2026-04-24T16:16:19.21Z</time></trkpt><trkpt lat="44.6728102" lon="10.2332874"><ele>331.3333333333333</ele><time>2026-04-24T16:16:20.21Z</time></trkpt><trkpt lat="44.6729462" lon="10.2331557"><ele>331.6666666666667</ele><time>2026-04-24T16:16:21.21Z</time></trkpt><trkpt lat="44.6730849" lon="10.2330291"><ele>332.0</ele><time>2026-04-24T16:16:22.21Z</time></trkpt><trkpt lat="44.6732239" lon="10.2329075"><ele>327.25</ele><time>2026-04-24T16:16:23.21Z</time></trkpt><trkpt lat="44.6733571" lon="10.2328027"><ele>322.5</ele><time>2026-04-24T16:16:24.211Z</time></trkpt><trkpt lat="44.6734865" lon="10.2327225"><ele>317.75</ele><time>2026-04-24T16:16:25.21Z</time></trkpt><trkpt lat="44.6736167" lon="10.2326724"><ele>313.0</ele><time>2026-04-24T16:16:26.211Z</time></trkpt><trkpt lat="44.6737485" lon="10.2326632"><ele>312.2</ele><time>2026-04-24T16:16:27.209Z</time></trkpt><trkpt lat="44.673857" lon="10.232684"><ele>311.4</ele><time>2026-04-24T16:16:28.209Z</time></trkpt><trkpt lat="44.6739412" lon="10.2327423"><ele>310.59999999999997</ele><time>2026-04-24T16:16:29.21Z</time></trkpt><trkpt lat="44.6739913" lon="10.2328474"><ele>309.8</ele><time>2026-04-24T16:16:30.21Z</time></trkpt><trkpt lat="44.674014" lon="10.2329808"><ele>309.0</ele><time>2026-04-24T16:16:31.209Z</time></trkpt><trkpt lat="44.6740322" lon="10.2331425"><ele>311.0</ele><time>2026-04-24T16:16:32.209Z</time></trkpt><trkpt lat="44.6740773" lon="10.2333052"><ele>313.0</ele><time>2026-04-24T16:16:33.209Z</time></trkpt><trkpt lat="44.6741424" lon="10.2334294"><ele>315.0</ele><time>2026-04-24T16:16:34.21Z</time></trkpt><trkpt lat="44.6742236" lon="10.2335251"><ele>317.0</ele><time>2026-04-24T16:16:35.21Z</time></trkpt><trkpt lat="44.6743073" lon="10.2335764"><ele>319.0</ele><time>2026-04-24T16:16:36.21Z</time></trkpt><trkpt lat="44.6743941" lon="10.2336239"><ele>319.0</ele><time>2026-04-24T16:16:37.21Z</time></trkpt><trkpt lat="44.6744897" lon="10.2336627"><ele>319.0</ele><time>2026-04-24T16:16:38.21Z</time></trkpt><trkpt lat="44.6745701" lon="10.2336893"><ele>319.0</ele><time>2026-04-24T16:16:39.211Z</time></trkpt><trkpt lat="44.6746032" lon="10.2336118"><ele>319.0</ele><time>2026-04-24T16:16:40.209Z</time></trkpt><trkpt lat="44.6743801" lon="10.233256"><ele>317.0</ele><time>2026-04-24T16:16:41.21Z</time></trkpt><trkpt lat="44.6743608" lon="10.2331219"><ele>315.0</ele><time>2026-04-24T16:16:42.21Z</time></trkpt><trkpt lat="44.6743603" lon="10.2329853"><ele>313.0</ele><time>2026-04-24T16:16:43.209Z</time></trkpt><trkpt lat="44.6743955" lon="10.2328393"><ele>311.0</ele><time>2026-04-24T16:16:44.209Z</time></trkpt><trkpt lat="44.6744629" lon="10.2327006"><ele>309.0</ele><time>2026-04-24T16:16:45.209Z</time></trkpt><trkpt lat="44.6745527" lon="10.2325545"><ele>305.6666666666667</ele><time>2026-04-24T16:16:46.21Z</time></trkpt><trkpt lat="44.6746623" lon="10.2323891"><ele>302.33333333333337</ele><time>2026-04-24T16:16:47.21Z</time></trkpt><trkpt lat="44.6747977" lon="10.2322401"><ele>299.0</ele><time>2026-04-24T16:16:48.211Z</time></trkpt><trkpt lat="44.6749549" lon="10.2320956"><ele>299.0</ele><time>2026-04-24T16:16:49.211Z</time></trkpt><trkpt lat="44.6751253" lon="10.2319531"><ele>299.0</ele><time>2026-04-24T16:16:50.211Z</time></trkpt><trkpt lat="44.6752915" lon="10.2318038"><ele>299.0</ele><time>2026-04-24T16:16:51.209Z</time></trkpt><trkpt lat="44.6754409" lon="10.2316852"><ele>296.5</ele><time>2026-04-24T16:16:52.209Z</time></trkpt><trkpt lat="44.675572" lon="10.2315811"><ele>294.0</ele><time>2026-04-24T16:16:53.21Z</time></trkpt><trkpt lat="44.675674" lon="10.2314813"><ele>291.5</ele><time>2026-04-24T16:16:54.21Z</time></trkpt><trkpt lat="44.6757538" lon="10.231378"><ele>289.0</ele><time>2026-04-24T16:16:55.21Z</time></trkpt><trkpt lat="44.6758003" lon="10.2312378"><ele>289.0</ele><time>2026-04-24T16:16:56.21Z</time></trkpt><trkpt lat="44.6758076" lon="10.2310739"><ele>289.0</ele><time>2026-04-24T16:16:57.209Z</time></trkpt><trkpt lat="44.6757996" lon="10.2308891"><ele>289.0</ele><time>2026-04-24T16:16:58.209Z</time></trkpt><trkpt lat="44.675791" lon="10.2306734"><ele>289.0</ele><time>2026-04-24T16:16:59.21Z</time></trkpt><trkpt lat="44.6757863" lon="10.2304594"><ele>288.0</ele><time>2026-04-24T16:17:00.21Z</time></trkpt><trkpt lat="44.6757984" lon="10.23027"><ele>287.0</ele><time>2026-04-24T16:17:01.209Z</time></trkpt><trkpt lat="44.6758352" lon="10.2300993"><ele>286.0</ele><time>2026-04-24T16:17:02.209Z</time></trkpt><trkpt lat="44.6759054" lon="10.2299512"><ele>285.0</ele><time>2026-04-24T16:17:03.211Z</time></trkpt><trkpt lat="44.6760073" lon="10.2298221"><ele>281.0</ele><time>2026-04-24T16:17:04.211Z</time></trkpt><trkpt lat="44.6761366" lon="10.229737"><ele>277.0</ele><time>2026-04-24T16:17:05.211Z</time></trkpt><trkpt lat="44.6762611" lon="10.2296904"><ele>273.0</ele><time>2026-04-24T16:17:06.211Z</time></trkpt><trkpt lat="44.6763742" lon="10.2296673"><ele>269.0</ele><time>2026-04-24T16:17:07.21Z</time></trkpt><trkpt lat="44.6764812" lon="10.2296728"><ele>269.0</ele><time>2026-04-24T16:17:08.209Z</time></trkpt><trkpt lat="44.6765814" lon="10.2297101"><ele>269.0</ele><time>2026-04-24T16:17:09.211Z</time></trkpt><trkpt lat="44.6766811" lon="10.2297685"><ele>269.0</ele><time>2026-04-24T16:17:10.209Z</time></trkpt><trkpt lat="44.6767925" lon="10.2298644"><ele>269.0</ele><time>2026-04-24T16:17:11.21Z</time></trkpt><trkpt lat="44.6769103" lon="10.2300035"><ele>268.0</ele><time>2026-04-24T16:17:12.209Z</time></trkpt><trkpt lat="44.6770335" lon="10.2301748"><ele>267.0</ele><time>2026-04-24T16:17:13.21Z</time></trkpt><trkpt lat="44.6771717" lon="10.230364"><ele>266.0</ele><time>2026-04-24T16:17:14.21Z</time></trkpt><trkpt lat="44.677331" lon="10.2305578"><ele>267.0</ele><time>2026-04-24T16:17:15.21Z</time></trkpt><trkpt lat="44.6774955" lon="10.2307545"><ele>268.0</ele><time>2026-04-24T16:17:16.211Z</time></trkpt><trkpt lat="44.6776587" lon="10.2309592"><ele>269.0</ele><time>2026-04-24T16:17:17.21Z</time></trkpt><trkpt lat="44.6777991" lon="10.2311707"><ele>269.0</ele><time>2026-04-24T16:17:18.211Z</time></trkpt><trkpt lat="44.6779172" lon="10.2313857"><ele>269.0</ele><time>2026-04-24T16:17:19.21Z</time></trkpt><trkpt lat="44.6780189" lon="10.231576"><ele>269.0</ele><time>2026-04-24T16:17:20.209Z</time></trkpt><trkpt lat="44.6781252" lon="10.2317313"><ele>270.6666666666667</ele><time>2026-04-24T16:17:21.21Z</time></trkpt><trkpt lat="44.6782459" lon="10.231886"><ele>272.3333333333333</ele><time>2026-04-24T16:17:22.21Z</time></trkpt><trkpt lat="44.6784124" lon="10.231953"><ele>274.0</ele><time>2026-04-24T16:17:23.21Z</time></trkpt><trkpt lat="44.6785782" lon="10.2320493"><ele>274.66666666666663</ele><time>2026-04-24T16:17:24.209Z</time></trkpt><trkpt lat="44.67875" lon="10.2321685"><ele>275.3333333333333</ele><time>2026-04-24T16:17:25.21Z</time></trkpt><trkpt lat="44.6789162" lon="10.2323079"><ele>276.0</ele><time>2026-04-24T16:17:26.21Z</time></trkpt><trkpt lat="44.6790605" lon="10.2324576"><ele>276.0</ele><time>2026-04-24T16:17:27.21Z</time></trkpt><trkpt lat="44.6791872" lon="10.232617"><ele>276.0</ele><time>2026-04-24T16:17:28.21Z</time></trkpt><trkpt lat="44.6793035" lon="10.2327748"><ele>276.0</ele><time>2026-04-24T16:17:29.21Z</time></trkpt><trkpt lat="44.679421" lon="10.232928"><ele>275.0</ele><time>2026-04-24T16:17:30.211Z</time></trkpt><trkpt lat="44.6795463" lon="10.2330727"><ele>274.0</ele><time>2026-04-24T16:17:31.21Z</time></trkpt><trkpt lat="44.67968" lon="10.2332023"><ele>273.0</ele><time>2026-04-24T16:17:32.21Z</time></trkpt><trkpt lat="44.6798206" lon="10.2333326"><ele>273.0</ele><time>2026-04-24T16:17:33.21Z</time></trkpt><trkpt lat="44.6799696" lon="10.2334601"><ele>273.0</ele><time>2026-04-24T16:17:34.211Z</time></trkpt><trkpt lat="44.6801196" lon="10.2335889"><ele>273.0</ele><time>2026-04-24T16:17:35.209Z</time></trkpt><trkpt lat="44.6802826" lon="10.2337138"><ele>271.3333333333333</ele><time>2026-04-24T16:17:36.21Z</time></trkpt><trkpt lat="44.6804638" lon="10.233832"><ele>269.66666666666663</ele><time>2026-04-24T16:17:37.209Z</time></trkpt><trkpt lat="44.6806622" lon="10.233947"><ele>268.0</ele><time>2026-04-24T16:17:38.21Z</time></trkpt><trkpt lat="44.6808727" lon="10.2340651"><ele>268.0</ele><time>2026-04-24T16:17:39.21Z</time></trkpt><trkpt lat="44.6810876" lon="10.2341953"><ele>268.0</ele><time>2026-04-24T16:17:40.209Z</time></trkpt><trkpt lat="44.6813063" lon="10.2343383"><ele>263.5</ele><time>2026-04-24T16:17:41.21Z</time></trkpt><trkpt lat="44.6815209" lon="10.234483"><ele>259.0</ele><time>2026-04-24T16:17:42.211Z</time></trkpt><trkpt lat="44.6817233" lon="10.234623"><ele>259.0</ele><time>2026-04-24T16:17:43.209Z</time></trkpt><trkpt lat="44.68191" lon="10.2347606"><ele>259.0</ele><time>2026-04-24T16:17:44.21Z</time></trkpt><trkpt lat="44.6820917" lon="10.2349153"><ele>259.0</ele><time>2026-04-24T16:17:45.209Z</time></trkpt><trkpt lat="44.6822718" lon="10.2350888"><ele>260.0</ele><time>2026-04-24T16:17:46.21Z</time></trkpt><trkpt lat="44.6824518" lon="10.2352676"><ele>261.0</ele><time>2026-04-24T16:17:47.21Z</time></trkpt><trkpt lat="44.6826195" lon="10.2354395"><ele>262.0</ele><time>2026-04-24T16:17:48.211Z</time></trkpt><trkpt lat="44.6827676" lon="10.2355978"><ele>263.75</ele><time>2026-04-24T16:17:49.21Z</time></trkpt><trkpt lat="44.6828957" lon="10.235731"><ele>265.5</ele><time>2026-04-24T16:17:50.21Z</time></trkpt><trkpt lat="44.6830146" lon="10.2358291"><ele>267.25</ele><time>2026-04-24T16:17:51.211Z</time></trkpt><trkpt lat="44.6831339" lon="10.2358752"><ele>269.0</ele><time>2026-04-24T16:17:52.21Z</time></trkpt><trkpt lat="44.683265" lon="10.2358682"><ele>269.0</ele><time>2026-04-24T16:17:53.211Z</time></trkpt><trkpt lat="44.6833926" lon="10.2358476"><ele>269.0</ele><time>2026-04-24T16:17:54.211Z</time></trkpt><trkpt lat="44.6835517" lon="10.2357953"><ele>269.0</ele><time>2026-04-24T16:17:55.211Z</time></trkpt><trkpt lat="44.6837237" lon="10.2357186"><ele>264.0</ele><time>2026-04-24T16:17:56.209Z</time></trkpt><trkpt lat="44.6838475" lon="10.2355464"><ele>259.0</ele><time>2026-04-24T16:17:57.209Z</time></trkpt><trkpt lat="44.6839696" lon="10.2354645"><ele>254.0</ele><time>2026-04-24T16:17:58.209Z</time></trkpt><trkpt lat="44.6840559" lon="10.2354064"><ele>249.0</ele><time>2026-04-24T16:17:59.208Z</time></trkpt><trkpt lat="44.6841308" lon="10.2353348"><ele>249.0</ele><time>2026-04-24T16:18:00.209Z</time></trkpt><trkpt lat="44.6840612" lon="10.2351699"><ele>249.0</ele><time>2026-04-24T16:18:02.209Z</time></trkpt><trkpt lat="44.6839069" lon="10.2351603"><ele>249.0</ele><time>2026-04-24T16:18:04.209Z</time></trkpt><trkpt lat="44.6837863" lon="10.235211"><ele>249.0</ele><time>2026-04-24T16:18:05.209Z</time></trkpt><trkpt lat="44.683674" lon="10.2352512"><ele>249.0</ele><time>2026-04-24T16:18:06.209Z</time></trkpt><trkpt lat="44.6835848" lon="10.2352773"><ele>248.99999999999997</ele><time>2026-04-24T16:18:07.209Z</time></trkpt><trkpt lat="44.6835151" lon="10.2352799"><ele>248.99999999999997</ele><time>2026-04-24T16:18:08.21Z</time></trkpt><trkpt lat="44.6834675" lon="10.2351693"><ele>249.0</ele><time>2026-04-24T16:18:10.209Z</time></trkpt><trkpt lat="44.6835576" lon="10.2350573"><ele>249.0</ele><time>2026-04-24T16:18:12.21Z</time></trkpt><trkpt lat="44.6836425" lon="10.2350148"><ele>249.0</ele><time>2026-04-24T16:18:13.209Z</time></trkpt><trkpt lat="44.6837442" lon="10.2349789"><ele>249.0</ele><time>2026-04-24T16:18:14.208Z</time></trkpt><trkpt lat="44.6838504" lon="10.2349304"><ele>249.0</ele><time>2026-04-24T16:18:15.209Z</time></trkpt><trkpt lat="44.6839721" lon="10.2348691"><ele>249.0</ele><time>2026-04-24T16:18:16.209Z</time></trkpt><trkpt lat="44.6841044" lon="10.2348017"><ele>243.75</ele><time>2026-04-24T16:18:17.209Z</time></trkpt><trkpt lat="44.6842363" lon="10.2347432"><ele>238.5</ele><time>2026-04-24T16:18:18.208Z</time></trkpt><trkpt lat="44.6843608" lon="10.2346876"><ele>233.25</ele><time>2026-04-24T16:18:19.21Z</time></trkpt><trkpt lat="44.6844788" lon="10.234631"><ele>228.0</ele><time>2026-04-24T16:18:20.208Z</time></trkpt><trkpt lat="44.6845973" lon="10.2345907"><ele>226.8</ele><time>2026-04-24T16:18:21.208Z</time></trkpt><trkpt lat="44.6847086" lon="10.2345654"><ele>225.60000000000002</ele><time>2026-04-24T16:18:22.209Z</time></trkpt><trkpt lat="44.6848134" lon="10.2345482"><ele>224.39999999999998</ele><time>2026-04-24T16:18:23.209Z</time></trkpt><trkpt lat="44.6849169" lon="10.2345453"><ele>223.2</ele><time>2026-04-24T16:18:24.209Z</time></trkpt><trkpt lat="44.6850159" lon="10.2345643"><ele>222.0</ele><time>2026-04-24T16:18:25.208Z</time></trkpt><trkpt lat="44.6851246" lon="10.2346062"><ele>222.0</ele><time>2026-04-24T16:18:26.21Z</time></trkpt><trkpt lat="44.6852489" lon="10.2346631"><ele>222.0</ele><time>2026-04-24T16:18:27.21Z</time></trkpt><trkpt lat="44.6853854" lon="10.2347254"><ele>222.0</ele><time>2026-04-24T16:18:28.209Z</time></trkpt><trkpt lat="44.6855355" lon="10.2347957"><ele>222.0</ele><time>2026-04-24T16:18:29.209Z</time></trkpt><trkpt lat="44.6856996" lon="10.2348754"><ele>224.33333333333331</ele><time>2026-04-24T16:18:30.209Z</time></trkpt><trkpt lat="44.6858648" lon="10.2349503"><ele>226.66666666666666</ele><time>2026-04-24T16:18:31.209Z</time></trkpt><trkpt lat="44.6860191" lon="10.2350428"><ele>229.0</ele><time>2026-04-24T16:18:32.209Z</time></trkpt><trkpt lat="44.6861565" lon="10.2351585"><ele>223.33333333333331</ele><time>2026-04-24T16:18:33.208Z</time></trkpt><trkpt lat="44.6862966" lon="10.2352846"><ele>217.66666666666669</ele><time>2026-04-24T16:18:34.209Z</time></trkpt><trkpt lat="44.686442" lon="10.2354141"><ele>212.0</ele><time>2026-04-24T16:18:35.209Z</time></trkpt><trkpt lat="44.6865947" lon="10.2355455"><ele>211.33333333333334</ele><time>2026-04-24T16:18:36.208Z</time></trkpt><trkpt lat="44.6867468" lon="10.2356859"><ele>210.66666666666669</ele><time>2026-04-24T16:18:37.208Z</time></trkpt><trkpt lat="44.6869027" lon="10.2358287"><ele>210.0</ele><time>2026-04-24T16:18:38.209Z</time></trkpt><trkpt lat="44.6870586" lon="10.2359643"><ele>210.0</ele><time>2026-04-24T16:18:39.21Z</time></trkpt><trkpt lat="44.687225" lon="10.236085"><ele>210.0</ele><time>2026-04-24T16:18:40.209Z</time></trkpt><trkpt lat="44.6873869" lon="10.2361912"><ele>210.0</ele><time>2026-04-24T16:18:41.208Z</time></trkpt><trkpt lat="44.687542" lon="10.2362908"><ele>210.0</ele><time>2026-04-24T16:18:42.209Z</time></trkpt><trkpt lat="44.6876845" lon="10.2363793"><ele>210.0</ele><time>2026-04-24T16:18:43.208Z</time></trkpt><trkpt lat="44.6878202" lon="10.2364633"><ele>210.0</ele><time>2026-04-24T16:18:44.21Z</time></trkpt><trkpt lat="44.6879581" lon="10.2365491"><ele>209.33333333333331</ele><time>2026-04-24T16:18:45.208Z</time></trkpt><trkpt lat="44.6881007" lon="10.2366477"><ele>208.66666666666666</ele><time>2026-04-24T16:18:46.209Z</time></trkpt><trkpt lat="44.688246" lon="10.2367572"><ele>208.0</ele><time>2026-04-24T16:18:47.21Z</time></trkpt><trkpt lat="44.6883929" lon="10.2368751"><ele>208.0</ele><time>2026-04-24T16:18:48.208Z</time></trkpt><trkpt lat="44.6885422" lon="10.2369957"><ele>208.0</ele><time>2026-04-24T16:18:49.209Z</time></trkpt><trkpt lat="44.6886937" lon="10.2371285"><ele>208.0</ele><time>2026-04-24T16:18:50.209Z</time></trkpt><trkpt lat="44.6888394" lon="10.2372662"><ele>208.0</ele><time>2026-04-24T16:18:51.209Z</time></trkpt><trkpt lat="44.6889763" lon="10.2374135"><ele>208.0</ele><time>2026-04-24T16:18:52.208Z</time></trkpt><trkpt lat="44.6891064" lon="10.2375543"><ele>208.0</ele><time>2026-04-24T16:18:53.209Z</time></trkpt><trkpt lat="44.6892267" lon="10.237693"><ele>208.0</ele><time>2026-04-24T16:18:54.208Z</time></trkpt><trkpt lat="44.6893355" lon="10.2378296"><ele>208.0</ele><time>2026-04-24T16:18:55.21Z</time></trkpt><trkpt lat="44.6894316" lon="10.2379622"><ele>208.0</ele><time>2026-04-24T16:18:56.208Z</time></trkpt><trkpt lat="44.6895148" lon="10.2380981"><ele>208.0</ele><time>2026-04-24T16:18:57.209Z</time></trkpt><trkpt lat="44.6895894" lon="10.2382314"><ele>205.75</ele><time>2026-04-24T16:18:58.209Z</time></trkpt><trkpt lat="44.6896565" lon="10.238371"><ele>203.5</ele><time>2026-04-24T16:18:59.209Z</time></trkpt><trkpt lat="44.6897377" lon="10.2385299"><ele>201.25</ele><time>2026-04-24T16:19:00.209Z</time></trkpt><trkpt lat="44.6898288" lon="10.2387178"><ele>199.0</ele><time>2026-04-24T16:19:01.21Z</time></trkpt><trkpt lat="44.6899221" lon="10.2389348"><ele>201.66666666666666</ele><time>2026-04-24T16:19:02.209Z</time></trkpt><trkpt lat="44.6900141" lon="10.2391667"><ele>204.33333333333331</ele><time>2026-04-24T16:19:03.208Z</time></trkpt><trkpt lat="44.6901189" lon="10.2393938"><ele>207.0</ele><time>2026-04-24T16:19:04.208Z</time></trkpt><trkpt lat="44.6902328" lon="10.2396251"><ele>204.33333333333331</ele><time>2026-04-24T16:19:05.21Z</time></trkpt><trkpt lat="44.6903424" lon="10.2398485"><ele>201.66666666666666</ele><time>2026-04-24T16:19:06.209Z</time></trkpt><trkpt lat="44.6904458" lon="10.240065"><ele>199.0</ele><time>2026-04-24T16:19:07.209Z</time></trkpt><trkpt lat="44.6905428" lon="10.2402649"><ele>199.0</ele><time>2026-04-24T16:19:08.21Z</time></trkpt><trkpt lat="44.690636" lon="10.2404511"><ele>199.0</ele><time>2026-04-24T16:19:09.209Z</time></trkpt><trkpt lat="44.6907375" lon="10.2406319"><ele>199.0</ele><time>2026-04-24T16:19:10.209Z</time></trkpt><trkpt lat="44.6908604" lon="10.2407578"><ele>197.66666666666666</ele><time>2026-04-24T16:19:11.208Z</time></trkpt><trkpt lat="44.6910132" lon="10.2408678"><ele>196.33333333333331</ele><time>2026-04-24T16:19:12.21Z</time></trkpt><trkpt lat="44.6911859" lon="10.2409642"><ele>195.0</ele><time>2026-04-24T16:19:13.208Z</time></trkpt><trkpt lat="44.6913705" lon="10.2410681"><ele>195.0</ele><time>2026-04-24T16:19:14.208Z</time></trkpt><trkpt lat="44.6915707" lon="10.2411597"><ele>195.0</ele><time>2026-04-24T16:19:15.209Z</time></trkpt><trkpt lat="44.691773" lon="10.2412512"><ele>195.0</ele><time>2026-04-24T16:19:16.208Z</time></trkpt><trkpt lat="44.6919823" lon="10.2413456"><ele>193.66666666666666</ele><time>2026-04-24T16:19:17.208Z</time></trkpt><trkpt lat="44.6921892" lon="10.241442"><ele>192.33333333333331</ele><time>2026-04-24T16:19:18.21Z</time></trkpt><trkpt lat="44.6923851" lon="10.2415284"><ele>191.0</ele><time>2026-04-24T16:19:19.209Z</time></trkpt><trkpt lat="44.6925678" lon="10.2416075"><ele>191.0</ele><time>2026-04-24T16:19:20.208Z</time></trkpt><trkpt lat="44.6927399" lon="10.2416877"><ele>191.0</ele><time>2026-04-24T16:19:21.21Z</time></trkpt><trkpt lat="44.6929016" lon="10.2417625"><ele>191.0</ele><time>2026-04-24T16:19:22.208Z</time></trkpt><trkpt lat="44.6930434" lon="10.2418246"><ele>190.60000000000002</ele><time>2026-04-24T16:19:23.209Z</time></trkpt><trkpt lat="44.6931783" lon="10.241878"><ele>190.2</ele><time>2026-04-24T16:19:24.209Z</time></trkpt><trkpt lat="44.6932855" lon="10.2419273"><ele>189.8</ele><time>2026-04-24T16:19:25.21Z</time></trkpt><trkpt lat="44.6933695" lon="10.2419736"><ele>189.39999999999998</ele><time>2026-04-24T16:19:26.209Z</time></trkpt><trkpt lat="44.6934335" lon="10.2420007"><ele>189.0</ele><time>2026-04-24T16:19:27.208Z</time></trkpt><trkpt lat="44.6935171" lon="10.2420379"><ele>189.0</ele><time>2026-04-24T16:19:29.209Z</time></trkpt><trkpt lat="44.6936117" lon="10.2420215"><ele>189.0</ele><time>2026-04-24T16:19:31.209Z</time></trkpt><trkpt lat="44.6936385" lon="10.2418837"><ele>189.0</ele><time>2026-04-24T16:19:33.208Z</time></trkpt><trkpt lat="44.6936102" lon="10.241778"><ele>189.0</ele><time>2026-04-24T16:19:34.208Z</time></trkpt><trkpt lat="44.6935863" lon="10.2416332"><ele>189.0</ele><time>2026-04-24T16:19:35.209Z</time></trkpt><trkpt lat="44.6935704" lon="10.2414803"><ele>188.75</ele><time>2026-04-24T16:19:36.209Z</time></trkpt><trkpt lat="44.6935425" lon="10.2412997"><ele>188.5</ele><time>2026-04-24T16:19:37.208Z</time></trkpt><trkpt lat="44.6935155" lon="10.2411211"><ele>188.25</ele><time>2026-04-24T16:19:38.209Z</time></trkpt><trkpt lat="44.6934916" lon="10.2409336"><ele>188.0</ele><time>2026-04-24T16:19:39.209Z</time></trkpt><trkpt lat="44.6934824" lon="10.2407599"><ele>188.0</ele><time>2026-04-24T16:19:40.209Z</time></trkpt><trkpt lat="44.6934912" lon="10.2405967"><ele>188.0</ele><time>2026-04-24T16:19:41.208Z</time></trkpt><trkpt lat="44.6935243" lon="10.2404233"><ele>188.0</ele><time>2026-04-24T16:19:42.209Z</time></trkpt><trkpt lat="44.6935693" lon="10.2402474"><ele>188.0</ele><time>2026-04-24T16:19:43.209Z</time></trkpt><trkpt lat="44.6936203" lon="10.2400776"><ele>188.0</ele><time>2026-04-24T16:19:44.208Z</time></trkpt><trkpt lat="44.6936739" lon="10.2399115"><ele>188.0</ele><time>2026-04-24T16:19:45.208Z</time></trkpt><trkpt lat="44.6937272" lon="10.2397511"><ele>188.0</ele><time>2026-04-24T16:19:46.208Z</time></trkpt><trkpt lat="44.6937746" lon="10.2396152"><ele>188.0</ele><time>2026-04-24T16:19:47.209Z</time></trkpt><trkpt lat="44.6938162" lon="10.2394945"><ele>188.0</ele><time>2026-04-24T16:19:48.209Z</time></trkpt><trkpt lat="44.6938518" lon="10.2393831"><ele>188.0</ele><time>2026-04-24T16:19:49.209Z</time></trkpt><trkpt lat="44.6938827" lon="10.2392869"><ele>188.0</ele><time>2026-04-24T16:19:50.21Z</time></trkpt><trkpt lat="44.6939252" lon="10.2391572"><ele>188.0</ele><time>2026-04-24T16:19:52.208Z</time></trkpt><trkpt lat="44.6939575" lon="10.239032"><ele>188.0</ele><time>2026-04-24T16:20:14.21Z</time></trkpt><trkpt lat="44.6939785" lon="10.2389213"><ele>188.0</ele><time>2026-04-24T16:20:15.21Z</time></trkpt><trkpt lat="44.6939969" lon="10.2387705"><ele>187.75</ele><time>2026-04-24T16:20:16.209Z</time></trkpt><trkpt lat="44.6940196" lon="10.238592"><ele>187.5</ele><time>2026-04-24T16:20:17.208Z</time></trkpt><trkpt lat="44.6940412" lon="10.2383984"><ele>187.25</ele><time>2026-04-24T16:20:18.208Z</time></trkpt><trkpt lat="44.694068" lon="10.2381861"><ele>187.0</ele><time>2026-04-24T16:20:19.21Z</time></trkpt><trkpt lat="44.6940983" lon="10.2379683"><ele>187.0</ele><time>2026-04-24T16:20:20.208Z</time></trkpt><trkpt lat="44.6941374" lon="10.2377354"><ele>187.0</ele><time>2026-04-24T16:20:21.209Z</time></trkpt><trkpt lat="44.6941818" lon="10.2374978"><ele>187.0</ele><time>2026-04-24T16:20:22.21Z</time></trkpt><trkpt lat="44.6942351" lon="10.237272"><ele>186.75</ele><time>2026-04-24T16:20:23.208Z</time></trkpt><trkpt lat="44.694287" lon="10.2370681"><ele>186.5</ele><time>2026-04-24T16:20:24.208Z</time></trkpt><trkpt lat="44.6943336" lon="10.2368755"><ele>186.25</ele><time>2026-04-24T16:20:25.209Z</time></trkpt><trkpt lat="44.6943775" lon="10.2366941"><ele>186.0</ele><time>2026-04-24T16:20:26.209Z</time></trkpt><trkpt lat="44.6944222" lon="10.2365395"><ele>186.0</ele><time>2026-04-24T16:20:27.21Z</time></trkpt><trkpt lat="44.6944597" lon="10.2363958"><ele>186.0</ele><time>2026-04-24T16:20:28.209Z</time></trkpt><trkpt lat="44.6944902" lon="10.2362587"><ele>186.0</ele><time>2026-04-24T16:20:29.208Z</time></trkpt><trkpt lat="44.6945228" lon="10.2361296"><ele>186.0</ele><time>2026-04-24T16:20:30.209Z</time></trkpt><trkpt lat="44.6945594" lon="10.2360033"><ele>186.0</ele><time>2026-04-24T16:20:31.209Z</time></trkpt><trkpt lat="44.6945938" lon="10.2358798"><ele>186.00000000000003</ele><time>2026-04-24T16:20:32.209Z</time></trkpt><trkpt lat="44.6946228" lon="10.2357596"><ele>186.0</ele><time>2026-04-24T16:20:33.21Z</time></trkpt><trkpt lat="44.6946512" lon="10.2356505"><ele>186.0</ele><time>2026-04-24T16:20:34.209Z</time></trkpt><trkpt lat="44.6946817" lon="10.2355534"><ele>186.0</ele><time>2026-04-24T16:20:35.209Z</time></trkpt><trkpt lat="44.6947092" lon="10.2354682"><ele>186.0</ele><time>2026-04-24T16:20:36.209Z</time></trkpt><trkpt lat="44.6947341" lon="10.2353863"><ele>186.00000000000003</ele><time>2026-04-24T16:20:37.21Z</time></trkpt><trkpt lat="44.694759" lon="10.2352983"><ele>186.0</ele><time>2026-04-24T16:20:38.21Z</time></trkpt><trkpt lat="44.6947849" lon="10.2351914"><ele>186.0</ele><time>2026-04-24T16:20:39.208Z</time></trkpt><trkpt lat="44.6948146" lon="10.2350611"><ele>186.0</ele><time>2026-04-24T16:20:40.208Z</time></trkpt><trkpt lat="44.694854" lon="10.2349087"><ele>186.0</ele><time>2026-04-24T16:20:41.209Z</time></trkpt><trkpt lat="44.6948944" lon="10.2347344"><ele>186.0</ele><time>2026-04-24T16:20:42.209Z</time></trkpt><trkpt lat="44.6949415" lon="10.2345398"><ele>186.0</ele><time>2026-04-24T16:20:43.208Z</time></trkpt><trkpt lat="44.6949942" lon="10.2343308"><ele>186.0</ele><time>2026-04-24T16:20:44.209Z</time></trkpt><trkpt lat="44.6950496" lon="10.2341163"><ele>186.0</ele><time>2026-04-24T16:20:45.208Z</time></trkpt><trkpt lat="44.6951047" lon="10.2338945"><ele>186.33333333333334</ele><time>2026-04-24T16:20:46.208Z</time></trkpt><trkpt lat="44.6951592" lon="10.2336744"><ele>186.66666666666669</ele><time>2026-04-24T16:20:47.21Z</time></trkpt><trkpt lat="44.6952154" lon="10.2334535"><ele>187.0</ele><time>2026-04-24T16:20:48.209Z</time></trkpt><trkpt lat="44.6952719" lon="10.2332363"><ele>187.0</ele><time>2026-04-24T16:20:49.209Z</time></trkpt><trkpt lat="44.6953252" lon="10.2330203"><ele>187.0</ele><time>2026-04-24T16:20:50.21Z</time></trkpt><trkpt lat="44.6953782" lon="10.2328097"><ele>187.0</ele><time>2026-04-24T16:20:51.208Z</time></trkpt><trkpt lat="44.6954336" lon="10.2326063"><ele>187.0</ele><time>2026-04-24T16:20:52.209Z</time></trkpt><trkpt lat="44.6954879" lon="10.2324123"><ele>187.0</ele><time>2026-04-24T16:20:53.21Z</time></trkpt><trkpt lat="44.6955345" lon="10.2322222"><ele>187.0</ele><time>2026-04-24T16:20:54.209Z</time></trkpt><trkpt lat="44.6955756" lon="10.2320402"><ele>187.0</ele><time>2026-04-24T16:20:55.21Z</time></trkpt><trkpt lat="44.6956133" lon="10.2318728"><ele>187.0</ele><time>2026-04-24T16:20:56.209Z</time></trkpt><trkpt lat="44.6956519" lon="10.2317184"><ele>187.0</ele><time>2026-04-24T16:20:57.208Z</time></trkpt><trkpt lat="44.6956878" lon="10.2315751"><ele>187.0</ele><time>2026-04-24T16:20:58.21Z</time></trkpt><trkpt lat="44.6957212" lon="10.2314434"><ele>187.0</ele><time>2026-04-24T16:20:59.21Z</time></trkpt><trkpt lat="44.6957586" lon="10.2313278"><ele>187.0</ele><time>2026-04-24T16:21:00.208Z</time></trkpt><trkpt lat="44.6958099" lon="10.2312385"><ele>186.8</ele><time>2026-04-24T16:21:01.209Z</time></trkpt><trkpt lat="44.6958783" lon="10.231189"><ele>186.6</ele><time>2026-04-24T16:21:02.209Z</time></trkpt><trkpt lat="44.6959659" lon="10.2311856"><ele>186.4</ele><time>2026-04-24T16:21:03.209Z</time></trkpt><trkpt lat="44.6960683" lon="10.2312216"><ele>186.20000000000002</ele><time>2026-04-24T16:21:04.209Z</time></trkpt><trkpt lat="44.6961858" lon="10.231298"><ele>186.0</ele><time>2026-04-24T16:21:05.209Z</time></trkpt><trkpt lat="44.6963225" lon="10.2313942"><ele>185.33333333333334</ele><time>2026-04-24T16:21:06.209Z</time></trkpt><trkpt lat="44.6964786" lon="10.2314905"><ele>184.66666666666669</ele><time>2026-04-24T16:21:07.209Z</time></trkpt><trkpt lat="44.6966441" lon="10.231599"><ele>184.0</ele><time>2026-04-24T16:21:08.209Z</time></trkpt><trkpt lat="44.6968199" lon="10.2317129"><ele>184.66666666666669</ele><time>2026-04-24T16:21:09.209Z</time></trkpt><trkpt lat="44.6970047" lon="10.2318288"><ele>185.33333333333334</ele><time>2026-04-24T16:21:10.209Z</time></trkpt><trkpt lat="44.6971868" lon="10.2319372"><ele>186.0</ele><time>2026-04-24T16:21:11.208Z</time></trkpt><trkpt lat="44.6973655" lon="10.2320353"><ele>186.0</ele><time>2026-04-24T16:21:12.21Z</time></trkpt><trkpt lat="44.6975418" lon="10.2321178"><ele>186.0</ele><time>2026-04-24T16:21:13.209Z</time></trkpt><trkpt lat="44.6977185" lon="10.2322006"><ele>186.0</ele><time>2026-04-24T16:21:14.21Z</time></trkpt><trkpt lat="44.6978919" lon="10.2322873"><ele>185.33333333333334</ele><time>2026-04-24T16:21:15.21Z</time></trkpt><trkpt lat="44.698066" lon="10.2323788"><ele>184.66666666666669</ele><time>2026-04-24T16:21:16.208Z</time></trkpt><trkpt lat="44.6982393" lon="10.2324639"><ele>184.0</ele><time>2026-04-24T16:21:17.208Z</time></trkpt><trkpt lat="44.6984145" lon="10.2325519"><ele>183.66666666666669</ele><time>2026-04-24T16:21:18.21Z</time></trkpt><trkpt lat="44.698596" lon="10.232637"><ele>183.33333333333334</ele><time>2026-04-24T16:21:19.209Z</time></trkpt><trkpt lat="44.6987751" lon="10.2327265"><ele>183.0</ele><time>2026-04-24T16:21:20.208Z</time></trkpt><trkpt lat="44.698961" lon="10.2328128"><ele>183.0</ele><time>2026-04-24T16:21:21.208Z</time></trkpt><trkpt lat="44.6991474" lon="10.2329002"><ele>183.0</ele><time>2026-04-24T16:21:22.209Z</time></trkpt><trkpt lat="44.6993345" lon="10.2329867"><ele>183.0</ele><time>2026-04-24T16:21:23.209Z</time></trkpt><trkpt lat="44.6995182" lon="10.2330723"><ele>182.33333333333334</ele><time>2026-04-24T16:21:24.209Z</time></trkpt><trkpt lat="44.699701" lon="10.2331593"><ele>181.66666666666669</ele><time>2026-04-24T16:21:25.209Z</time></trkpt><trkpt lat="44.6998824" lon="10.2332509"><ele>181.0</ele><time>2026-04-24T16:21:26.21Z</time></trkpt><trkpt lat="44.7000602" lon="10.2333498"><ele>181.0</ele><time>2026-04-24T16:21:27.209Z</time></trkpt><trkpt lat="44.7002282" lon="10.2334676"><ele>181.0</ele><time>2026-04-24T16:21:28.208Z</time></trkpt><trkpt lat="44.700389" lon="10.2336089"><ele>181.0</ele><time>2026-04-24T16:21:29.21Z</time></trkpt><trkpt lat="44.7005417" lon="10.2337655"><ele>180.33333333333334</ele><time>2026-04-24T16:21:30.209Z</time></trkpt><trkpt lat="44.700683" lon="10.2339266"><ele>179.66666666666666</ele><time>2026-04-24T16:21:31.209Z</time></trkpt><trkpt lat="44.7008213" lon="10.234089"><ele>179.0</ele><time>2026-04-24T16:21:32.208Z</time></trkpt><trkpt lat="44.7009541" lon="10.2342476"><ele>179.0</ele><time>2026-04-24T16:21:33.21Z</time></trkpt><trkpt lat="44.7010773" lon="10.2344012"><ele>179.0</ele><time>2026-04-24T16:21:34.208Z</time></trkpt><trkpt lat="44.7011985" lon="10.2345441"><ele>179.0</ele><time>2026-04-24T16:21:35.208Z</time></trkpt><trkpt lat="44.7013233" lon="10.2346946"><ele>178.75</ele><time>2026-04-24T16:21:36.209Z</time></trkpt><trkpt lat="44.7014415" lon="10.234826"><ele>178.5</ele><time>2026-04-24T16:21:37.21Z</time></trkpt><trkpt lat="44.7015528" lon="10.2349589"><ele>178.25</ele><time>2026-04-24T16:21:38.209Z</time></trkpt><trkpt lat="44.7016555" lon="10.2350754"><ele>178.0</ele><time>2026-04-24T16:21:39.21Z</time></trkpt><trkpt lat="44.7017412" lon="10.2351797"><ele>178.0</ele><time>2026-04-24T16:21:40.209Z</time></trkpt><trkpt lat="44.7018144" lon="10.2352642"><ele>178.0</ele><time>2026-04-24T16:21:41.208Z</time></trkpt><trkpt lat="44.7018767" lon="10.2353494"><ele>178.0</ele><time>2026-04-24T16:21:42.21Z</time></trkpt><trkpt lat="44.7019247" lon="10.2354282"><ele>178.0</ele><time>2026-04-24T16:21:43.208Z</time></trkpt><trkpt lat="44.7019611" lon="10.2355025"><ele>178.0</ele><time>2026-04-24T16:21:44.208Z</time></trkpt><trkpt lat="44.7019955" lon="10.2356183"><ele>178.0</ele><time>2026-04-24T16:21:46.209Z</time></trkpt><trkpt lat="44.7019995" lon="10.2357272"><ele>177.5</ele><time>2026-04-24T16:21:48.209Z</time></trkpt><trkpt lat="44.7019647" lon="10.2359013"><ele>177.0</ele><time>2026-04-24T16:21:50.208Z</time></trkpt><trkpt lat="44.7019749" lon="10.2360645"><ele>176.5</ele><time>2026-04-24T16:21:52.208Z</time></trkpt><trkpt lat="44.7020646" lon="10.2361839"><ele>176.0</ele><time>2026-04-24T16:21:54.208Z</time></trkpt><trkpt lat="44.7021538" lon="10.236216"><ele>176.0</ele><time>2026-04-24T16:21:55.208Z</time></trkpt><trkpt lat="44.7022565" lon="10.2362105"><ele>176.0</ele><time>2026-04-24T16:21:56.208Z</time></trkpt><trkpt lat="44.7023676" lon="10.2362073"><ele>176.0</ele><time>2026-04-24T16:21:57.208Z</time></trkpt><trkpt lat="44.7025011" lon="10.2362334"><ele>176.0</ele><time>2026-04-24T16:21:58.207Z</time></trkpt><trkpt lat="44.7026433" lon="10.2362731"><ele>175.33333333333331</ele><time>2026-04-24T16:21:59.207Z</time></trkpt><trkpt lat="44.7027991" lon="10.236338"><ele>174.66666666666666</ele><time>2026-04-24T16:22:00.208Z</time></trkpt><trkpt lat="44.7029512" lon="10.2364308"><ele>174.0</ele><time>2026-04-24T16:22:01.208Z</time></trkpt><trkpt lat="44.7031092" lon="10.2365471"><ele>173.66666666666666</ele><time>2026-04-24T16:22:02.208Z</time></trkpt><trkpt lat="44.7032619" lon="10.2366597"><ele>173.33333333333331</ele><time>2026-04-24T16:22:03.209Z</time></trkpt><trkpt lat="44.7034016" lon="10.23677"><ele>173.0</ele><time>2026-04-24T16:22:04.209Z</time></trkpt><trkpt lat="44.7035344" lon="10.2368742"><ele>173.66666666666666</ele><time>2026-04-24T16:22:05.208Z</time></trkpt><trkpt lat="44.7036722" lon="10.236975"><ele>174.33333333333334</ele><time>2026-04-24T16:22:06.209Z</time></trkpt><trkpt lat="44.7038027" lon="10.2370761"><ele>175.0</ele><time>2026-04-24T16:22:07.209Z</time></trkpt><trkpt lat="44.7039317" lon="10.2371765"><ele>175.0</ele><time>2026-04-24T16:22:08.209Z</time></trkpt><trkpt lat="44.704063" lon="10.2372731"><ele>175.0</ele><time>2026-04-24T16:22:09.208Z</time></trkpt><trkpt lat="44.7041898" lon="10.2373656"><ele>175.0</ele><time>2026-04-24T16:22:10.207Z</time></trkpt><trkpt lat="44.7043115" lon="10.2374537"><ele>175.0</ele><time>2026-04-24T16:22:11.208Z</time></trkpt><trkpt lat="44.7044257" lon="10.2375414"><ele>174.75</ele><time>2026-04-24T16:22:12.207Z</time></trkpt><trkpt lat="44.7045381" lon="10.2376316"><ele>174.5</ele><time>2026-04-24T16:22:13.208Z</time></trkpt><trkpt lat="44.7046487" lon="10.2377248"><ele>174.25</ele><time>2026-04-24T16:22:14.207Z</time></trkpt><trkpt lat="44.7047566" lon="10.2378184"><ele>174.0</ele><time>2026-04-24T16:22:15.208Z</time></trkpt><trkpt lat="44.7048566" lon="10.2379204"><ele>174.0</ele><time>2026-04-24T16:22:16.207Z</time></trkpt><trkpt lat="44.7049481" lon="10.2380247"><ele>174.0</ele><time>2026-04-24T16:22:17.208Z</time></trkpt><trkpt lat="44.7050216" lon="10.23812"><ele>174.0</ele><time>2026-04-24T16:22:18.207Z</time></trkpt><trkpt lat="44.7050761" lon="10.2382138"><ele>174.0</ele><time>2026-04-24T16:22:19.207Z</time></trkpt><trkpt lat="44.7051024" lon="10.2383148"><ele>174.0</ele><time>2026-04-24T16:22:20.209Z</time></trkpt><trkpt lat="44.7051217" lon="10.2384129"><ele>173.85714285714286</ele><time>2026-04-24T16:22:21.209Z</time></trkpt><trkpt lat="44.7051329" lon="10.2385089"><ele>173.71428571428572</ele><time>2026-04-24T16:22:22.207Z</time></trkpt><trkpt lat="44.7051567" lon="10.238597"><ele>173.57142857142856</ele><time>2026-04-24T16:22:23.208Z</time></trkpt><trkpt lat="44.7051939" lon="10.2386764"><ele>173.42857142857144</ele><time>2026-04-24T16:22:24.209Z</time></trkpt><trkpt lat="44.7052513" lon="10.2387324"><ele>173.2857142857143</ele><time>2026-04-24T16:22:25.207Z</time></trkpt><trkpt lat="44.705326" lon="10.2387509"><ele>173.14285714285714</ele><time>2026-04-24T16:22:26.208Z</time></trkpt><trkpt lat="44.7054119" lon="10.2387269"><ele>173.0</ele><time>2026-04-24T16:22:27.209Z</time></trkpt><trkpt lat="44.7055154" lon="10.2386949"><ele>172.25</ele><time>2026-04-24T16:22:28.207Z</time></trkpt><trkpt lat="44.7056293" lon="10.2386707"><ele>171.5</ele><time>2026-04-24T16:22:29.207Z</time></trkpt><trkpt lat="44.705758" lon="10.2386633"><ele>170.75</ele><time>2026-04-24T16:22:30.209Z</time></trkpt><trkpt lat="44.7058914" lon="10.2386745"><ele>170.0</ele><time>2026-04-24T16:22:31.208Z</time></trkpt><trkpt lat="44.7060201" lon="10.2386957"><ele>170.25</ele><time>2026-04-24T16:22:32.208Z</time></trkpt><trkpt lat="44.7061452" lon="10.2387363"><ele>170.5</ele><time>2026-04-24T16:22:33.208Z</time></trkpt><trkpt lat="44.706265" lon="10.2387945"><ele>170.75</ele><time>2026-04-24T16:22:34.208Z</time></trkpt><trkpt lat="44.7063949" lon="10.238872"><ele>171.0</ele><time>2026-04-24T16:22:35.208Z</time></trkpt><trkpt lat="44.7065293" lon="10.2389584"><ele>171.0</ele><time>2026-04-24T16:22:36.208Z</time></trkpt><trkpt lat="44.706665" lon="10.2390537"><ele>171.0</ele><time>2026-04-24T16:22:37.208Z</time></trkpt><trkpt lat="44.7067989" lon="10.2391421"><ele>171.0</ele><time>2026-04-24T16:22:38.208Z</time></trkpt><trkpt lat="44.7069304" lon="10.2392287"><ele>171.0</ele><time>2026-04-24T16:22:39.209Z</time></trkpt><trkpt lat="44.7070673" lon="10.2393126"><ele>171.0</ele><time>2026-04-24T16:22:40.208Z</time></trkpt><trkpt lat="44.7072007" lon="10.239401"><ele>171.0</ele><time>2026-04-24T16:22:41.208Z</time></trkpt><trkpt lat="44.7073259" lon="10.2394819"><ele>171.0</ele><time>2026-04-24T16:22:42.209Z</time></trkpt><trkpt lat="44.7074299" lon="10.2395531"><ele>171.0</ele><time>2026-04-24T16:22:43.208Z</time></trkpt><trkpt lat="44.7075223" lon="10.2396117"><ele>171.0</ele><time>2026-04-24T16:22:44.207Z</time></trkpt><trkpt lat="44.7076067" lon="10.2396581"><ele>171.0</ele><time>2026-04-24T16:22:45.208Z</time></trkpt><trkpt lat="44.707687" lon="10.2397037"><ele>171.0</ele><time>2026-04-24T16:22:46.208Z</time></trkpt><trkpt lat="44.7077778" lon="10.2397504"><ele>171.0</ele><time>2026-04-24T16:22:47.209Z</time></trkpt><trkpt lat="44.7078852" lon="10.2397902"><ele>171.0</ele><time>2026-04-24T16:22:48.208Z</time></trkpt><trkpt lat="44.7080208" lon="10.2398354"><ele>171.0</ele><time>2026-04-24T16:22:49.208Z</time></trkpt><trkpt lat="44.7081685" lon="10.2398741"><ele>171.0</ele><time>2026-04-24T16:22:50.208Z</time></trkpt><trkpt lat="44.70831" lon="10.2399103"><ele>171.0</ele><time>2026-04-24T16:22:51.208Z</time></trkpt><trkpt lat="44.70843" lon="10.2399667"><ele>171.0</ele><time>2026-04-24T16:22:52.207Z</time></trkpt><trkpt lat="44.7085263" lon="10.2400701"><ele>170.60000000000002</ele><time>2026-04-24T16:22:53.207Z</time></trkpt><trkpt lat="44.708606" lon="10.2401928"><ele>170.2</ele><time>2026-04-24T16:22:54.208Z</time></trkpt><trkpt lat="44.7086928" lon="10.2402586"><ele>169.8</ele><time>2026-04-24T16:22:55.209Z</time></trkpt><trkpt lat="44.7087869" lon="10.2402828"><ele>169.39999999999998</ele><time>2026-04-24T16:22:56.208Z</time></trkpt><trkpt lat="44.7088667" lon="10.2402569"><ele>169.0</ele><time>2026-04-24T16:22:57.209Z</time></trkpt><trkpt lat="44.7089255" lon="10.2401932"><ele>169.0</ele><time>2026-04-24T16:22:58.208Z</time></trkpt><trkpt lat="44.7089564" lon="10.2401137"><ele>169.0</ele><time>2026-04-24T16:22:59.208Z</time></trkpt><trkpt lat="44.7089634" lon="10.2400117"><ele>169.0</ele><time>2026-04-24T16:23:00.208Z</time></trkpt><trkpt lat="44.7089671" lon="10.2398976"><ele>169.0</ele><time>2026-04-24T16:23:01.207Z</time></trkpt><trkpt lat="44.7089759" lon="10.2397865"><ele>169.0</ele><time>2026-04-24T16:23:02.208Z</time></trkpt><trkpt lat="44.708998" lon="10.2396784"><ele>169.0</ele><time>2026-04-24T16:23:03.208Z</time></trkpt><trkpt lat="44.709036" lon="10.2395649"><ele>169.5</ele><time>2026-04-24T16:23:04.208Z</time></trkpt><trkpt lat="44.7090884" lon="10.2394408"><ele>170.0</ele><time>2026-04-24T16:23:05.207Z</time></trkpt><trkpt lat="44.7091493" lon="10.2393204"><ele>170.5</ele><time>2026-04-24T16:23:06.209Z</time></trkpt><trkpt lat="44.7092133" lon="10.2391809"><ele>171.0</ele><time>2026-04-24T16:23:07.208Z</time></trkpt><trkpt lat="44.7092944" lon="10.2390084"><ele>170.33333333333334</ele><time>2026-04-24T16:23:08.207Z</time></trkpt><trkpt lat="44.7093863" lon="10.2388129"><ele>169.66666666666669</ele><time>2026-04-24T16:23:09.207Z</time></trkpt><trkpt lat="44.7094773" lon="10.2386109"><ele>169.0</ele><time>2026-04-24T16:23:10.208Z</time></trkpt><trkpt lat="44.7095569" lon="10.2384233"><ele>168.5</ele><time>2026-04-24T16:23:11.208Z</time></trkpt><trkpt lat="44.7096316" lon="10.238248"><ele>168.0</ele><time>2026-04-24T16:23:12.208Z</time></trkpt><trkpt lat="44.7097046" lon="10.2380815"><ele>167.5</ele><time>2026-04-24T16:23:13.208Z</time></trkpt><trkpt lat="44.7097746" lon="10.2379132"><ele>167.0</ele><time>2026-04-24T16:23:14.207Z</time></trkpt><trkpt lat="44.7098436" lon="10.237735"><ele>166.75</ele><time>2026-04-24T16:23:15.208Z</time></trkpt><trkpt lat="44.7099157" lon="10.2375563"><ele>166.5</ele><time>2026-04-24T16:23:16.209Z</time></trkpt><trkpt lat="44.7099906" lon="10.2373849"><ele>166.25</ele><time>2026-04-24T16:23:17.208Z</time></trkpt><trkpt lat="44.710062" lon="10.2372191"><ele>166.0</ele><time>2026-04-24T16:23:18.208Z</time></trkpt><trkpt lat="44.7101384" lon="10.2370472"><ele>165.0</ele><time>2026-04-24T16:23:19.209Z</time></trkpt><trkpt lat="44.7102187" lon="10.2368676"><ele>164.0</ele><time>2026-04-24T16:23:20.208Z</time></trkpt><trkpt lat="44.7102975" lon="10.2366835"><ele>163.0</ele><time>2026-04-24T16:23:21.208Z</time></trkpt><trkpt lat="44.7103781" lon="10.2364961"><ele>163.0</ele><time>2026-04-24T16:23:22.208Z</time></trkpt><trkpt lat="44.7104522" lon="10.2363224"><ele>163.0</ele><time>2026-04-24T16:23:23.208Z</time></trkpt><trkpt lat="44.7105249" lon="10.2361483"><ele>163.0</ele><time>2026-04-24T16:23:24.209Z</time></trkpt><trkpt lat="44.7105963" lon="10.2359732"><ele>163.0</ele><time>2026-04-24T16:23:25.208Z</time></trkpt><trkpt lat="44.7106712" lon="10.2357999"><ele>163.25</ele><time>2026-04-24T16:23:26.208Z</time></trkpt><trkpt lat="44.7107467" lon="10.235624"><ele>163.5</ele><time>2026-04-24T16:23:27.208Z</time></trkpt><trkpt lat="44.7108218" lon="10.2354481"><ele>163.75</ele><time>2026-04-24T16:23:28.208Z</time></trkpt><trkpt lat="44.7108983" lon="10.2352753"><ele>164.0</ele><time>2026-04-24T16:23:29.209Z</time></trkpt><trkpt lat="44.7109717" lon="10.2351025"><ele>164.0</ele><time>2026-04-24T16:23:30.208Z</time></trkpt><trkpt lat="44.7110482" lon="10.234933"><ele>164.0</ele><time>2026-04-24T16:23:31.209Z</time></trkpt><trkpt lat="44.7111261" lon="10.2347414"><ele>164.0</ele><time>2026-04-24T16:23:32.209Z</time></trkpt><trkpt lat="44.7112036" lon="10.2345548"><ele>164.0</ele><time>2026-04-24T16:23:33.207Z</time></trkpt><trkpt lat="44.7112856" lon="10.2343707"><ele>164.0</ele><time>2026-04-24T16:23:34.208Z</time></trkpt><trkpt lat="44.7113665" lon="10.2341883"><ele>164.0</ele><time>2026-04-24T16:23:35.207Z</time></trkpt><trkpt lat="44.7114527" lon="10.2340071"><ele>164.75</ele><time>2026-04-24T16:23:36.207Z</time></trkpt><trkpt lat="44.7115356" lon="10.2338237"><ele>165.5</ele><time>2026-04-24T16:23:37.209Z</time></trkpt><trkpt lat="44.7116131" lon="10.2336477"><ele>166.25</ele><time>2026-04-24T16:23:38.207Z</time></trkpt><trkpt lat="44.7116886" lon="10.2334786"><ele>167.0</ele><time>2026-04-24T16:23:39.209Z</time></trkpt><trkpt lat="44.711765" lon="10.2333025"><ele>167.0</ele><time>2026-04-24T16:23:40.207Z</time></trkpt><trkpt lat="44.7118429" lon="10.2331274"><ele>167.0</ele><time>2026-04-24T16:23:41.208Z</time></trkpt><trkpt lat="44.7119201" lon="10.2329626"><ele>167.0</ele><time>2026-04-24T16:23:42.208Z</time></trkpt><trkpt lat="44.711992" lon="10.2328133"><ele>167.0</ele><time>2026-04-24T16:23:43.209Z</time></trkpt><trkpt lat="44.7120573" lon="10.232671"><ele>167.0</ele><time>2026-04-24T16:23:44.209Z</time></trkpt><trkpt lat="44.7121191" lon="10.2325456"><ele>167.0</ele><time>2026-04-24T16:23:45.207Z</time></trkpt><trkpt lat="44.712165" lon="10.2324483"><ele>167.0</ele><time>2026-04-24T16:23:46.207Z</time></trkpt><trkpt lat="44.7122228" lon="10.2323055"><ele>167.0</ele><time>2026-04-24T16:23:48.209Z</time></trkpt><trkpt lat="44.7122873" lon="10.2321815"><ele>167.0</ele><time>2026-04-24T16:23:50.208Z</time></trkpt><trkpt lat="44.712355" lon="10.2320403"><ele>166.83333333333331</ele><time>2026-04-24T16:23:52.207Z</time></trkpt><trkpt lat="44.7124107" lon="10.2319623"><ele>166.66666666666666</ele><time>2026-04-24T16:23:53.209Z</time></trkpt><trkpt lat="44.7124762" lon="10.2318857"><ele>166.5</ele><time>2026-04-24T16:23:54.207Z</time></trkpt><trkpt lat="44.7125504" lon="10.2318188"><ele>166.33333333333334</ele><time>2026-04-24T16:23:55.208Z</time></trkpt><trkpt lat="44.7126324" lon="10.231761"><ele>166.16666666666669</ele><time>2026-04-24T16:23:56.208Z</time></trkpt><trkpt lat="44.712723" lon="10.2317105"><ele>166.0</ele><time>2026-04-24T16:23:57.208Z</time></trkpt><trkpt lat="44.7128219" lon="10.2316676"><ele>166.4</ele><time>2026-04-24T16:23:58.208Z</time></trkpt><trkpt lat="44.7129233" lon="10.2316257"><ele>166.8</ele><time>2026-04-24T16:23:59.209Z</time></trkpt><trkpt lat="44.7130287" lon="10.2315813"><ele>167.20000000000002</ele><time>2026-04-24T16:24:00.208Z</time></trkpt><trkpt lat="44.7131333" lon="10.2315406"><ele>167.60000000000002</ele><time>2026-04-24T16:24:01.207Z</time></trkpt><trkpt lat="44.7132303" lon="10.2315027"><ele>168.0</ele><time>2026-04-24T16:24:02.208Z</time></trkpt><trkpt lat="44.7133276" lon="10.2314613"><ele>168.0</ele><time>2026-04-24T16:24:03.208Z</time></trkpt><trkpt lat="44.7134268" lon="10.2314136"><ele>168.0</ele><time>2026-04-24T16:24:04.207Z</time></trkpt><trkpt lat="44.7135279" lon="10.2313673"><ele>168.0</ele><time>2026-04-24T16:24:05.209Z</time></trkpt><trkpt lat="44.7136338" lon="10.2313226"><ele>168.0</ele><time>2026-04-24T16:24:06.207Z</time></trkpt><trkpt lat="44.7137363" lon="10.2312813"><ele>168.0</ele><time>2026-04-24T16:24:07.208Z</time></trkpt><trkpt lat="44.7138423" lon="10.2312475"><ele>167.60000000000002</ele><time>2026-04-24T16:24:08.209Z</time></trkpt><trkpt lat="44.7139479" lon="10.2312246"><ele>167.20000000000002</ele><time>2026-04-24T16:24:09.208Z</time></trkpt><trkpt lat="44.71405" lon="10.2312212"><ele>166.8</ele><time>2026-04-24T16:24:10.207Z</time></trkpt><trkpt lat="44.7141506" lon="10.2312353"><ele>166.4</ele><time>2026-04-24T16:24:11.209Z</time></trkpt><trkpt lat="44.7142613" lon="10.2312637"><ele>166.0</ele><time>2026-04-24T16:24:12.209Z</time></trkpt><trkpt lat="44.7143582" lon="10.2312959"><ele>165.4</ele><time>2026-04-24T16:24:13.208Z</time></trkpt><trkpt lat="44.7144473" lon="10.2313285"><ele>164.8</ele><time>2026-04-24T16:24:14.207Z</time></trkpt><trkpt lat="44.7145414" lon="10.2313606"><ele>164.20000000000002</ele><time>2026-04-24T16:24:15.208Z</time></trkpt><trkpt lat="44.7146461" lon="10.231387"><ele>163.60000000000002</ele><time>2026-04-24T16:24:16.209Z</time></trkpt><trkpt lat="44.7147715" lon="10.23142"><ele>163.0</ele><time>2026-04-24T16:24:17.208Z</time></trkpt><trkpt lat="44.7149257" lon="10.231465"><ele>163.0</ele><time>2026-04-24T16:24:18.209Z</time></trkpt><trkpt lat="44.715078" lon="10.2315227"><ele>163.0</ele><time>2026-04-24T16:24:19.209Z</time></trkpt><trkpt lat="44.7152297" lon="10.2315811"><ele>163.0</ele><time>2026-04-24T16:24:20.207Z</time></trkpt><trkpt lat="44.7153694" lon="10.2316304"><ele>163.0</ele><time>2026-04-24T16:24:21.208Z</time></trkpt><trkpt lat="44.7155068" lon="10.2316755"><ele>163.0</ele><time>2026-04-24T16:24:22.207Z</time></trkpt><trkpt lat="44.7156608" lon="10.2317215"><ele>163.0</ele><time>2026-04-24T16:24:23.208Z</time></trkpt><trkpt lat="44.7158441" lon="10.2317691"><ele>163.0</ele><time>2026-04-24T16:24:24.208Z</time></trkpt><trkpt lat="44.7160373" lon="10.2318224"><ele>163.0</ele><time>2026-04-24T16:24:25.208Z</time></trkpt><trkpt lat="44.7162146" lon="10.2318759"><ele>163.0</ele><time>2026-04-24T16:24:26.208Z</time></trkpt><trkpt lat="44.7163783" lon="10.231928"><ele>162.75</ele><time>2026-04-24T16:24:27.209Z</time></trkpt><trkpt lat="44.7165307" lon="10.231975"><ele>162.5</ele><time>2026-04-24T16:24:28.207Z</time></trkpt><trkpt lat="44.71667" lon="10.2320159"><ele>162.25</ele><time>2026-04-24T16:24:29.208Z</time></trkpt><trkpt lat="44.7168078" lon="10.2320572"><ele>162.0</ele><time>2026-04-24T16:24:30.207Z</time></trkpt><trkpt lat="44.7169437" lon="10.2320954"><ele>161.25</ele><time>2026-04-24T16:24:31.208Z</time></trkpt><trkpt lat="44.7170797" lon="10.2321335"><ele>160.5</ele><time>2026-04-24T16:24:32.208Z</time></trkpt><trkpt lat="44.7172135" lon="10.2321777"><ele>159.75</ele><time>2026-04-24T16:24:33.207Z</time></trkpt><trkpt lat="44.7173509" lon="10.2322234"><ele>159.0</ele><time>2026-04-24T16:24:34.208Z</time></trkpt><trkpt lat="44.7174911" lon="10.2322757"><ele>159.0</ele><time>2026-04-24T16:24:35.207Z</time></trkpt><trkpt lat="44.7176351" lon="10.2323193"><ele>159.0</ele><time>2026-04-24T16:24:36.208Z</time></trkpt><trkpt lat="44.7177762" lon="10.2323648"><ele>159.0</ele><time>2026-04-24T16:24:37.209Z</time></trkpt><trkpt lat="44.7179186" lon="10.2324069"><ele>159.0</ele><time>2026-04-24T16:24:38.208Z</time></trkpt><trkpt lat="44.7180594" lon="10.2324484"><ele>158.75</ele><time>2026-04-24T16:24:39.209Z</time></trkpt><trkpt lat="44.7181966" lon="10.2324868"><ele>158.5</ele><time>2026-04-24T16:24:40.208Z</time></trkpt><trkpt lat="44.7183241" lon="10.232522"><ele>158.25</ele><time>2026-04-24T16:24:41.207Z</time></trkpt><trkpt lat="44.7184421" lon="10.232562"><ele>158.0</ele><time>2026-04-24T16:24:42.207Z</time></trkpt><trkpt lat="44.718554" lon="10.2325922"><ele>157.8</ele><time>2026-04-24T16:24:43.208Z</time></trkpt><trkpt lat="44.718654" lon="10.2326244"><ele>157.60000000000002</ele><time>2026-04-24T16:24:44.208Z</time></trkpt><trkpt lat="44.7187477" lon="10.2326566"><ele>157.39999999999998</ele><time>2026-04-24T16:24:45.208Z</time></trkpt><trkpt lat="44.7188394" lon="10.2326838"><ele>157.2</ele><time>2026-04-24T16:24:46.208Z</time></trkpt><trkpt lat="44.718926" lon="10.2327078"><ele>157.0</ele><time>2026-04-24T16:24:47.209Z</time></trkpt><trkpt lat="44.719016" lon="10.232737"><ele>157.0</ele><time>2026-04-24T16:24:48.207Z</time></trkpt><trkpt lat="44.7191166" lon="10.2327713"><ele>157.0</ele><time>2026-04-24T16:24:49.208Z</time></trkpt><trkpt lat="44.7192166" lon="10.232801"><ele>157.0</ele><time>2026-04-24T16:24:50.207Z</time></trkpt><trkpt lat="44.7193183" lon="10.2328259"><ele>157.0</ele><time>2026-04-24T16:24:51.207Z</time></trkpt><trkpt lat="44.7194288" lon="10.2328575"><ele>157.0</ele><time>2026-04-24T16:24:52.208Z</time></trkpt><trkpt lat="44.719571" lon="10.2328941"><ele>157.0</ele><time>2026-04-24T16:24:53.208Z</time></trkpt><trkpt lat="44.7197303" lon="10.2329417"><ele>157.0</ele><time>2026-04-24T16:24:54.208Z</time></trkpt><trkpt lat="44.7198926" lon="10.2329936"><ele>157.0</ele><time>2026-04-24T16:24:55.207Z</time></trkpt><trkpt lat="44.7200677" lon="10.2330518"><ele>156.66666666666669</ele><time>2026-04-24T16:24:56.209Z</time></trkpt><trkpt lat="44.720236" lon="10.2331121"><ele>156.33333333333334</ele><time>2026-04-24T16:24:57.208Z</time></trkpt><trkpt lat="44.7203973" lon="10.23317"><ele>156.0</ele><time>2026-04-24T16:24:58.207Z</time></trkpt><trkpt lat="44.720556" lon="10.2332299"><ele>156.0</ele><time>2026-04-24T16:24:59.209Z</time></trkpt><trkpt lat="44.7207052" lon="10.2332887"><ele>156.0</ele><time>2026-04-24T16:25:00.208Z</time></trkpt><trkpt lat="44.7208414" lon="10.233334"><ele>156.0</ele><time>2026-04-24T16:25:01.208Z</time></trkpt><trkpt lat="44.7209696" lon="10.2333708"><ele>156.0</ele><time>2026-04-24T16:25:02.207Z</time></trkpt><trkpt lat="44.7210856" lon="10.2334063"><ele>155.4</ele><time>2026-04-24T16:25:03.208Z</time></trkpt><trkpt lat="44.7211962" lon="10.2334324"><ele>154.8</ele><time>2026-04-24T16:25:04.209Z</time></trkpt><trkpt lat="44.7212967" lon="10.2334579"><ele>154.20000000000002</ele><time>2026-04-24T16:25:05.208Z</time></trkpt><trkpt lat="44.7213895" lon="10.2334857"><ele>153.6</ele><time>2026-04-24T16:25:06.208Z</time></trkpt><trkpt lat="44.7214698" lon="10.2335054"><ele>153.0</ele><time>2026-04-24T16:25:07.208Z</time></trkpt><trkpt lat="44.7215348" lon="10.2335269"><ele>153.0</ele><time>2026-04-24T16:25:08.208Z</time></trkpt><trkpt lat="44.7215963" lon="10.2335464"><ele>153.0</ele><time>2026-04-24T16:25:09.207Z</time></trkpt><trkpt lat="44.7217159" lon="10.2335755"><ele>153.0</ele><time>2026-04-24T16:25:11.209Z</time></trkpt><trkpt lat="44.7217978" lon="10.2336018"><ele>153.0</ele><time>2026-04-24T16:25:12.208Z</time></trkpt><trkpt lat="44.7219046" lon="10.2336274"><ele>153.0</ele><time>2026-04-24T16:25:13.208Z</time></trkpt><trkpt lat="44.72202" lon="10.2336659"><ele>153.0</ele><time>2026-04-24T16:25:14.209Z</time></trkpt><trkpt lat="44.7221365" lon="10.2337054"><ele>153.0</ele><time>2026-04-24T16:25:15.208Z</time></trkpt><trkpt lat="44.7222601" lon="10.2337441"><ele>153.0</ele><time>2026-04-24T16:25:16.208Z</time></trkpt><trkpt lat="44.7223798" lon="10.2337795"><ele>153.0</ele><time>2026-04-24T16:25:17.207Z</time></trkpt><trkpt lat="44.7225055" lon="10.2338157"><ele>153.0</ele><time>2026-04-24T16:25:18.209Z</time></trkpt><trkpt lat="44.72264" lon="10.2338538"><ele>153.0</ele><time>2026-04-24T16:25:19.208Z</time></trkpt><trkpt lat="44.722781" lon="10.2338951"><ele>153.0</ele><time>2026-04-24T16:25:20.208Z</time></trkpt><trkpt lat="44.7229203" lon="10.2339378"><ele>153.0</ele><time>2026-04-24T16:25:21.209Z</time></trkpt><trkpt lat="44.7230632" lon="10.2339797"><ele>152.75</ele><time>2026-04-24T16:25:22.208Z</time></trkpt><trkpt lat="44.7232091" lon="10.2340232"><ele>152.5</ele><time>2026-04-24T16:25:23.208Z</time></trkpt><trkpt lat="44.7233535" lon="10.2340671"><ele>152.25</ele><time>2026-04-24T16:25:24.208Z</time></trkpt><trkpt lat="44.7234944" lon="10.2341086"><ele>152.0</ele><time>2026-04-24T16:25:25.208Z</time></trkpt><trkpt lat="44.7236383" lon="10.2341519"><ele>151.25</ele><time>2026-04-24T16:25:26.209Z</time></trkpt><trkpt lat="44.7237769" lon="10.2341962"><ele>150.5</ele><time>2026-04-24T16:25:27.208Z</time></trkpt><trkpt lat="44.7239064" lon="10.234237"><ele>149.75</ele><time>2026-04-24T16:25:28.207Z</time></trkpt><trkpt lat="44.7240324" lon="10.234277"><ele>149.0</ele><time>2026-04-24T16:25:29.208Z</time></trkpt><trkpt lat="44.724157" lon="10.234313"><ele>149.0</ele><time>2026-04-24T16:25:30.208Z</time></trkpt><trkpt lat="44.7242882" lon="10.2343493"><ele>149.0</ele><time>2026-04-24T16:25:31.208Z</time></trkpt><trkpt lat="44.7244274" lon="10.2343816"><ele>149.0</ele><time>2026-04-24T16:25:32.209Z</time></trkpt><trkpt lat="44.724565" lon="10.2344184"><ele>149.0</ele><time>2026-04-24T16:25:33.208Z</time></trkpt><trkpt lat="44.724706" lon="10.2344569"><ele>148.75</ele><time>2026-04-24T16:25:34.207Z</time></trkpt><trkpt lat="44.7248434" lon="10.2344945"><ele>148.5</ele><time>2026-04-24T16:25:35.207Z</time></trkpt><trkpt lat="44.724982" lon="10.2345359"><ele>148.25</ele><time>2026-04-24T16:25:36.208Z</time></trkpt><trkpt lat="44.7251233" lon="10.2345815"><ele>148.0</ele><time>2026-04-24T16:25:37.206Z</time></trkpt><trkpt lat="44.7252739" lon="10.2346161"><ele>148.0</ele><time>2026-04-24T16:25:38.207Z</time></trkpt><trkpt lat="44.7254369" lon="10.234656"><ele>148.0</ele><time>2026-04-24T16:25:39.207Z</time></trkpt><trkpt lat="44.7256127" lon="10.2347021"><ele>148.0</ele><time>2026-04-24T16:25:40.207Z</time></trkpt><trkpt lat="44.725801" lon="10.2347579"><ele>148.0</ele><time>2026-04-24T16:25:41.206Z</time></trkpt><trkpt lat="44.7260041" lon="10.2348198"><ele>148.0</ele><time>2026-04-24T16:25:42.208Z</time></trkpt><trkpt lat="44.7262106" lon="10.2348978"><ele>148.0</ele><time>2026-04-24T16:25:43.208Z</time></trkpt><trkpt lat="44.7264247" lon="10.2349774"><ele>148.0</ele><time>2026-04-24T16:25:44.206Z</time></trkpt><trkpt lat="44.7266406" lon="10.2350458"><ele>148.0</ele><time>2026-04-24T16:25:45.207Z</time></trkpt><trkpt lat="44.7268602" lon="10.2351147"><ele>148.0</ele><time>2026-04-24T16:25:46.206Z</time></trkpt><trkpt lat="44.7270784" lon="10.2351827"><ele>147.33333333333334</ele><time>2026-04-24T16:25:47.206Z</time></trkpt><trkpt lat="44.7272969" lon="10.23525"><ele>146.66666666666666</ele><time>2026-04-24T16:25:48.208Z</time></trkpt><trkpt lat="44.7275098" lon="10.2353173"><ele>146.0</ele><time>2026-04-24T16:25:49.207Z</time></trkpt><trkpt lat="44.727725" lon="10.2353856"><ele>145.66666666666666</ele><time>2026-04-24T16:25:50.207Z</time></trkpt><trkpt lat="44.727936" lon="10.235453"><ele>145.33333333333334</ele><time>2026-04-24T16:25:51.207Z</time></trkpt><trkpt lat="44.7281458" lon="10.2355233"><ele>145.0</ele><time>2026-04-24T16:25:52.207Z</time></trkpt><trkpt lat="44.7283565" lon="10.2355848"><ele>144.33333333333334</ele><time>2026-04-24T16:25:53.207Z</time></trkpt><trkpt lat="44.7285679" lon="10.2356442"><ele>143.66666666666666</ele><time>2026-04-24T16:25:54.208Z</time></trkpt><trkpt lat="44.7287801" lon="10.2357082"><ele>143.0</ele><time>2026-04-24T16:25:55.206Z</time></trkpt><trkpt lat="44.7289938" lon="10.2357727"><ele>143.0</ele><time>2026-04-24T16:25:56.207Z</time></trkpt><trkpt lat="44.729206" lon="10.2358383"><ele>143.0</ele><time>2026-04-24T16:25:57.207Z</time></trkpt><trkpt lat="44.7294154" lon="10.2359029"><ele>143.0</ele><time>2026-04-24T16:25:58.208Z</time></trkpt><trkpt lat="44.7296269" lon="10.2359734"><ele>142.33333333333331</ele><time>2026-04-24T16:25:59.207Z</time></trkpt><trkpt lat="44.7298436" lon="10.236047"><ele>141.66666666666666</ele><time>2026-04-24T16:26:00.207Z</time></trkpt><trkpt lat="44.7300567" lon="10.2361134"><ele>141.0</ele><time>2026-04-24T16:26:01.207Z</time></trkpt><trkpt lat="44.7302702" lon="10.2361759"><ele>140.66666666666666</ele><time>2026-04-24T16:26:02.207Z</time></trkpt><trkpt lat="44.7304867" lon="10.2362327"><ele>140.33333333333331</ele><time>2026-04-24T16:26:03.208Z</time></trkpt><trkpt lat="44.7307028" lon="10.2362934"><ele>140.0</ele><time>2026-04-24T16:26:04.207Z</time></trkpt><trkpt lat="44.7309301" lon="10.2363575"><ele>139.5</ele><time>2026-04-24T16:26:05.207Z</time></trkpt><trkpt lat="44.7311688" lon="10.2364254"><ele>139.0</ele><time>2026-04-24T16:26:06.208Z</time></trkpt><trkpt lat="44.7314221" lon="10.2365039"><ele>139.0</ele><time>2026-04-24T16:26:07.206Z</time></trkpt><trkpt lat="44.7316823" lon="10.2365893"><ele>139.0</ele><time>2026-04-24T16:26:08.207Z</time></trkpt><trkpt lat="44.7319476" lon="10.2366793"><ele>138.5</ele><time>2026-04-24T16:26:09.206Z</time></trkpt><trkpt lat="44.7322143" lon="10.236771"><ele>138.0</ele><time>2026-04-24T16:26:10.207Z</time></trkpt><trkpt lat="44.7324899" lon="10.2368635"><ele>135.5</ele><time>2026-04-24T16:26:11.207Z</time></trkpt><trkpt lat="44.7327621" lon="10.2369501"><ele>133.0</ele><time>2026-04-24T16:26:12.207Z</time></trkpt><trkpt lat="44.7330354" lon="10.2370373"><ele>133.0</ele><time>2026-04-24T16:26:13.206Z</time></trkpt><trkpt lat="44.7333078" lon="10.2371254"><ele>133.0</ele><time>2026-04-24T16:26:14.207Z</time></trkpt><trkpt lat="44.7335849" lon="10.2372102"><ele>133.5</ele><time>2026-04-24T16:26:15.208Z</time></trkpt><trkpt lat="44.7338569" lon="10.2372922"><ele>134.0</ele><time>2026-04-24T16:26:16.206Z</time></trkpt><trkpt lat="44.7341273" lon="10.2373738"><ele>135.0</ele><time>2026-04-24T16:26:17.207Z</time></trkpt><trkpt lat="44.7343937" lon="10.2374483"><ele>136.0</ele><time>2026-04-24T16:26:18.207Z</time></trkpt><trkpt lat="44.7346528" lon="10.2375257"><ele>136.0</ele><time>2026-04-24T16:26:19.207Z</time></trkpt><trkpt lat="44.734908" lon="10.237602"><ele>136.0</ele><time>2026-04-24T16:26:20.207Z</time></trkpt><trkpt lat="44.7351594" lon="10.2376792"><ele>135.5</ele><time>2026-04-24T16:26:21.207Z</time></trkpt><trkpt lat="44.7354062" lon="10.2377567"><ele>135.0</ele><time>2026-04-24T16:26:22.208Z</time></trkpt><trkpt lat="44.7356477" lon="10.2378294"><ele>135.0</ele><time>2026-04-24T16:26:23.207Z</time></trkpt><trkpt lat="44.7358879" lon="10.2379004"><ele>135.0</ele><time>2026-04-24T16:26:24.207Z</time></trkpt><trkpt lat="44.7361225" lon="10.2379706"><ele>133.5</ele><time>2026-04-24T16:26:25.207Z</time></trkpt><trkpt lat="44.7363539" lon="10.2380415"><ele>132.0</ele><time>2026-04-24T16:26:26.207Z</time></trkpt><trkpt lat="44.7365804" lon="10.2381129"><ele>132.0</ele><time>2026-04-24T16:26:27.207Z</time></trkpt><trkpt lat="44.7367951" lon="10.2381743"><ele>132.0</ele><time>2026-04-24T16:26:28.207Z</time></trkpt><trkpt lat="44.7370063" lon="10.2382379"><ele>132.0</ele><time>2026-04-24T16:26:29.207Z</time></trkpt><trkpt lat="44.7372187" lon="10.2383049"><ele>132.0</ele><time>2026-04-24T16:26:30.207Z</time></trkpt><trkpt lat="44.737435" lon="10.2383708"><ele>132.0</ele><time>2026-04-24T16:26:31.208Z</time></trkpt><trkpt lat="44.7376527" lon="10.2384374"><ele>132.0</ele><time>2026-04-24T16:26:32.208Z</time></trkpt><trkpt lat="44.7378743" lon="10.2385026"><ele>129.0</ele><time>2026-04-24T16:26:33.207Z</time></trkpt><trkpt lat="44.7380972" lon="10.2385707"><ele>126.0</ele><time>2026-04-24T16:26:34.208Z</time></trkpt><trkpt lat="44.7383253" lon="10.2386441"><ele>127.5</ele><time>2026-04-24T16:26:35.207Z</time></trkpt><trkpt lat="44.7385549" lon="10.2387151"><ele>129.0</ele><time>2026-04-24T16:26:36.207Z</time></trkpt><trkpt lat="44.738792" lon="10.2387889"><ele>129.0</ele><time>2026-04-24T16:26:37.208Z</time></trkpt><trkpt lat="44.7390308" lon="10.2388596"><ele>129.0</ele><time>2026-04-24T16:26:38.207Z</time></trkpt><trkpt lat="44.7392735" lon="10.2389299"><ele>127.5</ele><time>2026-04-24T16:26:39.207Z</time></trkpt><trkpt lat="44.7395198" lon="10.2389991"><ele>126.0</ele><time>2026-04-24T16:26:40.207Z</time></trkpt><trkpt lat="44.7397676" lon="10.2390746"><ele>126.0</ele><time>2026-04-24T16:26:41.207Z</time></trkpt><trkpt lat="44.7400025" lon="10.239142"><ele>126.0</ele><time>2026-04-24T16:26:42.208Z</time></trkpt><trkpt lat="44.7402214" lon="10.2392056"><ele>126.0</ele><time>2026-04-24T16:26:43.207Z</time></trkpt><trkpt lat="44.7404246" lon="10.2392706"><ele>126.0</ele><time>2026-04-24T16:26:44.207Z</time></trkpt><trkpt lat="44.740622" lon="10.2393257"><ele>126.0</ele><time>2026-04-24T16:26:45.208Z</time></trkpt><trkpt lat="44.7408067" lon="10.2393766"><ele>126.0</ele><time>2026-04-24T16:26:46.207Z</time></trkpt><trkpt lat="44.7409807" lon="10.2394291"><ele>126.0</ele><time>2026-04-24T16:26:47.206Z</time></trkpt><trkpt lat="44.7411486" lon="10.2394807"><ele>126.0</ele><time>2026-04-24T16:26:48.208Z</time></trkpt><trkpt lat="44.7413113" lon="10.2395325"><ele>126.0</ele><time>2026-04-24T16:26:49.207Z</time></trkpt><trkpt lat="44.7414593" lon="10.2395834"><ele>126.0</ele><time>2026-04-24T16:26:50.207Z</time></trkpt><trkpt lat="44.741586" lon="10.2396226"><ele>126.0</ele><time>2026-04-24T16:26:51.208Z</time></trkpt><trkpt lat="44.7416968" lon="10.2396674"><ele>126.0</ele><time>2026-04-24T16:26:52.208Z</time></trkpt><trkpt lat="44.741792" lon="10.2397181"><ele>126.0</ele><time>2026-04-24T16:26:53.207Z</time></trkpt><trkpt lat="44.7418689" lon="10.2397734"><ele>126.0</ele><time>2026-04-24T16:26:54.206Z</time></trkpt><trkpt lat="44.7419374" lon="10.2398287"><ele>126.0</ele><time>2026-04-24T16:26:55.208Z</time></trkpt><trkpt lat="44.7420122" lon="10.2398614"><ele>126.0</ele><time>2026-04-24T16:26:56.207Z</time></trkpt><trkpt lat="44.7420998" lon="10.2398645"><ele>126.0</ele><time>2026-04-24T16:26:57.207Z</time></trkpt><trkpt lat="44.7421952" lon="10.2398527"><ele>126.0</ele><time>2026-04-24T16:26:58.206Z</time></trkpt><trkpt lat="44.7423069" lon="10.2398583"><ele>124.75</ele><time>2026-04-24T16:26:59.207Z</time></trkpt><trkpt lat="44.7424307" lon="10.2398801"><ele>123.5</ele><time>2026-04-24T16:27:00.207Z</time></trkpt><trkpt lat="44.7425576" lon="10.2399153"><ele>122.25</ele><time>2026-04-24T16:27:01.207Z</time></trkpt><trkpt lat="44.7427015" lon="10.2399552"><ele>121.0</ele><time>2026-04-24T16:27:02.207Z</time></trkpt><trkpt lat="44.7428559" lon="10.2399996"><ele>121.0</ele><time>2026-04-24T16:27:03.206Z</time></trkpt><trkpt lat="44.7430221" lon="10.240053"><ele>121.0</ele><time>2026-04-24T16:27:04.208Z</time></trkpt><trkpt lat="44.7431979" lon="10.2401055"><ele>121.0</ele><time>2026-04-24T16:27:05.207Z</time></trkpt><trkpt lat="44.7433849" lon="10.2401601"><ele>121.0</ele><time>2026-04-24T16:27:06.207Z</time></trkpt><trkpt lat="44.7435774" lon="10.2402111"><ele>121.0</ele><time>2026-04-24T16:27:07.208Z</time></trkpt><trkpt lat="44.7437712" lon="10.2402553"><ele>121.0</ele><time>2026-04-24T16:27:08.207Z</time></trkpt><trkpt lat="44.7439725" lon="10.2402928"><ele>121.0</ele><time>2026-04-24T16:27:09.207Z</time></trkpt><trkpt lat="44.7441767" lon="10.2403253"><ele>121.0</ele><time>2026-04-24T16:27:10.207Z</time></trkpt><trkpt lat="44.7443845" lon="10.2403552"><ele>121.0</ele><time>2026-04-24T16:27:11.208Z</time></trkpt><trkpt lat="44.7445969" lon="10.2403819"><ele>121.0</ele><time>2026-04-24T16:27:12.208Z</time></trkpt><trkpt lat="44.7448103" lon="10.2404079"><ele>121.0</ele><time>2026-04-24T16:27:13.207Z</time></trkpt><trkpt lat="44.7450287" lon="10.2404339"><ele>121.0</ele><time>2026-04-24T16:27:14.207Z</time></trkpt><trkpt lat="44.7452495" lon="10.2404643"><ele>121.0</ele><time>2026-04-24T16:27:15.207Z</time></trkpt><trkpt lat="44.7454727" lon="10.2405055"><ele>121.0</ele><time>2026-04-24T16:27:16.206Z</time></trkpt><trkpt lat="44.7456918" lon="10.2405562"><ele>121.0</ele><time>2026-04-24T16:27:17.208Z</time></trkpt><trkpt lat="44.7459122" lon="10.2406182"><ele>120.5</ele><time>2026-04-24T16:27:18.206Z</time></trkpt><trkpt lat="44.7461329" lon="10.2406812"><ele>120.0</ele><time>2026-04-24T16:27:19.208Z</time></trkpt><trkpt lat="44.7463534" lon="10.2407497"><ele>120.0</ele><time>2026-04-24T16:27:20.207Z</time></trkpt><trkpt lat="44.7465736" lon="10.2408175"><ele>120.0</ele><time>2026-04-24T16:27:21.207Z</time></trkpt><trkpt lat="44.7467948" lon="10.2408865"><ele>119.0</ele><time>2026-04-24T16:27:22.207Z</time></trkpt><trkpt lat="44.7470184" lon="10.2409554"><ele>118.0</ele><time>2026-04-24T16:27:23.207Z</time></trkpt><trkpt lat="44.7472426" lon="10.2410296"><ele>118.0</ele><time>2026-04-24T16:27:24.206Z</time></trkpt><trkpt lat="44.7474596" lon="10.2411051"><ele>118.0</ele><time>2026-04-24T16:27:25.208Z</time></trkpt><trkpt lat="44.7476734" lon="10.2411791"><ele>118.0</ele><time>2026-04-24T16:27:26.207Z</time></trkpt><trkpt lat="44.7478916" lon="10.2412552"><ele>118.0</ele><time>2026-04-24T16:27:27.207Z</time></trkpt><trkpt lat="44.7481151" lon="10.2413349"><ele>118.0</ele><time>2026-04-24T16:27:28.207Z</time></trkpt><trkpt lat="44.748342" lon="10.2414161"><ele>118.5</ele><time>2026-04-24T16:27:29.206Z</time></trkpt><trkpt lat="44.7485696" lon="10.2414944"><ele>119.0</ele><time>2026-04-24T16:27:30.208Z</time></trkpt><trkpt lat="44.7488023" lon="10.2415766"><ele>119.0</ele><time>2026-04-24T16:27:31.207Z</time></trkpt><trkpt lat="44.749037" lon="10.2416599"><ele>119.0</ele><time>2026-04-24T16:27:32.208Z</time></trkpt><trkpt lat="44.7492733" lon="10.2417425"><ele>118.5</ele><time>2026-04-24T16:27:33.207Z</time></trkpt><trkpt lat="44.7495119" lon="10.2418253"><ele>118.0</ele><time>2026-04-24T16:27:34.207Z</time></trkpt><trkpt lat="44.7497515" lon="10.2419083"><ele>118.0</ele><time>2026-04-24T16:27:35.206Z</time></trkpt><trkpt lat="44.7499947" lon="10.2419882"><ele>118.0</ele><time>2026-04-24T16:27:36.206Z</time></trkpt><trkpt lat="44.7502399" lon="10.2420702"><ele>117.0</ele><time>2026-04-24T16:27:37.208Z</time></trkpt><trkpt lat="44.7504908" lon="10.2421549"><ele>116.0</ele><time>2026-04-24T16:27:38.208Z</time></trkpt><trkpt lat="44.750746" lon="10.2422424"><ele>115.5</ele><time>2026-04-24T16:27:39.207Z</time></trkpt><trkpt lat="44.750996" lon="10.2423314"><ele>115.0</ele><time>2026-04-24T16:27:40.208Z</time></trkpt><trkpt lat="44.7512373" lon="10.2424192"><ele>114.5</ele><time>2026-04-24T16:27:41.207Z</time></trkpt><trkpt lat="44.7514692" lon="10.2424993"><ele>114.0</ele><time>2026-04-24T16:27:42.207Z</time></trkpt><trkpt lat="44.75169" lon="10.2425793"><ele>114.0</ele><time>2026-04-24T16:27:43.207Z</time></trkpt><trkpt lat="44.7519084" lon="10.2426561"><ele>114.0</ele><time>2026-04-24T16:27:44.207Z</time></trkpt><trkpt lat="44.7521302" lon="10.2427385"><ele>114.0</ele><time>2026-04-24T16:27:45.207Z</time></trkpt><trkpt lat="44.7523447" lon="10.2428426"><ele>114.0</ele><time>2026-04-24T16:27:46.207Z</time></trkpt><trkpt lat="44.7525529" lon="10.2429668"><ele>114.0</ele><time>2026-04-24T16:27:47.208Z</time></trkpt><trkpt lat="44.7527377" lon="10.2431183"><ele>114.0</ele><time>2026-04-24T16:27:48.206Z</time></trkpt><trkpt lat="44.7529125" lon="10.2432951"><ele>114.0</ele><time>2026-04-24T16:27:49.207Z</time></trkpt><trkpt lat="44.7530872" lon="10.2434775"><ele>112.66666666666666</ele><time>2026-04-24T16:27:50.207Z</time></trkpt><trkpt lat="44.7532632" lon="10.2436522"><ele>111.33333333333333</ele><time>2026-04-24T16:27:51.206Z</time></trkpt><trkpt lat="44.7534438" lon="10.2438212"><ele>110.0</ele><time>2026-04-24T16:27:52.207Z</time></trkpt><trkpt lat="44.753631" lon="10.2439634"><ele>112.66666666666666</ele><time>2026-04-24T16:27:53.208Z</time></trkpt><trkpt lat="44.7538372" lon="10.2440687"><ele>115.33333333333334</ele><time>2026-04-24T16:27:54.207Z</time></trkpt><trkpt lat="44.7540559" lon="10.2441478"><ele>118.0</ele><time>2026-04-24T16:27:55.207Z</time></trkpt><trkpt lat="44.7542807" lon="10.2442278"><ele>114.5</ele><time>2026-04-24T16:27:56.206Z</time></trkpt><trkpt lat="44.7545054" lon="10.2443065"><ele>111.0</ele><time>2026-04-24T16:27:57.208Z</time></trkpt><trkpt lat="44.7547314" lon="10.2443799"><ele>111.0</ele><time>2026-04-24T16:27:58.208Z</time></trkpt><trkpt lat="44.7549534" lon="10.2444561"><ele>111.0</ele><time>2026-04-24T16:27:59.207Z</time></trkpt><trkpt lat="44.7551706" lon="10.2445296"><ele>112.0</ele><time>2026-04-24T16:28:00.206Z</time></trkpt><trkpt lat="44.7553861" lon="10.2446027"><ele>113.0</ele><time>2026-04-24T16:28:01.208Z</time></trkpt><trkpt lat="44.755603" lon="10.2446735"><ele>114.0</ele><time>2026-04-24T16:28:02.207Z</time></trkpt><trkpt lat="44.7558212" lon="10.2447388"><ele>115.0</ele><time>2026-04-24T16:28:03.206Z</time></trkpt><trkpt lat="44.7560463" lon="10.2448049"><ele>116.0</ele><time>2026-04-24T16:28:04.207Z</time></trkpt><trkpt lat="44.7562702" lon="10.2448739"><ele>116.0</ele><time>2026-04-24T16:28:05.207Z</time></trkpt><trkpt lat="44.7564858" lon="10.244944"><ele>116.0</ele><time>2026-04-24T16:28:06.206Z</time></trkpt><trkpt lat="44.7566904" lon="10.2450126"><ele>116.0</ele><time>2026-04-24T16:28:07.208Z</time></trkpt><trkpt lat="44.7568854" lon="10.2450819"><ele>114.0</ele><time>2026-04-24T16:28:08.206Z</time></trkpt><trkpt lat="44.7570802" lon="10.2451536"><ele>112.0</ele><time>2026-04-24T16:28:09.208Z</time></trkpt><trkpt lat="44.7572797" lon="10.2452366"><ele>110.0</ele><time>2026-04-24T16:28:10.208Z</time></trkpt><trkpt lat="44.7574763" lon="10.2453154"><ele>110.0</ele><time>2026-04-24T16:28:11.207Z</time></trkpt><trkpt lat="44.7576735" lon="10.2453916"><ele>110.0</ele><time>2026-04-24T16:28:12.206Z</time></trkpt><trkpt lat="44.7578702" lon="10.2454679"><ele>110.0</ele><time>2026-04-24T16:28:13.208Z</time></trkpt><trkpt lat="44.7580677" lon="10.2455456"><ele>109.66666666666666</ele><time>2026-04-24T16:28:14.206Z</time></trkpt><trkpt lat="44.7582677" lon="10.2456267"><ele>109.33333333333334</ele><time>2026-04-24T16:28:15.206Z</time></trkpt><trkpt lat="44.758467" lon="10.2457062"><ele>109.0</ele><time>2026-04-24T16:28:16.207Z</time></trkpt><trkpt lat="44.7586591" lon="10.2457825"><ele>108.33333333333334</ele><time>2026-04-24T16:28:17.208Z</time></trkpt><trkpt lat="44.7588406" lon="10.2458568"><ele>107.66666666666666</ele><time>2026-04-24T16:28:18.206Z</time></trkpt><trkpt lat="44.7590193" lon="10.2459291"><ele>107.0</ele><time>2026-04-24T16:28:19.208Z</time></trkpt><trkpt lat="44.7592009" lon="10.2459986"><ele>106.33333333333333</ele><time>2026-04-24T16:28:20.207Z</time></trkpt><trkpt lat="44.7593776" lon="10.2460645"><ele>105.66666666666666</ele><time>2026-04-24T16:28:21.207Z</time></trkpt><trkpt lat="44.759545" lon="10.2461197"><ele>105.0</ele><time>2026-04-24T16:28:22.207Z</time></trkpt><trkpt lat="44.7597084" lon="10.246136"><ele>105.0</ele><time>2026-04-24T16:28:23.207Z</time></trkpt><trkpt lat="44.7598723" lon="10.2461115"><ele>105.0</ele><time>2026-04-24T16:28:24.206Z</time></trkpt><trkpt lat="44.7600348" lon="10.246036"><ele>105.0</ele><time>2026-04-24T16:28:25.208Z</time></trkpt><trkpt lat="44.7601942" lon="10.2459075"><ele>105.0</ele><time>2026-04-24T16:28:26.208Z</time></trkpt><trkpt lat="44.7603546" lon="10.2457302"><ele>105.0</ele><time>2026-04-24T16:28:27.206Z</time></trkpt><trkpt lat="44.7605195" lon="10.2455374"><ele>105.0</ele><time>2026-04-24T16:28:28.206Z</time></trkpt><trkpt lat="44.7606921" lon="10.245344"><ele>105.0</ele><time>2026-04-24T16:28:29.207Z</time></trkpt><trkpt lat="44.7608533" lon="10.2451497"><ele>105.0</ele><time>2026-04-24T16:28:30.206Z</time></trkpt><trkpt lat="44.7609994" lon="10.2449731"><ele>105.0</ele><time>2026-04-24T16:28:31.208Z</time></trkpt><trkpt lat="44.761138" lon="10.2448189"><ele>104.25</ele><time>2026-04-24T16:28:32.207Z</time></trkpt><trkpt lat="44.7612747" lon="10.2447057"><ele>103.5</ele><time>2026-04-24T16:28:33.208Z</time></trkpt><trkpt lat="44.7614112" lon="10.2446435"><ele>102.75</ele><time>2026-04-24T16:28:34.208Z</time></trkpt><trkpt lat="44.7615351" lon="10.2446216"><ele>102.0</ele><time>2026-04-24T16:28:35.206Z</time></trkpt><trkpt lat="44.7616431" lon="10.2446356"><ele>102.0</ele><time>2026-04-24T16:28:36.206Z</time></trkpt><trkpt lat="44.7617366" lon="10.2446634"><ele>102.0</ele><time>2026-04-24T16:28:37.208Z</time></trkpt><trkpt lat="44.761812" lon="10.244703"><ele>102.0</ele><time>2026-04-24T16:28:38.206Z</time></trkpt><trkpt lat="44.7618774" lon="10.2447541"><ele>102.0</ele><time>2026-04-24T16:28:39.207Z</time></trkpt><trkpt lat="44.7619277" lon="10.2448147"><ele>102.0</ele><time>2026-04-24T16:28:40.207Z</time></trkpt><trkpt lat="44.7619762" lon="10.2448905"><ele>102.0</ele><time>2026-04-24T16:28:41.207Z</time></trkpt><trkpt lat="44.7620317" lon="10.2449882"><ele>102.0</ele><time>2026-04-24T16:28:42.207Z</time></trkpt><trkpt lat="44.7620919" lon="10.2450927"><ele>102.0</ele><time>2026-04-24T16:28:43.206Z</time></trkpt><trkpt lat="44.7621619" lon="10.245218"><ele>102.0</ele><time>2026-04-24T16:28:44.208Z</time></trkpt><trkpt lat="44.7622328" lon="10.2453504"><ele>102.0</ele><time>2026-04-24T16:28:45.207Z</time></trkpt><trkpt lat="44.7623111" lon="10.2455001"><ele>102.66666666666666</ele><time>2026-04-24T16:28:46.206Z</time></trkpt><trkpt lat="44.7623992" lon="10.2456686"><ele>103.33333333333333</ele><time>2026-04-24T16:28:47.208Z</time></trkpt><trkpt lat="44.762494" lon="10.2458621"><ele>104.0</ele><time>2026-04-24T16:28:48.207Z</time></trkpt><trkpt lat="44.7625841" lon="10.2460769"><ele>104.0</ele><time>2026-04-24T16:28:49.206Z</time></trkpt><trkpt lat="44.762678" lon="10.2462852"><ele>104.0</ele><time>2026-04-24T16:28:50.208Z</time></trkpt><trkpt lat="44.7627748" lon="10.2464801"><ele>104.0</ele><time>2026-04-24T16:28:51.206Z</time></trkpt><trkpt lat="44.7628642" lon="10.2466595"><ele>103.66666666666666</ele><time>2026-04-24T16:28:52.207Z</time></trkpt><trkpt lat="44.7629614" lon="10.2468439"><ele>103.33333333333334</ele><time>2026-04-24T16:28:53.208Z</time></trkpt><trkpt lat="44.7630543" lon="10.2470287"><ele>103.0</ele><time>2026-04-24T16:28:54.206Z</time></trkpt><trkpt lat="44.7631299" lon="10.2472192"><ele>103.66666666666667</ele><time>2026-04-24T16:28:55.208Z</time></trkpt><trkpt lat="44.7632244" lon="10.2474039"><ele>104.33333333333334</ele><time>2026-04-24T16:28:56.208Z</time></trkpt><trkpt lat="44.763318" lon="10.2476029"><ele>105.0</ele><time>2026-04-24T16:28:57.207Z</time></trkpt><trkpt lat="44.7634143" lon="10.2478047"><ele>105.0</ele><time>2026-04-24T16:28:58.208Z</time></trkpt><trkpt lat="44.7634957" lon="10.2479798"><ele>105.0</ele><time>2026-04-24T16:28:59.208Z</time></trkpt><trkpt lat="44.7635733" lon="10.2481309"><ele>105.0</ele><time>2026-04-24T16:29:00.207Z</time></trkpt><trkpt lat="44.7636378" lon="10.2482668"><ele>105.0</ele><time>2026-04-24T16:29:01.207Z</time></trkpt><trkpt lat="44.7636871" lon="10.2483691"><ele>104.4</ele><time>2026-04-24T16:29:02.207Z</time></trkpt><trkpt lat="44.763732" lon="10.2484537"><ele>103.8</ele><time>2026-04-24T16:29:03.206Z</time></trkpt><trkpt lat="44.7637712" lon="10.2485421"><ele>103.19999999999999</ele><time>2026-04-24T16:29:04.207Z</time></trkpt><trkpt lat="44.7638515" lon="10.2487073"><ele>102.6</ele><time>2026-04-24T16:29:06.207Z</time></trkpt><trkpt lat="44.7639095" lon="10.2488309"><ele>102.0</ele><time>2026-04-24T16:29:07.207Z</time></trkpt><trkpt lat="44.7639823" lon="10.2489869"><ele>102.0</ele><time>2026-04-24T16:29:08.208Z</time></trkpt><trkpt lat="44.7640742" lon="10.2491808"><ele>102.0</ele><time>2026-04-24T16:29:09.207Z</time></trkpt><trkpt lat="44.7641727" lon="10.2494043"><ele>102.0</ele><time>2026-04-24T16:29:10.208Z</time></trkpt><trkpt lat="44.7642802" lon="10.2496646"><ele>100.0</ele><time>2026-04-24T16:29:11.207Z</time></trkpt><trkpt lat="44.7644024" lon="10.2499358"><ele>98.0</ele><time>2026-04-24T16:29:12.206Z</time></trkpt><trkpt lat="44.764531" lon="10.2502232"><ele>98.0</ele><time>2026-04-24T16:29:13.207Z</time></trkpt><trkpt lat="44.7646626" lon="10.2505147"><ele>98.0</ele><time>2026-04-24T16:29:14.208Z</time></trkpt><trkpt lat="44.7647952" lon="10.2508098"><ele>98.0</ele><time>2026-04-24T16:29:15.206Z</time></trkpt><trkpt lat="44.7649286" lon="10.2511117"><ele>98.0</ele><time>2026-04-24T16:29:16.207Z</time></trkpt><trkpt lat="44.7650606" lon="10.2514081"><ele>98.5</ele><time>2026-04-24T16:29:17.207Z</time></trkpt><trkpt lat="44.7651891" lon="10.2516857"><ele>99.0</ele><time>2026-04-24T16:29:18.207Z</time></trkpt><trkpt lat="44.765305" lon="10.2519446"><ele>98.66666666666666</ele><time>2026-04-24T16:29:19.207Z</time></trkpt><trkpt lat="44.7654188" lon="10.252193"><ele>98.33333333333333</ele><time>2026-04-24T16:29:20.207Z</time></trkpt><trkpt lat="44.7655214" lon="10.2524293"><ele>98.0</ele><time>2026-04-24T16:29:21.207Z</time></trkpt><trkpt lat="44.7656219" lon="10.2526544"><ele>98.0</ele><time>2026-04-24T16:29:22.207Z</time></trkpt><trkpt lat="44.7657219" lon="10.2528757"><ele>98.0</ele><time>2026-04-24T16:29:23.205Z</time></trkpt><trkpt lat="44.7658161" lon="10.2530843"><ele>98.0</ele><time>2026-04-24T16:29:24.206Z</time></trkpt><trkpt lat="44.7659063" lon="10.2532828"><ele>98.0</ele><time>2026-04-24T16:29:25.207Z</time></trkpt><trkpt lat="44.7659926" lon="10.253467"><ele>98.0</ele><time>2026-04-24T16:29:26.206Z</time></trkpt><trkpt lat="44.7660761" lon="10.2536427"><ele>98.0</ele><time>2026-04-24T16:29:27.206Z</time></trkpt><trkpt lat="44.7661501" lon="10.2537906"><ele>98.0</ele><time>2026-04-24T16:29:28.206Z</time></trkpt><trkpt lat="44.7662095" lon="10.2539093"><ele>97.66666666666666</ele><time>2026-04-24T16:29:29.207Z</time></trkpt><trkpt lat="44.7662556" lon="10.2539996"><ele>97.33333333333333</ele><time>2026-04-24T16:29:30.205Z</time></trkpt><trkpt lat="44.7662975" lon="10.2540802"><ele>97.0</ele><time>2026-04-24T16:29:33.205Z</time></trkpt><trkpt lat="44.7663706" lon="10.2541817"><ele>96.66666666666666</ele><time>2026-04-24T16:29:48.205Z</time></trkpt><trkpt lat="44.7664763" lon="10.2541999"><ele>96.33333333333333</ele><time>2026-04-24T16:29:50.207Z</time></trkpt><trkpt lat="44.7665453" lon="10.2541642"><ele>96.0</ele><time>2026-04-24T16:29:51.205Z</time></trkpt><trkpt lat="44.7666011" lon="10.2541095"><ele>96.0</ele><time>2026-04-24T16:29:52.206Z</time></trkpt><trkpt lat="44.7666671" lon="10.254076"><ele>96.0</ele><time>2026-04-24T16:29:53.206Z</time></trkpt><trkpt lat="44.7667523" lon="10.2540562"><ele>96.0</ele><time>2026-04-24T16:29:54.206Z</time></trkpt><trkpt lat="44.7668612" lon="10.2540605"><ele>96.0</ele><time>2026-04-24T16:29:55.205Z</time></trkpt><trkpt lat="44.7670026" lon="10.254096"><ele>96.0</ele><time>2026-04-24T16:29:56.205Z</time></trkpt><trkpt lat="44.7671619" lon="10.2541506"><ele>96.0</ele><time>2026-04-24T16:29:57.205Z</time></trkpt><trkpt lat="44.7673271" lon="10.2542112"><ele>96.0</ele><time>2026-04-24T16:29:58.205Z</time></trkpt><trkpt lat="44.7675079" lon="10.2542694"><ele>96.0</ele><time>2026-04-24T16:29:59.206Z</time></trkpt><trkpt lat="44.7676978" lon="10.2543238"><ele>96.0</ele><time>2026-04-24T16:30:00.207Z</time></trkpt><trkpt lat="44.7678992" lon="10.2543852"><ele>96.0</ele><time>2026-04-24T16:30:01.205Z</time></trkpt><trkpt lat="44.7681" lon="10.2544475"><ele>96.0</ele><time>2026-04-24T16:30:02.206Z</time></trkpt><trkpt lat="44.7683073" lon="10.2545052"><ele>96.0</ele><time>2026-04-24T16:30:03.205Z</time></trkpt><trkpt lat="44.768522" lon="10.2545622"><ele>96.0</ele><time>2026-04-24T16:30:04.205Z</time></trkpt><trkpt lat="44.7687434" lon="10.2546188"><ele>96.0</ele><time>2026-04-24T16:30:05.205Z</time></trkpt><trkpt lat="44.7689689" lon="10.2546787"><ele>94.0</ele><time>2026-04-24T16:30:06.206Z</time></trkpt><trkpt lat="44.7691996" lon="10.254743"><ele>92.0</ele><time>2026-04-24T16:30:07.205Z</time></trkpt><trkpt lat="44.7694357" lon="10.25481"><ele>92.0</ele><time>2026-04-24T16:30:08.206Z</time></trkpt><trkpt lat="44.769674" lon="10.2548781"><ele>92.0</ele><time>2026-04-24T16:30:09.206Z</time></trkpt><trkpt lat="44.7699162" lon="10.2549457"><ele>92.0</ele><time>2026-04-24T16:30:10.206Z</time></trkpt><trkpt lat="44.7701592" lon="10.2550113"><ele>92.0</ele><time>2026-04-24T16:30:11.205Z</time></trkpt><trkpt lat="44.7704084" lon="10.2550797"><ele>92.0</ele><time>2026-04-24T16:30:12.207Z</time></trkpt><trkpt lat="44.770658" lon="10.2551491"><ele>92.0</ele><time>2026-04-24T16:30:13.207Z</time></trkpt><trkpt lat="44.7709091" lon="10.255224"><ele>91.5</ele><time>2026-04-24T16:30:14.205Z</time></trkpt><trkpt lat="44.7711627" lon="10.2552994"><ele>91.0</ele><time>2026-04-24T16:30:15.205Z</time></trkpt><trkpt lat="44.7714204" lon="10.2553767"><ele>91.0</ele><time>2026-04-24T16:30:16.205Z</time></trkpt><trkpt lat="44.7716771" lon="10.25545"><ele>91.0</ele><time>2026-04-24T16:30:17.206Z</time></trkpt><trkpt lat="44.7719415" lon="10.2555313"><ele>90.0</ele><time>2026-04-24T16:30:18.206Z</time></trkpt><trkpt lat="44.7722031" lon="10.2556075"><ele>89.0</ele><time>2026-04-24T16:30:19.206Z</time></trkpt><trkpt lat="44.7724675" lon="10.2556829"><ele>86.5</ele><time>2026-04-24T16:30:20.206Z</time></trkpt><trkpt lat="44.7727326" lon="10.2557523"><ele>84.0</ele><time>2026-04-24T16:30:21.206Z</time></trkpt><trkpt lat="44.7729984" lon="10.2558266"><ele>84.0</ele><time>2026-04-24T16:30:22.207Z</time></trkpt><trkpt lat="44.7732644" lon="10.2559031"><ele>84.0</ele><time>2026-04-24T16:30:23.206Z</time></trkpt><trkpt lat="44.7735317" lon="10.2559794"><ele>84.5</ele><time>2026-04-24T16:30:24.205Z</time></trkpt><trkpt lat="44.7737994" lon="10.2560531"><ele>85.0</ele><time>2026-04-24T16:30:25.206Z</time></trkpt><trkpt lat="44.7740628" lon="10.2561264"><ele>85.0</ele><time>2026-04-24T16:30:26.206Z</time></trkpt><trkpt lat="44.7743193" lon="10.2561963"><ele>85.0</ele><time>2026-04-24T16:30:27.205Z</time></trkpt><trkpt lat="44.7745671" lon="10.256265"><ele>83.5</ele><time>2026-04-24T16:30:28.207Z</time></trkpt><trkpt lat="44.7748061" lon="10.2563329"><ele>82.0</ele><time>2026-04-24T16:30:29.205Z</time></trkpt><trkpt lat="44.7750285" lon="10.2564022"><ele>83.0</ele><time>2026-04-24T16:30:30.207Z</time></trkpt><trkpt lat="44.775239" lon="10.2564647"><ele>84.0</ele><time>2026-04-24T16:30:31.205Z</time></trkpt><trkpt lat="44.7754255" lon="10.2565183"><ele>85.0</ele><time>2026-04-24T16:30:32.206Z</time></trkpt><trkpt lat="44.7755862" lon="10.2565631"><ele>85.0</ele><time>2026-04-24T16:30:33.206Z</time></trkpt><trkpt lat="44.7757179" lon="10.2565935"><ele>85.0</ele><time>2026-04-24T16:30:34.206Z</time></trkpt><trkpt lat="44.7758343" lon="10.2565894"><ele>85.0</ele><time>2026-04-24T16:30:35.205Z</time></trkpt><trkpt lat="44.7759346" lon="10.2565285"><ele>85.0</ele><time>2026-04-24T16:30:36.206Z</time></trkpt><trkpt lat="44.7760296" lon="10.2564232"><ele>85.4</ele><time>2026-04-24T16:30:37.205Z</time></trkpt><trkpt lat="44.77612" lon="10.2563057"><ele>85.8</ele><time>2026-04-24T16:30:38.205Z</time></trkpt><trkpt lat="44.7761831" lon="10.2562075"><ele>86.19999999999999</ele><time>2026-04-24T16:30:39.205Z</time></trkpt><trkpt lat="44.7762131" lon="10.256092"><ele>86.6</ele><time>2026-04-24T16:30:40.206Z</time></trkpt><trkpt lat="44.7762022" lon="10.25598"><ele>87.0</ele><time>2026-04-24T16:30:41.207Z</time></trkpt><trkpt lat="44.7761583" lon="10.2558608"><ele>87.0</ele><time>2026-04-24T16:30:42.207Z</time></trkpt><trkpt lat="44.7761181" lon="10.2557179"><ele>87.0</ele><time>2026-04-24T16:30:43.205Z</time></trkpt><trkpt lat="44.7761101" lon="10.2555403"><ele>87.0</ele><time>2026-04-24T16:30:44.206Z</time></trkpt><trkpt lat="44.7761144" lon="10.2553337"><ele>87.0</ele><time>2026-04-24T16:30:45.206Z</time></trkpt><trkpt lat="44.7761441" lon="10.255116"><ele>86.33333333333333</ele><time>2026-04-24T16:30:46.207Z</time></trkpt><trkpt lat="44.7762079" lon="10.2549011"><ele>85.66666666666666</ele><time>2026-04-24T16:30:47.207Z</time></trkpt><trkpt lat="44.7763044" lon="10.2546945"><ele>85.0</ele><time>2026-04-24T16:30:48.206Z</time></trkpt><trkpt lat="44.7764325" lon="10.2545065"><ele>84.66666666666666</ele><time>2026-04-24T16:30:49.205Z</time></trkpt><trkpt lat="44.7765871" lon="10.2543376"><ele>84.33333333333333</ele><time>2026-04-24T16:30:50.205Z</time></trkpt><trkpt lat="44.7767616" lon="10.2541845"><ele>84.0</ele><time>2026-04-24T16:30:51.206Z</time></trkpt><trkpt lat="44.7769393" lon="10.2540491"><ele>81.66666666666667</ele><time>2026-04-24T16:30:52.207Z</time></trkpt><trkpt lat="44.7771071" lon="10.2539339"><ele>79.33333333333334</ele><time>2026-04-24T16:30:53.206Z</time></trkpt><trkpt lat="44.7772911" lon="10.2538489"><ele>77.0</ele><time>2026-04-24T16:30:54.206Z</time></trkpt><trkpt lat="44.7774753" lon="10.2537904"><ele>77.0</ele><time>2026-04-24T16:30:55.206Z</time></trkpt><trkpt lat="44.7776615" lon="10.2537843"><ele>77.0</ele><time>2026-04-24T16:30:56.205Z</time></trkpt><trkpt lat="44.7778491" lon="10.2538231"><ele>77.0</ele><time>2026-04-24T16:30:57.207Z</time></trkpt><trkpt lat="44.7780337" lon="10.2539051"><ele>76.33333333333334</ele><time>2026-04-24T16:30:58.206Z</time></trkpt><trkpt lat="44.7782151" lon="10.2540369"><ele>75.66666666666667</ele><time>2026-04-24T16:30:59.205Z</time></trkpt><trkpt lat="44.7783848" lon="10.2542115"><ele>75.0</ele><time>2026-04-24T16:31:00.206Z</time></trkpt><trkpt lat="44.778537" lon="10.2544265"><ele>75.66666666666667</ele><time>2026-04-24T16:31:01.207Z</time></trkpt><trkpt lat="44.7786756" lon="10.2546735"><ele>76.33333333333334</ele><time>2026-04-24T16:31:02.206Z</time></trkpt><trkpt lat="44.7788045" lon="10.2549255"><ele>77.0</ele><time>2026-04-24T16:31:03.206Z</time></trkpt><trkpt lat="44.7789164" lon="10.2551419"><ele>77.0</ele><time>2026-04-24T16:31:04.206Z</time></trkpt><trkpt lat="44.7790145" lon="10.2553299"><ele>77.0</ele><time>2026-04-24T16:31:05.206Z</time></trkpt><trkpt lat="44.7790868" lon="10.2555028"><ele>77.0</ele><time>2026-04-24T16:31:06.206Z</time></trkpt><trkpt lat="44.779124" lon="10.2556717"><ele>77.0</ele><time>2026-04-24T16:31:07.205Z</time></trkpt><trkpt lat="44.779145" lon="10.255817"><ele>77.33333333333334</ele><time>2026-04-24T16:31:08.207Z</time></trkpt><trkpt lat="44.7791892" lon="10.2559159"><ele>77.66666666666667</ele><time>2026-04-24T16:31:09.206Z</time></trkpt><trkpt lat="44.779252" lon="10.2559744"><ele>78.0</ele><time>2026-04-24T16:31:10.205Z</time></trkpt><trkpt lat="44.7793249" lon="10.255979"><ele>78.33333333333333</ele><time>2026-04-24T16:31:11.205Z</time></trkpt><trkpt lat="44.7794025" lon="10.2559294"><ele>78.66666666666666</ele><time>2026-04-24T16:31:12.206Z</time></trkpt><trkpt lat="44.7794948" lon="10.2558817"><ele>79.0</ele><time>2026-04-24T16:31:13.206Z</time></trkpt><trkpt lat="44.7796029" lon="10.2558986"><ele>79.25</ele><time>2026-04-24T16:31:14.206Z</time></trkpt><trkpt lat="44.7797262" lon="10.2559456"><ele>79.5</ele><time>2026-04-24T16:31:15.207Z</time></trkpt><trkpt lat="44.7798628" lon="10.2559528"><ele>79.75</ele><time>2026-04-24T16:31:16.206Z</time></trkpt><trkpt lat="44.7800201" lon="10.2559532"><ele>80.0</ele><time>2026-04-24T16:31:17.206Z</time></trkpt><trkpt lat="44.7801788" lon="10.2559664"><ele>80.66666666666667</ele><time>2026-04-24T16:31:18.205Z</time></trkpt><trkpt lat="44.7803412" lon="10.2559773"><ele>81.33333333333333</ele><time>2026-04-24T16:31:19.206Z</time></trkpt><trkpt lat="44.7805094" lon="10.2559926"><ele>82.0</ele><time>2026-04-24T16:31:20.205Z</time></trkpt><trkpt lat="44.7806839" lon="10.2560114"><ele>82.0</ele><time>2026-04-24T16:31:21.207Z</time></trkpt><trkpt lat="44.7808619" lon="10.256042"><ele>82.0</ele><time>2026-04-24T16:31:22.207Z</time></trkpt><trkpt lat="44.7810485" lon="10.2560917"><ele>82.0</ele><time>2026-04-24T16:31:23.206Z</time></trkpt><trkpt lat="44.7812411" lon="10.2561609"><ele>81.33333333333333</ele><time>2026-04-24T16:31:24.207Z</time></trkpt><trkpt lat="44.7814374" lon="10.2562381"><ele>80.66666666666667</ele><time>2026-04-24T16:31:25.206Z</time></trkpt><trkpt lat="44.7816376" lon="10.2563247"><ele>80.0</ele><time>2026-04-24T16:31:26.207Z</time></trkpt><trkpt lat="44.7818411" lon="10.2564155"><ele>80.33333333333334</ele><time>2026-04-24T16:31:27.207Z</time></trkpt><trkpt lat="44.782046" lon="10.2565103"><ele>80.66666666666667</ele><time>2026-04-24T16:31:28.206Z</time></trkpt><trkpt lat="44.7822537" lon="10.2566"><ele>81.0</ele><time>2026-04-24T16:31:29.206Z</time></trkpt><trkpt lat="44.7824624" lon="10.2566886"><ele>81.0</ele><time>2026-04-24T16:31:30.206Z</time></trkpt><trkpt lat="44.7826659" lon="10.2567736"><ele>81.0</ele><time>2026-04-24T16:31:31.205Z</time></trkpt><trkpt lat="44.7828546" lon="10.2568489"><ele>81.0</ele><time>2026-04-24T16:31:32.206Z</time></trkpt><trkpt lat="44.7830293" lon="10.2569206"><ele>80.33333333333333</ele><time>2026-04-24T16:31:33.206Z</time></trkpt><trkpt lat="44.7831927" lon="10.2569833"><ele>79.66666666666666</ele><time>2026-04-24T16:31:34.206Z</time></trkpt><trkpt lat="44.7833559" lon="10.2570427"><ele>79.0</ele><time>2026-04-24T16:31:35.206Z</time></trkpt><trkpt lat="44.7835186" lon="10.2571032"><ele>78.66666666666666</ele><time>2026-04-24T16:31:36.206Z</time></trkpt><trkpt lat="44.7836827" lon="10.2571704"><ele>78.33333333333333</ele><time>2026-04-24T16:31:37.206Z</time></trkpt><trkpt lat="44.7838448" lon="10.2572372"><ele>78.0</ele><time>2026-04-24T16:31:38.206Z</time></trkpt><trkpt lat="44.7840085" lon="10.2573084"><ele>78.0</ele><time>2026-04-24T16:31:39.206Z</time></trkpt><trkpt lat="44.7841593" lon="10.2573695"><ele>78.0</ele><time>2026-04-24T16:31:40.206Z</time></trkpt><trkpt lat="44.7842999" lon="10.2574244"><ele>78.0</ele><time>2026-04-24T16:31:41.206Z</time></trkpt><trkpt lat="44.7844332" lon="10.2574708"><ele>78.0</ele><time>2026-04-24T16:31:42.206Z</time></trkpt><trkpt lat="44.784543" lon="10.2575133"><ele>78.0</ele><time>2026-04-24T16:31:43.206Z</time></trkpt><trkpt lat="44.7846221" lon="10.2575467"><ele>78.0</ele><time>2026-04-24T16:31:44.205Z</time></trkpt><trkpt lat="44.7846865" lon="10.2575687"><ele>78.0</ele><time>2026-04-24T16:31:45.205Z</time></trkpt><trkpt lat="44.784765" lon="10.2576042"><ele>78.0</ele><time>2026-04-24T16:31:47.207Z</time></trkpt><trkpt lat="44.7848303" lon="10.2576426"><ele>78.0</ele><time>2026-04-24T16:31:49.207Z</time></trkpt><trkpt lat="44.7848959" lon="10.257734"><ele>78.0</ele><time>2026-04-24T16:31:51.205Z</time></trkpt><trkpt lat="44.7849397" lon="10.2578396"><ele>78.0</ele><time>2026-04-24T16:31:52.206Z</time></trkpt><trkpt lat="44.7849774" lon="10.2579628"><ele>78.0</ele><time>2026-04-24T16:31:53.206Z</time></trkpt><trkpt lat="44.7850187" lon="10.2581091"><ele>78.0</ele><time>2026-04-24T16:31:54.206Z</time></trkpt><trkpt lat="44.7850631" lon="10.2582519"><ele>78.0</ele><time>2026-04-24T16:31:55.206Z</time></trkpt><trkpt lat="44.7851138" lon="10.2584108"><ele>78.0</ele><time>2026-04-24T16:31:56.207Z</time></trkpt><trkpt lat="44.785167" lon="10.2585781"><ele>78.0</ele><time>2026-04-24T16:31:57.205Z</time></trkpt><trkpt lat="44.785221" lon="10.2587571"><ele>78.0</ele><time>2026-04-24T16:31:58.206Z</time></trkpt><trkpt lat="44.7852707" lon="10.2589185"><ele>78.0</ele><time>2026-04-24T16:31:59.207Z</time></trkpt><trkpt lat="44.7853145" lon="10.2590678"><ele>78.0</ele><time>2026-04-24T16:32:00.206Z</time></trkpt><trkpt lat="44.7853606" lon="10.2592257"><ele>78.0</ele><time>2026-04-24T16:32:01.206Z</time></trkpt><trkpt lat="44.785407" lon="10.259394"><ele>78.0</ele><time>2026-04-24T16:32:02.207Z</time></trkpt><trkpt lat="44.7854506" lon="10.2595612"><ele>78.0</ele><time>2026-04-24T16:32:03.206Z</time></trkpt><trkpt lat="44.7854914" lon="10.2597191"><ele>78.0</ele><time>2026-04-24T16:32:04.206Z</time></trkpt><trkpt lat="44.7855319" lon="10.2598427"><ele>78.0</ele><time>2026-04-24T16:32:05.206Z</time></trkpt><trkpt lat="44.785567" lon="10.2599719"><ele>78.0</ele><time>2026-04-24T16:32:06.205Z</time></trkpt><trkpt lat="44.7855901" lon="10.2600646"><ele>78.0</ele><time>2026-04-24T16:32:07.207Z</time></trkpt><trkpt lat="44.7857133" lon="10.2600144"><ele>78.0</ele><time>2026-04-24T16:32:08.206Z</time></trkpt><trkpt lat="44.7857957" lon="10.2600249"><ele>78.0</ele><time>2026-04-24T16:32:09.206Z</time></trkpt><trkpt lat="44.7858949" lon="10.2600012"><ele>78.0</ele><time>2026-04-24T16:32:10.205Z</time></trkpt><trkpt lat="44.7860069" lon="10.2599923"><ele>78.0</ele><time>2026-04-24T16:32:11.206Z</time></trkpt><trkpt lat="44.7861315" lon="10.2600023"><ele>78.0</ele><time>2026-04-24T16:32:12.206Z</time></trkpt><trkpt lat="44.7862717" lon="10.2600126"><ele>78.0</ele><time>2026-04-24T16:32:13.206Z</time></trkpt><trkpt lat="44.7864012" lon="10.2600152"><ele>77.5</ele><time>2026-04-24T16:32:14.207Z</time></trkpt><trkpt lat="44.7865145" lon="10.2600076"><ele>77.0</ele><time>2026-04-24T16:32:15.206Z</time></trkpt><trkpt lat="44.7865981" lon="10.2600053"><ele>76.5</ele><time>2026-04-24T16:32:16.206Z</time></trkpt><trkpt lat="44.7866747" lon="10.2600104"><ele>76.0</ele><time>2026-04-24T16:32:17.207Z</time></trkpt><trkpt lat="44.7867526" lon="10.2600148"><ele>75.5</ele><time>2026-04-24T16:32:18.207Z</time></trkpt><trkpt lat="44.7868446" lon="10.2600149"><ele>75.0</ele><time>2026-04-24T16:32:19.206Z</time></trkpt><trkpt lat="44.7869463" lon="10.2600097"><ele>74.5</ele><time>2026-04-24T16:32:20.207Z</time></trkpt><trkpt lat="44.7870521" lon="10.2599993"><ele>74.0</ele><time>2026-04-24T16:32:21.206Z</time></trkpt><trkpt lat="44.7871649" lon="10.2599896"><ele>73.5</ele><time>2026-04-24T16:32:22.206Z</time></trkpt><trkpt lat="44.7872809" lon="10.259987"><ele>73.0</ele><time>2026-04-24T16:32:23.206Z</time></trkpt><trkpt lat="44.7874181" lon="10.2599906"><ele>73.0</ele><time>2026-04-24T16:32:24.206Z</time></trkpt><trkpt lat="44.787568" lon="10.2599815"><ele>73.0</ele><time>2026-04-24T16:32:25.206Z</time></trkpt><trkpt lat="44.787721" lon="10.259972"><ele>73.0</ele><time>2026-04-24T16:32:26.207Z</time></trkpt><trkpt lat="44.7878801" lon="10.2599675"><ele>72.66666666666666</ele><time>2026-04-24T16:32:27.206Z</time></trkpt><trkpt lat="44.7880462" lon="10.2599644"><ele>72.33333333333333</ele><time>2026-04-24T16:32:28.205Z</time></trkpt><trkpt lat="44.7882181" lon="10.2599613"><ele>72.0</ele><time>2026-04-24T16:32:29.205Z</time></trkpt><trkpt lat="44.7883898" lon="10.2599542"><ele>73.0</ele><time>2026-04-24T16:32:30.206Z</time></trkpt><trkpt lat="44.7885501" lon="10.2599437"><ele>74.0</ele><time>2026-04-24T16:32:31.205Z</time></trkpt><trkpt lat="44.7886856" lon="10.259936"><ele>75.0</ele><time>2026-04-24T16:32:32.207Z</time></trkpt><trkpt lat="44.7887834" lon="10.2599352"><ele>76.0</ele><time>2026-04-24T16:32:33.207Z</time></trkpt><trkpt lat="44.7888483" lon="10.2599583"><ele>76.0</ele><time>2026-04-24T16:32:34.206Z</time></trkpt><trkpt lat="44.7889069" lon="10.2600981"><ele>76.0</ele><time>2026-04-24T16:32:36.205Z</time></trkpt><trkpt lat="44.7888957" lon="10.2602268"><ele>76.0</ele><time>2026-04-24T16:32:37.205Z</time></trkpt><trkpt lat="44.7888666" lon="10.2603806"><ele>76.0</ele><time>2026-04-24T16:32:38.206Z</time></trkpt><trkpt lat="44.788826" lon="10.2605693"><ele>74.66666666666666</ele><time>2026-04-24T16:32:39.206Z</time></trkpt><trkpt lat="44.7887829" lon="10.2607701"><ele>73.33333333333333</ele><time>2026-04-24T16:32:40.206Z</time></trkpt><trkpt lat="44.7887394" lon="10.2609852"><ele>72.0</ele><time>2026-04-24T16:32:41.207Z</time></trkpt><trkpt lat="44.7886948" lon="10.2612073"><ele>72.0</ele><time>2026-04-24T16:32:42.206Z</time></trkpt><trkpt lat="44.7886501" lon="10.261435"><ele>72.0</ele><time>2026-04-24T16:32:43.205Z</time></trkpt><trkpt lat="44.7885992" lon="10.2616704"><ele>72.0</ele><time>2026-04-24T16:32:44.205Z</time></trkpt><trkpt lat="44.7885513" lon="10.2618958"><ele>72.25</ele><time>2026-04-24T16:32:45.206Z</time></trkpt><trkpt lat="44.7885076" lon="10.2620972"><ele>72.5</ele><time>2026-04-24T16:32:46.207Z</time></trkpt><trkpt lat="44.7884655" lon="10.2622869"><ele>72.75</ele><time>2026-04-24T16:32:47.206Z</time></trkpt><trkpt lat="44.7884275" lon="10.2624905"><ele>73.0</ele><time>2026-04-24T16:32:48.206Z</time></trkpt><trkpt lat="44.7883879" lon="10.2627064"><ele>73.0</ele><time>2026-04-24T16:32:49.206Z</time></trkpt><trkpt lat="44.7883441" lon="10.2629336"><ele>73.0</ele><time>2026-04-24T16:32:50.206Z</time></trkpt><trkpt lat="44.7882967" lon="10.2631635"><ele>73.0</ele><time>2026-04-24T16:32:51.206Z</time></trkpt><trkpt lat="44.7882504" lon="10.2633755"><ele>73.0</ele><time>2026-04-24T16:32:52.206Z</time></trkpt><trkpt lat="44.78821" lon="10.2635547"><ele>73.0</ele><time>2026-04-24T16:32:53.206Z</time></trkpt><trkpt lat="44.7881734" lon="10.2637071"><ele>73.0</ele><time>2026-04-24T16:32:54.205Z</time></trkpt><trkpt lat="44.7881451" lon="10.2638234"><ele>73.0</ele><time>2026-04-24T16:32:55.204Z</time></trkpt><trkpt lat="44.7881185" lon="10.2639765"><ele>73.0</ele><time>2026-04-24T16:32:57.205Z</time></trkpt><trkpt lat="44.7880976" lon="10.2640979"><ele>72.8</ele><time>2026-04-24T16:32:59.205Z</time></trkpt><trkpt lat="44.7880309" lon="10.2641462"><ele>72.6</ele><time>2026-04-24T16:33:13.206Z</time></trkpt><trkpt lat="44.7878426" lon="10.2641593"><ele>72.4</ele><time>2026-04-24T16:33:16.204Z</time></trkpt><trkpt lat="44.7877509" lon="10.2641852"><ele>72.2</ele><time>2026-04-24T16:33:17.204Z</time></trkpt><trkpt lat="44.787675" lon="10.2641907"><ele>72.0</ele><time>2026-04-24T16:33:18.205Z</time></trkpt><trkpt lat="44.7876285" lon="10.2641237"><ele>75.0</ele><time>2026-04-24T16:33:21.204Z</time></trkpt></trkseg></trk></gpx>